<?xml version="1.0" encoding="UTF-8"?>
<gpx version="1.1" creator="https://www.youtrack.es" xsi:schemaLocation="http://www.topografix.com/GPX/1/1 http://www.topografix.com/GPX/1/1/gpx.xsd http://www.garmin.com/xmlschemas/GpxExtensions/v3 http://www.garmin.com/xmlschemas/GpxExtensionsv3.xsd http://www.garmin.com/xmlschemas/TrackPointExtension/v1 http://www.garmin.com/xmlschemas/TrackPointExtensionv1.xsd" xmlns:gpxtpx="http://www.garmin.com/xmlschemas/TrackPointExtension/v1" xmlns:gpxx="http://www.garmin.com/xmlschemas/GpxExtensions/v3" xmlns:xsi="http://www.w3.org/2001/XMLSchema-instance">
  <metadata>
    <link href="https://www.youtrack.es">
      <text>YouTrack.es</text>
    </link>
    <time>2026-05-08T02:19:28Z</time>
  </metadata>
  <trk>
    <src>https://www.youtrack.es</src>
    <link href="https://www.youtrack.es/ruta/16685-rota-carmelitas">
      <text>YouTrack.es</text>
    </link>
    <trkseg>
      <trkpt lat="40.222975000" lon="-8.440043000">
        <ele>18.400000</ele>
        <time>2020-10-17T07:16:45Z</time>
      </trkpt>
      <trkpt lat="40.222912000" lon="-8.440040000">
        <ele>18.600000</ele>
        <time>2020-10-17T07:16:47Z</time>
      </trkpt>
      <trkpt lat="40.222878000" lon="-8.440039000">
        <ele>17.800000</ele>
        <time>2020-10-17T07:16:48Z</time>
      </trkpt>
      <trkpt lat="40.222817000" lon="-8.440028000">
        <ele>19.200000</ele>
        <time>2020-10-17T07:16:50Z</time>
      </trkpt>
      <trkpt lat="40.222789000" lon="-8.440021000">
        <ele>19.200000</ele>
        <time>2020-10-17T07:16:51Z</time>
      </trkpt>
      <trkpt lat="40.222698000" lon="-8.440000000">
        <ele>19.200000</ele>
        <time>2020-10-17T07:16:54Z</time>
      </trkpt>
      <trkpt lat="40.222665000" lon="-8.439996000">
        <ele>19.200000</ele>
        <time>2020-10-17T07:16:55Z</time>
      </trkpt>
      <trkpt lat="40.222637000" lon="-8.439993000">
        <ele>19.000000</ele>
        <time>2020-10-17T07:16:56Z</time>
      </trkpt>
      <trkpt lat="40.222506000" lon="-8.439980000">
        <ele>19.400000</ele>
        <time>2020-10-17T07:17:00Z</time>
      </trkpt>
      <trkpt lat="40.222402000" lon="-8.439952000">
        <ele>19.200000</ele>
        <time>2020-10-17T07:17:03Z</time>
      </trkpt>
      <trkpt lat="40.222368000" lon="-8.439948000">
        <ele>19.200000</ele>
        <time>2020-10-17T07:17:04Z</time>
      </trkpt>
      <trkpt lat="40.222219000" lon="-8.439923000">
        <ele>19.400000</ele>
        <time>2020-10-17T07:17:08Z</time>
      </trkpt>
      <trkpt lat="40.222071000" lon="-8.439906000">
        <ele>19.600000</ele>
        <time>2020-10-17T07:17:12Z</time>
      </trkpt>
      <trkpt lat="40.221997000" lon="-8.439901000">
        <ele>19.600000</ele>
        <time>2020-10-17T07:17:14Z</time>
      </trkpt>
      <trkpt lat="40.221964000" lon="-8.439902000">
        <ele>19.600000</ele>
        <time>2020-10-17T07:17:15Z</time>
      </trkpt>
      <trkpt lat="40.221931000" lon="-8.439899000">
        <ele>19.600000</ele>
        <time>2020-10-17T07:17:16Z</time>
      </trkpt>
      <trkpt lat="40.221897000" lon="-8.439896000">
        <ele>19.600000</ele>
        <time>2020-10-17T07:17:17Z</time>
      </trkpt>
      <trkpt lat="40.221738000" lon="-8.439865000">
        <ele>19.600000</ele>
        <time>2020-10-17T07:17:21Z</time>
      </trkpt>
      <trkpt lat="40.221696000" lon="-8.439862000">
        <ele>19.600000</ele>
        <time>2020-10-17T07:17:22Z</time>
      </trkpt>
      <trkpt lat="40.221611000" lon="-8.439849000">
        <ele>19.600000</ele>
        <time>2020-10-17T07:17:24Z</time>
      </trkpt>
      <trkpt lat="40.221611000" lon="-8.439849000">
        <ele>19.400000</ele>
        <time>2020-10-17T07:17:26Z</time>
      </trkpt>
      <trkpt lat="40.221607000" lon="-8.439767000">
        <ele>19.400000</ele>
        <time>2020-10-17T07:17:27Z</time>
      </trkpt>
      <trkpt lat="40.221527000" lon="-8.439826000">
        <ele>19.400000</ele>
        <time>2020-10-17T07:17:28Z</time>
      </trkpt>
      <trkpt lat="40.221367000" lon="-8.439944000">
        <ele>19.400000</ele>
        <time>2020-10-17T07:17:29Z</time>
      </trkpt>
      <trkpt lat="40.221311000" lon="-8.439922000">
        <ele>19.400000</ele>
        <time>2020-10-17T07:17:30Z</time>
      </trkpt>
      <trkpt lat="40.221204000" lon="-8.439882000">
        <ele>19.400000</ele>
        <time>2020-10-17T07:17:32Z</time>
      </trkpt>
      <trkpt lat="40.221150000" lon="-8.439868000">
        <ele>19.400000</ele>
        <time>2020-10-17T07:17:33Z</time>
      </trkpt>
      <trkpt lat="40.221110000" lon="-8.439840000">
        <ele>19.400000</ele>
        <time>2020-10-17T07:17:34Z</time>
      </trkpt>
      <trkpt lat="40.221074000" lon="-8.439815000">
        <ele>19.400000</ele>
        <time>2020-10-17T07:17:35Z</time>
      </trkpt>
      <trkpt lat="40.221038000" lon="-8.439790000">
        <ele>19.400000</ele>
        <time>2020-10-17T07:17:36Z</time>
      </trkpt>
      <trkpt lat="40.220929000" lon="-8.439717000">
        <ele>19.200000</ele>
        <time>2020-10-17T07:17:39Z</time>
      </trkpt>
      <trkpt lat="40.220899000" lon="-8.439690000">
        <ele>19.400000</ele>
        <time>2020-10-17T07:17:40Z</time>
      </trkpt>
      <trkpt lat="40.220867000" lon="-8.439666000">
        <ele>19.400000</ele>
        <time>2020-10-17T07:17:41Z</time>
      </trkpt>
      <trkpt lat="40.220834000" lon="-8.439641000">
        <ele>19.400000</ele>
        <time>2020-10-17T07:17:42Z</time>
      </trkpt>
      <trkpt lat="40.220799000" lon="-8.439619000">
        <ele>19.400000</ele>
        <time>2020-10-17T07:17:43Z</time>
      </trkpt>
      <trkpt lat="40.220684000" lon="-8.439481000">
        <ele>19.200000</ele>
        <time>2020-10-17T07:17:47Z</time>
      </trkpt>
      <trkpt lat="40.220662000" lon="-8.439445000">
        <ele>19.400000</ele>
        <time>2020-10-17T07:17:48Z</time>
      </trkpt>
      <trkpt lat="40.220641000" lon="-8.439402000">
        <ele>19.200000</ele>
        <time>2020-10-17T07:17:49Z</time>
      </trkpt>
      <trkpt lat="40.220615000" lon="-8.439372000">
        <ele>19.400000</ele>
        <time>2020-10-17T07:17:50Z</time>
      </trkpt>
      <trkpt lat="40.220502000" lon="-8.439298000">
        <ele>19.200000</ele>
        <time>2020-10-17T07:17:53Z</time>
      </trkpt>
      <trkpt lat="40.220460000" lon="-8.439283000">
        <ele>19.200000</ele>
        <time>2020-10-17T07:17:54Z</time>
      </trkpt>
      <trkpt lat="40.220378000" lon="-8.439258000">
        <ele>19.200000</ele>
        <time>2020-10-17T07:17:56Z</time>
      </trkpt>
      <trkpt lat="40.220249000" lon="-8.439222000">
        <ele>19.000000</ele>
        <time>2020-10-17T07:17:59Z</time>
      </trkpt>
      <trkpt lat="40.220210000" lon="-8.439206000">
        <ele>19.000000</ele>
        <time>2020-10-17T07:18:00Z</time>
      </trkpt>
      <trkpt lat="40.220174000" lon="-8.439190000">
        <ele>19.000000</ele>
        <time>2020-10-17T07:18:01Z</time>
      </trkpt>
      <trkpt lat="40.220134000" lon="-8.439176000">
        <ele>19.000000</ele>
        <time>2020-10-17T07:18:02Z</time>
      </trkpt>
      <trkpt lat="40.220097000" lon="-8.439163000">
        <ele>19.000000</ele>
        <time>2020-10-17T07:18:03Z</time>
      </trkpt>
      <trkpt lat="40.220055000" lon="-8.439148000">
        <ele>19.000000</ele>
        <time>2020-10-17T07:18:04Z</time>
      </trkpt>
      <trkpt lat="40.220017000" lon="-8.439131000">
        <ele>19.000000</ele>
        <time>2020-10-17T07:18:05Z</time>
      </trkpt>
      <trkpt lat="40.219979000" lon="-8.439114000">
        <ele>18.800000</ele>
        <time>2020-10-17T07:18:06Z</time>
      </trkpt>
      <trkpt lat="40.219941000" lon="-8.439099000">
        <ele>18.800000</ele>
        <time>2020-10-17T07:18:07Z</time>
      </trkpt>
      <trkpt lat="40.219904000" lon="-8.439088000">
        <ele>18.800000</ele>
        <time>2020-10-17T07:18:08Z</time>
      </trkpt>
      <trkpt lat="40.219866000" lon="-8.439078000">
        <ele>19.000000</ele>
        <time>2020-10-17T07:18:09Z</time>
      </trkpt>
      <trkpt lat="40.219829000" lon="-8.439069000">
        <ele>19.000000</ele>
        <time>2020-10-17T07:18:10Z</time>
      </trkpt>
      <trkpt lat="40.219671000" lon="-8.439022000">
        <ele>19.000000</ele>
        <time>2020-10-17T07:18:14Z</time>
      </trkpt>
      <trkpt lat="40.219630000" lon="-8.439020000">
        <ele>19.400000</ele>
        <time>2020-10-17T07:18:15Z</time>
      </trkpt>
      <trkpt lat="40.219553000" lon="-8.439025000">
        <ele>19.600000</ele>
        <time>2020-10-17T07:18:17Z</time>
      </trkpt>
      <trkpt lat="40.219520000" lon="-8.439046000">
        <ele>19.600000</ele>
        <time>2020-10-17T07:18:18Z</time>
      </trkpt>
      <trkpt lat="40.219488000" lon="-8.439057000">
        <ele>19.600000</ele>
        <time>2020-10-17T07:18:19Z</time>
      </trkpt>
      <trkpt lat="40.219427000" lon="-8.439085000">
        <ele>19.800000</ele>
        <time>2020-10-17T07:18:21Z</time>
      </trkpt>
      <trkpt lat="40.219390000" lon="-8.439075000">
        <ele>19.800000</ele>
        <time>2020-10-17T07:18:22Z</time>
      </trkpt>
      <trkpt lat="40.219358000" lon="-8.439057000">
        <ele>19.800000</ele>
        <time>2020-10-17T07:18:23Z</time>
      </trkpt>
      <trkpt lat="40.219335000" lon="-8.439028000">
        <ele>19.800000</ele>
        <time>2020-10-17T07:18:24Z</time>
      </trkpt>
      <trkpt lat="40.219323000" lon="-8.438993000">
        <ele>19.800000</ele>
        <time>2020-10-17T07:18:25Z</time>
      </trkpt>
      <trkpt lat="40.219312000" lon="-8.438957000">
        <ele>20.000000</ele>
        <time>2020-10-17T07:18:26Z</time>
      </trkpt>
      <trkpt lat="40.219296000" lon="-8.438928000">
        <ele>19.800000</ele>
        <time>2020-10-17T07:18:27Z</time>
      </trkpt>
      <trkpt lat="40.219274000" lon="-8.438909000">
        <ele>19.800000</ele>
        <time>2020-10-17T07:18:28Z</time>
      </trkpt>
      <trkpt lat="40.219213000" lon="-8.438882000">
        <ele>19.800000</ele>
        <time>2020-10-17T07:18:30Z</time>
      </trkpt>
      <trkpt lat="40.219180000" lon="-8.438873000">
        <ele>19.800000</ele>
        <time>2020-10-17T07:18:31Z</time>
      </trkpt>
      <trkpt lat="40.219143000" lon="-8.438865000">
        <ele>20.000000</ele>
        <time>2020-10-17T07:18:32Z</time>
      </trkpt>
      <trkpt lat="40.219103000" lon="-8.438859000">
        <ele>19.800000</ele>
        <time>2020-10-17T07:18:33Z</time>
      </trkpt>
      <trkpt lat="40.219019000" lon="-8.438821000">
        <ele>19.800000</ele>
        <time>2020-10-17T07:18:35Z</time>
      </trkpt>
      <trkpt lat="40.218902000" lon="-8.438770000">
        <ele>19.800000</ele>
        <time>2020-10-17T07:18:38Z</time>
      </trkpt>
      <trkpt lat="40.218867000" lon="-8.438757000">
        <ele>19.800000</ele>
        <time>2020-10-17T07:18:39Z</time>
      </trkpt>
      <trkpt lat="40.218831000" lon="-8.438738000">
        <ele>19.800000</ele>
        <time>2020-10-17T07:18:40Z</time>
      </trkpt>
      <trkpt lat="40.218791000" lon="-8.438720000">
        <ele>19.800000</ele>
        <time>2020-10-17T07:18:41Z</time>
      </trkpt>
      <trkpt lat="40.218711000" lon="-8.438679000">
        <ele>19.600000</ele>
        <time>2020-10-17T07:18:43Z</time>
      </trkpt>
      <trkpt lat="40.218676000" lon="-8.438665000">
        <ele>19.600000</ele>
        <time>2020-10-17T07:18:44Z</time>
      </trkpt>
      <trkpt lat="40.218641000" lon="-8.438648000">
        <ele>19.800000</ele>
        <time>2020-10-17T07:18:45Z</time>
      </trkpt>
      <trkpt lat="40.218608000" lon="-8.438631000">
        <ele>19.600000</ele>
        <time>2020-10-17T07:18:46Z</time>
      </trkpt>
      <trkpt lat="40.218575000" lon="-8.438613000">
        <ele>19.600000</ele>
        <time>2020-10-17T07:18:47Z</time>
      </trkpt>
      <trkpt lat="40.218545000" lon="-8.438589000">
        <ele>19.800000</ele>
        <time>2020-10-17T07:18:48Z</time>
      </trkpt>
      <trkpt lat="40.218516000" lon="-8.438566000">
        <ele>19.400000</ele>
        <time>2020-10-17T07:18:49Z</time>
      </trkpt>
      <trkpt lat="40.218487000" lon="-8.438538000">
        <ele>19.400000</ele>
        <time>2020-10-17T07:18:50Z</time>
      </trkpt>
      <trkpt lat="40.218460000" lon="-8.438531000">
        <ele>19.000000</ele>
        <time>2020-10-17T07:18:51Z</time>
      </trkpt>
      <trkpt lat="40.218437000" lon="-8.438510000">
        <ele>19.200000</ele>
        <time>2020-10-17T07:18:52Z</time>
      </trkpt>
      <trkpt lat="40.218409000" lon="-8.438491000">
        <ele>19.000000</ele>
        <time>2020-10-17T07:18:53Z</time>
      </trkpt>
      <trkpt lat="40.218380000" lon="-8.438480000">
        <ele>19.200000</ele>
        <time>2020-10-17T07:18:54Z</time>
      </trkpt>
      <trkpt lat="40.218313000" lon="-8.438436000">
        <ele>19.400000</ele>
        <time>2020-10-17T07:18:56Z</time>
      </trkpt>
      <trkpt lat="40.218250000" lon="-8.438407000">
        <ele>19.200000</ele>
        <time>2020-10-17T07:18:58Z</time>
      </trkpt>
      <trkpt lat="40.218227000" lon="-8.438404000">
        <ele>19.200000</ele>
        <time>2020-10-17T07:18:59Z</time>
      </trkpt>
      <trkpt lat="40.218200000" lon="-8.438396000">
        <ele>19.200000</ele>
        <time>2020-10-17T07:19:00Z</time>
      </trkpt>
      <trkpt lat="40.218172000" lon="-8.438384000">
        <ele>19.200000</ele>
        <time>2020-10-17T07:19:01Z</time>
      </trkpt>
      <trkpt lat="40.218141000" lon="-8.438368000">
        <ele>19.400000</ele>
        <time>2020-10-17T07:19:02Z</time>
      </trkpt>
      <trkpt lat="40.218113000" lon="-8.438351000">
        <ele>19.400000</ele>
        <time>2020-10-17T07:19:03Z</time>
      </trkpt>
      <trkpt lat="40.218053000" lon="-8.438311000">
        <ele>19.600000</ele>
        <time>2020-10-17T07:19:05Z</time>
      </trkpt>
      <trkpt lat="40.218020000" lon="-8.438292000">
        <ele>19.600000</ele>
        <time>2020-10-17T07:19:06Z</time>
      </trkpt>
      <trkpt lat="40.217987000" lon="-8.438273000">
        <ele>19.600000</ele>
        <time>2020-10-17T07:19:07Z</time>
      </trkpt>
      <trkpt lat="40.217953000" lon="-8.438255000">
        <ele>19.400000</ele>
        <time>2020-10-17T07:19:08Z</time>
      </trkpt>
      <trkpt lat="40.217918000" lon="-8.438230000">
        <ele>19.600000</ele>
        <time>2020-10-17T07:19:09Z</time>
      </trkpt>
      <trkpt lat="40.217814000" lon="-8.438187000">
        <ele>19.600000</ele>
        <time>2020-10-17T07:19:12Z</time>
      </trkpt>
      <trkpt lat="40.217786000" lon="-8.438172000">
        <ele>19.600000</ele>
        <time>2020-10-17T07:19:13Z</time>
      </trkpt>
      <trkpt lat="40.217735000" lon="-8.438123000">
        <ele>19.600000</ele>
        <time>2020-10-17T07:19:15Z</time>
      </trkpt>
      <trkpt lat="40.217713000" lon="-8.438109000">
        <ele>19.600000</ele>
        <time>2020-10-17T07:19:16Z</time>
      </trkpt>
      <trkpt lat="40.217704000" lon="-8.438091000">
        <ele>19.600000</ele>
        <time>2020-10-17T07:19:17Z</time>
      </trkpt>
      <trkpt lat="40.217698000" lon="-8.438070000">
        <ele>19.600000</ele>
        <time>2020-10-17T07:19:18Z</time>
      </trkpt>
      <trkpt lat="40.217692000" lon="-8.438032000">
        <ele>19.600000</ele>
        <time>2020-10-17T07:19:19Z</time>
      </trkpt>
      <trkpt lat="40.217681000" lon="-8.437994000">
        <ele>19.600000</ele>
        <time>2020-10-17T07:19:20Z</time>
      </trkpt>
      <trkpt lat="40.217664000" lon="-8.437959000">
        <ele>19.600000</ele>
        <time>2020-10-17T07:19:21Z</time>
      </trkpt>
      <trkpt lat="40.217644000" lon="-8.437934000">
        <ele>19.800000</ele>
        <time>2020-10-17T07:19:22Z</time>
      </trkpt>
      <trkpt lat="40.217609000" lon="-8.437926000">
        <ele>19.800000</ele>
        <time>2020-10-17T07:19:23Z</time>
      </trkpt>
      <trkpt lat="40.217576000" lon="-8.437913000">
        <ele>19.600000</ele>
        <time>2020-10-17T07:19:24Z</time>
      </trkpt>
      <trkpt lat="40.217544000" lon="-8.437889000">
        <ele>19.600000</ele>
        <time>2020-10-17T07:19:25Z</time>
      </trkpt>
      <trkpt lat="40.217470000" lon="-8.437835000">
        <ele>19.800000</ele>
        <time>2020-10-17T07:19:27Z</time>
      </trkpt>
      <trkpt lat="40.217439000" lon="-8.437809000">
        <ele>19.800000</ele>
        <time>2020-10-17T07:19:28Z</time>
      </trkpt>
      <trkpt lat="40.217275000" lon="-8.437643000">
        <ele>19.800000</ele>
        <time>2020-10-17T07:19:33Z</time>
      </trkpt>
      <trkpt lat="40.217206000" lon="-8.437579000">
        <ele>19.800000</ele>
        <time>2020-10-17T07:19:35Z</time>
      </trkpt>
      <trkpt lat="40.217027000" lon="-8.437413000">
        <ele>20.000000</ele>
        <time>2020-10-17T07:19:40Z</time>
      </trkpt>
      <trkpt lat="40.216992000" lon="-8.437383000">
        <ele>20.000000</ele>
        <time>2020-10-17T07:19:41Z</time>
      </trkpt>
      <trkpt lat="40.216956000" lon="-8.437357000">
        <ele>20.000000</ele>
        <time>2020-10-17T07:19:42Z</time>
      </trkpt>
      <trkpt lat="40.216923000" lon="-8.437332000">
        <ele>20.200000</ele>
        <time>2020-10-17T07:19:43Z</time>
      </trkpt>
      <trkpt lat="40.216891000" lon="-8.437301000">
        <ele>20.000000</ele>
        <time>2020-10-17T07:19:44Z</time>
      </trkpt>
      <trkpt lat="40.216790000" lon="-8.437206000">
        <ele>20.000000</ele>
        <time>2020-10-17T07:19:47Z</time>
      </trkpt>
      <trkpt lat="40.216760000" lon="-8.437176000">
        <ele>20.000000</ele>
        <time>2020-10-17T07:19:48Z</time>
      </trkpt>
      <trkpt lat="40.216730000" lon="-8.437145000">
        <ele>20.000000</ele>
        <time>2020-10-17T07:19:49Z</time>
      </trkpt>
      <trkpt lat="40.216670000" lon="-8.437080000">
        <ele>20.000000</ele>
        <time>2020-10-17T07:19:51Z</time>
      </trkpt>
      <trkpt lat="40.216553000" lon="-8.436938000">
        <ele>20.400000</ele>
        <time>2020-10-17T07:19:55Z</time>
      </trkpt>
      <trkpt lat="40.216526000" lon="-8.436906000">
        <ele>20.400000</ele>
        <time>2020-10-17T07:19:56Z</time>
      </trkpt>
      <trkpt lat="40.216500000" lon="-8.436885000">
        <ele>20.400000</ele>
        <time>2020-10-17T07:19:57Z</time>
      </trkpt>
      <trkpt lat="40.216478000" lon="-8.436866000">
        <ele>20.400000</ele>
        <time>2020-10-17T07:19:58Z</time>
      </trkpt>
      <trkpt lat="40.216460000" lon="-8.436847000">
        <ele>20.400000</ele>
        <time>2020-10-17T07:19:59Z</time>
      </trkpt>
      <trkpt lat="40.216440000" lon="-8.436829000">
        <ele>20.400000</ele>
        <time>2020-10-17T07:20:00Z</time>
      </trkpt>
      <trkpt lat="40.216423000" lon="-8.436813000">
        <ele>20.400000</ele>
        <time>2020-10-17T07:20:01Z</time>
      </trkpt>
      <trkpt lat="40.216408000" lon="-8.436798000">
        <ele>20.200000</ele>
        <time>2020-10-17T07:20:02Z</time>
      </trkpt>
      <trkpt lat="40.216395000" lon="-8.436784000">
        <ele>20.400000</ele>
        <time>2020-10-17T07:20:03Z</time>
      </trkpt>
      <trkpt lat="40.216386000" lon="-8.436779000">
        <ele>20.200000</ele>
        <time>2020-10-17T07:20:04Z</time>
      </trkpt>
      <trkpt lat="40.216379000" lon="-8.436778000">
        <ele>20.400000</ele>
        <time>2020-10-17T07:20:05Z</time>
      </trkpt>
      <trkpt lat="40.216378000" lon="-8.436780000">
        <ele>20.200000</ele>
        <time>2020-10-17T07:20:06Z</time>
      </trkpt>
      <trkpt lat="40.216382000" lon="-8.436779000">
        <ele>20.200000</ele>
        <time>2020-10-17T07:20:08Z</time>
      </trkpt>
      <trkpt lat="40.216204000" lon="-8.436621000">
        <ele>19.600000</ele>
        <time>2020-10-17T07:27:06Z</time>
      </trkpt>
      <trkpt lat="40.216180000" lon="-8.436609000">
        <ele>19.600000</ele>
        <time>2020-10-17T07:27:07Z</time>
      </trkpt>
      <trkpt lat="40.216102000" lon="-8.436564000">
        <ele>19.800000</ele>
        <time>2020-10-17T07:27:10Z</time>
      </trkpt>
      <trkpt lat="40.215999000" lon="-8.436501000">
        <ele>19.800000</ele>
        <time>2020-10-17T07:27:14Z</time>
      </trkpt>
      <trkpt lat="40.215943000" lon="-8.436474000">
        <ele>20.000000</ele>
        <time>2020-10-17T07:27:16Z</time>
      </trkpt>
      <trkpt lat="40.215880000" lon="-8.436449000">
        <ele>20.000000</ele>
        <time>2020-10-17T07:27:18Z</time>
      </trkpt>
      <trkpt lat="40.215838000" lon="-8.436421000">
        <ele>20.000000</ele>
        <time>2020-10-17T07:27:20Z</time>
      </trkpt>
      <trkpt lat="40.215826000" lon="-8.436407000">
        <ele>20.000000</ele>
        <time>2020-10-17T07:27:21Z</time>
      </trkpt>
      <trkpt lat="40.215812000" lon="-8.436391000">
        <ele>19.800000</ele>
        <time>2020-10-17T07:27:22Z</time>
      </trkpt>
      <trkpt lat="40.215779000" lon="-8.436356000">
        <ele>20.000000</ele>
        <time>2020-10-17T07:27:24Z</time>
      </trkpt>
      <trkpt lat="40.215719000" lon="-8.436241000">
        <ele>20.200000</ele>
        <time>2020-10-17T07:27:28Z</time>
      </trkpt>
      <trkpt lat="40.215682000" lon="-8.436205000">
        <ele>20.000000</ele>
        <time>2020-10-17T07:27:30Z</time>
      </trkpt>
      <trkpt lat="40.215663000" lon="-8.436194000">
        <ele>20.200000</ele>
        <time>2020-10-17T07:27:31Z</time>
      </trkpt>
      <trkpt lat="40.215635000" lon="-8.436215000">
        <ele>20.000000</ele>
        <time>2020-10-17T07:27:32Z</time>
      </trkpt>
      <trkpt lat="40.215609000" lon="-8.436215000">
        <ele>20.200000</ele>
        <time>2020-10-17T07:27:33Z</time>
      </trkpt>
      <trkpt lat="40.215585000" lon="-8.436221000">
        <ele>20.200000</ele>
        <time>2020-10-17T07:27:34Z</time>
      </trkpt>
      <trkpt lat="40.215570000" lon="-8.436190000">
        <ele>20.000000</ele>
        <time>2020-10-17T07:27:35Z</time>
      </trkpt>
      <trkpt lat="40.215552000" lon="-8.436168000">
        <ele>20.200000</ele>
        <time>2020-10-17T07:27:36Z</time>
      </trkpt>
      <trkpt lat="40.215464000" lon="-8.436073000">
        <ele>20.000000</ele>
        <time>2020-10-17T07:27:41Z</time>
      </trkpt>
      <trkpt lat="40.215464000" lon="-8.436073000">
        <ele>20.000000</ele>
        <time>2020-10-17T07:27:46Z</time>
      </trkpt>
      <trkpt lat="40.215448000" lon="-8.436056000">
        <ele>20.000000</ele>
        <time>2020-10-17T07:27:50Z</time>
      </trkpt>
      <trkpt lat="40.215432000" lon="-8.436038000">
        <ele>20.000000</ele>
        <time>2020-10-17T07:27:51Z</time>
      </trkpt>
      <trkpt lat="40.215416000" lon="-8.436021000">
        <ele>20.000000</ele>
        <time>2020-10-17T07:27:52Z</time>
      </trkpt>
      <trkpt lat="40.215401000" lon="-8.436003000">
        <ele>19.800000</ele>
        <time>2020-10-17T07:27:53Z</time>
      </trkpt>
      <trkpt lat="40.215385000" lon="-8.435986000">
        <ele>20.000000</ele>
        <time>2020-10-17T07:27:56Z</time>
      </trkpt>
      <trkpt lat="40.215369000" lon="-8.435969000">
        <ele>20.000000</ele>
        <time>2020-10-17T07:27:57Z</time>
      </trkpt>
      <trkpt lat="40.215353000" lon="-8.435951000">
        <ele>19.800000</ele>
        <time>2020-10-17T07:28:01Z</time>
      </trkpt>
      <trkpt lat="40.215337000" lon="-8.435934000">
        <ele>19.800000</ele>
        <time>2020-10-17T07:28:02Z</time>
      </trkpt>
      <trkpt lat="40.214448000" lon="-8.434960000">
        <ele>20.200000</ele>
        <time>2020-10-17T07:28:09Z</time>
      </trkpt>
      <trkpt lat="40.214030000" lon="-8.434491000">
        <ele>20.400000</ele>
        <time>2020-10-17T07:28:21Z</time>
      </trkpt>
      <trkpt lat="40.214001000" lon="-8.434457000">
        <ele>20.400000</ele>
        <time>2020-10-17T07:28:22Z</time>
      </trkpt>
      <trkpt lat="40.213974000" lon="-8.434428000">
        <ele>20.400000</ele>
        <time>2020-10-17T07:28:23Z</time>
      </trkpt>
      <trkpt lat="40.213952000" lon="-8.434402000">
        <ele>20.400000</ele>
        <time>2020-10-17T07:28:24Z</time>
      </trkpt>
      <trkpt lat="40.213929000" lon="-8.434380000">
        <ele>20.600000</ele>
        <time>2020-10-17T07:28:25Z</time>
      </trkpt>
      <trkpt lat="40.213904000" lon="-8.434358000">
        <ele>20.600000</ele>
        <time>2020-10-17T07:28:26Z</time>
      </trkpt>
      <trkpt lat="40.213881000" lon="-8.434338000">
        <ele>20.400000</ele>
        <time>2020-10-17T07:28:27Z</time>
      </trkpt>
      <trkpt lat="40.213860000" lon="-8.434321000">
        <ele>20.400000</ele>
        <time>2020-10-17T07:28:28Z</time>
      </trkpt>
      <trkpt lat="40.213848000" lon="-8.434301000">
        <ele>20.600000</ele>
        <time>2020-10-17T07:28:29Z</time>
      </trkpt>
      <trkpt lat="40.213845000" lon="-8.434240000">
        <ele>20.400000</ele>
        <time>2020-10-17T07:28:30Z</time>
      </trkpt>
      <trkpt lat="40.213828000" lon="-8.434194000">
        <ele>20.400000</ele>
        <time>2020-10-17T07:28:31Z</time>
      </trkpt>
      <trkpt lat="40.213789000" lon="-8.434129000">
        <ele>20.400000</ele>
        <time>2020-10-17T07:28:32Z</time>
      </trkpt>
      <trkpt lat="40.213663000" lon="-8.433991000">
        <ele>20.000000</ele>
        <time>2020-10-17T07:28:35Z</time>
      </trkpt>
      <trkpt lat="40.213636000" lon="-8.433977000">
        <ele>20.000000</ele>
        <time>2020-10-17T07:28:36Z</time>
      </trkpt>
      <trkpt lat="40.213602000" lon="-8.433935000">
        <ele>20.000000</ele>
        <time>2020-10-17T07:28:37Z</time>
      </trkpt>
      <trkpt lat="40.213569000" lon="-8.433909000">
        <ele>19.800000</ele>
        <time>2020-10-17T07:28:38Z</time>
      </trkpt>
      <trkpt lat="40.213536000" lon="-8.433884000">
        <ele>19.800000</ele>
        <time>2020-10-17T07:28:39Z</time>
      </trkpt>
      <trkpt lat="40.213429000" lon="-8.433815000">
        <ele>19.800000</ele>
        <time>2020-10-17T07:28:42Z</time>
      </trkpt>
      <trkpt lat="40.213192000" lon="-8.433588000">
        <ele>19.800000</ele>
        <time>2020-10-17T07:28:48Z</time>
      </trkpt>
      <trkpt lat="40.213003000" lon="-8.433441000">
        <ele>19.600000</ele>
        <time>2020-10-17T07:28:52Z</time>
      </trkpt>
      <trkpt lat="40.212960000" lon="-8.433411000">
        <ele>19.800000</ele>
        <time>2020-10-17T07:28:53Z</time>
      </trkpt>
      <trkpt lat="40.212914000" lon="-8.433384000">
        <ele>19.600000</ele>
        <time>2020-10-17T07:28:54Z</time>
      </trkpt>
      <trkpt lat="40.212870000" lon="-8.433361000">
        <ele>19.800000</ele>
        <time>2020-10-17T07:28:55Z</time>
      </trkpt>
      <trkpt lat="40.212823000" lon="-8.433342000">
        <ele>19.600000</ele>
        <time>2020-10-17T07:28:56Z</time>
      </trkpt>
      <trkpt lat="40.212780000" lon="-8.433321000">
        <ele>19.600000</ele>
        <time>2020-10-17T07:28:57Z</time>
      </trkpt>
      <trkpt lat="40.212624000" lon="-8.433260000">
        <ele>19.600000</ele>
        <time>2020-10-17T07:29:00Z</time>
      </trkpt>
      <trkpt lat="40.212418000" lon="-8.433143000">
        <ele>19.600000</ele>
        <time>2020-10-17T07:29:04Z</time>
      </trkpt>
      <trkpt lat="40.212370000" lon="-8.433110000">
        <ele>19.600000</ele>
        <time>2020-10-17T07:29:05Z</time>
      </trkpt>
      <trkpt lat="40.212229000" lon="-8.433014000">
        <ele>19.600000</ele>
        <time>2020-10-17T07:29:08Z</time>
      </trkpt>
      <trkpt lat="40.211911000" lon="-8.432832000">
        <ele>19.600000</ele>
        <time>2020-10-17T07:29:14Z</time>
      </trkpt>
      <trkpt lat="40.211861000" lon="-8.432803000">
        <ele>19.600000</ele>
        <time>2020-10-17T07:29:15Z</time>
      </trkpt>
      <trkpt lat="40.211810000" lon="-8.432778000">
        <ele>19.600000</ele>
        <time>2020-10-17T07:29:16Z</time>
      </trkpt>
      <trkpt lat="40.211758000" lon="-8.432742000">
        <ele>19.600000</ele>
        <time>2020-10-17T07:29:17Z</time>
      </trkpt>
      <trkpt lat="40.211694000" lon="-8.432743000">
        <ele>19.600000</ele>
        <time>2020-10-17T07:29:18Z</time>
      </trkpt>
      <trkpt lat="40.211582000" lon="-8.432717000">
        <ele>19.600000</ele>
        <time>2020-10-17T07:29:20Z</time>
      </trkpt>
      <trkpt lat="40.211532000" lon="-8.432686000">
        <ele>19.600000</ele>
        <time>2020-10-17T07:29:21Z</time>
      </trkpt>
      <trkpt lat="40.211430000" lon="-8.432619000">
        <ele>19.600000</ele>
        <time>2020-10-17T07:29:23Z</time>
      </trkpt>
      <trkpt lat="40.211085000" lon="-8.432485000">
        <ele>19.600000</ele>
        <time>2020-10-17T07:29:29Z</time>
      </trkpt>
      <trkpt lat="40.210962000" lon="-8.432455000">
        <ele>19.600000</ele>
        <time>2020-10-17T07:29:31Z</time>
      </trkpt>
      <trkpt lat="40.210844000" lon="-8.432403000">
        <ele>19.400000</ele>
        <time>2020-10-17T07:29:33Z</time>
      </trkpt>
      <trkpt lat="40.210733000" lon="-8.432325000">
        <ele>19.600000</ele>
        <time>2020-10-17T07:29:35Z</time>
      </trkpt>
      <trkpt lat="40.210416000" lon="-8.432090000">
        <ele>19.400000</ele>
        <time>2020-10-17T07:29:40Z</time>
      </trkpt>
      <trkpt lat="40.210347000" lon="-8.432047000">
        <ele>19.000000</ele>
        <time>2020-10-17T07:29:41Z</time>
      </trkpt>
      <trkpt lat="40.210283000" lon="-8.432006000">
        <ele>19.000000</ele>
        <time>2020-10-17T07:29:42Z</time>
      </trkpt>
      <trkpt lat="40.210157000" lon="-8.431928000">
        <ele>18.800000</ele>
        <time>2020-10-17T07:29:44Z</time>
      </trkpt>
      <trkpt lat="40.210097000" lon="-8.431899000">
        <ele>18.600000</ele>
        <time>2020-10-17T07:29:45Z</time>
      </trkpt>
      <trkpt lat="40.210040000" lon="-8.431869000">
        <ele>18.400000</ele>
        <time>2020-10-17T07:29:46Z</time>
      </trkpt>
      <trkpt lat="40.209984000" lon="-8.431839000">
        <ele>18.400000</ele>
        <time>2020-10-17T07:29:47Z</time>
      </trkpt>
      <trkpt lat="40.209869000" lon="-8.431781000">
        <ele>18.200000</ele>
        <time>2020-10-17T07:29:49Z</time>
      </trkpt>
      <trkpt lat="40.209758000" lon="-8.431719000">
        <ele>18.200000</ele>
        <time>2020-10-17T07:29:51Z</time>
      </trkpt>
      <trkpt lat="40.209647000" lon="-8.431670000">
        <ele>18.200000</ele>
        <time>2020-10-17T07:29:53Z</time>
      </trkpt>
      <trkpt lat="40.209592000" lon="-8.431672000">
        <ele>18.200000</ele>
        <time>2020-10-17T07:29:54Z</time>
      </trkpt>
      <trkpt lat="40.209547000" lon="-8.431697000">
        <ele>18.000000</ele>
        <time>2020-10-17T07:29:55Z</time>
      </trkpt>
      <trkpt lat="40.209508000" lon="-8.431740000">
        <ele>18.000000</ele>
        <time>2020-10-17T07:29:56Z</time>
      </trkpt>
      <trkpt lat="40.209479000" lon="-8.431793000">
        <ele>17.800000</ele>
        <time>2020-10-17T07:29:57Z</time>
      </trkpt>
      <trkpt lat="40.209454000" lon="-8.431850000">
        <ele>17.800000</ele>
        <time>2020-10-17T07:29:58Z</time>
      </trkpt>
      <trkpt lat="40.209437000" lon="-8.431913000">
        <ele>17.800000</ele>
        <time>2020-10-17T07:29:59Z</time>
      </trkpt>
      <trkpt lat="40.209420000" lon="-8.431975000">
        <ele>17.800000</ele>
        <time>2020-10-17T07:30:00Z</time>
      </trkpt>
      <trkpt lat="40.209409000" lon="-8.432033000">
        <ele>17.800000</ele>
        <time>2020-10-17T07:30:01Z</time>
      </trkpt>
      <trkpt lat="40.209393000" lon="-8.432090000">
        <ele>18.000000</ele>
        <time>2020-10-17T07:30:02Z</time>
      </trkpt>
      <trkpt lat="40.209363000" lon="-8.432144000">
        <ele>18.000000</ele>
        <time>2020-10-17T07:30:03Z</time>
      </trkpt>
      <trkpt lat="40.209322000" lon="-8.432172000">
        <ele>18.000000</ele>
        <time>2020-10-17T07:30:04Z</time>
      </trkpt>
      <trkpt lat="40.209285000" lon="-8.432189000">
        <ele>18.000000</ele>
        <time>2020-10-17T07:30:05Z</time>
      </trkpt>
      <trkpt lat="40.209250000" lon="-8.432196000">
        <ele>18.000000</ele>
        <time>2020-10-17T07:30:06Z</time>
      </trkpt>
      <trkpt lat="40.209216000" lon="-8.432187000">
        <ele>18.000000</ele>
        <time>2020-10-17T07:30:07Z</time>
      </trkpt>
      <trkpt lat="40.209182000" lon="-8.432167000">
        <ele>18.000000</ele>
        <time>2020-10-17T07:30:08Z</time>
      </trkpt>
      <trkpt lat="40.209149000" lon="-8.432140000">
        <ele>18.000000</ele>
        <time>2020-10-17T07:30:09Z</time>
      </trkpt>
      <trkpt lat="40.209110000" lon="-8.432097000">
        <ele>18.000000</ele>
        <time>2020-10-17T07:30:10Z</time>
      </trkpt>
      <trkpt lat="40.209070000" lon="-8.432058000">
        <ele>18.200000</ele>
        <time>2020-10-17T07:30:11Z</time>
      </trkpt>
      <trkpt lat="40.208939000" lon="-8.431905000">
        <ele>18.400000</ele>
        <time>2020-10-17T07:30:14Z</time>
      </trkpt>
      <trkpt lat="40.208890000" lon="-8.431877000">
        <ele>18.400000</ele>
        <time>2020-10-17T07:30:15Z</time>
      </trkpt>
      <trkpt lat="40.208834000" lon="-8.431870000">
        <ele>18.400000</ele>
        <time>2020-10-17T07:30:16Z</time>
      </trkpt>
      <trkpt lat="40.208786000" lon="-8.431882000">
        <ele>18.600000</ele>
        <time>2020-10-17T07:30:17Z</time>
      </trkpt>
      <trkpt lat="40.208744000" lon="-8.431905000">
        <ele>18.600000</ele>
        <time>2020-10-17T07:30:18Z</time>
      </trkpt>
      <trkpt lat="40.208702000" lon="-8.431926000">
        <ele>18.600000</ele>
        <time>2020-10-17T07:30:19Z</time>
      </trkpt>
      <trkpt lat="40.208664000" lon="-8.431948000">
        <ele>18.600000</ele>
        <time>2020-10-17T07:30:20Z</time>
      </trkpt>
      <trkpt lat="40.208623000" lon="-8.431965000">
        <ele>18.600000</ele>
        <time>2020-10-17T07:30:21Z</time>
      </trkpt>
      <trkpt lat="40.208579000" lon="-8.431977000">
        <ele>18.800000</ele>
        <time>2020-10-17T07:30:22Z</time>
      </trkpt>
      <trkpt lat="40.208532000" lon="-8.431983000">
        <ele>18.800000</ele>
        <time>2020-10-17T07:30:23Z</time>
      </trkpt>
      <trkpt lat="40.208483000" lon="-8.431987000">
        <ele>18.800000</ele>
        <time>2020-10-17T07:30:24Z</time>
      </trkpt>
      <trkpt lat="40.208438000" lon="-8.431984000">
        <ele>18.800000</ele>
        <time>2020-10-17T07:30:25Z</time>
      </trkpt>
      <trkpt lat="40.208394000" lon="-8.431966000">
        <ele>18.800000</ele>
        <time>2020-10-17T07:30:26Z</time>
      </trkpt>
      <trkpt lat="40.208352000" lon="-8.431944000">
        <ele>18.800000</ele>
        <time>2020-10-17T07:30:27Z</time>
      </trkpt>
      <trkpt lat="40.208310000" lon="-8.431917000">
        <ele>18.800000</ele>
        <time>2020-10-17T07:30:28Z</time>
      </trkpt>
      <trkpt lat="40.208275000" lon="-8.431883000">
        <ele>19.200000</ele>
        <time>2020-10-17T07:30:29Z</time>
      </trkpt>
      <trkpt lat="40.208240000" lon="-8.431846000">
        <ele>19.200000</ele>
        <time>2020-10-17T07:30:30Z</time>
      </trkpt>
      <trkpt lat="40.208101000" lon="-8.431675000">
        <ele>20.000000</ele>
        <time>2020-10-17T07:30:34Z</time>
      </trkpt>
      <trkpt lat="40.208055000" lon="-8.431629000">
        <ele>20.000000</ele>
        <time>2020-10-17T07:30:35Z</time>
      </trkpt>
      <trkpt lat="40.207967000" lon="-8.431548000">
        <ele>20.200000</ele>
        <time>2020-10-17T07:30:37Z</time>
      </trkpt>
      <trkpt lat="40.207792000" lon="-8.431391000">
        <ele>20.400000</ele>
        <time>2020-10-17T07:30:41Z</time>
      </trkpt>
      <trkpt lat="40.207747000" lon="-8.431360000">
        <ele>20.200000</ele>
        <time>2020-10-17T07:30:42Z</time>
      </trkpt>
      <trkpt lat="40.207703000" lon="-8.431328000">
        <ele>20.400000</ele>
        <time>2020-10-17T07:30:43Z</time>
      </trkpt>
      <trkpt lat="40.207667000" lon="-8.431291000">
        <ele>20.400000</ele>
        <time>2020-10-17T07:30:44Z</time>
      </trkpt>
      <trkpt lat="40.207635000" lon="-8.431251000">
        <ele>20.400000</ele>
        <time>2020-10-17T07:30:45Z</time>
      </trkpt>
      <trkpt lat="40.207605000" lon="-8.431210000">
        <ele>20.400000</ele>
        <time>2020-10-17T07:30:46Z</time>
      </trkpt>
      <trkpt lat="40.207575000" lon="-8.431170000">
        <ele>20.400000</ele>
        <time>2020-10-17T07:30:47Z</time>
      </trkpt>
      <trkpt lat="40.207544000" lon="-8.431126000">
        <ele>20.400000</ele>
        <time>2020-10-17T07:30:48Z</time>
      </trkpt>
      <trkpt lat="40.207322000" lon="-8.430806000">
        <ele>20.600000</ele>
        <time>2020-10-17T07:30:55Z</time>
      </trkpt>
      <trkpt lat="40.207250000" lon="-8.430716000">
        <ele>20.800000</ele>
        <time>2020-10-17T07:30:57Z</time>
      </trkpt>
      <trkpt lat="40.207217000" lon="-8.430669000">
        <ele>20.800000</ele>
        <time>2020-10-17T07:30:58Z</time>
      </trkpt>
      <trkpt lat="40.207189000" lon="-8.430622000">
        <ele>20.800000</ele>
        <time>2020-10-17T07:30:59Z</time>
      </trkpt>
      <trkpt lat="40.207101000" lon="-8.430474000">
        <ele>21.000000</ele>
        <time>2020-10-17T07:31:02Z</time>
      </trkpt>
      <trkpt lat="40.207075000" lon="-8.430427000">
        <ele>21.000000</ele>
        <time>2020-10-17T07:31:03Z</time>
      </trkpt>
      <trkpt lat="40.207017000" lon="-8.430335000">
        <ele>21.000000</ele>
        <time>2020-10-17T07:31:05Z</time>
      </trkpt>
      <trkpt lat="40.206991000" lon="-8.430290000">
        <ele>21.000000</ele>
        <time>2020-10-17T07:31:06Z</time>
      </trkpt>
      <trkpt lat="40.206971000" lon="-8.430242000">
        <ele>21.000000</ele>
        <time>2020-10-17T07:31:07Z</time>
      </trkpt>
      <trkpt lat="40.206958000" lon="-8.430190000">
        <ele>21.000000</ele>
        <time>2020-10-17T07:31:08Z</time>
      </trkpt>
      <trkpt lat="40.206954000" lon="-8.430139000">
        <ele>21.200000</ele>
        <time>2020-10-17T07:31:09Z</time>
      </trkpt>
      <trkpt lat="40.206952000" lon="-8.430093000">
        <ele>21.200000</ele>
        <time>2020-10-17T07:31:10Z</time>
      </trkpt>
      <trkpt lat="40.206943000" lon="-8.430046000">
        <ele>21.200000</ele>
        <time>2020-10-17T07:31:11Z</time>
      </trkpt>
      <trkpt lat="40.206930000" lon="-8.430005000">
        <ele>21.200000</ele>
        <time>2020-10-17T07:31:12Z</time>
      </trkpt>
      <trkpt lat="40.206914000" lon="-8.429969000">
        <ele>21.200000</ele>
        <time>2020-10-17T07:31:13Z</time>
      </trkpt>
      <trkpt lat="40.206892000" lon="-8.429941000">
        <ele>21.200000</ele>
        <time>2020-10-17T07:31:14Z</time>
      </trkpt>
      <trkpt lat="40.206867000" lon="-8.429919000">
        <ele>21.400000</ele>
        <time>2020-10-17T07:31:15Z</time>
      </trkpt>
      <trkpt lat="40.206840000" lon="-8.429913000">
        <ele>21.400000</ele>
        <time>2020-10-17T07:31:16Z</time>
      </trkpt>
      <trkpt lat="40.206810000" lon="-8.429925000">
        <ele>21.800000</ele>
        <time>2020-10-17T07:31:17Z</time>
      </trkpt>
      <trkpt lat="40.206779000" lon="-8.429947000">
        <ele>22.000000</ele>
        <time>2020-10-17T07:31:18Z</time>
      </trkpt>
      <trkpt lat="40.206750000" lon="-8.429975000">
        <ele>22.400000</ele>
        <time>2020-10-17T07:31:19Z</time>
      </trkpt>
      <trkpt lat="40.206719000" lon="-8.430004000">
        <ele>22.400000</ele>
        <time>2020-10-17T07:31:20Z</time>
      </trkpt>
      <trkpt lat="40.206689000" lon="-8.430036000">
        <ele>22.800000</ele>
        <time>2020-10-17T07:31:21Z</time>
      </trkpt>
      <trkpt lat="40.206660000" lon="-8.430068000">
        <ele>22.800000</ele>
        <time>2020-10-17T07:31:22Z</time>
      </trkpt>
      <trkpt lat="40.206629000" lon="-8.430099000">
        <ele>23.000000</ele>
        <time>2020-10-17T07:31:23Z</time>
      </trkpt>
      <trkpt lat="40.206597000" lon="-8.430132000">
        <ele>23.000000</ele>
        <time>2020-10-17T07:31:24Z</time>
      </trkpt>
      <trkpt lat="40.206563000" lon="-8.430164000">
        <ele>23.200000</ele>
        <time>2020-10-17T07:31:25Z</time>
      </trkpt>
      <trkpt lat="40.206529000" lon="-8.430196000">
        <ele>23.400000</ele>
        <time>2020-10-17T07:31:26Z</time>
      </trkpt>
      <trkpt lat="40.206494000" lon="-8.430228000">
        <ele>23.600000</ele>
        <time>2020-10-17T07:31:27Z</time>
      </trkpt>
      <trkpt lat="40.206458000" lon="-8.430261000">
        <ele>23.800000</ele>
        <time>2020-10-17T07:31:28Z</time>
      </trkpt>
      <trkpt lat="40.206421000" lon="-8.430293000">
        <ele>23.800000</ele>
        <time>2020-10-17T07:31:29Z</time>
      </trkpt>
      <trkpt lat="40.206382000" lon="-8.430325000">
        <ele>23.800000</ele>
        <time>2020-10-17T07:31:30Z</time>
      </trkpt>
      <trkpt lat="40.206342000" lon="-8.430358000">
        <ele>23.800000</ele>
        <time>2020-10-17T07:31:31Z</time>
      </trkpt>
      <trkpt lat="40.206304000" lon="-8.430391000">
        <ele>24.000000</ele>
        <time>2020-10-17T07:31:32Z</time>
      </trkpt>
      <trkpt lat="40.205923000" lon="-8.430749000">
        <ele>24.400000</ele>
        <time>2020-10-17T07:31:42Z</time>
      </trkpt>
      <trkpt lat="40.205884000" lon="-8.430786000">
        <ele>24.600000</ele>
        <time>2020-10-17T07:31:43Z</time>
      </trkpt>
      <trkpt lat="40.205645000" lon="-8.431004000">
        <ele>24.600000</ele>
        <time>2020-10-17T07:31:49Z</time>
      </trkpt>
      <trkpt lat="40.205603000" lon="-8.431037000">
        <ele>24.600000</ele>
        <time>2020-10-17T07:31:50Z</time>
      </trkpt>
      <trkpt lat="40.205560000" lon="-8.431065000">
        <ele>24.600000</ele>
        <time>2020-10-17T07:31:51Z</time>
      </trkpt>
      <trkpt lat="40.205472000" lon="-8.431122000">
        <ele>24.400000</ele>
        <time>2020-10-17T07:31:53Z</time>
      </trkpt>
      <trkpt lat="40.205292000" lon="-8.431279000">
        <ele>24.400000</ele>
        <time>2020-10-17T07:31:57Z</time>
      </trkpt>
      <trkpt lat="40.205109000" lon="-8.431446000">
        <ele>23.800000</ele>
        <time>2020-10-17T07:32:01Z</time>
      </trkpt>
      <trkpt lat="40.204876000" lon="-8.431660000">
        <ele>23.400000</ele>
        <time>2020-10-17T07:32:06Z</time>
      </trkpt>
      <trkpt lat="40.204831000" lon="-8.431701000">
        <ele>23.200000</ele>
        <time>2020-10-17T07:32:07Z</time>
      </trkpt>
      <trkpt lat="40.204736000" lon="-8.431788000">
        <ele>23.000000</ele>
        <time>2020-10-17T07:32:09Z</time>
      </trkpt>
      <trkpt lat="40.204598000" lon="-8.431915000">
        <ele>22.800000</ele>
        <time>2020-10-17T07:32:12Z</time>
      </trkpt>
      <trkpt lat="40.204553000" lon="-8.431959000">
        <ele>22.600000</ele>
        <time>2020-10-17T07:32:13Z</time>
      </trkpt>
      <trkpt lat="40.204467000" lon="-8.432052000">
        <ele>22.400000</ele>
        <time>2020-10-17T07:32:15Z</time>
      </trkpt>
      <trkpt lat="40.204427000" lon="-8.432104000">
        <ele>22.400000</ele>
        <time>2020-10-17T07:32:16Z</time>
      </trkpt>
      <trkpt lat="40.204323000" lon="-8.432281000">
        <ele>21.800000</ele>
        <time>2020-10-17T07:32:19Z</time>
      </trkpt>
      <trkpt lat="40.204291000" lon="-8.432341000">
        <ele>21.800000</ele>
        <time>2020-10-17T07:32:20Z</time>
      </trkpt>
      <trkpt lat="40.204257000" lon="-8.432398000">
        <ele>21.800000</ele>
        <time>2020-10-17T07:32:21Z</time>
      </trkpt>
      <trkpt lat="40.204221000" lon="-8.432452000">
        <ele>21.400000</ele>
        <time>2020-10-17T07:32:22Z</time>
      </trkpt>
      <trkpt lat="40.204182000" lon="-8.432501000">
        <ele>21.600000</ele>
        <time>2020-10-17T07:32:23Z</time>
      </trkpt>
      <trkpt lat="40.203928000" lon="-8.432789000">
        <ele>21.200000</ele>
        <time>2020-10-17T07:32:29Z</time>
      </trkpt>
      <trkpt lat="40.203721000" lon="-8.433151000">
        <ele>20.400000</ele>
        <time>2020-10-17T07:32:35Z</time>
      </trkpt>
      <trkpt lat="40.203689000" lon="-8.433217000">
        <ele>20.400000</ele>
        <time>2020-10-17T07:32:36Z</time>
      </trkpt>
      <trkpt lat="40.203628000" lon="-8.433349000">
        <ele>20.400000</ele>
        <time>2020-10-17T07:32:38Z</time>
      </trkpt>
      <trkpt lat="40.203602000" lon="-8.433417000">
        <ele>20.200000</ele>
        <time>2020-10-17T07:32:39Z</time>
      </trkpt>
      <trkpt lat="40.203579000" lon="-8.433482000">
        <ele>20.000000</ele>
        <time>2020-10-17T07:32:40Z</time>
      </trkpt>
      <trkpt lat="40.203556000" lon="-8.433548000">
        <ele>20.000000</ele>
        <time>2020-10-17T07:32:41Z</time>
      </trkpt>
      <trkpt lat="40.203534000" lon="-8.433616000">
        <ele>19.800000</ele>
        <time>2020-10-17T07:32:42Z</time>
      </trkpt>
      <trkpt lat="40.203511000" lon="-8.433683000">
        <ele>19.800000</ele>
        <time>2020-10-17T07:32:43Z</time>
      </trkpt>
      <trkpt lat="40.203425000" lon="-8.433961000">
        <ele>19.800000</ele>
        <time>2020-10-17T07:32:47Z</time>
      </trkpt>
      <trkpt lat="40.203407000" lon="-8.434033000">
        <ele>19.600000</ele>
        <time>2020-10-17T07:32:48Z</time>
      </trkpt>
      <trkpt lat="40.203375000" lon="-8.434172000">
        <ele>19.600000</ele>
        <time>2020-10-17T07:32:50Z</time>
      </trkpt>
      <trkpt lat="40.203361000" lon="-8.434241000">
        <ele>19.600000</ele>
        <time>2020-10-17T07:32:51Z</time>
      </trkpt>
      <trkpt lat="40.203327000" lon="-8.434374000">
        <ele>19.600000</ele>
        <time>2020-10-17T07:32:53Z</time>
      </trkpt>
      <trkpt lat="40.203316000" lon="-8.434440000">
        <ele>19.600000</ele>
        <time>2020-10-17T07:32:54Z</time>
      </trkpt>
      <trkpt lat="40.203313000" lon="-8.434508000">
        <ele>19.600000</ele>
        <time>2020-10-17T07:32:55Z</time>
      </trkpt>
      <trkpt lat="40.203321000" lon="-8.434582000">
        <ele>19.600000</ele>
        <time>2020-10-17T07:32:56Z</time>
      </trkpt>
      <trkpt lat="40.203336000" lon="-8.434651000">
        <ele>19.600000</ele>
        <time>2020-10-17T07:32:57Z</time>
      </trkpt>
      <trkpt lat="40.203364000" lon="-8.434712000">
        <ele>19.600000</ele>
        <time>2020-10-17T07:32:58Z</time>
      </trkpt>
      <trkpt lat="40.203397000" lon="-8.434770000">
        <ele>19.600000</ele>
        <time>2020-10-17T07:32:59Z</time>
      </trkpt>
      <trkpt lat="40.203431000" lon="-8.434829000">
        <ele>19.400000</ele>
        <time>2020-10-17T07:33:00Z</time>
      </trkpt>
      <trkpt lat="40.203461000" lon="-8.434898000">
        <ele>19.600000</ele>
        <time>2020-10-17T07:33:01Z</time>
      </trkpt>
      <trkpt lat="40.203481000" lon="-8.435052000">
        <ele>19.600000</ele>
        <time>2020-10-17T07:33:03Z</time>
      </trkpt>
      <trkpt lat="40.203467000" lon="-8.435125000">
        <ele>19.600000</ele>
        <time>2020-10-17T07:33:04Z</time>
      </trkpt>
      <trkpt lat="40.203440000" lon="-8.435191000">
        <ele>19.800000</ele>
        <time>2020-10-17T07:33:05Z</time>
      </trkpt>
      <trkpt lat="40.203407000" lon="-8.435247000">
        <ele>20.000000</ele>
        <time>2020-10-17T07:33:06Z</time>
      </trkpt>
      <trkpt lat="40.203369000" lon="-8.435292000">
        <ele>20.000000</ele>
        <time>2020-10-17T07:33:07Z</time>
      </trkpt>
      <trkpt lat="40.203329000" lon="-8.435325000">
        <ele>20.200000</ele>
        <time>2020-10-17T07:33:08Z</time>
      </trkpt>
      <trkpt lat="40.203290000" lon="-8.435353000">
        <ele>20.200000</ele>
        <time>2020-10-17T07:33:09Z</time>
      </trkpt>
      <trkpt lat="40.203252000" lon="-8.435378000">
        <ele>20.200000</ele>
        <time>2020-10-17T07:33:10Z</time>
      </trkpt>
      <trkpt lat="40.203215000" lon="-8.435401000">
        <ele>20.400000</ele>
        <time>2020-10-17T07:33:11Z</time>
      </trkpt>
      <trkpt lat="40.203178000" lon="-8.435427000">
        <ele>20.400000</ele>
        <time>2020-10-17T07:33:12Z</time>
      </trkpt>
      <trkpt lat="40.203142000" lon="-8.435451000">
        <ele>20.400000</ele>
        <time>2020-10-17T07:33:13Z</time>
      </trkpt>
      <trkpt lat="40.203107000" lon="-8.435476000">
        <ele>20.600000</ele>
        <time>2020-10-17T07:33:14Z</time>
      </trkpt>
      <trkpt lat="40.203072000" lon="-8.435500000">
        <ele>20.800000</ele>
        <time>2020-10-17T07:33:15Z</time>
      </trkpt>
      <trkpt lat="40.203036000" lon="-8.435523000">
        <ele>21.200000</ele>
        <time>2020-10-17T07:33:16Z</time>
      </trkpt>
      <trkpt lat="40.203000000" lon="-8.435544000">
        <ele>21.600000</ele>
        <time>2020-10-17T07:33:17Z</time>
      </trkpt>
      <trkpt lat="40.202964000" lon="-8.435562000">
        <ele>21.600000</ele>
        <time>2020-10-17T07:33:18Z</time>
      </trkpt>
      <trkpt lat="40.202926000" lon="-8.435578000">
        <ele>22.000000</ele>
        <time>2020-10-17T07:33:19Z</time>
      </trkpt>
      <trkpt lat="40.202889000" lon="-8.435593000">
        <ele>22.400000</ele>
        <time>2020-10-17T07:33:20Z</time>
      </trkpt>
      <trkpt lat="40.202852000" lon="-8.435607000">
        <ele>22.400000</ele>
        <time>2020-10-17T07:33:21Z</time>
      </trkpt>
      <trkpt lat="40.202814000" lon="-8.435618000">
        <ele>22.800000</ele>
        <time>2020-10-17T07:33:22Z</time>
      </trkpt>
      <trkpt lat="40.202777000" lon="-8.435627000">
        <ele>23.000000</ele>
        <time>2020-10-17T07:33:23Z</time>
      </trkpt>
      <trkpt lat="40.202745000" lon="-8.435636000">
        <ele>23.400000</ele>
        <time>2020-10-17T07:33:24Z</time>
      </trkpt>
      <trkpt lat="40.202710000" lon="-8.435640000">
        <ele>23.400000</ele>
        <time>2020-10-17T07:33:25Z</time>
      </trkpt>
      <trkpt lat="40.202679000" lon="-8.435644000">
        <ele>23.800000</ele>
        <time>2020-10-17T07:33:26Z</time>
      </trkpt>
      <trkpt lat="40.202648000" lon="-8.435646000">
        <ele>24.000000</ele>
        <time>2020-10-17T07:33:27Z</time>
      </trkpt>
      <trkpt lat="40.202615000" lon="-8.435647000">
        <ele>24.000000</ele>
        <time>2020-10-17T07:33:28Z</time>
      </trkpt>
      <trkpt lat="40.202581000" lon="-8.435648000">
        <ele>24.200000</ele>
        <time>2020-10-17T07:33:29Z</time>
      </trkpt>
      <trkpt lat="40.202545000" lon="-8.435646000">
        <ele>24.400000</ele>
        <time>2020-10-17T07:33:30Z</time>
      </trkpt>
      <trkpt lat="40.202507000" lon="-8.435649000">
        <ele>24.600000</ele>
        <time>2020-10-17T07:33:31Z</time>
      </trkpt>
      <trkpt lat="40.202468000" lon="-8.435656000">
        <ele>24.800000</ele>
        <time>2020-10-17T07:33:32Z</time>
      </trkpt>
      <trkpt lat="40.202431000" lon="-8.435658000">
        <ele>25.000000</ele>
        <time>2020-10-17T07:33:33Z</time>
      </trkpt>
      <trkpt lat="40.202393000" lon="-8.435657000">
        <ele>25.200000</ele>
        <time>2020-10-17T07:33:34Z</time>
      </trkpt>
      <trkpt lat="40.202352000" lon="-8.435662000">
        <ele>25.400000</ele>
        <time>2020-10-17T07:33:35Z</time>
      </trkpt>
      <trkpt lat="40.202315000" lon="-8.435666000">
        <ele>25.600000</ele>
        <time>2020-10-17T07:33:36Z</time>
      </trkpt>
      <trkpt lat="40.202286000" lon="-8.435672000">
        <ele>25.800000</ele>
        <time>2020-10-17T07:33:37Z</time>
      </trkpt>
      <trkpt lat="40.202252000" lon="-8.435676000">
        <ele>26.000000</ele>
        <time>2020-10-17T07:33:38Z</time>
      </trkpt>
      <trkpt lat="40.202206000" lon="-8.435675000">
        <ele>26.000000</ele>
        <time>2020-10-17T07:33:39Z</time>
      </trkpt>
      <trkpt lat="40.202172000" lon="-8.435680000">
        <ele>26.000000</ele>
        <time>2020-10-17T07:33:40Z</time>
      </trkpt>
      <trkpt lat="40.202140000" lon="-8.435685000">
        <ele>26.400000</ele>
        <time>2020-10-17T07:33:41Z</time>
      </trkpt>
      <trkpt lat="40.202107000" lon="-8.435692000">
        <ele>26.600000</ele>
        <time>2020-10-17T07:33:42Z</time>
      </trkpt>
      <trkpt lat="40.202071000" lon="-8.435699000">
        <ele>26.600000</ele>
        <time>2020-10-17T07:33:43Z</time>
      </trkpt>
      <trkpt lat="40.202037000" lon="-8.435702000">
        <ele>26.800000</ele>
        <time>2020-10-17T07:33:44Z</time>
      </trkpt>
      <trkpt lat="40.202001000" lon="-8.435704000">
        <ele>26.800000</ele>
        <time>2020-10-17T07:33:45Z</time>
      </trkpt>
      <trkpt lat="40.201967000" lon="-8.435702000">
        <ele>27.200000</ele>
        <time>2020-10-17T07:33:46Z</time>
      </trkpt>
      <trkpt lat="40.201931000" lon="-8.435703000">
        <ele>27.400000</ele>
        <time>2020-10-17T07:33:47Z</time>
      </trkpt>
      <trkpt lat="40.201894000" lon="-8.435705000">
        <ele>27.800000</ele>
        <time>2020-10-17T07:33:48Z</time>
      </trkpt>
      <trkpt lat="40.201858000" lon="-8.435701000">
        <ele>28.000000</ele>
        <time>2020-10-17T07:33:49Z</time>
      </trkpt>
      <trkpt lat="40.201820000" lon="-8.435707000">
        <ele>28.200000</ele>
        <time>2020-10-17T07:33:50Z</time>
      </trkpt>
      <trkpt lat="40.201785000" lon="-8.435710000">
        <ele>28.600000</ele>
        <time>2020-10-17T07:33:51Z</time>
      </trkpt>
      <trkpt lat="40.201749000" lon="-8.435717000">
        <ele>28.800000</ele>
        <time>2020-10-17T07:33:52Z</time>
      </trkpt>
      <trkpt lat="40.201714000" lon="-8.435727000">
        <ele>29.000000</ele>
        <time>2020-10-17T07:33:53Z</time>
      </trkpt>
      <trkpt lat="40.201679000" lon="-8.435736000">
        <ele>29.200000</ele>
        <time>2020-10-17T07:33:54Z</time>
      </trkpt>
      <trkpt lat="40.201649000" lon="-8.435740000">
        <ele>29.400000</ele>
        <time>2020-10-17T07:33:55Z</time>
      </trkpt>
      <trkpt lat="40.201624000" lon="-8.435740000">
        <ele>29.600000</ele>
        <time>2020-10-17T07:33:56Z</time>
      </trkpt>
      <trkpt lat="40.201599000" lon="-8.435745000">
        <ele>29.600000</ele>
        <time>2020-10-17T07:33:57Z</time>
      </trkpt>
      <trkpt lat="40.201571000" lon="-8.435747000">
        <ele>29.800000</ele>
        <time>2020-10-17T07:33:58Z</time>
      </trkpt>
      <trkpt lat="40.201541000" lon="-8.435748000">
        <ele>30.400000</ele>
        <time>2020-10-17T07:33:59Z</time>
      </trkpt>
      <trkpt lat="40.201511000" lon="-8.435747000">
        <ele>30.600000</ele>
        <time>2020-10-17T07:34:00Z</time>
      </trkpt>
      <trkpt lat="40.201483000" lon="-8.435742000">
        <ele>30.800000</ele>
        <time>2020-10-17T07:34:01Z</time>
      </trkpt>
      <trkpt lat="40.201450000" lon="-8.435750000">
        <ele>30.800000</ele>
        <time>2020-10-17T07:34:02Z</time>
      </trkpt>
      <trkpt lat="40.201419000" lon="-8.435757000">
        <ele>31.000000</ele>
        <time>2020-10-17T07:34:03Z</time>
      </trkpt>
      <trkpt lat="40.201387000" lon="-8.435764000">
        <ele>31.200000</ele>
        <time>2020-10-17T07:34:04Z</time>
      </trkpt>
      <trkpt lat="40.201357000" lon="-8.435769000">
        <ele>31.400000</ele>
        <time>2020-10-17T07:34:05Z</time>
      </trkpt>
      <trkpt lat="40.201323000" lon="-8.435776000">
        <ele>31.600000</ele>
        <time>2020-10-17T07:34:06Z</time>
      </trkpt>
      <trkpt lat="40.201284000" lon="-8.435776000">
        <ele>31.800000</ele>
        <time>2020-10-17T07:34:07Z</time>
      </trkpt>
      <trkpt lat="40.201248000" lon="-8.435778000">
        <ele>32.200000</ele>
        <time>2020-10-17T07:34:08Z</time>
      </trkpt>
      <trkpt lat="40.201213000" lon="-8.435785000">
        <ele>32.200000</ele>
        <time>2020-10-17T07:34:09Z</time>
      </trkpt>
      <trkpt lat="40.201163000" lon="-8.435803000">
        <ele>32.400000</ele>
        <time>2020-10-17T07:34:10Z</time>
      </trkpt>
      <trkpt lat="40.201118000" lon="-8.435819000">
        <ele>32.600000</ele>
        <time>2020-10-17T07:34:11Z</time>
      </trkpt>
      <trkpt lat="40.201072000" lon="-8.435816000">
        <ele>33.000000</ele>
        <time>2020-10-17T07:34:12Z</time>
      </trkpt>
      <trkpt lat="40.201034000" lon="-8.435818000">
        <ele>33.200000</ele>
        <time>2020-10-17T07:34:13Z</time>
      </trkpt>
      <trkpt lat="40.200998000" lon="-8.435821000">
        <ele>33.200000</ele>
        <time>2020-10-17T07:34:14Z</time>
      </trkpt>
      <trkpt lat="40.200954000" lon="-8.435836000">
        <ele>33.600000</ele>
        <time>2020-10-17T07:34:15Z</time>
      </trkpt>
      <trkpt lat="40.200913000" lon="-8.435845000">
        <ele>33.800000</ele>
        <time>2020-10-17T07:34:16Z</time>
      </trkpt>
      <trkpt lat="40.200863000" lon="-8.435864000">
        <ele>34.000000</ele>
        <time>2020-10-17T07:34:17Z</time>
      </trkpt>
      <trkpt lat="40.200816000" lon="-8.435877000">
        <ele>34.200000</ele>
        <time>2020-10-17T07:34:18Z</time>
      </trkpt>
      <trkpt lat="40.200777000" lon="-8.435884000">
        <ele>34.400000</ele>
        <time>2020-10-17T07:34:19Z</time>
      </trkpt>
      <trkpt lat="40.200743000" lon="-8.435881000">
        <ele>34.600000</ele>
        <time>2020-10-17T07:34:20Z</time>
      </trkpt>
      <trkpt lat="40.200697000" lon="-8.435889000">
        <ele>34.800000</ele>
        <time>2020-10-17T07:34:21Z</time>
      </trkpt>
      <trkpt lat="40.200642000" lon="-8.435909000">
        <ele>35.000000</ele>
        <time>2020-10-17T07:34:22Z</time>
      </trkpt>
      <trkpt lat="40.200597000" lon="-8.435915000">
        <ele>35.000000</ele>
        <time>2020-10-17T07:34:23Z</time>
      </trkpt>
      <trkpt lat="40.200554000" lon="-8.435917000">
        <ele>35.600000</ele>
        <time>2020-10-17T07:34:24Z</time>
      </trkpt>
      <trkpt lat="40.200512000" lon="-8.435920000">
        <ele>35.800000</ele>
        <time>2020-10-17T07:34:25Z</time>
      </trkpt>
      <trkpt lat="40.200471000" lon="-8.435923000">
        <ele>36.000000</ele>
        <time>2020-10-17T07:34:26Z</time>
      </trkpt>
      <trkpt lat="40.200433000" lon="-8.435922000">
        <ele>36.200000</ele>
        <time>2020-10-17T07:34:27Z</time>
      </trkpt>
      <trkpt lat="40.200394000" lon="-8.435920000">
        <ele>36.400000</ele>
        <time>2020-10-17T07:34:28Z</time>
      </trkpt>
      <trkpt lat="40.200354000" lon="-8.435917000">
        <ele>36.600000</ele>
        <time>2020-10-17T07:34:29Z</time>
      </trkpt>
      <trkpt lat="40.200315000" lon="-8.435918000">
        <ele>37.000000</ele>
        <time>2020-10-17T07:34:30Z</time>
      </trkpt>
      <trkpt lat="40.200276000" lon="-8.435921000">
        <ele>37.000000</ele>
        <time>2020-10-17T07:34:31Z</time>
      </trkpt>
      <trkpt lat="40.200238000" lon="-8.435921000">
        <ele>37.200000</ele>
        <time>2020-10-17T07:34:32Z</time>
      </trkpt>
      <trkpt lat="40.200197000" lon="-8.435921000">
        <ele>37.400000</ele>
        <time>2020-10-17T07:34:33Z</time>
      </trkpt>
      <trkpt lat="40.200157000" lon="-8.435922000">
        <ele>37.600000</ele>
        <time>2020-10-17T07:34:34Z</time>
      </trkpt>
      <trkpt lat="40.200118000" lon="-8.435914000">
        <ele>38.000000</ele>
        <time>2020-10-17T07:34:35Z</time>
      </trkpt>
      <trkpt lat="40.200079000" lon="-8.435905000">
        <ele>38.200000</ele>
        <time>2020-10-17T07:34:36Z</time>
      </trkpt>
      <trkpt lat="40.200039000" lon="-8.435893000">
        <ele>38.400000</ele>
        <time>2020-10-17T07:34:37Z</time>
      </trkpt>
      <trkpt lat="40.200001000" lon="-8.435882000">
        <ele>38.800000</ele>
        <time>2020-10-17T07:34:38Z</time>
      </trkpt>
      <trkpt lat="40.199963000" lon="-8.435873000">
        <ele>39.000000</ele>
        <time>2020-10-17T07:34:39Z</time>
      </trkpt>
      <trkpt lat="40.199925000" lon="-8.435860000">
        <ele>39.400000</ele>
        <time>2020-10-17T07:34:40Z</time>
      </trkpt>
      <trkpt lat="40.199888000" lon="-8.435852000">
        <ele>39.600000</ele>
        <time>2020-10-17T07:34:41Z</time>
      </trkpt>
      <trkpt lat="40.199851000" lon="-8.435847000">
        <ele>39.800000</ele>
        <time>2020-10-17T07:34:42Z</time>
      </trkpt>
      <trkpt lat="40.199813000" lon="-8.435843000">
        <ele>40.200000</ele>
        <time>2020-10-17T07:34:43Z</time>
      </trkpt>
      <trkpt lat="40.199775000" lon="-8.435841000">
        <ele>40.200000</ele>
        <time>2020-10-17T07:34:44Z</time>
      </trkpt>
      <trkpt lat="40.199739000" lon="-8.435838000">
        <ele>40.200000</ele>
        <time>2020-10-17T07:34:45Z</time>
      </trkpt>
      <trkpt lat="40.199705000" lon="-8.435834000">
        <ele>40.400000</ele>
        <time>2020-10-17T07:34:46Z</time>
      </trkpt>
      <trkpt lat="40.199671000" lon="-8.435823000">
        <ele>40.600000</ele>
        <time>2020-10-17T07:34:47Z</time>
      </trkpt>
      <trkpt lat="40.199635000" lon="-8.435814000">
        <ele>40.800000</ele>
        <time>2020-10-17T07:34:48Z</time>
      </trkpt>
      <trkpt lat="40.199601000" lon="-8.435805000">
        <ele>41.000000</ele>
        <time>2020-10-17T07:34:49Z</time>
      </trkpt>
      <trkpt lat="40.199569000" lon="-8.435793000">
        <ele>41.200000</ele>
        <time>2020-10-17T07:34:50Z</time>
      </trkpt>
      <trkpt lat="40.199534000" lon="-8.435782000">
        <ele>41.600000</ele>
        <time>2020-10-17T07:34:51Z</time>
      </trkpt>
      <trkpt lat="40.199498000" lon="-8.435761000">
        <ele>41.800000</ele>
        <time>2020-10-17T07:34:52Z</time>
      </trkpt>
      <trkpt lat="40.199462000" lon="-8.435746000">
        <ele>42.200000</ele>
        <time>2020-10-17T07:34:53Z</time>
      </trkpt>
      <trkpt lat="40.199431000" lon="-8.435743000">
        <ele>42.200000</ele>
        <time>2020-10-17T07:34:54Z</time>
      </trkpt>
      <trkpt lat="40.199402000" lon="-8.435727000">
        <ele>42.400000</ele>
        <time>2020-10-17T07:34:55Z</time>
      </trkpt>
      <trkpt lat="40.199373000" lon="-8.435721000">
        <ele>42.600000</ele>
        <time>2020-10-17T07:34:56Z</time>
      </trkpt>
      <trkpt lat="40.199344000" lon="-8.435716000">
        <ele>42.800000</ele>
        <time>2020-10-17T07:34:57Z</time>
      </trkpt>
      <trkpt lat="40.199307000" lon="-8.435707000">
        <ele>43.000000</ele>
        <time>2020-10-17T07:34:58Z</time>
      </trkpt>
      <trkpt lat="40.199272000" lon="-8.435704000">
        <ele>43.200000</ele>
        <time>2020-10-17T07:34:59Z</time>
      </trkpt>
      <trkpt lat="40.199236000" lon="-8.435702000">
        <ele>43.200000</ele>
        <time>2020-10-17T07:35:00Z</time>
      </trkpt>
      <trkpt lat="40.199202000" lon="-8.435698000">
        <ele>43.600000</ele>
        <time>2020-10-17T07:35:01Z</time>
      </trkpt>
      <trkpt lat="40.199166000" lon="-8.435701000">
        <ele>44.000000</ele>
        <time>2020-10-17T07:35:02Z</time>
      </trkpt>
      <trkpt lat="40.199131000" lon="-8.435703000">
        <ele>44.200000</ele>
        <time>2020-10-17T07:35:03Z</time>
      </trkpt>
      <trkpt lat="40.199095000" lon="-8.435708000">
        <ele>44.200000</ele>
        <time>2020-10-17T07:35:04Z</time>
      </trkpt>
      <trkpt lat="40.199059000" lon="-8.435714000">
        <ele>44.400000</ele>
        <time>2020-10-17T07:35:05Z</time>
      </trkpt>
      <trkpt lat="40.199021000" lon="-8.435713000">
        <ele>44.400000</ele>
        <time>2020-10-17T07:35:06Z</time>
      </trkpt>
      <trkpt lat="40.198983000" lon="-8.435705000">
        <ele>44.600000</ele>
        <time>2020-10-17T07:35:07Z</time>
      </trkpt>
      <trkpt lat="40.198947000" lon="-8.435702000">
        <ele>45.000000</ele>
        <time>2020-10-17T07:35:08Z</time>
      </trkpt>
      <trkpt lat="40.198906000" lon="-8.435699000">
        <ele>45.200000</ele>
        <time>2020-10-17T07:35:09Z</time>
      </trkpt>
      <trkpt lat="40.198866000" lon="-8.435698000">
        <ele>45.200000</ele>
        <time>2020-10-17T07:35:10Z</time>
      </trkpt>
      <trkpt lat="40.198830000" lon="-8.435702000">
        <ele>45.400000</ele>
        <time>2020-10-17T07:35:11Z</time>
      </trkpt>
      <trkpt lat="40.198793000" lon="-8.435711000">
        <ele>45.800000</ele>
        <time>2020-10-17T07:35:12Z</time>
      </trkpt>
      <trkpt lat="40.198758000" lon="-8.435720000">
        <ele>46.000000</ele>
        <time>2020-10-17T07:35:13Z</time>
      </trkpt>
      <trkpt lat="40.198722000" lon="-8.435730000">
        <ele>46.200000</ele>
        <time>2020-10-17T07:35:14Z</time>
      </trkpt>
      <trkpt lat="40.198685000" lon="-8.435742000">
        <ele>46.400000</ele>
        <time>2020-10-17T07:35:15Z</time>
      </trkpt>
      <trkpt lat="40.198646000" lon="-8.435751000">
        <ele>46.600000</ele>
        <time>2020-10-17T07:35:16Z</time>
      </trkpt>
      <trkpt lat="40.198608000" lon="-8.435763000">
        <ele>47.000000</ele>
        <time>2020-10-17T07:35:17Z</time>
      </trkpt>
      <trkpt lat="40.198570000" lon="-8.435781000">
        <ele>47.200000</ele>
        <time>2020-10-17T07:35:18Z</time>
      </trkpt>
      <trkpt lat="40.198536000" lon="-8.435797000">
        <ele>47.400000</ele>
        <time>2020-10-17T07:35:19Z</time>
      </trkpt>
      <trkpt lat="40.198499000" lon="-8.435807000">
        <ele>47.800000</ele>
        <time>2020-10-17T07:35:20Z</time>
      </trkpt>
      <trkpt lat="40.198461000" lon="-8.435814000">
        <ele>47.800000</ele>
        <time>2020-10-17T07:35:21Z</time>
      </trkpt>
      <trkpt lat="40.198426000" lon="-8.435824000">
        <ele>48.000000</ele>
        <time>2020-10-17T07:35:22Z</time>
      </trkpt>
      <trkpt lat="40.198390000" lon="-8.435838000">
        <ele>48.400000</ele>
        <time>2020-10-17T07:35:23Z</time>
      </trkpt>
      <trkpt lat="40.198356000" lon="-8.435856000">
        <ele>48.600000</ele>
        <time>2020-10-17T07:35:24Z</time>
      </trkpt>
      <trkpt lat="40.198319000" lon="-8.435875000">
        <ele>49.000000</ele>
        <time>2020-10-17T07:35:25Z</time>
      </trkpt>
      <trkpt lat="40.198285000" lon="-8.435895000">
        <ele>49.000000</ele>
        <time>2020-10-17T07:35:26Z</time>
      </trkpt>
      <trkpt lat="40.198252000" lon="-8.435912000">
        <ele>49.200000</ele>
        <time>2020-10-17T07:35:27Z</time>
      </trkpt>
      <trkpt lat="40.198218000" lon="-8.435928000">
        <ele>49.200000</ele>
        <time>2020-10-17T07:35:28Z</time>
      </trkpt>
      <trkpt lat="40.198186000" lon="-8.435944000">
        <ele>49.600000</ele>
        <time>2020-10-17T07:35:29Z</time>
      </trkpt>
      <trkpt lat="40.198152000" lon="-8.435962000">
        <ele>50.000000</ele>
        <time>2020-10-17T07:35:30Z</time>
      </trkpt>
      <trkpt lat="40.198116000" lon="-8.435976000">
        <ele>50.200000</ele>
        <time>2020-10-17T07:35:31Z</time>
      </trkpt>
      <trkpt lat="40.198081000" lon="-8.435991000">
        <ele>50.400000</ele>
        <time>2020-10-17T07:35:32Z</time>
      </trkpt>
      <trkpt lat="40.198044000" lon="-8.436003000">
        <ele>50.400000</ele>
        <time>2020-10-17T07:35:33Z</time>
      </trkpt>
      <trkpt lat="40.198006000" lon="-8.436017000">
        <ele>50.800000</ele>
        <time>2020-10-17T07:35:34Z</time>
      </trkpt>
      <trkpt lat="40.197970000" lon="-8.436029000">
        <ele>51.000000</ele>
        <time>2020-10-17T07:35:35Z</time>
      </trkpt>
      <trkpt lat="40.197933000" lon="-8.436043000">
        <ele>51.000000</ele>
        <time>2020-10-17T07:35:36Z</time>
      </trkpt>
      <trkpt lat="40.197898000" lon="-8.436055000">
        <ele>51.400000</ele>
        <time>2020-10-17T07:35:37Z</time>
      </trkpt>
      <trkpt lat="40.197864000" lon="-8.436069000">
        <ele>51.800000</ele>
        <time>2020-10-17T07:35:38Z</time>
      </trkpt>
      <trkpt lat="40.197831000" lon="-8.436083000">
        <ele>52.000000</ele>
        <time>2020-10-17T07:35:39Z</time>
      </trkpt>
      <trkpt lat="40.197798000" lon="-8.436100000">
        <ele>52.200000</ele>
        <time>2020-10-17T07:35:40Z</time>
      </trkpt>
      <trkpt lat="40.197765000" lon="-8.436112000">
        <ele>52.400000</ele>
        <time>2020-10-17T07:35:41Z</time>
      </trkpt>
      <trkpt lat="40.197730000" lon="-8.436125000">
        <ele>52.800000</ele>
        <time>2020-10-17T07:35:42Z</time>
      </trkpt>
      <trkpt lat="40.197694000" lon="-8.436141000">
        <ele>52.800000</ele>
        <time>2020-10-17T07:35:43Z</time>
      </trkpt>
      <trkpt lat="40.197656000" lon="-8.436157000">
        <ele>53.200000</ele>
        <time>2020-10-17T07:35:44Z</time>
      </trkpt>
      <trkpt lat="40.197621000" lon="-8.436173000">
        <ele>53.600000</ele>
        <time>2020-10-17T07:35:45Z</time>
      </trkpt>
      <trkpt lat="40.197588000" lon="-8.436190000">
        <ele>53.600000</ele>
        <time>2020-10-17T07:35:46Z</time>
      </trkpt>
      <trkpt lat="40.197554000" lon="-8.436208000">
        <ele>53.800000</ele>
        <time>2020-10-17T07:35:47Z</time>
      </trkpt>
      <trkpt lat="40.197520000" lon="-8.436222000">
        <ele>54.000000</ele>
        <time>2020-10-17T07:35:48Z</time>
      </trkpt>
      <trkpt lat="40.197488000" lon="-8.436236000">
        <ele>54.200000</ele>
        <time>2020-10-17T07:35:49Z</time>
      </trkpt>
      <trkpt lat="40.197456000" lon="-8.436263000">
        <ele>54.400000</ele>
        <time>2020-10-17T07:35:50Z</time>
      </trkpt>
      <trkpt lat="40.197426000" lon="-8.436293000">
        <ele>54.600000</ele>
        <time>2020-10-17T07:35:51Z</time>
      </trkpt>
      <trkpt lat="40.197397000" lon="-8.436325000">
        <ele>54.800000</ele>
        <time>2020-10-17T07:35:52Z</time>
      </trkpt>
      <trkpt lat="40.197370000" lon="-8.436356000">
        <ele>55.200000</ele>
        <time>2020-10-17T07:35:53Z</time>
      </trkpt>
      <trkpt lat="40.197342000" lon="-8.436385000">
        <ele>55.600000</ele>
        <time>2020-10-17T07:35:54Z</time>
      </trkpt>
      <trkpt lat="40.197313000" lon="-8.436413000">
        <ele>55.800000</ele>
        <time>2020-10-17T07:35:55Z</time>
      </trkpt>
      <trkpt lat="40.197285000" lon="-8.436440000">
        <ele>56.200000</ele>
        <time>2020-10-17T07:35:56Z</time>
      </trkpt>
      <trkpt lat="40.197252000" lon="-8.436461000">
        <ele>56.400000</ele>
        <time>2020-10-17T07:35:57Z</time>
      </trkpt>
      <trkpt lat="40.197218000" lon="-8.436475000">
        <ele>56.600000</ele>
        <time>2020-10-17T07:35:58Z</time>
      </trkpt>
      <trkpt lat="40.197182000" lon="-8.436485000">
        <ele>56.600000</ele>
        <time>2020-10-17T07:35:59Z</time>
      </trkpt>
      <trkpt lat="40.197142000" lon="-8.436490000">
        <ele>57.000000</ele>
        <time>2020-10-17T07:36:00Z</time>
      </trkpt>
      <trkpt lat="40.197105000" lon="-8.436495000">
        <ele>57.200000</ele>
        <time>2020-10-17T07:36:01Z</time>
      </trkpt>
      <trkpt lat="40.197067000" lon="-8.436504000">
        <ele>57.600000</ele>
        <time>2020-10-17T07:36:02Z</time>
      </trkpt>
      <trkpt lat="40.197032000" lon="-8.436517000">
        <ele>58.000000</ele>
        <time>2020-10-17T07:36:03Z</time>
      </trkpt>
      <trkpt lat="40.196998000" lon="-8.436535000">
        <ele>58.400000</ele>
        <time>2020-10-17T07:36:04Z</time>
      </trkpt>
      <trkpt lat="40.196966000" lon="-8.436556000">
        <ele>58.600000</ele>
        <time>2020-10-17T07:36:05Z</time>
      </trkpt>
      <trkpt lat="40.196933000" lon="-8.436579000">
        <ele>58.800000</ele>
        <time>2020-10-17T07:36:06Z</time>
      </trkpt>
      <trkpt lat="40.196901000" lon="-8.436604000">
        <ele>58.800000</ele>
        <time>2020-10-17T07:36:07Z</time>
      </trkpt>
      <trkpt lat="40.196869000" lon="-8.436631000">
        <ele>59.200000</ele>
        <time>2020-10-17T07:36:08Z</time>
      </trkpt>
      <trkpt lat="40.196839000" lon="-8.436660000">
        <ele>59.200000</ele>
        <time>2020-10-17T07:36:09Z</time>
      </trkpt>
      <trkpt lat="40.196809000" lon="-8.436687000">
        <ele>59.600000</ele>
        <time>2020-10-17T07:36:10Z</time>
      </trkpt>
      <trkpt lat="40.196781000" lon="-8.436717000">
        <ele>59.600000</ele>
        <time>2020-10-17T07:36:11Z</time>
      </trkpt>
      <trkpt lat="40.196753000" lon="-8.436751000">
        <ele>59.800000</ele>
        <time>2020-10-17T07:36:12Z</time>
      </trkpt>
      <trkpt lat="40.196724000" lon="-8.436782000">
        <ele>60.000000</ele>
        <time>2020-10-17T07:36:13Z</time>
      </trkpt>
      <trkpt lat="40.196695000" lon="-8.436811000">
        <ele>60.200000</ele>
        <time>2020-10-17T07:36:14Z</time>
      </trkpt>
      <trkpt lat="40.196666000" lon="-8.436839000">
        <ele>60.400000</ele>
        <time>2020-10-17T07:36:15Z</time>
      </trkpt>
      <trkpt lat="40.196636000" lon="-8.436868000">
        <ele>60.800000</ele>
        <time>2020-10-17T07:36:16Z</time>
      </trkpt>
      <trkpt lat="40.196605000" lon="-8.436896000">
        <ele>61.000000</ele>
        <time>2020-10-17T07:36:17Z</time>
      </trkpt>
      <trkpt lat="40.196576000" lon="-8.436922000">
        <ele>61.400000</ele>
        <time>2020-10-17T07:36:18Z</time>
      </trkpt>
      <trkpt lat="40.196549000" lon="-8.436947000">
        <ele>61.800000</ele>
        <time>2020-10-17T07:36:19Z</time>
      </trkpt>
      <trkpt lat="40.196519000" lon="-8.436967000">
        <ele>61.800000</ele>
        <time>2020-10-17T07:36:20Z</time>
      </trkpt>
      <trkpt lat="40.196488000" lon="-8.436985000">
        <ele>62.000000</ele>
        <time>2020-10-17T07:36:21Z</time>
      </trkpt>
      <trkpt lat="40.196454000" lon="-8.437003000">
        <ele>62.400000</ele>
        <time>2020-10-17T07:36:22Z</time>
      </trkpt>
      <trkpt lat="40.196416000" lon="-8.437015000">
        <ele>62.600000</ele>
        <time>2020-10-17T07:36:23Z</time>
      </trkpt>
      <trkpt lat="40.196379000" lon="-8.437022000">
        <ele>62.800000</ele>
        <time>2020-10-17T07:36:24Z</time>
      </trkpt>
      <trkpt lat="40.196343000" lon="-8.437027000">
        <ele>63.200000</ele>
        <time>2020-10-17T07:36:25Z</time>
      </trkpt>
      <trkpt lat="40.196306000" lon="-8.437029000">
        <ele>63.400000</ele>
        <time>2020-10-17T07:36:26Z</time>
      </trkpt>
      <trkpt lat="40.196269000" lon="-8.437032000">
        <ele>63.400000</ele>
        <time>2020-10-17T07:36:27Z</time>
      </trkpt>
      <trkpt lat="40.196232000" lon="-8.437035000">
        <ele>63.600000</ele>
        <time>2020-10-17T07:36:28Z</time>
      </trkpt>
      <trkpt lat="40.196198000" lon="-8.437029000">
        <ele>64.000000</ele>
        <time>2020-10-17T07:36:29Z</time>
      </trkpt>
      <trkpt lat="40.196163000" lon="-8.437017000">
        <ele>64.400000</ele>
        <time>2020-10-17T07:36:30Z</time>
      </trkpt>
      <trkpt lat="40.196127000" lon="-8.437000000">
        <ele>64.400000</ele>
        <time>2020-10-17T07:36:31Z</time>
      </trkpt>
      <trkpt lat="40.196089000" lon="-8.436980000">
        <ele>64.600000</ele>
        <time>2020-10-17T07:36:32Z</time>
      </trkpt>
      <trkpt lat="40.196051000" lon="-8.436956000">
        <ele>64.800000</ele>
        <time>2020-10-17T07:36:33Z</time>
      </trkpt>
      <trkpt lat="40.196015000" lon="-8.436928000">
        <ele>65.000000</ele>
        <time>2020-10-17T07:36:34Z</time>
      </trkpt>
      <trkpt lat="40.195980000" lon="-8.436899000">
        <ele>65.200000</ele>
        <time>2020-10-17T07:36:35Z</time>
      </trkpt>
      <trkpt lat="40.195946000" lon="-8.436871000">
        <ele>65.400000</ele>
        <time>2020-10-17T07:36:36Z</time>
      </trkpt>
      <trkpt lat="40.195914000" lon="-8.436843000">
        <ele>65.600000</ele>
        <time>2020-10-17T07:36:37Z</time>
      </trkpt>
      <trkpt lat="40.195884000" lon="-8.436813000">
        <ele>65.800000</ele>
        <time>2020-10-17T07:36:38Z</time>
      </trkpt>
      <trkpt lat="40.195856000" lon="-8.436781000">
        <ele>66.200000</ele>
        <time>2020-10-17T07:36:39Z</time>
      </trkpt>
      <trkpt lat="40.195827000" lon="-8.436749000">
        <ele>66.400000</ele>
        <time>2020-10-17T07:36:40Z</time>
      </trkpt>
      <trkpt lat="40.195800000" lon="-8.436720000">
        <ele>66.600000</ele>
        <time>2020-10-17T07:36:41Z</time>
      </trkpt>
      <trkpt lat="40.195775000" lon="-8.436690000">
        <ele>66.800000</ele>
        <time>2020-10-17T07:36:42Z</time>
      </trkpt>
      <trkpt lat="40.195749000" lon="-8.436661000">
        <ele>67.200000</ele>
        <time>2020-10-17T07:36:43Z</time>
      </trkpt>
      <trkpt lat="40.195723000" lon="-8.436631000">
        <ele>67.400000</ele>
        <time>2020-10-17T07:36:44Z</time>
      </trkpt>
      <trkpt lat="40.195693000" lon="-8.436598000">
        <ele>67.600000</ele>
        <time>2020-10-17T07:36:45Z</time>
      </trkpt>
      <trkpt lat="40.195665000" lon="-8.436559000">
        <ele>67.800000</ele>
        <time>2020-10-17T07:36:46Z</time>
      </trkpt>
      <trkpt lat="40.195637000" lon="-8.436529000">
        <ele>67.800000</ele>
        <time>2020-10-17T07:36:47Z</time>
      </trkpt>
      <trkpt lat="40.195600000" lon="-8.436498000">
        <ele>68.000000</ele>
        <time>2020-10-17T07:36:48Z</time>
      </trkpt>
      <trkpt lat="40.195570000" lon="-8.436463000">
        <ele>68.400000</ele>
        <time>2020-10-17T07:36:49Z</time>
      </trkpt>
      <trkpt lat="40.195540000" lon="-8.436438000">
        <ele>68.600000</ele>
        <time>2020-10-17T07:36:50Z</time>
      </trkpt>
      <trkpt lat="40.195508000" lon="-8.436413000">
        <ele>68.800000</ele>
        <time>2020-10-17T07:36:51Z</time>
      </trkpt>
      <trkpt lat="40.195478000" lon="-8.436380000">
        <ele>68.800000</ele>
        <time>2020-10-17T07:36:52Z</time>
      </trkpt>
      <trkpt lat="40.195451000" lon="-8.436339000">
        <ele>69.200000</ele>
        <time>2020-10-17T07:36:53Z</time>
      </trkpt>
      <trkpt lat="40.195417000" lon="-8.436315000">
        <ele>69.400000</ele>
        <time>2020-10-17T07:36:54Z</time>
      </trkpt>
      <trkpt lat="40.195385000" lon="-8.436297000">
        <ele>69.600000</ele>
        <time>2020-10-17T07:36:55Z</time>
      </trkpt>
      <trkpt lat="40.195354000" lon="-8.436283000">
        <ele>69.800000</ele>
        <time>2020-10-17T07:36:56Z</time>
      </trkpt>
      <trkpt lat="40.195321000" lon="-8.436268000">
        <ele>70.000000</ele>
        <time>2020-10-17T07:36:57Z</time>
      </trkpt>
      <trkpt lat="40.195285000" lon="-8.436250000">
        <ele>70.200000</ele>
        <time>2020-10-17T07:36:58Z</time>
      </trkpt>
      <trkpt lat="40.195249000" lon="-8.436239000">
        <ele>70.600000</ele>
        <time>2020-10-17T07:36:59Z</time>
      </trkpt>
      <trkpt lat="40.195214000" lon="-8.436231000">
        <ele>70.600000</ele>
        <time>2020-10-17T07:37:00Z</time>
      </trkpt>
      <trkpt lat="40.195175000" lon="-8.436224000">
        <ele>70.800000</ele>
        <time>2020-10-17T07:37:01Z</time>
      </trkpt>
      <trkpt lat="40.195138000" lon="-8.436218000">
        <ele>71.200000</ele>
        <time>2020-10-17T07:37:02Z</time>
      </trkpt>
      <trkpt lat="40.195100000" lon="-8.436216000">
        <ele>71.200000</ele>
        <time>2020-10-17T07:37:03Z</time>
      </trkpt>
      <trkpt lat="40.195064000" lon="-8.436216000">
        <ele>71.400000</ele>
        <time>2020-10-17T07:37:04Z</time>
      </trkpt>
      <trkpt lat="40.195026000" lon="-8.436215000">
        <ele>71.600000</ele>
        <time>2020-10-17T07:37:05Z</time>
      </trkpt>
      <trkpt lat="40.194987000" lon="-8.436216000">
        <ele>72.000000</ele>
        <time>2020-10-17T07:37:06Z</time>
      </trkpt>
      <trkpt lat="40.194949000" lon="-8.436225000">
        <ele>72.400000</ele>
        <time>2020-10-17T07:37:07Z</time>
      </trkpt>
      <trkpt lat="40.194913000" lon="-8.436237000">
        <ele>72.400000</ele>
        <time>2020-10-17T07:37:08Z</time>
      </trkpt>
      <trkpt lat="40.194877000" lon="-8.436248000">
        <ele>72.600000</ele>
        <time>2020-10-17T07:37:09Z</time>
      </trkpt>
      <trkpt lat="40.194839000" lon="-8.436258000">
        <ele>72.800000</ele>
        <time>2020-10-17T07:37:10Z</time>
      </trkpt>
      <trkpt lat="40.194805000" lon="-8.436272000">
        <ele>72.800000</ele>
        <time>2020-10-17T07:37:11Z</time>
      </trkpt>
      <trkpt lat="40.194769000" lon="-8.436288000">
        <ele>73.200000</ele>
        <time>2020-10-17T07:37:12Z</time>
      </trkpt>
      <trkpt lat="40.194735000" lon="-8.436306000">
        <ele>73.200000</ele>
        <time>2020-10-17T07:37:13Z</time>
      </trkpt>
      <trkpt lat="40.194702000" lon="-8.436326000">
        <ele>73.400000</ele>
        <time>2020-10-17T07:37:14Z</time>
      </trkpt>
      <trkpt lat="40.194667000" lon="-8.436347000">
        <ele>73.800000</ele>
        <time>2020-10-17T07:37:15Z</time>
      </trkpt>
      <trkpt lat="40.194633000" lon="-8.436369000">
        <ele>74.000000</ele>
        <time>2020-10-17T07:37:16Z</time>
      </trkpt>
      <trkpt lat="40.194598000" lon="-8.436389000">
        <ele>74.200000</ele>
        <time>2020-10-17T07:37:17Z</time>
      </trkpt>
      <trkpt lat="40.194562000" lon="-8.436408000">
        <ele>74.400000</ele>
        <time>2020-10-17T07:37:18Z</time>
      </trkpt>
      <trkpt lat="40.194528000" lon="-8.436428000">
        <ele>74.800000</ele>
        <time>2020-10-17T07:37:19Z</time>
      </trkpt>
      <trkpt lat="40.194493000" lon="-8.436448000">
        <ele>74.800000</ele>
        <time>2020-10-17T07:37:20Z</time>
      </trkpt>
      <trkpt lat="40.194459000" lon="-8.436468000">
        <ele>75.200000</ele>
        <time>2020-10-17T07:37:21Z</time>
      </trkpt>
      <trkpt lat="40.194425000" lon="-8.436489000">
        <ele>75.200000</ele>
        <time>2020-10-17T07:37:22Z</time>
      </trkpt>
      <trkpt lat="40.194391000" lon="-8.436510000">
        <ele>75.600000</ele>
        <time>2020-10-17T07:37:23Z</time>
      </trkpt>
      <trkpt lat="40.194358000" lon="-8.436532000">
        <ele>75.800000</ele>
        <time>2020-10-17T07:37:24Z</time>
      </trkpt>
      <trkpt lat="40.194324000" lon="-8.436555000">
        <ele>76.000000</ele>
        <time>2020-10-17T07:37:25Z</time>
      </trkpt>
      <trkpt lat="40.194290000" lon="-8.436575000">
        <ele>76.400000</ele>
        <time>2020-10-17T07:37:26Z</time>
      </trkpt>
      <trkpt lat="40.194257000" lon="-8.436597000">
        <ele>76.600000</ele>
        <time>2020-10-17T07:37:27Z</time>
      </trkpt>
      <trkpt lat="40.194225000" lon="-8.436619000">
        <ele>76.600000</ele>
        <time>2020-10-17T07:37:28Z</time>
      </trkpt>
      <trkpt lat="40.194193000" lon="-8.436641000">
        <ele>77.000000</ele>
        <time>2020-10-17T07:37:29Z</time>
      </trkpt>
      <trkpt lat="40.194161000" lon="-8.436663000">
        <ele>77.000000</ele>
        <time>2020-10-17T07:37:30Z</time>
      </trkpt>
      <trkpt lat="40.194129000" lon="-8.436683000">
        <ele>77.400000</ele>
        <time>2020-10-17T07:37:31Z</time>
      </trkpt>
      <trkpt lat="40.194097000" lon="-8.436706000">
        <ele>77.600000</ele>
        <time>2020-10-17T07:37:32Z</time>
      </trkpt>
      <trkpt lat="40.194065000" lon="-8.436727000">
        <ele>78.000000</ele>
        <time>2020-10-17T07:37:33Z</time>
      </trkpt>
      <trkpt lat="40.194030000" lon="-8.436746000">
        <ele>78.200000</ele>
        <time>2020-10-17T07:37:34Z</time>
      </trkpt>
      <trkpt lat="40.193996000" lon="-8.436763000">
        <ele>78.400000</ele>
        <time>2020-10-17T07:37:35Z</time>
      </trkpt>
      <trkpt lat="40.193962000" lon="-8.436777000">
        <ele>78.400000</ele>
        <time>2020-10-17T07:37:36Z</time>
      </trkpt>
      <trkpt lat="40.193927000" lon="-8.436788000">
        <ele>78.600000</ele>
        <time>2020-10-17T07:37:37Z</time>
      </trkpt>
      <trkpt lat="40.193891000" lon="-8.436795000">
        <ele>79.000000</ele>
        <time>2020-10-17T07:37:38Z</time>
      </trkpt>
      <trkpt lat="40.193858000" lon="-8.436801000">
        <ele>79.200000</ele>
        <time>2020-10-17T07:37:39Z</time>
      </trkpt>
      <trkpt lat="40.193823000" lon="-8.436805000">
        <ele>79.600000</ele>
        <time>2020-10-17T07:37:40Z</time>
      </trkpt>
      <trkpt lat="40.193787000" lon="-8.436810000">
        <ele>79.800000</ele>
        <time>2020-10-17T07:37:41Z</time>
      </trkpt>
      <trkpt lat="40.193755000" lon="-8.436804000">
        <ele>80.000000</ele>
        <time>2020-10-17T07:37:42Z</time>
      </trkpt>
      <trkpt lat="40.193727000" lon="-8.436790000">
        <ele>80.200000</ele>
        <time>2020-10-17T07:37:43Z</time>
      </trkpt>
      <trkpt lat="40.193695000" lon="-8.436786000">
        <ele>80.600000</ele>
        <time>2020-10-17T07:37:44Z</time>
      </trkpt>
      <trkpt lat="40.193662000" lon="-8.436782000">
        <ele>80.800000</ele>
        <time>2020-10-17T07:37:45Z</time>
      </trkpt>
      <trkpt lat="40.193627000" lon="-8.436767000">
        <ele>81.000000</ele>
        <time>2020-10-17T07:37:46Z</time>
      </trkpt>
      <trkpt lat="40.193591000" lon="-8.436751000">
        <ele>81.200000</ele>
        <time>2020-10-17T07:37:47Z</time>
      </trkpt>
      <trkpt lat="40.193556000" lon="-8.436729000">
        <ele>81.200000</ele>
        <time>2020-10-17T07:37:48Z</time>
      </trkpt>
      <trkpt lat="40.193521000" lon="-8.436703000">
        <ele>81.400000</ele>
        <time>2020-10-17T07:37:49Z</time>
      </trkpt>
      <trkpt lat="40.193487000" lon="-8.436674000">
        <ele>81.800000</ele>
        <time>2020-10-17T07:37:50Z</time>
      </trkpt>
      <trkpt lat="40.193455000" lon="-8.436644000">
        <ele>82.000000</ele>
        <time>2020-10-17T07:37:51Z</time>
      </trkpt>
      <trkpt lat="40.193426000" lon="-8.436611000">
        <ele>82.200000</ele>
        <time>2020-10-17T07:37:52Z</time>
      </trkpt>
      <trkpt lat="40.193400000" lon="-8.436577000">
        <ele>82.600000</ele>
        <time>2020-10-17T07:37:53Z</time>
      </trkpt>
      <trkpt lat="40.193377000" lon="-8.436540000">
        <ele>82.600000</ele>
        <time>2020-10-17T07:37:54Z</time>
      </trkpt>
      <trkpt lat="40.193357000" lon="-8.436499000">
        <ele>83.000000</ele>
        <time>2020-10-17T07:37:55Z</time>
      </trkpt>
      <trkpt lat="40.193334000" lon="-8.436455000">
        <ele>83.200000</ele>
        <time>2020-10-17T07:37:56Z</time>
      </trkpt>
      <trkpt lat="40.193310000" lon="-8.436407000">
        <ele>83.600000</ele>
        <time>2020-10-17T07:37:57Z</time>
      </trkpt>
      <trkpt lat="40.193289000" lon="-8.436360000">
        <ele>83.600000</ele>
        <time>2020-10-17T07:37:58Z</time>
      </trkpt>
      <trkpt lat="40.193273000" lon="-8.436315000">
        <ele>84.000000</ele>
        <time>2020-10-17T07:37:59Z</time>
      </trkpt>
      <trkpt lat="40.193259000" lon="-8.436268000">
        <ele>84.200000</ele>
        <time>2020-10-17T07:38:00Z</time>
      </trkpt>
      <trkpt lat="40.193245000" lon="-8.436220000">
        <ele>84.400000</ele>
        <time>2020-10-17T07:38:01Z</time>
      </trkpt>
      <trkpt lat="40.193234000" lon="-8.436176000">
        <ele>84.600000</ele>
        <time>2020-10-17T07:38:02Z</time>
      </trkpt>
      <trkpt lat="40.193222000" lon="-8.436129000">
        <ele>84.800000</ele>
        <time>2020-10-17T07:38:03Z</time>
      </trkpt>
      <trkpt lat="40.193207000" lon="-8.436082000">
        <ele>85.000000</ele>
        <time>2020-10-17T07:38:04Z</time>
      </trkpt>
      <trkpt lat="40.193193000" lon="-8.436037000">
        <ele>85.200000</ele>
        <time>2020-10-17T07:38:05Z</time>
      </trkpt>
      <trkpt lat="40.193176000" lon="-8.435995000">
        <ele>85.200000</ele>
        <time>2020-10-17T07:38:06Z</time>
      </trkpt>
      <trkpt lat="40.193161000" lon="-8.435955000">
        <ele>85.600000</ele>
        <time>2020-10-17T07:38:07Z</time>
      </trkpt>
      <trkpt lat="40.193144000" lon="-8.435914000">
        <ele>85.800000</ele>
        <time>2020-10-17T07:38:08Z</time>
      </trkpt>
      <trkpt lat="40.193124000" lon="-8.435874000">
        <ele>85.800000</ele>
        <time>2020-10-17T07:38:09Z</time>
      </trkpt>
      <trkpt lat="40.193106000" lon="-8.435836000">
        <ele>85.800000</ele>
        <time>2020-10-17T07:38:10Z</time>
      </trkpt>
      <trkpt lat="40.193086000" lon="-8.435799000">
        <ele>86.200000</ele>
        <time>2020-10-17T07:38:11Z</time>
      </trkpt>
      <trkpt lat="40.193066000" lon="-8.435764000">
        <ele>86.600000</ele>
        <time>2020-10-17T07:38:12Z</time>
      </trkpt>
      <trkpt lat="40.193045000" lon="-8.435729000">
        <ele>86.800000</ele>
        <time>2020-10-17T07:38:13Z</time>
      </trkpt>
      <trkpt lat="40.193025000" lon="-8.435695000">
        <ele>87.000000</ele>
        <time>2020-10-17T07:38:14Z</time>
      </trkpt>
      <trkpt lat="40.193003000" lon="-8.435657000">
        <ele>87.400000</ele>
        <time>2020-10-17T07:38:15Z</time>
      </trkpt>
      <trkpt lat="40.192980000" lon="-8.435618000">
        <ele>87.400000</ele>
        <time>2020-10-17T07:38:16Z</time>
      </trkpt>
      <trkpt lat="40.192956000" lon="-8.435582000">
        <ele>87.600000</ele>
        <time>2020-10-17T07:38:17Z</time>
      </trkpt>
      <trkpt lat="40.192929000" lon="-8.435548000">
        <ele>87.800000</ele>
        <time>2020-10-17T07:38:18Z</time>
      </trkpt>
      <trkpt lat="40.192902000" lon="-8.435515000">
        <ele>88.000000</ele>
        <time>2020-10-17T07:38:19Z</time>
      </trkpt>
      <trkpt lat="40.192875000" lon="-8.435486000">
        <ele>88.400000</ele>
        <time>2020-10-17T07:38:20Z</time>
      </trkpt>
      <trkpt lat="40.192847000" lon="-8.435454000">
        <ele>88.800000</ele>
        <time>2020-10-17T07:38:21Z</time>
      </trkpt>
      <trkpt lat="40.192821000" lon="-8.435422000">
        <ele>88.800000</ele>
        <time>2020-10-17T07:38:22Z</time>
      </trkpt>
      <trkpt lat="40.192791000" lon="-8.435390000">
        <ele>89.000000</ele>
        <time>2020-10-17T07:38:23Z</time>
      </trkpt>
      <trkpt lat="40.192760000" lon="-8.435360000">
        <ele>89.200000</ele>
        <time>2020-10-17T07:38:24Z</time>
      </trkpt>
      <trkpt lat="40.192728000" lon="-8.435330000">
        <ele>89.400000</ele>
        <time>2020-10-17T07:38:25Z</time>
      </trkpt>
      <trkpt lat="40.192695000" lon="-8.435304000">
        <ele>89.800000</ele>
        <time>2020-10-17T07:38:26Z</time>
      </trkpt>
      <trkpt lat="40.192664000" lon="-8.435283000">
        <ele>90.000000</ele>
        <time>2020-10-17T07:38:27Z</time>
      </trkpt>
      <trkpt lat="40.192634000" lon="-8.435263000">
        <ele>90.200000</ele>
        <time>2020-10-17T07:38:28Z</time>
      </trkpt>
      <trkpt lat="40.192602000" lon="-8.435240000">
        <ele>90.200000</ele>
        <time>2020-10-17T07:38:29Z</time>
      </trkpt>
      <trkpt lat="40.192569000" lon="-8.435218000">
        <ele>90.600000</ele>
        <time>2020-10-17T07:38:30Z</time>
      </trkpt>
      <trkpt lat="40.192538000" lon="-8.435198000">
        <ele>90.600000</ele>
        <time>2020-10-17T07:38:31Z</time>
      </trkpt>
      <trkpt lat="40.192505000" lon="-8.435174000">
        <ele>90.800000</ele>
        <time>2020-10-17T07:38:32Z</time>
      </trkpt>
      <trkpt lat="40.192472000" lon="-8.435150000">
        <ele>91.200000</ele>
        <time>2020-10-17T07:38:33Z</time>
      </trkpt>
      <trkpt lat="40.192437000" lon="-8.435128000">
        <ele>91.400000</ele>
        <time>2020-10-17T07:38:34Z</time>
      </trkpt>
      <trkpt lat="40.192403000" lon="-8.435106000">
        <ele>91.600000</ele>
        <time>2020-10-17T07:38:35Z</time>
      </trkpt>
      <trkpt lat="40.192367000" lon="-8.435085000">
        <ele>92.000000</ele>
        <time>2020-10-17T07:38:36Z</time>
      </trkpt>
      <trkpt lat="40.192327000" lon="-8.435057000">
        <ele>92.000000</ele>
        <time>2020-10-17T07:38:37Z</time>
      </trkpt>
      <trkpt lat="40.192293000" lon="-8.435031000">
        <ele>92.200000</ele>
        <time>2020-10-17T07:38:38Z</time>
      </trkpt>
      <trkpt lat="40.192258000" lon="-8.435007000">
        <ele>92.600000</ele>
        <time>2020-10-17T07:38:39Z</time>
      </trkpt>
      <trkpt lat="40.192223000" lon="-8.434985000">
        <ele>92.800000</ele>
        <time>2020-10-17T07:38:40Z</time>
      </trkpt>
      <trkpt lat="40.192190000" lon="-8.434963000">
        <ele>92.800000</ele>
        <time>2020-10-17T07:38:41Z</time>
      </trkpt>
      <trkpt lat="40.192156000" lon="-8.434936000">
        <ele>93.200000</ele>
        <time>2020-10-17T07:38:42Z</time>
      </trkpt>
      <trkpt lat="40.192123000" lon="-8.434912000">
        <ele>93.400000</ele>
        <time>2020-10-17T07:38:43Z</time>
      </trkpt>
      <trkpt lat="40.192090000" lon="-8.434889000">
        <ele>93.400000</ele>
        <time>2020-10-17T07:38:44Z</time>
      </trkpt>
      <trkpt lat="40.192057000" lon="-8.434860000">
        <ele>93.600000</ele>
        <time>2020-10-17T07:38:45Z</time>
      </trkpt>
      <trkpt lat="40.192025000" lon="-8.434836000">
        <ele>94.000000</ele>
        <time>2020-10-17T07:38:46Z</time>
      </trkpt>
      <trkpt lat="40.191994000" lon="-8.434811000">
        <ele>94.000000</ele>
        <time>2020-10-17T07:38:47Z</time>
      </trkpt>
      <trkpt lat="40.191962000" lon="-8.434784000">
        <ele>94.200000</ele>
        <time>2020-10-17T07:38:48Z</time>
      </trkpt>
      <trkpt lat="40.191931000" lon="-8.434758000">
        <ele>94.200000</ele>
        <time>2020-10-17T07:38:49Z</time>
      </trkpt>
      <trkpt lat="40.191900000" lon="-8.434736000">
        <ele>94.600000</ele>
        <time>2020-10-17T07:38:50Z</time>
      </trkpt>
      <trkpt lat="40.191867000" lon="-8.434713000">
        <ele>94.800000</ele>
        <time>2020-10-17T07:38:51Z</time>
      </trkpt>
      <trkpt lat="40.191833000" lon="-8.434692000">
        <ele>95.000000</ele>
        <time>2020-10-17T07:38:52Z</time>
      </trkpt>
      <trkpt lat="40.191800000" lon="-8.434670000">
        <ele>95.200000</ele>
        <time>2020-10-17T07:38:53Z</time>
      </trkpt>
      <trkpt lat="40.191768000" lon="-8.434646000">
        <ele>95.400000</ele>
        <time>2020-10-17T07:38:54Z</time>
      </trkpt>
      <trkpt lat="40.191735000" lon="-8.434620000">
        <ele>95.800000</ele>
        <time>2020-10-17T07:38:55Z</time>
      </trkpt>
      <trkpt lat="40.191703000" lon="-8.434594000">
        <ele>96.000000</ele>
        <time>2020-10-17T07:38:56Z</time>
      </trkpt>
      <trkpt lat="40.191669000" lon="-8.434564000">
        <ele>96.200000</ele>
        <time>2020-10-17T07:38:57Z</time>
      </trkpt>
      <trkpt lat="40.191635000" lon="-8.434538000">
        <ele>96.400000</ele>
        <time>2020-10-17T07:38:58Z</time>
      </trkpt>
      <trkpt lat="40.191602000" lon="-8.434512000">
        <ele>96.600000</ele>
        <time>2020-10-17T07:38:59Z</time>
      </trkpt>
      <trkpt lat="40.191571000" lon="-8.434487000">
        <ele>97.000000</ele>
        <time>2020-10-17T07:39:00Z</time>
      </trkpt>
      <trkpt lat="40.191539000" lon="-8.434460000">
        <ele>97.200000</ele>
        <time>2020-10-17T07:39:01Z</time>
      </trkpt>
      <trkpt lat="40.191508000" lon="-8.434433000">
        <ele>97.400000</ele>
        <time>2020-10-17T07:39:02Z</time>
      </trkpt>
      <trkpt lat="40.191477000" lon="-8.434404000">
        <ele>97.600000</ele>
        <time>2020-10-17T07:39:03Z</time>
      </trkpt>
      <trkpt lat="40.191447000" lon="-8.434377000">
        <ele>97.800000</ele>
        <time>2020-10-17T07:39:04Z</time>
      </trkpt>
      <trkpt lat="40.191417000" lon="-8.434351000">
        <ele>98.200000</ele>
        <time>2020-10-17T07:39:05Z</time>
      </trkpt>
      <trkpt lat="40.191386000" lon="-8.434325000">
        <ele>98.600000</ele>
        <time>2020-10-17T07:39:06Z</time>
      </trkpt>
      <trkpt lat="40.191356000" lon="-8.434300000">
        <ele>98.800000</ele>
        <time>2020-10-17T07:39:07Z</time>
      </trkpt>
      <trkpt lat="40.191327000" lon="-8.434275000">
        <ele>98.800000</ele>
        <time>2020-10-17T07:39:08Z</time>
      </trkpt>
      <trkpt lat="40.191297000" lon="-8.434247000">
        <ele>99.200000</ele>
        <time>2020-10-17T07:39:09Z</time>
      </trkpt>
      <trkpt lat="40.191267000" lon="-8.434217000">
        <ele>99.200000</ele>
        <time>2020-10-17T07:39:10Z</time>
      </trkpt>
      <trkpt lat="40.191238000" lon="-8.434186000">
        <ele>99.400000</ele>
        <time>2020-10-17T07:39:11Z</time>
      </trkpt>
      <trkpt lat="40.191210000" lon="-8.434157000">
        <ele>99.600000</ele>
        <time>2020-10-17T07:39:12Z</time>
      </trkpt>
      <trkpt lat="40.191180000" lon="-8.434126000">
        <ele>99.600000</ele>
        <time>2020-10-17T07:39:13Z</time>
      </trkpt>
      <trkpt lat="40.191150000" lon="-8.434098000">
        <ele>100.000000</ele>
        <time>2020-10-17T07:39:14Z</time>
      </trkpt>
      <trkpt lat="40.191121000" lon="-8.434069000">
        <ele>100.400000</ele>
        <time>2020-10-17T07:39:15Z</time>
      </trkpt>
      <trkpt lat="40.191092000" lon="-8.434039000">
        <ele>100.800000</ele>
        <time>2020-10-17T07:39:16Z</time>
      </trkpt>
      <trkpt lat="40.191064000" lon="-8.434005000">
        <ele>100.800000</ele>
        <time>2020-10-17T07:39:17Z</time>
      </trkpt>
      <trkpt lat="40.191037000" lon="-8.433972000">
        <ele>101.200000</ele>
        <time>2020-10-17T07:39:18Z</time>
      </trkpt>
      <trkpt lat="40.191009000" lon="-8.433939000">
        <ele>101.400000</ele>
        <time>2020-10-17T07:39:19Z</time>
      </trkpt>
      <trkpt lat="40.190981000" lon="-8.433907000">
        <ele>101.600000</ele>
        <time>2020-10-17T07:39:20Z</time>
      </trkpt>
      <trkpt lat="40.190952000" lon="-8.433876000">
        <ele>101.800000</ele>
        <time>2020-10-17T07:39:21Z</time>
      </trkpt>
      <trkpt lat="40.190924000" lon="-8.433843000">
        <ele>102.000000</ele>
        <time>2020-10-17T07:39:22Z</time>
      </trkpt>
      <trkpt lat="40.190899000" lon="-8.433811000">
        <ele>102.400000</ele>
        <time>2020-10-17T07:39:23Z</time>
      </trkpt>
      <trkpt lat="40.190872000" lon="-8.433778000">
        <ele>102.400000</ele>
        <time>2020-10-17T07:39:24Z</time>
      </trkpt>
      <trkpt lat="40.190845000" lon="-8.433745000">
        <ele>102.800000</ele>
        <time>2020-10-17T07:39:25Z</time>
      </trkpt>
      <trkpt lat="40.190817000" lon="-8.433712000">
        <ele>103.000000</ele>
        <time>2020-10-17T07:39:26Z</time>
      </trkpt>
      <trkpt lat="40.190789000" lon="-8.433680000">
        <ele>103.400000</ele>
        <time>2020-10-17T07:39:27Z</time>
      </trkpt>
      <trkpt lat="40.190762000" lon="-8.433648000">
        <ele>103.600000</ele>
        <time>2020-10-17T07:39:28Z</time>
      </trkpt>
      <trkpt lat="40.190736000" lon="-8.433616000">
        <ele>104.000000</ele>
        <time>2020-10-17T07:39:29Z</time>
      </trkpt>
      <trkpt lat="40.190710000" lon="-8.433585000">
        <ele>104.000000</ele>
        <time>2020-10-17T07:39:30Z</time>
      </trkpt>
      <trkpt lat="40.190684000" lon="-8.433553000">
        <ele>104.000000</ele>
        <time>2020-10-17T07:39:31Z</time>
      </trkpt>
      <trkpt lat="40.190659000" lon="-8.433519000">
        <ele>104.400000</ele>
        <time>2020-10-17T07:39:32Z</time>
      </trkpt>
      <trkpt lat="40.190634000" lon="-8.433482000">
        <ele>104.800000</ele>
        <time>2020-10-17T07:39:33Z</time>
      </trkpt>
      <trkpt lat="40.190608000" lon="-8.433450000">
        <ele>104.800000</ele>
        <time>2020-10-17T07:39:34Z</time>
      </trkpt>
      <trkpt lat="40.190579000" lon="-8.433418000">
        <ele>105.000000</ele>
        <time>2020-10-17T07:39:35Z</time>
      </trkpt>
      <trkpt lat="40.190552000" lon="-8.433390000">
        <ele>105.200000</ele>
        <time>2020-10-17T07:39:36Z</time>
      </trkpt>
      <trkpt lat="40.190525000" lon="-8.433360000">
        <ele>105.400000</ele>
        <time>2020-10-17T07:39:37Z</time>
      </trkpt>
      <trkpt lat="40.190500000" lon="-8.433334000">
        <ele>105.800000</ele>
        <time>2020-10-17T07:39:38Z</time>
      </trkpt>
      <trkpt lat="40.190475000" lon="-8.433308000">
        <ele>105.800000</ele>
        <time>2020-10-17T07:39:39Z</time>
      </trkpt>
      <trkpt lat="40.190450000" lon="-8.433283000">
        <ele>106.200000</ele>
        <time>2020-10-17T07:39:40Z</time>
      </trkpt>
      <trkpt lat="40.190425000" lon="-8.433258000">
        <ele>106.200000</ele>
        <time>2020-10-17T07:39:41Z</time>
      </trkpt>
      <trkpt lat="40.190400000" lon="-8.433229000">
        <ele>106.400000</ele>
        <time>2020-10-17T07:39:42Z</time>
      </trkpt>
      <trkpt lat="40.190377000" lon="-8.433199000">
        <ele>106.600000</ele>
        <time>2020-10-17T07:39:43Z</time>
      </trkpt>
      <trkpt lat="40.190351000" lon="-8.433171000">
        <ele>107.000000</ele>
        <time>2020-10-17T07:39:44Z</time>
      </trkpt>
      <trkpt lat="40.190323000" lon="-8.433143000">
        <ele>107.200000</ele>
        <time>2020-10-17T07:39:45Z</time>
      </trkpt>
      <trkpt lat="40.190296000" lon="-8.433113000">
        <ele>107.600000</ele>
        <time>2020-10-17T07:39:46Z</time>
      </trkpt>
      <trkpt lat="40.190269000" lon="-8.433081000">
        <ele>107.800000</ele>
        <time>2020-10-17T07:39:47Z</time>
      </trkpt>
      <trkpt lat="40.190244000" lon="-8.433053000">
        <ele>108.000000</ele>
        <time>2020-10-17T07:39:48Z</time>
      </trkpt>
      <trkpt lat="40.190217000" lon="-8.433026000">
        <ele>108.200000</ele>
        <time>2020-10-17T07:39:49Z</time>
      </trkpt>
      <trkpt lat="40.190189000" lon="-8.433005000">
        <ele>108.400000</ele>
        <time>2020-10-17T07:39:50Z</time>
      </trkpt>
      <trkpt lat="40.190160000" lon="-8.432983000">
        <ele>108.400000</ele>
        <time>2020-10-17T07:39:51Z</time>
      </trkpt>
      <trkpt lat="40.190133000" lon="-8.432962000">
        <ele>108.600000</ele>
        <time>2020-10-17T07:39:52Z</time>
      </trkpt>
      <trkpt lat="40.190104000" lon="-8.432943000">
        <ele>108.800000</ele>
        <time>2020-10-17T07:39:53Z</time>
      </trkpt>
      <trkpt lat="40.190075000" lon="-8.432926000">
        <ele>109.200000</ele>
        <time>2020-10-17T07:39:54Z</time>
      </trkpt>
      <trkpt lat="40.190045000" lon="-8.432913000">
        <ele>109.400000</ele>
        <time>2020-10-17T07:39:55Z</time>
      </trkpt>
      <trkpt lat="40.190016000" lon="-8.432902000">
        <ele>109.600000</ele>
        <time>2020-10-17T07:39:56Z</time>
      </trkpt>
      <trkpt lat="40.189985000" lon="-8.432893000">
        <ele>109.600000</ele>
        <time>2020-10-17T07:39:57Z</time>
      </trkpt>
      <trkpt lat="40.189953000" lon="-8.432884000">
        <ele>110.000000</ele>
        <time>2020-10-17T07:39:58Z</time>
      </trkpt>
      <trkpt lat="40.189920000" lon="-8.432876000">
        <ele>110.000000</ele>
        <time>2020-10-17T07:39:59Z</time>
      </trkpt>
      <trkpt lat="40.189885000" lon="-8.432871000">
        <ele>110.400000</ele>
        <time>2020-10-17T07:40:00Z</time>
      </trkpt>
      <trkpt lat="40.189850000" lon="-8.432870000">
        <ele>110.400000</ele>
        <time>2020-10-17T07:40:01Z</time>
      </trkpt>
      <trkpt lat="40.189817000" lon="-8.432872000">
        <ele>110.800000</ele>
        <time>2020-10-17T07:40:02Z</time>
      </trkpt>
      <trkpt lat="40.189785000" lon="-8.432873000">
        <ele>110.800000</ele>
        <time>2020-10-17T07:40:03Z</time>
      </trkpt>
      <trkpt lat="40.189756000" lon="-8.432868000">
        <ele>111.200000</ele>
        <time>2020-10-17T07:40:04Z</time>
      </trkpt>
      <trkpt lat="40.189724000" lon="-8.432874000">
        <ele>111.400000</ele>
        <time>2020-10-17T07:40:05Z</time>
      </trkpt>
      <trkpt lat="40.189691000" lon="-8.432888000">
        <ele>111.400000</ele>
        <time>2020-10-17T07:40:06Z</time>
      </trkpt>
      <trkpt lat="40.189658000" lon="-8.432903000">
        <ele>111.800000</ele>
        <time>2020-10-17T07:40:07Z</time>
      </trkpt>
      <trkpt lat="40.189626000" lon="-8.432922000">
        <ele>112.200000</ele>
        <time>2020-10-17T07:40:08Z</time>
      </trkpt>
      <trkpt lat="40.189593000" lon="-8.432943000">
        <ele>112.400000</ele>
        <time>2020-10-17T07:40:09Z</time>
      </trkpt>
      <trkpt lat="40.189561000" lon="-8.432966000">
        <ele>112.600000</ele>
        <time>2020-10-17T07:40:10Z</time>
      </trkpt>
      <trkpt lat="40.189530000" lon="-8.432991000">
        <ele>113.000000</ele>
        <time>2020-10-17T07:40:11Z</time>
      </trkpt>
      <trkpt lat="40.189501000" lon="-8.433019000">
        <ele>113.000000</ele>
        <time>2020-10-17T07:40:12Z</time>
      </trkpt>
      <trkpt lat="40.189475000" lon="-8.433050000">
        <ele>113.200000</ele>
        <time>2020-10-17T07:40:13Z</time>
      </trkpt>
      <trkpt lat="40.189450000" lon="-8.433083000">
        <ele>113.400000</ele>
        <time>2020-10-17T07:40:14Z</time>
      </trkpt>
      <trkpt lat="40.189426000" lon="-8.433115000">
        <ele>113.600000</ele>
        <time>2020-10-17T07:40:15Z</time>
      </trkpt>
      <trkpt lat="40.189403000" lon="-8.433147000">
        <ele>113.800000</ele>
        <time>2020-10-17T07:40:16Z</time>
      </trkpt>
      <trkpt lat="40.189380000" lon="-8.433179000">
        <ele>114.000000</ele>
        <time>2020-10-17T07:40:17Z</time>
      </trkpt>
      <trkpt lat="40.189361000" lon="-8.433211000">
        <ele>114.200000</ele>
        <time>2020-10-17T07:40:18Z</time>
      </trkpt>
      <trkpt lat="40.189345000" lon="-8.433246000">
        <ele>114.400000</ele>
        <time>2020-10-17T07:40:19Z</time>
      </trkpt>
      <trkpt lat="40.189332000" lon="-8.433279000">
        <ele>114.800000</ele>
        <time>2020-10-17T07:40:20Z</time>
      </trkpt>
      <trkpt lat="40.189319000" lon="-8.433312000">
        <ele>115.000000</ele>
        <time>2020-10-17T07:40:21Z</time>
      </trkpt>
      <trkpt lat="40.189306000" lon="-8.433345000">
        <ele>115.200000</ele>
        <time>2020-10-17T07:40:22Z</time>
      </trkpt>
      <trkpt lat="40.189293000" lon="-8.433380000">
        <ele>115.400000</ele>
        <time>2020-10-17T07:40:23Z</time>
      </trkpt>
      <trkpt lat="40.189280000" lon="-8.433417000">
        <ele>115.600000</ele>
        <time>2020-10-17T07:40:24Z</time>
      </trkpt>
      <trkpt lat="40.189267000" lon="-8.433454000">
        <ele>115.800000</ele>
        <time>2020-10-17T07:40:25Z</time>
      </trkpt>
      <trkpt lat="40.189255000" lon="-8.433489000">
        <ele>116.000000</ele>
        <time>2020-10-17T07:40:26Z</time>
      </trkpt>
      <trkpt lat="40.189244000" lon="-8.433525000">
        <ele>116.000000</ele>
        <time>2020-10-17T07:40:27Z</time>
      </trkpt>
      <trkpt lat="40.189233000" lon="-8.433562000">
        <ele>116.400000</ele>
        <time>2020-10-17T07:40:28Z</time>
      </trkpt>
      <trkpt lat="40.189223000" lon="-8.433598000">
        <ele>116.600000</ele>
        <time>2020-10-17T07:40:29Z</time>
      </trkpt>
      <trkpt lat="40.189212000" lon="-8.433635000">
        <ele>116.800000</ele>
        <time>2020-10-17T07:40:30Z</time>
      </trkpt>
      <trkpt lat="40.189203000" lon="-8.433673000">
        <ele>116.800000</ele>
        <time>2020-10-17T07:40:31Z</time>
      </trkpt>
      <trkpt lat="40.189191000" lon="-8.433711000">
        <ele>116.800000</ele>
        <time>2020-10-17T07:40:32Z</time>
      </trkpt>
      <trkpt lat="40.189180000" lon="-8.433748000">
        <ele>117.000000</ele>
        <time>2020-10-17T07:40:33Z</time>
      </trkpt>
      <trkpt lat="40.189171000" lon="-8.433786000">
        <ele>117.400000</ele>
        <time>2020-10-17T07:40:34Z</time>
      </trkpt>
      <trkpt lat="40.189161000" lon="-8.433825000">
        <ele>117.600000</ele>
        <time>2020-10-17T07:40:35Z</time>
      </trkpt>
      <trkpt lat="40.189150000" lon="-8.433864000">
        <ele>118.000000</ele>
        <time>2020-10-17T07:40:36Z</time>
      </trkpt>
      <trkpt lat="40.189139000" lon="-8.433904000">
        <ele>118.200000</ele>
        <time>2020-10-17T07:40:37Z</time>
      </trkpt>
      <trkpt lat="40.189127000" lon="-8.433943000">
        <ele>118.400000</ele>
        <time>2020-10-17T07:40:38Z</time>
      </trkpt>
      <trkpt lat="40.189117000" lon="-8.433984000">
        <ele>118.400000</ele>
        <time>2020-10-17T07:40:39Z</time>
      </trkpt>
      <trkpt lat="40.189107000" lon="-8.434026000">
        <ele>118.600000</ele>
        <time>2020-10-17T07:40:40Z</time>
      </trkpt>
      <trkpt lat="40.189096000" lon="-8.434065000">
        <ele>118.800000</ele>
        <time>2020-10-17T07:40:41Z</time>
      </trkpt>
      <trkpt lat="40.189083000" lon="-8.434100000">
        <ele>119.200000</ele>
        <time>2020-10-17T07:40:42Z</time>
      </trkpt>
      <trkpt lat="40.189067000" lon="-8.434136000">
        <ele>119.400000</ele>
        <time>2020-10-17T07:40:43Z</time>
      </trkpt>
      <trkpt lat="40.189052000" lon="-8.434173000">
        <ele>119.800000</ele>
        <time>2020-10-17T07:40:44Z</time>
      </trkpt>
      <trkpt lat="40.189038000" lon="-8.434211000">
        <ele>120.000000</ele>
        <time>2020-10-17T07:40:45Z</time>
      </trkpt>
      <trkpt lat="40.189025000" lon="-8.434248000">
        <ele>120.200000</ele>
        <time>2020-10-17T07:40:46Z</time>
      </trkpt>
      <trkpt lat="40.189011000" lon="-8.434286000">
        <ele>120.400000</ele>
        <time>2020-10-17T07:40:47Z</time>
      </trkpt>
      <trkpt lat="40.188996000" lon="-8.434324000">
        <ele>120.400000</ele>
        <time>2020-10-17T07:40:48Z</time>
      </trkpt>
      <trkpt lat="40.188979000" lon="-8.434360000">
        <ele>120.800000</ele>
        <time>2020-10-17T07:40:49Z</time>
      </trkpt>
      <trkpt lat="40.188964000" lon="-8.434393000">
        <ele>121.000000</ele>
        <time>2020-10-17T07:40:50Z</time>
      </trkpt>
      <trkpt lat="40.188950000" lon="-8.434426000">
        <ele>121.200000</ele>
        <time>2020-10-17T07:40:51Z</time>
      </trkpt>
      <trkpt lat="40.188938000" lon="-8.434460000">
        <ele>121.200000</ele>
        <time>2020-10-17T07:40:52Z</time>
      </trkpt>
      <trkpt lat="40.188926000" lon="-8.434492000">
        <ele>121.400000</ele>
        <time>2020-10-17T07:40:53Z</time>
      </trkpt>
      <trkpt lat="40.188911000" lon="-8.434525000">
        <ele>121.600000</ele>
        <time>2020-10-17T07:40:54Z</time>
      </trkpt>
      <trkpt lat="40.188897000" lon="-8.434558000">
        <ele>121.800000</ele>
        <time>2020-10-17T07:40:55Z</time>
      </trkpt>
      <trkpt lat="40.188883000" lon="-8.434592000">
        <ele>122.000000</ele>
        <time>2020-10-17T07:40:56Z</time>
      </trkpt>
      <trkpt lat="40.188868000" lon="-8.434624000">
        <ele>122.200000</ele>
        <time>2020-10-17T07:40:57Z</time>
      </trkpt>
      <trkpt lat="40.188850000" lon="-8.434655000">
        <ele>122.400000</ele>
        <time>2020-10-17T07:40:58Z</time>
      </trkpt>
      <trkpt lat="40.188830000" lon="-8.434685000">
        <ele>122.400000</ele>
        <time>2020-10-17T07:40:59Z</time>
      </trkpt>
      <trkpt lat="40.188807000" lon="-8.434715000">
        <ele>122.800000</ele>
        <time>2020-10-17T07:41:00Z</time>
      </trkpt>
      <trkpt lat="40.188787000" lon="-8.434745000">
        <ele>123.000000</ele>
        <time>2020-10-17T07:41:01Z</time>
      </trkpt>
      <trkpt lat="40.188767000" lon="-8.434772000">
        <ele>123.200000</ele>
        <time>2020-10-17T07:41:02Z</time>
      </trkpt>
      <trkpt lat="40.188746000" lon="-8.434799000">
        <ele>123.600000</ele>
        <time>2020-10-17T07:41:03Z</time>
      </trkpt>
      <trkpt lat="40.188726000" lon="-8.434830000">
        <ele>123.600000</ele>
        <time>2020-10-17T07:41:04Z</time>
      </trkpt>
      <trkpt lat="40.188705000" lon="-8.434859000">
        <ele>123.800000</ele>
        <time>2020-10-17T07:41:05Z</time>
      </trkpt>
      <trkpt lat="40.188682000" lon="-8.434888000">
        <ele>124.000000</ele>
        <time>2020-10-17T07:41:06Z</time>
      </trkpt>
      <trkpt lat="40.188660000" lon="-8.434916000">
        <ele>124.400000</ele>
        <time>2020-10-17T07:41:07Z</time>
      </trkpt>
      <trkpt lat="40.188638000" lon="-8.434947000">
        <ele>124.800000</ele>
        <time>2020-10-17T07:41:08Z</time>
      </trkpt>
      <trkpt lat="40.188615000" lon="-8.434977000">
        <ele>124.800000</ele>
        <time>2020-10-17T07:41:09Z</time>
      </trkpt>
      <trkpt lat="40.188592000" lon="-8.435006000">
        <ele>125.000000</ele>
        <time>2020-10-17T07:41:10Z</time>
      </trkpt>
      <trkpt lat="40.188569000" lon="-8.435032000">
        <ele>125.200000</ele>
        <time>2020-10-17T07:41:11Z</time>
      </trkpt>
      <trkpt lat="40.188545000" lon="-8.435059000">
        <ele>125.200000</ele>
        <time>2020-10-17T07:41:12Z</time>
      </trkpt>
      <trkpt lat="40.188522000" lon="-8.435088000">
        <ele>125.400000</ele>
        <time>2020-10-17T07:41:13Z</time>
      </trkpt>
      <trkpt lat="40.188497000" lon="-8.435117000">
        <ele>125.400000</ele>
        <time>2020-10-17T07:41:14Z</time>
      </trkpt>
      <trkpt lat="40.188471000" lon="-8.435149000">
        <ele>125.800000</ele>
        <time>2020-10-17T07:41:15Z</time>
      </trkpt>
      <trkpt lat="40.188445000" lon="-8.435179000">
        <ele>126.000000</ele>
        <time>2020-10-17T07:41:16Z</time>
      </trkpt>
      <trkpt lat="40.188419000" lon="-8.435208000">
        <ele>126.200000</ele>
        <time>2020-10-17T07:41:17Z</time>
      </trkpt>
      <trkpt lat="40.188394000" lon="-8.435241000">
        <ele>126.400000</ele>
        <time>2020-10-17T07:41:18Z</time>
      </trkpt>
      <trkpt lat="40.188370000" lon="-8.435272000">
        <ele>126.600000</ele>
        <time>2020-10-17T07:41:19Z</time>
      </trkpt>
      <trkpt lat="40.188345000" lon="-8.435301000">
        <ele>126.800000</ele>
        <time>2020-10-17T07:41:20Z</time>
      </trkpt>
      <trkpt lat="40.188321000" lon="-8.435330000">
        <ele>127.000000</ele>
        <time>2020-10-17T07:41:21Z</time>
      </trkpt>
      <trkpt lat="40.188297000" lon="-8.435360000">
        <ele>127.000000</ele>
        <time>2020-10-17T07:41:22Z</time>
      </trkpt>
      <trkpt lat="40.188272000" lon="-8.435392000">
        <ele>127.200000</ele>
        <time>2020-10-17T07:41:23Z</time>
      </trkpt>
      <trkpt lat="40.188244000" lon="-8.435425000">
        <ele>127.400000</ele>
        <time>2020-10-17T07:41:24Z</time>
      </trkpt>
      <trkpt lat="40.188216000" lon="-8.435458000">
        <ele>127.600000</ele>
        <time>2020-10-17T07:41:25Z</time>
      </trkpt>
      <trkpt lat="40.188187000" lon="-8.435488000">
        <ele>128.000000</ele>
        <time>2020-10-17T07:41:26Z</time>
      </trkpt>
      <trkpt lat="40.188160000" lon="-8.435518000">
        <ele>128.200000</ele>
        <time>2020-10-17T07:41:27Z</time>
      </trkpt>
      <trkpt lat="40.188134000" lon="-8.435547000">
        <ele>128.200000</ele>
        <time>2020-10-17T07:41:28Z</time>
      </trkpt>
      <trkpt lat="40.188110000" lon="-8.435578000">
        <ele>128.600000</ele>
        <time>2020-10-17T07:41:29Z</time>
      </trkpt>
      <trkpt lat="40.188086000" lon="-8.435609000">
        <ele>128.800000</ele>
        <time>2020-10-17T07:41:30Z</time>
      </trkpt>
      <trkpt lat="40.188057000" lon="-8.435641000">
        <ele>129.000000</ele>
        <time>2020-10-17T07:41:31Z</time>
      </trkpt>
      <trkpt lat="40.188027000" lon="-8.435669000">
        <ele>129.200000</ele>
        <time>2020-10-17T07:41:32Z</time>
      </trkpt>
      <trkpt lat="40.187998000" lon="-8.435698000">
        <ele>129.200000</ele>
        <time>2020-10-17T07:41:33Z</time>
      </trkpt>
      <trkpt lat="40.187970000" lon="-8.435727000">
        <ele>129.400000</ele>
        <time>2020-10-17T07:41:34Z</time>
      </trkpt>
      <trkpt lat="40.187942000" lon="-8.435755000">
        <ele>129.800000</ele>
        <time>2020-10-17T07:41:35Z</time>
      </trkpt>
      <trkpt lat="40.187913000" lon="-8.435783000">
        <ele>130.000000</ele>
        <time>2020-10-17T07:41:36Z</time>
      </trkpt>
      <trkpt lat="40.187884000" lon="-8.435811000">
        <ele>130.000000</ele>
        <time>2020-10-17T07:41:37Z</time>
      </trkpt>
      <trkpt lat="40.187856000" lon="-8.435840000">
        <ele>130.000000</ele>
        <time>2020-10-17T07:41:38Z</time>
      </trkpt>
      <trkpt lat="40.187826000" lon="-8.435869000">
        <ele>130.400000</ele>
        <time>2020-10-17T07:41:39Z</time>
      </trkpt>
      <trkpt lat="40.187797000" lon="-8.435896000">
        <ele>130.600000</ele>
        <time>2020-10-17T07:41:40Z</time>
      </trkpt>
      <trkpt lat="40.187768000" lon="-8.435921000">
        <ele>130.800000</ele>
        <time>2020-10-17T07:41:41Z</time>
      </trkpt>
      <trkpt lat="40.187737000" lon="-8.435946000">
        <ele>131.200000</ele>
        <time>2020-10-17T07:41:42Z</time>
      </trkpt>
      <trkpt lat="40.187705000" lon="-8.435970000">
        <ele>131.400000</ele>
        <time>2020-10-17T07:41:43Z</time>
      </trkpt>
      <trkpt lat="40.187671000" lon="-8.435990000">
        <ele>131.400000</ele>
        <time>2020-10-17T07:41:44Z</time>
      </trkpt>
      <trkpt lat="40.187635000" lon="-8.436008000">
        <ele>131.800000</ele>
        <time>2020-10-17T07:41:45Z</time>
      </trkpt>
      <trkpt lat="40.187599000" lon="-8.436023000">
        <ele>132.000000</ele>
        <time>2020-10-17T07:41:46Z</time>
      </trkpt>
      <trkpt lat="40.187563000" lon="-8.436038000">
        <ele>132.200000</ele>
        <time>2020-10-17T07:41:47Z</time>
      </trkpt>
      <trkpt lat="40.187529000" lon="-8.436049000">
        <ele>132.400000</ele>
        <time>2020-10-17T07:41:48Z</time>
      </trkpt>
      <trkpt lat="40.187497000" lon="-8.436059000">
        <ele>132.800000</ele>
        <time>2020-10-17T07:41:49Z</time>
      </trkpt>
      <trkpt lat="40.187462000" lon="-8.436069000">
        <ele>133.000000</ele>
        <time>2020-10-17T07:41:50Z</time>
      </trkpt>
      <trkpt lat="40.187428000" lon="-8.436073000">
        <ele>133.200000</ele>
        <time>2020-10-17T07:41:51Z</time>
      </trkpt>
      <trkpt lat="40.187395000" lon="-8.436077000">
        <ele>133.400000</ele>
        <time>2020-10-17T07:41:52Z</time>
      </trkpt>
      <trkpt lat="40.187361000" lon="-8.436081000">
        <ele>133.400000</ele>
        <time>2020-10-17T07:41:53Z</time>
      </trkpt>
      <trkpt lat="40.187328000" lon="-8.436080000">
        <ele>133.400000</ele>
        <time>2020-10-17T07:41:54Z</time>
      </trkpt>
      <trkpt lat="40.187294000" lon="-8.436079000">
        <ele>134.000000</ele>
        <time>2020-10-17T07:41:55Z</time>
      </trkpt>
      <trkpt lat="40.187259000" lon="-8.436080000">
        <ele>134.200000</ele>
        <time>2020-10-17T07:41:56Z</time>
      </trkpt>
      <trkpt lat="40.187223000" lon="-8.436077000">
        <ele>134.400000</ele>
        <time>2020-10-17T07:41:57Z</time>
      </trkpt>
      <trkpt lat="40.187188000" lon="-8.436073000">
        <ele>134.600000</ele>
        <time>2020-10-17T07:41:58Z</time>
      </trkpt>
      <trkpt lat="40.187155000" lon="-8.436070000">
        <ele>134.800000</ele>
        <time>2020-10-17T07:41:59Z</time>
      </trkpt>
      <trkpt lat="40.187121000" lon="-8.436064000">
        <ele>135.000000</ele>
        <time>2020-10-17T07:42:00Z</time>
      </trkpt>
      <trkpt lat="40.187088000" lon="-8.436060000">
        <ele>135.200000</ele>
        <time>2020-10-17T07:42:01Z</time>
      </trkpt>
      <trkpt lat="40.187054000" lon="-8.436055000">
        <ele>135.400000</ele>
        <time>2020-10-17T07:42:02Z</time>
      </trkpt>
      <trkpt lat="40.187024000" lon="-8.436045000">
        <ele>135.600000</ele>
        <time>2020-10-17T07:42:03Z</time>
      </trkpt>
      <trkpt lat="40.186995000" lon="-8.436033000">
        <ele>135.800000</ele>
        <time>2020-10-17T07:42:04Z</time>
      </trkpt>
      <trkpt lat="40.186965000" lon="-8.436021000">
        <ele>136.000000</ele>
        <time>2020-10-17T07:42:05Z</time>
      </trkpt>
      <trkpt lat="40.186934000" lon="-8.436008000">
        <ele>136.200000</ele>
        <time>2020-10-17T07:42:06Z</time>
      </trkpt>
      <trkpt lat="40.186905000" lon="-8.435992000">
        <ele>136.200000</ele>
        <time>2020-10-17T07:42:07Z</time>
      </trkpt>
      <trkpt lat="40.186876000" lon="-8.435978000">
        <ele>136.400000</ele>
        <time>2020-10-17T07:42:08Z</time>
      </trkpt>
      <trkpt lat="40.186845000" lon="-8.435960000">
        <ele>136.600000</ele>
        <time>2020-10-17T07:42:09Z</time>
      </trkpt>
      <trkpt lat="40.186812000" lon="-8.435939000">
        <ele>136.800000</ele>
        <time>2020-10-17T07:42:10Z</time>
      </trkpt>
      <trkpt lat="40.186782000" lon="-8.435919000">
        <ele>137.000000</ele>
        <time>2020-10-17T07:42:11Z</time>
      </trkpt>
      <trkpt lat="40.186751000" lon="-8.435896000">
        <ele>137.400000</ele>
        <time>2020-10-17T07:42:12Z</time>
      </trkpt>
      <trkpt lat="40.186720000" lon="-8.435871000">
        <ele>137.400000</ele>
        <time>2020-10-17T07:42:13Z</time>
      </trkpt>
      <trkpt lat="40.186688000" lon="-8.435847000">
        <ele>137.400000</ele>
        <time>2020-10-17T07:42:14Z</time>
      </trkpt>
      <trkpt lat="40.186656000" lon="-8.435823000">
        <ele>137.600000</ele>
        <time>2020-10-17T07:42:15Z</time>
      </trkpt>
      <trkpt lat="40.186625000" lon="-8.435798000">
        <ele>138.000000</ele>
        <time>2020-10-17T07:42:16Z</time>
      </trkpt>
      <trkpt lat="40.186594000" lon="-8.435773000">
        <ele>138.000000</ele>
        <time>2020-10-17T07:42:17Z</time>
      </trkpt>
      <trkpt lat="40.186563000" lon="-8.435750000">
        <ele>138.200000</ele>
        <time>2020-10-17T07:42:18Z</time>
      </trkpt>
      <trkpt lat="40.186532000" lon="-8.435729000">
        <ele>138.400000</ele>
        <time>2020-10-17T07:42:19Z</time>
      </trkpt>
      <trkpt lat="40.186500000" lon="-8.435708000">
        <ele>138.600000</ele>
        <time>2020-10-17T07:42:20Z</time>
      </trkpt>
      <trkpt lat="40.186468000" lon="-8.435686000">
        <ele>138.600000</ele>
        <time>2020-10-17T07:42:21Z</time>
      </trkpt>
      <trkpt lat="40.186434000" lon="-8.435665000">
        <ele>138.800000</ele>
        <time>2020-10-17T07:42:22Z</time>
      </trkpt>
      <trkpt lat="40.186401000" lon="-8.435647000">
        <ele>139.200000</ele>
        <time>2020-10-17T07:42:23Z</time>
      </trkpt>
      <trkpt lat="40.186368000" lon="-8.435628000">
        <ele>139.200000</ele>
        <time>2020-10-17T07:42:24Z</time>
      </trkpt>
      <trkpt lat="40.186332000" lon="-8.435611000">
        <ele>139.600000</ele>
        <time>2020-10-17T07:42:25Z</time>
      </trkpt>
      <trkpt lat="40.186295000" lon="-8.435594000">
        <ele>139.800000</ele>
        <time>2020-10-17T07:42:26Z</time>
      </trkpt>
      <trkpt lat="40.186258000" lon="-8.435582000">
        <ele>140.000000</ele>
        <time>2020-10-17T07:42:27Z</time>
      </trkpt>
      <trkpt lat="40.186219000" lon="-8.435572000">
        <ele>140.200000</ele>
        <time>2020-10-17T07:42:28Z</time>
      </trkpt>
      <trkpt lat="40.186180000" lon="-8.435564000">
        <ele>140.400000</ele>
        <time>2020-10-17T07:42:29Z</time>
      </trkpt>
      <trkpt lat="40.186143000" lon="-8.435557000">
        <ele>140.400000</ele>
        <time>2020-10-17T07:42:30Z</time>
      </trkpt>
      <trkpt lat="40.186107000" lon="-8.435550000">
        <ele>140.800000</ele>
        <time>2020-10-17T07:42:31Z</time>
      </trkpt>
      <trkpt lat="40.186071000" lon="-8.435545000">
        <ele>141.000000</ele>
        <time>2020-10-17T07:42:32Z</time>
      </trkpt>
      <trkpt lat="40.186032000" lon="-8.435544000">
        <ele>141.000000</ele>
        <time>2020-10-17T07:42:33Z</time>
      </trkpt>
      <trkpt lat="40.185991000" lon="-8.435547000">
        <ele>141.400000</ele>
        <time>2020-10-17T07:42:34Z</time>
      </trkpt>
      <trkpt lat="40.185947000" lon="-8.435551000">
        <ele>141.400000</ele>
        <time>2020-10-17T07:42:35Z</time>
      </trkpt>
      <trkpt lat="40.185905000" lon="-8.435557000">
        <ele>141.600000</ele>
        <time>2020-10-17T07:42:36Z</time>
      </trkpt>
      <trkpt lat="40.185860000" lon="-8.435567000">
        <ele>141.600000</ele>
        <time>2020-10-17T07:42:37Z</time>
      </trkpt>
      <trkpt lat="40.185817000" lon="-8.435581000">
        <ele>142.200000</ele>
        <time>2020-10-17T07:42:38Z</time>
      </trkpt>
      <trkpt lat="40.185778000" lon="-8.435600000">
        <ele>142.200000</ele>
        <time>2020-10-17T07:42:39Z</time>
      </trkpt>
      <trkpt lat="40.185742000" lon="-8.435623000">
        <ele>142.600000</ele>
        <time>2020-10-17T07:42:40Z</time>
      </trkpt>
      <trkpt lat="40.185708000" lon="-8.435648000">
        <ele>142.600000</ele>
        <time>2020-10-17T07:42:41Z</time>
      </trkpt>
      <trkpt lat="40.185674000" lon="-8.435673000">
        <ele>143.000000</ele>
        <time>2020-10-17T07:42:42Z</time>
      </trkpt>
      <trkpt lat="40.185641000" lon="-8.435699000">
        <ele>143.200000</ele>
        <time>2020-10-17T07:42:43Z</time>
      </trkpt>
      <trkpt lat="40.185606000" lon="-8.435728000">
        <ele>143.400000</ele>
        <time>2020-10-17T07:42:44Z</time>
      </trkpt>
      <trkpt lat="40.185572000" lon="-8.435754000">
        <ele>143.400000</ele>
        <time>2020-10-17T07:42:45Z</time>
      </trkpt>
      <trkpt lat="40.185540000" lon="-8.435783000">
        <ele>143.800000</ele>
        <time>2020-10-17T07:42:46Z</time>
      </trkpt>
      <trkpt lat="40.185509000" lon="-8.435813000">
        <ele>144.000000</ele>
        <time>2020-10-17T07:42:47Z</time>
      </trkpt>
      <trkpt lat="40.185480000" lon="-8.435845000">
        <ele>144.200000</ele>
        <time>2020-10-17T07:42:48Z</time>
      </trkpt>
      <trkpt lat="40.185453000" lon="-8.435879000">
        <ele>144.600000</ele>
        <time>2020-10-17T07:42:49Z</time>
      </trkpt>
      <trkpt lat="40.185426000" lon="-8.435916000">
        <ele>144.800000</ele>
        <time>2020-10-17T07:42:50Z</time>
      </trkpt>
      <trkpt lat="40.185401000" lon="-8.435955000">
        <ele>145.000000</ele>
        <time>2020-10-17T07:42:51Z</time>
      </trkpt>
      <trkpt lat="40.185377000" lon="-8.435996000">
        <ele>145.400000</ele>
        <time>2020-10-17T07:42:52Z</time>
      </trkpt>
      <trkpt lat="40.185355000" lon="-8.436037000">
        <ele>145.800000</ele>
        <time>2020-10-17T07:42:53Z</time>
      </trkpt>
      <trkpt lat="40.185336000" lon="-8.436080000">
        <ele>146.000000</ele>
        <time>2020-10-17T07:42:54Z</time>
      </trkpt>
      <trkpt lat="40.185319000" lon="-8.436125000">
        <ele>146.000000</ele>
        <time>2020-10-17T07:42:55Z</time>
      </trkpt>
      <trkpt lat="40.185303000" lon="-8.436171000">
        <ele>146.200000</ele>
        <time>2020-10-17T07:42:56Z</time>
      </trkpt>
      <trkpt lat="40.185286000" lon="-8.436216000">
        <ele>146.400000</ele>
        <time>2020-10-17T07:42:57Z</time>
      </trkpt>
      <trkpt lat="40.185272000" lon="-8.436264000">
        <ele>146.400000</ele>
        <time>2020-10-17T07:42:58Z</time>
      </trkpt>
      <trkpt lat="40.185260000" lon="-8.436316000">
        <ele>146.800000</ele>
        <time>2020-10-17T07:42:59Z</time>
      </trkpt>
      <trkpt lat="40.185249000" lon="-8.436370000">
        <ele>147.000000</ele>
        <time>2020-10-17T07:43:00Z</time>
      </trkpt>
      <trkpt lat="40.185239000" lon="-8.436424000">
        <ele>147.200000</ele>
        <time>2020-10-17T07:43:01Z</time>
      </trkpt>
      <trkpt lat="40.185230000" lon="-8.436478000">
        <ele>147.400000</ele>
        <time>2020-10-17T07:43:02Z</time>
      </trkpt>
      <trkpt lat="40.185224000" lon="-8.436533000">
        <ele>147.600000</ele>
        <time>2020-10-17T07:43:03Z</time>
      </trkpt>
      <trkpt lat="40.185221000" lon="-8.436591000">
        <ele>147.800000</ele>
        <time>2020-10-17T07:43:04Z</time>
      </trkpt>
      <trkpt lat="40.185221000" lon="-8.436645000">
        <ele>148.000000</ele>
        <time>2020-10-17T07:43:05Z</time>
      </trkpt>
      <trkpt lat="40.185223000" lon="-8.436698000">
        <ele>148.200000</ele>
        <time>2020-10-17T07:43:06Z</time>
      </trkpt>
      <trkpt lat="40.185227000" lon="-8.436752000">
        <ele>148.600000</ele>
        <time>2020-10-17T07:43:07Z</time>
      </trkpt>
      <trkpt lat="40.185234000" lon="-8.436808000">
        <ele>148.800000</ele>
        <time>2020-10-17T07:43:08Z</time>
      </trkpt>
      <trkpt lat="40.185241000" lon="-8.436860000">
        <ele>149.200000</ele>
        <time>2020-10-17T07:43:09Z</time>
      </trkpt>
      <trkpt lat="40.185247000" lon="-8.436914000">
        <ele>149.200000</ele>
        <time>2020-10-17T07:43:10Z</time>
      </trkpt>
      <trkpt lat="40.185257000" lon="-8.436969000">
        <ele>149.800000</ele>
        <time>2020-10-17T07:43:11Z</time>
      </trkpt>
      <trkpt lat="40.185268000" lon="-8.437025000">
        <ele>150.200000</ele>
        <time>2020-10-17T07:43:12Z</time>
      </trkpt>
      <trkpt lat="40.185283000" lon="-8.437085000">
        <ele>150.400000</ele>
        <time>2020-10-17T07:43:13Z</time>
      </trkpt>
      <trkpt lat="40.185299000" lon="-8.437146000">
        <ele>150.600000</ele>
        <time>2020-10-17T07:43:14Z</time>
      </trkpt>
      <trkpt lat="40.185315000" lon="-8.437207000">
        <ele>151.000000</ele>
        <time>2020-10-17T07:43:15Z</time>
      </trkpt>
      <trkpt lat="40.185332000" lon="-8.437265000">
        <ele>151.000000</ele>
        <time>2020-10-17T07:43:16Z</time>
      </trkpt>
      <trkpt lat="40.185348000" lon="-8.437319000">
        <ele>151.200000</ele>
        <time>2020-10-17T07:43:17Z</time>
      </trkpt>
      <trkpt lat="40.185364000" lon="-8.437371000">
        <ele>151.600000</ele>
        <time>2020-10-17T07:43:18Z</time>
      </trkpt>
      <trkpt lat="40.185379000" lon="-8.437421000">
        <ele>151.800000</ele>
        <time>2020-10-17T07:43:19Z</time>
      </trkpt>
      <trkpt lat="40.185395000" lon="-8.437472000">
        <ele>152.000000</ele>
        <time>2020-10-17T07:43:20Z</time>
      </trkpt>
      <trkpt lat="40.185410000" lon="-8.437521000">
        <ele>152.400000</ele>
        <time>2020-10-17T07:43:21Z</time>
      </trkpt>
      <trkpt lat="40.185425000" lon="-8.437569000">
        <ele>152.600000</ele>
        <time>2020-10-17T07:43:22Z</time>
      </trkpt>
      <trkpt lat="40.185440000" lon="-8.437620000">
        <ele>153.000000</ele>
        <time>2020-10-17T07:43:23Z</time>
      </trkpt>
      <trkpt lat="40.185456000" lon="-8.437669000">
        <ele>153.400000</ele>
        <time>2020-10-17T07:43:24Z</time>
      </trkpt>
      <trkpt lat="40.185471000" lon="-8.437716000">
        <ele>153.600000</ele>
        <time>2020-10-17T07:43:25Z</time>
      </trkpt>
      <trkpt lat="40.185487000" lon="-8.437762000">
        <ele>154.000000</ele>
        <time>2020-10-17T07:43:26Z</time>
      </trkpt>
      <trkpt lat="40.185504000" lon="-8.437808000">
        <ele>154.000000</ele>
        <time>2020-10-17T07:43:27Z</time>
      </trkpt>
      <trkpt lat="40.185521000" lon="-8.437853000">
        <ele>154.400000</ele>
        <time>2020-10-17T07:43:28Z</time>
      </trkpt>
      <trkpt lat="40.185537000" lon="-8.437896000">
        <ele>154.600000</ele>
        <time>2020-10-17T07:43:29Z</time>
      </trkpt>
      <trkpt lat="40.185553000" lon="-8.437939000">
        <ele>154.800000</ele>
        <time>2020-10-17T07:43:30Z</time>
      </trkpt>
      <trkpt lat="40.185569000" lon="-8.437980000">
        <ele>155.200000</ele>
        <time>2020-10-17T07:43:31Z</time>
      </trkpt>
      <trkpt lat="40.185584000" lon="-8.438021000">
        <ele>155.200000</ele>
        <time>2020-10-17T07:43:32Z</time>
      </trkpt>
      <trkpt lat="40.185599000" lon="-8.438061000">
        <ele>155.600000</ele>
        <time>2020-10-17T07:43:33Z</time>
      </trkpt>
      <trkpt lat="40.185614000" lon="-8.438103000">
        <ele>155.600000</ele>
        <time>2020-10-17T07:43:34Z</time>
      </trkpt>
      <trkpt lat="40.185630000" lon="-8.438145000">
        <ele>155.800000</ele>
        <time>2020-10-17T07:43:35Z</time>
      </trkpt>
      <trkpt lat="40.185646000" lon="-8.438185000">
        <ele>156.000000</ele>
        <time>2020-10-17T07:43:36Z</time>
      </trkpt>
      <trkpt lat="40.185663000" lon="-8.438224000">
        <ele>156.000000</ele>
        <time>2020-10-17T07:43:37Z</time>
      </trkpt>
      <trkpt lat="40.185682000" lon="-8.438263000">
        <ele>156.200000</ele>
        <time>2020-10-17T07:43:38Z</time>
      </trkpt>
      <trkpt lat="40.185700000" lon="-8.438303000">
        <ele>156.400000</ele>
        <time>2020-10-17T07:43:39Z</time>
      </trkpt>
      <trkpt lat="40.185720000" lon="-8.438346000">
        <ele>156.600000</ele>
        <time>2020-10-17T07:43:40Z</time>
      </trkpt>
      <trkpt lat="40.185738000" lon="-8.438388000">
        <ele>157.000000</ele>
        <time>2020-10-17T07:43:41Z</time>
      </trkpt>
      <trkpt lat="40.185756000" lon="-8.438429000">
        <ele>157.200000</ele>
        <time>2020-10-17T07:43:42Z</time>
      </trkpt>
      <trkpt lat="40.185776000" lon="-8.438469000">
        <ele>157.400000</ele>
        <time>2020-10-17T07:43:43Z</time>
      </trkpt>
      <trkpt lat="40.185794000" lon="-8.438510000">
        <ele>157.600000</ele>
        <time>2020-10-17T07:43:44Z</time>
      </trkpt>
      <trkpt lat="40.185811000" lon="-8.438552000">
        <ele>157.600000</ele>
        <time>2020-10-17T07:43:45Z</time>
      </trkpt>
      <trkpt lat="40.185826000" lon="-8.438592000">
        <ele>158.000000</ele>
        <time>2020-10-17T07:43:46Z</time>
      </trkpt>
      <trkpt lat="40.185845000" lon="-8.438632000">
        <ele>158.000000</ele>
        <time>2020-10-17T07:43:47Z</time>
      </trkpt>
      <trkpt lat="40.185864000" lon="-8.438671000">
        <ele>158.400000</ele>
        <time>2020-10-17T07:43:48Z</time>
      </trkpt>
      <trkpt lat="40.185884000" lon="-8.438710000">
        <ele>158.600000</ele>
        <time>2020-10-17T07:43:49Z</time>
      </trkpt>
      <trkpt lat="40.185904000" lon="-8.438746000">
        <ele>158.800000</ele>
        <time>2020-10-17T07:43:50Z</time>
      </trkpt>
      <trkpt lat="40.185925000" lon="-8.438782000">
        <ele>159.000000</ele>
        <time>2020-10-17T07:43:51Z</time>
      </trkpt>
      <trkpt lat="40.185945000" lon="-8.438818000">
        <ele>159.200000</ele>
        <time>2020-10-17T07:43:52Z</time>
      </trkpt>
      <trkpt lat="40.185965000" lon="-8.438855000">
        <ele>159.200000</ele>
        <time>2020-10-17T07:43:53Z</time>
      </trkpt>
      <trkpt lat="40.185982000" lon="-8.438893000">
        <ele>159.400000</ele>
        <time>2020-10-17T07:43:54Z</time>
      </trkpt>
      <trkpt lat="40.186000000" lon="-8.438935000">
        <ele>159.600000</ele>
        <time>2020-10-17T07:43:55Z</time>
      </trkpt>
      <trkpt lat="40.186016000" lon="-8.438978000">
        <ele>159.800000</ele>
        <time>2020-10-17T07:43:56Z</time>
      </trkpt>
      <trkpt lat="40.186030000" lon="-8.439021000">
        <ele>159.800000</ele>
        <time>2020-10-17T07:43:57Z</time>
      </trkpt>
      <trkpt lat="40.186045000" lon="-8.439064000">
        <ele>160.000000</ele>
        <time>2020-10-17T07:43:58Z</time>
      </trkpt>
      <trkpt lat="40.186061000" lon="-8.439108000">
        <ele>160.000000</ele>
        <time>2020-10-17T07:43:59Z</time>
      </trkpt>
      <trkpt lat="40.186073000" lon="-8.439149000">
        <ele>160.400000</ele>
        <time>2020-10-17T07:44:00Z</time>
      </trkpt>
      <trkpt lat="40.186084000" lon="-8.439195000">
        <ele>160.600000</ele>
        <time>2020-10-17T07:44:01Z</time>
      </trkpt>
      <trkpt lat="40.186096000" lon="-8.439242000">
        <ele>160.800000</ele>
        <time>2020-10-17T07:44:02Z</time>
      </trkpt>
      <trkpt lat="40.186104000" lon="-8.439289000">
        <ele>160.800000</ele>
        <time>2020-10-17T07:44:03Z</time>
      </trkpt>
      <trkpt lat="40.186111000" lon="-8.439333000">
        <ele>161.400000</ele>
        <time>2020-10-17T07:44:04Z</time>
      </trkpt>
      <trkpt lat="40.186114000" lon="-8.439376000">
        <ele>161.600000</ele>
        <time>2020-10-17T07:44:05Z</time>
      </trkpt>
      <trkpt lat="40.186115000" lon="-8.439422000">
        <ele>161.800000</ele>
        <time>2020-10-17T07:44:06Z</time>
      </trkpt>
      <trkpt lat="40.186115000" lon="-8.439469000">
        <ele>161.800000</ele>
        <time>2020-10-17T07:44:07Z</time>
      </trkpt>
      <trkpt lat="40.186119000" lon="-8.439518000">
        <ele>162.000000</ele>
        <time>2020-10-17T07:44:08Z</time>
      </trkpt>
      <trkpt lat="40.186123000" lon="-8.439569000">
        <ele>162.400000</ele>
        <time>2020-10-17T07:44:09Z</time>
      </trkpt>
      <trkpt lat="40.186125000" lon="-8.439619000">
        <ele>162.400000</ele>
        <time>2020-10-17T07:44:10Z</time>
      </trkpt>
      <trkpt lat="40.186125000" lon="-8.439667000">
        <ele>162.800000</ele>
        <time>2020-10-17T07:44:11Z</time>
      </trkpt>
      <trkpt lat="40.186124000" lon="-8.439716000">
        <ele>162.800000</ele>
        <time>2020-10-17T07:44:12Z</time>
      </trkpt>
      <trkpt lat="40.186125000" lon="-8.439765000">
        <ele>163.200000</ele>
        <time>2020-10-17T07:44:13Z</time>
      </trkpt>
      <trkpt lat="40.186124000" lon="-8.439810000">
        <ele>163.200000</ele>
        <time>2020-10-17T07:44:14Z</time>
      </trkpt>
      <trkpt lat="40.186121000" lon="-8.439856000">
        <ele>163.400000</ele>
        <time>2020-10-17T07:44:15Z</time>
      </trkpt>
      <trkpt lat="40.186114000" lon="-8.439897000">
        <ele>163.400000</ele>
        <time>2020-10-17T07:44:16Z</time>
      </trkpt>
      <trkpt lat="40.186108000" lon="-8.439944000">
        <ele>163.400000</ele>
        <time>2020-10-17T07:44:17Z</time>
      </trkpt>
      <trkpt lat="40.186101000" lon="-8.439991000">
        <ele>163.800000</ele>
        <time>2020-10-17T07:44:18Z</time>
      </trkpt>
      <trkpt lat="40.186095000" lon="-8.440038000">
        <ele>163.800000</ele>
        <time>2020-10-17T07:44:19Z</time>
      </trkpt>
      <trkpt lat="40.186091000" lon="-8.440086000">
        <ele>164.200000</ele>
        <time>2020-10-17T07:44:20Z</time>
      </trkpt>
      <trkpt lat="40.186086000" lon="-8.440133000">
        <ele>164.400000</ele>
        <time>2020-10-17T07:44:21Z</time>
      </trkpt>
      <trkpt lat="40.186078000" lon="-8.440180000">
        <ele>164.600000</ele>
        <time>2020-10-17T07:44:22Z</time>
      </trkpt>
      <trkpt lat="40.186074000" lon="-8.440227000">
        <ele>164.800000</ele>
        <time>2020-10-17T07:44:23Z</time>
      </trkpt>
      <trkpt lat="40.186069000" lon="-8.440275000">
        <ele>164.800000</ele>
        <time>2020-10-17T07:44:24Z</time>
      </trkpt>
      <trkpt lat="40.186061000" lon="-8.440324000">
        <ele>165.000000</ele>
        <time>2020-10-17T07:44:25Z</time>
      </trkpt>
      <trkpt lat="40.186054000" lon="-8.440374000">
        <ele>165.400000</ele>
        <time>2020-10-17T07:44:26Z</time>
      </trkpt>
      <trkpt lat="40.186048000" lon="-8.440422000">
        <ele>165.600000</ele>
        <time>2020-10-17T07:44:27Z</time>
      </trkpt>
      <trkpt lat="40.186039000" lon="-8.440468000">
        <ele>165.800000</ele>
        <time>2020-10-17T07:44:28Z</time>
      </trkpt>
      <trkpt lat="40.186028000" lon="-8.440518000">
        <ele>166.000000</ele>
        <time>2020-10-17T07:44:29Z</time>
      </trkpt>
      <trkpt lat="40.186018000" lon="-8.440569000">
        <ele>166.200000</ele>
        <time>2020-10-17T07:44:30Z</time>
      </trkpt>
      <trkpt lat="40.186007000" lon="-8.440621000">
        <ele>166.400000</ele>
        <time>2020-10-17T07:44:31Z</time>
      </trkpt>
      <trkpt lat="40.185996000" lon="-8.440675000">
        <ele>166.600000</ele>
        <time>2020-10-17T07:44:32Z</time>
      </trkpt>
      <trkpt lat="40.185986000" lon="-8.440730000">
        <ele>166.800000</ele>
        <time>2020-10-17T07:44:33Z</time>
      </trkpt>
      <trkpt lat="40.185977000" lon="-8.440785000">
        <ele>166.800000</ele>
        <time>2020-10-17T07:44:34Z</time>
      </trkpt>
      <trkpt lat="40.185966000" lon="-8.440841000">
        <ele>167.200000</ele>
        <time>2020-10-17T07:44:35Z</time>
      </trkpt>
      <trkpt lat="40.185955000" lon="-8.440898000">
        <ele>167.400000</ele>
        <time>2020-10-17T07:44:36Z</time>
      </trkpt>
      <trkpt lat="40.185941000" lon="-8.440956000">
        <ele>167.600000</ele>
        <time>2020-10-17T07:44:37Z</time>
      </trkpt>
      <trkpt lat="40.185927000" lon="-8.441014000">
        <ele>167.600000</ele>
        <time>2020-10-17T07:44:38Z</time>
      </trkpt>
      <trkpt lat="40.185912000" lon="-8.441071000">
        <ele>167.600000</ele>
        <time>2020-10-17T07:44:39Z</time>
      </trkpt>
      <trkpt lat="40.185899000" lon="-8.441126000">
        <ele>167.800000</ele>
        <time>2020-10-17T07:44:40Z</time>
      </trkpt>
      <trkpt lat="40.185884000" lon="-8.441182000">
        <ele>167.800000</ele>
        <time>2020-10-17T07:44:41Z</time>
      </trkpt>
      <trkpt lat="40.185867000" lon="-8.441240000">
        <ele>168.000000</ele>
        <time>2020-10-17T07:44:42Z</time>
      </trkpt>
      <trkpt lat="40.185849000" lon="-8.441297000">
        <ele>168.000000</ele>
        <time>2020-10-17T07:44:43Z</time>
      </trkpt>
      <trkpt lat="40.185831000" lon="-8.441354000">
        <ele>168.000000</ele>
        <time>2020-10-17T07:44:44Z</time>
      </trkpt>
      <trkpt lat="40.185813000" lon="-8.441410000">
        <ele>168.200000</ele>
        <time>2020-10-17T07:44:45Z</time>
      </trkpt>
      <trkpt lat="40.185794000" lon="-8.441465000">
        <ele>168.400000</ele>
        <time>2020-10-17T07:44:46Z</time>
      </trkpt>
      <trkpt lat="40.185773000" lon="-8.441520000">
        <ele>168.600000</ele>
        <time>2020-10-17T07:44:47Z</time>
      </trkpt>
      <trkpt lat="40.185750000" lon="-8.441575000">
        <ele>168.600000</ele>
        <time>2020-10-17T07:44:48Z</time>
      </trkpt>
      <trkpt lat="40.185725000" lon="-8.441629000">
        <ele>168.600000</ele>
        <time>2020-10-17T07:44:49Z</time>
      </trkpt>
      <trkpt lat="40.185701000" lon="-8.441683000">
        <ele>168.800000</ele>
        <time>2020-10-17T07:44:50Z</time>
      </trkpt>
      <trkpt lat="40.185676000" lon="-8.441733000">
        <ele>169.000000</ele>
        <time>2020-10-17T07:44:51Z</time>
      </trkpt>
      <trkpt lat="40.185648000" lon="-8.441780000">
        <ele>169.000000</ele>
        <time>2020-10-17T07:44:52Z</time>
      </trkpt>
      <trkpt lat="40.185618000" lon="-8.441827000">
        <ele>169.200000</ele>
        <time>2020-10-17T07:44:53Z</time>
      </trkpt>
      <trkpt lat="40.185585000" lon="-8.441873000">
        <ele>169.200000</ele>
        <time>2020-10-17T07:44:54Z</time>
      </trkpt>
      <trkpt lat="40.185551000" lon="-8.441919000">
        <ele>169.200000</ele>
        <time>2020-10-17T07:44:55Z</time>
      </trkpt>
      <trkpt lat="40.185516000" lon="-8.441962000">
        <ele>169.400000</ele>
        <time>2020-10-17T07:44:56Z</time>
      </trkpt>
      <trkpt lat="40.185478000" lon="-8.442005000">
        <ele>169.600000</ele>
        <time>2020-10-17T07:44:57Z</time>
      </trkpt>
      <trkpt lat="40.185439000" lon="-8.442048000">
        <ele>169.600000</ele>
        <time>2020-10-17T07:44:58Z</time>
      </trkpt>
      <trkpt lat="40.185397000" lon="-8.442092000">
        <ele>169.600000</ele>
        <time>2020-10-17T07:44:59Z</time>
      </trkpt>
      <trkpt lat="40.185354000" lon="-8.442131000">
        <ele>169.800000</ele>
        <time>2020-10-17T07:45:00Z</time>
      </trkpt>
      <trkpt lat="40.185314000" lon="-8.442168000">
        <ele>169.800000</ele>
        <time>2020-10-17T07:45:01Z</time>
      </trkpt>
      <trkpt lat="40.185273000" lon="-8.442204000">
        <ele>169.800000</ele>
        <time>2020-10-17T07:45:02Z</time>
      </trkpt>
      <trkpt lat="40.185230000" lon="-8.442239000">
        <ele>169.800000</ele>
        <time>2020-10-17T07:45:03Z</time>
      </trkpt>
      <trkpt lat="40.185188000" lon="-8.442270000">
        <ele>170.000000</ele>
        <time>2020-10-17T07:45:04Z</time>
      </trkpt>
      <trkpt lat="40.185147000" lon="-8.442302000">
        <ele>170.200000</ele>
        <time>2020-10-17T07:45:05Z</time>
      </trkpt>
      <trkpt lat="40.185105000" lon="-8.442332000">
        <ele>170.200000</ele>
        <time>2020-10-17T07:45:06Z</time>
      </trkpt>
      <trkpt lat="40.185065000" lon="-8.442366000">
        <ele>170.400000</ele>
        <time>2020-10-17T07:45:07Z</time>
      </trkpt>
      <trkpt lat="40.185026000" lon="-8.442400000">
        <ele>170.600000</ele>
        <time>2020-10-17T07:45:08Z</time>
      </trkpt>
      <trkpt lat="40.184984000" lon="-8.442433000">
        <ele>170.800000</ele>
        <time>2020-10-17T07:45:09Z</time>
      </trkpt>
      <trkpt lat="40.184941000" lon="-8.442456000">
        <ele>170.800000</ele>
        <time>2020-10-17T07:45:10Z</time>
      </trkpt>
      <trkpt lat="40.184900000" lon="-8.442483000">
        <ele>171.000000</ele>
        <time>2020-10-17T07:45:11Z</time>
      </trkpt>
      <trkpt lat="40.184859000" lon="-8.442509000">
        <ele>171.000000</ele>
        <time>2020-10-17T07:45:12Z</time>
      </trkpt>
      <trkpt lat="40.184819000" lon="-8.442538000">
        <ele>171.200000</ele>
        <time>2020-10-17T07:45:13Z</time>
      </trkpt>
      <trkpt lat="40.184779000" lon="-8.442569000">
        <ele>171.600000</ele>
        <time>2020-10-17T07:45:14Z</time>
      </trkpt>
      <trkpt lat="40.184741000" lon="-8.442599000">
        <ele>171.600000</ele>
        <time>2020-10-17T07:45:15Z</time>
      </trkpt>
      <trkpt lat="40.184703000" lon="-8.442627000">
        <ele>171.800000</ele>
        <time>2020-10-17T07:45:16Z</time>
      </trkpt>
      <trkpt lat="40.184665000" lon="-8.442654000">
        <ele>172.000000</ele>
        <time>2020-10-17T07:45:17Z</time>
      </trkpt>
      <trkpt lat="40.184625000" lon="-8.442676000">
        <ele>172.000000</ele>
        <time>2020-10-17T07:45:18Z</time>
      </trkpt>
      <trkpt lat="40.184589000" lon="-8.442705000">
        <ele>172.200000</ele>
        <time>2020-10-17T07:45:19Z</time>
      </trkpt>
      <trkpt lat="40.184553000" lon="-8.442735000">
        <ele>172.400000</ele>
        <time>2020-10-17T07:45:20Z</time>
      </trkpt>
      <trkpt lat="40.184518000" lon="-8.442760000">
        <ele>172.800000</ele>
        <time>2020-10-17T07:45:21Z</time>
      </trkpt>
      <trkpt lat="40.184479000" lon="-8.442792000">
        <ele>173.000000</ele>
        <time>2020-10-17T07:45:22Z</time>
      </trkpt>
      <trkpt lat="40.184440000" lon="-8.442827000">
        <ele>173.200000</ele>
        <time>2020-10-17T07:45:23Z</time>
      </trkpt>
      <trkpt lat="40.184404000" lon="-8.442863000">
        <ele>173.400000</ele>
        <time>2020-10-17T07:45:24Z</time>
      </trkpt>
      <trkpt lat="40.184369000" lon="-8.442903000">
        <ele>173.600000</ele>
        <time>2020-10-17T07:45:25Z</time>
      </trkpt>
      <trkpt lat="40.184335000" lon="-8.442943000">
        <ele>173.800000</ele>
        <time>2020-10-17T07:45:26Z</time>
      </trkpt>
      <trkpt lat="40.184301000" lon="-8.442981000">
        <ele>174.000000</ele>
        <time>2020-10-17T07:45:27Z</time>
      </trkpt>
      <trkpt lat="40.184267000" lon="-8.443019000">
        <ele>174.200000</ele>
        <time>2020-10-17T07:45:28Z</time>
      </trkpt>
      <trkpt lat="40.184232000" lon="-8.443060000">
        <ele>174.200000</ele>
        <time>2020-10-17T07:45:29Z</time>
      </trkpt>
      <trkpt lat="40.184197000" lon="-8.443102000">
        <ele>174.200000</ele>
        <time>2020-10-17T07:45:30Z</time>
      </trkpt>
      <trkpt lat="40.184162000" lon="-8.443145000">
        <ele>174.600000</ele>
        <time>2020-10-17T07:45:31Z</time>
      </trkpt>
      <trkpt lat="40.184129000" lon="-8.443191000">
        <ele>174.800000</ele>
        <time>2020-10-17T07:45:32Z</time>
      </trkpt>
      <trkpt lat="40.184096000" lon="-8.443239000">
        <ele>174.800000</ele>
        <time>2020-10-17T07:45:33Z</time>
      </trkpt>
      <trkpt lat="40.184062000" lon="-8.443290000">
        <ele>175.000000</ele>
        <time>2020-10-17T07:45:34Z</time>
      </trkpt>
      <trkpt lat="40.184028000" lon="-8.443349000">
        <ele>175.000000</ele>
        <time>2020-10-17T07:45:35Z</time>
      </trkpt>
      <trkpt lat="40.183993000" lon="-8.443414000">
        <ele>175.200000</ele>
        <time>2020-10-17T07:45:36Z</time>
      </trkpt>
      <trkpt lat="40.183958000" lon="-8.443480000">
        <ele>175.200000</ele>
        <time>2020-10-17T07:45:37Z</time>
      </trkpt>
      <trkpt lat="40.183921000" lon="-8.443547000">
        <ele>175.200000</ele>
        <time>2020-10-17T07:45:38Z</time>
      </trkpt>
      <trkpt lat="40.183885000" lon="-8.443617000">
        <ele>175.400000</ele>
        <time>2020-10-17T07:45:39Z</time>
      </trkpt>
      <trkpt lat="40.183847000" lon="-8.443691000">
        <ele>175.400000</ele>
        <time>2020-10-17T07:45:40Z</time>
      </trkpt>
      <trkpt lat="40.183771000" lon="-8.443845000">
        <ele>175.400000</ele>
        <time>2020-10-17T07:45:42Z</time>
      </trkpt>
      <trkpt lat="40.183730000" lon="-8.443926000">
        <ele>175.200000</ele>
        <time>2020-10-17T07:45:43Z</time>
      </trkpt>
      <trkpt lat="40.183646000" lon="-8.444096000">
        <ele>175.400000</ele>
        <time>2020-10-17T07:45:45Z</time>
      </trkpt>
      <trkpt lat="40.183475000" lon="-8.444457000">
        <ele>175.000000</ele>
        <time>2020-10-17T07:45:49Z</time>
      </trkpt>
      <trkpt lat="40.183393000" lon="-8.444646000">
        <ele>174.400000</ele>
        <time>2020-10-17T07:45:51Z</time>
      </trkpt>
      <trkpt lat="40.183262000" lon="-8.445049000">
        <ele>172.800000</ele>
        <time>2020-10-17T07:45:55Z</time>
      </trkpt>
      <trkpt lat="40.183238000" lon="-8.445152000">
        <ele>172.600000</ele>
        <time>2020-10-17T07:45:56Z</time>
      </trkpt>
      <trkpt lat="40.183184000" lon="-8.445607000">
        <ele>171.600000</ele>
        <time>2020-10-17T07:46:00Z</time>
      </trkpt>
      <trkpt lat="40.183172000" lon="-8.445724000">
        <ele>171.800000</ele>
        <time>2020-10-17T07:46:01Z</time>
      </trkpt>
      <trkpt lat="40.183159000" lon="-8.445844000">
        <ele>171.600000</ele>
        <time>2020-10-17T07:46:02Z</time>
      </trkpt>
      <trkpt lat="40.183127000" lon="-8.446092000">
        <ele>171.200000</ele>
        <time>2020-10-17T07:46:04Z</time>
      </trkpt>
      <trkpt lat="40.183096000" lon="-8.446354000">
        <ele>170.600000</ele>
        <time>2020-10-17T07:46:06Z</time>
      </trkpt>
      <trkpt lat="40.183086000" lon="-8.446491000">
        <ele>170.400000</ele>
        <time>2020-10-17T07:46:07Z</time>
      </trkpt>
      <trkpt lat="40.183071000" lon="-8.446632000">
        <ele>170.400000</ele>
        <time>2020-10-17T07:46:08Z</time>
      </trkpt>
      <trkpt lat="40.183022000" lon="-8.447055000">
        <ele>168.600000</ele>
        <time>2020-10-17T07:46:11Z</time>
      </trkpt>
      <trkpt lat="40.182995000" lon="-8.447196000">
        <ele>168.000000</ele>
        <time>2020-10-17T07:46:12Z</time>
      </trkpt>
      <trkpt lat="40.182958000" lon="-8.447331000">
        <ele>167.400000</ele>
        <time>2020-10-17T07:46:13Z</time>
      </trkpt>
      <trkpt lat="40.182903000" lon="-8.447453000">
        <ele>166.800000</ele>
        <time>2020-10-17T07:46:14Z</time>
      </trkpt>
      <trkpt lat="40.182838000" lon="-8.447562000">
        <ele>165.600000</ele>
        <time>2020-10-17T07:46:15Z</time>
      </trkpt>
      <trkpt lat="40.182767000" lon="-8.447672000">
        <ele>164.800000</ele>
        <time>2020-10-17T07:46:16Z</time>
      </trkpt>
      <trkpt lat="40.182631000" lon="-8.447884000">
        <ele>163.200000</ele>
        <time>2020-10-17T07:46:18Z</time>
      </trkpt>
      <trkpt lat="40.182558000" lon="-8.447987000">
        <ele>163.200000</ele>
        <time>2020-10-17T07:46:19Z</time>
      </trkpt>
      <trkpt lat="40.182487000" lon="-8.448084000">
        <ele>162.600000</ele>
        <time>2020-10-17T07:46:20Z</time>
      </trkpt>
      <trkpt lat="40.182416000" lon="-8.448178000">
        <ele>162.200000</ele>
        <time>2020-10-17T07:46:21Z</time>
      </trkpt>
      <trkpt lat="40.182345000" lon="-8.448271000">
        <ele>161.400000</ele>
        <time>2020-10-17T07:46:22Z</time>
      </trkpt>
      <trkpt lat="40.182278000" lon="-8.448366000">
        <ele>161.000000</ele>
        <time>2020-10-17T07:46:23Z</time>
      </trkpt>
      <trkpt lat="40.182094000" lon="-8.448674000">
        <ele>158.400000</ele>
        <time>2020-10-17T07:46:26Z</time>
      </trkpt>
      <trkpt lat="40.182027000" lon="-8.448753000">
        <ele>157.800000</ele>
        <time>2020-10-17T07:46:27Z</time>
      </trkpt>
      <trkpt lat="40.181958000" lon="-8.448806000">
        <ele>157.200000</ele>
        <time>2020-10-17T07:46:28Z</time>
      </trkpt>
      <trkpt lat="40.181888000" lon="-8.448840000">
        <ele>156.800000</ele>
        <time>2020-10-17T07:46:29Z</time>
      </trkpt>
      <trkpt lat="40.181820000" lon="-8.448872000">
        <ele>156.200000</ele>
        <time>2020-10-17T07:46:30Z</time>
      </trkpt>
      <trkpt lat="40.181760000" lon="-8.448904000">
        <ele>155.400000</ele>
        <time>2020-10-17T07:46:31Z</time>
      </trkpt>
      <trkpt lat="40.181711000" lon="-8.448931000">
        <ele>154.800000</ele>
        <time>2020-10-17T07:46:32Z</time>
      </trkpt>
      <trkpt lat="40.181675000" lon="-8.448946000">
        <ele>154.600000</ele>
        <time>2020-10-17T07:46:33Z</time>
      </trkpt>
      <trkpt lat="40.181644000" lon="-8.448962000">
        <ele>154.600000</ele>
        <time>2020-10-17T07:46:34Z</time>
      </trkpt>
      <trkpt lat="40.181625000" lon="-8.448977000">
        <ele>154.400000</ele>
        <time>2020-10-17T07:46:35Z</time>
      </trkpt>
      <trkpt lat="40.181615000" lon="-8.448982000">
        <ele>154.200000</ele>
        <time>2020-10-17T07:46:36Z</time>
      </trkpt>
      <trkpt lat="40.181618000" lon="-8.448975000">
        <ele>154.200000</ele>
        <time>2020-10-17T07:46:37Z</time>
      </trkpt>
      <trkpt lat="40.181621000" lon="-8.448966000">
        <ele>154.200000</ele>
        <time>2020-10-17T07:46:39Z</time>
      </trkpt>
      <trkpt lat="40.181516000" lon="-8.448994000">
        <ele>157.800000</ele>
        <time>2020-10-17T07:47:18Z</time>
      </trkpt>
      <trkpt lat="40.181499000" lon="-8.448999000">
        <ele>154.600000</ele>
        <time>2020-10-17T07:47:19Z</time>
      </trkpt>
      <trkpt lat="40.181478000" lon="-8.449004000">
        <ele>154.600000</ele>
        <time>2020-10-17T07:47:20Z</time>
      </trkpt>
      <trkpt lat="40.181402000" lon="-8.449018000">
        <ele>154.800000</ele>
        <time>2020-10-17T07:47:23Z</time>
      </trkpt>
      <trkpt lat="40.181316000" lon="-8.449035000">
        <ele>154.800000</ele>
        <time>2020-10-17T07:47:26Z</time>
      </trkpt>
      <trkpt lat="40.181289000" lon="-8.449040000">
        <ele>155.000000</ele>
        <time>2020-10-17T07:47:27Z</time>
      </trkpt>
      <trkpt lat="40.181174000" lon="-8.449052000">
        <ele>155.600000</ele>
        <time>2020-10-17T07:47:31Z</time>
      </trkpt>
      <trkpt lat="40.181144000" lon="-8.449054000">
        <ele>155.800000</ele>
        <time>2020-10-17T07:47:32Z</time>
      </trkpt>
      <trkpt lat="40.181115000" lon="-8.449052000">
        <ele>156.000000</ele>
        <time>2020-10-17T07:47:33Z</time>
      </trkpt>
      <trkpt lat="40.181086000" lon="-8.449050000">
        <ele>156.200000</ele>
        <time>2020-10-17T07:47:34Z</time>
      </trkpt>
      <trkpt lat="40.181056000" lon="-8.449047000">
        <ele>156.400000</ele>
        <time>2020-10-17T07:47:35Z</time>
      </trkpt>
      <trkpt lat="40.181027000" lon="-8.449045000">
        <ele>156.600000</ele>
        <time>2020-10-17T07:47:36Z</time>
      </trkpt>
      <trkpt lat="40.180997000" lon="-8.449045000">
        <ele>156.600000</ele>
        <time>2020-10-17T07:47:37Z</time>
      </trkpt>
      <trkpt lat="40.180964000" lon="-8.449046000">
        <ele>156.800000</ele>
        <time>2020-10-17T07:47:38Z</time>
      </trkpt>
      <trkpt lat="40.180932000" lon="-8.449046000">
        <ele>157.000000</ele>
        <time>2020-10-17T07:47:39Z</time>
      </trkpt>
      <trkpt lat="40.180900000" lon="-8.449052000">
        <ele>157.200000</ele>
        <time>2020-10-17T07:47:40Z</time>
      </trkpt>
      <trkpt lat="40.180868000" lon="-8.449061000">
        <ele>157.400000</ele>
        <time>2020-10-17T07:47:41Z</time>
      </trkpt>
      <trkpt lat="40.180837000" lon="-8.449065000">
        <ele>157.600000</ele>
        <time>2020-10-17T07:47:42Z</time>
      </trkpt>
      <trkpt lat="40.180804000" lon="-8.449068000">
        <ele>157.800000</ele>
        <time>2020-10-17T07:47:43Z</time>
      </trkpt>
      <trkpt lat="40.180772000" lon="-8.449071000">
        <ele>157.800000</ele>
        <time>2020-10-17T07:47:44Z</time>
      </trkpt>
      <trkpt lat="40.180739000" lon="-8.449074000">
        <ele>157.800000</ele>
        <time>2020-10-17T07:47:45Z</time>
      </trkpt>
      <trkpt lat="40.180706000" lon="-8.449079000">
        <ele>158.200000</ele>
        <time>2020-10-17T07:47:46Z</time>
      </trkpt>
      <trkpt lat="40.180673000" lon="-8.449084000">
        <ele>158.200000</ele>
        <time>2020-10-17T07:47:47Z</time>
      </trkpt>
      <trkpt lat="40.180642000" lon="-8.449087000">
        <ele>158.400000</ele>
        <time>2020-10-17T07:47:48Z</time>
      </trkpt>
      <trkpt lat="40.180608000" lon="-8.449090000">
        <ele>158.600000</ele>
        <time>2020-10-17T07:47:49Z</time>
      </trkpt>
      <trkpt lat="40.180572000" lon="-8.449095000">
        <ele>158.800000</ele>
        <time>2020-10-17T07:47:50Z</time>
      </trkpt>
      <trkpt lat="40.180538000" lon="-8.449103000">
        <ele>159.000000</ele>
        <time>2020-10-17T07:47:51Z</time>
      </trkpt>
      <trkpt lat="40.180503000" lon="-8.449114000">
        <ele>159.000000</ele>
        <time>2020-10-17T07:47:52Z</time>
      </trkpt>
      <trkpt lat="40.180464000" lon="-8.449124000">
        <ele>159.200000</ele>
        <time>2020-10-17T07:47:53Z</time>
      </trkpt>
      <trkpt lat="40.180426000" lon="-8.449134000">
        <ele>159.600000</ele>
        <time>2020-10-17T07:47:54Z</time>
      </trkpt>
      <trkpt lat="40.180388000" lon="-8.449144000">
        <ele>159.800000</ele>
        <time>2020-10-17T07:47:55Z</time>
      </trkpt>
      <trkpt lat="40.180351000" lon="-8.449159000">
        <ele>160.000000</ele>
        <time>2020-10-17T07:47:56Z</time>
      </trkpt>
      <trkpt lat="40.180314000" lon="-8.449171000">
        <ele>160.000000</ele>
        <time>2020-10-17T07:47:57Z</time>
      </trkpt>
      <trkpt lat="40.180275000" lon="-8.449182000">
        <ele>160.200000</ele>
        <time>2020-10-17T07:47:58Z</time>
      </trkpt>
      <trkpt lat="40.180236000" lon="-8.449193000">
        <ele>160.400000</ele>
        <time>2020-10-17T07:47:59Z</time>
      </trkpt>
      <trkpt lat="40.180196000" lon="-8.449206000">
        <ele>160.600000</ele>
        <time>2020-10-17T07:48:00Z</time>
      </trkpt>
      <trkpt lat="40.180153000" lon="-8.449219000">
        <ele>161.000000</ele>
        <time>2020-10-17T07:48:01Z</time>
      </trkpt>
      <trkpt lat="40.180112000" lon="-8.449233000">
        <ele>161.200000</ele>
        <time>2020-10-17T07:48:02Z</time>
      </trkpt>
      <trkpt lat="40.180069000" lon="-8.449249000">
        <ele>161.400000</ele>
        <time>2020-10-17T07:48:03Z</time>
      </trkpt>
      <trkpt lat="40.180026000" lon="-8.449267000">
        <ele>161.600000</ele>
        <time>2020-10-17T07:48:04Z</time>
      </trkpt>
      <trkpt lat="40.179984000" lon="-8.449284000">
        <ele>161.600000</ele>
        <time>2020-10-17T07:48:05Z</time>
      </trkpt>
      <trkpt lat="40.179943000" lon="-8.449303000">
        <ele>161.800000</ele>
        <time>2020-10-17T07:48:06Z</time>
      </trkpt>
      <trkpt lat="40.179905000" lon="-8.449323000">
        <ele>162.000000</ele>
        <time>2020-10-17T07:48:07Z</time>
      </trkpt>
      <trkpt lat="40.179866000" lon="-8.449344000">
        <ele>162.000000</ele>
        <time>2020-10-17T07:48:08Z</time>
      </trkpt>
      <trkpt lat="40.179828000" lon="-8.449367000">
        <ele>162.000000</ele>
        <time>2020-10-17T07:48:09Z</time>
      </trkpt>
      <trkpt lat="40.179790000" lon="-8.449392000">
        <ele>162.200000</ele>
        <time>2020-10-17T07:48:10Z</time>
      </trkpt>
      <trkpt lat="40.179752000" lon="-8.449418000">
        <ele>162.600000</ele>
        <time>2020-10-17T07:48:11Z</time>
      </trkpt>
      <trkpt lat="40.179714000" lon="-8.449444000">
        <ele>162.600000</ele>
        <time>2020-10-17T07:48:12Z</time>
      </trkpt>
      <trkpt lat="40.179674000" lon="-8.449472000">
        <ele>162.600000</ele>
        <time>2020-10-17T07:48:13Z</time>
      </trkpt>
      <trkpt lat="40.179632000" lon="-8.449499000">
        <ele>162.600000</ele>
        <time>2020-10-17T07:48:14Z</time>
      </trkpt>
      <trkpt lat="40.179593000" lon="-8.449524000">
        <ele>162.800000</ele>
        <time>2020-10-17T07:48:15Z</time>
      </trkpt>
      <trkpt lat="40.179553000" lon="-8.449554000">
        <ele>163.000000</ele>
        <time>2020-10-17T07:48:16Z</time>
      </trkpt>
      <trkpt lat="40.179512000" lon="-8.449587000">
        <ele>163.200000</ele>
        <time>2020-10-17T07:48:17Z</time>
      </trkpt>
      <trkpt lat="40.179471000" lon="-8.449618000">
        <ele>163.400000</ele>
        <time>2020-10-17T07:48:18Z</time>
      </trkpt>
      <trkpt lat="40.179429000" lon="-8.449649000">
        <ele>163.400000</ele>
        <time>2020-10-17T07:48:19Z</time>
      </trkpt>
      <trkpt lat="40.179387000" lon="-8.449680000">
        <ele>163.600000</ele>
        <time>2020-10-17T07:48:20Z</time>
      </trkpt>
      <trkpt lat="40.179344000" lon="-8.449711000">
        <ele>163.800000</ele>
        <time>2020-10-17T07:48:21Z</time>
      </trkpt>
      <trkpt lat="40.179298000" lon="-8.449736000">
        <ele>163.600000</ele>
        <time>2020-10-17T07:48:22Z</time>
      </trkpt>
      <trkpt lat="40.179252000" lon="-8.449760000">
        <ele>163.800000</ele>
        <time>2020-10-17T07:48:23Z</time>
      </trkpt>
      <trkpt lat="40.179208000" lon="-8.449788000">
        <ele>164.000000</ele>
        <time>2020-10-17T07:48:24Z</time>
      </trkpt>
      <trkpt lat="40.179165000" lon="-8.449816000">
        <ele>164.000000</ele>
        <time>2020-10-17T07:48:25Z</time>
      </trkpt>
      <trkpt lat="40.179123000" lon="-8.449843000">
        <ele>164.200000</ele>
        <time>2020-10-17T07:48:26Z</time>
      </trkpt>
      <trkpt lat="40.179080000" lon="-8.449868000">
        <ele>164.200000</ele>
        <time>2020-10-17T07:48:27Z</time>
      </trkpt>
      <trkpt lat="40.179036000" lon="-8.449894000">
        <ele>164.400000</ele>
        <time>2020-10-17T07:48:28Z</time>
      </trkpt>
      <trkpt lat="40.178995000" lon="-8.449920000">
        <ele>164.400000</ele>
        <time>2020-10-17T07:48:29Z</time>
      </trkpt>
      <trkpt lat="40.178952000" lon="-8.449943000">
        <ele>164.600000</ele>
        <time>2020-10-17T07:48:30Z</time>
      </trkpt>
      <trkpt lat="40.178910000" lon="-8.449968000">
        <ele>164.600000</ele>
        <time>2020-10-17T07:48:31Z</time>
      </trkpt>
      <trkpt lat="40.178869000" lon="-8.449993000">
        <ele>164.600000</ele>
        <time>2020-10-17T07:48:32Z</time>
      </trkpt>
      <trkpt lat="40.178829000" lon="-8.450019000">
        <ele>164.800000</ele>
        <time>2020-10-17T07:48:33Z</time>
      </trkpt>
      <trkpt lat="40.178790000" lon="-8.450047000">
        <ele>165.000000</ele>
        <time>2020-10-17T07:48:34Z</time>
      </trkpt>
      <trkpt lat="40.178750000" lon="-8.450077000">
        <ele>165.200000</ele>
        <time>2020-10-17T07:48:35Z</time>
      </trkpt>
      <trkpt lat="40.178713000" lon="-8.450106000">
        <ele>165.200000</ele>
        <time>2020-10-17T07:48:36Z</time>
      </trkpt>
      <trkpt lat="40.178675000" lon="-8.450133000">
        <ele>165.400000</ele>
        <time>2020-10-17T07:48:37Z</time>
      </trkpt>
      <trkpt lat="40.178638000" lon="-8.450163000">
        <ele>165.600000</ele>
        <time>2020-10-17T07:48:38Z</time>
      </trkpt>
      <trkpt lat="40.178602000" lon="-8.450193000">
        <ele>165.600000</ele>
        <time>2020-10-17T07:48:39Z</time>
      </trkpt>
      <trkpt lat="40.178568000" lon="-8.450222000">
        <ele>165.800000</ele>
        <time>2020-10-17T07:48:40Z</time>
      </trkpt>
      <trkpt lat="40.178537000" lon="-8.450251000">
        <ele>166.000000</ele>
        <time>2020-10-17T07:48:41Z</time>
      </trkpt>
      <trkpt lat="40.178503000" lon="-8.450281000">
        <ele>166.200000</ele>
        <time>2020-10-17T07:48:42Z</time>
      </trkpt>
      <trkpt lat="40.178471000" lon="-8.450312000">
        <ele>166.200000</ele>
        <time>2020-10-17T07:48:43Z</time>
      </trkpt>
      <trkpt lat="40.178437000" lon="-8.450342000">
        <ele>166.600000</ele>
        <time>2020-10-17T07:48:44Z</time>
      </trkpt>
      <trkpt lat="40.178403000" lon="-8.450374000">
        <ele>166.800000</ele>
        <time>2020-10-17T07:48:45Z</time>
      </trkpt>
      <trkpt lat="40.178373000" lon="-8.450406000">
        <ele>166.800000</ele>
        <time>2020-10-17T07:48:46Z</time>
      </trkpt>
      <trkpt lat="40.178342000" lon="-8.450435000">
        <ele>167.200000</ele>
        <time>2020-10-17T07:48:47Z</time>
      </trkpt>
      <trkpt lat="40.178311000" lon="-8.450464000">
        <ele>167.200000</ele>
        <time>2020-10-17T07:48:48Z</time>
      </trkpt>
      <trkpt lat="40.178282000" lon="-8.450494000">
        <ele>167.600000</ele>
        <time>2020-10-17T07:48:49Z</time>
      </trkpt>
      <trkpt lat="40.178251000" lon="-8.450525000">
        <ele>167.600000</ele>
        <time>2020-10-17T07:48:50Z</time>
      </trkpt>
      <trkpt lat="40.178221000" lon="-8.450556000">
        <ele>168.200000</ele>
        <time>2020-10-17T07:48:51Z</time>
      </trkpt>
      <trkpt lat="40.178191000" lon="-8.450590000">
        <ele>168.200000</ele>
        <time>2020-10-17T07:48:52Z</time>
      </trkpt>
      <trkpt lat="40.178161000" lon="-8.450622000">
        <ele>168.400000</ele>
        <time>2020-10-17T07:48:53Z</time>
      </trkpt>
      <trkpt lat="40.178131000" lon="-8.450653000">
        <ele>168.800000</ele>
        <time>2020-10-17T07:48:54Z</time>
      </trkpt>
      <trkpt lat="40.178102000" lon="-8.450684000">
        <ele>168.800000</ele>
        <time>2020-10-17T07:48:55Z</time>
      </trkpt>
      <trkpt lat="40.178074000" lon="-8.450717000">
        <ele>169.200000</ele>
        <time>2020-10-17T07:48:56Z</time>
      </trkpt>
      <trkpt lat="40.178048000" lon="-8.450751000">
        <ele>169.400000</ele>
        <time>2020-10-17T07:48:57Z</time>
      </trkpt>
      <trkpt lat="40.178022000" lon="-8.450786000">
        <ele>169.600000</ele>
        <time>2020-10-17T07:48:58Z</time>
      </trkpt>
      <trkpt lat="40.177994000" lon="-8.450822000">
        <ele>170.000000</ele>
        <time>2020-10-17T07:48:59Z</time>
      </trkpt>
      <trkpt lat="40.177965000" lon="-8.450858000">
        <ele>170.200000</ele>
        <time>2020-10-17T07:49:00Z</time>
      </trkpt>
      <trkpt lat="40.177934000" lon="-8.450895000">
        <ele>170.400000</ele>
        <time>2020-10-17T07:49:01Z</time>
      </trkpt>
      <trkpt lat="40.177904000" lon="-8.450931000">
        <ele>170.800000</ele>
        <time>2020-10-17T07:49:02Z</time>
      </trkpt>
      <trkpt lat="40.177875000" lon="-8.450967000">
        <ele>171.000000</ele>
        <time>2020-10-17T07:49:03Z</time>
      </trkpt>
      <trkpt lat="40.177846000" lon="-8.451003000">
        <ele>171.200000</ele>
        <time>2020-10-17T07:49:04Z</time>
      </trkpt>
      <trkpt lat="40.177816000" lon="-8.451041000">
        <ele>171.400000</ele>
        <time>2020-10-17T07:49:05Z</time>
      </trkpt>
      <trkpt lat="40.177784000" lon="-8.451080000">
        <ele>171.400000</ele>
        <time>2020-10-17T07:49:06Z</time>
      </trkpt>
      <trkpt lat="40.177751000" lon="-8.451122000">
        <ele>171.600000</ele>
        <time>2020-10-17T07:49:07Z</time>
      </trkpt>
      <trkpt lat="40.177722000" lon="-8.451166000">
        <ele>172.000000</ele>
        <time>2020-10-17T07:49:08Z</time>
      </trkpt>
      <trkpt lat="40.177692000" lon="-8.451212000">
        <ele>172.200000</ele>
        <time>2020-10-17T07:49:09Z</time>
      </trkpt>
      <trkpt lat="40.177662000" lon="-8.451260000">
        <ele>172.600000</ele>
        <time>2020-10-17T07:49:10Z</time>
      </trkpt>
      <trkpt lat="40.177635000" lon="-8.451312000">
        <ele>172.800000</ele>
        <time>2020-10-17T07:49:11Z</time>
      </trkpt>
      <trkpt lat="40.177607000" lon="-8.451367000">
        <ele>172.800000</ele>
        <time>2020-10-17T07:49:12Z</time>
      </trkpt>
      <trkpt lat="40.177584000" lon="-8.451426000">
        <ele>173.000000</ele>
        <time>2020-10-17T07:49:13Z</time>
      </trkpt>
      <trkpt lat="40.177562000" lon="-8.451493000">
        <ele>173.000000</ele>
        <time>2020-10-17T07:49:14Z</time>
      </trkpt>
      <trkpt lat="40.177544000" lon="-8.451566000">
        <ele>173.200000</ele>
        <time>2020-10-17T07:49:15Z</time>
      </trkpt>
      <trkpt lat="40.177529000" lon="-8.451640000">
        <ele>173.000000</ele>
        <time>2020-10-17T07:49:16Z</time>
      </trkpt>
      <trkpt lat="40.177518000" lon="-8.451719000">
        <ele>173.200000</ele>
        <time>2020-10-17T07:49:17Z</time>
      </trkpt>
      <trkpt lat="40.177511000" lon="-8.451805000">
        <ele>173.000000</ele>
        <time>2020-10-17T07:49:18Z</time>
      </trkpt>
      <trkpt lat="40.177505000" lon="-8.451895000">
        <ele>173.200000</ele>
        <time>2020-10-17T07:49:19Z</time>
      </trkpt>
      <trkpt lat="40.177488000" lon="-8.452193000">
        <ele>173.200000</ele>
        <time>2020-10-17T07:49:22Z</time>
      </trkpt>
      <trkpt lat="40.177478000" lon="-8.452397000">
        <ele>172.600000</ele>
        <time>2020-10-17T07:49:24Z</time>
      </trkpt>
      <trkpt lat="40.177476000" lon="-8.452503000">
        <ele>172.600000</ele>
        <time>2020-10-17T07:49:25Z</time>
      </trkpt>
      <trkpt lat="40.177480000" lon="-8.452608000">
        <ele>172.400000</ele>
        <time>2020-10-17T07:49:26Z</time>
      </trkpt>
      <trkpt lat="40.177519000" lon="-8.452829000">
        <ele>172.200000</ele>
        <time>2020-10-17T07:49:28Z</time>
      </trkpt>
      <trkpt lat="40.177555000" lon="-8.452927000">
        <ele>172.000000</ele>
        <time>2020-10-17T07:49:29Z</time>
      </trkpt>
      <trkpt lat="40.177591000" lon="-8.453022000">
        <ele>171.400000</ele>
        <time>2020-10-17T07:49:30Z</time>
      </trkpt>
      <trkpt lat="40.177616000" lon="-8.453121000">
        <ele>171.000000</ele>
        <time>2020-10-17T07:49:31Z</time>
      </trkpt>
      <trkpt lat="40.177623000" lon="-8.453210000">
        <ele>170.600000</ele>
        <time>2020-10-17T07:49:32Z</time>
      </trkpt>
      <trkpt lat="40.177610000" lon="-8.453281000">
        <ele>170.200000</ele>
        <time>2020-10-17T07:49:33Z</time>
      </trkpt>
      <trkpt lat="40.177583000" lon="-8.453337000">
        <ele>169.600000</ele>
        <time>2020-10-17T07:49:34Z</time>
      </trkpt>
      <trkpt lat="40.177537000" lon="-8.453380000">
        <ele>169.000000</ele>
        <time>2020-10-17T07:49:35Z</time>
      </trkpt>
      <trkpt lat="40.177488000" lon="-8.453414000">
        <ele>168.600000</ele>
        <time>2020-10-17T07:49:36Z</time>
      </trkpt>
      <trkpt lat="40.177436000" lon="-8.453446000">
        <ele>168.200000</ele>
        <time>2020-10-17T07:49:37Z</time>
      </trkpt>
      <trkpt lat="40.177387000" lon="-8.453483000">
        <ele>167.800000</ele>
        <time>2020-10-17T07:49:38Z</time>
      </trkpt>
      <trkpt lat="40.177299000" lon="-8.453579000">
        <ele>167.200000</ele>
        <time>2020-10-17T07:49:40Z</time>
      </trkpt>
      <trkpt lat="40.177256000" lon="-8.453629000">
        <ele>167.000000</ele>
        <time>2020-10-17T07:49:41Z</time>
      </trkpt>
      <trkpt lat="40.177156000" lon="-8.453726000">
        <ele>166.400000</ele>
        <time>2020-10-17T07:49:43Z</time>
      </trkpt>
      <trkpt lat="40.177030000" lon="-8.453814000">
        <ele>165.400000</ele>
        <time>2020-10-17T07:49:45Z</time>
      </trkpt>
      <trkpt lat="40.176956000" lon="-8.453849000">
        <ele>165.200000</ele>
        <time>2020-10-17T07:49:46Z</time>
      </trkpt>
      <trkpt lat="40.176877000" lon="-8.453875000">
        <ele>165.200000</ele>
        <time>2020-10-17T07:49:47Z</time>
      </trkpt>
      <trkpt lat="40.176701000" lon="-8.453900000">
        <ele>164.400000</ele>
        <time>2020-10-17T07:49:49Z</time>
      </trkpt>
      <trkpt lat="40.176613000" lon="-8.453901000">
        <ele>164.000000</ele>
        <time>2020-10-17T07:49:50Z</time>
      </trkpt>
      <trkpt lat="40.176524000" lon="-8.453894000">
        <ele>163.800000</ele>
        <time>2020-10-17T07:49:51Z</time>
      </trkpt>
      <trkpt lat="40.176246000" lon="-8.453861000">
        <ele>162.400000</ele>
        <time>2020-10-17T07:49:54Z</time>
      </trkpt>
      <trkpt lat="40.176153000" lon="-8.453860000">
        <ele>162.000000</ele>
        <time>2020-10-17T07:49:55Z</time>
      </trkpt>
      <trkpt lat="40.176058000" lon="-8.453855000">
        <ele>161.600000</ele>
        <time>2020-10-17T07:49:56Z</time>
      </trkpt>
      <trkpt lat="40.175773000" lon="-8.453834000">
        <ele>159.600000</ele>
        <time>2020-10-17T07:49:59Z</time>
      </trkpt>
      <trkpt lat="40.175476000" lon="-8.453821000">
        <ele>158.200000</ele>
        <time>2020-10-17T07:50:02Z</time>
      </trkpt>
      <trkpt lat="40.175278000" lon="-8.453807000">
        <ele>156.800000</ele>
        <time>2020-10-17T07:50:04Z</time>
      </trkpt>
      <trkpt lat="40.175073000" lon="-8.453800000">
        <ele>155.800000</ele>
        <time>2020-10-17T07:50:06Z</time>
      </trkpt>
      <trkpt lat="40.174869000" lon="-8.453824000">
        <ele>155.200000</ele>
        <time>2020-10-17T07:50:08Z</time>
      </trkpt>
      <trkpt lat="40.174764000" lon="-8.453844000">
        <ele>154.200000</ele>
        <time>2020-10-17T07:50:09Z</time>
      </trkpt>
      <trkpt lat="40.174560000" lon="-8.453941000">
        <ele>153.200000</ele>
        <time>2020-10-17T07:50:11Z</time>
      </trkpt>
      <trkpt lat="40.174351000" lon="-8.454052000">
        <ele>152.000000</ele>
        <time>2020-10-17T07:50:13Z</time>
      </trkpt>
      <trkpt lat="40.174245000" lon="-8.454104000">
        <ele>151.200000</ele>
        <time>2020-10-17T07:50:14Z</time>
      </trkpt>
      <trkpt lat="40.174134000" lon="-8.454144000">
        <ele>150.200000</ele>
        <time>2020-10-17T07:50:15Z</time>
      </trkpt>
      <trkpt lat="40.173913000" lon="-8.454215000">
        <ele>148.800000</ele>
        <time>2020-10-17T07:50:17Z</time>
      </trkpt>
      <trkpt lat="40.173805000" lon="-8.454238000">
        <ele>148.200000</ele>
        <time>2020-10-17T07:50:18Z</time>
      </trkpt>
      <trkpt lat="40.173694000" lon="-8.454254000">
        <ele>147.600000</ele>
        <time>2020-10-17T07:50:19Z</time>
      </trkpt>
      <trkpt lat="40.173469000" lon="-8.454258000">
        <ele>146.200000</ele>
        <time>2020-10-17T07:50:21Z</time>
      </trkpt>
      <trkpt lat="40.173356000" lon="-8.454253000">
        <ele>145.600000</ele>
        <time>2020-10-17T07:50:22Z</time>
      </trkpt>
      <trkpt lat="40.173246000" lon="-8.454248000">
        <ele>144.800000</ele>
        <time>2020-10-17T07:50:23Z</time>
      </trkpt>
      <trkpt lat="40.173027000" lon="-8.454230000">
        <ele>143.600000</ele>
        <time>2020-10-17T07:50:25Z</time>
      </trkpt>
      <trkpt lat="40.172921000" lon="-8.454227000">
        <ele>143.000000</ele>
        <time>2020-10-17T07:50:26Z</time>
      </trkpt>
      <trkpt lat="40.172819000" lon="-8.454228000">
        <ele>142.200000</ele>
        <time>2020-10-17T07:50:27Z</time>
      </trkpt>
      <trkpt lat="40.172718000" lon="-8.454239000">
        <ele>142.200000</ele>
        <time>2020-10-17T07:50:28Z</time>
      </trkpt>
      <trkpt lat="40.172618000" lon="-8.454250000">
        <ele>141.400000</ele>
        <time>2020-10-17T07:50:29Z</time>
      </trkpt>
      <trkpt lat="40.172519000" lon="-8.454273000">
        <ele>140.600000</ele>
        <time>2020-10-17T07:50:30Z</time>
      </trkpt>
      <trkpt lat="40.172421000" lon="-8.454307000">
        <ele>140.000000</ele>
        <time>2020-10-17T07:50:31Z</time>
      </trkpt>
      <trkpt lat="40.172325000" lon="-8.454353000">
        <ele>139.200000</ele>
        <time>2020-10-17T07:50:32Z</time>
      </trkpt>
      <trkpt lat="40.172145000" lon="-8.454472000">
        <ele>138.000000</ele>
        <time>2020-10-17T07:50:34Z</time>
      </trkpt>
      <trkpt lat="40.171972000" lon="-8.454614000">
        <ele>136.600000</ele>
        <time>2020-10-17T07:50:36Z</time>
      </trkpt>
      <trkpt lat="40.171887000" lon="-8.454690000">
        <ele>136.000000</ele>
        <time>2020-10-17T07:50:37Z</time>
      </trkpt>
      <trkpt lat="40.171716000" lon="-8.454855000">
        <ele>134.600000</ele>
        <time>2020-10-17T07:50:39Z</time>
      </trkpt>
      <trkpt lat="40.171544000" lon="-8.455023000">
        <ele>133.200000</ele>
        <time>2020-10-17T07:50:41Z</time>
      </trkpt>
      <trkpt lat="40.171371000" lon="-8.455193000">
        <ele>132.000000</ele>
        <time>2020-10-17T07:50:43Z</time>
      </trkpt>
      <trkpt lat="40.171197000" lon="-8.455354000">
        <ele>131.000000</ele>
        <time>2020-10-17T07:50:45Z</time>
      </trkpt>
      <trkpt lat="40.171016000" lon="-8.455515000">
        <ele>130.000000</ele>
        <time>2020-10-17T07:50:47Z</time>
      </trkpt>
      <trkpt lat="40.170742000" lon="-8.455758000">
        <ele>128.800000</ele>
        <time>2020-10-17T07:50:50Z</time>
      </trkpt>
      <trkpt lat="40.170650000" lon="-8.455841000">
        <ele>128.200000</ele>
        <time>2020-10-17T07:50:51Z</time>
      </trkpt>
      <trkpt lat="40.170558000" lon="-8.455924000">
        <ele>127.400000</ele>
        <time>2020-10-17T07:50:52Z</time>
      </trkpt>
      <trkpt lat="40.170274000" lon="-8.456163000">
        <ele>125.200000</ele>
        <time>2020-10-17T07:50:55Z</time>
      </trkpt>
      <trkpt lat="40.170074000" lon="-8.456312000">
        <ele>124.000000</ele>
        <time>2020-10-17T07:50:57Z</time>
      </trkpt>
      <trkpt lat="40.169976000" lon="-8.456376000">
        <ele>123.400000</ele>
        <time>2020-10-17T07:50:58Z</time>
      </trkpt>
      <trkpt lat="40.169876000" lon="-8.456437000">
        <ele>122.600000</ele>
        <time>2020-10-17T07:50:59Z</time>
      </trkpt>
      <trkpt lat="40.169776000" lon="-8.456497000">
        <ele>122.000000</ele>
        <time>2020-10-17T07:51:00Z</time>
      </trkpt>
      <trkpt lat="40.169677000" lon="-8.456557000">
        <ele>121.400000</ele>
        <time>2020-10-17T07:51:01Z</time>
      </trkpt>
      <trkpt lat="40.169579000" lon="-8.456619000">
        <ele>120.800000</ele>
        <time>2020-10-17T07:51:02Z</time>
      </trkpt>
      <trkpt lat="40.169485000" lon="-8.456687000">
        <ele>120.400000</ele>
        <time>2020-10-17T07:51:03Z</time>
      </trkpt>
      <trkpt lat="40.169398000" lon="-8.456758000">
        <ele>119.600000</ele>
        <time>2020-10-17T07:51:04Z</time>
      </trkpt>
      <trkpt lat="40.169313000" lon="-8.456833000">
        <ele>119.200000</ele>
        <time>2020-10-17T07:51:05Z</time>
      </trkpt>
      <trkpt lat="40.169232000" lon="-8.456913000">
        <ele>118.600000</ele>
        <time>2020-10-17T07:51:06Z</time>
      </trkpt>
      <trkpt lat="40.169155000" lon="-8.456994000">
        <ele>118.200000</ele>
        <time>2020-10-17T07:51:07Z</time>
      </trkpt>
      <trkpt lat="40.169080000" lon="-8.457074000">
        <ele>118.200000</ele>
        <time>2020-10-17T07:51:08Z</time>
      </trkpt>
      <trkpt lat="40.169006000" lon="-8.457154000">
        <ele>117.400000</ele>
        <time>2020-10-17T07:51:09Z</time>
      </trkpt>
      <trkpt lat="40.168933000" lon="-8.457230000">
        <ele>117.200000</ele>
        <time>2020-10-17T07:51:10Z</time>
      </trkpt>
      <trkpt lat="40.168861000" lon="-8.457306000">
        <ele>116.800000</ele>
        <time>2020-10-17T07:51:11Z</time>
      </trkpt>
      <trkpt lat="40.168789000" lon="-8.457382000">
        <ele>116.200000</ele>
        <time>2020-10-17T07:51:12Z</time>
      </trkpt>
      <trkpt lat="40.168357000" lon="-8.457837000">
        <ele>115.400000</ele>
        <time>2020-10-17T07:51:18Z</time>
      </trkpt>
      <trkpt lat="40.168288000" lon="-8.457914000">
        <ele>115.200000</ele>
        <time>2020-10-17T07:51:19Z</time>
      </trkpt>
      <trkpt lat="40.168220000" lon="-8.457990000">
        <ele>114.800000</ele>
        <time>2020-10-17T07:51:20Z</time>
      </trkpt>
      <trkpt lat="40.168153000" lon="-8.458067000">
        <ele>114.800000</ele>
        <time>2020-10-17T07:51:21Z</time>
      </trkpt>
      <trkpt lat="40.168017000" lon="-8.458216000">
        <ele>114.400000</ele>
        <time>2020-10-17T07:51:23Z</time>
      </trkpt>
      <trkpt lat="40.167884000" lon="-8.458370000">
        <ele>114.200000</ele>
        <time>2020-10-17T07:51:25Z</time>
      </trkpt>
      <trkpt lat="40.167820000" lon="-8.458447000">
        <ele>114.000000</ele>
        <time>2020-10-17T07:51:26Z</time>
      </trkpt>
      <trkpt lat="40.167757000" lon="-8.458524000">
        <ele>113.800000</ele>
        <time>2020-10-17T07:51:27Z</time>
      </trkpt>
      <trkpt lat="40.167498000" lon="-8.458826000">
        <ele>113.400000</ele>
        <time>2020-10-17T07:51:31Z</time>
      </trkpt>
      <trkpt lat="40.167433000" lon="-8.458900000">
        <ele>113.200000</ele>
        <time>2020-10-17T07:51:32Z</time>
      </trkpt>
      <trkpt lat="40.167370000" lon="-8.458972000">
        <ele>113.000000</ele>
        <time>2020-10-17T07:51:33Z</time>
      </trkpt>
      <trkpt lat="40.167306000" lon="-8.459044000">
        <ele>112.800000</ele>
        <time>2020-10-17T07:51:34Z</time>
      </trkpt>
      <trkpt lat="40.167111000" lon="-8.459264000">
        <ele>112.000000</ele>
        <time>2020-10-17T07:51:37Z</time>
      </trkpt>
      <trkpt lat="40.167048000" lon="-8.459331000">
        <ele>112.000000</ele>
        <time>2020-10-17T07:51:38Z</time>
      </trkpt>
      <trkpt lat="40.166985000" lon="-8.459390000">
        <ele>111.800000</ele>
        <time>2020-10-17T07:51:39Z</time>
      </trkpt>
      <trkpt lat="40.166919000" lon="-8.459436000">
        <ele>111.600000</ele>
        <time>2020-10-17T07:51:40Z</time>
      </trkpt>
      <trkpt lat="40.166852000" lon="-8.459475000">
        <ele>111.400000</ele>
        <time>2020-10-17T07:51:41Z</time>
      </trkpt>
      <trkpt lat="40.166785000" lon="-8.459514000">
        <ele>111.400000</ele>
        <time>2020-10-17T07:51:42Z</time>
      </trkpt>
      <trkpt lat="40.166561000" lon="-8.459602000">
        <ele>111.200000</ele>
        <time>2020-10-17T07:51:45Z</time>
      </trkpt>
      <trkpt lat="40.166485000" lon="-8.459628000">
        <ele>111.000000</ele>
        <time>2020-10-17T07:51:46Z</time>
      </trkpt>
      <trkpt lat="40.166163000" lon="-8.459719000">
        <ele>110.800000</ele>
        <time>2020-10-17T07:51:50Z</time>
      </trkpt>
      <trkpt lat="40.165834000" lon="-8.459800000">
        <ele>109.800000</ele>
        <time>2020-10-17T07:51:54Z</time>
      </trkpt>
      <trkpt lat="40.165753000" lon="-8.459819000">
        <ele>109.600000</ele>
        <time>2020-10-17T07:51:55Z</time>
      </trkpt>
      <trkpt lat="40.165675000" lon="-8.459840000">
        <ele>109.200000</ele>
        <time>2020-10-17T07:51:56Z</time>
      </trkpt>
      <trkpt lat="40.165600000" lon="-8.459871000">
        <ele>109.000000</ele>
        <time>2020-10-17T07:51:57Z</time>
      </trkpt>
      <trkpt lat="40.165530000" lon="-8.459916000">
        <ele>108.600000</ele>
        <time>2020-10-17T07:51:58Z</time>
      </trkpt>
      <trkpt lat="40.165470000" lon="-8.459972000">
        <ele>108.400000</ele>
        <time>2020-10-17T07:51:59Z</time>
      </trkpt>
      <trkpt lat="40.165409000" lon="-8.460026000">
        <ele>108.200000</ele>
        <time>2020-10-17T07:52:00Z</time>
      </trkpt>
      <trkpt lat="40.165344000" lon="-8.460063000">
        <ele>108.000000</ele>
        <time>2020-10-17T07:52:01Z</time>
      </trkpt>
      <trkpt lat="40.165283000" lon="-8.460072000">
        <ele>107.800000</ele>
        <time>2020-10-17T07:52:02Z</time>
      </trkpt>
      <trkpt lat="40.165215000" lon="-8.460046000">
        <ele>107.400000</ele>
        <time>2020-10-17T07:52:03Z</time>
      </trkpt>
      <trkpt lat="40.165148000" lon="-8.460021000">
        <ele>107.400000</ele>
        <time>2020-10-17T07:52:04Z</time>
      </trkpt>
      <trkpt lat="40.165082000" lon="-8.460000000">
        <ele>107.200000</ele>
        <time>2020-10-17T07:52:05Z</time>
      </trkpt>
      <trkpt lat="40.165014000" lon="-8.459987000">
        <ele>106.800000</ele>
        <time>2020-10-17T07:52:06Z</time>
      </trkpt>
      <trkpt lat="40.164733000" lon="-8.459961000">
        <ele>106.400000</ele>
        <time>2020-10-17T07:52:10Z</time>
      </trkpt>
      <trkpt lat="40.164511000" lon="-8.459930000">
        <ele>106.000000</ele>
        <time>2020-10-17T07:52:13Z</time>
      </trkpt>
      <trkpt lat="40.164366000" lon="-8.459928000">
        <ele>105.600000</ele>
        <time>2020-10-17T07:52:15Z</time>
      </trkpt>
      <trkpt lat="40.164292000" lon="-8.459930000">
        <ele>105.400000</ele>
        <time>2020-10-17T07:52:16Z</time>
      </trkpt>
      <trkpt lat="40.164218000" lon="-8.459930000">
        <ele>105.200000</ele>
        <time>2020-10-17T07:52:17Z</time>
      </trkpt>
      <trkpt lat="40.163830000" lon="-8.459944000">
        <ele>104.800000</ele>
        <time>2020-10-17T07:52:22Z</time>
      </trkpt>
      <trkpt lat="40.163668000" lon="-8.459977000">
        <ele>104.600000</ele>
        <time>2020-10-17T07:52:24Z</time>
      </trkpt>
      <trkpt lat="40.163588000" lon="-8.460002000">
        <ele>104.200000</ele>
        <time>2020-10-17T07:52:25Z</time>
      </trkpt>
      <trkpt lat="40.163276000" lon="-8.460170000">
        <ele>103.600000</ele>
        <time>2020-10-17T07:52:29Z</time>
      </trkpt>
      <trkpt lat="40.163203000" lon="-8.460221000">
        <ele>103.400000</ele>
        <time>2020-10-17T07:52:30Z</time>
      </trkpt>
      <trkpt lat="40.163135000" lon="-8.460270000">
        <ele>103.000000</ele>
        <time>2020-10-17T07:52:31Z</time>
      </trkpt>
      <trkpt lat="40.163070000" lon="-8.460320000">
        <ele>102.600000</ele>
        <time>2020-10-17T07:52:32Z</time>
      </trkpt>
      <trkpt lat="40.163005000" lon="-8.460373000">
        <ele>102.200000</ele>
        <time>2020-10-17T07:52:33Z</time>
      </trkpt>
      <trkpt lat="40.162873000" lon="-8.460485000">
        <ele>101.600000</ele>
        <time>2020-10-17T07:52:35Z</time>
      </trkpt>
      <trkpt lat="40.162676000" lon="-8.460667000">
        <ele>100.800000</ele>
        <time>2020-10-17T07:52:38Z</time>
      </trkpt>
      <trkpt lat="40.162612000" lon="-8.460731000">
        <ele>100.600000</ele>
        <time>2020-10-17T07:52:39Z</time>
      </trkpt>
      <trkpt lat="40.162551000" lon="-8.460794000">
        <ele>100.400000</ele>
        <time>2020-10-17T07:52:40Z</time>
      </trkpt>
      <trkpt lat="40.162427000" lon="-8.460930000">
        <ele>100.400000</ele>
        <time>2020-10-17T07:52:42Z</time>
      </trkpt>
      <trkpt lat="40.162303000" lon="-8.461064000">
        <ele>99.800000</ele>
        <time>2020-10-17T07:52:44Z</time>
      </trkpt>
      <trkpt lat="40.162182000" lon="-8.461210000">
        <ele>99.600000</ele>
        <time>2020-10-17T07:52:46Z</time>
      </trkpt>
      <trkpt lat="40.162122000" lon="-8.461287000">
        <ele>99.400000</ele>
        <time>2020-10-17T07:52:47Z</time>
      </trkpt>
      <trkpt lat="40.162063000" lon="-8.461366000">
        <ele>99.400000</ele>
        <time>2020-10-17T07:52:48Z</time>
      </trkpt>
      <trkpt lat="40.162007000" lon="-8.461445000">
        <ele>99.400000</ele>
        <time>2020-10-17T07:52:49Z</time>
      </trkpt>
      <trkpt lat="40.161844000" lon="-8.461676000">
        <ele>99.200000</ele>
        <time>2020-10-17T07:52:52Z</time>
      </trkpt>
      <trkpt lat="40.161792000" lon="-8.461752000">
        <ele>99.000000</ele>
        <time>2020-10-17T07:52:53Z</time>
      </trkpt>
      <trkpt lat="40.161742000" lon="-8.461825000">
        <ele>99.000000</ele>
        <time>2020-10-17T07:52:54Z</time>
      </trkpt>
      <trkpt lat="40.161582000" lon="-8.462027000">
        <ele>99.000000</ele>
        <time>2020-10-17T07:52:57Z</time>
      </trkpt>
      <trkpt lat="40.161331000" lon="-8.462221000">
        <ele>99.000000</ele>
        <time>2020-10-17T07:53:01Z</time>
      </trkpt>
      <trkpt lat="40.161266000" lon="-8.462260000">
        <ele>99.000000</ele>
        <time>2020-10-17T07:53:02Z</time>
      </trkpt>
      <trkpt lat="40.161135000" lon="-8.462329000">
        <ele>99.000000</ele>
        <time>2020-10-17T07:53:04Z</time>
      </trkpt>
      <trkpt lat="40.161073000" lon="-8.462356000">
        <ele>99.000000</ele>
        <time>2020-10-17T07:53:05Z</time>
      </trkpt>
      <trkpt lat="40.161012000" lon="-8.462384000">
        <ele>99.200000</ele>
        <time>2020-10-17T07:53:06Z</time>
      </trkpt>
      <trkpt lat="40.160953000" lon="-8.462410000">
        <ele>99.200000</ele>
        <time>2020-10-17T07:53:07Z</time>
      </trkpt>
      <trkpt lat="40.160893000" lon="-8.462435000">
        <ele>99.400000</ele>
        <time>2020-10-17T07:53:08Z</time>
      </trkpt>
      <trkpt lat="40.160833000" lon="-8.462458000">
        <ele>99.400000</ele>
        <time>2020-10-17T07:53:09Z</time>
      </trkpt>
      <trkpt lat="40.160775000" lon="-8.462483000">
        <ele>99.400000</ele>
        <time>2020-10-17T07:53:10Z</time>
      </trkpt>
      <trkpt lat="40.160718000" lon="-8.462509000">
        <ele>99.400000</ele>
        <time>2020-10-17T07:53:11Z</time>
      </trkpt>
      <trkpt lat="40.160661000" lon="-8.462534000">
        <ele>99.600000</ele>
        <time>2020-10-17T07:53:12Z</time>
      </trkpt>
      <trkpt lat="40.160603000" lon="-8.462555000">
        <ele>99.600000</ele>
        <time>2020-10-17T07:53:13Z</time>
      </trkpt>
      <trkpt lat="40.160547000" lon="-8.462577000">
        <ele>100.000000</ele>
        <time>2020-10-17T07:53:14Z</time>
      </trkpt>
      <trkpt lat="40.160491000" lon="-8.462599000">
        <ele>100.000000</ele>
        <time>2020-10-17T07:53:15Z</time>
      </trkpt>
      <trkpt lat="40.160437000" lon="-8.462616000">
        <ele>100.200000</ele>
        <time>2020-10-17T07:53:16Z</time>
      </trkpt>
      <trkpt lat="40.160384000" lon="-8.462631000">
        <ele>100.400000</ele>
        <time>2020-10-17T07:53:17Z</time>
      </trkpt>
      <trkpt lat="40.160331000" lon="-8.462645000">
        <ele>100.600000</ele>
        <time>2020-10-17T07:53:18Z</time>
      </trkpt>
      <trkpt lat="40.160277000" lon="-8.462659000">
        <ele>100.800000</ele>
        <time>2020-10-17T07:53:19Z</time>
      </trkpt>
      <trkpt lat="40.160223000" lon="-8.462671000">
        <ele>101.000000</ele>
        <time>2020-10-17T07:53:20Z</time>
      </trkpt>
      <trkpt lat="40.160170000" lon="-8.462684000">
        <ele>101.400000</ele>
        <time>2020-10-17T07:53:21Z</time>
      </trkpt>
      <trkpt lat="40.160117000" lon="-8.462693000">
        <ele>101.600000</ele>
        <time>2020-10-17T07:53:22Z</time>
      </trkpt>
      <trkpt lat="40.160066000" lon="-8.462704000">
        <ele>101.800000</ele>
        <time>2020-10-17T07:53:23Z</time>
      </trkpt>
      <trkpt lat="40.160016000" lon="-8.462715000">
        <ele>102.200000</ele>
        <time>2020-10-17T07:53:24Z</time>
      </trkpt>
      <trkpt lat="40.159965000" lon="-8.462725000">
        <ele>102.400000</ele>
        <time>2020-10-17T07:53:25Z</time>
      </trkpt>
      <trkpt lat="40.159915000" lon="-8.462731000">
        <ele>102.600000</ele>
        <time>2020-10-17T07:53:26Z</time>
      </trkpt>
      <trkpt lat="40.159864000" lon="-8.462736000">
        <ele>102.600000</ele>
        <time>2020-10-17T07:53:27Z</time>
      </trkpt>
      <trkpt lat="40.159813000" lon="-8.462741000">
        <ele>103.000000</ele>
        <time>2020-10-17T07:53:28Z</time>
      </trkpt>
      <trkpt lat="40.159763000" lon="-8.462746000">
        <ele>103.200000</ele>
        <time>2020-10-17T07:53:29Z</time>
      </trkpt>
      <trkpt lat="40.159713000" lon="-8.462750000">
        <ele>103.200000</ele>
        <time>2020-10-17T07:53:30Z</time>
      </trkpt>
      <trkpt lat="40.159664000" lon="-8.462754000">
        <ele>103.400000</ele>
        <time>2020-10-17T07:53:31Z</time>
      </trkpt>
      <trkpt lat="40.159615000" lon="-8.462758000">
        <ele>103.600000</ele>
        <time>2020-10-17T07:53:32Z</time>
      </trkpt>
      <trkpt lat="40.159567000" lon="-8.462767000">
        <ele>103.800000</ele>
        <time>2020-10-17T07:53:33Z</time>
      </trkpt>
      <trkpt lat="40.159521000" lon="-8.462772000">
        <ele>104.200000</ele>
        <time>2020-10-17T07:53:34Z</time>
      </trkpt>
      <trkpt lat="40.159475000" lon="-8.462776000">
        <ele>104.400000</ele>
        <time>2020-10-17T07:53:35Z</time>
      </trkpt>
      <trkpt lat="40.159430000" lon="-8.462780000">
        <ele>104.400000</ele>
        <time>2020-10-17T07:53:36Z</time>
      </trkpt>
      <trkpt lat="40.159386000" lon="-8.462783000">
        <ele>104.600000</ele>
        <time>2020-10-17T07:53:37Z</time>
      </trkpt>
      <trkpt lat="40.159343000" lon="-8.462787000">
        <ele>104.800000</ele>
        <time>2020-10-17T07:53:38Z</time>
      </trkpt>
      <trkpt lat="40.159300000" lon="-8.462792000">
        <ele>105.200000</ele>
        <time>2020-10-17T07:53:39Z</time>
      </trkpt>
      <trkpt lat="40.159257000" lon="-8.462799000">
        <ele>105.400000</ele>
        <time>2020-10-17T07:53:40Z</time>
      </trkpt>
      <trkpt lat="40.159213000" lon="-8.462807000">
        <ele>105.600000</ele>
        <time>2020-10-17T07:53:41Z</time>
      </trkpt>
      <trkpt lat="40.159171000" lon="-8.462814000">
        <ele>105.800000</ele>
        <time>2020-10-17T07:53:42Z</time>
      </trkpt>
      <trkpt lat="40.159130000" lon="-8.462822000">
        <ele>106.000000</ele>
        <time>2020-10-17T07:53:43Z</time>
      </trkpt>
      <trkpt lat="40.159088000" lon="-8.462828000">
        <ele>106.400000</ele>
        <time>2020-10-17T07:53:44Z</time>
      </trkpt>
      <trkpt lat="40.159046000" lon="-8.462835000">
        <ele>106.600000</ele>
        <time>2020-10-17T07:53:45Z</time>
      </trkpt>
      <trkpt lat="40.159004000" lon="-8.462845000">
        <ele>106.800000</ele>
        <time>2020-10-17T07:53:46Z</time>
      </trkpt>
      <trkpt lat="40.158962000" lon="-8.462855000">
        <ele>107.200000</ele>
        <time>2020-10-17T07:53:47Z</time>
      </trkpt>
      <trkpt lat="40.158922000" lon="-8.462868000">
        <ele>107.400000</ele>
        <time>2020-10-17T07:53:48Z</time>
      </trkpt>
      <trkpt lat="40.158883000" lon="-8.462881000">
        <ele>107.400000</ele>
        <time>2020-10-17T07:53:49Z</time>
      </trkpt>
      <trkpt lat="40.158845000" lon="-8.462894000">
        <ele>107.400000</ele>
        <time>2020-10-17T07:53:50Z</time>
      </trkpt>
      <trkpt lat="40.158807000" lon="-8.462908000">
        <ele>107.600000</ele>
        <time>2020-10-17T07:53:51Z</time>
      </trkpt>
      <trkpt lat="40.158769000" lon="-8.462920000">
        <ele>108.000000</ele>
        <time>2020-10-17T07:53:52Z</time>
      </trkpt>
      <trkpt lat="40.158732000" lon="-8.462929000">
        <ele>108.200000</ele>
        <time>2020-10-17T07:53:53Z</time>
      </trkpt>
      <trkpt lat="40.158696000" lon="-8.462941000">
        <ele>108.400000</ele>
        <time>2020-10-17T07:53:54Z</time>
      </trkpt>
      <trkpt lat="40.158661000" lon="-8.462954000">
        <ele>108.600000</ele>
        <time>2020-10-17T07:53:55Z</time>
      </trkpt>
      <trkpt lat="40.158627000" lon="-8.462968000">
        <ele>108.800000</ele>
        <time>2020-10-17T07:53:56Z</time>
      </trkpt>
      <trkpt lat="40.158591000" lon="-8.462981000">
        <ele>109.000000</ele>
        <time>2020-10-17T07:53:57Z</time>
      </trkpt>
      <trkpt lat="40.158556000" lon="-8.462996000">
        <ele>109.200000</ele>
        <time>2020-10-17T07:53:58Z</time>
      </trkpt>
      <trkpt lat="40.158522000" lon="-8.463013000">
        <ele>109.600000</ele>
        <time>2020-10-17T07:53:59Z</time>
      </trkpt>
      <trkpt lat="40.158486000" lon="-8.463029000">
        <ele>109.800000</ele>
        <time>2020-10-17T07:54:00Z</time>
      </trkpt>
      <trkpt lat="40.158453000" lon="-8.463046000">
        <ele>109.800000</ele>
        <time>2020-10-17T07:54:01Z</time>
      </trkpt>
      <trkpt lat="40.158422000" lon="-8.463062000">
        <ele>110.200000</ele>
        <time>2020-10-17T07:54:02Z</time>
      </trkpt>
      <trkpt lat="40.158390000" lon="-8.463076000">
        <ele>110.400000</ele>
        <time>2020-10-17T07:54:03Z</time>
      </trkpt>
      <trkpt lat="40.158356000" lon="-8.463091000">
        <ele>110.800000</ele>
        <time>2020-10-17T07:54:04Z</time>
      </trkpt>
      <trkpt lat="40.158323000" lon="-8.463106000">
        <ele>111.000000</ele>
        <time>2020-10-17T07:54:05Z</time>
      </trkpt>
      <trkpt lat="40.158292000" lon="-8.463122000">
        <ele>111.400000</ele>
        <time>2020-10-17T07:54:06Z</time>
      </trkpt>
      <trkpt lat="40.158259000" lon="-8.463140000">
        <ele>111.600000</ele>
        <time>2020-10-17T07:54:07Z</time>
      </trkpt>
      <trkpt lat="40.158227000" lon="-8.463157000">
        <ele>111.800000</ele>
        <time>2020-10-17T07:54:08Z</time>
      </trkpt>
      <trkpt lat="40.158194000" lon="-8.463174000">
        <ele>112.200000</ele>
        <time>2020-10-17T07:54:09Z</time>
      </trkpt>
      <trkpt lat="40.158162000" lon="-8.463192000">
        <ele>112.400000</ele>
        <time>2020-10-17T07:54:10Z</time>
      </trkpt>
      <trkpt lat="40.158128000" lon="-8.463208000">
        <ele>112.400000</ele>
        <time>2020-10-17T07:54:11Z</time>
      </trkpt>
      <trkpt lat="40.158095000" lon="-8.463221000">
        <ele>112.800000</ele>
        <time>2020-10-17T07:54:12Z</time>
      </trkpt>
      <trkpt lat="40.158064000" lon="-8.463234000">
        <ele>113.200000</ele>
        <time>2020-10-17T07:54:13Z</time>
      </trkpt>
      <trkpt lat="40.158032000" lon="-8.463252000">
        <ele>113.200000</ele>
        <time>2020-10-17T07:54:14Z</time>
      </trkpt>
      <trkpt lat="40.158000000" lon="-8.463270000">
        <ele>113.400000</ele>
        <time>2020-10-17T07:54:15Z</time>
      </trkpt>
      <trkpt lat="40.157970000" lon="-8.463288000">
        <ele>113.800000</ele>
        <time>2020-10-17T07:54:16Z</time>
      </trkpt>
      <trkpt lat="40.157939000" lon="-8.463306000">
        <ele>113.600000</ele>
        <time>2020-10-17T07:54:17Z</time>
      </trkpt>
      <trkpt lat="40.157908000" lon="-8.463323000">
        <ele>114.000000</ele>
        <time>2020-10-17T07:54:18Z</time>
      </trkpt>
      <trkpt lat="40.157878000" lon="-8.463339000">
        <ele>114.200000</ele>
        <time>2020-10-17T07:54:19Z</time>
      </trkpt>
      <trkpt lat="40.157848000" lon="-8.463355000">
        <ele>114.400000</ele>
        <time>2020-10-17T07:54:20Z</time>
      </trkpt>
      <trkpt lat="40.157818000" lon="-8.463372000">
        <ele>114.800000</ele>
        <time>2020-10-17T07:54:21Z</time>
      </trkpt>
      <trkpt lat="40.157788000" lon="-8.463389000">
        <ele>115.000000</ele>
        <time>2020-10-17T07:54:22Z</time>
      </trkpt>
      <trkpt lat="40.157757000" lon="-8.463405000">
        <ele>115.400000</ele>
        <time>2020-10-17T07:54:23Z</time>
      </trkpt>
      <trkpt lat="40.157726000" lon="-8.463421000">
        <ele>115.600000</ele>
        <time>2020-10-17T07:54:24Z</time>
      </trkpt>
      <trkpt lat="40.157695000" lon="-8.463437000">
        <ele>116.000000</ele>
        <time>2020-10-17T07:54:25Z</time>
      </trkpt>
      <trkpt lat="40.157664000" lon="-8.463453000">
        <ele>116.000000</ele>
        <time>2020-10-17T07:54:26Z</time>
      </trkpt>
      <trkpt lat="40.157634000" lon="-8.463469000">
        <ele>116.400000</ele>
        <time>2020-10-17T07:54:27Z</time>
      </trkpt>
      <trkpt lat="40.157603000" lon="-8.463483000">
        <ele>116.600000</ele>
        <time>2020-10-17T07:54:28Z</time>
      </trkpt>
      <trkpt lat="40.157572000" lon="-8.463499000">
        <ele>117.000000</ele>
        <time>2020-10-17T07:54:29Z</time>
      </trkpt>
      <trkpt lat="40.157542000" lon="-8.463516000">
        <ele>117.200000</ele>
        <time>2020-10-17T07:54:30Z</time>
      </trkpt>
      <trkpt lat="40.157514000" lon="-8.463531000">
        <ele>117.200000</ele>
        <time>2020-10-17T07:54:31Z</time>
      </trkpt>
      <trkpt lat="40.157485000" lon="-8.463545000">
        <ele>117.400000</ele>
        <time>2020-10-17T07:54:32Z</time>
      </trkpt>
      <trkpt lat="40.157457000" lon="-8.463561000">
        <ele>117.800000</ele>
        <time>2020-10-17T07:54:33Z</time>
      </trkpt>
      <trkpt lat="40.157428000" lon="-8.463577000">
        <ele>118.000000</ele>
        <time>2020-10-17T07:54:34Z</time>
      </trkpt>
      <trkpt lat="40.157400000" lon="-8.463589000">
        <ele>118.200000</ele>
        <time>2020-10-17T07:54:35Z</time>
      </trkpt>
      <trkpt lat="40.157372000" lon="-8.463603000">
        <ele>118.400000</ele>
        <time>2020-10-17T07:54:36Z</time>
      </trkpt>
      <trkpt lat="40.157344000" lon="-8.463617000">
        <ele>118.800000</ele>
        <time>2020-10-17T07:54:37Z</time>
      </trkpt>
      <trkpt lat="40.157316000" lon="-8.463627000">
        <ele>119.000000</ele>
        <time>2020-10-17T07:54:38Z</time>
      </trkpt>
      <trkpt lat="40.157288000" lon="-8.463635000">
        <ele>119.200000</ele>
        <time>2020-10-17T07:54:39Z</time>
      </trkpt>
      <trkpt lat="40.157260000" lon="-8.463642000">
        <ele>119.400000</ele>
        <time>2020-10-17T07:54:40Z</time>
      </trkpt>
      <trkpt lat="40.157233000" lon="-8.463652000">
        <ele>119.600000</ele>
        <time>2020-10-17T07:54:41Z</time>
      </trkpt>
      <trkpt lat="40.157207000" lon="-8.463666000">
        <ele>120.000000</ele>
        <time>2020-10-17T07:54:42Z</time>
      </trkpt>
      <trkpt lat="40.157181000" lon="-8.463681000">
        <ele>120.400000</ele>
        <time>2020-10-17T07:54:43Z</time>
      </trkpt>
      <trkpt lat="40.157153000" lon="-8.463695000">
        <ele>120.600000</ele>
        <time>2020-10-17T07:54:44Z</time>
      </trkpt>
      <trkpt lat="40.157125000" lon="-8.463706000">
        <ele>120.800000</ele>
        <time>2020-10-17T07:54:45Z</time>
      </trkpt>
      <trkpt lat="40.157098000" lon="-8.463717000">
        <ele>121.000000</ele>
        <time>2020-10-17T07:54:46Z</time>
      </trkpt>
      <trkpt lat="40.157070000" lon="-8.463730000">
        <ele>121.200000</ele>
        <time>2020-10-17T07:54:47Z</time>
      </trkpt>
      <trkpt lat="40.157043000" lon="-8.463744000">
        <ele>121.600000</ele>
        <time>2020-10-17T07:54:48Z</time>
      </trkpt>
      <trkpt lat="40.157016000" lon="-8.463756000">
        <ele>121.800000</ele>
        <time>2020-10-17T07:54:49Z</time>
      </trkpt>
      <trkpt lat="40.156987000" lon="-8.463768000">
        <ele>122.000000</ele>
        <time>2020-10-17T07:54:50Z</time>
      </trkpt>
      <trkpt lat="40.156957000" lon="-8.463780000">
        <ele>122.200000</ele>
        <time>2020-10-17T07:54:51Z</time>
      </trkpt>
      <trkpt lat="40.156926000" lon="-8.463793000">
        <ele>122.200000</ele>
        <time>2020-10-17T07:54:52Z</time>
      </trkpt>
      <trkpt lat="40.156897000" lon="-8.463805000">
        <ele>122.400000</ele>
        <time>2020-10-17T07:54:53Z</time>
      </trkpt>
      <trkpt lat="40.156867000" lon="-8.463819000">
        <ele>122.400000</ele>
        <time>2020-10-17T07:54:54Z</time>
      </trkpt>
      <trkpt lat="40.156835000" lon="-8.463834000">
        <ele>122.800000</ele>
        <time>2020-10-17T07:54:55Z</time>
      </trkpt>
      <trkpt lat="40.156802000" lon="-8.463848000">
        <ele>123.000000</ele>
        <time>2020-10-17T07:54:56Z</time>
      </trkpt>
      <trkpt lat="40.156768000" lon="-8.463861000">
        <ele>123.400000</ele>
        <time>2020-10-17T07:54:57Z</time>
      </trkpt>
      <trkpt lat="40.156734000" lon="-8.463875000">
        <ele>123.600000</ele>
        <time>2020-10-17T07:54:58Z</time>
      </trkpt>
      <trkpt lat="40.156701000" lon="-8.463886000">
        <ele>123.800000</ele>
        <time>2020-10-17T07:54:59Z</time>
      </trkpt>
      <trkpt lat="40.156667000" lon="-8.463896000">
        <ele>123.800000</ele>
        <time>2020-10-17T07:55:00Z</time>
      </trkpt>
      <trkpt lat="40.156634000" lon="-8.463906000">
        <ele>124.000000</ele>
        <time>2020-10-17T07:55:01Z</time>
      </trkpt>
      <trkpt lat="40.156602000" lon="-8.463917000">
        <ele>124.200000</ele>
        <time>2020-10-17T07:55:02Z</time>
      </trkpt>
      <trkpt lat="40.156571000" lon="-8.463929000">
        <ele>124.200000</ele>
        <time>2020-10-17T07:55:03Z</time>
      </trkpt>
      <trkpt lat="40.156541000" lon="-8.463943000">
        <ele>124.400000</ele>
        <time>2020-10-17T07:55:04Z</time>
      </trkpt>
      <trkpt lat="40.156510000" lon="-8.463957000">
        <ele>124.400000</ele>
        <time>2020-10-17T07:55:05Z</time>
      </trkpt>
      <trkpt lat="40.156477000" lon="-8.463968000">
        <ele>124.600000</ele>
        <time>2020-10-17T07:55:06Z</time>
      </trkpt>
      <trkpt lat="40.156445000" lon="-8.463979000">
        <ele>124.600000</ele>
        <time>2020-10-17T07:55:07Z</time>
      </trkpt>
      <trkpt lat="40.156415000" lon="-8.463991000">
        <ele>124.800000</ele>
        <time>2020-10-17T07:55:08Z</time>
      </trkpt>
      <trkpt lat="40.156383000" lon="-8.464001000">
        <ele>125.200000</ele>
        <time>2020-10-17T07:55:09Z</time>
      </trkpt>
      <trkpt lat="40.156352000" lon="-8.464012000">
        <ele>125.200000</ele>
        <time>2020-10-17T07:55:10Z</time>
      </trkpt>
      <trkpt lat="40.156323000" lon="-8.464021000">
        <ele>125.400000</ele>
        <time>2020-10-17T07:55:11Z</time>
      </trkpt>
      <trkpt lat="40.156293000" lon="-8.464031000">
        <ele>125.400000</ele>
        <time>2020-10-17T07:55:12Z</time>
      </trkpt>
      <trkpt lat="40.156263000" lon="-8.464043000">
        <ele>125.600000</ele>
        <time>2020-10-17T07:55:13Z</time>
      </trkpt>
      <trkpt lat="40.156231000" lon="-8.464055000">
        <ele>125.600000</ele>
        <time>2020-10-17T07:55:14Z</time>
      </trkpt>
      <trkpt lat="40.156199000" lon="-8.464067000">
        <ele>125.800000</ele>
        <time>2020-10-17T07:55:15Z</time>
      </trkpt>
      <trkpt lat="40.156167000" lon="-8.464075000">
        <ele>126.000000</ele>
        <time>2020-10-17T07:55:16Z</time>
      </trkpt>
      <trkpt lat="40.156134000" lon="-8.464080000">
        <ele>126.400000</ele>
        <time>2020-10-17T07:55:17Z</time>
      </trkpt>
      <trkpt lat="40.156100000" lon="-8.464086000">
        <ele>126.600000</ele>
        <time>2020-10-17T07:55:18Z</time>
      </trkpt>
      <trkpt lat="40.156064000" lon="-8.464090000">
        <ele>126.800000</ele>
        <time>2020-10-17T07:55:19Z</time>
      </trkpt>
      <trkpt lat="40.156029000" lon="-8.464095000">
        <ele>127.000000</ele>
        <time>2020-10-17T07:55:20Z</time>
      </trkpt>
      <trkpt lat="40.155993000" lon="-8.464100000">
        <ele>127.200000</ele>
        <time>2020-10-17T07:55:21Z</time>
      </trkpt>
      <trkpt lat="40.155956000" lon="-8.464105000">
        <ele>127.600000</ele>
        <time>2020-10-17T07:55:22Z</time>
      </trkpt>
      <trkpt lat="40.155919000" lon="-8.464109000">
        <ele>127.800000</ele>
        <time>2020-10-17T07:55:23Z</time>
      </trkpt>
      <trkpt lat="40.155884000" lon="-8.464111000">
        <ele>128.200000</ele>
        <time>2020-10-17T07:55:24Z</time>
      </trkpt>
      <trkpt lat="40.155848000" lon="-8.464113000">
        <ele>128.200000</ele>
        <time>2020-10-17T07:55:25Z</time>
      </trkpt>
      <trkpt lat="40.155813000" lon="-8.464115000">
        <ele>128.400000</ele>
        <time>2020-10-17T07:55:26Z</time>
      </trkpt>
      <trkpt lat="40.155777000" lon="-8.464117000">
        <ele>128.600000</ele>
        <time>2020-10-17T07:55:27Z</time>
      </trkpt>
      <trkpt lat="40.155742000" lon="-8.464118000">
        <ele>129.000000</ele>
        <time>2020-10-17T07:55:28Z</time>
      </trkpt>
      <trkpt lat="40.155706000" lon="-8.464117000">
        <ele>129.000000</ele>
        <time>2020-10-17T07:55:29Z</time>
      </trkpt>
      <trkpt lat="40.155670000" lon="-8.464113000">
        <ele>129.200000</ele>
        <time>2020-10-17T07:55:30Z</time>
      </trkpt>
      <trkpt lat="40.155633000" lon="-8.464110000">
        <ele>129.600000</ele>
        <time>2020-10-17T07:55:31Z</time>
      </trkpt>
      <trkpt lat="40.155596000" lon="-8.464107000">
        <ele>129.600000</ele>
        <time>2020-10-17T07:55:32Z</time>
      </trkpt>
      <trkpt lat="40.155559000" lon="-8.464105000">
        <ele>130.000000</ele>
        <time>2020-10-17T07:55:33Z</time>
      </trkpt>
      <trkpt lat="40.155521000" lon="-8.464102000">
        <ele>130.200000</ele>
        <time>2020-10-17T07:55:34Z</time>
      </trkpt>
      <trkpt lat="40.155484000" lon="-8.464097000">
        <ele>130.200000</ele>
        <time>2020-10-17T07:55:35Z</time>
      </trkpt>
      <trkpt lat="40.155446000" lon="-8.464093000">
        <ele>130.600000</ele>
        <time>2020-10-17T07:55:36Z</time>
      </trkpt>
      <trkpt lat="40.155408000" lon="-8.464089000">
        <ele>130.800000</ele>
        <time>2020-10-17T07:55:37Z</time>
      </trkpt>
      <trkpt lat="40.155368000" lon="-8.464084000">
        <ele>131.000000</ele>
        <time>2020-10-17T07:55:38Z</time>
      </trkpt>
      <trkpt lat="40.155324000" lon="-8.464073000">
        <ele>131.400000</ele>
        <time>2020-10-17T07:55:39Z</time>
      </trkpt>
      <trkpt lat="40.155277000" lon="-8.464059000">
        <ele>131.600000</ele>
        <time>2020-10-17T07:55:40Z</time>
      </trkpt>
      <trkpt lat="40.155228000" lon="-8.464044000">
        <ele>131.800000</ele>
        <time>2020-10-17T07:55:41Z</time>
      </trkpt>
      <trkpt lat="40.155179000" lon="-8.464024000">
        <ele>132.000000</ele>
        <time>2020-10-17T07:55:42Z</time>
      </trkpt>
      <trkpt lat="40.155126000" lon="-8.464003000">
        <ele>132.000000</ele>
        <time>2020-10-17T07:55:43Z</time>
      </trkpt>
      <trkpt lat="40.155072000" lon="-8.463976000">
        <ele>132.200000</ele>
        <time>2020-10-17T07:55:44Z</time>
      </trkpt>
      <trkpt lat="40.155019000" lon="-8.463947000">
        <ele>132.200000</ele>
        <time>2020-10-17T07:55:45Z</time>
      </trkpt>
      <trkpt lat="40.154963000" lon="-8.463913000">
        <ele>132.200000</ele>
        <time>2020-10-17T07:55:46Z</time>
      </trkpt>
      <trkpt lat="40.154905000" lon="-8.463873000">
        <ele>132.200000</ele>
        <time>2020-10-17T07:55:47Z</time>
      </trkpt>
      <trkpt lat="40.154845000" lon="-8.463824000">
        <ele>132.400000</ele>
        <time>2020-10-17T07:55:48Z</time>
      </trkpt>
      <trkpt lat="40.154783000" lon="-8.463774000">
        <ele>132.200000</ele>
        <time>2020-10-17T07:55:49Z</time>
      </trkpt>
      <trkpt lat="40.154656000" lon="-8.463663000">
        <ele>132.400000</ele>
        <time>2020-10-17T07:55:51Z</time>
      </trkpt>
      <trkpt lat="40.154589000" lon="-8.463607000">
        <ele>132.200000</ele>
        <time>2020-10-17T07:55:52Z</time>
      </trkpt>
      <trkpt lat="40.154451000" lon="-8.463494000">
        <ele>132.200000</ele>
        <time>2020-10-17T07:55:54Z</time>
      </trkpt>
      <trkpt lat="40.154371000" lon="-8.463440000">
        <ele>131.800000</ele>
        <time>2020-10-17T07:55:55Z</time>
      </trkpt>
      <trkpt lat="40.154287000" lon="-8.463391000">
        <ele>131.600000</ele>
        <time>2020-10-17T07:55:56Z</time>
      </trkpt>
      <trkpt lat="40.154198000" lon="-8.463359000">
        <ele>131.000000</ele>
        <time>2020-10-17T07:55:57Z</time>
      </trkpt>
      <trkpt lat="40.154012000" lon="-8.463321000">
        <ele>130.200000</ele>
        <time>2020-10-17T07:55:59Z</time>
      </trkpt>
      <trkpt lat="40.153815000" lon="-8.463313000">
        <ele>129.600000</ele>
        <time>2020-10-17T07:56:01Z</time>
      </trkpt>
      <trkpt lat="40.153624000" lon="-8.463375000">
        <ele>128.400000</ele>
        <time>2020-10-17T07:56:03Z</time>
      </trkpt>
      <trkpt lat="40.153528000" lon="-8.463423000">
        <ele>127.800000</ele>
        <time>2020-10-17T07:56:04Z</time>
      </trkpt>
      <trkpt lat="40.153428000" lon="-8.463475000">
        <ele>127.200000</ele>
        <time>2020-10-17T07:56:05Z</time>
      </trkpt>
      <trkpt lat="40.153227000" lon="-8.463584000">
        <ele>125.800000</ele>
        <time>2020-10-17T07:56:07Z</time>
      </trkpt>
      <trkpt lat="40.153126000" lon="-8.463638000">
        <ele>125.000000</ele>
        <time>2020-10-17T07:56:08Z</time>
      </trkpt>
      <trkpt lat="40.153026000" lon="-8.463693000">
        <ele>124.400000</ele>
        <time>2020-10-17T07:56:09Z</time>
      </trkpt>
      <trkpt lat="40.152924000" lon="-8.463741000">
        <ele>124.000000</ele>
        <time>2020-10-17T07:56:10Z</time>
      </trkpt>
      <trkpt lat="40.152711000" lon="-8.463829000">
        <ele>123.000000</ele>
        <time>2020-10-17T07:56:12Z</time>
      </trkpt>
      <trkpt lat="40.152491000" lon="-8.463912000">
        <ele>122.200000</ele>
        <time>2020-10-17T07:56:14Z</time>
      </trkpt>
      <trkpt lat="40.152374000" lon="-8.463953000">
        <ele>121.200000</ele>
        <time>2020-10-17T07:56:15Z</time>
      </trkpt>
      <trkpt lat="40.152144000" lon="-8.464029000">
        <ele>119.400000</ele>
        <time>2020-10-17T07:56:17Z</time>
      </trkpt>
      <trkpt lat="40.152028000" lon="-8.464068000">
        <ele>118.600000</ele>
        <time>2020-10-17T07:56:18Z</time>
      </trkpt>
      <trkpt lat="40.151791000" lon="-8.464149000">
        <ele>117.000000</ele>
        <time>2020-10-17T07:56:20Z</time>
      </trkpt>
      <trkpt lat="40.151674000" lon="-8.464197000">
        <ele>116.200000</ele>
        <time>2020-10-17T07:56:21Z</time>
      </trkpt>
      <trkpt lat="40.151560000" lon="-8.464255000">
        <ele>115.200000</ele>
        <time>2020-10-17T07:56:22Z</time>
      </trkpt>
      <trkpt lat="40.151450000" lon="-8.464321000">
        <ele>114.200000</ele>
        <time>2020-10-17T07:56:23Z</time>
      </trkpt>
      <trkpt lat="40.151346000" lon="-8.464391000">
        <ele>113.400000</ele>
        <time>2020-10-17T07:56:24Z</time>
      </trkpt>
      <trkpt lat="40.151247000" lon="-8.464464000">
        <ele>112.400000</ele>
        <time>2020-10-17T07:56:25Z</time>
      </trkpt>
      <trkpt lat="40.151147000" lon="-8.464540000">
        <ele>111.600000</ele>
        <time>2020-10-17T07:56:26Z</time>
      </trkpt>
      <trkpt lat="40.151050000" lon="-8.464621000">
        <ele>110.600000</ele>
        <time>2020-10-17T07:56:27Z</time>
      </trkpt>
      <trkpt lat="40.150861000" lon="-8.464788000">
        <ele>109.000000</ele>
        <time>2020-10-17T07:56:29Z</time>
      </trkpt>
      <trkpt lat="40.150769000" lon="-8.464870000">
        <ele>107.800000</ele>
        <time>2020-10-17T07:56:30Z</time>
      </trkpt>
      <trkpt lat="40.150675000" lon="-8.464952000">
        <ele>106.800000</ele>
        <time>2020-10-17T07:56:31Z</time>
      </trkpt>
      <trkpt lat="40.150581000" lon="-8.465033000">
        <ele>106.000000</ele>
        <time>2020-10-17T07:56:32Z</time>
      </trkpt>
      <trkpt lat="40.150388000" lon="-8.465189000">
        <ele>105.400000</ele>
        <time>2020-10-17T07:56:34Z</time>
      </trkpt>
      <trkpt lat="40.150188000" lon="-8.465322000">
        <ele>104.200000</ele>
        <time>2020-10-17T07:56:36Z</time>
      </trkpt>
      <trkpt lat="40.149982000" lon="-8.465435000">
        <ele>102.400000</ele>
        <time>2020-10-17T07:56:38Z</time>
      </trkpt>
      <trkpt lat="40.149777000" lon="-8.465532000">
        <ele>101.400000</ele>
        <time>2020-10-17T07:56:40Z</time>
      </trkpt>
      <trkpt lat="40.149570000" lon="-8.465630000">
        <ele>100.000000</ele>
        <time>2020-10-17T07:56:42Z</time>
      </trkpt>
      <trkpt lat="40.149363000" lon="-8.465724000">
        <ele>98.600000</ele>
        <time>2020-10-17T07:56:44Z</time>
      </trkpt>
      <trkpt lat="40.149262000" lon="-8.465770000">
        <ele>98.000000</ele>
        <time>2020-10-17T07:56:45Z</time>
      </trkpt>
      <trkpt lat="40.149163000" lon="-8.465818000">
        <ele>97.200000</ele>
        <time>2020-10-17T07:56:46Z</time>
      </trkpt>
      <trkpt lat="40.149065000" lon="-8.465866000">
        <ele>96.400000</ele>
        <time>2020-10-17T07:56:47Z</time>
      </trkpt>
      <trkpt lat="40.148866000" lon="-8.465951000">
        <ele>95.000000</ele>
        <time>2020-10-17T07:56:49Z</time>
      </trkpt>
      <trkpt lat="40.148768000" lon="-8.465993000">
        <ele>94.000000</ele>
        <time>2020-10-17T07:56:50Z</time>
      </trkpt>
      <trkpt lat="40.148671000" lon="-8.466036000">
        <ele>93.400000</ele>
        <time>2020-10-17T07:56:51Z</time>
      </trkpt>
      <trkpt lat="40.148576000" lon="-8.466079000">
        <ele>92.800000</ele>
        <time>2020-10-17T07:56:52Z</time>
      </trkpt>
      <trkpt lat="40.148389000" lon="-8.466166000">
        <ele>92.600000</ele>
        <time>2020-10-17T07:56:54Z</time>
      </trkpt>
      <trkpt lat="40.148300000" lon="-8.466213000">
        <ele>92.000000</ele>
        <time>2020-10-17T07:56:55Z</time>
      </trkpt>
      <trkpt lat="40.148211000" lon="-8.466257000">
        <ele>91.600000</ele>
        <time>2020-10-17T07:56:56Z</time>
      </trkpt>
      <trkpt lat="40.148122000" lon="-8.466297000">
        <ele>91.200000</ele>
        <time>2020-10-17T07:56:57Z</time>
      </trkpt>
      <trkpt lat="40.148029000" lon="-8.466340000">
        <ele>91.000000</ele>
        <time>2020-10-17T07:56:58Z</time>
      </trkpt>
      <trkpt lat="40.147939000" lon="-8.466382000">
        <ele>90.600000</ele>
        <time>2020-10-17T07:56:59Z</time>
      </trkpt>
      <trkpt lat="40.147851000" lon="-8.466422000">
        <ele>90.200000</ele>
        <time>2020-10-17T07:57:00Z</time>
      </trkpt>
      <trkpt lat="40.147764000" lon="-8.466464000">
        <ele>89.800000</ele>
        <time>2020-10-17T07:57:01Z</time>
      </trkpt>
      <trkpt lat="40.147679000" lon="-8.466507000">
        <ele>89.600000</ele>
        <time>2020-10-17T07:57:02Z</time>
      </trkpt>
      <trkpt lat="40.147596000" lon="-8.466548000">
        <ele>89.200000</ele>
        <time>2020-10-17T07:57:03Z</time>
      </trkpt>
      <trkpt lat="40.147514000" lon="-8.466584000">
        <ele>88.800000</ele>
        <time>2020-10-17T07:57:04Z</time>
      </trkpt>
      <trkpt lat="40.147434000" lon="-8.466621000">
        <ele>88.800000</ele>
        <time>2020-10-17T07:57:05Z</time>
      </trkpt>
      <trkpt lat="40.147357000" lon="-8.466661000">
        <ele>88.400000</ele>
        <time>2020-10-17T07:57:06Z</time>
      </trkpt>
      <trkpt lat="40.147283000" lon="-8.466701000">
        <ele>88.000000</ele>
        <time>2020-10-17T07:57:07Z</time>
      </trkpt>
      <trkpt lat="40.147212000" lon="-8.466742000">
        <ele>87.800000</ele>
        <time>2020-10-17T07:57:08Z</time>
      </trkpt>
      <trkpt lat="40.147145000" lon="-8.466781000">
        <ele>87.400000</ele>
        <time>2020-10-17T07:57:09Z</time>
      </trkpt>
      <trkpt lat="40.147078000" lon="-8.466826000">
        <ele>87.400000</ele>
        <time>2020-10-17T07:57:10Z</time>
      </trkpt>
      <trkpt lat="40.147018000" lon="-8.466874000">
        <ele>87.400000</ele>
        <time>2020-10-17T07:57:11Z</time>
      </trkpt>
      <trkpt lat="40.146962000" lon="-8.466924000">
        <ele>87.600000</ele>
        <time>2020-10-17T07:57:12Z</time>
      </trkpt>
      <trkpt lat="40.146909000" lon="-8.466974000">
        <ele>87.400000</ele>
        <time>2020-10-17T07:57:13Z</time>
      </trkpt>
      <trkpt lat="40.146862000" lon="-8.467026000">
        <ele>87.400000</ele>
        <time>2020-10-17T07:57:14Z</time>
      </trkpt>
      <trkpt lat="40.146816000" lon="-8.467078000">
        <ele>87.400000</ele>
        <time>2020-10-17T07:57:15Z</time>
      </trkpt>
      <trkpt lat="40.146770000" lon="-8.467127000">
        <ele>87.400000</ele>
        <time>2020-10-17T07:57:16Z</time>
      </trkpt>
      <trkpt lat="40.146727000" lon="-8.467174000">
        <ele>87.400000</ele>
        <time>2020-10-17T07:57:17Z</time>
      </trkpt>
      <trkpt lat="40.146685000" lon="-8.467218000">
        <ele>87.400000</ele>
        <time>2020-10-17T07:57:18Z</time>
      </trkpt>
      <trkpt lat="40.146642000" lon="-8.467259000">
        <ele>87.600000</ele>
        <time>2020-10-17T07:57:19Z</time>
      </trkpt>
      <trkpt lat="40.146604000" lon="-8.467295000">
        <ele>87.800000</ele>
        <time>2020-10-17T07:57:20Z</time>
      </trkpt>
      <trkpt lat="40.146566000" lon="-8.467333000">
        <ele>88.000000</ele>
        <time>2020-10-17T07:57:21Z</time>
      </trkpt>
      <trkpt lat="40.146528000" lon="-8.467368000">
        <ele>88.200000</ele>
        <time>2020-10-17T07:57:22Z</time>
      </trkpt>
      <trkpt lat="40.146489000" lon="-8.467402000">
        <ele>88.600000</ele>
        <time>2020-10-17T07:57:23Z</time>
      </trkpt>
      <trkpt lat="40.146447000" lon="-8.467436000">
        <ele>89.000000</ele>
        <time>2020-10-17T07:57:24Z</time>
      </trkpt>
      <trkpt lat="40.146404000" lon="-8.467471000">
        <ele>89.400000</ele>
        <time>2020-10-17T07:57:25Z</time>
      </trkpt>
      <trkpt lat="40.146359000" lon="-8.467502000">
        <ele>90.000000</ele>
        <time>2020-10-17T07:57:26Z</time>
      </trkpt>
      <trkpt lat="40.146315000" lon="-8.467531000">
        <ele>90.200000</ele>
        <time>2020-10-17T07:57:27Z</time>
      </trkpt>
      <trkpt lat="40.146271000" lon="-8.467560000">
        <ele>90.600000</ele>
        <time>2020-10-17T07:57:28Z</time>
      </trkpt>
      <trkpt lat="40.146227000" lon="-8.467586000">
        <ele>90.800000</ele>
        <time>2020-10-17T07:57:29Z</time>
      </trkpt>
      <trkpt lat="40.146182000" lon="-8.467608000">
        <ele>91.200000</ele>
        <time>2020-10-17T07:57:30Z</time>
      </trkpt>
      <trkpt lat="40.146136000" lon="-8.467631000">
        <ele>91.800000</ele>
        <time>2020-10-17T07:57:31Z</time>
      </trkpt>
      <trkpt lat="40.146088000" lon="-8.467650000">
        <ele>92.200000</ele>
        <time>2020-10-17T07:57:32Z</time>
      </trkpt>
      <trkpt lat="40.146041000" lon="-8.467670000">
        <ele>92.600000</ele>
        <time>2020-10-17T07:57:33Z</time>
      </trkpt>
      <trkpt lat="40.145994000" lon="-8.467686000">
        <ele>92.600000</ele>
        <time>2020-10-17T07:57:34Z</time>
      </trkpt>
      <trkpt lat="40.145945000" lon="-8.467699000">
        <ele>93.000000</ele>
        <time>2020-10-17T07:57:35Z</time>
      </trkpt>
      <trkpt lat="40.145897000" lon="-8.467706000">
        <ele>93.400000</ele>
        <time>2020-10-17T07:57:36Z</time>
      </trkpt>
      <trkpt lat="40.145849000" lon="-8.467711000">
        <ele>93.600000</ele>
        <time>2020-10-17T07:57:37Z</time>
      </trkpt>
      <trkpt lat="40.145804000" lon="-8.467712000">
        <ele>93.800000</ele>
        <time>2020-10-17T07:57:38Z</time>
      </trkpt>
      <trkpt lat="40.145758000" lon="-8.467709000">
        <ele>94.200000</ele>
        <time>2020-10-17T07:57:39Z</time>
      </trkpt>
      <trkpt lat="40.145711000" lon="-8.467701000">
        <ele>94.600000</ele>
        <time>2020-10-17T07:57:40Z</time>
      </trkpt>
      <trkpt lat="40.145664000" lon="-8.467691000">
        <ele>95.000000</ele>
        <time>2020-10-17T07:57:41Z</time>
      </trkpt>
      <trkpt lat="40.145621000" lon="-8.467678000">
        <ele>95.400000</ele>
        <time>2020-10-17T07:57:42Z</time>
      </trkpt>
      <trkpt lat="40.145579000" lon="-8.467664000">
        <ele>95.400000</ele>
        <time>2020-10-17T07:57:43Z</time>
      </trkpt>
      <trkpt lat="40.145539000" lon="-8.467648000">
        <ele>95.600000</ele>
        <time>2020-10-17T07:57:44Z</time>
      </trkpt>
      <trkpt lat="40.145500000" lon="-8.467625000">
        <ele>96.200000</ele>
        <time>2020-10-17T07:57:45Z</time>
      </trkpt>
      <trkpt lat="40.145461000" lon="-8.467608000">
        <ele>96.600000</ele>
        <time>2020-10-17T07:57:46Z</time>
      </trkpt>
      <trkpt lat="40.145420000" lon="-8.467595000">
        <ele>96.600000</ele>
        <time>2020-10-17T07:57:47Z</time>
      </trkpt>
      <trkpt lat="40.145379000" lon="-8.467581000">
        <ele>97.000000</ele>
        <time>2020-10-17T07:57:48Z</time>
      </trkpt>
      <trkpt lat="40.145331000" lon="-8.467570000">
        <ele>97.200000</ele>
        <time>2020-10-17T07:57:49Z</time>
      </trkpt>
      <trkpt lat="40.145286000" lon="-8.467560000">
        <ele>97.200000</ele>
        <time>2020-10-17T07:57:50Z</time>
      </trkpt>
      <trkpt lat="40.145238000" lon="-8.467549000">
        <ele>97.400000</ele>
        <time>2020-10-17T07:57:51Z</time>
      </trkpt>
      <trkpt lat="40.145192000" lon="-8.467542000">
        <ele>97.800000</ele>
        <time>2020-10-17T07:57:52Z</time>
      </trkpt>
      <trkpt lat="40.145150000" lon="-8.467535000">
        <ele>98.200000</ele>
        <time>2020-10-17T07:57:53Z</time>
      </trkpt>
      <trkpt lat="40.145106000" lon="-8.467526000">
        <ele>98.400000</ele>
        <time>2020-10-17T07:57:54Z</time>
      </trkpt>
      <trkpt lat="40.145066000" lon="-8.467518000">
        <ele>98.400000</ele>
        <time>2020-10-17T07:57:55Z</time>
      </trkpt>
      <trkpt lat="40.145019000" lon="-8.467515000">
        <ele>98.800000</ele>
        <time>2020-10-17T07:57:56Z</time>
      </trkpt>
      <trkpt lat="40.144976000" lon="-8.467515000">
        <ele>99.200000</ele>
        <time>2020-10-17T07:57:57Z</time>
      </trkpt>
      <trkpt lat="40.144932000" lon="-8.467516000">
        <ele>99.400000</ele>
        <time>2020-10-17T07:57:58Z</time>
      </trkpt>
      <trkpt lat="40.144887000" lon="-8.467518000">
        <ele>99.800000</ele>
        <time>2020-10-17T07:57:59Z</time>
      </trkpt>
      <trkpt lat="40.144842000" lon="-8.467523000">
        <ele>99.800000</ele>
        <time>2020-10-17T07:58:00Z</time>
      </trkpt>
      <trkpt lat="40.144798000" lon="-8.467533000">
        <ele>100.200000</ele>
        <time>2020-10-17T07:58:01Z</time>
      </trkpt>
      <trkpt lat="40.144752000" lon="-8.467540000">
        <ele>100.600000</ele>
        <time>2020-10-17T07:58:02Z</time>
      </trkpt>
      <trkpt lat="40.144707000" lon="-8.467545000">
        <ele>100.600000</ele>
        <time>2020-10-17T07:58:03Z</time>
      </trkpt>
      <trkpt lat="40.144660000" lon="-8.467552000">
        <ele>100.800000</ele>
        <time>2020-10-17T07:58:04Z</time>
      </trkpt>
      <trkpt lat="40.144612000" lon="-8.467559000">
        <ele>101.200000</ele>
        <time>2020-10-17T07:58:05Z</time>
      </trkpt>
      <trkpt lat="40.144566000" lon="-8.467569000">
        <ele>101.400000</ele>
        <time>2020-10-17T07:58:06Z</time>
      </trkpt>
      <trkpt lat="40.144520000" lon="-8.467578000">
        <ele>101.800000</ele>
        <time>2020-10-17T07:58:07Z</time>
      </trkpt>
      <trkpt lat="40.144475000" lon="-8.467585000">
        <ele>102.000000</ele>
        <time>2020-10-17T07:58:08Z</time>
      </trkpt>
      <trkpt lat="40.144431000" lon="-8.467593000">
        <ele>102.200000</ele>
        <time>2020-10-17T07:58:09Z</time>
      </trkpt>
      <trkpt lat="40.144385000" lon="-8.467604000">
        <ele>102.400000</ele>
        <time>2020-10-17T07:58:10Z</time>
      </trkpt>
      <trkpt lat="40.144341000" lon="-8.467615000">
        <ele>102.600000</ele>
        <time>2020-10-17T07:58:11Z</time>
      </trkpt>
      <trkpt lat="40.144295000" lon="-8.467628000">
        <ele>103.000000</ele>
        <time>2020-10-17T07:58:12Z</time>
      </trkpt>
      <trkpt lat="40.144251000" lon="-8.467641000">
        <ele>103.200000</ele>
        <time>2020-10-17T07:58:13Z</time>
      </trkpt>
      <trkpt lat="40.144206000" lon="-8.467652000">
        <ele>103.400000</ele>
        <time>2020-10-17T07:58:14Z</time>
      </trkpt>
      <trkpt lat="40.144163000" lon="-8.467662000">
        <ele>103.400000</ele>
        <time>2020-10-17T07:58:15Z</time>
      </trkpt>
      <trkpt lat="40.144116000" lon="-8.467673000">
        <ele>103.800000</ele>
        <time>2020-10-17T07:58:16Z</time>
      </trkpt>
      <trkpt lat="40.144070000" lon="-8.467682000">
        <ele>103.800000</ele>
        <time>2020-10-17T07:58:17Z</time>
      </trkpt>
      <trkpt lat="40.144025000" lon="-8.467691000">
        <ele>104.000000</ele>
        <time>2020-10-17T07:58:18Z</time>
      </trkpt>
      <trkpt lat="40.143981000" lon="-8.467701000">
        <ele>104.400000</ele>
        <time>2020-10-17T07:58:19Z</time>
      </trkpt>
      <trkpt lat="40.143937000" lon="-8.467713000">
        <ele>104.600000</ele>
        <time>2020-10-17T07:58:20Z</time>
      </trkpt>
      <trkpt lat="40.143892000" lon="-8.467725000">
        <ele>104.800000</ele>
        <time>2020-10-17T07:58:21Z</time>
      </trkpt>
      <trkpt lat="40.143846000" lon="-8.467740000">
        <ele>104.800000</ele>
        <time>2020-10-17T07:58:22Z</time>
      </trkpt>
      <trkpt lat="40.143800000" lon="-8.467756000">
        <ele>105.000000</ele>
        <time>2020-10-17T07:58:23Z</time>
      </trkpt>
      <trkpt lat="40.143754000" lon="-8.467772000">
        <ele>105.200000</ele>
        <time>2020-10-17T07:58:24Z</time>
      </trkpt>
      <trkpt lat="40.143708000" lon="-8.467786000">
        <ele>105.600000</ele>
        <time>2020-10-17T07:58:25Z</time>
      </trkpt>
      <trkpt lat="40.143661000" lon="-8.467798000">
        <ele>105.800000</ele>
        <time>2020-10-17T07:58:26Z</time>
      </trkpt>
      <trkpt lat="40.143612000" lon="-8.467810000">
        <ele>106.000000</ele>
        <time>2020-10-17T07:58:27Z</time>
      </trkpt>
      <trkpt lat="40.143562000" lon="-8.467819000">
        <ele>106.400000</ele>
        <time>2020-10-17T07:58:28Z</time>
      </trkpt>
      <trkpt lat="40.143510000" lon="-8.467831000">
        <ele>106.400000</ele>
        <time>2020-10-17T07:58:29Z</time>
      </trkpt>
      <trkpt lat="40.143459000" lon="-8.467840000">
        <ele>106.400000</ele>
        <time>2020-10-17T07:58:30Z</time>
      </trkpt>
      <trkpt lat="40.143407000" lon="-8.467849000">
        <ele>106.400000</ele>
        <time>2020-10-17T07:58:31Z</time>
      </trkpt>
      <trkpt lat="40.143354000" lon="-8.467857000">
        <ele>106.600000</ele>
        <time>2020-10-17T07:58:32Z</time>
      </trkpt>
      <trkpt lat="40.143298000" lon="-8.467866000">
        <ele>106.400000</ele>
        <time>2020-10-17T07:58:33Z</time>
      </trkpt>
      <trkpt lat="40.143238000" lon="-8.467875000">
        <ele>106.600000</ele>
        <time>2020-10-17T07:58:34Z</time>
      </trkpt>
      <trkpt lat="40.143177000" lon="-8.467884000">
        <ele>106.600000</ele>
        <time>2020-10-17T07:58:35Z</time>
      </trkpt>
      <trkpt lat="40.143059000" lon="-8.467908000">
        <ele>106.400000</ele>
        <time>2020-10-17T07:58:37Z</time>
      </trkpt>
      <trkpt lat="40.142939000" lon="-8.467937000">
        <ele>106.400000</ele>
        <time>2020-10-17T07:58:39Z</time>
      </trkpt>
      <trkpt lat="40.142875000" lon="-8.467951000">
        <ele>106.400000</ele>
        <time>2020-10-17T07:58:40Z</time>
      </trkpt>
      <trkpt lat="40.142611000" lon="-8.468012000">
        <ele>105.800000</ele>
        <time>2020-10-17T07:58:44Z</time>
      </trkpt>
      <trkpt lat="40.142478000" lon="-8.468048000">
        <ele>105.600000</ele>
        <time>2020-10-17T07:58:46Z</time>
      </trkpt>
      <trkpt lat="40.142274000" lon="-8.468093000">
        <ele>104.800000</ele>
        <time>2020-10-17T07:58:49Z</time>
      </trkpt>
      <trkpt lat="40.142048000" lon="-8.468138000">
        <ele>104.200000</ele>
        <time>2020-10-17T07:58:52Z</time>
      </trkpt>
      <trkpt lat="40.141968000" lon="-8.468157000">
        <ele>104.000000</ele>
        <time>2020-10-17T07:58:53Z</time>
      </trkpt>
      <trkpt lat="40.141806000" lon="-8.468199000">
        <ele>103.400000</ele>
        <time>2020-10-17T07:58:55Z</time>
      </trkpt>
      <trkpt lat="40.141552000" lon="-8.468255000">
        <ele>103.000000</ele>
        <time>2020-10-17T07:58:58Z</time>
      </trkpt>
      <trkpt lat="40.141464000" lon="-8.468271000">
        <ele>102.600000</ele>
        <time>2020-10-17T07:58:59Z</time>
      </trkpt>
      <trkpt lat="40.141290000" lon="-8.468285000">
        <ele>101.800000</ele>
        <time>2020-10-17T07:59:01Z</time>
      </trkpt>
      <trkpt lat="40.141208000" lon="-8.468291000">
        <ele>101.600000</ele>
        <time>2020-10-17T07:59:02Z</time>
      </trkpt>
      <trkpt lat="40.141129000" lon="-8.468288000">
        <ele>101.400000</ele>
        <time>2020-10-17T07:59:03Z</time>
      </trkpt>
      <trkpt lat="40.141045000" lon="-8.468282000">
        <ele>101.000000</ele>
        <time>2020-10-17T07:59:04Z</time>
      </trkpt>
      <trkpt lat="40.140958000" lon="-8.468282000">
        <ele>100.400000</ele>
        <time>2020-10-17T07:59:05Z</time>
      </trkpt>
      <trkpt lat="40.140699000" lon="-8.468279000">
        <ele>99.200000</ele>
        <time>2020-10-17T07:59:08Z</time>
      </trkpt>
      <trkpt lat="40.140532000" lon="-8.468267000">
        <ele>98.600000</ele>
        <time>2020-10-17T07:59:10Z</time>
      </trkpt>
      <trkpt lat="40.140451000" lon="-8.468264000">
        <ele>98.200000</ele>
        <time>2020-10-17T07:59:11Z</time>
      </trkpt>
      <trkpt lat="40.140372000" lon="-8.468264000">
        <ele>98.000000</ele>
        <time>2020-10-17T07:59:12Z</time>
      </trkpt>
      <trkpt lat="40.140295000" lon="-8.468273000">
        <ele>97.800000</ele>
        <time>2020-10-17T07:59:13Z</time>
      </trkpt>
      <trkpt lat="40.140220000" lon="-8.468288000">
        <ele>97.800000</ele>
        <time>2020-10-17T07:59:14Z</time>
      </trkpt>
      <trkpt lat="40.140150000" lon="-8.468305000">
        <ele>97.600000</ele>
        <time>2020-10-17T07:59:15Z</time>
      </trkpt>
      <trkpt lat="40.140079000" lon="-8.468324000">
        <ele>97.600000</ele>
        <time>2020-10-17T07:59:16Z</time>
      </trkpt>
      <trkpt lat="40.140010000" lon="-8.468346000">
        <ele>97.600000</ele>
        <time>2020-10-17T07:59:17Z</time>
      </trkpt>
      <trkpt lat="40.139941000" lon="-8.468371000">
        <ele>97.600000</ele>
        <time>2020-10-17T07:59:18Z</time>
      </trkpt>
      <trkpt lat="40.139875000" lon="-8.468401000">
        <ele>97.400000</ele>
        <time>2020-10-17T07:59:19Z</time>
      </trkpt>
      <trkpt lat="40.139810000" lon="-8.468433000">
        <ele>97.400000</ele>
        <time>2020-10-17T07:59:20Z</time>
      </trkpt>
      <trkpt lat="40.139747000" lon="-8.468469000">
        <ele>97.600000</ele>
        <time>2020-10-17T07:59:21Z</time>
      </trkpt>
      <trkpt lat="40.139688000" lon="-8.468512000">
        <ele>97.600000</ele>
        <time>2020-10-17T07:59:22Z</time>
      </trkpt>
      <trkpt lat="40.139634000" lon="-8.468556000">
        <ele>97.600000</ele>
        <time>2020-10-17T07:59:23Z</time>
      </trkpt>
      <trkpt lat="40.139587000" lon="-8.468604000">
        <ele>97.600000</ele>
        <time>2020-10-17T07:59:24Z</time>
      </trkpt>
      <trkpt lat="40.139541000" lon="-8.468652000">
        <ele>97.600000</ele>
        <time>2020-10-17T07:59:25Z</time>
      </trkpt>
      <trkpt lat="40.139496000" lon="-8.468695000">
        <ele>97.600000</ele>
        <time>2020-10-17T07:59:26Z</time>
      </trkpt>
      <trkpt lat="40.139453000" lon="-8.468740000">
        <ele>97.600000</ele>
        <time>2020-10-17T07:59:27Z</time>
      </trkpt>
      <trkpt lat="40.139409000" lon="-8.468781000">
        <ele>97.800000</ele>
        <time>2020-10-17T07:59:28Z</time>
      </trkpt>
      <trkpt lat="40.139321000" lon="-8.468867000">
        <ele>98.000000</ele>
        <time>2020-10-17T07:59:30Z</time>
      </trkpt>
      <trkpt lat="40.139277000" lon="-8.468904000">
        <ele>98.400000</ele>
        <time>2020-10-17T07:59:31Z</time>
      </trkpt>
      <trkpt lat="40.139179000" lon="-8.468985000">
        <ele>99.000000</ele>
        <time>2020-10-17T07:59:33Z</time>
      </trkpt>
      <trkpt lat="40.139017000" lon="-8.469101000">
        <ele>99.600000</ele>
        <time>2020-10-17T07:59:36Z</time>
      </trkpt>
      <trkpt lat="40.138955000" lon="-8.469145000">
        <ele>99.600000</ele>
        <time>2020-10-17T07:59:37Z</time>
      </trkpt>
      <trkpt lat="40.138898000" lon="-8.469185000">
        <ele>99.800000</ele>
        <time>2020-10-17T07:59:38Z</time>
      </trkpt>
      <trkpt lat="40.138836000" lon="-8.469229000">
        <ele>100.000000</ele>
        <time>2020-10-17T07:59:39Z</time>
      </trkpt>
      <trkpt lat="40.138779000" lon="-8.469267000">
        <ele>100.200000</ele>
        <time>2020-10-17T07:59:40Z</time>
      </trkpt>
      <trkpt lat="40.138725000" lon="-8.469308000">
        <ele>100.400000</ele>
        <time>2020-10-17T07:59:41Z</time>
      </trkpt>
      <trkpt lat="40.138670000" lon="-8.469335000">
        <ele>100.400000</ele>
        <time>2020-10-17T07:59:42Z</time>
      </trkpt>
      <trkpt lat="40.138621000" lon="-8.469358000">
        <ele>100.600000</ele>
        <time>2020-10-17T07:59:43Z</time>
      </trkpt>
      <trkpt lat="40.138566000" lon="-8.469372000">
        <ele>100.600000</ele>
        <time>2020-10-17T07:59:44Z</time>
      </trkpt>
      <trkpt lat="40.138406000" lon="-8.469400000">
        <ele>100.600000</ele>
        <time>2020-10-17T07:59:47Z</time>
      </trkpt>
      <trkpt lat="40.138357000" lon="-8.469407000">
        <ele>100.600000</ele>
        <time>2020-10-17T07:59:48Z</time>
      </trkpt>
      <trkpt lat="40.138307000" lon="-8.469410000">
        <ele>100.600000</ele>
        <time>2020-10-17T07:59:49Z</time>
      </trkpt>
      <trkpt lat="40.138259000" lon="-8.469422000">
        <ele>100.600000</ele>
        <time>2020-10-17T07:59:50Z</time>
      </trkpt>
      <trkpt lat="40.138202000" lon="-8.469448000">
        <ele>100.600000</ele>
        <time>2020-10-17T07:59:51Z</time>
      </trkpt>
      <trkpt lat="40.138151000" lon="-8.469472000">
        <ele>100.600000</ele>
        <time>2020-10-17T07:59:52Z</time>
      </trkpt>
      <trkpt lat="40.138016000" lon="-8.469549000">
        <ele>100.600000</ele>
        <time>2020-10-17T07:59:55Z</time>
      </trkpt>
      <trkpt lat="40.137925000" lon="-8.469605000">
        <ele>100.800000</ele>
        <time>2020-10-17T07:59:57Z</time>
      </trkpt>
      <trkpt lat="40.137878000" lon="-8.469638000">
        <ele>100.800000</ele>
        <time>2020-10-17T07:59:58Z</time>
      </trkpt>
      <trkpt lat="40.137833000" lon="-8.469663000">
        <ele>100.800000</ele>
        <time>2020-10-17T07:59:59Z</time>
      </trkpt>
      <trkpt lat="40.137690000" lon="-8.469740000">
        <ele>101.000000</ele>
        <time>2020-10-17T08:00:02Z</time>
      </trkpt>
      <trkpt lat="40.137591000" lon="-8.469779000">
        <ele>101.200000</ele>
        <time>2020-10-17T08:00:04Z</time>
      </trkpt>
      <trkpt lat="40.137543000" lon="-8.469801000">
        <ele>101.400000</ele>
        <time>2020-10-17T08:00:05Z</time>
      </trkpt>
      <trkpt lat="40.137447000" lon="-8.469832000">
        <ele>101.400000</ele>
        <time>2020-10-17T08:00:07Z</time>
      </trkpt>
      <trkpt lat="40.137400000" lon="-8.469843000">
        <ele>101.600000</ele>
        <time>2020-10-17T08:00:08Z</time>
      </trkpt>
      <trkpt lat="40.137352000" lon="-8.469853000">
        <ele>101.600000</ele>
        <time>2020-10-17T08:00:09Z</time>
      </trkpt>
      <trkpt lat="40.137308000" lon="-8.469867000">
        <ele>101.600000</ele>
        <time>2020-10-17T08:00:10Z</time>
      </trkpt>
      <trkpt lat="40.137261000" lon="-8.469888000">
        <ele>102.000000</ele>
        <time>2020-10-17T08:00:11Z</time>
      </trkpt>
      <trkpt lat="40.137218000" lon="-8.469910000">
        <ele>102.200000</ele>
        <time>2020-10-17T08:00:12Z</time>
      </trkpt>
      <trkpt lat="40.137179000" lon="-8.469936000">
        <ele>102.200000</ele>
        <time>2020-10-17T08:00:13Z</time>
      </trkpt>
      <trkpt lat="40.137141000" lon="-8.469961000">
        <ele>102.400000</ele>
        <time>2020-10-17T08:00:14Z</time>
      </trkpt>
      <trkpt lat="40.137104000" lon="-8.469992000">
        <ele>102.600000</ele>
        <time>2020-10-17T08:00:15Z</time>
      </trkpt>
      <trkpt lat="40.137069000" lon="-8.470033000">
        <ele>102.600000</ele>
        <time>2020-10-17T08:00:16Z</time>
      </trkpt>
      <trkpt lat="40.137037000" lon="-8.470070000">
        <ele>102.600000</ele>
        <time>2020-10-17T08:00:17Z</time>
      </trkpt>
      <trkpt lat="40.137001000" lon="-8.470113000">
        <ele>102.800000</ele>
        <time>2020-10-17T08:00:18Z</time>
      </trkpt>
      <trkpt lat="40.136966000" lon="-8.470162000">
        <ele>103.000000</ele>
        <time>2020-10-17T08:00:19Z</time>
      </trkpt>
      <trkpt lat="40.136929000" lon="-8.470211000">
        <ele>103.000000</ele>
        <time>2020-10-17T08:00:20Z</time>
      </trkpt>
      <trkpt lat="40.136889000" lon="-8.470265000">
        <ele>103.200000</ele>
        <time>2020-10-17T08:00:21Z</time>
      </trkpt>
      <trkpt lat="40.136852000" lon="-8.470321000">
        <ele>103.600000</ele>
        <time>2020-10-17T08:00:22Z</time>
      </trkpt>
      <trkpt lat="40.136813000" lon="-8.470375000">
        <ele>103.600000</ele>
        <time>2020-10-17T08:00:23Z</time>
      </trkpt>
      <trkpt lat="40.136774000" lon="-8.470429000">
        <ele>103.800000</ele>
        <time>2020-10-17T08:00:24Z</time>
      </trkpt>
      <trkpt lat="40.136737000" lon="-8.470478000">
        <ele>103.800000</ele>
        <time>2020-10-17T08:00:25Z</time>
      </trkpt>
      <trkpt lat="40.136699000" lon="-8.470523000">
        <ele>104.000000</ele>
        <time>2020-10-17T08:00:26Z</time>
      </trkpt>
      <trkpt lat="40.136614000" lon="-8.470618000">
        <ele>104.000000</ele>
        <time>2020-10-17T08:00:28Z</time>
      </trkpt>
      <trkpt lat="40.136400000" lon="-8.470872000">
        <ele>103.800000</ele>
        <time>2020-10-17T08:00:33Z</time>
      </trkpt>
      <trkpt lat="40.136353000" lon="-8.470918000">
        <ele>103.800000</ele>
        <time>2020-10-17T08:00:34Z</time>
      </trkpt>
      <trkpt lat="40.136304000" lon="-8.470961000">
        <ele>103.800000</ele>
        <time>2020-10-17T08:00:35Z</time>
      </trkpt>
      <trkpt lat="40.136256000" lon="-8.470998000">
        <ele>103.800000</ele>
        <time>2020-10-17T08:00:36Z</time>
      </trkpt>
      <trkpt lat="40.136209000" lon="-8.471033000">
        <ele>103.600000</ele>
        <time>2020-10-17T08:00:37Z</time>
      </trkpt>
      <trkpt lat="40.136161000" lon="-8.471064000">
        <ele>103.600000</ele>
        <time>2020-10-17T08:00:38Z</time>
      </trkpt>
      <trkpt lat="40.136115000" lon="-8.471093000">
        <ele>103.800000</ele>
        <time>2020-10-17T08:00:39Z</time>
      </trkpt>
      <trkpt lat="40.136066000" lon="-8.471121000">
        <ele>103.800000</ele>
        <time>2020-10-17T08:00:40Z</time>
      </trkpt>
      <trkpt lat="40.135968000" lon="-8.471183000">
        <ele>103.600000</ele>
        <time>2020-10-17T08:00:42Z</time>
      </trkpt>
      <trkpt lat="40.135814000" lon="-8.471287000">
        <ele>103.600000</ele>
        <time>2020-10-17T08:00:45Z</time>
      </trkpt>
      <trkpt lat="40.135765000" lon="-8.471321000">
        <ele>103.400000</ele>
        <time>2020-10-17T08:00:46Z</time>
      </trkpt>
      <trkpt lat="40.135716000" lon="-8.471352000">
        <ele>103.400000</ele>
        <time>2020-10-17T08:00:47Z</time>
      </trkpt>
      <trkpt lat="40.135611000" lon="-8.471432000">
        <ele>103.400000</ele>
        <time>2020-10-17T08:00:49Z</time>
      </trkpt>
      <trkpt lat="40.135559000" lon="-8.471475000">
        <ele>103.200000</ele>
        <time>2020-10-17T08:00:50Z</time>
      </trkpt>
      <trkpt lat="40.135507000" lon="-8.471516000">
        <ele>103.400000</ele>
        <time>2020-10-17T08:00:51Z</time>
      </trkpt>
      <trkpt lat="40.135301000" lon="-8.471652000">
        <ele>103.400000</ele>
        <time>2020-10-17T08:00:55Z</time>
      </trkpt>
      <trkpt lat="40.135253000" lon="-8.471680000">
        <ele>103.400000</ele>
        <time>2020-10-17T08:00:56Z</time>
      </trkpt>
      <trkpt lat="40.135206000" lon="-8.471711000">
        <ele>103.400000</ele>
        <time>2020-10-17T08:00:57Z</time>
      </trkpt>
      <trkpt lat="40.135161000" lon="-8.471748000">
        <ele>103.400000</ele>
        <time>2020-10-17T08:00:58Z</time>
      </trkpt>
      <trkpt lat="40.134982000" lon="-8.471926000">
        <ele>103.400000</ele>
        <time>2020-10-17T08:01:02Z</time>
      </trkpt>
      <trkpt lat="40.134695000" lon="-8.472308000">
        <ele>103.600000</ele>
        <time>2020-10-17T08:01:09Z</time>
      </trkpt>
      <trkpt lat="40.134659000" lon="-8.472364000">
        <ele>103.600000</ele>
        <time>2020-10-17T08:01:10Z</time>
      </trkpt>
      <trkpt lat="40.134621000" lon="-8.472421000">
        <ele>103.400000</ele>
        <time>2020-10-17T08:01:11Z</time>
      </trkpt>
      <trkpt lat="40.134586000" lon="-8.472476000">
        <ele>103.400000</ele>
        <time>2020-10-17T08:01:12Z</time>
      </trkpt>
      <trkpt lat="40.134373000" lon="-8.472857000">
        <ele>103.600000</ele>
        <time>2020-10-17T08:01:18Z</time>
      </trkpt>
      <trkpt lat="40.134348000" lon="-8.472929000">
        <ele>103.600000</ele>
        <time>2020-10-17T08:01:19Z</time>
      </trkpt>
      <trkpt lat="40.134317000" lon="-8.473084000">
        <ele>103.600000</ele>
        <time>2020-10-17T08:01:21Z</time>
      </trkpt>
      <trkpt lat="40.134310000" lon="-8.473160000">
        <ele>103.400000</ele>
        <time>2020-10-17T08:01:22Z</time>
      </trkpt>
      <trkpt lat="40.134309000" lon="-8.473235000">
        <ele>103.600000</ele>
        <time>2020-10-17T08:01:23Z</time>
      </trkpt>
      <trkpt lat="40.134307000" lon="-8.473392000">
        <ele>103.400000</ele>
        <time>2020-10-17T08:01:25Z</time>
      </trkpt>
      <trkpt lat="40.134303000" lon="-8.473470000">
        <ele>103.600000</ele>
        <time>2020-10-17T08:01:26Z</time>
      </trkpt>
      <trkpt lat="40.134300000" lon="-8.473549000">
        <ele>103.400000</ele>
        <time>2020-10-17T08:01:27Z</time>
      </trkpt>
      <trkpt lat="40.134295000" lon="-8.473627000">
        <ele>103.600000</ele>
        <time>2020-10-17T08:01:28Z</time>
      </trkpt>
      <trkpt lat="40.134290000" lon="-8.473701000">
        <ele>103.400000</ele>
        <time>2020-10-17T08:01:29Z</time>
      </trkpt>
      <trkpt lat="40.134288000" lon="-8.473775000">
        <ele>103.400000</ele>
        <time>2020-10-17T08:01:30Z</time>
      </trkpt>
      <trkpt lat="40.134290000" lon="-8.473849000">
        <ele>103.400000</ele>
        <time>2020-10-17T08:01:31Z</time>
      </trkpt>
      <trkpt lat="40.134293000" lon="-8.473923000">
        <ele>103.400000</ele>
        <time>2020-10-17T08:01:32Z</time>
      </trkpt>
      <trkpt lat="40.134292000" lon="-8.473992000">
        <ele>103.200000</ele>
        <time>2020-10-17T08:01:33Z</time>
      </trkpt>
      <trkpt lat="40.134279000" lon="-8.474053000">
        <ele>103.200000</ele>
        <time>2020-10-17T08:01:34Z</time>
      </trkpt>
      <trkpt lat="40.134249000" lon="-8.474098000">
        <ele>103.200000</ele>
        <time>2020-10-17T08:01:35Z</time>
      </trkpt>
      <trkpt lat="40.134211000" lon="-8.474130000">
        <ele>103.000000</ele>
        <time>2020-10-17T08:01:36Z</time>
      </trkpt>
      <trkpt lat="40.134167000" lon="-8.474139000">
        <ele>103.200000</ele>
        <time>2020-10-17T08:01:37Z</time>
      </trkpt>
      <trkpt lat="40.134023000" lon="-8.474078000">
        <ele>103.000000</ele>
        <time>2020-10-17T08:01:40Z</time>
      </trkpt>
      <trkpt lat="40.133971000" lon="-8.474054000">
        <ele>103.000000</ele>
        <time>2020-10-17T08:01:41Z</time>
      </trkpt>
      <trkpt lat="40.133920000" lon="-8.474025000">
        <ele>103.000000</ele>
        <time>2020-10-17T08:01:42Z</time>
      </trkpt>
      <trkpt lat="40.133786000" lon="-8.473891000">
        <ele>103.000000</ele>
        <time>2020-10-17T08:01:45Z</time>
      </trkpt>
      <trkpt lat="40.133745000" lon="-8.473831000">
        <ele>102.800000</ele>
        <time>2020-10-17T08:01:46Z</time>
      </trkpt>
      <trkpt lat="40.133664000" lon="-8.473695000">
        <ele>102.800000</ele>
        <time>2020-10-17T08:01:48Z</time>
      </trkpt>
      <trkpt lat="40.133582000" lon="-8.473561000">
        <ele>102.800000</ele>
        <time>2020-10-17T08:01:50Z</time>
      </trkpt>
      <trkpt lat="40.133544000" lon="-8.473495000">
        <ele>102.800000</ele>
        <time>2020-10-17T08:01:51Z</time>
      </trkpt>
      <trkpt lat="40.133468000" lon="-8.473361000">
        <ele>102.600000</ele>
        <time>2020-10-17T08:01:53Z</time>
      </trkpt>
      <trkpt lat="40.133432000" lon="-8.473291000">
        <ele>102.600000</ele>
        <time>2020-10-17T08:01:54Z</time>
      </trkpt>
      <trkpt lat="40.133405000" lon="-8.473217000">
        <ele>102.400000</ele>
        <time>2020-10-17T08:01:55Z</time>
      </trkpt>
      <trkpt lat="40.133386000" lon="-8.473138000">
        <ele>102.200000</ele>
        <time>2020-10-17T08:01:56Z</time>
      </trkpt>
      <trkpt lat="40.133377000" lon="-8.473056000">
        <ele>102.200000</ele>
        <time>2020-10-17T08:01:57Z</time>
      </trkpt>
      <trkpt lat="40.133373000" lon="-8.472972000">
        <ele>102.400000</ele>
        <time>2020-10-17T08:01:58Z</time>
      </trkpt>
      <trkpt lat="40.133374000" lon="-8.472882000">
        <ele>102.400000</ele>
        <time>2020-10-17T08:01:59Z</time>
      </trkpt>
      <trkpt lat="40.133386000" lon="-8.472804000">
        <ele>102.400000</ele>
        <time>2020-10-17T08:02:00Z</time>
      </trkpt>
      <trkpt lat="40.133403000" lon="-8.472730000">
        <ele>102.400000</ele>
        <time>2020-10-17T08:02:01Z</time>
      </trkpt>
      <trkpt lat="40.133421000" lon="-8.472657000">
        <ele>102.400000</ele>
        <time>2020-10-17T08:02:02Z</time>
      </trkpt>
      <trkpt lat="40.133438000" lon="-8.472583000">
        <ele>102.400000</ele>
        <time>2020-10-17T08:02:03Z</time>
      </trkpt>
      <trkpt lat="40.133472000" lon="-8.472441000">
        <ele>102.400000</ele>
        <time>2020-10-17T08:02:05Z</time>
      </trkpt>
      <trkpt lat="40.133490000" lon="-8.472373000">
        <ele>102.400000</ele>
        <time>2020-10-17T08:02:06Z</time>
      </trkpt>
      <trkpt lat="40.133509000" lon="-8.472306000">
        <ele>102.400000</ele>
        <time>2020-10-17T08:02:07Z</time>
      </trkpt>
      <trkpt lat="40.133526000" lon="-8.472237000">
        <ele>102.400000</ele>
        <time>2020-10-17T08:02:08Z</time>
      </trkpt>
      <trkpt lat="40.133541000" lon="-8.472170000">
        <ele>102.400000</ele>
        <time>2020-10-17T08:02:09Z</time>
      </trkpt>
      <trkpt lat="40.133552000" lon="-8.472102000">
        <ele>102.600000</ele>
        <time>2020-10-17T08:02:10Z</time>
      </trkpt>
      <trkpt lat="40.133556000" lon="-8.472037000">
        <ele>102.800000</ele>
        <time>2020-10-17T08:02:11Z</time>
      </trkpt>
      <trkpt lat="40.133545000" lon="-8.471983000">
        <ele>102.800000</ele>
        <time>2020-10-17T08:02:12Z</time>
      </trkpt>
      <trkpt lat="40.133518000" lon="-8.471951000">
        <ele>103.000000</ele>
        <time>2020-10-17T08:02:13Z</time>
      </trkpt>
      <trkpt lat="40.133486000" lon="-8.471935000">
        <ele>103.200000</ele>
        <time>2020-10-17T08:02:14Z</time>
      </trkpt>
      <trkpt lat="40.133445000" lon="-8.471938000">
        <ele>103.400000</ele>
        <time>2020-10-17T08:02:15Z</time>
      </trkpt>
      <trkpt lat="40.133398000" lon="-8.471951000">
        <ele>103.400000</ele>
        <time>2020-10-17T08:02:16Z</time>
      </trkpt>
      <trkpt lat="40.133348000" lon="-8.471966000">
        <ele>103.600000</ele>
        <time>2020-10-17T08:02:17Z</time>
      </trkpt>
      <trkpt lat="40.133296000" lon="-8.471980000">
        <ele>103.800000</ele>
        <time>2020-10-17T08:02:18Z</time>
      </trkpt>
      <trkpt lat="40.133239000" lon="-8.471998000">
        <ele>104.000000</ele>
        <time>2020-10-17T08:02:19Z</time>
      </trkpt>
      <trkpt lat="40.132830000" lon="-8.472069000">
        <ele>104.000000</ele>
        <time>2020-10-17T08:02:26Z</time>
      </trkpt>
      <trkpt lat="40.132710000" lon="-8.472079000">
        <ele>103.800000</ele>
        <time>2020-10-17T08:02:28Z</time>
      </trkpt>
      <trkpt lat="40.132649000" lon="-8.472084000">
        <ele>104.000000</ele>
        <time>2020-10-17T08:02:29Z</time>
      </trkpt>
      <trkpt lat="40.132465000" lon="-8.472097000">
        <ele>104.000000</ele>
        <time>2020-10-17T08:02:32Z</time>
      </trkpt>
      <trkpt lat="40.132405000" lon="-8.472102000">
        <ele>104.000000</ele>
        <time>2020-10-17T08:02:33Z</time>
      </trkpt>
      <trkpt lat="40.132344000" lon="-8.472108000">
        <ele>103.800000</ele>
        <time>2020-10-17T08:02:34Z</time>
      </trkpt>
      <trkpt lat="40.132221000" lon="-8.472108000">
        <ele>103.800000</ele>
        <time>2020-10-17T08:02:36Z</time>
      </trkpt>
      <trkpt lat="40.131974000" lon="-8.472092000">
        <ele>103.800000</ele>
        <time>2020-10-17T08:02:40Z</time>
      </trkpt>
      <trkpt lat="40.131913000" lon="-8.472086000">
        <ele>103.800000</ele>
        <time>2020-10-17T08:02:41Z</time>
      </trkpt>
      <trkpt lat="40.131791000" lon="-8.472070000">
        <ele>103.800000</ele>
        <time>2020-10-17T08:02:43Z</time>
      </trkpt>
      <trkpt lat="40.131733000" lon="-8.472064000">
        <ele>103.600000</ele>
        <time>2020-10-17T08:02:44Z</time>
      </trkpt>
      <trkpt lat="40.131675000" lon="-8.472058000">
        <ele>103.600000</ele>
        <time>2020-10-17T08:02:45Z</time>
      </trkpt>
      <trkpt lat="40.131617000" lon="-8.472052000">
        <ele>103.600000</ele>
        <time>2020-10-17T08:02:46Z</time>
      </trkpt>
      <trkpt lat="40.131559000" lon="-8.472046000">
        <ele>103.600000</ele>
        <time>2020-10-17T08:02:47Z</time>
      </trkpt>
      <trkpt lat="40.131502000" lon="-8.472036000">
        <ele>103.600000</ele>
        <time>2020-10-17T08:02:48Z</time>
      </trkpt>
      <trkpt lat="40.131389000" lon="-8.471991000">
        <ele>103.600000</ele>
        <time>2020-10-17T08:02:50Z</time>
      </trkpt>
      <trkpt lat="40.131284000" lon="-8.471919000">
        <ele>103.400000</ele>
        <time>2020-10-17T08:02:52Z</time>
      </trkpt>
      <trkpt lat="40.131079000" lon="-8.471745000">
        <ele>103.200000</ele>
        <time>2020-10-17T08:02:56Z</time>
      </trkpt>
      <trkpt lat="40.131026000" lon="-8.471726000">
        <ele>102.800000</ele>
        <time>2020-10-17T08:02:57Z</time>
      </trkpt>
      <trkpt lat="40.130969000" lon="-8.471721000">
        <ele>102.600000</ele>
        <time>2020-10-17T08:02:58Z</time>
      </trkpt>
      <trkpt lat="40.130906000" lon="-8.471724000">
        <ele>102.600000</ele>
        <time>2020-10-17T08:02:59Z</time>
      </trkpt>
      <trkpt lat="40.130840000" lon="-8.471728000">
        <ele>102.400000</ele>
        <time>2020-10-17T08:03:00Z</time>
      </trkpt>
      <trkpt lat="40.130772000" lon="-8.471739000">
        <ele>102.400000</ele>
        <time>2020-10-17T08:03:01Z</time>
      </trkpt>
      <trkpt lat="40.130711000" lon="-8.471762000">
        <ele>102.200000</ele>
        <time>2020-10-17T08:03:02Z</time>
      </trkpt>
      <trkpt lat="40.130652000" lon="-8.471786000">
        <ele>101.800000</ele>
        <time>2020-10-17T08:03:03Z</time>
      </trkpt>
      <trkpt lat="40.130594000" lon="-8.471799000">
        <ele>101.600000</ele>
        <time>2020-10-17T08:03:04Z</time>
      </trkpt>
      <trkpt lat="40.130536000" lon="-8.471796000">
        <ele>101.600000</ele>
        <time>2020-10-17T08:03:05Z</time>
      </trkpt>
      <trkpt lat="40.130477000" lon="-8.471770000">
        <ele>101.000000</ele>
        <time>2020-10-17T08:03:06Z</time>
      </trkpt>
      <trkpt lat="40.130420000" lon="-8.471716000">
        <ele>100.600000</ele>
        <time>2020-10-17T08:03:07Z</time>
      </trkpt>
      <trkpt lat="40.130360000" lon="-8.471645000">
        <ele>100.000000</ele>
        <time>2020-10-17T08:03:08Z</time>
      </trkpt>
      <trkpt lat="40.130297000" lon="-8.471566000">
        <ele>99.400000</ele>
        <time>2020-10-17T08:03:09Z</time>
      </trkpt>
      <trkpt lat="40.130224000" lon="-8.471486000">
        <ele>98.200000</ele>
        <time>2020-10-17T08:03:10Z</time>
      </trkpt>
      <trkpt lat="40.130066000" lon="-8.471349000">
        <ele>96.000000</ele>
        <time>2020-10-17T08:03:12Z</time>
      </trkpt>
      <trkpt lat="40.129986000" lon="-8.471288000">
        <ele>95.000000</ele>
        <time>2020-10-17T08:03:13Z</time>
      </trkpt>
      <trkpt lat="40.129905000" lon="-8.471226000">
        <ele>94.000000</ele>
        <time>2020-10-17T08:03:14Z</time>
      </trkpt>
      <trkpt lat="40.129827000" lon="-8.471160000">
        <ele>93.200000</ele>
        <time>2020-10-17T08:03:15Z</time>
      </trkpt>
      <trkpt lat="40.129757000" lon="-8.471101000">
        <ele>92.000000</ele>
        <time>2020-10-17T08:03:16Z</time>
      </trkpt>
      <trkpt lat="40.129690000" lon="-8.471040000">
        <ele>90.800000</ele>
        <time>2020-10-17T08:03:17Z</time>
      </trkpt>
      <trkpt lat="40.129624000" lon="-8.470986000">
        <ele>89.600000</ele>
        <time>2020-10-17T08:03:18Z</time>
      </trkpt>
      <trkpt lat="40.129554000" lon="-8.470947000">
        <ele>88.600000</ele>
        <time>2020-10-17T08:03:19Z</time>
      </trkpt>
      <trkpt lat="40.129484000" lon="-8.470923000">
        <ele>88.200000</ele>
        <time>2020-10-17T08:03:20Z</time>
      </trkpt>
      <trkpt lat="40.129415000" lon="-8.470912000">
        <ele>88.200000</ele>
        <time>2020-10-17T08:03:21Z</time>
      </trkpt>
      <trkpt lat="40.129343000" lon="-8.470903000">
        <ele>87.800000</ele>
        <time>2020-10-17T08:03:22Z</time>
      </trkpt>
      <trkpt lat="40.129124000" lon="-8.470886000">
        <ele>87.400000</ele>
        <time>2020-10-17T08:03:25Z</time>
      </trkpt>
      <trkpt lat="40.129052000" lon="-8.470887000">
        <ele>87.400000</ele>
        <time>2020-10-17T08:03:26Z</time>
      </trkpt>
      <trkpt lat="40.128977000" lon="-8.470888000">
        <ele>87.400000</ele>
        <time>2020-10-17T08:03:27Z</time>
      </trkpt>
      <trkpt lat="40.128897000" lon="-8.470895000">
        <ele>87.200000</ele>
        <time>2020-10-17T08:03:28Z</time>
      </trkpt>
      <trkpt lat="40.128752000" lon="-8.470977000">
        <ele>87.400000</ele>
        <time>2020-10-17T08:03:30Z</time>
      </trkpt>
      <trkpt lat="40.128699000" lon="-8.471052000">
        <ele>87.200000</ele>
        <time>2020-10-17T08:03:31Z</time>
      </trkpt>
      <trkpt lat="40.128655000" lon="-8.471140000">
        <ele>87.200000</ele>
        <time>2020-10-17T08:03:32Z</time>
      </trkpt>
      <trkpt lat="40.128627000" lon="-8.471239000">
        <ele>87.200000</ele>
        <time>2020-10-17T08:03:33Z</time>
      </trkpt>
      <trkpt lat="40.128605000" lon="-8.471349000">
        <ele>87.000000</ele>
        <time>2020-10-17T08:03:34Z</time>
      </trkpt>
      <trkpt lat="40.128590000" lon="-8.471466000">
        <ele>86.800000</ele>
        <time>2020-10-17T08:03:35Z</time>
      </trkpt>
      <trkpt lat="40.128569000" lon="-8.471579000">
        <ele>86.000000</ele>
        <time>2020-10-17T08:03:36Z</time>
      </trkpt>
      <trkpt lat="40.128538000" lon="-8.471690000">
        <ele>85.200000</ele>
        <time>2020-10-17T08:03:37Z</time>
      </trkpt>
      <trkpt lat="40.128495000" lon="-8.471791000">
        <ele>84.800000</ele>
        <time>2020-10-17T08:03:38Z</time>
      </trkpt>
      <trkpt lat="40.128390000" lon="-8.471985000">
        <ele>84.200000</ele>
        <time>2020-10-17T08:03:40Z</time>
      </trkpt>
      <trkpt lat="40.128343000" lon="-8.472080000">
        <ele>84.200000</ele>
        <time>2020-10-17T08:03:41Z</time>
      </trkpt>
      <trkpt lat="40.128307000" lon="-8.472178000">
        <ele>83.800000</ele>
        <time>2020-10-17T08:03:42Z</time>
      </trkpt>
      <trkpt lat="40.128263000" lon="-8.472397000">
        <ele>83.000000</ele>
        <time>2020-10-17T08:03:44Z</time>
      </trkpt>
      <trkpt lat="40.128239000" lon="-8.472505000">
        <ele>82.600000</ele>
        <time>2020-10-17T08:03:45Z</time>
      </trkpt>
      <trkpt lat="40.128200000" lon="-8.472608000">
        <ele>82.600000</ele>
        <time>2020-10-17T08:03:46Z</time>
      </trkpt>
      <trkpt lat="40.128154000" lon="-8.472706000">
        <ele>82.200000</ele>
        <time>2020-10-17T08:03:47Z</time>
      </trkpt>
      <trkpt lat="40.128115000" lon="-8.472811000">
        <ele>81.800000</ele>
        <time>2020-10-17T08:03:48Z</time>
      </trkpt>
      <trkpt lat="40.128083000" lon="-8.472920000">
        <ele>81.400000</ele>
        <time>2020-10-17T08:03:49Z</time>
      </trkpt>
      <trkpt lat="40.128026000" lon="-8.473138000">
        <ele>80.400000</ele>
        <time>2020-10-17T08:03:51Z</time>
      </trkpt>
      <trkpt lat="40.127976000" lon="-8.473365000">
        <ele>79.800000</ele>
        <time>2020-10-17T08:03:53Z</time>
      </trkpt>
      <trkpt lat="40.127925000" lon="-8.473597000">
        <ele>78.600000</ele>
        <time>2020-10-17T08:03:55Z</time>
      </trkpt>
      <trkpt lat="40.127868000" lon="-8.473827000">
        <ele>78.000000</ele>
        <time>2020-10-17T08:03:57Z</time>
      </trkpt>
      <trkpt lat="40.127838000" lon="-8.473947000">
        <ele>77.400000</ele>
        <time>2020-10-17T08:03:58Z</time>
      </trkpt>
      <trkpt lat="40.127769000" lon="-8.474202000">
        <ele>76.600000</ele>
        <time>2020-10-17T08:04:00Z</time>
      </trkpt>
      <trkpt lat="40.127698000" lon="-8.474454000">
        <ele>76.400000</ele>
        <time>2020-10-17T08:04:02Z</time>
      </trkpt>
      <trkpt lat="40.127656000" lon="-8.474579000">
        <ele>76.000000</ele>
        <time>2020-10-17T08:04:03Z</time>
      </trkpt>
      <trkpt lat="40.127561000" lon="-8.474830000">
        <ele>75.200000</ele>
        <time>2020-10-17T08:04:05Z</time>
      </trkpt>
      <trkpt lat="40.127504000" lon="-8.474951000">
        <ele>75.000000</ele>
        <time>2020-10-17T08:04:06Z</time>
      </trkpt>
      <trkpt lat="40.127439000" lon="-8.475065000">
        <ele>74.200000</ele>
        <time>2020-10-17T08:04:07Z</time>
      </trkpt>
      <trkpt lat="40.127369000" lon="-8.475168000">
        <ele>73.400000</ele>
        <time>2020-10-17T08:04:08Z</time>
      </trkpt>
      <trkpt lat="40.127293000" lon="-8.475255000">
        <ele>72.400000</ele>
        <time>2020-10-17T08:04:09Z</time>
      </trkpt>
      <trkpt lat="40.127212000" lon="-8.475335000">
        <ele>71.800000</ele>
        <time>2020-10-17T08:04:10Z</time>
      </trkpt>
      <trkpt lat="40.127136000" lon="-8.475412000">
        <ele>70.600000</ele>
        <time>2020-10-17T08:04:11Z</time>
      </trkpt>
      <trkpt lat="40.127078000" lon="-8.475494000">
        <ele>69.400000</ele>
        <time>2020-10-17T08:04:12Z</time>
      </trkpt>
      <trkpt lat="40.127035000" lon="-8.475583000">
        <ele>68.400000</ele>
        <time>2020-10-17T08:04:13Z</time>
      </trkpt>
      <trkpt lat="40.127014000" lon="-8.475674000">
        <ele>67.800000</ele>
        <time>2020-10-17T08:04:14Z</time>
      </trkpt>
      <trkpt lat="40.127004000" lon="-8.475766000">
        <ele>67.400000</ele>
        <time>2020-10-17T08:04:15Z</time>
      </trkpt>
      <trkpt lat="40.127009000" lon="-8.475854000">
        <ele>67.400000</ele>
        <time>2020-10-17T08:04:16Z</time>
      </trkpt>
      <trkpt lat="40.127021000" lon="-8.475941000">
        <ele>67.200000</ele>
        <time>2020-10-17T08:04:17Z</time>
      </trkpt>
      <trkpt lat="40.127037000" lon="-8.476023000">
        <ele>67.200000</ele>
        <time>2020-10-17T08:04:18Z</time>
      </trkpt>
      <trkpt lat="40.127050000" lon="-8.476101000">
        <ele>67.200000</ele>
        <time>2020-10-17T08:04:19Z</time>
      </trkpt>
      <trkpt lat="40.127057000" lon="-8.476177000">
        <ele>67.200000</ele>
        <time>2020-10-17T08:04:20Z</time>
      </trkpt>
      <trkpt lat="40.127060000" lon="-8.476248000">
        <ele>67.200000</ele>
        <time>2020-10-17T08:04:21Z</time>
      </trkpt>
      <trkpt lat="40.127060000" lon="-8.476316000">
        <ele>67.200000</ele>
        <time>2020-10-17T08:04:22Z</time>
      </trkpt>
      <trkpt lat="40.127061000" lon="-8.476377000">
        <ele>67.200000</ele>
        <time>2020-10-17T08:04:23Z</time>
      </trkpt>
      <trkpt lat="40.127060000" lon="-8.476433000">
        <ele>67.200000</ele>
        <time>2020-10-17T08:04:24Z</time>
      </trkpt>
      <trkpt lat="40.127055000" lon="-8.476483000">
        <ele>67.400000</ele>
        <time>2020-10-17T08:04:25Z</time>
      </trkpt>
      <trkpt lat="40.127049000" lon="-8.476530000">
        <ele>67.600000</ele>
        <time>2020-10-17T08:04:26Z</time>
      </trkpt>
      <trkpt lat="40.127044000" lon="-8.476575000">
        <ele>68.200000</ele>
        <time>2020-10-17T08:04:27Z</time>
      </trkpt>
      <trkpt lat="40.127038000" lon="-8.476618000">
        <ele>68.600000</ele>
        <time>2020-10-17T08:04:28Z</time>
      </trkpt>
      <trkpt lat="40.127030000" lon="-8.476656000">
        <ele>69.200000</ele>
        <time>2020-10-17T08:04:29Z</time>
      </trkpt>
      <trkpt lat="40.127022000" lon="-8.476693000">
        <ele>69.600000</ele>
        <time>2020-10-17T08:04:30Z</time>
      </trkpt>
      <trkpt lat="40.127012000" lon="-8.476732000">
        <ele>70.200000</ele>
        <time>2020-10-17T08:04:31Z</time>
      </trkpt>
      <trkpt lat="40.127001000" lon="-8.476773000">
        <ele>71.000000</ele>
        <time>2020-10-17T08:04:32Z</time>
      </trkpt>
      <trkpt lat="40.126989000" lon="-8.476815000">
        <ele>71.800000</ele>
        <time>2020-10-17T08:04:33Z</time>
      </trkpt>
      <trkpt lat="40.126974000" lon="-8.476857000">
        <ele>72.200000</ele>
        <time>2020-10-17T08:04:34Z</time>
      </trkpt>
      <trkpt lat="40.126960000" lon="-8.476897000">
        <ele>72.800000</ele>
        <time>2020-10-17T08:04:35Z</time>
      </trkpt>
      <trkpt lat="40.126945000" lon="-8.476936000">
        <ele>73.200000</ele>
        <time>2020-10-17T08:04:36Z</time>
      </trkpt>
      <trkpt lat="40.126934000" lon="-8.476975000">
        <ele>73.800000</ele>
        <time>2020-10-17T08:04:37Z</time>
      </trkpt>
      <trkpt lat="40.126924000" lon="-8.477016000">
        <ele>74.000000</ele>
        <time>2020-10-17T08:04:38Z</time>
      </trkpt>
      <trkpt lat="40.126919000" lon="-8.477055000">
        <ele>74.600000</ele>
        <time>2020-10-17T08:04:39Z</time>
      </trkpt>
      <trkpt lat="40.126916000" lon="-8.477092000">
        <ele>75.000000</ele>
        <time>2020-10-17T08:04:40Z</time>
      </trkpt>
      <trkpt lat="40.126917000" lon="-8.477126000">
        <ele>75.200000</ele>
        <time>2020-10-17T08:04:41Z</time>
      </trkpt>
      <trkpt lat="40.126920000" lon="-8.477161000">
        <ele>75.200000</ele>
        <time>2020-10-17T08:04:42Z</time>
      </trkpt>
      <trkpt lat="40.126929000" lon="-8.477199000">
        <ele>75.600000</ele>
        <time>2020-10-17T08:04:43Z</time>
      </trkpt>
      <trkpt lat="40.126940000" lon="-8.477236000">
        <ele>76.000000</ele>
        <time>2020-10-17T08:04:44Z</time>
      </trkpt>
      <trkpt lat="40.126952000" lon="-8.477275000">
        <ele>76.000000</ele>
        <time>2020-10-17T08:04:45Z</time>
      </trkpt>
      <trkpt lat="40.126963000" lon="-8.477318000">
        <ele>76.400000</ele>
        <time>2020-10-17T08:04:46Z</time>
      </trkpt>
      <trkpt lat="40.126978000" lon="-8.477359000">
        <ele>76.800000</ele>
        <time>2020-10-17T08:04:47Z</time>
      </trkpt>
      <trkpt lat="40.126991000" lon="-8.477400000">
        <ele>77.000000</ele>
        <time>2020-10-17T08:04:48Z</time>
      </trkpt>
      <trkpt lat="40.127000000" lon="-8.477437000">
        <ele>77.200000</ele>
        <time>2020-10-17T08:04:49Z</time>
      </trkpt>
      <trkpt lat="40.127009000" lon="-8.477476000">
        <ele>77.400000</ele>
        <time>2020-10-17T08:04:50Z</time>
      </trkpt>
      <trkpt lat="40.127015000" lon="-8.477510000">
        <ele>77.800000</ele>
        <time>2020-10-17T08:04:51Z</time>
      </trkpt>
      <trkpt lat="40.127021000" lon="-8.477544000">
        <ele>78.000000</ele>
        <time>2020-10-17T08:04:52Z</time>
      </trkpt>
      <trkpt lat="40.127026000" lon="-8.477578000">
        <ele>78.000000</ele>
        <time>2020-10-17T08:04:53Z</time>
      </trkpt>
      <trkpt lat="40.127027000" lon="-8.477613000">
        <ele>78.200000</ele>
        <time>2020-10-17T08:04:54Z</time>
      </trkpt>
      <trkpt lat="40.127025000" lon="-8.477651000">
        <ele>78.400000</ele>
        <time>2020-10-17T08:04:55Z</time>
      </trkpt>
      <trkpt lat="40.127022000" lon="-8.477689000">
        <ele>78.600000</ele>
        <time>2020-10-17T08:04:56Z</time>
      </trkpt>
      <trkpt lat="40.127028000" lon="-8.477736000">
        <ele>78.800000</ele>
        <time>2020-10-17T08:04:57Z</time>
      </trkpt>
      <trkpt lat="40.127036000" lon="-8.477781000">
        <ele>78.800000</ele>
        <time>2020-10-17T08:04:58Z</time>
      </trkpt>
      <trkpt lat="40.127046000" lon="-8.477832000">
        <ele>79.000000</ele>
        <time>2020-10-17T08:04:59Z</time>
      </trkpt>
      <trkpt lat="40.127055000" lon="-8.477891000">
        <ele>79.200000</ele>
        <time>2020-10-17T08:05:00Z</time>
      </trkpt>
      <trkpt lat="40.127059000" lon="-8.477955000">
        <ele>79.400000</ele>
        <time>2020-10-17T08:05:01Z</time>
      </trkpt>
      <trkpt lat="40.127057000" lon="-8.478023000">
        <ele>79.200000</ele>
        <time>2020-10-17T08:05:02Z</time>
      </trkpt>
      <trkpt lat="40.127047000" lon="-8.478098000">
        <ele>79.200000</ele>
        <time>2020-10-17T08:05:03Z</time>
      </trkpt>
      <trkpt lat="40.127036000" lon="-8.478172000">
        <ele>79.200000</ele>
        <time>2020-10-17T08:05:04Z</time>
      </trkpt>
      <trkpt lat="40.127022000" lon="-8.478252000">
        <ele>79.200000</ele>
        <time>2020-10-17T08:05:05Z</time>
      </trkpt>
      <trkpt lat="40.127009000" lon="-8.478335000">
        <ele>79.200000</ele>
        <time>2020-10-17T08:05:06Z</time>
      </trkpt>
      <trkpt lat="40.126997000" lon="-8.478419000">
        <ele>79.200000</ele>
        <time>2020-10-17T08:05:07Z</time>
      </trkpt>
      <trkpt lat="40.126984000" lon="-8.478501000">
        <ele>79.200000</ele>
        <time>2020-10-17T08:05:08Z</time>
      </trkpt>
      <trkpt lat="40.126952000" lon="-8.478949000">
        <ele>79.000000</ele>
        <time>2020-10-17T08:05:13Z</time>
      </trkpt>
      <trkpt lat="40.126952000" lon="-8.479039000">
        <ele>78.800000</ele>
        <time>2020-10-17T08:05:14Z</time>
      </trkpt>
      <trkpt lat="40.126981000" lon="-8.479522000">
        <ele>77.200000</ele>
        <time>2020-10-17T08:05:19Z</time>
      </trkpt>
      <trkpt lat="40.126976000" lon="-8.479614000">
        <ele>77.200000</ele>
        <time>2020-10-17T08:05:20Z</time>
      </trkpt>
      <trkpt lat="40.126964000" lon="-8.479709000">
        <ele>77.000000</ele>
        <time>2020-10-17T08:05:21Z</time>
      </trkpt>
      <trkpt lat="40.126942000" lon="-8.479800000">
        <ele>76.800000</ele>
        <time>2020-10-17T08:05:22Z</time>
      </trkpt>
      <trkpt lat="40.126917000" lon="-8.479893000">
        <ele>76.800000</ele>
        <time>2020-10-17T08:05:23Z</time>
      </trkpt>
      <trkpt lat="40.126893000" lon="-8.479985000">
        <ele>76.400000</ele>
        <time>2020-10-17T08:05:24Z</time>
      </trkpt>
      <trkpt lat="40.126870000" lon="-8.480072000">
        <ele>76.200000</ele>
        <time>2020-10-17T08:05:25Z</time>
      </trkpt>
      <trkpt lat="40.126852000" lon="-8.480153000">
        <ele>76.000000</ele>
        <time>2020-10-17T08:05:26Z</time>
      </trkpt>
      <trkpt lat="40.126834000" lon="-8.480225000">
        <ele>75.800000</ele>
        <time>2020-10-17T08:05:27Z</time>
      </trkpt>
      <trkpt lat="40.126824000" lon="-8.480289000">
        <ele>75.600000</ele>
        <time>2020-10-17T08:05:28Z</time>
      </trkpt>
      <trkpt lat="40.126825000" lon="-8.480344000">
        <ele>75.400000</ele>
        <time>2020-10-17T08:05:29Z</time>
      </trkpt>
      <trkpt lat="40.126835000" lon="-8.480394000">
        <ele>75.200000</ele>
        <time>2020-10-17T08:05:30Z</time>
      </trkpt>
      <trkpt lat="40.126856000" lon="-8.480441000">
        <ele>75.000000</ele>
        <time>2020-10-17T08:05:31Z</time>
      </trkpt>
      <trkpt lat="40.126882000" lon="-8.480487000">
        <ele>74.600000</ele>
        <time>2020-10-17T08:05:32Z</time>
      </trkpt>
      <trkpt lat="40.126913000" lon="-8.480536000">
        <ele>74.200000</ele>
        <time>2020-10-17T08:05:33Z</time>
      </trkpt>
      <trkpt lat="40.126972000" lon="-8.480630000">
        <ele>74.000000</ele>
        <time>2020-10-17T08:05:35Z</time>
      </trkpt>
      <trkpt lat="40.126993000" lon="-8.480669000">
        <ele>73.600000</ele>
        <time>2020-10-17T08:05:36Z</time>
      </trkpt>
      <trkpt lat="40.127006000" lon="-8.480705000">
        <ele>73.800000</ele>
        <time>2020-10-17T08:05:37Z</time>
      </trkpt>
      <trkpt lat="40.127015000" lon="-8.480744000">
        <ele>73.600000</ele>
        <time>2020-10-17T08:05:38Z</time>
      </trkpt>
      <trkpt lat="40.127015000" lon="-8.480781000">
        <ele>73.400000</ele>
        <time>2020-10-17T08:05:39Z</time>
      </trkpt>
      <trkpt lat="40.127008000" lon="-8.480818000">
        <ele>73.200000</ele>
        <time>2020-10-17T08:05:40Z</time>
      </trkpt>
      <trkpt lat="40.126972000" lon="-8.480897000">
        <ele>72.400000</ele>
        <time>2020-10-17T08:05:42Z</time>
      </trkpt>
      <trkpt lat="40.126948000" lon="-8.480945000">
        <ele>72.400000</ele>
        <time>2020-10-17T08:05:43Z</time>
      </trkpt>
      <trkpt lat="40.126916000" lon="-8.480997000">
        <ele>72.200000</ele>
        <time>2020-10-17T08:05:44Z</time>
      </trkpt>
      <trkpt lat="40.126777000" lon="-8.481176000">
        <ele>72.200000</ele>
        <time>2020-10-17T08:05:48Z</time>
      </trkpt>
      <trkpt lat="40.126742000" lon="-8.481217000">
        <ele>72.000000</ele>
        <time>2020-10-17T08:05:49Z</time>
      </trkpt>
      <trkpt lat="40.126708000" lon="-8.481255000">
        <ele>72.000000</ele>
        <time>2020-10-17T08:05:50Z</time>
      </trkpt>
      <trkpt lat="40.126674000" lon="-8.481292000">
        <ele>72.200000</ele>
        <time>2020-10-17T08:05:51Z</time>
      </trkpt>
      <trkpt lat="40.126640000" lon="-8.481329000">
        <ele>72.200000</ele>
        <time>2020-10-17T08:05:52Z</time>
      </trkpt>
      <trkpt lat="40.126606000" lon="-8.481368000">
        <ele>72.200000</ele>
        <time>2020-10-17T08:05:53Z</time>
      </trkpt>
      <trkpt lat="40.126350000" lon="-8.481665000">
        <ele>73.800000</ele>
        <time>2020-10-17T08:06:00Z</time>
      </trkpt>
      <trkpt lat="40.126313000" lon="-8.481704000">
        <ele>73.800000</ele>
        <time>2020-10-17T08:06:01Z</time>
      </trkpt>
      <trkpt lat="40.126276000" lon="-8.481743000">
        <ele>74.200000</ele>
        <time>2020-10-17T08:06:02Z</time>
      </trkpt>
      <trkpt lat="40.126238000" lon="-8.481783000">
        <ele>74.400000</ele>
        <time>2020-10-17T08:06:03Z</time>
      </trkpt>
      <trkpt lat="40.126202000" lon="-8.481824000">
        <ele>74.400000</ele>
        <time>2020-10-17T08:06:04Z</time>
      </trkpt>
      <trkpt lat="40.126166000" lon="-8.481863000">
        <ele>74.600000</ele>
        <time>2020-10-17T08:06:05Z</time>
      </trkpt>
      <trkpt lat="40.126133000" lon="-8.481902000">
        <ele>74.800000</ele>
        <time>2020-10-17T08:06:06Z</time>
      </trkpt>
      <trkpt lat="40.126100000" lon="-8.481944000">
        <ele>75.000000</ele>
        <time>2020-10-17T08:06:07Z</time>
      </trkpt>
      <trkpt lat="40.126067000" lon="-8.481986000">
        <ele>75.000000</ele>
        <time>2020-10-17T08:06:08Z</time>
      </trkpt>
      <trkpt lat="40.126030000" lon="-8.482028000">
        <ele>75.200000</ele>
        <time>2020-10-17T08:06:09Z</time>
      </trkpt>
      <trkpt lat="40.126013000" lon="-8.482060000">
        <ele>75.600000</ele>
        <time>2020-10-17T08:06:10Z</time>
      </trkpt>
      <trkpt lat="40.125996000" lon="-8.482091000">
        <ele>75.600000</ele>
        <time>2020-10-17T08:06:11Z</time>
      </trkpt>
      <trkpt lat="40.125979000" lon="-8.482123000">
        <ele>75.800000</ele>
        <time>2020-10-17T08:06:12Z</time>
      </trkpt>
      <trkpt lat="40.125962000" lon="-8.482154000">
        <ele>75.800000</ele>
        <time>2020-10-17T08:06:13Z</time>
      </trkpt>
      <trkpt lat="40.125893000" lon="-8.482279000">
        <ele>76.200000</ele>
        <time>2020-10-17T08:06:14Z</time>
      </trkpt>
      <trkpt lat="40.125878000" lon="-8.482347000">
        <ele>76.400000</ele>
        <time>2020-10-17T08:06:15Z</time>
      </trkpt>
      <trkpt lat="40.125846000" lon="-8.482408000">
        <ele>76.400000</ele>
        <time>2020-10-17T08:06:16Z</time>
      </trkpt>
      <trkpt lat="40.125814000" lon="-8.482467000">
        <ele>76.600000</ele>
        <time>2020-10-17T08:06:17Z</time>
      </trkpt>
      <trkpt lat="40.125778000" lon="-8.482536000">
        <ele>76.600000</ele>
        <time>2020-10-17T08:06:18Z</time>
      </trkpt>
      <trkpt lat="40.125741000" lon="-8.482603000">
        <ele>76.800000</ele>
        <time>2020-10-17T08:06:19Z</time>
      </trkpt>
      <trkpt lat="40.125692000" lon="-8.482676000">
        <ele>76.800000</ele>
        <time>2020-10-17T08:06:20Z</time>
      </trkpt>
      <trkpt lat="40.125648000" lon="-8.482742000">
        <ele>76.800000</ele>
        <time>2020-10-17T08:06:21Z</time>
      </trkpt>
      <trkpt lat="40.125605000" lon="-8.482804000">
        <ele>76.800000</ele>
        <time>2020-10-17T08:06:22Z</time>
      </trkpt>
      <trkpt lat="40.125564000" lon="-8.482867000">
        <ele>76.800000</ele>
        <time>2020-10-17T08:06:23Z</time>
      </trkpt>
      <trkpt lat="40.125477000" lon="-8.483000000">
        <ele>76.800000</ele>
        <time>2020-10-17T08:06:25Z</time>
      </trkpt>
      <trkpt lat="40.125389000" lon="-8.483143000">
        <ele>76.800000</ele>
        <time>2020-10-17T08:06:27Z</time>
      </trkpt>
      <trkpt lat="40.125336000" lon="-8.483207000">
        <ele>76.800000</ele>
        <time>2020-10-17T08:06:28Z</time>
      </trkpt>
      <trkpt lat="40.125276000" lon="-8.483268000">
        <ele>76.600000</ele>
        <time>2020-10-17T08:06:29Z</time>
      </trkpt>
      <trkpt lat="40.125216000" lon="-8.483322000">
        <ele>76.600000</ele>
        <time>2020-10-17T08:06:30Z</time>
      </trkpt>
      <trkpt lat="40.125082000" lon="-8.483412000">
        <ele>76.200000</ele>
        <time>2020-10-17T08:06:32Z</time>
      </trkpt>
      <trkpt lat="40.125010000" lon="-8.483445000">
        <ele>76.200000</ele>
        <time>2020-10-17T08:06:33Z</time>
      </trkpt>
      <trkpt lat="40.124870000" lon="-8.483495000">
        <ele>75.200000</ele>
        <time>2020-10-17T08:06:35Z</time>
      </trkpt>
      <trkpt lat="40.124798000" lon="-8.483504000">
        <ele>75.000000</ele>
        <time>2020-10-17T08:06:36Z</time>
      </trkpt>
      <trkpt lat="40.124727000" lon="-8.483506000">
        <ele>74.800000</ele>
        <time>2020-10-17T08:06:37Z</time>
      </trkpt>
      <trkpt lat="40.124577000" lon="-8.483489000">
        <ele>74.200000</ele>
        <time>2020-10-17T08:06:39Z</time>
      </trkpt>
      <trkpt lat="40.124420000" lon="-8.483459000">
        <ele>73.800000</ele>
        <time>2020-10-17T08:06:41Z</time>
      </trkpt>
      <trkpt lat="40.124341000" lon="-8.483445000">
        <ele>73.400000</ele>
        <time>2020-10-17T08:06:42Z</time>
      </trkpt>
      <trkpt lat="40.124262000" lon="-8.483430000">
        <ele>73.200000</ele>
        <time>2020-10-17T08:06:43Z</time>
      </trkpt>
      <trkpt lat="40.124097000" lon="-8.483399000">
        <ele>72.600000</ele>
        <time>2020-10-17T08:06:45Z</time>
      </trkpt>
      <trkpt lat="40.124016000" lon="-8.483387000">
        <ele>72.400000</ele>
        <time>2020-10-17T08:06:46Z</time>
      </trkpt>
      <trkpt lat="40.123851000" lon="-8.483358000">
        <ele>71.400000</ele>
        <time>2020-10-17T08:06:48Z</time>
      </trkpt>
      <trkpt lat="40.123685000" lon="-8.483334000">
        <ele>70.400000</ele>
        <time>2020-10-17T08:06:50Z</time>
      </trkpt>
      <trkpt lat="40.123603000" lon="-8.483324000">
        <ele>70.200000</ele>
        <time>2020-10-17T08:06:51Z</time>
      </trkpt>
      <trkpt lat="40.123355000" lon="-8.483315000">
        <ele>68.400000</ele>
        <time>2020-10-17T08:06:54Z</time>
      </trkpt>
      <trkpt lat="40.123184000" lon="-8.483324000">
        <ele>67.400000</ele>
        <time>2020-10-17T08:06:56Z</time>
      </trkpt>
      <trkpt lat="40.123096000" lon="-8.483332000">
        <ele>66.800000</ele>
        <time>2020-10-17T08:06:57Z</time>
      </trkpt>
      <trkpt lat="40.122924000" lon="-8.483369000">
        <ele>65.800000</ele>
        <time>2020-10-17T08:06:59Z</time>
      </trkpt>
      <trkpt lat="40.122756000" lon="-8.483434000">
        <ele>64.800000</ele>
        <time>2020-10-17T08:07:01Z</time>
      </trkpt>
      <trkpt lat="40.122603000" lon="-8.483548000">
        <ele>63.800000</ele>
        <time>2020-10-17T08:07:03Z</time>
      </trkpt>
      <trkpt lat="40.122531000" lon="-8.483619000">
        <ele>63.200000</ele>
        <time>2020-10-17T08:07:04Z</time>
      </trkpt>
      <trkpt lat="40.122467000" lon="-8.483704000">
        <ele>63.200000</ele>
        <time>2020-10-17T08:07:05Z</time>
      </trkpt>
      <trkpt lat="40.122409000" lon="-8.483797000">
        <ele>62.800000</ele>
        <time>2020-10-17T08:07:06Z</time>
      </trkpt>
      <trkpt lat="40.122360000" lon="-8.483896000">
        <ele>62.400000</ele>
        <time>2020-10-17T08:07:07Z</time>
      </trkpt>
      <trkpt lat="40.122318000" lon="-8.484000000">
        <ele>61.600000</ele>
        <time>2020-10-17T08:07:08Z</time>
      </trkpt>
      <trkpt lat="40.122280000" lon="-8.484105000">
        <ele>60.800000</ele>
        <time>2020-10-17T08:07:09Z</time>
      </trkpt>
      <trkpt lat="40.122214000" lon="-8.484325000">
        <ele>60.000000</ele>
        <time>2020-10-17T08:07:11Z</time>
      </trkpt>
      <trkpt lat="40.122158000" lon="-8.484548000">
        <ele>59.000000</ele>
        <time>2020-10-17T08:07:13Z</time>
      </trkpt>
      <trkpt lat="40.122098000" lon="-8.484768000">
        <ele>58.200000</ele>
        <time>2020-10-17T08:07:15Z</time>
      </trkpt>
      <trkpt lat="40.122068000" lon="-8.484877000">
        <ele>57.600000</ele>
        <time>2020-10-17T08:07:16Z</time>
      </trkpt>
      <trkpt lat="40.122040000" lon="-8.484986000">
        <ele>56.800000</ele>
        <time>2020-10-17T08:07:17Z</time>
      </trkpt>
      <trkpt lat="40.122011000" lon="-8.485092000">
        <ele>56.200000</ele>
        <time>2020-10-17T08:07:18Z</time>
      </trkpt>
      <trkpt lat="40.121983000" lon="-8.485199000">
        <ele>56.000000</ele>
        <time>2020-10-17T08:07:19Z</time>
      </trkpt>
      <trkpt lat="40.121955000" lon="-8.485308000">
        <ele>55.400000</ele>
        <time>2020-10-17T08:07:20Z</time>
      </trkpt>
      <trkpt lat="40.121927000" lon="-8.485411000">
        <ele>55.000000</ele>
        <time>2020-10-17T08:07:21Z</time>
      </trkpt>
      <trkpt lat="40.121898000" lon="-8.485512000">
        <ele>54.800000</ele>
        <time>2020-10-17T08:07:22Z</time>
      </trkpt>
      <trkpt lat="40.121872000" lon="-8.485612000">
        <ele>54.800000</ele>
        <time>2020-10-17T08:07:23Z</time>
      </trkpt>
      <trkpt lat="40.121762000" lon="-8.486017000">
        <ele>54.600000</ele>
        <time>2020-10-17T08:07:27Z</time>
      </trkpt>
      <trkpt lat="40.121681000" lon="-8.486317000">
        <ele>53.800000</ele>
        <time>2020-10-17T08:07:30Z</time>
      </trkpt>
      <trkpt lat="40.121652000" lon="-8.486413000">
        <ele>53.600000</ele>
        <time>2020-10-17T08:07:31Z</time>
      </trkpt>
      <trkpt lat="40.121623000" lon="-8.486507000">
        <ele>53.400000</ele>
        <time>2020-10-17T08:07:32Z</time>
      </trkpt>
      <trkpt lat="40.121595000" lon="-8.486601000">
        <ele>53.600000</ele>
        <time>2020-10-17T08:07:33Z</time>
      </trkpt>
      <trkpt lat="40.121504000" lon="-8.486889000">
        <ele>53.200000</ele>
        <time>2020-10-17T08:07:36Z</time>
      </trkpt>
      <trkpt lat="40.121391000" lon="-8.487268000">
        <ele>52.600000</ele>
        <time>2020-10-17T08:07:40Z</time>
      </trkpt>
      <trkpt lat="40.121276000" lon="-8.487754000">
        <ele>52.200000</ele>
        <time>2020-10-17T08:07:45Z</time>
      </trkpt>
      <trkpt lat="40.121258000" lon="-8.487851000">
        <ele>52.200000</ele>
        <time>2020-10-17T08:07:46Z</time>
      </trkpt>
      <trkpt lat="40.121240000" lon="-8.487950000">
        <ele>52.000000</ele>
        <time>2020-10-17T08:07:47Z</time>
      </trkpt>
      <trkpt lat="40.121137000" lon="-8.488530000">
        <ele>51.600000</ele>
        <time>2020-10-17T08:07:53Z</time>
      </trkpt>
      <trkpt lat="40.121124000" lon="-8.488624000">
        <ele>51.800000</ele>
        <time>2020-10-17T08:07:54Z</time>
      </trkpt>
      <trkpt lat="40.121112000" lon="-8.488716000">
        <ele>51.800000</ele>
        <time>2020-10-17T08:07:55Z</time>
      </trkpt>
      <trkpt lat="40.121100000" lon="-8.488808000">
        <ele>51.600000</ele>
        <time>2020-10-17T08:07:56Z</time>
      </trkpt>
      <trkpt lat="40.121069000" lon="-8.489083000">
        <ele>51.600000</ele>
        <time>2020-10-17T08:07:59Z</time>
      </trkpt>
      <trkpt lat="40.121060000" lon="-8.489176000">
        <ele>51.600000</ele>
        <time>2020-10-17T08:08:00Z</time>
      </trkpt>
      <trkpt lat="40.121049000" lon="-8.489263000">
        <ele>51.600000</ele>
        <time>2020-10-17T08:08:01Z</time>
      </trkpt>
      <trkpt lat="40.121041000" lon="-8.489351000">
        <ele>51.600000</ele>
        <time>2020-10-17T08:08:02Z</time>
      </trkpt>
      <trkpt lat="40.121036000" lon="-8.489439000">
        <ele>51.600000</ele>
        <time>2020-10-17T08:08:03Z</time>
      </trkpt>
      <trkpt lat="40.121031000" lon="-8.489526000">
        <ele>51.600000</ele>
        <time>2020-10-17T08:08:04Z</time>
      </trkpt>
      <trkpt lat="40.121029000" lon="-8.489612000">
        <ele>51.600000</ele>
        <time>2020-10-17T08:08:05Z</time>
      </trkpt>
      <trkpt lat="40.121029000" lon="-8.489697000">
        <ele>51.600000</ele>
        <time>2020-10-17T08:08:06Z</time>
      </trkpt>
      <trkpt lat="40.121043000" lon="-8.489873000">
        <ele>51.800000</ele>
        <time>2020-10-17T08:08:08Z</time>
      </trkpt>
      <trkpt lat="40.121058000" lon="-8.489954000">
        <ele>51.800000</ele>
        <time>2020-10-17T08:08:09Z</time>
      </trkpt>
      <trkpt lat="40.121076000" lon="-8.490032000">
        <ele>52.000000</ele>
        <time>2020-10-17T08:08:10Z</time>
      </trkpt>
      <trkpt lat="40.121096000" lon="-8.490115000">
        <ele>52.200000</ele>
        <time>2020-10-17T08:08:11Z</time>
      </trkpt>
      <trkpt lat="40.121116000" lon="-8.490193000">
        <ele>52.400000</ele>
        <time>2020-10-17T08:08:12Z</time>
      </trkpt>
      <trkpt lat="40.121136000" lon="-8.490272000">
        <ele>52.400000</ele>
        <time>2020-10-17T08:08:13Z</time>
      </trkpt>
      <trkpt lat="40.121155000" lon="-8.490350000">
        <ele>52.400000</ele>
        <time>2020-10-17T08:08:14Z</time>
      </trkpt>
      <trkpt lat="40.121177000" lon="-8.490422000">
        <ele>52.600000</ele>
        <time>2020-10-17T08:08:15Z</time>
      </trkpt>
      <trkpt lat="40.121205000" lon="-8.490494000">
        <ele>52.800000</ele>
        <time>2020-10-17T08:08:16Z</time>
      </trkpt>
      <trkpt lat="40.121334000" lon="-8.490780000">
        <ele>53.200000</ele>
        <time>2020-10-17T08:08:20Z</time>
      </trkpt>
      <trkpt lat="40.121370000" lon="-8.490848000">
        <ele>53.400000</ele>
        <time>2020-10-17T08:08:21Z</time>
      </trkpt>
      <trkpt lat="40.121405000" lon="-8.490915000">
        <ele>53.600000</ele>
        <time>2020-10-17T08:08:22Z</time>
      </trkpt>
      <trkpt lat="40.121438000" lon="-8.490981000">
        <ele>53.800000</ele>
        <time>2020-10-17T08:08:23Z</time>
      </trkpt>
      <trkpt lat="40.121471000" lon="-8.491051000">
        <ele>53.800000</ele>
        <time>2020-10-17T08:08:24Z</time>
      </trkpt>
      <trkpt lat="40.121506000" lon="-8.491121000">
        <ele>54.200000</ele>
        <time>2020-10-17T08:08:25Z</time>
      </trkpt>
      <trkpt lat="40.121540000" lon="-8.491188000">
        <ele>54.200000</ele>
        <time>2020-10-17T08:08:26Z</time>
      </trkpt>
      <trkpt lat="40.121572000" lon="-8.491254000">
        <ele>54.200000</ele>
        <time>2020-10-17T08:08:27Z</time>
      </trkpt>
      <trkpt lat="40.121602000" lon="-8.491321000">
        <ele>54.400000</ele>
        <time>2020-10-17T08:08:28Z</time>
      </trkpt>
      <trkpt lat="40.121626000" lon="-8.491383000">
        <ele>54.400000</ele>
        <time>2020-10-17T08:08:29Z</time>
      </trkpt>
      <trkpt lat="40.121648000" lon="-8.491443000">
        <ele>54.400000</ele>
        <time>2020-10-17T08:08:30Z</time>
      </trkpt>
      <trkpt lat="40.121669000" lon="-8.491506000">
        <ele>54.600000</ele>
        <time>2020-10-17T08:08:31Z</time>
      </trkpt>
      <trkpt lat="40.121689000" lon="-8.491571000">
        <ele>54.800000</ele>
        <time>2020-10-17T08:08:32Z</time>
      </trkpt>
      <trkpt lat="40.121702000" lon="-8.491637000">
        <ele>55.200000</ele>
        <time>2020-10-17T08:08:33Z</time>
      </trkpt>
      <trkpt lat="40.121710000" lon="-8.491701000">
        <ele>55.400000</ele>
        <time>2020-10-17T08:08:34Z</time>
      </trkpt>
      <trkpt lat="40.121717000" lon="-8.491767000">
        <ele>55.800000</ele>
        <time>2020-10-17T08:08:35Z</time>
      </trkpt>
      <trkpt lat="40.121723000" lon="-8.491834000">
        <ele>56.000000</ele>
        <time>2020-10-17T08:08:36Z</time>
      </trkpt>
      <trkpt lat="40.121725000" lon="-8.491899000">
        <ele>56.200000</ele>
        <time>2020-10-17T08:08:37Z</time>
      </trkpt>
      <trkpt lat="40.121727000" lon="-8.491966000">
        <ele>56.400000</ele>
        <time>2020-10-17T08:08:38Z</time>
      </trkpt>
      <trkpt lat="40.121726000" lon="-8.492030000">
        <ele>56.600000</ele>
        <time>2020-10-17T08:08:39Z</time>
      </trkpt>
      <trkpt lat="40.121726000" lon="-8.492096000">
        <ele>56.800000</ele>
        <time>2020-10-17T08:08:40Z</time>
      </trkpt>
      <trkpt lat="40.121723000" lon="-8.492160000">
        <ele>57.200000</ele>
        <time>2020-10-17T08:08:41Z</time>
      </trkpt>
      <trkpt lat="40.121720000" lon="-8.492225000">
        <ele>57.600000</ele>
        <time>2020-10-17T08:08:42Z</time>
      </trkpt>
      <trkpt lat="40.121718000" lon="-8.492286000">
        <ele>57.800000</ele>
        <time>2020-10-17T08:08:43Z</time>
      </trkpt>
      <trkpt lat="40.121718000" lon="-8.492348000">
        <ele>58.200000</ele>
        <time>2020-10-17T08:08:44Z</time>
      </trkpt>
      <trkpt lat="40.121717000" lon="-8.492406000">
        <ele>58.400000</ele>
        <time>2020-10-17T08:08:45Z</time>
      </trkpt>
      <trkpt lat="40.121714000" lon="-8.492463000">
        <ele>58.400000</ele>
        <time>2020-10-17T08:08:46Z</time>
      </trkpt>
      <trkpt lat="40.121709000" lon="-8.492519000">
        <ele>58.400000</ele>
        <time>2020-10-17T08:08:47Z</time>
      </trkpt>
      <trkpt lat="40.121705000" lon="-8.492579000">
        <ele>59.000000</ele>
        <time>2020-10-17T08:08:48Z</time>
      </trkpt>
      <trkpt lat="40.121701000" lon="-8.492641000">
        <ele>59.200000</ele>
        <time>2020-10-17T08:08:49Z</time>
      </trkpt>
      <trkpt lat="40.121697000" lon="-8.492702000">
        <ele>59.400000</ele>
        <time>2020-10-17T08:08:50Z</time>
      </trkpt>
      <trkpt lat="40.121692000" lon="-8.492758000">
        <ele>59.600000</ele>
        <time>2020-10-17T08:08:51Z</time>
      </trkpt>
      <trkpt lat="40.121688000" lon="-8.492816000">
        <ele>59.800000</ele>
        <time>2020-10-17T08:08:52Z</time>
      </trkpt>
      <trkpt lat="40.121685000" lon="-8.492876000">
        <ele>60.000000</ele>
        <time>2020-10-17T08:08:53Z</time>
      </trkpt>
      <trkpt lat="40.121679000" lon="-8.492934000">
        <ele>60.400000</ele>
        <time>2020-10-17T08:08:54Z</time>
      </trkpt>
      <trkpt lat="40.121672000" lon="-8.492995000">
        <ele>60.800000</ele>
        <time>2020-10-17T08:08:55Z</time>
      </trkpt>
      <trkpt lat="40.121670000" lon="-8.493055000">
        <ele>60.800000</ele>
        <time>2020-10-17T08:08:56Z</time>
      </trkpt>
      <trkpt lat="40.121667000" lon="-8.493113000">
        <ele>61.200000</ele>
        <time>2020-10-17T08:08:57Z</time>
      </trkpt>
      <trkpt lat="40.121667000" lon="-8.493170000">
        <ele>61.600000</ele>
        <time>2020-10-17T08:08:58Z</time>
      </trkpt>
      <trkpt lat="40.121667000" lon="-8.493231000">
        <ele>61.800000</ele>
        <time>2020-10-17T08:08:59Z</time>
      </trkpt>
      <trkpt lat="40.121666000" lon="-8.493292000">
        <ele>62.200000</ele>
        <time>2020-10-17T08:09:00Z</time>
      </trkpt>
      <trkpt lat="40.121664000" lon="-8.493351000">
        <ele>62.400000</ele>
        <time>2020-10-17T08:09:01Z</time>
      </trkpt>
      <trkpt lat="40.121664000" lon="-8.493412000">
        <ele>62.600000</ele>
        <time>2020-10-17T08:09:02Z</time>
      </trkpt>
      <trkpt lat="40.121668000" lon="-8.493473000">
        <ele>63.000000</ele>
        <time>2020-10-17T08:09:03Z</time>
      </trkpt>
      <trkpt lat="40.121670000" lon="-8.493532000">
        <ele>63.200000</ele>
        <time>2020-10-17T08:09:04Z</time>
      </trkpt>
      <trkpt lat="40.121671000" lon="-8.493591000">
        <ele>63.400000</ele>
        <time>2020-10-17T08:09:05Z</time>
      </trkpt>
      <trkpt lat="40.121673000" lon="-8.493650000">
        <ele>63.600000</ele>
        <time>2020-10-17T08:09:06Z</time>
      </trkpt>
      <trkpt lat="40.121676000" lon="-8.493707000">
        <ele>63.600000</ele>
        <time>2020-10-17T08:09:07Z</time>
      </trkpt>
      <trkpt lat="40.121677000" lon="-8.493764000">
        <ele>63.800000</ele>
        <time>2020-10-17T08:09:08Z</time>
      </trkpt>
      <trkpt lat="40.121678000" lon="-8.493823000">
        <ele>64.200000</ele>
        <time>2020-10-17T08:09:09Z</time>
      </trkpt>
      <trkpt lat="40.121678000" lon="-8.493882000">
        <ele>64.600000</ele>
        <time>2020-10-17T08:09:10Z</time>
      </trkpt>
      <trkpt lat="40.121680000" lon="-8.493940000">
        <ele>64.600000</ele>
        <time>2020-10-17T08:09:11Z</time>
      </trkpt>
      <trkpt lat="40.121684000" lon="-8.494000000">
        <ele>65.000000</ele>
        <time>2020-10-17T08:09:12Z</time>
      </trkpt>
      <trkpt lat="40.121688000" lon="-8.494056000">
        <ele>65.200000</ele>
        <time>2020-10-17T08:09:13Z</time>
      </trkpt>
      <trkpt lat="40.121692000" lon="-8.494111000">
        <ele>65.600000</ele>
        <time>2020-10-17T08:09:14Z</time>
      </trkpt>
      <trkpt lat="40.121699000" lon="-8.494171000">
        <ele>66.000000</ele>
        <time>2020-10-17T08:09:15Z</time>
      </trkpt>
      <trkpt lat="40.121706000" lon="-8.494231000">
        <ele>66.200000</ele>
        <time>2020-10-17T08:09:16Z</time>
      </trkpt>
      <trkpt lat="40.121709000" lon="-8.494288000">
        <ele>66.400000</ele>
        <time>2020-10-17T08:09:17Z</time>
      </trkpt>
      <trkpt lat="40.121714000" lon="-8.494343000">
        <ele>66.800000</ele>
        <time>2020-10-17T08:09:18Z</time>
      </trkpt>
      <trkpt lat="40.121717000" lon="-8.494399000">
        <ele>66.800000</ele>
        <time>2020-10-17T08:09:19Z</time>
      </trkpt>
      <trkpt lat="40.121717000" lon="-8.494453000">
        <ele>67.200000</ele>
        <time>2020-10-17T08:09:20Z</time>
      </trkpt>
      <trkpt lat="40.121713000" lon="-8.494506000">
        <ele>67.200000</ele>
        <time>2020-10-17T08:09:21Z</time>
      </trkpt>
      <trkpt lat="40.121708000" lon="-8.494559000">
        <ele>67.400000</ele>
        <time>2020-10-17T08:09:22Z</time>
      </trkpt>
      <trkpt lat="40.121702000" lon="-8.494612000">
        <ele>67.800000</ele>
        <time>2020-10-17T08:09:23Z</time>
      </trkpt>
      <trkpt lat="40.121693000" lon="-8.494665000">
        <ele>68.000000</ele>
        <time>2020-10-17T08:09:24Z</time>
      </trkpt>
      <trkpt lat="40.121683000" lon="-8.494716000">
        <ele>68.400000</ele>
        <time>2020-10-17T08:09:25Z</time>
      </trkpt>
      <trkpt lat="40.121671000" lon="-8.494767000">
        <ele>68.800000</ele>
        <time>2020-10-17T08:09:26Z</time>
      </trkpt>
      <trkpt lat="40.121656000" lon="-8.494816000">
        <ele>69.200000</ele>
        <time>2020-10-17T08:09:27Z</time>
      </trkpt>
      <trkpt lat="40.121640000" lon="-8.494865000">
        <ele>69.200000</ele>
        <time>2020-10-17T08:09:28Z</time>
      </trkpt>
      <trkpt lat="40.121621000" lon="-8.494912000">
        <ele>69.200000</ele>
        <time>2020-10-17T08:09:29Z</time>
      </trkpt>
      <trkpt lat="40.121600000" lon="-8.494960000">
        <ele>69.600000</ele>
        <time>2020-10-17T08:09:30Z</time>
      </trkpt>
      <trkpt lat="40.121580000" lon="-8.495007000">
        <ele>69.800000</ele>
        <time>2020-10-17T08:09:31Z</time>
      </trkpt>
      <trkpt lat="40.121560000" lon="-8.495055000">
        <ele>70.000000</ele>
        <time>2020-10-17T08:09:32Z</time>
      </trkpt>
      <trkpt lat="40.121540000" lon="-8.495100000">
        <ele>70.200000</ele>
        <time>2020-10-17T08:09:33Z</time>
      </trkpt>
      <trkpt lat="40.121518000" lon="-8.495144000">
        <ele>70.400000</ele>
        <time>2020-10-17T08:09:34Z</time>
      </trkpt>
      <trkpt lat="40.121495000" lon="-8.495186000">
        <ele>70.400000</ele>
        <time>2020-10-17T08:09:35Z</time>
      </trkpt>
      <trkpt lat="40.121471000" lon="-8.495227000">
        <ele>70.600000</ele>
        <time>2020-10-17T08:09:36Z</time>
      </trkpt>
      <trkpt lat="40.121447000" lon="-8.495269000">
        <ele>71.000000</ele>
        <time>2020-10-17T08:09:37Z</time>
      </trkpt>
      <trkpt lat="40.121421000" lon="-8.495310000">
        <ele>71.200000</ele>
        <time>2020-10-17T08:09:38Z</time>
      </trkpt>
      <trkpt lat="40.121396000" lon="-8.495349000">
        <ele>71.400000</ele>
        <time>2020-10-17T08:09:39Z</time>
      </trkpt>
      <trkpt lat="40.121370000" lon="-8.495388000">
        <ele>71.800000</ele>
        <time>2020-10-17T08:09:40Z</time>
      </trkpt>
      <trkpt lat="40.121345000" lon="-8.495426000">
        <ele>72.200000</ele>
        <time>2020-10-17T08:09:41Z</time>
      </trkpt>
      <trkpt lat="40.121320000" lon="-8.495467000">
        <ele>72.400000</ele>
        <time>2020-10-17T08:09:42Z</time>
      </trkpt>
      <trkpt lat="40.121296000" lon="-8.495509000">
        <ele>72.600000</ele>
        <time>2020-10-17T08:09:43Z</time>
      </trkpt>
      <trkpt lat="40.121271000" lon="-8.495550000">
        <ele>73.000000</ele>
        <time>2020-10-17T08:09:44Z</time>
      </trkpt>
      <trkpt lat="40.121245000" lon="-8.495594000">
        <ele>73.200000</ele>
        <time>2020-10-17T08:09:45Z</time>
      </trkpt>
      <trkpt lat="40.121216000" lon="-8.495640000">
        <ele>73.200000</ele>
        <time>2020-10-17T08:09:46Z</time>
      </trkpt>
      <trkpt lat="40.121188000" lon="-8.495684000">
        <ele>73.600000</ele>
        <time>2020-10-17T08:09:47Z</time>
      </trkpt>
      <trkpt lat="40.121160000" lon="-8.495729000">
        <ele>73.600000</ele>
        <time>2020-10-17T08:09:48Z</time>
      </trkpt>
      <trkpt lat="40.121134000" lon="-8.495772000">
        <ele>73.800000</ele>
        <time>2020-10-17T08:09:49Z</time>
      </trkpt>
      <trkpt lat="40.121107000" lon="-8.495814000">
        <ele>74.200000</ele>
        <time>2020-10-17T08:09:50Z</time>
      </trkpt>
      <trkpt lat="40.121080000" lon="-8.495855000">
        <ele>74.400000</ele>
        <time>2020-10-17T08:09:51Z</time>
      </trkpt>
      <trkpt lat="40.121052000" lon="-8.495896000">
        <ele>74.600000</ele>
        <time>2020-10-17T08:09:52Z</time>
      </trkpt>
      <trkpt lat="40.121024000" lon="-8.495936000">
        <ele>74.800000</ele>
        <time>2020-10-17T08:09:53Z</time>
      </trkpt>
      <trkpt lat="40.120994000" lon="-8.495977000">
        <ele>75.000000</ele>
        <time>2020-10-17T08:09:54Z</time>
      </trkpt>
      <trkpt lat="40.120965000" lon="-8.496015000">
        <ele>75.200000</ele>
        <time>2020-10-17T08:09:55Z</time>
      </trkpt>
      <trkpt lat="40.120936000" lon="-8.496052000">
        <ele>75.600000</ele>
        <time>2020-10-17T08:09:56Z</time>
      </trkpt>
      <trkpt lat="40.120903000" lon="-8.496088000">
        <ele>75.800000</ele>
        <time>2020-10-17T08:09:57Z</time>
      </trkpt>
      <trkpt lat="40.120871000" lon="-8.496124000">
        <ele>76.000000</ele>
        <time>2020-10-17T08:09:58Z</time>
      </trkpt>
      <trkpt lat="40.120840000" lon="-8.496158000">
        <ele>76.200000</ele>
        <time>2020-10-17T08:09:59Z</time>
      </trkpt>
      <trkpt lat="40.120808000" lon="-8.496192000">
        <ele>76.600000</ele>
        <time>2020-10-17T08:10:00Z</time>
      </trkpt>
      <trkpt lat="40.120775000" lon="-8.496225000">
        <ele>76.800000</ele>
        <time>2020-10-17T08:10:01Z</time>
      </trkpt>
      <trkpt lat="40.120741000" lon="-8.496256000">
        <ele>76.800000</ele>
        <time>2020-10-17T08:10:02Z</time>
      </trkpt>
      <trkpt lat="40.120707000" lon="-8.496284000">
        <ele>77.200000</ele>
        <time>2020-10-17T08:10:03Z</time>
      </trkpt>
      <trkpt lat="40.120673000" lon="-8.496309000">
        <ele>77.400000</ele>
        <time>2020-10-17T08:10:04Z</time>
      </trkpt>
      <trkpt lat="40.120637000" lon="-8.496333000">
        <ele>77.800000</ele>
        <time>2020-10-17T08:10:05Z</time>
      </trkpt>
      <trkpt lat="40.120601000" lon="-8.496356000">
        <ele>78.000000</ele>
        <time>2020-10-17T08:10:06Z</time>
      </trkpt>
      <trkpt lat="40.120564000" lon="-8.496381000">
        <ele>78.000000</ele>
        <time>2020-10-17T08:10:07Z</time>
      </trkpt>
      <trkpt lat="40.120526000" lon="-8.496407000">
        <ele>78.000000</ele>
        <time>2020-10-17T08:10:08Z</time>
      </trkpt>
      <trkpt lat="40.120484000" lon="-8.496433000">
        <ele>78.400000</ele>
        <time>2020-10-17T08:10:09Z</time>
      </trkpt>
      <trkpt lat="40.120440000" lon="-8.496458000">
        <ele>78.600000</ele>
        <time>2020-10-17T08:10:10Z</time>
      </trkpt>
      <trkpt lat="40.120395000" lon="-8.496482000">
        <ele>78.600000</ele>
        <time>2020-10-17T08:10:11Z</time>
      </trkpt>
      <trkpt lat="40.120350000" lon="-8.496503000">
        <ele>79.000000</ele>
        <time>2020-10-17T08:10:12Z</time>
      </trkpt>
      <trkpt lat="40.120305000" lon="-8.496526000">
        <ele>79.000000</ele>
        <time>2020-10-17T08:10:13Z</time>
      </trkpt>
      <trkpt lat="40.120260000" lon="-8.496546000">
        <ele>79.200000</ele>
        <time>2020-10-17T08:10:14Z</time>
      </trkpt>
      <trkpt lat="40.120214000" lon="-8.496561000">
        <ele>79.400000</ele>
        <time>2020-10-17T08:10:15Z</time>
      </trkpt>
      <trkpt lat="40.120167000" lon="-8.496574000">
        <ele>79.800000</ele>
        <time>2020-10-17T08:10:16Z</time>
      </trkpt>
      <trkpt lat="40.120121000" lon="-8.496587000">
        <ele>80.000000</ele>
        <time>2020-10-17T08:10:17Z</time>
      </trkpt>
      <trkpt lat="40.120074000" lon="-8.496596000">
        <ele>80.400000</ele>
        <time>2020-10-17T08:10:18Z</time>
      </trkpt>
      <trkpt lat="40.120029000" lon="-8.496600000">
        <ele>80.600000</ele>
        <time>2020-10-17T08:10:19Z</time>
      </trkpt>
      <trkpt lat="40.119984000" lon="-8.496599000">
        <ele>80.800000</ele>
        <time>2020-10-17T08:10:20Z</time>
      </trkpt>
      <trkpt lat="40.119938000" lon="-8.496593000">
        <ele>80.800000</ele>
        <time>2020-10-17T08:10:21Z</time>
      </trkpt>
      <trkpt lat="40.119894000" lon="-8.496587000">
        <ele>81.200000</ele>
        <time>2020-10-17T08:10:22Z</time>
      </trkpt>
      <trkpt lat="40.119850000" lon="-8.496574000">
        <ele>81.200000</ele>
        <time>2020-10-17T08:10:23Z</time>
      </trkpt>
      <trkpt lat="40.119808000" lon="-8.496560000">
        <ele>81.400000</ele>
        <time>2020-10-17T08:10:24Z</time>
      </trkpt>
      <trkpt lat="40.119767000" lon="-8.496543000">
        <ele>81.600000</ele>
        <time>2020-10-17T08:10:25Z</time>
      </trkpt>
      <trkpt lat="40.119728000" lon="-8.496528000">
        <ele>81.800000</ele>
        <time>2020-10-17T08:10:26Z</time>
      </trkpt>
      <trkpt lat="40.119689000" lon="-8.496510000">
        <ele>82.000000</ele>
        <time>2020-10-17T08:10:27Z</time>
      </trkpt>
      <trkpt lat="40.119652000" lon="-8.496490000">
        <ele>82.000000</ele>
        <time>2020-10-17T08:10:28Z</time>
      </trkpt>
      <trkpt lat="40.119616000" lon="-8.496467000">
        <ele>82.200000</ele>
        <time>2020-10-17T08:10:29Z</time>
      </trkpt>
      <trkpt lat="40.119581000" lon="-8.496447000">
        <ele>82.200000</ele>
        <time>2020-10-17T08:10:30Z</time>
      </trkpt>
      <trkpt lat="40.119548000" lon="-8.496426000">
        <ele>82.600000</ele>
        <time>2020-10-17T08:10:31Z</time>
      </trkpt>
      <trkpt lat="40.119515000" lon="-8.496404000">
        <ele>82.800000</ele>
        <time>2020-10-17T08:10:32Z</time>
      </trkpt>
      <trkpt lat="40.119483000" lon="-8.496378000">
        <ele>82.800000</ele>
        <time>2020-10-17T08:10:33Z</time>
      </trkpt>
      <trkpt lat="40.119452000" lon="-8.496353000">
        <ele>83.000000</ele>
        <time>2020-10-17T08:10:34Z</time>
      </trkpt>
      <trkpt lat="40.119421000" lon="-8.496326000">
        <ele>83.400000</ele>
        <time>2020-10-17T08:10:35Z</time>
      </trkpt>
      <trkpt lat="40.119392000" lon="-8.496300000">
        <ele>83.600000</ele>
        <time>2020-10-17T08:10:36Z</time>
      </trkpt>
      <trkpt lat="40.119362000" lon="-8.496274000">
        <ele>83.800000</ele>
        <time>2020-10-17T08:10:37Z</time>
      </trkpt>
      <trkpt lat="40.119336000" lon="-8.496245000">
        <ele>84.000000</ele>
        <time>2020-10-17T08:10:38Z</time>
      </trkpt>
      <trkpt lat="40.119310000" lon="-8.496213000">
        <ele>84.000000</ele>
        <time>2020-10-17T08:10:39Z</time>
      </trkpt>
      <trkpt lat="40.119285000" lon="-8.496178000">
        <ele>84.600000</ele>
        <time>2020-10-17T08:10:40Z</time>
      </trkpt>
      <trkpt lat="40.119261000" lon="-8.496144000">
        <ele>84.800000</ele>
        <time>2020-10-17T08:10:41Z</time>
      </trkpt>
      <trkpt lat="40.119240000" lon="-8.496111000">
        <ele>85.000000</ele>
        <time>2020-10-17T08:10:42Z</time>
      </trkpt>
      <trkpt lat="40.119220000" lon="-8.496076000">
        <ele>85.200000</ele>
        <time>2020-10-17T08:10:43Z</time>
      </trkpt>
      <trkpt lat="40.119205000" lon="-8.496045000">
        <ele>85.400000</ele>
        <time>2020-10-17T08:10:44Z</time>
      </trkpt>
      <trkpt lat="40.119184000" lon="-8.496012000">
        <ele>85.800000</ele>
        <time>2020-10-17T08:10:45Z</time>
      </trkpt>
      <trkpt lat="40.119164000" lon="-8.495976000">
        <ele>86.200000</ele>
        <time>2020-10-17T08:10:46Z</time>
      </trkpt>
      <trkpt lat="40.119144000" lon="-8.495941000">
        <ele>86.200000</ele>
        <time>2020-10-17T08:10:47Z</time>
      </trkpt>
      <trkpt lat="40.119127000" lon="-8.495904000">
        <ele>86.200000</ele>
        <time>2020-10-17T08:10:48Z</time>
      </trkpt>
      <trkpt lat="40.119113000" lon="-8.495869000">
        <ele>86.200000</ele>
        <time>2020-10-17T08:10:49Z</time>
      </trkpt>
      <trkpt lat="40.119096000" lon="-8.495834000">
        <ele>86.600000</ele>
        <time>2020-10-17T08:10:50Z</time>
      </trkpt>
      <trkpt lat="40.119080000" lon="-8.495801000">
        <ele>86.800000</ele>
        <time>2020-10-17T08:10:51Z</time>
      </trkpt>
      <trkpt lat="40.119066000" lon="-8.495770000">
        <ele>86.800000</ele>
        <time>2020-10-17T08:10:52Z</time>
      </trkpt>
      <trkpt lat="40.119049000" lon="-8.495740000">
        <ele>87.000000</ele>
        <time>2020-10-17T08:10:53Z</time>
      </trkpt>
      <trkpt lat="40.119029000" lon="-8.495707000">
        <ele>87.000000</ele>
        <time>2020-10-17T08:10:54Z</time>
      </trkpt>
      <trkpt lat="40.119009000" lon="-8.495673000">
        <ele>87.000000</ele>
        <time>2020-10-17T08:10:55Z</time>
      </trkpt>
      <trkpt lat="40.118989000" lon="-8.495639000">
        <ele>87.200000</ele>
        <time>2020-10-17T08:10:56Z</time>
      </trkpt>
      <trkpt lat="40.118967000" lon="-8.495607000">
        <ele>87.200000</ele>
        <time>2020-10-17T08:10:57Z</time>
      </trkpt>
      <trkpt lat="40.118941000" lon="-8.495575000">
        <ele>87.400000</ele>
        <time>2020-10-17T08:10:58Z</time>
      </trkpt>
      <trkpt lat="40.118912000" lon="-8.495543000">
        <ele>87.400000</ele>
        <time>2020-10-17T08:10:59Z</time>
      </trkpt>
      <trkpt lat="40.118884000" lon="-8.495512000">
        <ele>87.800000</ele>
        <time>2020-10-17T08:11:00Z</time>
      </trkpt>
      <trkpt lat="40.118855000" lon="-8.495482000">
        <ele>88.000000</ele>
        <time>2020-10-17T08:11:01Z</time>
      </trkpt>
      <trkpt lat="40.118826000" lon="-8.495452000">
        <ele>89.000000</ele>
        <time>2020-10-17T08:11:02Z</time>
      </trkpt>
      <trkpt lat="40.118799000" lon="-8.495419000">
        <ele>90.000000</ele>
        <time>2020-10-17T08:11:03Z</time>
      </trkpt>
      <trkpt lat="40.118773000" lon="-8.495381000">
        <ele>90.400000</ele>
        <time>2020-10-17T08:11:04Z</time>
      </trkpt>
      <trkpt lat="40.118750000" lon="-8.495339000">
        <ele>90.800000</ele>
        <time>2020-10-17T08:11:05Z</time>
      </trkpt>
      <trkpt lat="40.118728000" lon="-8.495294000">
        <ele>90.800000</ele>
        <time>2020-10-17T08:11:06Z</time>
      </trkpt>
      <trkpt lat="40.118710000" lon="-8.495249000">
        <ele>91.000000</ele>
        <time>2020-10-17T08:11:07Z</time>
      </trkpt>
      <trkpt lat="40.118694000" lon="-8.495203000">
        <ele>91.200000</ele>
        <time>2020-10-17T08:11:08Z</time>
      </trkpt>
      <trkpt lat="40.118676000" lon="-8.495155000">
        <ele>91.200000</ele>
        <time>2020-10-17T08:11:09Z</time>
      </trkpt>
      <trkpt lat="40.118656000" lon="-8.495106000">
        <ele>91.200000</ele>
        <time>2020-10-17T08:11:10Z</time>
      </trkpt>
      <trkpt lat="40.118633000" lon="-8.495060000">
        <ele>91.200000</ele>
        <time>2020-10-17T08:11:11Z</time>
      </trkpt>
      <trkpt lat="40.118608000" lon="-8.495017000">
        <ele>91.400000</ele>
        <time>2020-10-17T08:11:12Z</time>
      </trkpt>
      <trkpt lat="40.118578000" lon="-8.494971000">
        <ele>91.400000</ele>
        <time>2020-10-17T08:11:13Z</time>
      </trkpt>
      <trkpt lat="40.118547000" lon="-8.494923000">
        <ele>91.400000</ele>
        <time>2020-10-17T08:11:14Z</time>
      </trkpt>
      <trkpt lat="40.118515000" lon="-8.494873000">
        <ele>91.400000</ele>
        <time>2020-10-17T08:11:15Z</time>
      </trkpt>
      <trkpt lat="40.118481000" lon="-8.494827000">
        <ele>91.400000</ele>
        <time>2020-10-17T08:11:16Z</time>
      </trkpt>
      <trkpt lat="40.118450000" lon="-8.494780000">
        <ele>91.400000</ele>
        <time>2020-10-17T08:11:17Z</time>
      </trkpt>
      <trkpt lat="40.118419000" lon="-8.494735000">
        <ele>91.400000</ele>
        <time>2020-10-17T08:11:18Z</time>
      </trkpt>
      <trkpt lat="40.118388000" lon="-8.494692000">
        <ele>91.400000</ele>
        <time>2020-10-17T08:11:19Z</time>
      </trkpt>
      <trkpt lat="40.118357000" lon="-8.494653000">
        <ele>91.400000</ele>
        <time>2020-10-17T08:11:20Z</time>
      </trkpt>
      <trkpt lat="40.118326000" lon="-8.494613000">
        <ele>91.600000</ele>
        <time>2020-10-17T08:11:21Z</time>
      </trkpt>
      <trkpt lat="40.118296000" lon="-8.494575000">
        <ele>91.600000</ele>
        <time>2020-10-17T08:11:22Z</time>
      </trkpt>
      <trkpt lat="40.118266000" lon="-8.494537000">
        <ele>91.600000</ele>
        <time>2020-10-17T08:11:23Z</time>
      </trkpt>
      <trkpt lat="40.118234000" lon="-8.494500000">
        <ele>91.600000</ele>
        <time>2020-10-17T08:11:24Z</time>
      </trkpt>
      <trkpt lat="40.118201000" lon="-8.494463000">
        <ele>91.800000</ele>
        <time>2020-10-17T08:11:25Z</time>
      </trkpt>
      <trkpt lat="40.118169000" lon="-8.494425000">
        <ele>91.800000</ele>
        <time>2020-10-17T08:11:26Z</time>
      </trkpt>
      <trkpt lat="40.118137000" lon="-8.494389000">
        <ele>92.200000</ele>
        <time>2020-10-17T08:11:27Z</time>
      </trkpt>
      <trkpt lat="40.118105000" lon="-8.494354000">
        <ele>92.200000</ele>
        <time>2020-10-17T08:11:28Z</time>
      </trkpt>
      <trkpt lat="40.118072000" lon="-8.494321000">
        <ele>92.200000</ele>
        <time>2020-10-17T08:11:29Z</time>
      </trkpt>
      <trkpt lat="40.118038000" lon="-8.494287000">
        <ele>92.400000</ele>
        <time>2020-10-17T08:11:30Z</time>
      </trkpt>
      <trkpt lat="40.118003000" lon="-8.494252000">
        <ele>92.400000</ele>
        <time>2020-10-17T08:11:31Z</time>
      </trkpt>
      <trkpt lat="40.117970000" lon="-8.494219000">
        <ele>92.600000</ele>
        <time>2020-10-17T08:11:32Z</time>
      </trkpt>
      <trkpt lat="40.117935000" lon="-8.494184000">
        <ele>92.800000</ele>
        <time>2020-10-17T08:11:33Z</time>
      </trkpt>
      <trkpt lat="40.117899000" lon="-8.494147000">
        <ele>92.800000</ele>
        <time>2020-10-17T08:11:34Z</time>
      </trkpt>
      <trkpt lat="40.117827000" lon="-8.494078000">
        <ele>93.200000</ele>
        <time>2020-10-17T08:11:36Z</time>
      </trkpt>
      <trkpt lat="40.117792000" lon="-8.494044000">
        <ele>93.200000</ele>
        <time>2020-10-17T08:11:37Z</time>
      </trkpt>
      <trkpt lat="40.117685000" lon="-8.493943000">
        <ele>93.400000</ele>
        <time>2020-10-17T08:11:40Z</time>
      </trkpt>
      <trkpt lat="40.117652000" lon="-8.493909000">
        <ele>93.600000</ele>
        <time>2020-10-17T08:11:41Z</time>
      </trkpt>
      <trkpt lat="40.117585000" lon="-8.493836000">
        <ele>93.600000</ele>
        <time>2020-10-17T08:11:43Z</time>
      </trkpt>
      <trkpt lat="40.117553000" lon="-8.493801000">
        <ele>93.800000</ele>
        <time>2020-10-17T08:11:44Z</time>
      </trkpt>
      <trkpt lat="40.117521000" lon="-8.493765000">
        <ele>93.800000</ele>
        <time>2020-10-17T08:11:45Z</time>
      </trkpt>
      <trkpt lat="40.117493000" lon="-8.493732000">
        <ele>94.000000</ele>
        <time>2020-10-17T08:11:46Z</time>
      </trkpt>
      <trkpt lat="40.117472000" lon="-8.493712000">
        <ele>94.000000</ele>
        <time>2020-10-17T08:11:47Z</time>
      </trkpt>
      <trkpt lat="40.117448000" lon="-8.493691000">
        <ele>94.200000</ele>
        <time>2020-10-17T08:11:48Z</time>
      </trkpt>
      <trkpt lat="40.117424000" lon="-8.493669000">
        <ele>94.200000</ele>
        <time>2020-10-17T08:11:49Z</time>
      </trkpt>
      <trkpt lat="40.117406000" lon="-8.493652000">
        <ele>94.200000</ele>
        <time>2020-10-17T08:11:50Z</time>
      </trkpt>
      <trkpt lat="40.117388000" lon="-8.493637000">
        <ele>94.400000</ele>
        <time>2020-10-17T08:11:51Z</time>
      </trkpt>
      <trkpt lat="40.117314000" lon="-8.493569000">
        <ele>94.800000</ele>
        <time>2020-10-17T08:11:54Z</time>
      </trkpt>
      <trkpt lat="40.117283000" lon="-8.493542000">
        <ele>94.800000</ele>
        <time>2020-10-17T08:11:55Z</time>
      </trkpt>
      <trkpt lat="40.117105000" lon="-8.493360000">
        <ele>95.000000</ele>
        <time>2020-10-17T08:12:00Z</time>
      </trkpt>
      <trkpt lat="40.116988000" lon="-8.493251000">
        <ele>95.200000</ele>
        <time>2020-10-17T08:12:03Z</time>
      </trkpt>
      <trkpt lat="40.116742000" lon="-8.493028000">
        <ele>96.000000</ele>
        <time>2020-10-17T08:12:09Z</time>
      </trkpt>
      <trkpt lat="40.116570000" lon="-8.492891000">
        <ele>96.400000</ele>
        <time>2020-10-17T08:12:13Z</time>
      </trkpt>
      <trkpt lat="40.116523000" lon="-8.492862000">
        <ele>96.600000</ele>
        <time>2020-10-17T08:12:14Z</time>
      </trkpt>
      <trkpt lat="40.116474000" lon="-8.492837000">
        <ele>96.800000</ele>
        <time>2020-10-17T08:12:15Z</time>
      </trkpt>
      <trkpt lat="40.116426000" lon="-8.492819000">
        <ele>96.800000</ele>
        <time>2020-10-17T08:12:16Z</time>
      </trkpt>
      <trkpt lat="40.116377000" lon="-8.492805000">
        <ele>96.800000</ele>
        <time>2020-10-17T08:12:17Z</time>
      </trkpt>
      <trkpt lat="40.116327000" lon="-8.492795000">
        <ele>96.800000</ele>
        <time>2020-10-17T08:12:18Z</time>
      </trkpt>
      <trkpt lat="40.116275000" lon="-8.492787000">
        <ele>97.000000</ele>
        <time>2020-10-17T08:12:19Z</time>
      </trkpt>
      <trkpt lat="40.116220000" lon="-8.492781000">
        <ele>97.200000</ele>
        <time>2020-10-17T08:12:20Z</time>
      </trkpt>
      <trkpt lat="40.116165000" lon="-8.492777000">
        <ele>97.400000</ele>
        <time>2020-10-17T08:12:21Z</time>
      </trkpt>
      <trkpt lat="40.116112000" lon="-8.492776000">
        <ele>97.400000</ele>
        <time>2020-10-17T08:12:22Z</time>
      </trkpt>
      <trkpt lat="40.116058000" lon="-8.492781000">
        <ele>97.600000</ele>
        <time>2020-10-17T08:12:23Z</time>
      </trkpt>
      <trkpt lat="40.116004000" lon="-8.492787000">
        <ele>97.800000</ele>
        <time>2020-10-17T08:12:24Z</time>
      </trkpt>
      <trkpt lat="40.115949000" lon="-8.492794000">
        <ele>97.800000</ele>
        <time>2020-10-17T08:12:25Z</time>
      </trkpt>
      <trkpt lat="40.115894000" lon="-8.492801000">
        <ele>98.000000</ele>
        <time>2020-10-17T08:12:26Z</time>
      </trkpt>
      <trkpt lat="40.115837000" lon="-8.492809000">
        <ele>98.200000</ele>
        <time>2020-10-17T08:12:27Z</time>
      </trkpt>
      <trkpt lat="40.115780000" lon="-8.492821000">
        <ele>98.200000</ele>
        <time>2020-10-17T08:12:28Z</time>
      </trkpt>
      <trkpt lat="40.115723000" lon="-8.492836000">
        <ele>98.400000</ele>
        <time>2020-10-17T08:12:29Z</time>
      </trkpt>
      <trkpt lat="40.115668000" lon="-8.492853000">
        <ele>98.600000</ele>
        <time>2020-10-17T08:12:30Z</time>
      </trkpt>
      <trkpt lat="40.115613000" lon="-8.492870000">
        <ele>98.600000</ele>
        <time>2020-10-17T08:12:31Z</time>
      </trkpt>
      <trkpt lat="40.115557000" lon="-8.492886000">
        <ele>98.400000</ele>
        <time>2020-10-17T08:12:32Z</time>
      </trkpt>
      <trkpt lat="40.115501000" lon="-8.492904000">
        <ele>98.600000</ele>
        <time>2020-10-17T08:12:33Z</time>
      </trkpt>
      <trkpt lat="40.115446000" lon="-8.492923000">
        <ele>99.000000</ele>
        <time>2020-10-17T08:12:34Z</time>
      </trkpt>
      <trkpt lat="40.115391000" lon="-8.492944000">
        <ele>99.000000</ele>
        <time>2020-10-17T08:12:35Z</time>
      </trkpt>
      <trkpt lat="40.115338000" lon="-8.492967000">
        <ele>99.000000</ele>
        <time>2020-10-17T08:12:36Z</time>
      </trkpt>
      <trkpt lat="40.115283000" lon="-8.492988000">
        <ele>99.200000</ele>
        <time>2020-10-17T08:12:37Z</time>
      </trkpt>
      <trkpt lat="40.115228000" lon="-8.493008000">
        <ele>99.400000</ele>
        <time>2020-10-17T08:12:38Z</time>
      </trkpt>
      <trkpt lat="40.115173000" lon="-8.493024000">
        <ele>99.400000</ele>
        <time>2020-10-17T08:12:39Z</time>
      </trkpt>
      <trkpt lat="40.115116000" lon="-8.493036000">
        <ele>99.600000</ele>
        <time>2020-10-17T08:12:40Z</time>
      </trkpt>
      <trkpt lat="40.115058000" lon="-8.493047000">
        <ele>99.800000</ele>
        <time>2020-10-17T08:12:41Z</time>
      </trkpt>
      <trkpt lat="40.115001000" lon="-8.493054000">
        <ele>100.000000</ele>
        <time>2020-10-17T08:12:42Z</time>
      </trkpt>
      <trkpt lat="40.114944000" lon="-8.493058000">
        <ele>100.000000</ele>
        <time>2020-10-17T08:12:43Z</time>
      </trkpt>
      <trkpt lat="40.114887000" lon="-8.493061000">
        <ele>100.200000</ele>
        <time>2020-10-17T08:12:44Z</time>
      </trkpt>
      <trkpt lat="40.114829000" lon="-8.493061000">
        <ele>100.200000</ele>
        <time>2020-10-17T08:12:45Z</time>
      </trkpt>
      <trkpt lat="40.114772000" lon="-8.493055000">
        <ele>100.400000</ele>
        <time>2020-10-17T08:12:46Z</time>
      </trkpt>
      <trkpt lat="40.114714000" lon="-8.493045000">
        <ele>100.800000</ele>
        <time>2020-10-17T08:12:47Z</time>
      </trkpt>
      <trkpt lat="40.114658000" lon="-8.493030000">
        <ele>100.800000</ele>
        <time>2020-10-17T08:12:48Z</time>
      </trkpt>
      <trkpt lat="40.114603000" lon="-8.493010000">
        <ele>100.800000</ele>
        <time>2020-10-17T08:12:49Z</time>
      </trkpt>
      <trkpt lat="40.114549000" lon="-8.492994000">
        <ele>101.000000</ele>
        <time>2020-10-17T08:12:50Z</time>
      </trkpt>
      <trkpt lat="40.114494000" lon="-8.492974000">
        <ele>101.000000</ele>
        <time>2020-10-17T08:12:51Z</time>
      </trkpt>
      <trkpt lat="40.114438000" lon="-8.492952000">
        <ele>101.000000</ele>
        <time>2020-10-17T08:12:52Z</time>
      </trkpt>
      <trkpt lat="40.114383000" lon="-8.492932000">
        <ele>101.200000</ele>
        <time>2020-10-17T08:12:53Z</time>
      </trkpt>
      <trkpt lat="40.114329000" lon="-8.492910000">
        <ele>101.400000</ele>
        <time>2020-10-17T08:12:54Z</time>
      </trkpt>
      <trkpt lat="40.114277000" lon="-8.492889000">
        <ele>101.600000</ele>
        <time>2020-10-17T08:12:55Z</time>
      </trkpt>
      <trkpt lat="40.114221000" lon="-8.492865000">
        <ele>101.600000</ele>
        <time>2020-10-17T08:12:56Z</time>
      </trkpt>
      <trkpt lat="40.114165000" lon="-8.492846000">
        <ele>101.600000</ele>
        <time>2020-10-17T08:12:57Z</time>
      </trkpt>
      <trkpt lat="40.114110000" lon="-8.492827000">
        <ele>101.800000</ele>
        <time>2020-10-17T08:12:58Z</time>
      </trkpt>
      <trkpt lat="40.114056000" lon="-8.492809000">
        <ele>101.800000</ele>
        <time>2020-10-17T08:12:59Z</time>
      </trkpt>
      <trkpt lat="40.114001000" lon="-8.492791000">
        <ele>102.000000</ele>
        <time>2020-10-17T08:13:00Z</time>
      </trkpt>
      <trkpt lat="40.113777000" lon="-8.492728000">
        <ele>102.000000</ele>
        <time>2020-10-17T08:13:04Z</time>
      </trkpt>
      <trkpt lat="40.113603000" lon="-8.492730000">
        <ele>102.200000</ele>
        <time>2020-10-17T08:13:07Z</time>
      </trkpt>
      <trkpt lat="40.113430000" lon="-8.492739000">
        <ele>102.400000</ele>
        <time>2020-10-17T08:13:10Z</time>
      </trkpt>
      <trkpt lat="40.113374000" lon="-8.492724000">
        <ele>102.400000</ele>
        <time>2020-10-17T08:13:11Z</time>
      </trkpt>
      <trkpt lat="40.113318000" lon="-8.492704000">
        <ele>102.400000</ele>
        <time>2020-10-17T08:13:12Z</time>
      </trkpt>
      <trkpt lat="40.113263000" lon="-8.492680000">
        <ele>102.400000</ele>
        <time>2020-10-17T08:13:13Z</time>
      </trkpt>
      <trkpt lat="40.113046000" lon="-8.492567000">
        <ele>102.600000</ele>
        <time>2020-10-17T08:13:17Z</time>
      </trkpt>
      <trkpt lat="40.112995000" lon="-8.492534000">
        <ele>102.400000</ele>
        <time>2020-10-17T08:13:18Z</time>
      </trkpt>
      <trkpt lat="40.112950000" lon="-8.492494000">
        <ele>102.600000</ele>
        <time>2020-10-17T08:13:19Z</time>
      </trkpt>
      <trkpt lat="40.112911000" lon="-8.492445000">
        <ele>102.400000</ele>
        <time>2020-10-17T08:13:20Z</time>
      </trkpt>
      <trkpt lat="40.112880000" lon="-8.492389000">
        <ele>102.600000</ele>
        <time>2020-10-17T08:13:21Z</time>
      </trkpt>
      <trkpt lat="40.112850000" lon="-8.492330000">
        <ele>102.600000</ele>
        <time>2020-10-17T08:13:22Z</time>
      </trkpt>
      <trkpt lat="40.112824000" lon="-8.492271000">
        <ele>102.400000</ele>
        <time>2020-10-17T08:13:23Z</time>
      </trkpt>
      <trkpt lat="40.112793000" lon="-8.492218000">
        <ele>102.600000</ele>
        <time>2020-10-17T08:13:24Z</time>
      </trkpt>
      <trkpt lat="40.112757000" lon="-8.492175000">
        <ele>102.400000</ele>
        <time>2020-10-17T08:13:25Z</time>
      </trkpt>
      <trkpt lat="40.112713000" lon="-8.492143000">
        <ele>102.600000</ele>
        <time>2020-10-17T08:13:26Z</time>
      </trkpt>
      <trkpt lat="40.112665000" lon="-8.492121000">
        <ele>102.800000</ele>
        <time>2020-10-17T08:13:27Z</time>
      </trkpt>
      <trkpt lat="40.112612000" lon="-8.492099000">
        <ele>102.800000</ele>
        <time>2020-10-17T08:13:28Z</time>
      </trkpt>
      <trkpt lat="40.112559000" lon="-8.492079000">
        <ele>103.000000</ele>
        <time>2020-10-17T08:13:29Z</time>
      </trkpt>
      <trkpt lat="40.112282000" lon="-8.491987000">
        <ele>103.200000</ele>
        <time>2020-10-17T08:13:34Z</time>
      </trkpt>
      <trkpt lat="40.112165000" lon="-8.491970000">
        <ele>103.200000</ele>
        <time>2020-10-17T08:13:36Z</time>
      </trkpt>
      <trkpt lat="40.112107000" lon="-8.491968000">
        <ele>103.400000</ele>
        <time>2020-10-17T08:13:37Z</time>
      </trkpt>
      <trkpt lat="40.111991000" lon="-8.491967000">
        <ele>103.600000</ele>
        <time>2020-10-17T08:13:39Z</time>
      </trkpt>
      <trkpt lat="40.111879000" lon="-8.491963000">
        <ele>103.600000</ele>
        <time>2020-10-17T08:13:41Z</time>
      </trkpt>
      <trkpt lat="40.111826000" lon="-8.491960000">
        <ele>103.600000</ele>
        <time>2020-10-17T08:13:42Z</time>
      </trkpt>
      <trkpt lat="40.111774000" lon="-8.491957000">
        <ele>103.600000</ele>
        <time>2020-10-17T08:13:43Z</time>
      </trkpt>
      <trkpt lat="40.111724000" lon="-8.491961000">
        <ele>103.600000</ele>
        <time>2020-10-17T08:13:44Z</time>
      </trkpt>
      <trkpt lat="40.111462000" lon="-8.492001000">
        <ele>103.800000</ele>
        <time>2020-10-17T08:13:49Z</time>
      </trkpt>
      <trkpt lat="40.111307000" lon="-8.492051000">
        <ele>103.600000</ele>
        <time>2020-10-17T08:13:52Z</time>
      </trkpt>
      <trkpt lat="40.111256000" lon="-8.492066000">
        <ele>103.600000</ele>
        <time>2020-10-17T08:13:53Z</time>
      </trkpt>
      <trkpt lat="40.111201000" lon="-8.492074000">
        <ele>103.600000</ele>
        <time>2020-10-17T08:13:54Z</time>
      </trkpt>
      <trkpt lat="40.111146000" lon="-8.492073000">
        <ele>103.600000</ele>
        <time>2020-10-17T08:13:55Z</time>
      </trkpt>
      <trkpt lat="40.111091000" lon="-8.492055000">
        <ele>103.800000</ele>
        <time>2020-10-17T08:13:56Z</time>
      </trkpt>
      <trkpt lat="40.111040000" lon="-8.492029000">
        <ele>103.800000</ele>
        <time>2020-10-17T08:13:57Z</time>
      </trkpt>
      <trkpt lat="40.110995000" lon="-8.491997000">
        <ele>103.600000</ele>
        <time>2020-10-17T08:13:58Z</time>
      </trkpt>
      <trkpt lat="40.110952000" lon="-8.491964000">
        <ele>103.800000</ele>
        <time>2020-10-17T08:13:59Z</time>
      </trkpt>
      <trkpt lat="40.110907000" lon="-8.491931000">
        <ele>103.800000</ele>
        <time>2020-10-17T08:14:00Z</time>
      </trkpt>
      <trkpt lat="40.110758000" lon="-8.491865000">
        <ele>103.800000</ele>
        <time>2020-10-17T08:14:03Z</time>
      </trkpt>
      <trkpt lat="40.110650000" lon="-8.491830000">
        <ele>104.000000</ele>
        <time>2020-10-17T08:14:05Z</time>
      </trkpt>
      <trkpt lat="40.110433000" lon="-8.491764000">
        <ele>104.200000</ele>
        <time>2020-10-17T08:14:09Z</time>
      </trkpt>
      <trkpt lat="40.110268000" lon="-8.491720000">
        <ele>104.400000</ele>
        <time>2020-10-17T08:14:12Z</time>
      </trkpt>
      <trkpt lat="40.110212000" lon="-8.491705000">
        <ele>104.400000</ele>
        <time>2020-10-17T08:14:13Z</time>
      </trkpt>
      <trkpt lat="40.109989000" lon="-8.491640000">
        <ele>104.600000</ele>
        <time>2020-10-17T08:14:17Z</time>
      </trkpt>
      <trkpt lat="40.109623000" lon="-8.491520000">
        <ele>105.400000</ele>
        <time>2020-10-17T08:14:23Z</time>
      </trkpt>
      <trkpt lat="40.109566000" lon="-8.491501000">
        <ele>105.400000</ele>
        <time>2020-10-17T08:14:24Z</time>
      </trkpt>
      <trkpt lat="40.109512000" lon="-8.491486000">
        <ele>105.400000</ele>
        <time>2020-10-17T08:14:25Z</time>
      </trkpt>
      <trkpt lat="40.109457000" lon="-8.491474000">
        <ele>105.600000</ele>
        <time>2020-10-17T08:14:26Z</time>
      </trkpt>
      <trkpt lat="40.109402000" lon="-8.491465000">
        <ele>105.800000</ele>
        <time>2020-10-17T08:14:27Z</time>
      </trkpt>
      <trkpt lat="40.109347000" lon="-8.491456000">
        <ele>105.800000</ele>
        <time>2020-10-17T08:14:28Z</time>
      </trkpt>
      <trkpt lat="40.109292000" lon="-8.491450000">
        <ele>105.800000</ele>
        <time>2020-10-17T08:14:29Z</time>
      </trkpt>
      <trkpt lat="40.109237000" lon="-8.491446000">
        <ele>106.000000</ele>
        <time>2020-10-17T08:14:30Z</time>
      </trkpt>
      <trkpt lat="40.109185000" lon="-8.491444000">
        <ele>106.200000</ele>
        <time>2020-10-17T08:14:31Z</time>
      </trkpt>
      <trkpt lat="40.109028000" lon="-8.491455000">
        <ele>106.200000</ele>
        <time>2020-10-17T08:14:34Z</time>
      </trkpt>
      <trkpt lat="40.108979000" lon="-8.491469000">
        <ele>106.400000</ele>
        <time>2020-10-17T08:14:35Z</time>
      </trkpt>
      <trkpt lat="40.108931000" lon="-8.491492000">
        <ele>106.600000</ele>
        <time>2020-10-17T08:14:36Z</time>
      </trkpt>
      <trkpt lat="40.108887000" lon="-8.491519000">
        <ele>106.800000</ele>
        <time>2020-10-17T08:14:37Z</time>
      </trkpt>
      <trkpt lat="40.108846000" lon="-8.491551000">
        <ele>106.800000</ele>
        <time>2020-10-17T08:14:38Z</time>
      </trkpt>
      <trkpt lat="40.108805000" lon="-8.491582000">
        <ele>107.000000</ele>
        <time>2020-10-17T08:14:39Z</time>
      </trkpt>
      <trkpt lat="40.108763000" lon="-8.491617000">
        <ele>107.200000</ele>
        <time>2020-10-17T08:14:40Z</time>
      </trkpt>
      <trkpt lat="40.108723000" lon="-8.491654000">
        <ele>107.000000</ele>
        <time>2020-10-17T08:14:41Z</time>
      </trkpt>
      <trkpt lat="40.108682000" lon="-8.491696000">
        <ele>107.200000</ele>
        <time>2020-10-17T08:14:42Z</time>
      </trkpt>
      <trkpt lat="40.108644000" lon="-8.491736000">
        <ele>107.200000</ele>
        <time>2020-10-17T08:14:43Z</time>
      </trkpt>
      <trkpt lat="40.108606000" lon="-8.491773000">
        <ele>107.400000</ele>
        <time>2020-10-17T08:14:44Z</time>
      </trkpt>
      <trkpt lat="40.108573000" lon="-8.491815000">
        <ele>107.800000</ele>
        <time>2020-10-17T08:14:45Z</time>
      </trkpt>
      <trkpt lat="40.108540000" lon="-8.491859000">
        <ele>108.000000</ele>
        <time>2020-10-17T08:14:46Z</time>
      </trkpt>
      <trkpt lat="40.108508000" lon="-8.491902000">
        <ele>108.400000</ele>
        <time>2020-10-17T08:14:47Z</time>
      </trkpt>
      <trkpt lat="40.108473000" lon="-8.491946000">
        <ele>108.600000</ele>
        <time>2020-10-17T08:14:48Z</time>
      </trkpt>
      <trkpt lat="40.108438000" lon="-8.491991000">
        <ele>108.800000</ele>
        <time>2020-10-17T08:14:49Z</time>
      </trkpt>
      <trkpt lat="40.108404000" lon="-8.492035000">
        <ele>109.000000</ele>
        <time>2020-10-17T08:14:50Z</time>
      </trkpt>
      <trkpt lat="40.108368000" lon="-8.492080000">
        <ele>110.000000</ele>
        <time>2020-10-17T08:14:51Z</time>
      </trkpt>
      <trkpt lat="40.108332000" lon="-8.492128000">
        <ele>110.400000</ele>
        <time>2020-10-17T08:14:52Z</time>
      </trkpt>
      <trkpt lat="40.108295000" lon="-8.492175000">
        <ele>110.800000</ele>
        <time>2020-10-17T08:14:53Z</time>
      </trkpt>
      <trkpt lat="40.108256000" lon="-8.492223000">
        <ele>111.000000</ele>
        <time>2020-10-17T08:14:54Z</time>
      </trkpt>
      <trkpt lat="40.108217000" lon="-8.492271000">
        <ele>111.000000</ele>
        <time>2020-10-17T08:14:55Z</time>
      </trkpt>
      <trkpt lat="40.108179000" lon="-8.492317000">
        <ele>111.000000</ele>
        <time>2020-10-17T08:14:56Z</time>
      </trkpt>
      <trkpt lat="40.108142000" lon="-8.492363000">
        <ele>111.200000</ele>
        <time>2020-10-17T08:14:57Z</time>
      </trkpt>
      <trkpt lat="40.108106000" lon="-8.492408000">
        <ele>111.400000</ele>
        <time>2020-10-17T08:14:58Z</time>
      </trkpt>
      <trkpt lat="40.108071000" lon="-8.492451000">
        <ele>111.400000</ele>
        <time>2020-10-17T08:14:59Z</time>
      </trkpt>
      <trkpt lat="40.108032000" lon="-8.492495000">
        <ele>111.600000</ele>
        <time>2020-10-17T08:15:00Z</time>
      </trkpt>
      <trkpt lat="40.107997000" lon="-8.492540000">
        <ele>111.600000</ele>
        <time>2020-10-17T08:15:01Z</time>
      </trkpt>
      <trkpt lat="40.107961000" lon="-8.492589000">
        <ele>111.600000</ele>
        <time>2020-10-17T08:15:02Z</time>
      </trkpt>
      <trkpt lat="40.107929000" lon="-8.492645000">
        <ele>111.600000</ele>
        <time>2020-10-17T08:15:03Z</time>
      </trkpt>
      <trkpt lat="40.107905000" lon="-8.492705000">
        <ele>111.600000</ele>
        <time>2020-10-17T08:15:04Z</time>
      </trkpt>
      <trkpt lat="40.107888000" lon="-8.492771000">
        <ele>111.800000</ele>
        <time>2020-10-17T08:15:05Z</time>
      </trkpt>
      <trkpt lat="40.107876000" lon="-8.492838000">
        <ele>111.800000</ele>
        <time>2020-10-17T08:15:06Z</time>
      </trkpt>
      <trkpt lat="40.107865000" lon="-8.492906000">
        <ele>111.600000</ele>
        <time>2020-10-17T08:15:07Z</time>
      </trkpt>
      <trkpt lat="40.107836000" lon="-8.493038000">
        <ele>111.800000</ele>
        <time>2020-10-17T08:15:09Z</time>
      </trkpt>
      <trkpt lat="40.107811000" lon="-8.493096000">
        <ele>111.800000</ele>
        <time>2020-10-17T08:15:10Z</time>
      </trkpt>
      <trkpt lat="40.107779000" lon="-8.493145000">
        <ele>112.000000</ele>
        <time>2020-10-17T08:15:11Z</time>
      </trkpt>
      <trkpt lat="40.107737000" lon="-8.493181000">
        <ele>111.800000</ele>
        <time>2020-10-17T08:15:12Z</time>
      </trkpt>
      <trkpt lat="40.107689000" lon="-8.493203000">
        <ele>111.800000</ele>
        <time>2020-10-17T08:15:13Z</time>
      </trkpt>
      <trkpt lat="40.107643000" lon="-8.493199000">
        <ele>111.800000</ele>
        <time>2020-10-17T08:15:14Z</time>
      </trkpt>
      <trkpt lat="40.107600000" lon="-8.493173000">
        <ele>111.800000</ele>
        <time>2020-10-17T08:15:15Z</time>
      </trkpt>
      <trkpt lat="40.107544000" lon="-8.493083000">
        <ele>111.800000</ele>
        <time>2020-10-17T08:15:17Z</time>
      </trkpt>
      <trkpt lat="40.107531000" lon="-8.493029000">
        <ele>111.800000</ele>
        <time>2020-10-17T08:15:18Z</time>
      </trkpt>
      <trkpt lat="40.107524000" lon="-8.492974000">
        <ele>111.800000</ele>
        <time>2020-10-17T08:15:19Z</time>
      </trkpt>
      <trkpt lat="40.107521000" lon="-8.492920000">
        <ele>111.800000</ele>
        <time>2020-10-17T08:15:20Z</time>
      </trkpt>
      <trkpt lat="40.107520000" lon="-8.492865000">
        <ele>112.000000</ele>
        <time>2020-10-17T08:15:21Z</time>
      </trkpt>
      <trkpt lat="40.107521000" lon="-8.492813000">
        <ele>112.000000</ele>
        <time>2020-10-17T08:15:22Z</time>
      </trkpt>
      <trkpt lat="40.107526000" lon="-8.492766000">
        <ele>111.800000</ele>
        <time>2020-10-17T08:15:23Z</time>
      </trkpt>
      <trkpt lat="40.107540000" lon="-8.492721000">
        <ele>111.800000</ele>
        <time>2020-10-17T08:15:24Z</time>
      </trkpt>
      <trkpt lat="40.107566000" lon="-8.492684000">
        <ele>112.000000</ele>
        <time>2020-10-17T08:15:25Z</time>
      </trkpt>
      <trkpt lat="40.107638000" lon="-8.492632000">
        <ele>112.000000</ele>
        <time>2020-10-17T08:15:27Z</time>
      </trkpt>
      <trkpt lat="40.107726000" lon="-8.492629000">
        <ele>112.000000</ele>
        <time>2020-10-17T08:15:29Z</time>
      </trkpt>
      <trkpt lat="40.107808000" lon="-8.492691000">
        <ele>112.000000</ele>
        <time>2020-10-17T08:15:31Z</time>
      </trkpt>
      <trkpt lat="40.107834000" lon="-8.492746000">
        <ele>112.000000</ele>
        <time>2020-10-17T08:15:32Z</time>
      </trkpt>
      <trkpt lat="40.107849000" lon="-8.492810000">
        <ele>112.000000</ele>
        <time>2020-10-17T08:15:33Z</time>
      </trkpt>
      <trkpt lat="40.107845000" lon="-8.492944000">
        <ele>112.000000</ele>
        <time>2020-10-17T08:15:35Z</time>
      </trkpt>
      <trkpt lat="40.107829000" lon="-8.493011000">
        <ele>112.000000</ele>
        <time>2020-10-17T08:15:36Z</time>
      </trkpt>
      <trkpt lat="40.107805000" lon="-8.493071000">
        <ele>112.000000</ele>
        <time>2020-10-17T08:15:37Z</time>
      </trkpt>
      <trkpt lat="40.107769000" lon="-8.493120000">
        <ele>111.800000</ele>
        <time>2020-10-17T08:15:38Z</time>
      </trkpt>
      <trkpt lat="40.107720000" lon="-8.493149000">
        <ele>111.800000</ele>
        <time>2020-10-17T08:15:39Z</time>
      </trkpt>
      <trkpt lat="40.107604000" lon="-8.493170000">
        <ele>112.000000</ele>
        <time>2020-10-17T08:15:41Z</time>
      </trkpt>
      <trkpt lat="40.107545000" lon="-8.493167000">
        <ele>111.800000</ele>
        <time>2020-10-17T08:15:42Z</time>
      </trkpt>
      <trkpt lat="40.107487000" lon="-8.493159000">
        <ele>111.800000</ele>
        <time>2020-10-17T08:15:43Z</time>
      </trkpt>
      <trkpt lat="40.107430000" lon="-8.493147000">
        <ele>111.800000</ele>
        <time>2020-10-17T08:15:44Z</time>
      </trkpt>
      <trkpt lat="40.107264000" lon="-8.493097000">
        <ele>111.600000</ele>
        <time>2020-10-17T08:15:47Z</time>
      </trkpt>
      <trkpt lat="40.107036000" lon="-8.493022000">
        <ele>111.400000</ele>
        <time>2020-10-17T08:15:51Z</time>
      </trkpt>
      <trkpt lat="40.106926000" lon="-8.492983000">
        <ele>111.600000</ele>
        <time>2020-10-17T08:15:53Z</time>
      </trkpt>
      <trkpt lat="40.106758000" lon="-8.492928000">
        <ele>111.600000</ele>
        <time>2020-10-17T08:15:56Z</time>
      </trkpt>
      <trkpt lat="40.106647000" lon="-8.492895000">
        <ele>111.400000</ele>
        <time>2020-10-17T08:15:58Z</time>
      </trkpt>
      <trkpt lat="40.106529000" lon="-8.492869000">
        <ele>111.400000</ele>
        <time>2020-10-17T08:16:00Z</time>
      </trkpt>
      <trkpt lat="40.106471000" lon="-8.492858000">
        <ele>111.400000</ele>
        <time>2020-10-17T08:16:01Z</time>
      </trkpt>
      <trkpt lat="40.106352000" lon="-8.492836000">
        <ele>111.200000</ele>
        <time>2020-10-17T08:16:03Z</time>
      </trkpt>
      <trkpt lat="40.106294000" lon="-8.492831000">
        <ele>111.400000</ele>
        <time>2020-10-17T08:16:04Z</time>
      </trkpt>
      <trkpt lat="40.106236000" lon="-8.492827000">
        <ele>111.400000</ele>
        <time>2020-10-17T08:16:05Z</time>
      </trkpt>
      <trkpt lat="40.106058000" lon="-8.492812000">
        <ele>111.400000</ele>
        <time>2020-10-17T08:16:08Z</time>
      </trkpt>
      <trkpt lat="40.106000000" lon="-8.492805000">
        <ele>111.600000</ele>
        <time>2020-10-17T08:16:09Z</time>
      </trkpt>
      <trkpt lat="40.105944000" lon="-8.492797000">
        <ele>111.600000</ele>
        <time>2020-10-17T08:16:10Z</time>
      </trkpt>
      <trkpt lat="40.105888000" lon="-8.492791000">
        <ele>111.400000</ele>
        <time>2020-10-17T08:16:11Z</time>
      </trkpt>
      <trkpt lat="40.105661000" lon="-8.492792000">
        <ele>111.600000</ele>
        <time>2020-10-17T08:16:15Z</time>
      </trkpt>
      <trkpt lat="40.105605000" lon="-8.492802000">
        <ele>111.600000</ele>
        <time>2020-10-17T08:16:16Z</time>
      </trkpt>
      <trkpt lat="40.105493000" lon="-8.492837000">
        <ele>111.600000</ele>
        <time>2020-10-17T08:16:18Z</time>
      </trkpt>
      <trkpt lat="40.105378000" lon="-8.492888000">
        <ele>111.600000</ele>
        <time>2020-10-17T08:16:20Z</time>
      </trkpt>
      <trkpt lat="40.105215000" lon="-8.492981000">
        <ele>112.000000</ele>
        <time>2020-10-17T08:16:23Z</time>
      </trkpt>
      <trkpt lat="40.105163000" lon="-8.493012000">
        <ele>112.000000</ele>
        <time>2020-10-17T08:16:24Z</time>
      </trkpt>
      <trkpt lat="40.105111000" lon="-8.493043000">
        <ele>112.000000</ele>
        <time>2020-10-17T08:16:25Z</time>
      </trkpt>
      <trkpt lat="40.104899000" lon="-8.493169000">
        <ele>112.600000</ele>
        <time>2020-10-17T08:16:29Z</time>
      </trkpt>
      <trkpt lat="40.104847000" lon="-8.493200000">
        <ele>112.800000</ele>
        <time>2020-10-17T08:16:30Z</time>
      </trkpt>
      <trkpt lat="40.104694000" lon="-8.493294000">
        <ele>112.800000</ele>
        <time>2020-10-17T08:16:33Z</time>
      </trkpt>
      <trkpt lat="40.104644000" lon="-8.493324000">
        <ele>112.800000</ele>
        <time>2020-10-17T08:16:34Z</time>
      </trkpt>
      <trkpt lat="40.104595000" lon="-8.493351000">
        <ele>113.000000</ele>
        <time>2020-10-17T08:16:35Z</time>
      </trkpt>
      <trkpt lat="40.104547000" lon="-8.493378000">
        <ele>113.000000</ele>
        <time>2020-10-17T08:16:36Z</time>
      </trkpt>
      <trkpt lat="40.104500000" lon="-8.493406000">
        <ele>113.000000</ele>
        <time>2020-10-17T08:16:37Z</time>
      </trkpt>
      <trkpt lat="40.104453000" lon="-8.493437000">
        <ele>112.800000</ele>
        <time>2020-10-17T08:16:38Z</time>
      </trkpt>
      <trkpt lat="40.104313000" lon="-8.493530000">
        <ele>113.200000</ele>
        <time>2020-10-17T08:16:41Z</time>
      </trkpt>
      <trkpt lat="40.104225000" lon="-8.493587000">
        <ele>113.400000</ele>
        <time>2020-10-17T08:16:43Z</time>
      </trkpt>
      <trkpt lat="40.103936000" lon="-8.493786000">
        <ele>114.200000</ele>
        <time>2020-10-17T08:16:49Z</time>
      </trkpt>
      <trkpt lat="40.103838000" lon="-8.493863000">
        <ele>114.400000</ele>
        <time>2020-10-17T08:16:51Z</time>
      </trkpt>
      <trkpt lat="40.103791000" lon="-8.493904000">
        <ele>114.400000</ele>
        <time>2020-10-17T08:16:52Z</time>
      </trkpt>
      <trkpt lat="40.103746000" lon="-8.493946000">
        <ele>114.600000</ele>
        <time>2020-10-17T08:16:53Z</time>
      </trkpt>
      <trkpt lat="40.103703000" lon="-8.493989000">
        <ele>114.400000</ele>
        <time>2020-10-17T08:16:54Z</time>
      </trkpt>
      <trkpt lat="40.103615000" lon="-8.494078000">
        <ele>114.600000</ele>
        <time>2020-10-17T08:16:56Z</time>
      </trkpt>
      <trkpt lat="40.103274000" lon="-8.494414000">
        <ele>114.400000</ele>
        <time>2020-10-17T08:17:03Z</time>
      </trkpt>
      <trkpt lat="40.102967000" lon="-8.494718000">
        <ele>114.400000</ele>
        <time>2020-10-17T08:17:09Z</time>
      </trkpt>
      <trkpt lat="40.102862000" lon="-8.494816000">
        <ele>114.200000</ele>
        <time>2020-10-17T08:17:11Z</time>
      </trkpt>
      <trkpt lat="40.102811000" lon="-8.494867000">
        <ele>114.200000</ele>
        <time>2020-10-17T08:17:12Z</time>
      </trkpt>
      <trkpt lat="40.102763000" lon="-8.494923000">
        <ele>114.000000</ele>
        <time>2020-10-17T08:17:13Z</time>
      </trkpt>
      <trkpt lat="40.102716000" lon="-8.494969000">
        <ele>113.800000</ele>
        <time>2020-10-17T08:17:14Z</time>
      </trkpt>
      <trkpt lat="40.102670000" lon="-8.495015000">
        <ele>113.800000</ele>
        <time>2020-10-17T08:17:15Z</time>
      </trkpt>
      <trkpt lat="40.102626000" lon="-8.495055000">
        <ele>113.600000</ele>
        <time>2020-10-17T08:17:16Z</time>
      </trkpt>
      <trkpt lat="40.102522000" lon="-8.495135000">
        <ele>113.400000</ele>
        <time>2020-10-17T08:17:18Z</time>
      </trkpt>
      <trkpt lat="40.102371000" lon="-8.495282000">
        <ele>113.000000</ele>
        <time>2020-10-17T08:17:21Z</time>
      </trkpt>
      <trkpt lat="40.102324000" lon="-8.495315000">
        <ele>112.600000</ele>
        <time>2020-10-17T08:17:22Z</time>
      </trkpt>
      <trkpt lat="40.102273000" lon="-8.495335000">
        <ele>112.600000</ele>
        <time>2020-10-17T08:17:23Z</time>
      </trkpt>
      <trkpt lat="40.102221000" lon="-8.495347000">
        <ele>112.400000</ele>
        <time>2020-10-17T08:17:24Z</time>
      </trkpt>
      <trkpt lat="40.102166000" lon="-8.495351000">
        <ele>112.400000</ele>
        <time>2020-10-17T08:17:25Z</time>
      </trkpt>
      <trkpt lat="40.102104000" lon="-8.495330000">
        <ele>112.200000</ele>
        <time>2020-10-17T08:17:26Z</time>
      </trkpt>
      <trkpt lat="40.102050000" lon="-8.495307000">
        <ele>112.000000</ele>
        <time>2020-10-17T08:17:27Z</time>
      </trkpt>
      <trkpt lat="40.102009000" lon="-8.495265000">
        <ele>112.000000</ele>
        <time>2020-10-17T08:17:28Z</time>
      </trkpt>
      <trkpt lat="40.101965000" lon="-8.495223000">
        <ele>111.800000</ele>
        <time>2020-10-17T08:17:29Z</time>
      </trkpt>
      <trkpt lat="40.101920000" lon="-8.495177000">
        <ele>111.800000</ele>
        <time>2020-10-17T08:17:30Z</time>
      </trkpt>
      <trkpt lat="40.101873000" lon="-8.495128000">
        <ele>111.800000</ele>
        <time>2020-10-17T08:17:31Z</time>
      </trkpt>
      <trkpt lat="40.101830000" lon="-8.495089000">
        <ele>111.600000</ele>
        <time>2020-10-17T08:17:32Z</time>
      </trkpt>
      <trkpt lat="40.101786000" lon="-8.495051000">
        <ele>111.400000</ele>
        <time>2020-10-17T08:17:33Z</time>
      </trkpt>
      <trkpt lat="40.101747000" lon="-8.495020000">
        <ele>111.000000</ele>
        <time>2020-10-17T08:17:34Z</time>
      </trkpt>
      <trkpt lat="40.101713000" lon="-8.494999000">
        <ele>110.600000</ele>
        <time>2020-10-17T08:17:35Z</time>
      </trkpt>
      <trkpt lat="40.101681000" lon="-8.494985000">
        <ele>110.400000</ele>
        <time>2020-10-17T08:17:36Z</time>
      </trkpt>
      <trkpt lat="40.101655000" lon="-8.494974000">
        <ele>109.800000</ele>
        <time>2020-10-17T08:17:37Z</time>
      </trkpt>
      <trkpt lat="40.101623000" lon="-8.494969000">
        <ele>109.400000</ele>
        <time>2020-10-17T08:17:38Z</time>
      </trkpt>
      <trkpt lat="40.101507000" lon="-8.494952000">
        <ele>109.000000</ele>
        <time>2020-10-17T08:17:41Z</time>
      </trkpt>
      <trkpt lat="40.101427000" lon="-8.494914000">
        <ele>108.400000</ele>
        <time>2020-10-17T08:17:43Z</time>
      </trkpt>
      <trkpt lat="40.101381000" lon="-8.494895000">
        <ele>107.600000</ele>
        <time>2020-10-17T08:17:44Z</time>
      </trkpt>
      <trkpt lat="40.101342000" lon="-8.494884000">
        <ele>107.400000</ele>
        <time>2020-10-17T08:17:45Z</time>
      </trkpt>
      <trkpt lat="40.101300000" lon="-8.494858000">
        <ele>107.200000</ele>
        <time>2020-10-17T08:17:46Z</time>
      </trkpt>
      <trkpt lat="40.101266000" lon="-8.494812000">
        <ele>107.000000</ele>
        <time>2020-10-17T08:17:47Z</time>
      </trkpt>
      <trkpt lat="40.101245000" lon="-8.494772000">
        <ele>107.000000</ele>
        <time>2020-10-17T08:17:48Z</time>
      </trkpt>
      <trkpt lat="40.101223000" lon="-8.494726000">
        <ele>107.000000</ele>
        <time>2020-10-17T08:17:49Z</time>
      </trkpt>
      <trkpt lat="40.101199000" lon="-8.494665000">
        <ele>106.800000</ele>
        <time>2020-10-17T08:17:50Z</time>
      </trkpt>
      <trkpt lat="40.101179000" lon="-8.494594000">
        <ele>106.600000</ele>
        <time>2020-10-17T08:17:51Z</time>
      </trkpt>
      <trkpt lat="40.101127000" lon="-8.494482000">
        <ele>106.400000</ele>
        <time>2020-10-17T08:17:53Z</time>
      </trkpt>
      <trkpt lat="40.101099000" lon="-8.494434000">
        <ele>106.200000</ele>
        <time>2020-10-17T08:17:54Z</time>
      </trkpt>
      <trkpt lat="40.101022000" lon="-8.494304000">
        <ele>106.200000</ele>
        <time>2020-10-17T08:17:57Z</time>
      </trkpt>
      <trkpt lat="40.100844000" lon="-8.494137000">
        <ele>105.800000</ele>
        <time>2020-10-17T08:18:01Z</time>
      </trkpt>
      <trkpt lat="40.100789000" lon="-8.494101000">
        <ele>105.600000</ele>
        <time>2020-10-17T08:18:02Z</time>
      </trkpt>
      <trkpt lat="40.100675000" lon="-8.493997000">
        <ele>105.600000</ele>
        <time>2020-10-17T08:18:04Z</time>
      </trkpt>
      <trkpt lat="40.100629000" lon="-8.493933000">
        <ele>105.400000</ele>
        <time>2020-10-17T08:18:05Z</time>
      </trkpt>
      <trkpt lat="40.100593000" lon="-8.493873000">
        <ele>105.200000</ele>
        <time>2020-10-17T08:18:06Z</time>
      </trkpt>
      <trkpt lat="40.100521000" lon="-8.493756000">
        <ele>105.200000</ele>
        <time>2020-10-17T08:18:08Z</time>
      </trkpt>
      <trkpt lat="40.100500000" lon="-8.493715000">
        <ele>105.000000</ele>
        <time>2020-10-17T08:18:09Z</time>
      </trkpt>
      <trkpt lat="40.100478000" lon="-8.493685000">
        <ele>105.200000</ele>
        <time>2020-10-17T08:18:10Z</time>
      </trkpt>
      <trkpt lat="40.100446000" lon="-8.493658000">
        <ele>105.200000</ele>
        <time>2020-10-17T08:18:11Z</time>
      </trkpt>
      <trkpt lat="40.100388000" lon="-8.493626000">
        <ele>105.200000</ele>
        <time>2020-10-17T08:18:12Z</time>
      </trkpt>
      <trkpt lat="40.100339000" lon="-8.493621000">
        <ele>105.200000</ele>
        <time>2020-10-17T08:18:13Z</time>
      </trkpt>
      <trkpt lat="40.100284000" lon="-8.493632000">
        <ele>105.200000</ele>
        <time>2020-10-17T08:18:14Z</time>
      </trkpt>
      <trkpt lat="40.100227000" lon="-8.493660000">
        <ele>105.000000</ele>
        <time>2020-10-17T08:18:15Z</time>
      </trkpt>
      <trkpt lat="40.100168000" lon="-8.493688000">
        <ele>105.000000</ele>
        <time>2020-10-17T08:18:16Z</time>
      </trkpt>
      <trkpt lat="40.100096000" lon="-8.493702000">
        <ele>105.000000</ele>
        <time>2020-10-17T08:18:17Z</time>
      </trkpt>
      <trkpt lat="40.099957000" lon="-8.493678000">
        <ele>104.800000</ele>
        <time>2020-10-17T08:18:19Z</time>
      </trkpt>
      <trkpt lat="40.099907000" lon="-8.493651000">
        <ele>104.800000</ele>
        <time>2020-10-17T08:18:20Z</time>
      </trkpt>
      <trkpt lat="40.099861000" lon="-8.493611000">
        <ele>104.400000</ele>
        <time>2020-10-17T08:18:21Z</time>
      </trkpt>
      <trkpt lat="40.099819000" lon="-8.493559000">
        <ele>103.200000</ele>
        <time>2020-10-17T08:18:22Z</time>
      </trkpt>
      <trkpt lat="40.099785000" lon="-8.493501000">
        <ele>102.800000</ele>
        <time>2020-10-17T08:18:23Z</time>
      </trkpt>
      <trkpt lat="40.099751000" lon="-8.493444000">
        <ele>102.600000</ele>
        <time>2020-10-17T08:18:24Z</time>
      </trkpt>
      <trkpt lat="40.099722000" lon="-8.493390000">
        <ele>102.400000</ele>
        <time>2020-10-17T08:18:25Z</time>
      </trkpt>
      <trkpt lat="40.099699000" lon="-8.493335000">
        <ele>102.400000</ele>
        <time>2020-10-17T08:18:26Z</time>
      </trkpt>
      <trkpt lat="40.099682000" lon="-8.493277000">
        <ele>102.400000</ele>
        <time>2020-10-17T08:18:27Z</time>
      </trkpt>
      <trkpt lat="40.099667000" lon="-8.493219000">
        <ele>102.200000</ele>
        <time>2020-10-17T08:18:28Z</time>
      </trkpt>
      <trkpt lat="40.099659000" lon="-8.493166000">
        <ele>102.400000</ele>
        <time>2020-10-17T08:18:29Z</time>
      </trkpt>
      <trkpt lat="40.099658000" lon="-8.493119000">
        <ele>102.200000</ele>
        <time>2020-10-17T08:18:30Z</time>
      </trkpt>
      <trkpt lat="40.099660000" lon="-8.493056000">
        <ele>102.400000</ele>
        <time>2020-10-17T08:18:31Z</time>
      </trkpt>
      <trkpt lat="40.099664000" lon="-8.493001000">
        <ele>102.400000</ele>
        <time>2020-10-17T08:18:32Z</time>
      </trkpt>
      <trkpt lat="40.099682000" lon="-8.492963000">
        <ele>102.400000</ele>
        <time>2020-10-17T08:18:33Z</time>
      </trkpt>
      <trkpt lat="40.099704000" lon="-8.492937000">
        <ele>102.600000</ele>
        <time>2020-10-17T08:18:34Z</time>
      </trkpt>
      <trkpt lat="40.099745000" lon="-8.492835000">
        <ele>103.400000</ele>
        <time>2020-10-17T08:18:36Z</time>
      </trkpt>
      <trkpt lat="40.099753000" lon="-8.492768000">
        <ele>103.600000</ele>
        <time>2020-10-17T08:18:37Z</time>
      </trkpt>
      <trkpt lat="40.099756000" lon="-8.492703000">
        <ele>103.600000</ele>
        <time>2020-10-17T08:18:38Z</time>
      </trkpt>
      <trkpt lat="40.099764000" lon="-8.492651000">
        <ele>103.800000</ele>
        <time>2020-10-17T08:18:39Z</time>
      </trkpt>
      <trkpt lat="40.099760000" lon="-8.492597000">
        <ele>103.800000</ele>
        <time>2020-10-17T08:18:40Z</time>
      </trkpt>
      <trkpt lat="40.099739000" lon="-8.492551000">
        <ele>103.800000</ele>
        <time>2020-10-17T08:18:41Z</time>
      </trkpt>
      <trkpt lat="40.099721000" lon="-8.492510000">
        <ele>104.000000</ele>
        <time>2020-10-17T08:18:42Z</time>
      </trkpt>
      <trkpt lat="40.099690000" lon="-8.492479000">
        <ele>104.000000</ele>
        <time>2020-10-17T08:18:43Z</time>
      </trkpt>
      <trkpt lat="40.099666000" lon="-8.492455000">
        <ele>104.000000</ele>
        <time>2020-10-17T08:18:44Z</time>
      </trkpt>
      <trkpt lat="40.099637000" lon="-8.492435000">
        <ele>104.000000</ele>
        <time>2020-10-17T08:18:45Z</time>
      </trkpt>
      <trkpt lat="40.099590000" lon="-8.492393000">
        <ele>104.200000</ele>
        <time>2020-10-17T08:18:47Z</time>
      </trkpt>
      <trkpt lat="40.099575000" lon="-8.492369000">
        <ele>104.200000</ele>
        <time>2020-10-17T08:18:48Z</time>
      </trkpt>
      <trkpt lat="40.099498000" lon="-8.492277000">
        <ele>104.600000</ele>
        <time>2020-10-17T08:18:51Z</time>
      </trkpt>
      <trkpt lat="40.099477000" lon="-8.492251000">
        <ele>104.600000</ele>
        <time>2020-10-17T08:18:52Z</time>
      </trkpt>
      <trkpt lat="40.099458000" lon="-8.492233000">
        <ele>104.600000</ele>
        <time>2020-10-17T08:18:53Z</time>
      </trkpt>
      <trkpt lat="40.099449000" lon="-8.492210000">
        <ele>105.000000</ele>
        <time>2020-10-17T08:18:54Z</time>
      </trkpt>
      <trkpt lat="40.099423000" lon="-8.492180000">
        <ele>105.200000</ele>
        <time>2020-10-17T08:18:55Z</time>
      </trkpt>
      <trkpt lat="40.099404000" lon="-8.492155000">
        <ele>105.400000</ele>
        <time>2020-10-17T08:18:56Z</time>
      </trkpt>
      <trkpt lat="40.099375000" lon="-8.492133000">
        <ele>105.400000</ele>
        <time>2020-10-17T08:18:57Z</time>
      </trkpt>
      <trkpt lat="40.099344000" lon="-8.492118000">
        <ele>105.800000</ele>
        <time>2020-10-17T08:18:58Z</time>
      </trkpt>
      <trkpt lat="40.099311000" lon="-8.492092000">
        <ele>105.800000</ele>
        <time>2020-10-17T08:18:59Z</time>
      </trkpt>
      <trkpt lat="40.099272000" lon="-8.492062000">
        <ele>106.200000</ele>
        <time>2020-10-17T08:19:00Z</time>
      </trkpt>
      <trkpt lat="40.099237000" lon="-8.492048000">
        <ele>106.200000</ele>
        <time>2020-10-17T08:19:01Z</time>
      </trkpt>
      <trkpt lat="40.099205000" lon="-8.492032000">
        <ele>106.400000</ele>
        <time>2020-10-17T08:19:02Z</time>
      </trkpt>
      <trkpt lat="40.099164000" lon="-8.492016000">
        <ele>106.600000</ele>
        <time>2020-10-17T08:19:03Z</time>
      </trkpt>
      <trkpt lat="40.099124000" lon="-8.492006000">
        <ele>106.800000</ele>
        <time>2020-10-17T08:19:04Z</time>
      </trkpt>
      <trkpt lat="40.099089000" lon="-8.492001000">
        <ele>107.000000</ele>
        <time>2020-10-17T08:19:05Z</time>
      </trkpt>
      <trkpt lat="40.099054000" lon="-8.491997000">
        <ele>107.000000</ele>
        <time>2020-10-17T08:19:06Z</time>
      </trkpt>
      <trkpt lat="40.099017000" lon="-8.491992000">
        <ele>107.200000</ele>
        <time>2020-10-17T08:19:07Z</time>
      </trkpt>
      <trkpt lat="40.098976000" lon="-8.491981000">
        <ele>107.400000</ele>
        <time>2020-10-17T08:19:08Z</time>
      </trkpt>
      <trkpt lat="40.098941000" lon="-8.491974000">
        <ele>107.400000</ele>
        <time>2020-10-17T08:19:09Z</time>
      </trkpt>
      <trkpt lat="40.098907000" lon="-8.491973000">
        <ele>107.600000</ele>
        <time>2020-10-17T08:19:10Z</time>
      </trkpt>
      <trkpt lat="40.098874000" lon="-8.491972000">
        <ele>107.600000</ele>
        <time>2020-10-17T08:19:11Z</time>
      </trkpt>
      <trkpt lat="40.098832000" lon="-8.491959000">
        <ele>107.800000</ele>
        <time>2020-10-17T08:19:12Z</time>
      </trkpt>
      <trkpt lat="40.098796000" lon="-8.491958000">
        <ele>107.800000</ele>
        <time>2020-10-17T08:19:13Z</time>
      </trkpt>
      <trkpt lat="40.098758000" lon="-8.491949000">
        <ele>108.000000</ele>
        <time>2020-10-17T08:19:14Z</time>
      </trkpt>
      <trkpt lat="40.098724000" lon="-8.491935000">
        <ele>108.000000</ele>
        <time>2020-10-17T08:19:15Z</time>
      </trkpt>
      <trkpt lat="40.098698000" lon="-8.491925000">
        <ele>107.800000</ele>
        <time>2020-10-17T08:19:16Z</time>
      </trkpt>
      <trkpt lat="40.098670000" lon="-8.491920000">
        <ele>108.200000</ele>
        <time>2020-10-17T08:19:17Z</time>
      </trkpt>
      <trkpt lat="40.098648000" lon="-8.491928000">
        <ele>108.200000</ele>
        <time>2020-10-17T08:19:18Z</time>
      </trkpt>
      <trkpt lat="40.098625000" lon="-8.491947000">
        <ele>108.600000</ele>
        <time>2020-10-17T08:19:19Z</time>
      </trkpt>
      <trkpt lat="40.098608000" lon="-8.491976000">
        <ele>108.600000</ele>
        <time>2020-10-17T08:19:20Z</time>
      </trkpt>
      <trkpt lat="40.098596000" lon="-8.492016000">
        <ele>108.600000</ele>
        <time>2020-10-17T08:19:21Z</time>
      </trkpt>
      <trkpt lat="40.098585000" lon="-8.492067000">
        <ele>108.800000</ele>
        <time>2020-10-17T08:19:22Z</time>
      </trkpt>
      <trkpt lat="40.098587000" lon="-8.492129000">
        <ele>109.000000</ele>
        <time>2020-10-17T08:19:23Z</time>
      </trkpt>
      <trkpt lat="40.098592000" lon="-8.492185000">
        <ele>108.800000</ele>
        <time>2020-10-17T08:19:24Z</time>
      </trkpt>
      <trkpt lat="40.098597000" lon="-8.492245000">
        <ele>108.800000</ele>
        <time>2020-10-17T08:19:25Z</time>
      </trkpt>
      <trkpt lat="40.098608000" lon="-8.492298000">
        <ele>109.000000</ele>
        <time>2020-10-17T08:19:26Z</time>
      </trkpt>
      <trkpt lat="40.098622000" lon="-8.492410000">
        <ele>108.800000</ele>
        <time>2020-10-17T08:19:28Z</time>
      </trkpt>
      <trkpt lat="40.098613000" lon="-8.492447000">
        <ele>108.800000</ele>
        <time>2020-10-17T08:19:29Z</time>
      </trkpt>
      <trkpt lat="40.098609000" lon="-8.492474000">
        <ele>108.600000</ele>
        <time>2020-10-17T08:19:30Z</time>
      </trkpt>
      <trkpt lat="40.098593000" lon="-8.492498000">
        <ele>108.400000</ele>
        <time>2020-10-17T08:19:31Z</time>
      </trkpt>
      <trkpt lat="40.098581000" lon="-8.492500000">
        <ele>107.800000</ele>
        <time>2020-10-17T08:19:32Z</time>
      </trkpt>
      <trkpt lat="40.098571000" lon="-8.492463000">
        <ele>107.200000</ele>
        <time>2020-10-17T08:19:33Z</time>
      </trkpt>
      <trkpt lat="40.098561000" lon="-8.492438000">
        <ele>106.800000</ele>
        <time>2020-10-17T08:19:34Z</time>
      </trkpt>
      <trkpt lat="40.098520000" lon="-8.492371000">
        <ele>106.200000</ele>
        <time>2020-10-17T08:19:35Z</time>
      </trkpt>
      <trkpt lat="40.098493000" lon="-8.492303000">
        <ele>105.600000</ele>
        <time>2020-10-17T08:19:36Z</time>
      </trkpt>
      <trkpt lat="40.098456000" lon="-8.492227000">
        <ele>105.200000</ele>
        <time>2020-10-17T08:19:37Z</time>
      </trkpt>
      <trkpt lat="40.098426000" lon="-8.492168000">
        <ele>105.000000</ele>
        <time>2020-10-17T08:19:38Z</time>
      </trkpt>
      <trkpt lat="40.098377000" lon="-8.492089000">
        <ele>104.600000</ele>
        <time>2020-10-17T08:19:39Z</time>
      </trkpt>
      <trkpt lat="40.098217000" lon="-8.491799000">
        <ele>103.000000</ele>
        <time>2020-10-17T08:19:43Z</time>
      </trkpt>
      <trkpt lat="40.098166000" lon="-8.491727000">
        <ele>102.800000</ele>
        <time>2020-10-17T08:19:44Z</time>
      </trkpt>
      <trkpt lat="40.098117000" lon="-8.491659000">
        <ele>102.000000</ele>
        <time>2020-10-17T08:19:45Z</time>
      </trkpt>
      <trkpt lat="40.098076000" lon="-8.491582000">
        <ele>100.800000</ele>
        <time>2020-10-17T08:19:46Z</time>
      </trkpt>
      <trkpt lat="40.098032000" lon="-8.491510000">
        <ele>99.600000</ele>
        <time>2020-10-17T08:19:47Z</time>
      </trkpt>
      <trkpt lat="40.097999000" lon="-8.491453000">
        <ele>98.800000</ele>
        <time>2020-10-17T08:19:48Z</time>
      </trkpt>
      <trkpt lat="40.097967000" lon="-8.491413000">
        <ele>97.600000</ele>
        <time>2020-10-17T08:19:49Z</time>
      </trkpt>
      <trkpt lat="40.097938000" lon="-8.491386000">
        <ele>96.600000</ele>
        <time>2020-10-17T08:19:50Z</time>
      </trkpt>
      <trkpt lat="40.097907000" lon="-8.491374000">
        <ele>96.000000</ele>
        <time>2020-10-17T08:19:51Z</time>
      </trkpt>
      <trkpt lat="40.097875000" lon="-8.491371000">
        <ele>95.000000</ele>
        <time>2020-10-17T08:19:52Z</time>
      </trkpt>
      <trkpt lat="40.097852000" lon="-8.491374000">
        <ele>93.800000</ele>
        <time>2020-10-17T08:19:53Z</time>
      </trkpt>
      <trkpt lat="40.097836000" lon="-8.491393000">
        <ele>93.200000</ele>
        <time>2020-10-17T08:19:54Z</time>
      </trkpt>
      <trkpt lat="40.097815000" lon="-8.491402000">
        <ele>92.000000</ele>
        <time>2020-10-17T08:19:55Z</time>
      </trkpt>
      <trkpt lat="40.097799000" lon="-8.491415000">
        <ele>90.600000</ele>
        <time>2020-10-17T08:19:56Z</time>
      </trkpt>
      <trkpt lat="40.097786000" lon="-8.491432000">
        <ele>90.000000</ele>
        <time>2020-10-17T08:19:57Z</time>
      </trkpt>
      <trkpt lat="40.097766000" lon="-8.491441000">
        <ele>89.600000</ele>
        <time>2020-10-17T08:19:58Z</time>
      </trkpt>
      <trkpt lat="40.097755000" lon="-8.491449000">
        <ele>89.400000</ele>
        <time>2020-10-17T08:19:59Z</time>
      </trkpt>
      <trkpt lat="40.097755000" lon="-8.491458000">
        <ele>89.400000</ele>
        <time>2020-10-17T08:20:00Z</time>
      </trkpt>
      <trkpt lat="40.097751000" lon="-8.491469000">
        <ele>89.200000</ele>
        <time>2020-10-17T08:20:01Z</time>
      </trkpt>
      <trkpt lat="40.097744000" lon="-8.491482000">
        <ele>89.200000</ele>
        <time>2020-10-17T08:20:02Z</time>
      </trkpt>
      <trkpt lat="40.097738000" lon="-8.491489000">
        <ele>89.200000</ele>
        <time>2020-10-17T08:20:03Z</time>
      </trkpt>
      <trkpt lat="40.097739000" lon="-8.491491000">
        <ele>89.200000</ele>
        <time>2020-10-17T08:20:04Z</time>
      </trkpt>
      <trkpt lat="40.097742000" lon="-8.491497000">
        <ele>89.200000</ele>
        <time>2020-10-17T08:20:05Z</time>
      </trkpt>
      <trkpt lat="40.097748000" lon="-8.491500000">
        <ele>89.200000</ele>
        <time>2020-10-17T08:20:06Z</time>
      </trkpt>
      <trkpt lat="40.097758000" lon="-8.491514000">
        <ele>89.400000</ele>
        <time>2020-10-17T08:20:07Z</time>
      </trkpt>
      <trkpt lat="40.097729000" lon="-8.491559000">
        <ele>90.200000</ele>
        <time>2020-10-17T08:20:09Z</time>
      </trkpt>
      <trkpt lat="40.097718000" lon="-8.491579000">
        <ele>90.800000</ele>
        <time>2020-10-17T08:20:10Z</time>
      </trkpt>
      <trkpt lat="40.097717000" lon="-8.491601000">
        <ele>91.000000</ele>
        <time>2020-10-17T08:20:11Z</time>
      </trkpt>
      <trkpt lat="40.097716000" lon="-8.491633000">
        <ele>91.600000</ele>
        <time>2020-10-17T08:20:12Z</time>
      </trkpt>
      <trkpt lat="40.097707000" lon="-8.491687000">
        <ele>91.800000</ele>
        <time>2020-10-17T08:20:13Z</time>
      </trkpt>
      <trkpt lat="40.097722000" lon="-8.491737000">
        <ele>92.600000</ele>
        <time>2020-10-17T08:20:14Z</time>
      </trkpt>
      <trkpt lat="40.097730000" lon="-8.491773000">
        <ele>93.000000</ele>
        <time>2020-10-17T08:20:15Z</time>
      </trkpt>
      <trkpt lat="40.097757000" lon="-8.491801000">
        <ele>93.200000</ele>
        <time>2020-10-17T08:20:16Z</time>
      </trkpt>
      <trkpt lat="40.097736000" lon="-8.491836000">
        <ele>93.400000</ele>
        <time>2020-10-17T08:20:17Z</time>
      </trkpt>
      <trkpt lat="40.097742000" lon="-8.491813000">
        <ele>93.800000</ele>
        <time>2020-10-17T08:20:18Z</time>
      </trkpt>
      <trkpt lat="40.097743000" lon="-8.491820000">
        <ele>94.400000</ele>
        <time>2020-10-17T08:20:19Z</time>
      </trkpt>
      <trkpt lat="40.097765000" lon="-8.491835000">
        <ele>94.800000</ele>
        <time>2020-10-17T08:20:20Z</time>
      </trkpt>
      <trkpt lat="40.097770000" lon="-8.491849000">
        <ele>95.200000</ele>
        <time>2020-10-17T08:20:21Z</time>
      </trkpt>
      <trkpt lat="40.097763000" lon="-8.491876000">
        <ele>95.600000</ele>
        <time>2020-10-17T08:20:22Z</time>
      </trkpt>
      <trkpt lat="40.097772000" lon="-8.491915000">
        <ele>96.000000</ele>
        <time>2020-10-17T08:20:23Z</time>
      </trkpt>
      <trkpt lat="40.097769000" lon="-8.491946000">
        <ele>96.000000</ele>
        <time>2020-10-17T08:20:24Z</time>
      </trkpt>
      <trkpt lat="40.097763000" lon="-8.491973000">
        <ele>96.600000</ele>
        <time>2020-10-17T08:20:25Z</time>
      </trkpt>
      <trkpt lat="40.097769000" lon="-8.491991000">
        <ele>97.000000</ele>
        <time>2020-10-17T08:20:26Z</time>
      </trkpt>
      <trkpt lat="40.097763000" lon="-8.492044000">
        <ele>97.400000</ele>
        <time>2020-10-17T08:20:27Z</time>
      </trkpt>
      <trkpt lat="40.097772000" lon="-8.492085000">
        <ele>97.800000</ele>
        <time>2020-10-17T08:20:28Z</time>
      </trkpt>
      <trkpt lat="40.097773000" lon="-8.492122000">
        <ele>98.000000</ele>
        <time>2020-10-17T08:20:29Z</time>
      </trkpt>
      <trkpt lat="40.097771000" lon="-8.492149000">
        <ele>98.200000</ele>
        <time>2020-10-17T08:20:30Z</time>
      </trkpt>
      <trkpt lat="40.097769000" lon="-8.492171000">
        <ele>98.400000</ele>
        <time>2020-10-17T08:20:31Z</time>
      </trkpt>
      <trkpt lat="40.097769000" lon="-8.492191000">
        <ele>98.600000</ele>
        <time>2020-10-17T08:20:32Z</time>
      </trkpt>
      <trkpt lat="40.097766000" lon="-8.492215000">
        <ele>98.600000</ele>
        <time>2020-10-17T08:20:33Z</time>
      </trkpt>
      <trkpt lat="40.097759000" lon="-8.492243000">
        <ele>98.800000</ele>
        <time>2020-10-17T08:20:34Z</time>
      </trkpt>
      <trkpt lat="40.097757000" lon="-8.492270000">
        <ele>99.000000</ele>
        <time>2020-10-17T08:20:35Z</time>
      </trkpt>
      <trkpt lat="40.097752000" lon="-8.492294000">
        <ele>99.000000</ele>
        <time>2020-10-17T08:20:36Z</time>
      </trkpt>
      <trkpt lat="40.097740000" lon="-8.492317000">
        <ele>99.000000</ele>
        <time>2020-10-17T08:20:37Z</time>
      </trkpt>
      <trkpt lat="40.097731000" lon="-8.492338000">
        <ele>99.200000</ele>
        <time>2020-10-17T08:20:38Z</time>
      </trkpt>
      <trkpt lat="40.097720000" lon="-8.492354000">
        <ele>99.600000</ele>
        <time>2020-10-17T08:20:39Z</time>
      </trkpt>
      <trkpt lat="40.097706000" lon="-8.492369000">
        <ele>99.800000</ele>
        <time>2020-10-17T08:20:40Z</time>
      </trkpt>
      <trkpt lat="40.097693000" lon="-8.492388000">
        <ele>100.000000</ele>
        <time>2020-10-17T08:20:41Z</time>
      </trkpt>
      <trkpt lat="40.097675000" lon="-8.492405000">
        <ele>100.200000</ele>
        <time>2020-10-17T08:20:42Z</time>
      </trkpt>
      <trkpt lat="40.097653000" lon="-8.492421000">
        <ele>100.400000</ele>
        <time>2020-10-17T08:20:43Z</time>
      </trkpt>
      <trkpt lat="40.097628000" lon="-8.492436000">
        <ele>100.400000</ele>
        <time>2020-10-17T08:20:44Z</time>
      </trkpt>
      <trkpt lat="40.097603000" lon="-8.492452000">
        <ele>100.600000</ele>
        <time>2020-10-17T08:20:45Z</time>
      </trkpt>
      <trkpt lat="40.097578000" lon="-8.492466000">
        <ele>100.800000</ele>
        <time>2020-10-17T08:20:46Z</time>
      </trkpt>
      <trkpt lat="40.097554000" lon="-8.492478000">
        <ele>101.000000</ele>
        <time>2020-10-17T08:20:47Z</time>
      </trkpt>
      <trkpt lat="40.097527000" lon="-8.492493000">
        <ele>101.000000</ele>
        <time>2020-10-17T08:20:48Z</time>
      </trkpt>
      <trkpt lat="40.097503000" lon="-8.492507000">
        <ele>101.400000</ele>
        <time>2020-10-17T08:20:49Z</time>
      </trkpt>
      <trkpt lat="40.097477000" lon="-8.492516000">
        <ele>101.600000</ele>
        <time>2020-10-17T08:20:50Z</time>
      </trkpt>
      <trkpt lat="40.097450000" lon="-8.492525000">
        <ele>102.000000</ele>
        <time>2020-10-17T08:20:51Z</time>
      </trkpt>
      <trkpt lat="40.097421000" lon="-8.492536000">
        <ele>102.000000</ele>
        <time>2020-10-17T08:20:52Z</time>
      </trkpt>
      <trkpt lat="40.097391000" lon="-8.492544000">
        <ele>102.000000</ele>
        <time>2020-10-17T08:20:53Z</time>
      </trkpt>
      <trkpt lat="40.097361000" lon="-8.492549000">
        <ele>102.200000</ele>
        <time>2020-10-17T08:20:54Z</time>
      </trkpt>
      <trkpt lat="40.097327000" lon="-8.492558000">
        <ele>102.400000</ele>
        <time>2020-10-17T08:20:55Z</time>
      </trkpt>
      <trkpt lat="40.097293000" lon="-8.492567000">
        <ele>102.600000</ele>
        <time>2020-10-17T08:20:56Z</time>
      </trkpt>
      <trkpt lat="40.097263000" lon="-8.492574000">
        <ele>102.600000</ele>
        <time>2020-10-17T08:20:57Z</time>
      </trkpt>
      <trkpt lat="40.097232000" lon="-8.492582000">
        <ele>103.200000</ele>
        <time>2020-10-17T08:20:58Z</time>
      </trkpt>
      <trkpt lat="40.097202000" lon="-8.492588000">
        <ele>103.200000</ele>
        <time>2020-10-17T08:20:59Z</time>
      </trkpt>
      <trkpt lat="40.097175000" lon="-8.492596000">
        <ele>103.600000</ele>
        <time>2020-10-17T08:21:00Z</time>
      </trkpt>
      <trkpt lat="40.097149000" lon="-8.492610000">
        <ele>103.400000</ele>
        <time>2020-10-17T08:21:01Z</time>
      </trkpt>
      <trkpt lat="40.097125000" lon="-8.492624000">
        <ele>103.600000</ele>
        <time>2020-10-17T08:21:02Z</time>
      </trkpt>
      <trkpt lat="40.097101000" lon="-8.492638000">
        <ele>103.800000</ele>
        <time>2020-10-17T08:21:03Z</time>
      </trkpt>
      <trkpt lat="40.097078000" lon="-8.492651000">
        <ele>103.800000</ele>
        <time>2020-10-17T08:21:04Z</time>
      </trkpt>
      <trkpt lat="40.097053000" lon="-8.492665000">
        <ele>103.600000</ele>
        <time>2020-10-17T08:21:05Z</time>
      </trkpt>
      <trkpt lat="40.097031000" lon="-8.492675000">
        <ele>103.800000</ele>
        <time>2020-10-17T08:21:06Z</time>
      </trkpt>
      <trkpt lat="40.097008000" lon="-8.492687000">
        <ele>103.800000</ele>
        <time>2020-10-17T08:21:07Z</time>
      </trkpt>
      <trkpt lat="40.096982000" lon="-8.492700000">
        <ele>104.200000</ele>
        <time>2020-10-17T08:21:08Z</time>
      </trkpt>
      <trkpt lat="40.096955000" lon="-8.492713000">
        <ele>104.200000</ele>
        <time>2020-10-17T08:21:09Z</time>
      </trkpt>
      <trkpt lat="40.096932000" lon="-8.492725000">
        <ele>104.400000</ele>
        <time>2020-10-17T08:21:10Z</time>
      </trkpt>
      <trkpt lat="40.096906000" lon="-8.492736000">
        <ele>104.400000</ele>
        <time>2020-10-17T08:21:11Z</time>
      </trkpt>
      <trkpt lat="40.096879000" lon="-8.492748000">
        <ele>104.800000</ele>
        <time>2020-10-17T08:21:12Z</time>
      </trkpt>
      <trkpt lat="40.096852000" lon="-8.492758000">
        <ele>105.000000</ele>
        <time>2020-10-17T08:21:13Z</time>
      </trkpt>
      <trkpt lat="40.096825000" lon="-8.492770000">
        <ele>105.200000</ele>
        <time>2020-10-17T08:21:14Z</time>
      </trkpt>
      <trkpt lat="40.096798000" lon="-8.492780000">
        <ele>105.200000</ele>
        <time>2020-10-17T08:21:15Z</time>
      </trkpt>
      <trkpt lat="40.096772000" lon="-8.492790000">
        <ele>105.400000</ele>
        <time>2020-10-17T08:21:16Z</time>
      </trkpt>
      <trkpt lat="40.096747000" lon="-8.492801000">
        <ele>105.400000</ele>
        <time>2020-10-17T08:21:17Z</time>
      </trkpt>
      <trkpt lat="40.096725000" lon="-8.492809000">
        <ele>105.800000</ele>
        <time>2020-10-17T08:21:18Z</time>
      </trkpt>
      <trkpt lat="40.096702000" lon="-8.492818000">
        <ele>106.200000</ele>
        <time>2020-10-17T08:21:19Z</time>
      </trkpt>
      <trkpt lat="40.096681000" lon="-8.492828000">
        <ele>106.200000</ele>
        <time>2020-10-17T08:21:20Z</time>
      </trkpt>
      <trkpt lat="40.096657000" lon="-8.492839000">
        <ele>106.200000</ele>
        <time>2020-10-17T08:21:21Z</time>
      </trkpt>
      <trkpt lat="40.096632000" lon="-8.492850000">
        <ele>106.800000</ele>
        <time>2020-10-17T08:21:22Z</time>
      </trkpt>
      <trkpt lat="40.096609000" lon="-8.492857000">
        <ele>106.800000</ele>
        <time>2020-10-17T08:21:23Z</time>
      </trkpt>
      <trkpt lat="40.096585000" lon="-8.492862000">
        <ele>107.000000</ele>
        <time>2020-10-17T08:21:24Z</time>
      </trkpt>
      <trkpt lat="40.096559000" lon="-8.492867000">
        <ele>107.000000</ele>
        <time>2020-10-17T08:21:25Z</time>
      </trkpt>
      <trkpt lat="40.096535000" lon="-8.492873000">
        <ele>107.400000</ele>
        <time>2020-10-17T08:21:26Z</time>
      </trkpt>
      <trkpt lat="40.096510000" lon="-8.492882000">
        <ele>107.600000</ele>
        <time>2020-10-17T08:21:27Z</time>
      </trkpt>
      <trkpt lat="40.096488000" lon="-8.492891000">
        <ele>107.800000</ele>
        <time>2020-10-17T08:21:28Z</time>
      </trkpt>
      <trkpt lat="40.096465000" lon="-8.492899000">
        <ele>108.400000</ele>
        <time>2020-10-17T08:21:29Z</time>
      </trkpt>
      <trkpt lat="40.096443000" lon="-8.492905000">
        <ele>108.600000</ele>
        <time>2020-10-17T08:21:30Z</time>
      </trkpt>
      <trkpt lat="40.096419000" lon="-8.492911000">
        <ele>108.800000</ele>
        <time>2020-10-17T08:21:31Z</time>
      </trkpt>
      <trkpt lat="40.096394000" lon="-8.492917000">
        <ele>109.000000</ele>
        <time>2020-10-17T08:21:32Z</time>
      </trkpt>
      <trkpt lat="40.096372000" lon="-8.492922000">
        <ele>109.200000</ele>
        <time>2020-10-17T08:21:33Z</time>
      </trkpt>
      <trkpt lat="40.096349000" lon="-8.492925000">
        <ele>109.400000</ele>
        <time>2020-10-17T08:21:34Z</time>
      </trkpt>
      <trkpt lat="40.096323000" lon="-8.492928000">
        <ele>109.600000</ele>
        <time>2020-10-17T08:21:35Z</time>
      </trkpt>
      <trkpt lat="40.096297000" lon="-8.492932000">
        <ele>109.800000</ele>
        <time>2020-10-17T08:21:36Z</time>
      </trkpt>
      <trkpt lat="40.096271000" lon="-8.492938000">
        <ele>110.400000</ele>
        <time>2020-10-17T08:21:37Z</time>
      </trkpt>
      <trkpt lat="40.096246000" lon="-8.492947000">
        <ele>110.800000</ele>
        <time>2020-10-17T08:21:38Z</time>
      </trkpt>
      <trkpt lat="40.096222000" lon="-8.492958000">
        <ele>110.800000</ele>
        <time>2020-10-17T08:21:39Z</time>
      </trkpt>
      <trkpt lat="40.096198000" lon="-8.492969000">
        <ele>111.400000</ele>
        <time>2020-10-17T08:21:40Z</time>
      </trkpt>
      <trkpt lat="40.096175000" lon="-8.492977000">
        <ele>111.400000</ele>
        <time>2020-10-17T08:21:41Z</time>
      </trkpt>
      <trkpt lat="40.096153000" lon="-8.492985000">
        <ele>111.800000</ele>
        <time>2020-10-17T08:21:42Z</time>
      </trkpt>
      <trkpt lat="40.096129000" lon="-8.492989000">
        <ele>112.200000</ele>
        <time>2020-10-17T08:21:43Z</time>
      </trkpt>
      <trkpt lat="40.096106000" lon="-8.492989000">
        <ele>112.200000</ele>
        <time>2020-10-17T08:21:44Z</time>
      </trkpt>
      <trkpt lat="40.096084000" lon="-8.492983000">
        <ele>112.600000</ele>
        <time>2020-10-17T08:21:45Z</time>
      </trkpt>
      <trkpt lat="40.096064000" lon="-8.492973000">
        <ele>112.600000</ele>
        <time>2020-10-17T08:21:46Z</time>
      </trkpt>
      <trkpt lat="40.096047000" lon="-8.492961000">
        <ele>112.600000</ele>
        <time>2020-10-17T08:21:47Z</time>
      </trkpt>
      <trkpt lat="40.096029000" lon="-8.492947000">
        <ele>113.000000</ele>
        <time>2020-10-17T08:21:48Z</time>
      </trkpt>
      <trkpt lat="40.096017000" lon="-8.492928000">
        <ele>113.400000</ele>
        <time>2020-10-17T08:21:49Z</time>
      </trkpt>
      <trkpt lat="40.096008000" lon="-8.492906000">
        <ele>113.400000</ele>
        <time>2020-10-17T08:21:50Z</time>
      </trkpt>
      <trkpt lat="40.096003000" lon="-8.492882000">
        <ele>113.800000</ele>
        <time>2020-10-17T08:21:51Z</time>
      </trkpt>
      <trkpt lat="40.095998000" lon="-8.492857000">
        <ele>114.000000</ele>
        <time>2020-10-17T08:21:52Z</time>
      </trkpt>
      <trkpt lat="40.095994000" lon="-8.492832000">
        <ele>114.000000</ele>
        <time>2020-10-17T08:21:53Z</time>
      </trkpt>
      <trkpt lat="40.095991000" lon="-8.492808000">
        <ele>114.400000</ele>
        <time>2020-10-17T08:21:54Z</time>
      </trkpt>
      <trkpt lat="40.095988000" lon="-8.492783000">
        <ele>114.600000</ele>
        <time>2020-10-17T08:21:55Z</time>
      </trkpt>
      <trkpt lat="40.095982000" lon="-8.492758000">
        <ele>114.600000</ele>
        <time>2020-10-17T08:21:56Z</time>
      </trkpt>
      <trkpt lat="40.095976000" lon="-8.492733000">
        <ele>115.000000</ele>
        <time>2020-10-17T08:21:57Z</time>
      </trkpt>
      <trkpt lat="40.095973000" lon="-8.492707000">
        <ele>115.400000</ele>
        <time>2020-10-17T08:21:58Z</time>
      </trkpt>
      <trkpt lat="40.095969000" lon="-8.492681000">
        <ele>115.400000</ele>
        <time>2020-10-17T08:21:59Z</time>
      </trkpt>
      <trkpt lat="40.095965000" lon="-8.492653000">
        <ele>115.600000</ele>
        <time>2020-10-17T08:22:00Z</time>
      </trkpt>
      <trkpt lat="40.095963000" lon="-8.492627000">
        <ele>115.600000</ele>
        <time>2020-10-17T08:22:01Z</time>
      </trkpt>
      <trkpt lat="40.095960000" lon="-8.492601000">
        <ele>115.800000</ele>
        <time>2020-10-17T08:22:02Z</time>
      </trkpt>
      <trkpt lat="40.095955000" lon="-8.492573000">
        <ele>116.000000</ele>
        <time>2020-10-17T08:22:03Z</time>
      </trkpt>
      <trkpt lat="40.095950000" lon="-8.492547000">
        <ele>116.000000</ele>
        <time>2020-10-17T08:22:04Z</time>
      </trkpt>
      <trkpt lat="40.095943000" lon="-8.492522000">
        <ele>116.200000</ele>
        <time>2020-10-17T08:22:05Z</time>
      </trkpt>
      <trkpt lat="40.095936000" lon="-8.492500000">
        <ele>116.200000</ele>
        <time>2020-10-17T08:22:06Z</time>
      </trkpt>
      <trkpt lat="40.095928000" lon="-8.492477000">
        <ele>116.400000</ele>
        <time>2020-10-17T08:22:07Z</time>
      </trkpt>
      <trkpt lat="40.095917000" lon="-8.492451000">
        <ele>116.600000</ele>
        <time>2020-10-17T08:22:08Z</time>
      </trkpt>
      <trkpt lat="40.095906000" lon="-8.492427000">
        <ele>116.800000</ele>
        <time>2020-10-17T08:22:09Z</time>
      </trkpt>
      <trkpt lat="40.095892000" lon="-8.492400000">
        <ele>117.000000</ele>
        <time>2020-10-17T08:22:10Z</time>
      </trkpt>
      <trkpt lat="40.095880000" lon="-8.492376000">
        <ele>117.000000</ele>
        <time>2020-10-17T08:22:11Z</time>
      </trkpt>
      <trkpt lat="40.095871000" lon="-8.492353000">
        <ele>117.200000</ele>
        <time>2020-10-17T08:22:12Z</time>
      </trkpt>
      <trkpt lat="40.095859000" lon="-8.492333000">
        <ele>117.400000</ele>
        <time>2020-10-17T08:22:13Z</time>
      </trkpt>
      <trkpt lat="40.095846000" lon="-8.492314000">
        <ele>117.600000</ele>
        <time>2020-10-17T08:22:14Z</time>
      </trkpt>
      <trkpt lat="40.095834000" lon="-8.492293000">
        <ele>117.800000</ele>
        <time>2020-10-17T08:22:15Z</time>
      </trkpt>
      <trkpt lat="40.095824000" lon="-8.492272000">
        <ele>117.800000</ele>
        <time>2020-10-17T08:22:16Z</time>
      </trkpt>
      <trkpt lat="40.095816000" lon="-8.492250000">
        <ele>118.000000</ele>
        <time>2020-10-17T08:22:17Z</time>
      </trkpt>
      <trkpt lat="40.095807000" lon="-8.492226000">
        <ele>118.200000</ele>
        <time>2020-10-17T08:22:18Z</time>
      </trkpt>
      <trkpt lat="40.095800000" lon="-8.492204000">
        <ele>118.200000</ele>
        <time>2020-10-17T08:22:19Z</time>
      </trkpt>
      <trkpt lat="40.095791000" lon="-8.492182000">
        <ele>118.600000</ele>
        <time>2020-10-17T08:22:20Z</time>
      </trkpt>
      <trkpt lat="40.095781000" lon="-8.492160000">
        <ele>118.800000</ele>
        <time>2020-10-17T08:22:21Z</time>
      </trkpt>
      <trkpt lat="40.095771000" lon="-8.492140000">
        <ele>119.000000</ele>
        <time>2020-10-17T08:22:22Z</time>
      </trkpt>
      <trkpt lat="40.095760000" lon="-8.492117000">
        <ele>119.200000</ele>
        <time>2020-10-17T08:22:23Z</time>
      </trkpt>
      <trkpt lat="40.095747000" lon="-8.492091000">
        <ele>119.600000</ele>
        <time>2020-10-17T08:22:24Z</time>
      </trkpt>
      <trkpt lat="40.095734000" lon="-8.492070000">
        <ele>119.600000</ele>
        <time>2020-10-17T08:22:25Z</time>
      </trkpt>
      <trkpt lat="40.095720000" lon="-8.492051000">
        <ele>119.800000</ele>
        <time>2020-10-17T08:22:26Z</time>
      </trkpt>
      <trkpt lat="40.095705000" lon="-8.492036000">
        <ele>119.800000</ele>
        <time>2020-10-17T08:22:27Z</time>
      </trkpt>
      <trkpt lat="40.095688000" lon="-8.492019000">
        <ele>120.200000</ele>
        <time>2020-10-17T08:22:28Z</time>
      </trkpt>
      <trkpt lat="40.095673000" lon="-8.492005000">
        <ele>120.400000</ele>
        <time>2020-10-17T08:22:29Z</time>
      </trkpt>
      <trkpt lat="40.095656000" lon="-8.491997000">
        <ele>120.600000</ele>
        <time>2020-10-17T08:22:30Z</time>
      </trkpt>
      <trkpt lat="40.095636000" lon="-8.491987000">
        <ele>120.600000</ele>
        <time>2020-10-17T08:22:31Z</time>
      </trkpt>
      <trkpt lat="40.095617000" lon="-8.491981000">
        <ele>120.800000</ele>
        <time>2020-10-17T08:22:32Z</time>
      </trkpt>
      <trkpt lat="40.095597000" lon="-8.491974000">
        <ele>121.200000</ele>
        <time>2020-10-17T08:22:33Z</time>
      </trkpt>
      <trkpt lat="40.095577000" lon="-8.491969000">
        <ele>121.400000</ele>
        <time>2020-10-17T08:22:34Z</time>
      </trkpt>
      <trkpt lat="40.095556000" lon="-8.491966000">
        <ele>121.400000</ele>
        <time>2020-10-17T08:22:35Z</time>
      </trkpt>
      <trkpt lat="40.095539000" lon="-8.491965000">
        <ele>121.800000</ele>
        <time>2020-10-17T08:22:36Z</time>
      </trkpt>
      <trkpt lat="40.095522000" lon="-8.491964000">
        <ele>122.000000</ele>
        <time>2020-10-17T08:22:37Z</time>
      </trkpt>
      <trkpt lat="40.095505000" lon="-8.491962000">
        <ele>122.200000</ele>
        <time>2020-10-17T08:22:38Z</time>
      </trkpt>
      <trkpt lat="40.095492000" lon="-8.491958000">
        <ele>122.400000</ele>
        <time>2020-10-17T08:22:39Z</time>
      </trkpt>
      <trkpt lat="40.095473000" lon="-8.491951000">
        <ele>122.600000</ele>
        <time>2020-10-17T08:22:40Z</time>
      </trkpt>
      <trkpt lat="40.095455000" lon="-8.491944000">
        <ele>122.800000</ele>
        <time>2020-10-17T08:22:41Z</time>
      </trkpt>
      <trkpt lat="40.095437000" lon="-8.491937000">
        <ele>123.200000</ele>
        <time>2020-10-17T08:22:42Z</time>
      </trkpt>
      <trkpt lat="40.095420000" lon="-8.491929000">
        <ele>123.400000</ele>
        <time>2020-10-17T08:22:43Z</time>
      </trkpt>
      <trkpt lat="40.095402000" lon="-8.491921000">
        <ele>123.800000</ele>
        <time>2020-10-17T08:22:44Z</time>
      </trkpt>
      <trkpt lat="40.095385000" lon="-8.491912000">
        <ele>124.200000</ele>
        <time>2020-10-17T08:22:45Z</time>
      </trkpt>
      <trkpt lat="40.095367000" lon="-8.491903000">
        <ele>124.400000</ele>
        <time>2020-10-17T08:22:46Z</time>
      </trkpt>
      <trkpt lat="40.095350000" lon="-8.491894000">
        <ele>124.400000</ele>
        <time>2020-10-17T08:22:47Z</time>
      </trkpt>
      <trkpt lat="40.095333000" lon="-8.491883000">
        <ele>124.800000</ele>
        <time>2020-10-17T08:22:48Z</time>
      </trkpt>
      <trkpt lat="40.095318000" lon="-8.491870000">
        <ele>125.400000</ele>
        <time>2020-10-17T08:22:49Z</time>
      </trkpt>
      <trkpt lat="40.095303000" lon="-8.491856000">
        <ele>125.800000</ele>
        <time>2020-10-17T08:22:50Z</time>
      </trkpt>
      <trkpt lat="40.095288000" lon="-8.491841000">
        <ele>126.000000</ele>
        <time>2020-10-17T08:22:51Z</time>
      </trkpt>
      <trkpt lat="40.095275000" lon="-8.491826000">
        <ele>126.200000</ele>
        <time>2020-10-17T08:22:52Z</time>
      </trkpt>
      <trkpt lat="40.095261000" lon="-8.491809000">
        <ele>126.400000</ele>
        <time>2020-10-17T08:22:53Z</time>
      </trkpt>
      <trkpt lat="40.095247000" lon="-8.491792000">
        <ele>126.800000</ele>
        <time>2020-10-17T08:22:54Z</time>
      </trkpt>
      <trkpt lat="40.095235000" lon="-8.491774000">
        <ele>126.800000</ele>
        <time>2020-10-17T08:22:55Z</time>
      </trkpt>
      <trkpt lat="40.095223000" lon="-8.491753000">
        <ele>127.200000</ele>
        <time>2020-10-17T08:22:56Z</time>
      </trkpt>
      <trkpt lat="40.095211000" lon="-8.491731000">
        <ele>127.600000</ele>
        <time>2020-10-17T08:22:57Z</time>
      </trkpt>
      <trkpt lat="40.095199000" lon="-8.491708000">
        <ele>127.800000</ele>
        <time>2020-10-17T08:22:58Z</time>
      </trkpt>
      <trkpt lat="40.095187000" lon="-8.491688000">
        <ele>128.000000</ele>
        <time>2020-10-17T08:22:59Z</time>
      </trkpt>
      <trkpt lat="40.095174000" lon="-8.491666000">
        <ele>128.400000</ele>
        <time>2020-10-17T08:23:00Z</time>
      </trkpt>
      <trkpt lat="40.095161000" lon="-8.491643000">
        <ele>128.800000</ele>
        <time>2020-10-17T08:23:01Z</time>
      </trkpt>
      <trkpt lat="40.095151000" lon="-8.491619000">
        <ele>129.200000</ele>
        <time>2020-10-17T08:23:02Z</time>
      </trkpt>
      <trkpt lat="40.095141000" lon="-8.491595000">
        <ele>129.400000</ele>
        <time>2020-10-17T08:23:03Z</time>
      </trkpt>
      <trkpt lat="40.095132000" lon="-8.491571000">
        <ele>129.600000</ele>
        <time>2020-10-17T08:23:04Z</time>
      </trkpt>
      <trkpt lat="40.095123000" lon="-8.491546000">
        <ele>129.800000</ele>
        <time>2020-10-17T08:23:05Z</time>
      </trkpt>
      <trkpt lat="40.095112000" lon="-8.491521000">
        <ele>130.000000</ele>
        <time>2020-10-17T08:23:06Z</time>
      </trkpt>
      <trkpt lat="40.095098000" lon="-8.491495000">
        <ele>130.200000</ele>
        <time>2020-10-17T08:23:07Z</time>
      </trkpt>
      <trkpt lat="40.095084000" lon="-8.491470000">
        <ele>130.200000</ele>
        <time>2020-10-17T08:23:08Z</time>
      </trkpt>
      <trkpt lat="40.095070000" lon="-8.491448000">
        <ele>130.600000</ele>
        <time>2020-10-17T08:23:09Z</time>
      </trkpt>
      <trkpt lat="40.095058000" lon="-8.491430000">
        <ele>130.800000</ele>
        <time>2020-10-17T08:23:10Z</time>
      </trkpt>
      <trkpt lat="40.095044000" lon="-8.491412000">
        <ele>130.800000</ele>
        <time>2020-10-17T08:23:11Z</time>
      </trkpt>
      <trkpt lat="40.095031000" lon="-8.491394000">
        <ele>130.800000</ele>
        <time>2020-10-17T08:23:12Z</time>
      </trkpt>
      <trkpt lat="40.095019000" lon="-8.491376000">
        <ele>131.000000</ele>
        <time>2020-10-17T08:23:13Z</time>
      </trkpt>
      <trkpt lat="40.095007000" lon="-8.491356000">
        <ele>131.200000</ele>
        <time>2020-10-17T08:23:14Z</time>
      </trkpt>
      <trkpt lat="40.094993000" lon="-8.491338000">
        <ele>131.200000</ele>
        <time>2020-10-17T08:23:15Z</time>
      </trkpt>
      <trkpt lat="40.094978000" lon="-8.491323000">
        <ele>131.400000</ele>
        <time>2020-10-17T08:23:16Z</time>
      </trkpt>
      <trkpt lat="40.094960000" lon="-8.491306000">
        <ele>131.600000</ele>
        <time>2020-10-17T08:23:17Z</time>
      </trkpt>
      <trkpt lat="40.094942000" lon="-8.491290000">
        <ele>131.600000</ele>
        <time>2020-10-17T08:23:18Z</time>
      </trkpt>
      <trkpt lat="40.094923000" lon="-8.491276000">
        <ele>131.800000</ele>
        <time>2020-10-17T08:23:19Z</time>
      </trkpt>
      <trkpt lat="40.094903000" lon="-8.491263000">
        <ele>131.800000</ele>
        <time>2020-10-17T08:23:20Z</time>
      </trkpt>
      <trkpt lat="40.094881000" lon="-8.491250000">
        <ele>132.200000</ele>
        <time>2020-10-17T08:23:21Z</time>
      </trkpt>
      <trkpt lat="40.094858000" lon="-8.491238000">
        <ele>132.200000</ele>
        <time>2020-10-17T08:23:22Z</time>
      </trkpt>
      <trkpt lat="40.094834000" lon="-8.491231000">
        <ele>132.400000</ele>
        <time>2020-10-17T08:23:23Z</time>
      </trkpt>
      <trkpt lat="40.094810000" lon="-8.491224000">
        <ele>132.600000</ele>
        <time>2020-10-17T08:23:24Z</time>
      </trkpt>
      <trkpt lat="40.094785000" lon="-8.491215000">
        <ele>132.600000</ele>
        <time>2020-10-17T08:23:25Z</time>
      </trkpt>
      <trkpt lat="40.094762000" lon="-8.491208000">
        <ele>133.000000</ele>
        <time>2020-10-17T08:23:26Z</time>
      </trkpt>
      <trkpt lat="40.094739000" lon="-8.491203000">
        <ele>133.200000</ele>
        <time>2020-10-17T08:23:27Z</time>
      </trkpt>
      <trkpt lat="40.094717000" lon="-8.491197000">
        <ele>133.200000</ele>
        <time>2020-10-17T08:23:28Z</time>
      </trkpt>
      <trkpt lat="40.094695000" lon="-8.491194000">
        <ele>133.600000</ele>
        <time>2020-10-17T08:23:29Z</time>
      </trkpt>
      <trkpt lat="40.094672000" lon="-8.491191000">
        <ele>134.000000</ele>
        <time>2020-10-17T08:23:30Z</time>
      </trkpt>
      <trkpt lat="40.094649000" lon="-8.491187000">
        <ele>134.000000</ele>
        <time>2020-10-17T08:23:31Z</time>
      </trkpt>
      <trkpt lat="40.094627000" lon="-8.491184000">
        <ele>134.200000</ele>
        <time>2020-10-17T08:23:32Z</time>
      </trkpt>
      <trkpt lat="40.094604000" lon="-8.491181000">
        <ele>134.400000</ele>
        <time>2020-10-17T08:23:33Z</time>
      </trkpt>
      <trkpt lat="40.094580000" lon="-8.491179000">
        <ele>134.400000</ele>
        <time>2020-10-17T08:23:34Z</time>
      </trkpt>
      <trkpt lat="40.094557000" lon="-8.491176000">
        <ele>134.800000</ele>
        <time>2020-10-17T08:23:35Z</time>
      </trkpt>
      <trkpt lat="40.094534000" lon="-8.491174000">
        <ele>135.000000</ele>
        <time>2020-10-17T08:23:36Z</time>
      </trkpt>
      <trkpt lat="40.094511000" lon="-8.491174000">
        <ele>135.000000</ele>
        <time>2020-10-17T08:23:37Z</time>
      </trkpt>
      <trkpt lat="40.094489000" lon="-8.491175000">
        <ele>135.200000</ele>
        <time>2020-10-17T08:23:38Z</time>
      </trkpt>
      <trkpt lat="40.094465000" lon="-8.491175000">
        <ele>135.200000</ele>
        <time>2020-10-17T08:23:39Z</time>
      </trkpt>
      <trkpt lat="40.094442000" lon="-8.491172000">
        <ele>135.400000</ele>
        <time>2020-10-17T08:23:40Z</time>
      </trkpt>
      <trkpt lat="40.094420000" lon="-8.491169000">
        <ele>135.400000</ele>
        <time>2020-10-17T08:23:41Z</time>
      </trkpt>
      <trkpt lat="40.094396000" lon="-8.491165000">
        <ele>135.800000</ele>
        <time>2020-10-17T08:23:42Z</time>
      </trkpt>
      <trkpt lat="40.094371000" lon="-8.491159000">
        <ele>135.800000</ele>
        <time>2020-10-17T08:23:43Z</time>
      </trkpt>
      <trkpt lat="40.094350000" lon="-8.491151000">
        <ele>136.000000</ele>
        <time>2020-10-17T08:23:44Z</time>
      </trkpt>
      <trkpt lat="40.094332000" lon="-8.491139000">
        <ele>136.200000</ele>
        <time>2020-10-17T08:23:45Z</time>
      </trkpt>
      <trkpt lat="40.094311000" lon="-8.491122000">
        <ele>136.600000</ele>
        <time>2020-10-17T08:23:46Z</time>
      </trkpt>
      <trkpt lat="40.094294000" lon="-8.491104000">
        <ele>136.800000</ele>
        <time>2020-10-17T08:23:47Z</time>
      </trkpt>
      <trkpt lat="40.094276000" lon="-8.491087000">
        <ele>136.800000</ele>
        <time>2020-10-17T08:23:48Z</time>
      </trkpt>
      <trkpt lat="40.094255000" lon="-8.491069000">
        <ele>137.200000</ele>
        <time>2020-10-17T08:23:49Z</time>
      </trkpt>
      <trkpt lat="40.094232000" lon="-8.491054000">
        <ele>137.600000</ele>
        <time>2020-10-17T08:23:50Z</time>
      </trkpt>
      <trkpt lat="40.094208000" lon="-8.491044000">
        <ele>137.800000</ele>
        <time>2020-10-17T08:23:51Z</time>
      </trkpt>
      <trkpt lat="40.094184000" lon="-8.491040000">
        <ele>138.000000</ele>
        <time>2020-10-17T08:23:52Z</time>
      </trkpt>
      <trkpt lat="40.094165000" lon="-8.491039000">
        <ele>138.200000</ele>
        <time>2020-10-17T08:23:53Z</time>
      </trkpt>
      <trkpt lat="40.094145000" lon="-8.491046000">
        <ele>138.800000</ele>
        <time>2020-10-17T08:23:54Z</time>
      </trkpt>
      <trkpt lat="40.094125000" lon="-8.491057000">
        <ele>139.000000</ele>
        <time>2020-10-17T08:23:55Z</time>
      </trkpt>
      <trkpt lat="40.094106000" lon="-8.491067000">
        <ele>139.200000</ele>
        <time>2020-10-17T08:23:56Z</time>
      </trkpt>
      <trkpt lat="40.094082000" lon="-8.491076000">
        <ele>139.400000</ele>
        <time>2020-10-17T08:23:57Z</time>
      </trkpt>
      <trkpt lat="40.094060000" lon="-8.491087000">
        <ele>139.600000</ele>
        <time>2020-10-17T08:23:58Z</time>
      </trkpt>
      <trkpt lat="40.094039000" lon="-8.491096000">
        <ele>139.800000</ele>
        <time>2020-10-17T08:23:59Z</time>
      </trkpt>
      <trkpt lat="40.094017000" lon="-8.491105000">
        <ele>139.800000</ele>
        <time>2020-10-17T08:24:00Z</time>
      </trkpt>
      <trkpt lat="40.093991000" lon="-8.491113000">
        <ele>140.000000</ele>
        <time>2020-10-17T08:24:01Z</time>
      </trkpt>
      <trkpt lat="40.093964000" lon="-8.491121000">
        <ele>140.200000</ele>
        <time>2020-10-17T08:24:02Z</time>
      </trkpt>
      <trkpt lat="40.093936000" lon="-8.491128000">
        <ele>140.200000</ele>
        <time>2020-10-17T08:24:03Z</time>
      </trkpt>
      <trkpt lat="40.093910000" lon="-8.491128000">
        <ele>140.400000</ele>
        <time>2020-10-17T08:24:04Z</time>
      </trkpt>
      <trkpt lat="40.093885000" lon="-8.491121000">
        <ele>140.600000</ele>
        <time>2020-10-17T08:24:05Z</time>
      </trkpt>
      <trkpt lat="40.093860000" lon="-8.491114000">
        <ele>140.600000</ele>
        <time>2020-10-17T08:24:06Z</time>
      </trkpt>
      <trkpt lat="40.093837000" lon="-8.491106000">
        <ele>141.000000</ele>
        <time>2020-10-17T08:24:07Z</time>
      </trkpt>
      <trkpt lat="40.093817000" lon="-8.491094000">
        <ele>141.200000</ele>
        <time>2020-10-17T08:24:08Z</time>
      </trkpt>
      <trkpt lat="40.093797000" lon="-8.491077000">
        <ele>141.200000</ele>
        <time>2020-10-17T08:24:09Z</time>
      </trkpt>
      <trkpt lat="40.093775000" lon="-8.491061000">
        <ele>141.400000</ele>
        <time>2020-10-17T08:24:10Z</time>
      </trkpt>
      <trkpt lat="40.093754000" lon="-8.491047000">
        <ele>141.800000</ele>
        <time>2020-10-17T08:24:11Z</time>
      </trkpt>
      <trkpt lat="40.093734000" lon="-8.491034000">
        <ele>142.000000</ele>
        <time>2020-10-17T08:24:12Z</time>
      </trkpt>
      <trkpt lat="40.093713000" lon="-8.491019000">
        <ele>142.400000</ele>
        <time>2020-10-17T08:24:13Z</time>
      </trkpt>
      <trkpt lat="40.093695000" lon="-8.491002000">
        <ele>142.800000</ele>
        <time>2020-10-17T08:24:14Z</time>
      </trkpt>
      <trkpt lat="40.093674000" lon="-8.490985000">
        <ele>142.800000</ele>
        <time>2020-10-17T08:24:15Z</time>
      </trkpt>
      <trkpt lat="40.093655000" lon="-8.490972000">
        <ele>143.000000</ele>
        <time>2020-10-17T08:24:16Z</time>
      </trkpt>
      <trkpt lat="40.093633000" lon="-8.490959000">
        <ele>143.000000</ele>
        <time>2020-10-17T08:24:17Z</time>
      </trkpt>
      <trkpt lat="40.093610000" lon="-8.490947000">
        <ele>143.400000</ele>
        <time>2020-10-17T08:24:18Z</time>
      </trkpt>
      <trkpt lat="40.093589000" lon="-8.490936000">
        <ele>143.800000</ele>
        <time>2020-10-17T08:24:19Z</time>
      </trkpt>
      <trkpt lat="40.093570000" lon="-8.490926000">
        <ele>144.200000</ele>
        <time>2020-10-17T08:24:20Z</time>
      </trkpt>
      <trkpt lat="40.093552000" lon="-8.490910000">
        <ele>144.200000</ele>
        <time>2020-10-17T08:24:21Z</time>
      </trkpt>
      <trkpt lat="40.093532000" lon="-8.490894000">
        <ele>144.200000</ele>
        <time>2020-10-17T08:24:22Z</time>
      </trkpt>
      <trkpt lat="40.093512000" lon="-8.490881000">
        <ele>144.800000</ele>
        <time>2020-10-17T08:24:23Z</time>
      </trkpt>
      <trkpt lat="40.093492000" lon="-8.490869000">
        <ele>145.200000</ele>
        <time>2020-10-17T08:24:24Z</time>
      </trkpt>
      <trkpt lat="40.093474000" lon="-8.490858000">
        <ele>145.400000</ele>
        <time>2020-10-17T08:24:25Z</time>
      </trkpt>
      <trkpt lat="40.093455000" lon="-8.490849000">
        <ele>145.600000</ele>
        <time>2020-10-17T08:24:26Z</time>
      </trkpt>
      <trkpt lat="40.093438000" lon="-8.490840000">
        <ele>146.200000</ele>
        <time>2020-10-17T08:24:27Z</time>
      </trkpt>
      <trkpt lat="40.093422000" lon="-8.490832000">
        <ele>146.400000</ele>
        <time>2020-10-17T08:24:28Z</time>
      </trkpt>
      <trkpt lat="40.093407000" lon="-8.490825000">
        <ele>146.400000</ele>
        <time>2020-10-17T08:24:29Z</time>
      </trkpt>
      <trkpt lat="40.093394000" lon="-8.490817000">
        <ele>146.600000</ele>
        <time>2020-10-17T08:24:30Z</time>
      </trkpt>
      <trkpt lat="40.093385000" lon="-8.490814000">
        <ele>146.800000</ele>
        <time>2020-10-17T08:24:31Z</time>
      </trkpt>
      <trkpt lat="40.093375000" lon="-8.490810000">
        <ele>147.600000</ele>
        <time>2020-10-17T08:24:33Z</time>
      </trkpt>
      <trkpt lat="40.093321000" lon="-8.490719000">
        <ele>148.400000</ele>
        <time>2020-10-17T08:25:32Z</time>
      </trkpt>
      <trkpt lat="40.093309000" lon="-8.490692000">
        <ele>148.400000</ele>
        <time>2020-10-17T08:25:33Z</time>
      </trkpt>
      <trkpt lat="40.093212000" lon="-8.490526000">
        <ele>149.000000</ele>
        <time>2020-10-17T08:25:38Z</time>
      </trkpt>
      <trkpt lat="40.093148000" lon="-8.490413000">
        <ele>149.200000</ele>
        <time>2020-10-17T08:25:41Z</time>
      </trkpt>
      <trkpt lat="40.093021000" lon="-8.490221000">
        <ele>149.600000</ele>
        <time>2020-10-17T08:25:46Z</time>
      </trkpt>
      <trkpt lat="40.092995000" lon="-8.490182000">
        <ele>149.600000</ele>
        <time>2020-10-17T08:25:47Z</time>
      </trkpt>
      <trkpt lat="40.092873000" lon="-8.490032000">
        <ele>150.200000</ele>
        <time>2020-10-17T08:25:51Z</time>
      </trkpt>
      <trkpt lat="40.092839000" lon="-8.490000000">
        <ele>150.200000</ele>
        <time>2020-10-17T08:25:52Z</time>
      </trkpt>
      <trkpt lat="40.092806000" lon="-8.489974000">
        <ele>150.400000</ele>
        <time>2020-10-17T08:25:53Z</time>
      </trkpt>
      <trkpt lat="40.092772000" lon="-8.489953000">
        <ele>150.400000</ele>
        <time>2020-10-17T08:25:54Z</time>
      </trkpt>
      <trkpt lat="40.092736000" lon="-8.489935000">
        <ele>150.800000</ele>
        <time>2020-10-17T08:25:55Z</time>
      </trkpt>
      <trkpt lat="40.092699000" lon="-8.489917000">
        <ele>150.800000</ele>
        <time>2020-10-17T08:25:56Z</time>
      </trkpt>
      <trkpt lat="40.092660000" lon="-8.489900000">
        <ele>151.200000</ele>
        <time>2020-10-17T08:25:57Z</time>
      </trkpt>
      <trkpt lat="40.092620000" lon="-8.489883000">
        <ele>151.200000</ele>
        <time>2020-10-17T08:25:58Z</time>
      </trkpt>
      <trkpt lat="40.092580000" lon="-8.489866000">
        <ele>151.400000</ele>
        <time>2020-10-17T08:25:59Z</time>
      </trkpt>
      <trkpt lat="40.092542000" lon="-8.489846000">
        <ele>151.400000</ele>
        <time>2020-10-17T08:26:00Z</time>
      </trkpt>
      <trkpt lat="40.092504000" lon="-8.489830000">
        <ele>151.600000</ele>
        <time>2020-10-17T08:26:01Z</time>
      </trkpt>
      <trkpt lat="40.092463000" lon="-8.489816000">
        <ele>151.800000</ele>
        <time>2020-10-17T08:26:02Z</time>
      </trkpt>
      <trkpt lat="40.092419000" lon="-8.489805000">
        <ele>152.200000</ele>
        <time>2020-10-17T08:26:03Z</time>
      </trkpt>
      <trkpt lat="40.092373000" lon="-8.489801000">
        <ele>152.600000</ele>
        <time>2020-10-17T08:26:04Z</time>
      </trkpt>
      <trkpt lat="40.092328000" lon="-8.489800000">
        <ele>153.200000</ele>
        <time>2020-10-17T08:26:05Z</time>
      </trkpt>
      <trkpt lat="40.092285000" lon="-8.489796000">
        <ele>153.400000</ele>
        <time>2020-10-17T08:26:06Z</time>
      </trkpt>
      <trkpt lat="40.092245000" lon="-8.489782000">
        <ele>153.800000</ele>
        <time>2020-10-17T08:26:07Z</time>
      </trkpt>
      <trkpt lat="40.092210000" lon="-8.489757000">
        <ele>154.000000</ele>
        <time>2020-10-17T08:26:08Z</time>
      </trkpt>
      <trkpt lat="40.092180000" lon="-8.489723000">
        <ele>154.000000</ele>
        <time>2020-10-17T08:26:09Z</time>
      </trkpt>
      <trkpt lat="40.092153000" lon="-8.489682000">
        <ele>154.000000</ele>
        <time>2020-10-17T08:26:10Z</time>
      </trkpt>
      <trkpt lat="40.092130000" lon="-8.489636000">
        <ele>154.000000</ele>
        <time>2020-10-17T08:26:11Z</time>
      </trkpt>
      <trkpt lat="40.092109000" lon="-8.489593000">
        <ele>154.200000</ele>
        <time>2020-10-17T08:26:12Z</time>
      </trkpt>
      <trkpt lat="40.092087000" lon="-8.489550000">
        <ele>154.200000</ele>
        <time>2020-10-17T08:26:13Z</time>
      </trkpt>
      <trkpt lat="40.092063000" lon="-8.489507000">
        <ele>154.600000</ele>
        <time>2020-10-17T08:26:14Z</time>
      </trkpt>
      <trkpt lat="40.092036000" lon="-8.489467000">
        <ele>155.000000</ele>
        <time>2020-10-17T08:26:15Z</time>
      </trkpt>
      <trkpt lat="40.092008000" lon="-8.489429000">
        <ele>155.400000</ele>
        <time>2020-10-17T08:26:16Z</time>
      </trkpt>
      <trkpt lat="40.091980000" lon="-8.489391000">
        <ele>156.000000</ele>
        <time>2020-10-17T08:26:17Z</time>
      </trkpt>
      <trkpt lat="40.091955000" lon="-8.489349000">
        <ele>156.400000</ele>
        <time>2020-10-17T08:26:18Z</time>
      </trkpt>
      <trkpt lat="40.091930000" lon="-8.489306000">
        <ele>156.600000</ele>
        <time>2020-10-17T08:26:19Z</time>
      </trkpt>
      <trkpt lat="40.091908000" lon="-8.489264000">
        <ele>156.800000</ele>
        <time>2020-10-17T08:26:20Z</time>
      </trkpt>
      <trkpt lat="40.091885000" lon="-8.489223000">
        <ele>156.800000</ele>
        <time>2020-10-17T08:26:21Z</time>
      </trkpt>
      <trkpt lat="40.091863000" lon="-8.489187000">
        <ele>157.000000</ele>
        <time>2020-10-17T08:26:22Z</time>
      </trkpt>
      <trkpt lat="40.091841000" lon="-8.489153000">
        <ele>157.000000</ele>
        <time>2020-10-17T08:26:23Z</time>
      </trkpt>
      <trkpt lat="40.091817000" lon="-8.489123000">
        <ele>157.400000</ele>
        <time>2020-10-17T08:26:24Z</time>
      </trkpt>
      <trkpt lat="40.091792000" lon="-8.489095000">
        <ele>157.400000</ele>
        <time>2020-10-17T08:26:25Z</time>
      </trkpt>
      <trkpt lat="40.091768000" lon="-8.489070000">
        <ele>157.400000</ele>
        <time>2020-10-17T08:26:26Z</time>
      </trkpt>
      <trkpt lat="40.091746000" lon="-8.489048000">
        <ele>157.600000</ele>
        <time>2020-10-17T08:26:27Z</time>
      </trkpt>
      <trkpt lat="40.091726000" lon="-8.489026000">
        <ele>157.600000</ele>
        <time>2020-10-17T08:26:28Z</time>
      </trkpt>
      <trkpt lat="40.091706000" lon="-8.489004000">
        <ele>157.600000</ele>
        <time>2020-10-17T08:26:29Z</time>
      </trkpt>
      <trkpt lat="40.091684000" lon="-8.488981000">
        <ele>157.800000</ele>
        <time>2020-10-17T08:26:30Z</time>
      </trkpt>
      <trkpt lat="40.091664000" lon="-8.488960000">
        <ele>158.000000</ele>
        <time>2020-10-17T08:26:31Z</time>
      </trkpt>
      <trkpt lat="40.091646000" lon="-8.488937000">
        <ele>158.000000</ele>
        <time>2020-10-17T08:26:32Z</time>
      </trkpt>
      <trkpt lat="40.091628000" lon="-8.488911000">
        <ele>158.200000</ele>
        <time>2020-10-17T08:26:33Z</time>
      </trkpt>
      <trkpt lat="40.091609000" lon="-8.488886000">
        <ele>158.600000</ele>
        <time>2020-10-17T08:26:34Z</time>
      </trkpt>
      <trkpt lat="40.091587000" lon="-8.488860000">
        <ele>158.800000</ele>
        <time>2020-10-17T08:26:35Z</time>
      </trkpt>
      <trkpt lat="40.091565000" lon="-8.488837000">
        <ele>159.000000</ele>
        <time>2020-10-17T08:26:36Z</time>
      </trkpt>
      <trkpt lat="40.091542000" lon="-8.488816000">
        <ele>159.400000</ele>
        <time>2020-10-17T08:26:37Z</time>
      </trkpt>
      <trkpt lat="40.091518000" lon="-8.488797000">
        <ele>159.600000</ele>
        <time>2020-10-17T08:26:38Z</time>
      </trkpt>
      <trkpt lat="40.091495000" lon="-8.488775000">
        <ele>160.000000</ele>
        <time>2020-10-17T08:26:39Z</time>
      </trkpt>
      <trkpt lat="40.091471000" lon="-8.488751000">
        <ele>160.200000</ele>
        <time>2020-10-17T08:26:40Z</time>
      </trkpt>
      <trkpt lat="40.091448000" lon="-8.488726000">
        <ele>160.400000</ele>
        <time>2020-10-17T08:26:41Z</time>
      </trkpt>
      <trkpt lat="40.091429000" lon="-8.488697000">
        <ele>160.400000</ele>
        <time>2020-10-17T08:26:42Z</time>
      </trkpt>
      <trkpt lat="40.091415000" lon="-8.488670000">
        <ele>161.000000</ele>
        <time>2020-10-17T08:26:43Z</time>
      </trkpt>
      <trkpt lat="40.091405000" lon="-8.488639000">
        <ele>161.200000</ele>
        <time>2020-10-17T08:26:44Z</time>
      </trkpt>
      <trkpt lat="40.091395000" lon="-8.488609000">
        <ele>161.600000</ele>
        <time>2020-10-17T08:26:45Z</time>
      </trkpt>
      <trkpt lat="40.091390000" lon="-8.488577000">
        <ele>161.800000</ele>
        <time>2020-10-17T08:26:46Z</time>
      </trkpt>
      <trkpt lat="40.091383000" lon="-8.488543000">
        <ele>162.000000</ele>
        <time>2020-10-17T08:26:47Z</time>
      </trkpt>
      <trkpt lat="40.091374000" lon="-8.488510000">
        <ele>162.400000</ele>
        <time>2020-10-17T08:26:48Z</time>
      </trkpt>
      <trkpt lat="40.091364000" lon="-8.488477000">
        <ele>162.400000</ele>
        <time>2020-10-17T08:26:49Z</time>
      </trkpt>
      <trkpt lat="40.091354000" lon="-8.488438000">
        <ele>163.000000</ele>
        <time>2020-10-17T08:26:50Z</time>
      </trkpt>
      <trkpt lat="40.091345000" lon="-8.488400000">
        <ele>163.400000</ele>
        <time>2020-10-17T08:26:51Z</time>
      </trkpt>
      <trkpt lat="40.091332000" lon="-8.488362000">
        <ele>163.400000</ele>
        <time>2020-10-17T08:26:52Z</time>
      </trkpt>
      <trkpt lat="40.091318000" lon="-8.488323000">
        <ele>163.600000</ele>
        <time>2020-10-17T08:26:53Z</time>
      </trkpt>
      <trkpt lat="40.091304000" lon="-8.488284000">
        <ele>164.000000</ele>
        <time>2020-10-17T08:26:54Z</time>
      </trkpt>
      <trkpt lat="40.091291000" lon="-8.488246000">
        <ele>164.200000</ele>
        <time>2020-10-17T08:26:55Z</time>
      </trkpt>
      <trkpt lat="40.091276000" lon="-8.488209000">
        <ele>164.400000</ele>
        <time>2020-10-17T08:26:56Z</time>
      </trkpt>
      <trkpt lat="40.091259000" lon="-8.488170000">
        <ele>164.600000</ele>
        <time>2020-10-17T08:26:57Z</time>
      </trkpt>
      <trkpt lat="40.091242000" lon="-8.488125000">
        <ele>165.000000</ele>
        <time>2020-10-17T08:26:58Z</time>
      </trkpt>
      <trkpt lat="40.091224000" lon="-8.488076000">
        <ele>165.000000</ele>
        <time>2020-10-17T08:26:59Z</time>
      </trkpt>
      <trkpt lat="40.091200000" lon="-8.488022000">
        <ele>165.200000</ele>
        <time>2020-10-17T08:27:00Z</time>
      </trkpt>
      <trkpt lat="40.091173000" lon="-8.487967000">
        <ele>165.200000</ele>
        <time>2020-10-17T08:27:01Z</time>
      </trkpt>
      <trkpt lat="40.091146000" lon="-8.487912000">
        <ele>165.200000</ele>
        <time>2020-10-17T08:27:02Z</time>
      </trkpt>
      <trkpt lat="40.091119000" lon="-8.487865000">
        <ele>165.200000</ele>
        <time>2020-10-17T08:27:03Z</time>
      </trkpt>
      <trkpt lat="40.091087000" lon="-8.487818000">
        <ele>165.400000</ele>
        <time>2020-10-17T08:27:04Z</time>
      </trkpt>
      <trkpt lat="40.091049000" lon="-8.487783000">
        <ele>165.200000</ele>
        <time>2020-10-17T08:27:05Z</time>
      </trkpt>
      <trkpt lat="40.091005000" lon="-8.487753000">
        <ele>165.200000</ele>
        <time>2020-10-17T08:27:06Z</time>
      </trkpt>
      <trkpt lat="40.090959000" lon="-8.487725000">
        <ele>165.400000</ele>
        <time>2020-10-17T08:27:07Z</time>
      </trkpt>
      <trkpt lat="40.090864000" lon="-8.487679000">
        <ele>165.000000</ele>
        <time>2020-10-17T08:27:09Z</time>
      </trkpt>
      <trkpt lat="40.090668000" lon="-8.487595000">
        <ele>164.400000</ele>
        <time>2020-10-17T08:27:13Z</time>
      </trkpt>
      <trkpt lat="40.090626000" lon="-8.487566000">
        <ele>164.200000</ele>
        <time>2020-10-17T08:27:14Z</time>
      </trkpt>
      <trkpt lat="40.090585000" lon="-8.487531000">
        <ele>164.200000</ele>
        <time>2020-10-17T08:27:15Z</time>
      </trkpt>
      <trkpt lat="40.090496000" lon="-8.487468000">
        <ele>164.000000</ele>
        <time>2020-10-17T08:27:17Z</time>
      </trkpt>
      <trkpt lat="40.090451000" lon="-8.487445000">
        <ele>164.000000</ele>
        <time>2020-10-17T08:27:18Z</time>
      </trkpt>
      <trkpt lat="40.090408000" lon="-8.487425000">
        <ele>164.000000</ele>
        <time>2020-10-17T08:27:19Z</time>
      </trkpt>
      <trkpt lat="40.090365000" lon="-8.487410000">
        <ele>164.000000</ele>
        <time>2020-10-17T08:27:20Z</time>
      </trkpt>
      <trkpt lat="40.090323000" lon="-8.487396000">
        <ele>164.000000</ele>
        <time>2020-10-17T08:27:21Z</time>
      </trkpt>
      <trkpt lat="40.090281000" lon="-8.487390000">
        <ele>164.000000</ele>
        <time>2020-10-17T08:27:22Z</time>
      </trkpt>
      <trkpt lat="40.090241000" lon="-8.487389000">
        <ele>164.000000</ele>
        <time>2020-10-17T08:27:23Z</time>
      </trkpt>
      <trkpt lat="40.090202000" lon="-8.487386000">
        <ele>164.000000</ele>
        <time>2020-10-17T08:27:24Z</time>
      </trkpt>
      <trkpt lat="40.090163000" lon="-8.487381000">
        <ele>164.000000</ele>
        <time>2020-10-17T08:27:25Z</time>
      </trkpt>
      <trkpt lat="40.090123000" lon="-8.487375000">
        <ele>163.800000</ele>
        <time>2020-10-17T08:27:26Z</time>
      </trkpt>
      <trkpt lat="40.090042000" lon="-8.487364000">
        <ele>164.400000</ele>
        <time>2020-10-17T08:27:28Z</time>
      </trkpt>
      <trkpt lat="40.090006000" lon="-8.487357000">
        <ele>164.600000</ele>
        <time>2020-10-17T08:27:29Z</time>
      </trkpt>
      <trkpt lat="40.089929000" lon="-8.487334000">
        <ele>165.000000</ele>
        <time>2020-10-17T08:27:31Z</time>
      </trkpt>
      <trkpt lat="40.089852000" lon="-8.487301000">
        <ele>165.200000</ele>
        <time>2020-10-17T08:27:33Z</time>
      </trkpt>
      <trkpt lat="40.089812000" lon="-8.487283000">
        <ele>165.200000</ele>
        <time>2020-10-17T08:27:34Z</time>
      </trkpt>
      <trkpt lat="40.089771000" lon="-8.487261000">
        <ele>165.400000</ele>
        <time>2020-10-17T08:27:35Z</time>
      </trkpt>
      <trkpt lat="40.089728000" lon="-8.487240000">
        <ele>165.400000</ele>
        <time>2020-10-17T08:27:36Z</time>
      </trkpt>
      <trkpt lat="40.089686000" lon="-8.487216000">
        <ele>165.800000</ele>
        <time>2020-10-17T08:27:37Z</time>
      </trkpt>
      <trkpt lat="40.089644000" lon="-8.487192000">
        <ele>166.000000</ele>
        <time>2020-10-17T08:27:38Z</time>
      </trkpt>
      <trkpt lat="40.089603000" lon="-8.487169000">
        <ele>166.200000</ele>
        <time>2020-10-17T08:27:39Z</time>
      </trkpt>
      <trkpt lat="40.089564000" lon="-8.487144000">
        <ele>166.400000</ele>
        <time>2020-10-17T08:27:40Z</time>
      </trkpt>
      <trkpt lat="40.089524000" lon="-8.487119000">
        <ele>166.600000</ele>
        <time>2020-10-17T08:27:41Z</time>
      </trkpt>
      <trkpt lat="40.089485000" lon="-8.487095000">
        <ele>166.600000</ele>
        <time>2020-10-17T08:27:42Z</time>
      </trkpt>
      <trkpt lat="40.089446000" lon="-8.487072000">
        <ele>166.800000</ele>
        <time>2020-10-17T08:27:43Z</time>
      </trkpt>
      <trkpt lat="40.089411000" lon="-8.487050000">
        <ele>167.000000</ele>
        <time>2020-10-17T08:27:44Z</time>
      </trkpt>
      <trkpt lat="40.089377000" lon="-8.487028000">
        <ele>167.000000</ele>
        <time>2020-10-17T08:27:45Z</time>
      </trkpt>
      <trkpt lat="40.089343000" lon="-8.487006000">
        <ele>167.200000</ele>
        <time>2020-10-17T08:27:46Z</time>
      </trkpt>
      <trkpt lat="40.089310000" lon="-8.486984000">
        <ele>167.000000</ele>
        <time>2020-10-17T08:27:47Z</time>
      </trkpt>
      <trkpt lat="40.089159000" lon="-8.486903000">
        <ele>167.000000</ele>
        <time>2020-10-17T08:27:51Z</time>
      </trkpt>
      <trkpt lat="40.089078000" lon="-8.486854000">
        <ele>167.400000</ele>
        <time>2020-10-17T08:27:53Z</time>
      </trkpt>
      <trkpt lat="40.088860000" lon="-8.486721000">
        <ele>167.400000</ele>
        <time>2020-10-17T08:27:58Z</time>
      </trkpt>
      <trkpt lat="40.088767000" lon="-8.486670000">
        <ele>167.200000</ele>
        <time>2020-10-17T08:28:00Z</time>
      </trkpt>
      <trkpt lat="40.088721000" lon="-8.486648000">
        <ele>167.200000</ele>
        <time>2020-10-17T08:28:01Z</time>
      </trkpt>
      <trkpt lat="40.088576000" lon="-8.486560000">
        <ele>167.400000</ele>
        <time>2020-10-17T08:28:04Z</time>
      </trkpt>
      <trkpt lat="40.088525000" lon="-8.486525000">
        <ele>167.200000</ele>
        <time>2020-10-17T08:28:05Z</time>
      </trkpt>
      <trkpt lat="40.088420000" lon="-8.486460000">
        <ele>167.200000</ele>
        <time>2020-10-17T08:28:07Z</time>
      </trkpt>
      <trkpt lat="40.088313000" lon="-8.486403000">
        <ele>167.200000</ele>
        <time>2020-10-17T08:28:09Z</time>
      </trkpt>
      <trkpt lat="40.088259000" lon="-8.486374000">
        <ele>167.000000</ele>
        <time>2020-10-17T08:28:10Z</time>
      </trkpt>
      <trkpt lat="40.088207000" lon="-8.486351000">
        <ele>167.200000</ele>
        <time>2020-10-17T08:28:11Z</time>
      </trkpt>
      <trkpt lat="40.087989000" lon="-8.486275000">
        <ele>167.000000</ele>
        <time>2020-10-17T08:28:15Z</time>
      </trkpt>
      <trkpt lat="40.087878000" lon="-8.486232000">
        <ele>166.800000</ele>
        <time>2020-10-17T08:28:17Z</time>
      </trkpt>
      <trkpt lat="40.087827000" lon="-8.486208000">
        <ele>167.000000</ele>
        <time>2020-10-17T08:28:18Z</time>
      </trkpt>
      <trkpt lat="40.087773000" lon="-8.486179000">
        <ele>166.600000</ele>
        <time>2020-10-17T08:28:19Z</time>
      </trkpt>
      <trkpt lat="40.087534000" lon="-8.486010000">
        <ele>166.400000</ele>
        <time>2020-10-17T08:28:23Z</time>
      </trkpt>
      <trkpt lat="40.087419000" lon="-8.485903000">
        <ele>166.200000</ele>
        <time>2020-10-17T08:28:25Z</time>
      </trkpt>
      <trkpt lat="40.087305000" lon="-8.485788000">
        <ele>165.800000</ele>
        <time>2020-10-17T08:28:27Z</time>
      </trkpt>
      <trkpt lat="40.087253000" lon="-8.485722000">
        <ele>165.000000</ele>
        <time>2020-10-17T08:28:28Z</time>
      </trkpt>
      <trkpt lat="40.087201000" lon="-8.485646000">
        <ele>164.600000</ele>
        <time>2020-10-17T08:28:29Z</time>
      </trkpt>
      <trkpt lat="40.087150000" lon="-8.485571000">
        <ele>164.000000</ele>
        <time>2020-10-17T08:28:30Z</time>
      </trkpt>
      <trkpt lat="40.087037000" lon="-8.485426000">
        <ele>163.200000</ele>
        <time>2020-10-17T08:28:32Z</time>
      </trkpt>
      <trkpt lat="40.086972000" lon="-8.485360000">
        <ele>163.200000</ele>
        <time>2020-10-17T08:28:33Z</time>
      </trkpt>
      <trkpt lat="40.086905000" lon="-8.485298000">
        <ele>162.800000</ele>
        <time>2020-10-17T08:28:34Z</time>
      </trkpt>
      <trkpt lat="40.086844000" lon="-8.485234000">
        <ele>162.400000</ele>
        <time>2020-10-17T08:28:35Z</time>
      </trkpt>
      <trkpt lat="40.086787000" lon="-8.485164000">
        <ele>162.000000</ele>
        <time>2020-10-17T08:28:36Z</time>
      </trkpt>
      <trkpt lat="40.086735000" lon="-8.485089000">
        <ele>161.400000</ele>
        <time>2020-10-17T08:28:37Z</time>
      </trkpt>
      <trkpt lat="40.086688000" lon="-8.485010000">
        <ele>161.000000</ele>
        <time>2020-10-17T08:28:38Z</time>
      </trkpt>
      <trkpt lat="40.086644000" lon="-8.484925000">
        <ele>160.800000</ele>
        <time>2020-10-17T08:28:39Z</time>
      </trkpt>
      <trkpt lat="40.086602000" lon="-8.484838000">
        <ele>160.200000</ele>
        <time>2020-10-17T08:28:40Z</time>
      </trkpt>
      <trkpt lat="40.086560000" lon="-8.484751000">
        <ele>159.600000</ele>
        <time>2020-10-17T08:28:41Z</time>
      </trkpt>
      <trkpt lat="40.086514000" lon="-8.484670000">
        <ele>158.800000</ele>
        <time>2020-10-17T08:28:42Z</time>
      </trkpt>
      <trkpt lat="40.086463000" lon="-8.484594000">
        <ele>158.200000</ele>
        <time>2020-10-17T08:28:43Z</time>
      </trkpt>
      <trkpt lat="40.086409000" lon="-8.484522000">
        <ele>157.600000</ele>
        <time>2020-10-17T08:28:44Z</time>
      </trkpt>
      <trkpt lat="40.086357000" lon="-8.484451000">
        <ele>157.200000</ele>
        <time>2020-10-17T08:28:45Z</time>
      </trkpt>
      <trkpt lat="40.086309000" lon="-8.484378000">
        <ele>157.000000</ele>
        <time>2020-10-17T08:28:46Z</time>
      </trkpt>
      <trkpt lat="40.086265000" lon="-8.484304000">
        <ele>156.800000</ele>
        <time>2020-10-17T08:28:47Z</time>
      </trkpt>
      <trkpt lat="40.086223000" lon="-8.484229000">
        <ele>156.400000</ele>
        <time>2020-10-17T08:28:48Z</time>
      </trkpt>
      <trkpt lat="40.086184000" lon="-8.484153000">
        <ele>156.000000</ele>
        <time>2020-10-17T08:28:49Z</time>
      </trkpt>
      <trkpt lat="40.086146000" lon="-8.484078000">
        <ele>155.200000</ele>
        <time>2020-10-17T08:28:50Z</time>
      </trkpt>
      <trkpt lat="40.086111000" lon="-8.484005000">
        <ele>154.800000</ele>
        <time>2020-10-17T08:28:51Z</time>
      </trkpt>
      <trkpt lat="40.086077000" lon="-8.483939000">
        <ele>154.600000</ele>
        <time>2020-10-17T08:28:52Z</time>
      </trkpt>
      <trkpt lat="40.086044000" lon="-8.483881000">
        <ele>154.000000</ele>
        <time>2020-10-17T08:28:53Z</time>
      </trkpt>
      <trkpt lat="40.086011000" lon="-8.483826000">
        <ele>154.000000</ele>
        <time>2020-10-17T08:28:54Z</time>
      </trkpt>
      <trkpt lat="40.085977000" lon="-8.483774000">
        <ele>153.600000</ele>
        <time>2020-10-17T08:28:55Z</time>
      </trkpt>
      <trkpt lat="40.085945000" lon="-8.483724000">
        <ele>153.600000</ele>
        <time>2020-10-17T08:28:56Z</time>
      </trkpt>
      <trkpt lat="40.085914000" lon="-8.483674000">
        <ele>153.400000</ele>
        <time>2020-10-17T08:28:57Z</time>
      </trkpt>
      <trkpt lat="40.085802000" lon="-8.483542000">
        <ele>153.000000</ele>
        <time>2020-10-17T08:29:00Z</time>
      </trkpt>
      <trkpt lat="40.085755000" lon="-8.483505000">
        <ele>152.800000</ele>
        <time>2020-10-17T08:29:01Z</time>
      </trkpt>
      <trkpt lat="40.085697000" lon="-8.483472000">
        <ele>152.800000</ele>
        <time>2020-10-17T08:29:02Z</time>
      </trkpt>
      <trkpt lat="40.085632000" lon="-8.483445000">
        <ele>152.400000</ele>
        <time>2020-10-17T08:29:03Z</time>
      </trkpt>
      <trkpt lat="40.085562000" lon="-8.483427000">
        <ele>152.400000</ele>
        <time>2020-10-17T08:29:04Z</time>
      </trkpt>
      <trkpt lat="40.085420000" lon="-8.483389000">
        <ele>151.400000</ele>
        <time>2020-10-17T08:29:06Z</time>
      </trkpt>
      <trkpt lat="40.085267000" lon="-8.483363000">
        <ele>150.800000</ele>
        <time>2020-10-17T08:29:08Z</time>
      </trkpt>
      <trkpt lat="40.085188000" lon="-8.483359000">
        <ele>150.400000</ele>
        <time>2020-10-17T08:29:09Z</time>
      </trkpt>
      <trkpt lat="40.085026000" lon="-8.483353000">
        <ele>148.600000</ele>
        <time>2020-10-17T08:29:11Z</time>
      </trkpt>
      <trkpt lat="40.084950000" lon="-8.483352000">
        <ele>148.000000</ele>
        <time>2020-10-17T08:29:12Z</time>
      </trkpt>
      <trkpt lat="40.084876000" lon="-8.483351000">
        <ele>147.400000</ele>
        <time>2020-10-17T08:29:13Z</time>
      </trkpt>
      <trkpt lat="40.084807000" lon="-8.483353000">
        <ele>147.400000</ele>
        <time>2020-10-17T08:29:14Z</time>
      </trkpt>
      <trkpt lat="40.084743000" lon="-8.483356000">
        <ele>147.000000</ele>
        <time>2020-10-17T08:29:15Z</time>
      </trkpt>
      <trkpt lat="40.084688000" lon="-8.483358000">
        <ele>146.200000</ele>
        <time>2020-10-17T08:29:16Z</time>
      </trkpt>
      <trkpt lat="40.084638000" lon="-8.483360000">
        <ele>145.400000</ele>
        <time>2020-10-17T08:29:17Z</time>
      </trkpt>
      <trkpt lat="40.084589000" lon="-8.483364000">
        <ele>144.800000</ele>
        <time>2020-10-17T08:29:18Z</time>
      </trkpt>
      <trkpt lat="40.084542000" lon="-8.483373000">
        <ele>143.400000</ele>
        <time>2020-10-17T08:29:19Z</time>
      </trkpt>
      <trkpt lat="40.084503000" lon="-8.483388000">
        <ele>142.600000</ele>
        <time>2020-10-17T08:29:20Z</time>
      </trkpt>
      <trkpt lat="40.084463000" lon="-8.483410000">
        <ele>142.000000</ele>
        <time>2020-10-17T08:29:21Z</time>
      </trkpt>
      <trkpt lat="40.084429000" lon="-8.483436000">
        <ele>140.600000</ele>
        <time>2020-10-17T08:29:22Z</time>
      </trkpt>
      <trkpt lat="40.084397000" lon="-8.483469000">
        <ele>140.000000</ele>
        <time>2020-10-17T08:29:23Z</time>
      </trkpt>
      <trkpt lat="40.084367000" lon="-8.483509000">
        <ele>139.400000</ele>
        <time>2020-10-17T08:29:24Z</time>
      </trkpt>
      <trkpt lat="40.084342000" lon="-8.483555000">
        <ele>139.000000</ele>
        <time>2020-10-17T08:29:25Z</time>
      </trkpt>
      <trkpt lat="40.084316000" lon="-8.483609000">
        <ele>137.800000</ele>
        <time>2020-10-17T08:29:26Z</time>
      </trkpt>
      <trkpt lat="40.084285000" lon="-8.483665000">
        <ele>136.600000</ele>
        <time>2020-10-17T08:29:27Z</time>
      </trkpt>
      <trkpt lat="40.084254000" lon="-8.483724000">
        <ele>135.800000</ele>
        <time>2020-10-17T08:29:28Z</time>
      </trkpt>
      <trkpt lat="40.084084000" lon="-8.484020000">
        <ele>133.200000</ele>
        <time>2020-10-17T08:29:32Z</time>
      </trkpt>
      <trkpt lat="40.084034000" lon="-8.484090000">
        <ele>132.400000</ele>
        <time>2020-10-17T08:29:33Z</time>
      </trkpt>
      <trkpt lat="40.083983000" lon="-8.484151000">
        <ele>131.200000</ele>
        <time>2020-10-17T08:29:34Z</time>
      </trkpt>
      <trkpt lat="40.083932000" lon="-8.484206000">
        <ele>131.200000</ele>
        <time>2020-10-17T08:29:35Z</time>
      </trkpt>
      <trkpt lat="40.083880000" lon="-8.484257000">
        <ele>130.600000</ele>
        <time>2020-10-17T08:29:36Z</time>
      </trkpt>
      <trkpt lat="40.083830000" lon="-8.484304000">
        <ele>130.000000</ele>
        <time>2020-10-17T08:29:37Z</time>
      </trkpt>
      <trkpt lat="40.083783000" lon="-8.484354000">
        <ele>128.800000</ele>
        <time>2020-10-17T08:29:38Z</time>
      </trkpt>
      <trkpt lat="40.083736000" lon="-8.484398000">
        <ele>128.400000</ele>
        <time>2020-10-17T08:29:39Z</time>
      </trkpt>
      <trkpt lat="40.083688000" lon="-8.484435000">
        <ele>128.000000</ele>
        <time>2020-10-17T08:29:40Z</time>
      </trkpt>
      <trkpt lat="40.083643000" lon="-8.484463000">
        <ele>127.800000</ele>
        <time>2020-10-17T08:29:41Z</time>
      </trkpt>
      <trkpt lat="40.083598000" lon="-8.484488000">
        <ele>127.800000</ele>
        <time>2020-10-17T08:29:42Z</time>
      </trkpt>
      <trkpt lat="40.083545000" lon="-8.484497000">
        <ele>127.800000</ele>
        <time>2020-10-17T08:29:43Z</time>
      </trkpt>
      <trkpt lat="40.083492000" lon="-8.484489000">
        <ele>127.800000</ele>
        <time>2020-10-17T08:29:44Z</time>
      </trkpt>
      <trkpt lat="40.083444000" lon="-8.484472000">
        <ele>127.600000</ele>
        <time>2020-10-17T08:29:45Z</time>
      </trkpt>
      <trkpt lat="40.083399000" lon="-8.484447000">
        <ele>127.800000</ele>
        <time>2020-10-17T08:29:46Z</time>
      </trkpt>
      <trkpt lat="40.083352000" lon="-8.484416000">
        <ele>127.600000</ele>
        <time>2020-10-17T08:29:47Z</time>
      </trkpt>
      <trkpt lat="40.083254000" lon="-8.484329000">
        <ele>127.800000</ele>
        <time>2020-10-17T08:29:49Z</time>
      </trkpt>
      <trkpt lat="40.083116000" lon="-8.484170000">
        <ele>127.800000</ele>
        <time>2020-10-17T08:29:52Z</time>
      </trkpt>
      <trkpt lat="40.083044000" lon="-8.484042000">
        <ele>128.000000</ele>
        <time>2020-10-17T08:29:54Z</time>
      </trkpt>
      <trkpt lat="40.083012000" lon="-8.483976000">
        <ele>128.000000</ele>
        <time>2020-10-17T08:29:55Z</time>
      </trkpt>
      <trkpt lat="40.082981000" lon="-8.483912000">
        <ele>128.000000</ele>
        <time>2020-10-17T08:29:56Z</time>
      </trkpt>
      <trkpt lat="40.082948000" lon="-8.483854000">
        <ele>128.000000</ele>
        <time>2020-10-17T08:29:57Z</time>
      </trkpt>
      <trkpt lat="40.082844000" lon="-8.483685000">
        <ele>128.200000</ele>
        <time>2020-10-17T08:30:00Z</time>
      </trkpt>
      <trkpt lat="40.082806000" lon="-8.483637000">
        <ele>128.000000</ele>
        <time>2020-10-17T08:30:01Z</time>
      </trkpt>
      <trkpt lat="40.082768000" lon="-8.483590000">
        <ele>128.000000</ele>
        <time>2020-10-17T08:30:02Z</time>
      </trkpt>
      <trkpt lat="40.082732000" lon="-8.483544000">
        <ele>128.000000</ele>
        <time>2020-10-17T08:30:03Z</time>
      </trkpt>
      <trkpt lat="40.082634000" lon="-8.483388000">
        <ele>128.000000</ele>
        <time>2020-10-17T08:30:06Z</time>
      </trkpt>
      <trkpt lat="40.082609000" lon="-8.483325000">
        <ele>128.000000</ele>
        <time>2020-10-17T08:30:07Z</time>
      </trkpt>
      <trkpt lat="40.082487000" lon="-8.482991000">
        <ele>128.200000</ele>
        <time>2020-10-17T08:30:12Z</time>
      </trkpt>
      <trkpt lat="40.082465000" lon="-8.482928000">
        <ele>128.200000</ele>
        <time>2020-10-17T08:30:13Z</time>
      </trkpt>
      <trkpt lat="40.082439000" lon="-8.482866000">
        <ele>128.200000</ele>
        <time>2020-10-17T08:30:14Z</time>
      </trkpt>
      <trkpt lat="40.082411000" lon="-8.482807000">
        <ele>128.400000</ele>
        <time>2020-10-17T08:30:15Z</time>
      </trkpt>
      <trkpt lat="40.082380000" lon="-8.482753000">
        <ele>128.400000</ele>
        <time>2020-10-17T08:30:16Z</time>
      </trkpt>
      <trkpt lat="40.082349000" lon="-8.482704000">
        <ele>128.400000</ele>
        <time>2020-10-17T08:30:17Z</time>
      </trkpt>
      <trkpt lat="40.082320000" lon="-8.482656000">
        <ele>128.600000</ele>
        <time>2020-10-17T08:30:18Z</time>
      </trkpt>
      <trkpt lat="40.082294000" lon="-8.482611000">
        <ele>128.400000</ele>
        <time>2020-10-17T08:30:19Z</time>
      </trkpt>
      <trkpt lat="40.082269000" lon="-8.482567000">
        <ele>128.600000</ele>
        <time>2020-10-17T08:30:20Z</time>
      </trkpt>
      <trkpt lat="40.082246000" lon="-8.482526000">
        <ele>128.600000</ele>
        <time>2020-10-17T08:30:21Z</time>
      </trkpt>
      <trkpt lat="40.082225000" lon="-8.482492000">
        <ele>128.600000</ele>
        <time>2020-10-17T08:30:22Z</time>
      </trkpt>
      <trkpt lat="40.082207000" lon="-8.482461000">
        <ele>128.800000</ele>
        <time>2020-10-17T08:30:23Z</time>
      </trkpt>
      <trkpt lat="40.082189000" lon="-8.482429000">
        <ele>129.000000</ele>
        <time>2020-10-17T08:30:24Z</time>
      </trkpt>
      <trkpt lat="40.082170000" lon="-8.482399000">
        <ele>129.000000</ele>
        <time>2020-10-17T08:30:25Z</time>
      </trkpt>
      <trkpt lat="40.082149000" lon="-8.482373000">
        <ele>129.000000</ele>
        <time>2020-10-17T08:30:26Z</time>
      </trkpt>
      <trkpt lat="40.082130000" lon="-8.482350000">
        <ele>129.400000</ele>
        <time>2020-10-17T08:30:27Z</time>
      </trkpt>
      <trkpt lat="40.082115000" lon="-8.482328000">
        <ele>129.800000</ele>
        <time>2020-10-17T08:30:28Z</time>
      </trkpt>
      <trkpt lat="40.082100000" lon="-8.482304000">
        <ele>130.200000</ele>
        <time>2020-10-17T08:30:29Z</time>
      </trkpt>
      <trkpt lat="40.082086000" lon="-8.482278000">
        <ele>130.800000</ele>
        <time>2020-10-17T08:30:30Z</time>
      </trkpt>
      <trkpt lat="40.082072000" lon="-8.482252000">
        <ele>131.400000</ele>
        <time>2020-10-17T08:30:31Z</time>
      </trkpt>
      <trkpt lat="40.082056000" lon="-8.482226000">
        <ele>131.600000</ele>
        <time>2020-10-17T08:30:32Z</time>
      </trkpt>
      <trkpt lat="40.082039000" lon="-8.482201000">
        <ele>131.800000</ele>
        <time>2020-10-17T08:30:33Z</time>
      </trkpt>
      <trkpt lat="40.082023000" lon="-8.482176000">
        <ele>132.000000</ele>
        <time>2020-10-17T08:30:34Z</time>
      </trkpt>
      <trkpt lat="40.082006000" lon="-8.482153000">
        <ele>132.200000</ele>
        <time>2020-10-17T08:30:35Z</time>
      </trkpt>
      <trkpt lat="40.081988000" lon="-8.482130000">
        <ele>132.200000</ele>
        <time>2020-10-17T08:30:36Z</time>
      </trkpt>
      <trkpt lat="40.081971000" lon="-8.482106000">
        <ele>132.600000</ele>
        <time>2020-10-17T08:30:37Z</time>
      </trkpt>
      <trkpt lat="40.081956000" lon="-8.482080000">
        <ele>133.000000</ele>
        <time>2020-10-17T08:30:38Z</time>
      </trkpt>
      <trkpt lat="40.081940000" lon="-8.482055000">
        <ele>133.200000</ele>
        <time>2020-10-17T08:30:39Z</time>
      </trkpt>
      <trkpt lat="40.081923000" lon="-8.482029000">
        <ele>133.400000</ele>
        <time>2020-10-17T08:30:40Z</time>
      </trkpt>
      <trkpt lat="40.081908000" lon="-8.482003000">
        <ele>133.600000</ele>
        <time>2020-10-17T08:30:41Z</time>
      </trkpt>
      <trkpt lat="40.081894000" lon="-8.481981000">
        <ele>133.600000</ele>
        <time>2020-10-17T08:30:42Z</time>
      </trkpt>
      <trkpt lat="40.081880000" lon="-8.481957000">
        <ele>133.800000</ele>
        <time>2020-10-17T08:30:43Z</time>
      </trkpt>
      <trkpt lat="40.081863000" lon="-8.481931000">
        <ele>134.000000</ele>
        <time>2020-10-17T08:30:44Z</time>
      </trkpt>
      <trkpt lat="40.081846000" lon="-8.481905000">
        <ele>134.400000</ele>
        <time>2020-10-17T08:30:45Z</time>
      </trkpt>
      <trkpt lat="40.081830000" lon="-8.481880000">
        <ele>134.600000</ele>
        <time>2020-10-17T08:30:46Z</time>
      </trkpt>
      <trkpt lat="40.081815000" lon="-8.481850000">
        <ele>134.800000</ele>
        <time>2020-10-17T08:30:47Z</time>
      </trkpt>
      <trkpt lat="40.081798000" lon="-8.481821000">
        <ele>135.400000</ele>
        <time>2020-10-17T08:30:48Z</time>
      </trkpt>
      <trkpt lat="40.081781000" lon="-8.481789000">
        <ele>136.000000</ele>
        <time>2020-10-17T08:30:49Z</time>
      </trkpt>
      <trkpt lat="40.081764000" lon="-8.481755000">
        <ele>136.200000</ele>
        <time>2020-10-17T08:30:50Z</time>
      </trkpt>
      <trkpt lat="40.081749000" lon="-8.481715000">
        <ele>136.600000</ele>
        <time>2020-10-17T08:30:51Z</time>
      </trkpt>
      <trkpt lat="40.081735000" lon="-8.481671000">
        <ele>136.600000</ele>
        <time>2020-10-17T08:30:52Z</time>
      </trkpt>
      <trkpt lat="40.081721000" lon="-8.481621000">
        <ele>137.000000</ele>
        <time>2020-10-17T08:30:53Z</time>
      </trkpt>
      <trkpt lat="40.081705000" lon="-8.481563000">
        <ele>137.000000</ele>
        <time>2020-10-17T08:30:54Z</time>
      </trkpt>
      <trkpt lat="40.081683000" lon="-8.481499000">
        <ele>137.200000</ele>
        <time>2020-10-17T08:30:55Z</time>
      </trkpt>
      <trkpt lat="40.081662000" lon="-8.481429000">
        <ele>137.200000</ele>
        <time>2020-10-17T08:30:56Z</time>
      </trkpt>
      <trkpt lat="40.081640000" lon="-8.481356000">
        <ele>137.000000</ele>
        <time>2020-10-17T08:30:57Z</time>
      </trkpt>
      <trkpt lat="40.081615000" lon="-8.481282000">
        <ele>137.200000</ele>
        <time>2020-10-17T08:30:58Z</time>
      </trkpt>
      <trkpt lat="40.081584000" lon="-8.481204000">
        <ele>137.200000</ele>
        <time>2020-10-17T08:30:59Z</time>
      </trkpt>
      <trkpt lat="40.081554000" lon="-8.481126000">
        <ele>137.200000</ele>
        <time>2020-10-17T08:31:00Z</time>
      </trkpt>
      <trkpt lat="40.081522000" lon="-8.481048000">
        <ele>137.200000</ele>
        <time>2020-10-17T08:31:01Z</time>
      </trkpt>
      <trkpt lat="40.081489000" lon="-8.480974000">
        <ele>137.200000</ele>
        <time>2020-10-17T08:31:02Z</time>
      </trkpt>
      <trkpt lat="40.081456000" lon="-8.480904000">
        <ele>137.200000</ele>
        <time>2020-10-17T08:31:03Z</time>
      </trkpt>
      <trkpt lat="40.081424000" lon="-8.480843000">
        <ele>136.600000</ele>
        <time>2020-10-17T08:31:04Z</time>
      </trkpt>
      <trkpt lat="40.081393000" lon="-8.480784000">
        <ele>136.200000</ele>
        <time>2020-10-17T08:31:05Z</time>
      </trkpt>
      <trkpt lat="40.081362000" lon="-8.480727000">
        <ele>136.000000</ele>
        <time>2020-10-17T08:31:06Z</time>
      </trkpt>
      <trkpt lat="40.081272000" lon="-8.480551000">
        <ele>134.400000</ele>
        <time>2020-10-17T08:31:09Z</time>
      </trkpt>
      <trkpt lat="40.081181000" lon="-8.480374000">
        <ele>133.800000</ele>
        <time>2020-10-17T08:31:12Z</time>
      </trkpt>
      <trkpt lat="40.081152000" lon="-8.480321000">
        <ele>133.800000</ele>
        <time>2020-10-17T08:31:13Z</time>
      </trkpt>
      <trkpt lat="40.081125000" lon="-8.480271000">
        <ele>134.000000</ele>
        <time>2020-10-17T08:31:14Z</time>
      </trkpt>
      <trkpt lat="40.081100000" lon="-8.480223000">
        <ele>133.800000</ele>
        <time>2020-10-17T08:31:15Z</time>
      </trkpt>
      <trkpt lat="40.081076000" lon="-8.480179000">
        <ele>133.800000</ele>
        <time>2020-10-17T08:31:16Z</time>
      </trkpt>
      <trkpt lat="40.081052000" lon="-8.480139000">
        <ele>133.800000</ele>
        <time>2020-10-17T08:31:17Z</time>
      </trkpt>
      <trkpt lat="40.081030000" lon="-8.480100000">
        <ele>133.800000</ele>
        <time>2020-10-17T08:31:18Z</time>
      </trkpt>
      <trkpt lat="40.081007000" lon="-8.480061000">
        <ele>133.800000</ele>
        <time>2020-10-17T08:31:19Z</time>
      </trkpt>
      <trkpt lat="40.080984000" lon="-8.480023000">
        <ele>133.800000</ele>
        <time>2020-10-17T08:31:20Z</time>
      </trkpt>
      <trkpt lat="40.080960000" lon="-8.479987000">
        <ele>133.800000</ele>
        <time>2020-10-17T08:31:21Z</time>
      </trkpt>
      <trkpt lat="40.080935000" lon="-8.479954000">
        <ele>134.000000</ele>
        <time>2020-10-17T08:31:22Z</time>
      </trkpt>
      <trkpt lat="40.080883000" lon="-8.479885000">
        <ele>134.200000</ele>
        <time>2020-10-17T08:31:24Z</time>
      </trkpt>
      <trkpt lat="40.080696000" lon="-8.479666000">
        <ele>135.400000</ele>
        <time>2020-10-17T08:31:30Z</time>
      </trkpt>
      <trkpt lat="40.080667000" lon="-8.479635000">
        <ele>135.400000</ele>
        <time>2020-10-17T08:31:31Z</time>
      </trkpt>
      <trkpt lat="40.080639000" lon="-8.479605000">
        <ele>135.800000</ele>
        <time>2020-10-17T08:31:32Z</time>
      </trkpt>
      <trkpt lat="40.080611000" lon="-8.479578000">
        <ele>135.800000</ele>
        <time>2020-10-17T08:31:33Z</time>
      </trkpt>
      <trkpt lat="40.080583000" lon="-8.479553000">
        <ele>136.000000</ele>
        <time>2020-10-17T08:31:34Z</time>
      </trkpt>
      <trkpt lat="40.080556000" lon="-8.479528000">
        <ele>136.200000</ele>
        <time>2020-10-17T08:31:35Z</time>
      </trkpt>
      <trkpt lat="40.080529000" lon="-8.479504000">
        <ele>136.400000</ele>
        <time>2020-10-17T08:31:36Z</time>
      </trkpt>
      <trkpt lat="40.080500000" lon="-8.479480000">
        <ele>136.400000</ele>
        <time>2020-10-17T08:31:37Z</time>
      </trkpt>
      <trkpt lat="40.080468000" lon="-8.479453000">
        <ele>136.400000</ele>
        <time>2020-10-17T08:31:38Z</time>
      </trkpt>
      <trkpt lat="40.080433000" lon="-8.479427000">
        <ele>136.400000</ele>
        <time>2020-10-17T08:31:39Z</time>
      </trkpt>
      <trkpt lat="40.080399000" lon="-8.479401000">
        <ele>136.800000</ele>
        <time>2020-10-17T08:31:40Z</time>
      </trkpt>
      <trkpt lat="40.080364000" lon="-8.479379000">
        <ele>136.800000</ele>
        <time>2020-10-17T08:31:41Z</time>
      </trkpt>
      <trkpt lat="40.080330000" lon="-8.479362000">
        <ele>137.200000</ele>
        <time>2020-10-17T08:31:42Z</time>
      </trkpt>
      <trkpt lat="40.080299000" lon="-8.479349000">
        <ele>137.400000</ele>
        <time>2020-10-17T08:31:43Z</time>
      </trkpt>
      <trkpt lat="40.080267000" lon="-8.479344000">
        <ele>137.800000</ele>
        <time>2020-10-17T08:31:44Z</time>
      </trkpt>
      <trkpt lat="40.080235000" lon="-8.479339000">
        <ele>137.800000</ele>
        <time>2020-10-17T08:31:45Z</time>
      </trkpt>
      <trkpt lat="40.080205000" lon="-8.479335000">
        <ele>138.000000</ele>
        <time>2020-10-17T08:31:46Z</time>
      </trkpt>
      <trkpt lat="40.080174000" lon="-8.479329000">
        <ele>138.200000</ele>
        <time>2020-10-17T08:31:47Z</time>
      </trkpt>
      <trkpt lat="40.080147000" lon="-8.479321000">
        <ele>138.200000</ele>
        <time>2020-10-17T08:31:48Z</time>
      </trkpt>
      <trkpt lat="40.080120000" lon="-8.479309000">
        <ele>138.200000</ele>
        <time>2020-10-17T08:31:49Z</time>
      </trkpt>
      <trkpt lat="40.080093000" lon="-8.479299000">
        <ele>138.400000</ele>
        <time>2020-10-17T08:31:50Z</time>
      </trkpt>
      <trkpt lat="40.080066000" lon="-8.479291000">
        <ele>138.800000</ele>
        <time>2020-10-17T08:31:51Z</time>
      </trkpt>
      <trkpt lat="40.080038000" lon="-8.479282000">
        <ele>139.000000</ele>
        <time>2020-10-17T08:31:52Z</time>
      </trkpt>
      <trkpt lat="40.080010000" lon="-8.479273000">
        <ele>139.600000</ele>
        <time>2020-10-17T08:31:53Z</time>
      </trkpt>
      <trkpt lat="40.079981000" lon="-8.479264000">
        <ele>140.000000</ele>
        <time>2020-10-17T08:31:54Z</time>
      </trkpt>
      <trkpt lat="40.079952000" lon="-8.479252000">
        <ele>140.400000</ele>
        <time>2020-10-17T08:31:55Z</time>
      </trkpt>
      <trkpt lat="40.079922000" lon="-8.479240000">
        <ele>140.600000</ele>
        <time>2020-10-17T08:31:56Z</time>
      </trkpt>
      <trkpt lat="40.079893000" lon="-8.479228000">
        <ele>140.800000</ele>
        <time>2020-10-17T08:31:57Z</time>
      </trkpt>
      <trkpt lat="40.079863000" lon="-8.479216000">
        <ele>141.000000</ele>
        <time>2020-10-17T08:31:58Z</time>
      </trkpt>
      <trkpt lat="40.079832000" lon="-8.479204000">
        <ele>141.000000</ele>
        <time>2020-10-17T08:31:59Z</time>
      </trkpt>
      <trkpt lat="40.079802000" lon="-8.479193000">
        <ele>141.200000</ele>
        <time>2020-10-17T08:32:00Z</time>
      </trkpt>
      <trkpt lat="40.079773000" lon="-8.479180000">
        <ele>141.600000</ele>
        <time>2020-10-17T08:32:01Z</time>
      </trkpt>
      <trkpt lat="40.079746000" lon="-8.479170000">
        <ele>141.800000</ele>
        <time>2020-10-17T08:32:02Z</time>
      </trkpt>
      <trkpt lat="40.079721000" lon="-8.479155000">
        <ele>142.200000</ele>
        <time>2020-10-17T08:32:03Z</time>
      </trkpt>
      <trkpt lat="40.079695000" lon="-8.479137000">
        <ele>142.200000</ele>
        <time>2020-10-17T08:32:04Z</time>
      </trkpt>
      <trkpt lat="40.079665000" lon="-8.479114000">
        <ele>142.400000</ele>
        <time>2020-10-17T08:32:05Z</time>
      </trkpt>
      <trkpt lat="40.079633000" lon="-8.479092000">
        <ele>142.600000</ele>
        <time>2020-10-17T08:32:06Z</time>
      </trkpt>
      <trkpt lat="40.079597000" lon="-8.479068000">
        <ele>142.600000</ele>
        <time>2020-10-17T08:32:07Z</time>
      </trkpt>
      <trkpt lat="40.079559000" lon="-8.479042000">
        <ele>143.000000</ele>
        <time>2020-10-17T08:32:08Z</time>
      </trkpt>
      <trkpt lat="40.079520000" lon="-8.479019000">
        <ele>143.000000</ele>
        <time>2020-10-17T08:32:09Z</time>
      </trkpt>
      <trkpt lat="40.079482000" lon="-8.478996000">
        <ele>143.200000</ele>
        <time>2020-10-17T08:32:10Z</time>
      </trkpt>
      <trkpt lat="40.079447000" lon="-8.478975000">
        <ele>143.200000</ele>
        <time>2020-10-17T08:32:11Z</time>
      </trkpt>
      <trkpt lat="40.079415000" lon="-8.478956000">
        <ele>143.400000</ele>
        <time>2020-10-17T08:32:12Z</time>
      </trkpt>
      <trkpt lat="40.079384000" lon="-8.478937000">
        <ele>143.600000</ele>
        <time>2020-10-17T08:32:13Z</time>
      </trkpt>
      <trkpt lat="40.079352000" lon="-8.478921000">
        <ele>143.600000</ele>
        <time>2020-10-17T08:32:14Z</time>
      </trkpt>
      <trkpt lat="40.079317000" lon="-8.478904000">
        <ele>143.800000</ele>
        <time>2020-10-17T08:32:15Z</time>
      </trkpt>
      <trkpt lat="40.079278000" lon="-8.478881000">
        <ele>143.600000</ele>
        <time>2020-10-17T08:32:16Z</time>
      </trkpt>
      <trkpt lat="40.079201000" lon="-8.478833000">
        <ele>143.600000</ele>
        <time>2020-10-17T08:32:18Z</time>
      </trkpt>
      <trkpt lat="40.079161000" lon="-8.478807000">
        <ele>143.600000</ele>
        <time>2020-10-17T08:32:19Z</time>
      </trkpt>
      <trkpt lat="40.079115000" lon="-8.478781000">
        <ele>143.600000</ele>
        <time>2020-10-17T08:32:20Z</time>
      </trkpt>
      <trkpt lat="40.078882000" lon="-8.478640000">
        <ele>143.400000</ele>
        <time>2020-10-17T08:32:25Z</time>
      </trkpt>
      <trkpt lat="40.078834000" lon="-8.478608000">
        <ele>143.200000</ele>
        <time>2020-10-17T08:32:26Z</time>
      </trkpt>
      <trkpt lat="40.078742000" lon="-8.478537000">
        <ele>142.600000</ele>
        <time>2020-10-17T08:32:28Z</time>
      </trkpt>
      <trkpt lat="40.078699000" lon="-8.478500000">
        <ele>142.400000</ele>
        <time>2020-10-17T08:32:29Z</time>
      </trkpt>
      <trkpt lat="40.078659000" lon="-8.478464000">
        <ele>142.200000</ele>
        <time>2020-10-17T08:32:30Z</time>
      </trkpt>
      <trkpt lat="40.078623000" lon="-8.478430000">
        <ele>142.000000</ele>
        <time>2020-10-17T08:32:31Z</time>
      </trkpt>
      <trkpt lat="40.078590000" lon="-8.478393000">
        <ele>142.000000</ele>
        <time>2020-10-17T08:32:32Z</time>
      </trkpt>
      <trkpt lat="40.078559000" lon="-8.478355000">
        <ele>141.800000</ele>
        <time>2020-10-17T08:32:33Z</time>
      </trkpt>
      <trkpt lat="40.078524000" lon="-8.478313000">
        <ele>141.800000</ele>
        <time>2020-10-17T08:32:34Z</time>
      </trkpt>
      <trkpt lat="40.078488000" lon="-8.478269000">
        <ele>141.600000</ele>
        <time>2020-10-17T08:32:35Z</time>
      </trkpt>
      <trkpt lat="40.078458000" lon="-8.478219000">
        <ele>141.600000</ele>
        <time>2020-10-17T08:32:36Z</time>
      </trkpt>
      <trkpt lat="40.078437000" lon="-8.478167000">
        <ele>141.400000</ele>
        <time>2020-10-17T08:32:37Z</time>
      </trkpt>
      <trkpt lat="40.078421000" lon="-8.478117000">
        <ele>141.200000</ele>
        <time>2020-10-17T08:32:38Z</time>
      </trkpt>
      <trkpt lat="40.078403000" lon="-8.478077000">
        <ele>141.400000</ele>
        <time>2020-10-17T08:32:39Z</time>
      </trkpt>
      <trkpt lat="40.078382000" lon="-8.478037000">
        <ele>141.400000</ele>
        <time>2020-10-17T08:32:40Z</time>
      </trkpt>
      <trkpt lat="40.078367000" lon="-8.477992000">
        <ele>141.400000</ele>
        <time>2020-10-17T08:32:41Z</time>
      </trkpt>
      <trkpt lat="40.078358000" lon="-8.477938000">
        <ele>141.200000</ele>
        <time>2020-10-17T08:32:42Z</time>
      </trkpt>
      <trkpt lat="40.078357000" lon="-8.477883000">
        <ele>141.200000</ele>
        <time>2020-10-17T08:32:43Z</time>
      </trkpt>
      <trkpt lat="40.078370000" lon="-8.477839000">
        <ele>140.600000</ele>
        <time>2020-10-17T08:32:44Z</time>
      </trkpt>
      <trkpt lat="40.078400000" lon="-8.477801000">
        <ele>139.400000</ele>
        <time>2020-10-17T08:32:45Z</time>
      </trkpt>
      <trkpt lat="40.078454000" lon="-8.477774000">
        <ele>138.800000</ele>
        <time>2020-10-17T08:32:46Z</time>
      </trkpt>
      <trkpt lat="40.078517000" lon="-8.477757000">
        <ele>137.200000</ele>
        <time>2020-10-17T08:32:47Z</time>
      </trkpt>
      <trkpt lat="40.078575000" lon="-8.477740000">
        <ele>136.400000</ele>
        <time>2020-10-17T08:32:48Z</time>
      </trkpt>
      <trkpt lat="40.078625000" lon="-8.477719000">
        <ele>135.800000</ele>
        <time>2020-10-17T08:32:49Z</time>
      </trkpt>
      <trkpt lat="40.078669000" lon="-8.477686000">
        <ele>135.600000</ele>
        <time>2020-10-17T08:32:50Z</time>
      </trkpt>
      <trkpt lat="40.078701000" lon="-8.477645000">
        <ele>135.000000</ele>
        <time>2020-10-17T08:32:51Z</time>
      </trkpt>
      <trkpt lat="40.078720000" lon="-8.477596000">
        <ele>134.200000</ele>
        <time>2020-10-17T08:32:52Z</time>
      </trkpt>
      <trkpt lat="40.078725000" lon="-8.477541000">
        <ele>133.400000</ele>
        <time>2020-10-17T08:32:53Z</time>
      </trkpt>
      <trkpt lat="40.078720000" lon="-8.477485000">
        <ele>133.200000</ele>
        <time>2020-10-17T08:32:54Z</time>
      </trkpt>
      <trkpt lat="40.078706000" lon="-8.477430000">
        <ele>132.200000</ele>
        <time>2020-10-17T08:32:55Z</time>
      </trkpt>
      <trkpt lat="40.078654000" lon="-8.477330000">
        <ele>131.000000</ele>
        <time>2020-10-17T08:32:57Z</time>
      </trkpt>
      <trkpt lat="40.078622000" lon="-8.477289000">
        <ele>131.000000</ele>
        <time>2020-10-17T08:32:58Z</time>
      </trkpt>
      <trkpt lat="40.078586000" lon="-8.477253000">
        <ele>130.800000</ele>
        <time>2020-10-17T08:32:59Z</time>
      </trkpt>
      <trkpt lat="40.078547000" lon="-8.477223000">
        <ele>130.800000</ele>
        <time>2020-10-17T08:33:00Z</time>
      </trkpt>
      <trkpt lat="40.078421000" lon="-8.477152000">
        <ele>130.600000</ele>
        <time>2020-10-17T08:33:03Z</time>
      </trkpt>
      <trkpt lat="40.078193000" lon="-8.477043000">
        <ele>130.600000</ele>
        <time>2020-10-17T08:33:08Z</time>
      </trkpt>
      <trkpt lat="40.078153000" lon="-8.477018000">
        <ele>130.800000</ele>
        <time>2020-10-17T08:33:09Z</time>
      </trkpt>
      <trkpt lat="40.078114000" lon="-8.476993000">
        <ele>131.000000</ele>
        <time>2020-10-17T08:33:10Z</time>
      </trkpt>
      <trkpt lat="40.078076000" lon="-8.476969000">
        <ele>130.800000</ele>
        <time>2020-10-17T08:33:11Z</time>
      </trkpt>
      <trkpt lat="40.078039000" lon="-8.476944000">
        <ele>131.000000</ele>
        <time>2020-10-17T08:33:12Z</time>
      </trkpt>
      <trkpt lat="40.078004000" lon="-8.476921000">
        <ele>130.800000</ele>
        <time>2020-10-17T08:33:13Z</time>
      </trkpt>
      <trkpt lat="40.077970000" lon="-8.476899000">
        <ele>130.800000</ele>
        <time>2020-10-17T08:33:14Z</time>
      </trkpt>
      <trkpt lat="40.077936000" lon="-8.476877000">
        <ele>130.800000</ele>
        <time>2020-10-17T08:33:15Z</time>
      </trkpt>
      <trkpt lat="40.077904000" lon="-8.476857000">
        <ele>130.800000</ele>
        <time>2020-10-17T08:33:16Z</time>
      </trkpt>
      <trkpt lat="40.077871000" lon="-8.476838000">
        <ele>130.800000</ele>
        <time>2020-10-17T08:33:17Z</time>
      </trkpt>
      <trkpt lat="40.077746000" lon="-8.476743000">
        <ele>131.000000</ele>
        <time>2020-10-17T08:33:21Z</time>
      </trkpt>
      <trkpt lat="40.077650000" lon="-8.476639000">
        <ele>130.800000</ele>
        <time>2020-10-17T08:33:24Z</time>
      </trkpt>
      <trkpt lat="40.077633000" lon="-8.476604000">
        <ele>130.800000</ele>
        <time>2020-10-17T08:33:25Z</time>
      </trkpt>
      <trkpt lat="40.077621000" lon="-8.476575000">
        <ele>130.800000</ele>
        <time>2020-10-17T08:33:26Z</time>
      </trkpt>
      <trkpt lat="40.077615000" lon="-8.476556000">
        <ele>130.800000</ele>
        <time>2020-10-17T08:33:27Z</time>
      </trkpt>
      <trkpt lat="40.077605000" lon="-8.476533000">
        <ele>130.800000</ele>
        <time>2020-10-17T08:33:28Z</time>
      </trkpt>
      <trkpt lat="40.077598000" lon="-8.476522000">
        <ele>130.800000</ele>
        <time>2020-10-17T08:33:29Z</time>
      </trkpt>
      <trkpt lat="40.077597000" lon="-8.476524000">
        <ele>130.800000</ele>
        <time>2020-10-17T08:33:30Z</time>
      </trkpt>
      <trkpt lat="40.077598000" lon="-8.476533000">
        <ele>130.800000</ele>
        <time>2020-10-17T08:33:31Z</time>
      </trkpt>
      <trkpt lat="40.077603000" lon="-8.476537000">
        <ele>130.800000</ele>
        <time>2020-10-17T08:33:32Z</time>
      </trkpt>
      <trkpt lat="40.077605000" lon="-8.476540000">
        <ele>130.600000</ele>
        <time>2020-10-17T08:33:33Z</time>
      </trkpt>
      <trkpt lat="40.077658000" lon="-8.476486000">
        <ele>130.600000</ele>
        <time>2020-10-17T08:34:00Z</time>
      </trkpt>
      <trkpt lat="40.077624000" lon="-8.476410000">
        <ele>130.400000</ele>
        <time>2020-10-17T08:34:02Z</time>
      </trkpt>
      <trkpt lat="40.077608000" lon="-8.476375000">
        <ele>130.600000</ele>
        <time>2020-10-17T08:34:03Z</time>
      </trkpt>
      <trkpt lat="40.077605000" lon="-8.476317000">
        <ele>130.600000</ele>
        <time>2020-10-17T08:34:04Z</time>
      </trkpt>
      <trkpt lat="40.077522000" lon="-8.476184000">
        <ele>130.600000</ele>
        <time>2020-10-17T08:34:07Z</time>
      </trkpt>
      <trkpt lat="40.077444000" lon="-8.476018000">
        <ele>130.600000</ele>
        <time>2020-10-17T08:34:10Z</time>
      </trkpt>
      <trkpt lat="40.077383000" lon="-8.475923000">
        <ele>130.400000</ele>
        <time>2020-10-17T08:34:12Z</time>
      </trkpt>
      <trkpt lat="40.077355000" lon="-8.475886000">
        <ele>130.600000</ele>
        <time>2020-10-17T08:34:13Z</time>
      </trkpt>
      <trkpt lat="40.077322000" lon="-8.475846000">
        <ele>130.400000</ele>
        <time>2020-10-17T08:34:14Z</time>
      </trkpt>
      <trkpt lat="40.077216000" lon="-8.475723000">
        <ele>130.600000</ele>
        <time>2020-10-17T08:34:17Z</time>
      </trkpt>
      <trkpt lat="40.077180000" lon="-8.475686000">
        <ele>130.400000</ele>
        <time>2020-10-17T08:34:18Z</time>
      </trkpt>
      <trkpt lat="40.077071000" lon="-8.475572000">
        <ele>130.600000</ele>
        <time>2020-10-17T08:34:21Z</time>
      </trkpt>
      <trkpt lat="40.077038000" lon="-8.475545000">
        <ele>130.400000</ele>
        <time>2020-10-17T08:34:22Z</time>
      </trkpt>
      <trkpt lat="40.076998000" lon="-8.475522000">
        <ele>130.600000</ele>
        <time>2020-10-17T08:34:23Z</time>
      </trkpt>
      <trkpt lat="40.076919000" lon="-8.475477000">
        <ele>130.600000</ele>
        <time>2020-10-17T08:34:25Z</time>
      </trkpt>
      <trkpt lat="40.076880000" lon="-8.475466000">
        <ele>130.600000</ele>
        <time>2020-10-17T08:34:26Z</time>
      </trkpt>
      <trkpt lat="40.076841000" lon="-8.475461000">
        <ele>130.600000</ele>
        <time>2020-10-17T08:34:27Z</time>
      </trkpt>
      <trkpt lat="40.076812000" lon="-8.475459000">
        <ele>130.600000</ele>
        <time>2020-10-17T08:34:28Z</time>
      </trkpt>
      <trkpt lat="40.076772000" lon="-8.475461000">
        <ele>130.600000</ele>
        <time>2020-10-17T08:34:29Z</time>
      </trkpt>
      <trkpt lat="40.076741000" lon="-8.475452000">
        <ele>130.400000</ele>
        <time>2020-10-17T08:34:30Z</time>
      </trkpt>
      <trkpt lat="40.076713000" lon="-8.475444000">
        <ele>130.600000</ele>
        <time>2020-10-17T08:34:31Z</time>
      </trkpt>
      <trkpt lat="40.076682000" lon="-8.475430000">
        <ele>130.600000</ele>
        <time>2020-10-17T08:34:32Z</time>
      </trkpt>
      <trkpt lat="40.076653000" lon="-8.475411000">
        <ele>130.800000</ele>
        <time>2020-10-17T08:34:33Z</time>
      </trkpt>
      <trkpt lat="40.076618000" lon="-8.475405000">
        <ele>130.600000</ele>
        <time>2020-10-17T08:34:34Z</time>
      </trkpt>
      <trkpt lat="40.076592000" lon="-8.475412000">
        <ele>130.400000</ele>
        <time>2020-10-17T08:34:35Z</time>
      </trkpt>
      <trkpt lat="40.076563000" lon="-8.475421000">
        <ele>130.600000</ele>
        <time>2020-10-17T08:34:36Z</time>
      </trkpt>
      <trkpt lat="40.076528000" lon="-8.475438000">
        <ele>130.600000</ele>
        <time>2020-10-17T08:34:37Z</time>
      </trkpt>
      <trkpt lat="40.076503000" lon="-8.475462000">
        <ele>130.600000</ele>
        <time>2020-10-17T08:34:38Z</time>
      </trkpt>
      <trkpt lat="40.076473000" lon="-8.475488000">
        <ele>130.400000</ele>
        <time>2020-10-17T08:34:39Z</time>
      </trkpt>
      <trkpt lat="40.076426000" lon="-8.475508000">
        <ele>130.400000</ele>
        <time>2020-10-17T08:34:40Z</time>
      </trkpt>
      <trkpt lat="40.076330000" lon="-8.475524000">
        <ele>130.400000</ele>
        <time>2020-10-17T08:34:42Z</time>
      </trkpt>
      <trkpt lat="40.076284000" lon="-8.475528000">
        <ele>130.400000</ele>
        <time>2020-10-17T08:34:43Z</time>
      </trkpt>
      <trkpt lat="40.076240000" lon="-8.475529000">
        <ele>130.400000</ele>
        <time>2020-10-17T08:34:44Z</time>
      </trkpt>
      <trkpt lat="40.076200000" lon="-8.475511000">
        <ele>130.400000</ele>
        <time>2020-10-17T08:34:45Z</time>
      </trkpt>
      <trkpt lat="40.076166000" lon="-8.475484000">
        <ele>130.600000</ele>
        <time>2020-10-17T08:34:46Z</time>
      </trkpt>
      <trkpt lat="40.076135000" lon="-8.475445000">
        <ele>130.800000</ele>
        <time>2020-10-17T08:34:47Z</time>
      </trkpt>
      <trkpt lat="40.076097000" lon="-8.475395000">
        <ele>130.600000</ele>
        <time>2020-10-17T08:34:48Z</time>
      </trkpt>
      <trkpt lat="40.076063000" lon="-8.475341000">
        <ele>130.800000</ele>
        <time>2020-10-17T08:34:49Z</time>
      </trkpt>
      <trkpt lat="40.076006000" lon="-8.475249000">
        <ele>131.000000</ele>
        <time>2020-10-17T08:34:51Z</time>
      </trkpt>
      <trkpt lat="40.075991000" lon="-8.475223000">
        <ele>130.800000</ele>
        <time>2020-10-17T08:34:52Z</time>
      </trkpt>
      <trkpt lat="40.075978000" lon="-8.475204000">
        <ele>130.800000</ele>
        <time>2020-10-17T08:34:53Z</time>
      </trkpt>
      <trkpt lat="40.075956000" lon="-8.475200000">
        <ele>130.800000</ele>
        <time>2020-10-17T08:34:54Z</time>
      </trkpt>
      <trkpt lat="40.075945000" lon="-8.475201000">
        <ele>131.000000</ele>
        <time>2020-10-17T08:34:55Z</time>
      </trkpt>
      <trkpt lat="40.075930000" lon="-8.475208000">
        <ele>130.800000</ele>
        <time>2020-10-17T08:34:56Z</time>
      </trkpt>
      <trkpt lat="40.075902000" lon="-8.475223000">
        <ele>131.000000</ele>
        <time>2020-10-17T08:34:57Z</time>
      </trkpt>
      <trkpt lat="40.075821000" lon="-8.475238000">
        <ele>131.200000</ele>
        <time>2020-10-17T08:34:59Z</time>
      </trkpt>
      <trkpt lat="40.075783000" lon="-8.475236000">
        <ele>131.000000</ele>
        <time>2020-10-17T08:35:00Z</time>
      </trkpt>
      <trkpt lat="40.075741000" lon="-8.475233000">
        <ele>131.000000</ele>
        <time>2020-10-17T08:35:01Z</time>
      </trkpt>
      <trkpt lat="40.075666000" lon="-8.475209000">
        <ele>131.000000</ele>
        <time>2020-10-17T08:35:03Z</time>
      </trkpt>
      <trkpt lat="40.075589000" lon="-8.475183000">
        <ele>131.000000</ele>
        <time>2020-10-17T08:35:05Z</time>
      </trkpt>
      <trkpt lat="40.075550000" lon="-8.475169000">
        <ele>131.200000</ele>
        <time>2020-10-17T08:35:06Z</time>
      </trkpt>
      <trkpt lat="40.075429000" lon="-8.475110000">
        <ele>131.200000</ele>
        <time>2020-10-17T08:35:09Z</time>
      </trkpt>
      <trkpt lat="40.075279000" lon="-8.474996000">
        <ele>131.200000</ele>
        <time>2020-10-17T08:35:13Z</time>
      </trkpt>
      <trkpt lat="40.075247000" lon="-8.474967000">
        <ele>131.400000</ele>
        <time>2020-10-17T08:35:14Z</time>
      </trkpt>
      <trkpt lat="40.075163000" lon="-8.474921000">
        <ele>131.400000</ele>
        <time>2020-10-17T08:35:16Z</time>
      </trkpt>
      <trkpt lat="40.075094000" lon="-8.474887000">
        <ele>131.200000</ele>
        <time>2020-10-17T08:35:18Z</time>
      </trkpt>
      <trkpt lat="40.075060000" lon="-8.474870000">
        <ele>131.400000</ele>
        <time>2020-10-17T08:35:19Z</time>
      </trkpt>
      <trkpt lat="40.075025000" lon="-8.474850000">
        <ele>131.400000</ele>
        <time>2020-10-17T08:35:20Z</time>
      </trkpt>
      <trkpt lat="40.074876000" lon="-8.474744000">
        <ele>131.400000</ele>
        <time>2020-10-17T08:35:24Z</time>
      </trkpt>
      <trkpt lat="40.074849000" lon="-8.474735000">
        <ele>131.600000</ele>
        <time>2020-10-17T08:35:25Z</time>
      </trkpt>
      <trkpt lat="40.074827000" lon="-8.474737000">
        <ele>131.600000</ele>
        <time>2020-10-17T08:35:26Z</time>
      </trkpt>
      <trkpt lat="40.074803000" lon="-8.474739000">
        <ele>131.400000</ele>
        <time>2020-10-17T08:35:27Z</time>
      </trkpt>
      <trkpt lat="40.074781000" lon="-8.474725000">
        <ele>131.400000</ele>
        <time>2020-10-17T08:35:28Z</time>
      </trkpt>
      <trkpt lat="40.074717000" lon="-8.474695000">
        <ele>131.600000</ele>
        <time>2020-10-17T08:35:30Z</time>
      </trkpt>
      <trkpt lat="40.074684000" lon="-8.474680000">
        <ele>131.800000</ele>
        <time>2020-10-17T08:35:31Z</time>
      </trkpt>
      <trkpt lat="40.074466000" lon="-8.474574000">
        <ele>132.000000</ele>
        <time>2020-10-17T08:35:36Z</time>
      </trkpt>
      <trkpt lat="40.074316000" lon="-8.474470000">
        <ele>132.200000</ele>
        <time>2020-10-17T08:35:39Z</time>
      </trkpt>
      <trkpt lat="40.074266000" lon="-8.474447000">
        <ele>132.000000</ele>
        <time>2020-10-17T08:35:40Z</time>
      </trkpt>
      <trkpt lat="40.074210000" lon="-8.474428000">
        <ele>132.200000</ele>
        <time>2020-10-17T08:35:41Z</time>
      </trkpt>
      <trkpt lat="40.074061000" lon="-8.474397000">
        <ele>132.000000</ele>
        <time>2020-10-17T08:35:44Z</time>
      </trkpt>
      <trkpt lat="40.073905000" lon="-8.474372000">
        <ele>132.000000</ele>
        <time>2020-10-17T08:35:47Z</time>
      </trkpt>
      <trkpt lat="40.073865000" lon="-8.474358000">
        <ele>132.000000</ele>
        <time>2020-10-17T08:35:48Z</time>
      </trkpt>
      <trkpt lat="40.073818000" lon="-8.474352000">
        <ele>132.000000</ele>
        <time>2020-10-17T08:35:49Z</time>
      </trkpt>
      <trkpt lat="40.073768000" lon="-8.474325000">
        <ele>132.000000</ele>
        <time>2020-10-17T08:35:50Z</time>
      </trkpt>
      <trkpt lat="40.073681000" lon="-8.474258000">
        <ele>131.800000</ele>
        <time>2020-10-17T08:35:52Z</time>
      </trkpt>
      <trkpt lat="40.073639000" lon="-8.474222000">
        <ele>131.800000</ele>
        <time>2020-10-17T08:35:53Z</time>
      </trkpt>
      <trkpt lat="40.073513000" lon="-8.474116000">
        <ele>131.600000</ele>
        <time>2020-10-17T08:35:56Z</time>
      </trkpt>
      <trkpt lat="40.073321000" lon="-8.473947000">
        <ele>131.600000</ele>
        <time>2020-10-17T08:36:00Z</time>
      </trkpt>
      <trkpt lat="40.073288000" lon="-8.473903000">
        <ele>131.600000</ele>
        <time>2020-10-17T08:36:01Z</time>
      </trkpt>
      <trkpt lat="40.073255000" lon="-8.473854000">
        <ele>131.600000</ele>
        <time>2020-10-17T08:36:02Z</time>
      </trkpt>
      <trkpt lat="40.073223000" lon="-8.473813000">
        <ele>131.600000</ele>
        <time>2020-10-17T08:36:03Z</time>
      </trkpt>
      <trkpt lat="40.073183000" lon="-8.473780000">
        <ele>131.600000</ele>
        <time>2020-10-17T08:36:04Z</time>
      </trkpt>
      <trkpt lat="40.073150000" lon="-8.473748000">
        <ele>131.600000</ele>
        <time>2020-10-17T08:36:05Z</time>
      </trkpt>
      <trkpt lat="40.073117000" lon="-8.473732000">
        <ele>131.800000</ele>
        <time>2020-10-17T08:36:06Z</time>
      </trkpt>
      <trkpt lat="40.073083000" lon="-8.473716000">
        <ele>131.600000</ele>
        <time>2020-10-17T08:36:07Z</time>
      </trkpt>
      <trkpt lat="40.073055000" lon="-8.473708000">
        <ele>131.600000</ele>
        <time>2020-10-17T08:36:08Z</time>
      </trkpt>
      <trkpt lat="40.073031000" lon="-8.473697000">
        <ele>131.800000</ele>
        <time>2020-10-17T08:36:09Z</time>
      </trkpt>
      <trkpt lat="40.073009000" lon="-8.473688000">
        <ele>131.600000</ele>
        <time>2020-10-17T08:36:10Z</time>
      </trkpt>
      <trkpt lat="40.072991000" lon="-8.473680000">
        <ele>131.800000</ele>
        <time>2020-10-17T08:36:11Z</time>
      </trkpt>
      <trkpt lat="40.072980000" lon="-8.473674000">
        <ele>131.600000</ele>
        <time>2020-10-17T08:36:12Z</time>
      </trkpt>
      <trkpt lat="40.072967000" lon="-8.473665000">
        <ele>131.600000</ele>
        <time>2020-10-17T08:36:13Z</time>
      </trkpt>
      <trkpt lat="40.072949000" lon="-8.473651000">
        <ele>131.600000</ele>
        <time>2020-10-17T08:36:14Z</time>
      </trkpt>
      <trkpt lat="40.072817000" lon="-8.473504000">
        <ele>131.600000</ele>
        <time>2020-10-17T08:36:19Z</time>
      </trkpt>
      <trkpt lat="40.072637000" lon="-8.473336000">
        <ele>131.800000</ele>
        <time>2020-10-17T08:36:24Z</time>
      </trkpt>
      <trkpt lat="40.072596000" lon="-8.473318000">
        <ele>131.800000</ele>
        <time>2020-10-17T08:36:25Z</time>
      </trkpt>
      <trkpt lat="40.072544000" lon="-8.473301000">
        <ele>131.600000</ele>
        <time>2020-10-17T08:36:26Z</time>
      </trkpt>
      <trkpt lat="40.072504000" lon="-8.473289000">
        <ele>131.800000</ele>
        <time>2020-10-17T08:36:27Z</time>
      </trkpt>
      <trkpt lat="40.072422000" lon="-8.473255000">
        <ele>131.600000</ele>
        <time>2020-10-17T08:36:29Z</time>
      </trkpt>
      <trkpt lat="40.072388000" lon="-8.473221000">
        <ele>131.600000</ele>
        <time>2020-10-17T08:36:30Z</time>
      </trkpt>
      <trkpt lat="40.072357000" lon="-8.473173000">
        <ele>131.800000</ele>
        <time>2020-10-17T08:36:31Z</time>
      </trkpt>
      <trkpt lat="40.072333000" lon="-8.473123000">
        <ele>131.800000</ele>
        <time>2020-10-17T08:36:32Z</time>
      </trkpt>
      <trkpt lat="40.072320000" lon="-8.473064000">
        <ele>131.800000</ele>
        <time>2020-10-17T08:36:33Z</time>
      </trkpt>
      <trkpt lat="40.072307000" lon="-8.472990000">
        <ele>132.000000</ele>
        <time>2020-10-17T08:36:34Z</time>
      </trkpt>
      <trkpt lat="40.072307000" lon="-8.472915000">
        <ele>132.000000</ele>
        <time>2020-10-17T08:36:35Z</time>
      </trkpt>
      <trkpt lat="40.072299000" lon="-8.472839000">
        <ele>132.000000</ele>
        <time>2020-10-17T08:36:36Z</time>
      </trkpt>
      <trkpt lat="40.072283000" lon="-8.472776000">
        <ele>131.800000</ele>
        <time>2020-10-17T08:36:37Z</time>
      </trkpt>
      <trkpt lat="40.072253000" lon="-8.472718000">
        <ele>132.000000</ele>
        <time>2020-10-17T08:36:38Z</time>
      </trkpt>
      <trkpt lat="40.072229000" lon="-8.472673000">
        <ele>132.200000</ele>
        <time>2020-10-17T08:36:39Z</time>
      </trkpt>
      <trkpt lat="40.072202000" lon="-8.472635000">
        <ele>132.400000</ele>
        <time>2020-10-17T08:36:40Z</time>
      </trkpt>
      <trkpt lat="40.072166000" lon="-8.472592000">
        <ele>132.400000</ele>
        <time>2020-10-17T08:36:41Z</time>
      </trkpt>
      <trkpt lat="40.072131000" lon="-8.472550000">
        <ele>132.400000</ele>
        <time>2020-10-17T08:36:42Z</time>
      </trkpt>
      <trkpt lat="40.072084000" lon="-8.472511000">
        <ele>132.400000</ele>
        <time>2020-10-17T08:36:43Z</time>
      </trkpt>
      <trkpt lat="40.072005000" lon="-8.472419000">
        <ele>132.400000</ele>
        <time>2020-10-17T08:36:45Z</time>
      </trkpt>
      <trkpt lat="40.071978000" lon="-8.472379000">
        <ele>132.200000</ele>
        <time>2020-10-17T08:36:46Z</time>
      </trkpt>
      <trkpt lat="40.071938000" lon="-8.472343000">
        <ele>132.400000</ele>
        <time>2020-10-17T08:36:47Z</time>
      </trkpt>
      <trkpt lat="40.071844000" lon="-8.472280000">
        <ele>132.400000</ele>
        <time>2020-10-17T08:36:49Z</time>
      </trkpt>
      <trkpt lat="40.071802000" lon="-8.472232000">
        <ele>132.400000</ele>
        <time>2020-10-17T08:36:50Z</time>
      </trkpt>
      <trkpt lat="40.071729000" lon="-8.472110000">
        <ele>132.400000</ele>
        <time>2020-10-17T08:36:52Z</time>
      </trkpt>
      <trkpt lat="40.071707000" lon="-8.472050000">
        <ele>132.400000</ele>
        <time>2020-10-17T08:36:53Z</time>
      </trkpt>
      <trkpt lat="40.071676000" lon="-8.471982000">
        <ele>132.400000</ele>
        <time>2020-10-17T08:36:54Z</time>
      </trkpt>
      <trkpt lat="40.071649000" lon="-8.471919000">
        <ele>132.600000</ele>
        <time>2020-10-17T08:36:55Z</time>
      </trkpt>
      <trkpt lat="40.071617000" lon="-8.471845000">
        <ele>132.400000</ele>
        <time>2020-10-17T08:36:56Z</time>
      </trkpt>
      <trkpt lat="40.071596000" lon="-8.471780000">
        <ele>132.400000</ele>
        <time>2020-10-17T08:36:57Z</time>
      </trkpt>
      <trkpt lat="40.071559000" lon="-8.471580000">
        <ele>132.600000</ele>
        <time>2020-10-17T08:37:00Z</time>
      </trkpt>
      <trkpt lat="40.071566000" lon="-8.471517000">
        <ele>132.600000</ele>
        <time>2020-10-17T08:37:01Z</time>
      </trkpt>
      <trkpt lat="40.071555000" lon="-8.471439000">
        <ele>132.800000</ele>
        <time>2020-10-17T08:37:02Z</time>
      </trkpt>
      <trkpt lat="40.071557000" lon="-8.471185000">
        <ele>132.800000</ele>
        <time>2020-10-17T08:37:05Z</time>
      </trkpt>
      <trkpt lat="40.071562000" lon="-8.471116000">
        <ele>132.800000</ele>
        <time>2020-10-17T08:37:06Z</time>
      </trkpt>
      <trkpt lat="40.071560000" lon="-8.471063000">
        <ele>132.800000</ele>
        <time>2020-10-17T08:37:07Z</time>
      </trkpt>
      <trkpt lat="40.071554000" lon="-8.471008000">
        <ele>133.000000</ele>
        <time>2020-10-17T08:37:08Z</time>
      </trkpt>
      <trkpt lat="40.071551000" lon="-8.470939000">
        <ele>132.800000</ele>
        <time>2020-10-17T08:37:09Z</time>
      </trkpt>
      <trkpt lat="40.071553000" lon="-8.470861000">
        <ele>133.000000</ele>
        <time>2020-10-17T08:37:10Z</time>
      </trkpt>
      <trkpt lat="40.071536000" lon="-8.470707000">
        <ele>133.000000</ele>
        <time>2020-10-17T08:37:12Z</time>
      </trkpt>
      <trkpt lat="40.071492000" lon="-8.470559000">
        <ele>133.000000</ele>
        <time>2020-10-17T08:37:14Z</time>
      </trkpt>
      <trkpt lat="40.071442000" lon="-8.470501000">
        <ele>133.200000</ele>
        <time>2020-10-17T08:37:15Z</time>
      </trkpt>
      <trkpt lat="40.071398000" lon="-8.470439000">
        <ele>133.000000</ele>
        <time>2020-10-17T08:37:16Z</time>
      </trkpt>
      <trkpt lat="40.071367000" lon="-8.470379000">
        <ele>133.200000</ele>
        <time>2020-10-17T08:37:17Z</time>
      </trkpt>
      <trkpt lat="40.071337000" lon="-8.470316000">
        <ele>133.200000</ele>
        <time>2020-10-17T08:37:18Z</time>
      </trkpt>
      <trkpt lat="40.071308000" lon="-8.470251000">
        <ele>133.200000</ele>
        <time>2020-10-17T08:37:19Z</time>
      </trkpt>
      <trkpt lat="40.071286000" lon="-8.470187000">
        <ele>133.200000</ele>
        <time>2020-10-17T08:37:20Z</time>
      </trkpt>
      <trkpt lat="40.071257000" lon="-8.470110000">
        <ele>133.200000</ele>
        <time>2020-10-17T08:37:21Z</time>
      </trkpt>
      <trkpt lat="40.071185000" lon="-8.469837000">
        <ele>133.200000</ele>
        <time>2020-10-17T08:37:25Z</time>
      </trkpt>
      <trkpt lat="40.071188000" lon="-8.469768000">
        <ele>133.200000</ele>
        <time>2020-10-17T08:37:26Z</time>
      </trkpt>
      <trkpt lat="40.071188000" lon="-8.469682000">
        <ele>133.200000</ele>
        <time>2020-10-17T08:37:27Z</time>
      </trkpt>
      <trkpt lat="40.071196000" lon="-8.469616000">
        <ele>133.200000</ele>
        <time>2020-10-17T08:37:28Z</time>
      </trkpt>
      <trkpt lat="40.071218000" lon="-8.469552000">
        <ele>133.200000</ele>
        <time>2020-10-17T08:37:29Z</time>
      </trkpt>
      <trkpt lat="40.071232000" lon="-8.469467000">
        <ele>133.200000</ele>
        <time>2020-10-17T08:37:30Z</time>
      </trkpt>
      <trkpt lat="40.071260000" lon="-8.469397000">
        <ele>133.200000</ele>
        <time>2020-10-17T08:37:31Z</time>
      </trkpt>
      <trkpt lat="40.071271000" lon="-8.469331000">
        <ele>133.400000</ele>
        <time>2020-10-17T08:37:32Z</time>
      </trkpt>
      <trkpt lat="40.071277000" lon="-8.469268000">
        <ele>133.400000</ele>
        <time>2020-10-17T08:37:33Z</time>
      </trkpt>
      <trkpt lat="40.071286000" lon="-8.469138000">
        <ele>133.400000</ele>
        <time>2020-10-17T08:37:35Z</time>
      </trkpt>
      <trkpt lat="40.071288000" lon="-8.469081000">
        <ele>133.400000</ele>
        <time>2020-10-17T08:37:36Z</time>
      </trkpt>
      <trkpt lat="40.071291000" lon="-8.469020000">
        <ele>133.400000</ele>
        <time>2020-10-17T08:37:37Z</time>
      </trkpt>
      <trkpt lat="40.071293000" lon="-8.468964000">
        <ele>133.200000</ele>
        <time>2020-10-17T08:37:38Z</time>
      </trkpt>
      <trkpt lat="40.071318000" lon="-8.468838000">
        <ele>133.400000</ele>
        <time>2020-10-17T08:37:40Z</time>
      </trkpt>
      <trkpt lat="40.071332000" lon="-8.468789000">
        <ele>133.400000</ele>
        <time>2020-10-17T08:37:41Z</time>
      </trkpt>
      <trkpt lat="40.071350000" lon="-8.468732000">
        <ele>133.400000</ele>
        <time>2020-10-17T08:37:42Z</time>
      </trkpt>
      <trkpt lat="40.071363000" lon="-8.468670000">
        <ele>133.600000</ele>
        <time>2020-10-17T08:37:43Z</time>
      </trkpt>
      <trkpt lat="40.071382000" lon="-8.468610000">
        <ele>133.400000</ele>
        <time>2020-10-17T08:37:44Z</time>
      </trkpt>
      <trkpt lat="40.071423000" lon="-8.468492000">
        <ele>133.400000</ele>
        <time>2020-10-17T08:37:46Z</time>
      </trkpt>
      <trkpt lat="40.071453000" lon="-8.468382000">
        <ele>133.400000</ele>
        <time>2020-10-17T08:37:48Z</time>
      </trkpt>
      <trkpt lat="40.071478000" lon="-8.468320000">
        <ele>133.400000</ele>
        <time>2020-10-17T08:37:49Z</time>
      </trkpt>
      <trkpt lat="40.071655000" lon="-8.467924000">
        <ele>133.600000</ele>
        <time>2020-10-17T08:37:55Z</time>
      </trkpt>
      <trkpt lat="40.071673000" lon="-8.467867000">
        <ele>133.800000</ele>
        <time>2020-10-17T08:37:56Z</time>
      </trkpt>
      <trkpt lat="40.071722000" lon="-8.467721000">
        <ele>133.800000</ele>
        <time>2020-10-17T08:37:58Z</time>
      </trkpt>
      <trkpt lat="40.071736000" lon="-8.467660000">
        <ele>133.800000</ele>
        <time>2020-10-17T08:37:59Z</time>
      </trkpt>
      <trkpt lat="40.071750000" lon="-8.467589000">
        <ele>133.800000</ele>
        <time>2020-10-17T08:38:00Z</time>
      </trkpt>
      <trkpt lat="40.071760000" lon="-8.467527000">
        <ele>134.000000</ele>
        <time>2020-10-17T08:38:01Z</time>
      </trkpt>
      <trkpt lat="40.071769000" lon="-8.467473000">
        <ele>133.800000</ele>
        <time>2020-10-17T08:38:02Z</time>
      </trkpt>
      <trkpt lat="40.071769000" lon="-8.467433000">
        <ele>133.800000</ele>
        <time>2020-10-17T08:38:03Z</time>
      </trkpt>
      <trkpt lat="40.071759000" lon="-8.467408000">
        <ele>134.000000</ele>
        <time>2020-10-17T08:38:04Z</time>
      </trkpt>
      <trkpt lat="40.071742000" lon="-8.467393000">
        <ele>134.000000</ele>
        <time>2020-10-17T08:38:05Z</time>
      </trkpt>
      <trkpt lat="40.071733000" lon="-8.467379000">
        <ele>134.000000</ele>
        <time>2020-10-17T08:38:06Z</time>
      </trkpt>
      <trkpt lat="40.071734000" lon="-8.467369000">
        <ele>134.000000</ele>
        <time>2020-10-17T08:38:07Z</time>
      </trkpt>
      <trkpt lat="40.071744000" lon="-8.467344000">
        <ele>134.200000</ele>
        <time>2020-10-17T08:38:09Z</time>
      </trkpt>
      <trkpt lat="40.071734000" lon="-8.467286000">
        <ele>135.800000</ele>
        <time>2020-10-17T08:39:56Z</time>
      </trkpt>
      <trkpt lat="40.071719000" lon="-8.467261000">
        <ele>135.800000</ele>
        <time>2020-10-17T08:39:57Z</time>
      </trkpt>
      <trkpt lat="40.071701000" lon="-8.467230000">
        <ele>135.800000</ele>
        <time>2020-10-17T08:39:58Z</time>
      </trkpt>
      <trkpt lat="40.071513000" lon="-8.466939000">
        <ele>135.800000</ele>
        <time>2020-10-17T08:40:06Z</time>
      </trkpt>
      <trkpt lat="40.071380000" lon="-8.466737000">
        <ele>135.800000</ele>
        <time>2020-10-17T08:40:11Z</time>
      </trkpt>
      <trkpt lat="40.071354000" lon="-8.466702000">
        <ele>136.000000</ele>
        <time>2020-10-17T08:40:12Z</time>
      </trkpt>
      <trkpt lat="40.071328000" lon="-8.466673000">
        <ele>135.800000</ele>
        <time>2020-10-17T08:40:13Z</time>
      </trkpt>
      <trkpt lat="40.071311000" lon="-8.466652000">
        <ele>135.800000</ele>
        <time>2020-10-17T08:40:14Z</time>
      </trkpt>
      <trkpt lat="40.071303000" lon="-8.466642000">
        <ele>135.800000</ele>
        <time>2020-10-17T08:40:15Z</time>
      </trkpt>
      <trkpt lat="40.071300000" lon="-8.466639000">
        <ele>135.800000</ele>
        <time>2020-10-17T08:40:16Z</time>
      </trkpt>
      <trkpt lat="40.071300000" lon="-8.466640000">
        <ele>135.800000</ele>
        <time>2020-10-17T08:40:17Z</time>
      </trkpt>
      <trkpt lat="40.071261000" lon="-8.466551000">
        <ele>135.800000</ele>
        <time>2020-10-17T08:40:46Z</time>
      </trkpt>
      <trkpt lat="40.071246000" lon="-8.466527000">
        <ele>135.800000</ele>
        <time>2020-10-17T08:40:47Z</time>
      </trkpt>
      <trkpt lat="40.071226000" lon="-8.466499000">
        <ele>135.600000</ele>
        <time>2020-10-17T08:40:48Z</time>
      </trkpt>
      <trkpt lat="40.071064000" lon="-8.466250000">
        <ele>135.600000</ele>
        <time>2020-10-17T08:40:55Z</time>
      </trkpt>
      <trkpt lat="40.070854000" lon="-8.465904000">
        <ele>135.800000</ele>
        <time>2020-10-17T08:41:03Z</time>
      </trkpt>
      <trkpt lat="40.070826000" lon="-8.465858000">
        <ele>135.800000</ele>
        <time>2020-10-17T08:41:04Z</time>
      </trkpt>
      <trkpt lat="40.070594000" lon="-8.465463000">
        <ele>136.200000</ele>
        <time>2020-10-17T08:41:12Z</time>
      </trkpt>
      <trkpt lat="40.070564000" lon="-8.465411000">
        <ele>136.400000</ele>
        <time>2020-10-17T08:41:13Z</time>
      </trkpt>
      <trkpt lat="40.070534000" lon="-8.465360000">
        <ele>136.400000</ele>
        <time>2020-10-17T08:41:14Z</time>
      </trkpt>
      <trkpt lat="40.070504000" lon="-8.465309000">
        <ele>136.200000</ele>
        <time>2020-10-17T08:41:15Z</time>
      </trkpt>
      <trkpt lat="40.070448000" lon="-8.465205000">
        <ele>136.400000</ele>
        <time>2020-10-17T08:41:17Z</time>
      </trkpt>
      <trkpt lat="40.070420000" lon="-8.465154000">
        <ele>136.600000</ele>
        <time>2020-10-17T08:41:18Z</time>
      </trkpt>
      <trkpt lat="40.070391000" lon="-8.465104000">
        <ele>136.400000</ele>
        <time>2020-10-17T08:41:19Z</time>
      </trkpt>
      <trkpt lat="40.070337000" lon="-8.465002000">
        <ele>136.600000</ele>
        <time>2020-10-17T08:41:21Z</time>
      </trkpt>
      <trkpt lat="40.070308000" lon="-8.464953000">
        <ele>136.600000</ele>
        <time>2020-10-17T08:41:22Z</time>
      </trkpt>
      <trkpt lat="40.070279000" lon="-8.464904000">
        <ele>136.800000</ele>
        <time>2020-10-17T08:41:23Z</time>
      </trkpt>
      <trkpt lat="40.070222000" lon="-8.464806000">
        <ele>137.000000</ele>
        <time>2020-10-17T08:41:25Z</time>
      </trkpt>
      <trkpt lat="40.070193000" lon="-8.464755000">
        <ele>137.000000</ele>
        <time>2020-10-17T08:41:26Z</time>
      </trkpt>
      <trkpt lat="40.070088000" lon="-8.464551000">
        <ele>137.400000</ele>
        <time>2020-10-17T08:41:30Z</time>
      </trkpt>
      <trkpt lat="40.070062000" lon="-8.464498000">
        <ele>137.400000</ele>
        <time>2020-10-17T08:41:31Z</time>
      </trkpt>
      <trkpt lat="40.070016000" lon="-8.464396000">
        <ele>137.800000</ele>
        <time>2020-10-17T08:41:33Z</time>
      </trkpt>
      <trkpt lat="40.069994000" lon="-8.464345000">
        <ele>138.000000</ele>
        <time>2020-10-17T08:41:34Z</time>
      </trkpt>
      <trkpt lat="40.069971000" lon="-8.464294000">
        <ele>138.000000</ele>
        <time>2020-10-17T08:41:35Z</time>
      </trkpt>
      <trkpt lat="40.069949000" lon="-8.464240000">
        <ele>138.400000</ele>
        <time>2020-10-17T08:41:36Z</time>
      </trkpt>
      <trkpt lat="40.069927000" lon="-8.464188000">
        <ele>138.600000</ele>
        <time>2020-10-17T08:41:37Z</time>
      </trkpt>
      <trkpt lat="40.069905000" lon="-8.464135000">
        <ele>138.600000</ele>
        <time>2020-10-17T08:41:38Z</time>
      </trkpt>
      <trkpt lat="40.069883000" lon="-8.464087000">
        <ele>138.600000</ele>
        <time>2020-10-17T08:41:39Z</time>
      </trkpt>
      <trkpt lat="40.069863000" lon="-8.464046000">
        <ele>138.800000</ele>
        <time>2020-10-17T08:41:40Z</time>
      </trkpt>
      <trkpt lat="40.069844000" lon="-8.464007000">
        <ele>139.000000</ele>
        <time>2020-10-17T08:41:41Z</time>
      </trkpt>
      <trkpt lat="40.069828000" lon="-8.463965000">
        <ele>139.200000</ele>
        <time>2020-10-17T08:41:42Z</time>
      </trkpt>
      <trkpt lat="40.069808000" lon="-8.463920000">
        <ele>139.200000</ele>
        <time>2020-10-17T08:41:43Z</time>
      </trkpt>
      <trkpt lat="40.069794000" lon="-8.463876000">
        <ele>139.400000</ele>
        <time>2020-10-17T08:41:44Z</time>
      </trkpt>
      <trkpt lat="40.069776000" lon="-8.463835000">
        <ele>139.600000</ele>
        <time>2020-10-17T08:41:45Z</time>
      </trkpt>
      <trkpt lat="40.069755000" lon="-8.463799000">
        <ele>139.800000</ele>
        <time>2020-10-17T08:41:46Z</time>
      </trkpt>
      <trkpt lat="40.069737000" lon="-8.463761000">
        <ele>139.800000</ele>
        <time>2020-10-17T08:41:47Z</time>
      </trkpt>
      <trkpt lat="40.069719000" lon="-8.463722000">
        <ele>140.200000</ele>
        <time>2020-10-17T08:41:48Z</time>
      </trkpt>
      <trkpt lat="40.069702000" lon="-8.463684000">
        <ele>140.200000</ele>
        <time>2020-10-17T08:41:49Z</time>
      </trkpt>
      <trkpt lat="40.069690000" lon="-8.463645000">
        <ele>140.200000</ele>
        <time>2020-10-17T08:41:50Z</time>
      </trkpt>
      <trkpt lat="40.069667000" lon="-8.463605000">
        <ele>140.400000</ele>
        <time>2020-10-17T08:41:51Z</time>
      </trkpt>
      <trkpt lat="40.069639000" lon="-8.463562000">
        <ele>140.800000</ele>
        <time>2020-10-17T08:41:52Z</time>
      </trkpt>
      <trkpt lat="40.069617000" lon="-8.463525000">
        <ele>140.800000</ele>
        <time>2020-10-17T08:41:53Z</time>
      </trkpt>
      <trkpt lat="40.069599000" lon="-8.463494000">
        <ele>141.000000</ele>
        <time>2020-10-17T08:41:54Z</time>
      </trkpt>
      <trkpt lat="40.069580000" lon="-8.463462000">
        <ele>141.400000</ele>
        <time>2020-10-17T08:41:55Z</time>
      </trkpt>
      <trkpt lat="40.069562000" lon="-8.463425000">
        <ele>141.600000</ele>
        <time>2020-10-17T08:41:56Z</time>
      </trkpt>
      <trkpt lat="40.069542000" lon="-8.463383000">
        <ele>142.200000</ele>
        <time>2020-10-17T08:41:57Z</time>
      </trkpt>
      <trkpt lat="40.069525000" lon="-8.463346000">
        <ele>142.600000</ele>
        <time>2020-10-17T08:41:58Z</time>
      </trkpt>
      <trkpt lat="40.069514000" lon="-8.463309000">
        <ele>142.800000</ele>
        <time>2020-10-17T08:41:59Z</time>
      </trkpt>
      <trkpt lat="40.069508000" lon="-8.463265000">
        <ele>143.400000</ele>
        <time>2020-10-17T08:42:00Z</time>
      </trkpt>
      <trkpt lat="40.069503000" lon="-8.463218000">
        <ele>143.800000</ele>
        <time>2020-10-17T08:42:01Z</time>
      </trkpt>
      <trkpt lat="40.069494000" lon="-8.463173000">
        <ele>144.000000</ele>
        <time>2020-10-17T08:42:02Z</time>
      </trkpt>
      <trkpt lat="40.069482000" lon="-8.463128000">
        <ele>144.400000</ele>
        <time>2020-10-17T08:42:03Z</time>
      </trkpt>
      <trkpt lat="40.069469000" lon="-8.463084000">
        <ele>144.600000</ele>
        <time>2020-10-17T08:42:04Z</time>
      </trkpt>
      <trkpt lat="40.069458000" lon="-8.463033000">
        <ele>144.800000</ele>
        <time>2020-10-17T08:42:05Z</time>
      </trkpt>
      <trkpt lat="40.069442000" lon="-8.462981000">
        <ele>145.200000</ele>
        <time>2020-10-17T08:42:06Z</time>
      </trkpt>
      <trkpt lat="40.069430000" lon="-8.462937000">
        <ele>145.200000</ele>
        <time>2020-10-17T08:42:07Z</time>
      </trkpt>
      <trkpt lat="40.069417000" lon="-8.462893000">
        <ele>145.400000</ele>
        <time>2020-10-17T08:42:08Z</time>
      </trkpt>
      <trkpt lat="40.069404000" lon="-8.462850000">
        <ele>145.400000</ele>
        <time>2020-10-17T08:42:09Z</time>
      </trkpt>
      <trkpt lat="40.069391000" lon="-8.462804000">
        <ele>145.600000</ele>
        <time>2020-10-17T08:42:10Z</time>
      </trkpt>
      <trkpt lat="40.069378000" lon="-8.462755000">
        <ele>145.600000</ele>
        <time>2020-10-17T08:42:11Z</time>
      </trkpt>
      <trkpt lat="40.069364000" lon="-8.462700000">
        <ele>145.800000</ele>
        <time>2020-10-17T08:42:12Z</time>
      </trkpt>
      <trkpt lat="40.069345000" lon="-8.462642000">
        <ele>146.000000</ele>
        <time>2020-10-17T08:42:13Z</time>
      </trkpt>
      <trkpt lat="40.069323000" lon="-8.462587000">
        <ele>146.200000</ele>
        <time>2020-10-17T08:42:14Z</time>
      </trkpt>
      <trkpt lat="40.069303000" lon="-8.462531000">
        <ele>146.200000</ele>
        <time>2020-10-17T08:42:15Z</time>
      </trkpt>
      <trkpt lat="40.069286000" lon="-8.462475000">
        <ele>146.400000</ele>
        <time>2020-10-17T08:42:16Z</time>
      </trkpt>
      <trkpt lat="40.069265000" lon="-8.462421000">
        <ele>146.400000</ele>
        <time>2020-10-17T08:42:17Z</time>
      </trkpt>
      <trkpt lat="40.069240000" lon="-8.462368000">
        <ele>146.400000</ele>
        <time>2020-10-17T08:42:18Z</time>
      </trkpt>
      <trkpt lat="40.069217000" lon="-8.462316000">
        <ele>146.600000</ele>
        <time>2020-10-17T08:42:19Z</time>
      </trkpt>
      <trkpt lat="40.069194000" lon="-8.462269000">
        <ele>146.600000</ele>
        <time>2020-10-17T08:42:20Z</time>
      </trkpt>
      <trkpt lat="40.069171000" lon="-8.462217000">
        <ele>146.600000</ele>
        <time>2020-10-17T08:42:21Z</time>
      </trkpt>
      <trkpt lat="40.069146000" lon="-8.462171000">
        <ele>146.600000</ele>
        <time>2020-10-17T08:42:22Z</time>
      </trkpt>
      <trkpt lat="40.069116000" lon="-8.462125000">
        <ele>146.600000</ele>
        <time>2020-10-17T08:42:23Z</time>
      </trkpt>
      <trkpt lat="40.068949000" lon="-8.461815000">
        <ele>147.000000</ele>
        <time>2020-10-17T08:42:29Z</time>
      </trkpt>
      <trkpt lat="40.068787000" lon="-8.461511000">
        <ele>147.400000</ele>
        <time>2020-10-17T08:42:35Z</time>
      </trkpt>
      <trkpt lat="40.068757000" lon="-8.461463000">
        <ele>147.400000</ele>
        <time>2020-10-17T08:42:36Z</time>
      </trkpt>
      <trkpt lat="40.068728000" lon="-8.461417000">
        <ele>147.400000</ele>
        <time>2020-10-17T08:42:37Z</time>
      </trkpt>
      <trkpt lat="40.068700000" lon="-8.461371000">
        <ele>147.600000</ele>
        <time>2020-10-17T08:42:38Z</time>
      </trkpt>
      <trkpt lat="40.068571000" lon="-8.461188000">
        <ele>147.800000</ele>
        <time>2020-10-17T08:42:42Z</time>
      </trkpt>
      <trkpt lat="40.068498000" lon="-8.461103000">
        <ele>148.200000</ele>
        <time>2020-10-17T08:42:44Z</time>
      </trkpt>
      <trkpt lat="40.068419000" lon="-8.461026000">
        <ele>148.200000</ele>
        <time>2020-10-17T08:42:46Z</time>
      </trkpt>
      <trkpt lat="40.068299000" lon="-8.460921000">
        <ele>148.600000</ele>
        <time>2020-10-17T08:42:49Z</time>
      </trkpt>
      <trkpt lat="40.068260000" lon="-8.460888000">
        <ele>148.800000</ele>
        <time>2020-10-17T08:42:50Z</time>
      </trkpt>
      <trkpt lat="40.068218000" lon="-8.460858000">
        <ele>148.800000</ele>
        <time>2020-10-17T08:42:51Z</time>
      </trkpt>
      <trkpt lat="40.068175000" lon="-8.460827000">
        <ele>149.200000</ele>
        <time>2020-10-17T08:42:52Z</time>
      </trkpt>
      <trkpt lat="40.068133000" lon="-8.460797000">
        <ele>149.200000</ele>
        <time>2020-10-17T08:42:53Z</time>
      </trkpt>
      <trkpt lat="40.068092000" lon="-8.460765000">
        <ele>149.200000</ele>
        <time>2020-10-17T08:42:54Z</time>
      </trkpt>
      <trkpt lat="40.068051000" lon="-8.460731000">
        <ele>149.200000</ele>
        <time>2020-10-17T08:42:55Z</time>
      </trkpt>
      <trkpt lat="40.068010000" lon="-8.460695000">
        <ele>149.600000</ele>
        <time>2020-10-17T08:42:56Z</time>
      </trkpt>
      <trkpt lat="40.067969000" lon="-8.460658000">
        <ele>149.600000</ele>
        <time>2020-10-17T08:42:57Z</time>
      </trkpt>
      <trkpt lat="40.067929000" lon="-8.460620000">
        <ele>149.600000</ele>
        <time>2020-10-17T08:42:58Z</time>
      </trkpt>
      <trkpt lat="40.067888000" lon="-8.460583000">
        <ele>149.800000</ele>
        <time>2020-10-17T08:42:59Z</time>
      </trkpt>
      <trkpt lat="40.067846000" lon="-8.460546000">
        <ele>150.000000</ele>
        <time>2020-10-17T08:43:00Z</time>
      </trkpt>
      <trkpt lat="40.067808000" lon="-8.460508000">
        <ele>150.400000</ele>
        <time>2020-10-17T08:43:01Z</time>
      </trkpt>
      <trkpt lat="40.067768000" lon="-8.460468000">
        <ele>150.600000</ele>
        <time>2020-10-17T08:43:02Z</time>
      </trkpt>
      <trkpt lat="40.067728000" lon="-8.460430000">
        <ele>150.600000</ele>
        <time>2020-10-17T08:43:03Z</time>
      </trkpt>
      <trkpt lat="40.067688000" lon="-8.460394000">
        <ele>150.800000</ele>
        <time>2020-10-17T08:43:04Z</time>
      </trkpt>
      <trkpt lat="40.067649000" lon="-8.460357000">
        <ele>150.800000</ele>
        <time>2020-10-17T08:43:05Z</time>
      </trkpt>
      <trkpt lat="40.067609000" lon="-8.460322000">
        <ele>151.000000</ele>
        <time>2020-10-17T08:43:06Z</time>
      </trkpt>
      <trkpt lat="40.067566000" lon="-8.460287000">
        <ele>150.800000</ele>
        <time>2020-10-17T08:43:07Z</time>
      </trkpt>
      <trkpt lat="40.067481000" lon="-8.460222000">
        <ele>151.000000</ele>
        <time>2020-10-17T08:43:09Z</time>
      </trkpt>
      <trkpt lat="40.067392000" lon="-8.460159000">
        <ele>151.200000</ele>
        <time>2020-10-17T08:43:11Z</time>
      </trkpt>
      <trkpt lat="40.067349000" lon="-8.460131000">
        <ele>151.200000</ele>
        <time>2020-10-17T08:43:12Z</time>
      </trkpt>
      <trkpt lat="40.067265000" lon="-8.460073000">
        <ele>151.200000</ele>
        <time>2020-10-17T08:43:14Z</time>
      </trkpt>
      <trkpt lat="40.067228000" lon="-8.460044000">
        <ele>151.200000</ele>
        <time>2020-10-17T08:43:15Z</time>
      </trkpt>
      <trkpt lat="40.067192000" lon="-8.460014000">
        <ele>151.400000</ele>
        <time>2020-10-17T08:43:16Z</time>
      </trkpt>
      <trkpt lat="40.067159000" lon="-8.459981000">
        <ele>151.400000</ele>
        <time>2020-10-17T08:43:17Z</time>
      </trkpt>
      <trkpt lat="40.067128000" lon="-8.459945000">
        <ele>151.600000</ele>
        <time>2020-10-17T08:43:18Z</time>
      </trkpt>
      <trkpt lat="40.067096000" lon="-8.459911000">
        <ele>151.600000</ele>
        <time>2020-10-17T08:43:19Z</time>
      </trkpt>
      <trkpt lat="40.067061000" lon="-8.459879000">
        <ele>151.600000</ele>
        <time>2020-10-17T08:43:20Z</time>
      </trkpt>
      <trkpt lat="40.067025000" lon="-8.459848000">
        <ele>151.800000</ele>
        <time>2020-10-17T08:43:21Z</time>
      </trkpt>
      <trkpt lat="40.066987000" lon="-8.459817000">
        <ele>152.000000</ele>
        <time>2020-10-17T08:43:22Z</time>
      </trkpt>
      <trkpt lat="40.066949000" lon="-8.459783000">
        <ele>152.200000</ele>
        <time>2020-10-17T08:43:23Z</time>
      </trkpt>
      <trkpt lat="40.066910000" lon="-8.459749000">
        <ele>152.400000</ele>
        <time>2020-10-17T08:43:24Z</time>
      </trkpt>
      <trkpt lat="40.066872000" lon="-8.459713000">
        <ele>152.400000</ele>
        <time>2020-10-17T08:43:25Z</time>
      </trkpt>
      <trkpt lat="40.066833000" lon="-8.459677000">
        <ele>152.800000</ele>
        <time>2020-10-17T08:43:26Z</time>
      </trkpt>
      <trkpt lat="40.066794000" lon="-8.459639000">
        <ele>153.000000</ele>
        <time>2020-10-17T08:43:27Z</time>
      </trkpt>
      <trkpt lat="40.066755000" lon="-8.459602000">
        <ele>153.000000</ele>
        <time>2020-10-17T08:43:28Z</time>
      </trkpt>
      <trkpt lat="40.066714000" lon="-8.459565000">
        <ele>153.200000</ele>
        <time>2020-10-17T08:43:29Z</time>
      </trkpt>
      <trkpt lat="40.066674000" lon="-8.459527000">
        <ele>153.200000</ele>
        <time>2020-10-17T08:43:30Z</time>
      </trkpt>
      <trkpt lat="40.066634000" lon="-8.459487000">
        <ele>153.200000</ele>
        <time>2020-10-17T08:43:31Z</time>
      </trkpt>
      <trkpt lat="40.066593000" lon="-8.459447000">
        <ele>153.400000</ele>
        <time>2020-10-17T08:43:32Z</time>
      </trkpt>
      <trkpt lat="40.066515000" lon="-8.459366000">
        <ele>153.400000</ele>
        <time>2020-10-17T08:43:34Z</time>
      </trkpt>
      <trkpt lat="40.066433000" lon="-8.459295000">
        <ele>153.600000</ele>
        <time>2020-10-17T08:43:36Z</time>
      </trkpt>
      <trkpt lat="40.066392000" lon="-8.459262000">
        <ele>153.600000</ele>
        <time>2020-10-17T08:43:37Z</time>
      </trkpt>
      <trkpt lat="40.066307000" lon="-8.459198000">
        <ele>153.800000</ele>
        <time>2020-10-17T08:43:39Z</time>
      </trkpt>
      <trkpt lat="40.066088000" lon="-8.459068000">
        <ele>154.000000</ele>
        <time>2020-10-17T08:43:44Z</time>
      </trkpt>
      <trkpt lat="40.065951000" lon="-8.459000000">
        <ele>154.200000</ele>
        <time>2020-10-17T08:43:47Z</time>
      </trkpt>
      <trkpt lat="40.065855000" lon="-8.458954000">
        <ele>154.400000</ele>
        <time>2020-10-17T08:43:49Z</time>
      </trkpt>
      <trkpt lat="40.065811000" lon="-8.458931000">
        <ele>154.400000</ele>
        <time>2020-10-17T08:43:50Z</time>
      </trkpt>
      <trkpt lat="40.065766000" lon="-8.458908000">
        <ele>154.400000</ele>
        <time>2020-10-17T08:43:51Z</time>
      </trkpt>
      <trkpt lat="40.065721000" lon="-8.458887000">
        <ele>154.800000</ele>
        <time>2020-10-17T08:43:52Z</time>
      </trkpt>
      <trkpt lat="40.065676000" lon="-8.458867000">
        <ele>155.000000</ele>
        <time>2020-10-17T08:43:53Z</time>
      </trkpt>
      <trkpt lat="40.065631000" lon="-8.458847000">
        <ele>155.000000</ele>
        <time>2020-10-17T08:43:54Z</time>
      </trkpt>
      <trkpt lat="40.065588000" lon="-8.458828000">
        <ele>155.000000</ele>
        <time>2020-10-17T08:43:55Z</time>
      </trkpt>
      <trkpt lat="40.065544000" lon="-8.458806000">
        <ele>155.200000</ele>
        <time>2020-10-17T08:43:56Z</time>
      </trkpt>
      <trkpt lat="40.065501000" lon="-8.458782000">
        <ele>155.400000</ele>
        <time>2020-10-17T08:43:57Z</time>
      </trkpt>
      <trkpt lat="40.065457000" lon="-8.458754000">
        <ele>155.400000</ele>
        <time>2020-10-17T08:43:58Z</time>
      </trkpt>
      <trkpt lat="40.065415000" lon="-8.458724000">
        <ele>155.800000</ele>
        <time>2020-10-17T08:43:59Z</time>
      </trkpt>
      <trkpt lat="40.065375000" lon="-8.458687000">
        <ele>156.000000</ele>
        <time>2020-10-17T08:44:00Z</time>
      </trkpt>
      <trkpt lat="40.065336000" lon="-8.458647000">
        <ele>156.200000</ele>
        <time>2020-10-17T08:44:01Z</time>
      </trkpt>
      <trkpt lat="40.065298000" lon="-8.458606000">
        <ele>156.400000</ele>
        <time>2020-10-17T08:44:02Z</time>
      </trkpt>
      <trkpt lat="40.065261000" lon="-8.458567000">
        <ele>156.600000</ele>
        <time>2020-10-17T08:44:03Z</time>
      </trkpt>
      <trkpt lat="40.065224000" lon="-8.458529000">
        <ele>156.800000</ele>
        <time>2020-10-17T08:44:04Z</time>
      </trkpt>
      <trkpt lat="40.065187000" lon="-8.458491000">
        <ele>156.800000</ele>
        <time>2020-10-17T08:44:05Z</time>
      </trkpt>
      <trkpt lat="40.065149000" lon="-8.458451000">
        <ele>157.000000</ele>
        <time>2020-10-17T08:44:06Z</time>
      </trkpt>
      <trkpt lat="40.065110000" lon="-8.458410000">
        <ele>157.200000</ele>
        <time>2020-10-17T08:44:07Z</time>
      </trkpt>
      <trkpt lat="40.065074000" lon="-8.458367000">
        <ele>157.200000</ele>
        <time>2020-10-17T08:44:08Z</time>
      </trkpt>
      <trkpt lat="40.065038000" lon="-8.458323000">
        <ele>157.400000</ele>
        <time>2020-10-17T08:44:09Z</time>
      </trkpt>
      <trkpt lat="40.065003000" lon="-8.458279000">
        <ele>157.400000</ele>
        <time>2020-10-17T08:44:10Z</time>
      </trkpt>
      <trkpt lat="40.064965000" lon="-8.458236000">
        <ele>157.800000</ele>
        <time>2020-10-17T08:44:11Z</time>
      </trkpt>
      <trkpt lat="40.064929000" lon="-8.458196000">
        <ele>157.800000</ele>
        <time>2020-10-17T08:44:12Z</time>
      </trkpt>
      <trkpt lat="40.064891000" lon="-8.458156000">
        <ele>158.200000</ele>
        <time>2020-10-17T08:44:13Z</time>
      </trkpt>
      <trkpt lat="40.064853000" lon="-8.458117000">
        <ele>158.200000</ele>
        <time>2020-10-17T08:44:14Z</time>
      </trkpt>
      <trkpt lat="40.064815000" lon="-8.458076000">
        <ele>158.200000</ele>
        <time>2020-10-17T08:44:15Z</time>
      </trkpt>
      <trkpt lat="40.064774000" lon="-8.458035000">
        <ele>158.400000</ele>
        <time>2020-10-17T08:44:16Z</time>
      </trkpt>
      <trkpt lat="40.064732000" lon="-8.457995000">
        <ele>158.400000</ele>
        <time>2020-10-17T08:44:17Z</time>
      </trkpt>
      <trkpt lat="40.064688000" lon="-8.457955000">
        <ele>158.600000</ele>
        <time>2020-10-17T08:44:18Z</time>
      </trkpt>
      <trkpt lat="40.064645000" lon="-8.457917000">
        <ele>158.800000</ele>
        <time>2020-10-17T08:44:19Z</time>
      </trkpt>
      <trkpt lat="40.064602000" lon="-8.457881000">
        <ele>159.000000</ele>
        <time>2020-10-17T08:44:20Z</time>
      </trkpt>
      <trkpt lat="40.064559000" lon="-8.457845000">
        <ele>159.200000</ele>
        <time>2020-10-17T08:44:21Z</time>
      </trkpt>
      <trkpt lat="40.064515000" lon="-8.457812000">
        <ele>159.600000</ele>
        <time>2020-10-17T08:44:22Z</time>
      </trkpt>
      <trkpt lat="40.064469000" lon="-8.457779000">
        <ele>159.800000</ele>
        <time>2020-10-17T08:44:23Z</time>
      </trkpt>
      <trkpt lat="40.064424000" lon="-8.457746000">
        <ele>160.000000</ele>
        <time>2020-10-17T08:44:24Z</time>
      </trkpt>
      <trkpt lat="40.064379000" lon="-8.457714000">
        <ele>159.800000</ele>
        <time>2020-10-17T08:44:25Z</time>
      </trkpt>
      <trkpt lat="40.064334000" lon="-8.457680000">
        <ele>160.000000</ele>
        <time>2020-10-17T08:44:26Z</time>
      </trkpt>
      <trkpt lat="40.064290000" lon="-8.457645000">
        <ele>160.000000</ele>
        <time>2020-10-17T08:44:27Z</time>
      </trkpt>
      <trkpt lat="40.064245000" lon="-8.457612000">
        <ele>160.400000</ele>
        <time>2020-10-17T08:44:28Z</time>
      </trkpt>
      <trkpt lat="40.064200000" lon="-8.457580000">
        <ele>160.600000</ele>
        <time>2020-10-17T08:44:29Z</time>
      </trkpt>
      <trkpt lat="40.064155000" lon="-8.457549000">
        <ele>160.600000</ele>
        <time>2020-10-17T08:44:30Z</time>
      </trkpt>
      <trkpt lat="40.064110000" lon="-8.457519000">
        <ele>160.800000</ele>
        <time>2020-10-17T08:44:31Z</time>
      </trkpt>
      <trkpt lat="40.064064000" lon="-8.457488000">
        <ele>160.800000</ele>
        <time>2020-10-17T08:44:32Z</time>
      </trkpt>
      <trkpt lat="40.064016000" lon="-8.457458000">
        <ele>161.000000</ele>
        <time>2020-10-17T08:44:33Z</time>
      </trkpt>
      <trkpt lat="40.063964000" lon="-8.457427000">
        <ele>161.200000</ele>
        <time>2020-10-17T08:44:34Z</time>
      </trkpt>
      <trkpt lat="40.063909000" lon="-8.457394000">
        <ele>161.000000</ele>
        <time>2020-10-17T08:44:35Z</time>
      </trkpt>
      <trkpt lat="40.063850000" lon="-8.457359000">
        <ele>161.000000</ele>
        <time>2020-10-17T08:44:36Z</time>
      </trkpt>
      <trkpt lat="40.063790000" lon="-8.457326000">
        <ele>161.000000</ele>
        <time>2020-10-17T08:44:37Z</time>
      </trkpt>
      <trkpt lat="40.063615000" lon="-8.457217000">
        <ele>161.000000</ele>
        <time>2020-10-17T08:44:40Z</time>
      </trkpt>
      <trkpt lat="40.063559000" lon="-8.457177000">
        <ele>161.200000</ele>
        <time>2020-10-17T08:44:41Z</time>
      </trkpt>
      <trkpt lat="40.063506000" lon="-8.457132000">
        <ele>161.200000</ele>
        <time>2020-10-17T08:44:42Z</time>
      </trkpt>
      <trkpt lat="40.063456000" lon="-8.457083000">
        <ele>161.000000</ele>
        <time>2020-10-17T08:44:43Z</time>
      </trkpt>
      <trkpt lat="40.063409000" lon="-8.457035000">
        <ele>161.200000</ele>
        <time>2020-10-17T08:44:44Z</time>
      </trkpt>
      <trkpt lat="40.063367000" lon="-8.456984000">
        <ele>161.000000</ele>
        <time>2020-10-17T08:44:45Z</time>
      </trkpt>
      <trkpt lat="40.063325000" lon="-8.456933000">
        <ele>160.400000</ele>
        <time>2020-10-17T08:44:46Z</time>
      </trkpt>
      <trkpt lat="40.063284000" lon="-8.456886000">
        <ele>160.400000</ele>
        <time>2020-10-17T08:44:47Z</time>
      </trkpt>
      <trkpt lat="40.063244000" lon="-8.456842000">
        <ele>160.400000</ele>
        <time>2020-10-17T08:44:48Z</time>
      </trkpt>
      <trkpt lat="40.063200000" lon="-8.456800000">
        <ele>160.200000</ele>
        <time>2020-10-17T08:44:49Z</time>
      </trkpt>
      <trkpt lat="40.063156000" lon="-8.456761000">
        <ele>160.200000</ele>
        <time>2020-10-17T08:44:50Z</time>
      </trkpt>
      <trkpt lat="40.063112000" lon="-8.456725000">
        <ele>160.200000</ele>
        <time>2020-10-17T08:44:51Z</time>
      </trkpt>
      <trkpt lat="40.063069000" lon="-8.456692000">
        <ele>160.400000</ele>
        <time>2020-10-17T08:44:52Z</time>
      </trkpt>
      <trkpt lat="40.063024000" lon="-8.456663000">
        <ele>160.400000</ele>
        <time>2020-10-17T08:44:53Z</time>
      </trkpt>
      <trkpt lat="40.062980000" lon="-8.456640000">
        <ele>160.200000</ele>
        <time>2020-10-17T08:44:54Z</time>
      </trkpt>
      <trkpt lat="40.062843000" lon="-8.456587000">
        <ele>160.400000</ele>
        <time>2020-10-17T08:44:57Z</time>
      </trkpt>
      <trkpt lat="40.062798000" lon="-8.456575000">
        <ele>160.800000</ele>
        <time>2020-10-17T08:44:58Z</time>
      </trkpt>
      <trkpt lat="40.062702000" lon="-8.456553000">
        <ele>161.000000</ele>
        <time>2020-10-17T08:45:00Z</time>
      </trkpt>
      <trkpt lat="40.062652000" lon="-8.456544000">
        <ele>161.200000</ele>
        <time>2020-10-17T08:45:01Z</time>
      </trkpt>
      <trkpt lat="40.062601000" lon="-8.456539000">
        <ele>161.600000</ele>
        <time>2020-10-17T08:45:02Z</time>
      </trkpt>
      <trkpt lat="40.062549000" lon="-8.456534000">
        <ele>162.000000</ele>
        <time>2020-10-17T08:45:03Z</time>
      </trkpt>
      <trkpt lat="40.062496000" lon="-8.456531000">
        <ele>162.400000</ele>
        <time>2020-10-17T08:45:04Z</time>
      </trkpt>
      <trkpt lat="40.062442000" lon="-8.456528000">
        <ele>162.400000</ele>
        <time>2020-10-17T08:45:05Z</time>
      </trkpt>
      <trkpt lat="40.062388000" lon="-8.456525000">
        <ele>162.600000</ele>
        <time>2020-10-17T08:45:06Z</time>
      </trkpt>
      <trkpt lat="40.062333000" lon="-8.456524000">
        <ele>162.600000</ele>
        <time>2020-10-17T08:45:07Z</time>
      </trkpt>
      <trkpt lat="40.062099000" lon="-8.456557000">
        <ele>162.600000</ele>
        <time>2020-10-17T08:45:11Z</time>
      </trkpt>
      <trkpt lat="40.062041000" lon="-8.456575000">
        <ele>162.600000</ele>
        <time>2020-10-17T08:45:12Z</time>
      </trkpt>
      <trkpt lat="40.061983000" lon="-8.456592000">
        <ele>162.600000</ele>
        <time>2020-10-17T08:45:13Z</time>
      </trkpt>
      <trkpt lat="40.061926000" lon="-8.456605000">
        <ele>162.600000</ele>
        <time>2020-10-17T08:45:14Z</time>
      </trkpt>
      <trkpt lat="40.061870000" lon="-8.456607000">
        <ele>162.400000</ele>
        <time>2020-10-17T08:45:15Z</time>
      </trkpt>
      <trkpt lat="40.061816000" lon="-8.456592000">
        <ele>162.200000</ele>
        <time>2020-10-17T08:45:16Z</time>
      </trkpt>
      <trkpt lat="40.061764000" lon="-8.456560000">
        <ele>162.200000</ele>
        <time>2020-10-17T08:45:17Z</time>
      </trkpt>
      <trkpt lat="40.061718000" lon="-8.456517000">
        <ele>162.000000</ele>
        <time>2020-10-17T08:45:18Z</time>
      </trkpt>
      <trkpt lat="40.061675000" lon="-8.456468000">
        <ele>161.800000</ele>
        <time>2020-10-17T08:45:19Z</time>
      </trkpt>
      <trkpt lat="40.061634000" lon="-8.456413000">
        <ele>161.800000</ele>
        <time>2020-10-17T08:45:20Z</time>
      </trkpt>
      <trkpt lat="40.061594000" lon="-8.456356000">
        <ele>161.600000</ele>
        <time>2020-10-17T08:45:21Z</time>
      </trkpt>
      <trkpt lat="40.061519000" lon="-8.456234000">
        <ele>161.400000</ele>
        <time>2020-10-17T08:45:23Z</time>
      </trkpt>
      <trkpt lat="40.061482000" lon="-8.456174000">
        <ele>161.400000</ele>
        <time>2020-10-17T08:45:24Z</time>
      </trkpt>
      <trkpt lat="40.061445000" lon="-8.456117000">
        <ele>161.400000</ele>
        <time>2020-10-17T08:45:25Z</time>
      </trkpt>
      <trkpt lat="40.061406000" lon="-8.456059000">
        <ele>161.400000</ele>
        <time>2020-10-17T08:45:26Z</time>
      </trkpt>
      <trkpt lat="40.061288000" lon="-8.455882000">
        <ele>161.200000</ele>
        <time>2020-10-17T08:45:29Z</time>
      </trkpt>
      <trkpt lat="40.061247000" lon="-8.455824000">
        <ele>161.200000</ele>
        <time>2020-10-17T08:45:30Z</time>
      </trkpt>
      <trkpt lat="40.061166000" lon="-8.455703000">
        <ele>161.200000</ele>
        <time>2020-10-17T08:45:32Z</time>
      </trkpt>
      <trkpt lat="40.061103000" lon="-8.455563000">
        <ele>161.200000</ele>
        <time>2020-10-17T08:45:34Z</time>
      </trkpt>
      <trkpt lat="40.061077000" lon="-8.455490000">
        <ele>161.200000</ele>
        <time>2020-10-17T08:45:35Z</time>
      </trkpt>
      <trkpt lat="40.060960000" lon="-8.455202000">
        <ele>160.800000</ele>
        <time>2020-10-17T08:45:39Z</time>
      </trkpt>
      <trkpt lat="40.060924000" lon="-8.455137000">
        <ele>161.000000</ele>
        <time>2020-10-17T08:45:40Z</time>
      </trkpt>
      <trkpt lat="40.060884000" lon="-8.455078000">
        <ele>160.600000</ele>
        <time>2020-10-17T08:45:41Z</time>
      </trkpt>
      <trkpt lat="40.060843000" lon="-8.455021000">
        <ele>160.600000</ele>
        <time>2020-10-17T08:45:42Z</time>
      </trkpt>
      <trkpt lat="40.060801000" lon="-8.454967000">
        <ele>160.400000</ele>
        <time>2020-10-17T08:45:43Z</time>
      </trkpt>
      <trkpt lat="40.060757000" lon="-8.454915000">
        <ele>160.400000</ele>
        <time>2020-10-17T08:45:44Z</time>
      </trkpt>
      <trkpt lat="40.060624000" lon="-8.454770000">
        <ele>160.200000</ele>
        <time>2020-10-17T08:45:47Z</time>
      </trkpt>
      <trkpt lat="40.060578000" lon="-8.454727000">
        <ele>160.200000</ele>
        <time>2020-10-17T08:45:48Z</time>
      </trkpt>
      <trkpt lat="40.060531000" lon="-8.454684000">
        <ele>160.400000</ele>
        <time>2020-10-17T08:45:49Z</time>
      </trkpt>
      <trkpt lat="40.060434000" lon="-8.454599000">
        <ele>160.400000</ele>
        <time>2020-10-17T08:45:51Z</time>
      </trkpt>
      <trkpt lat="40.060180000" lon="-8.454416000">
        <ele>160.200000</ele>
        <time>2020-10-17T08:45:56Z</time>
      </trkpt>
      <trkpt lat="40.060062000" lon="-8.454353000">
        <ele>160.200000</ele>
        <time>2020-10-17T08:45:58Z</time>
      </trkpt>
      <trkpt lat="40.060000000" lon="-8.454334000">
        <ele>160.200000</ele>
        <time>2020-10-17T08:45:59Z</time>
      </trkpt>
      <trkpt lat="40.059939000" lon="-8.454322000">
        <ele>160.200000</ele>
        <time>2020-10-17T08:46:00Z</time>
      </trkpt>
      <trkpt lat="40.059879000" lon="-8.454315000">
        <ele>160.400000</ele>
        <time>2020-10-17T08:46:01Z</time>
      </trkpt>
      <trkpt lat="40.059824000" lon="-8.454304000">
        <ele>160.200000</ele>
        <time>2020-10-17T08:46:02Z</time>
      </trkpt>
      <trkpt lat="40.059775000" lon="-8.454281000">
        <ele>160.400000</ele>
        <time>2020-10-17T08:46:03Z</time>
      </trkpt>
      <trkpt lat="40.059740000" lon="-8.454253000">
        <ele>160.400000</ele>
        <time>2020-10-17T08:46:04Z</time>
      </trkpt>
      <trkpt lat="40.059712000" lon="-8.454223000">
        <ele>160.400000</ele>
        <time>2020-10-17T08:46:05Z</time>
      </trkpt>
      <trkpt lat="40.059685000" lon="-8.454198000">
        <ele>160.400000</ele>
        <time>2020-10-17T08:46:06Z</time>
      </trkpt>
      <trkpt lat="40.059655000" lon="-8.454170000">
        <ele>160.600000</ele>
        <time>2020-10-17T08:46:07Z</time>
      </trkpt>
      <trkpt lat="40.059624000" lon="-8.454140000">
        <ele>160.800000</ele>
        <time>2020-10-17T08:46:08Z</time>
      </trkpt>
      <trkpt lat="40.059568000" lon="-8.454067000">
        <ele>161.000000</ele>
        <time>2020-10-17T08:46:10Z</time>
      </trkpt>
      <trkpt lat="40.059514000" lon="-8.453973000">
        <ele>160.800000</ele>
        <time>2020-10-17T08:46:12Z</time>
      </trkpt>
      <trkpt lat="40.059434000" lon="-8.453803000">
        <ele>160.800000</ele>
        <time>2020-10-17T08:46:15Z</time>
      </trkpt>
      <trkpt lat="40.059402000" lon="-8.453741000">
        <ele>160.800000</ele>
        <time>2020-10-17T08:46:16Z</time>
      </trkpt>
      <trkpt lat="40.059258000" lon="-8.453466000">
        <ele>161.000000</ele>
        <time>2020-10-17T08:46:20Z</time>
      </trkpt>
      <trkpt lat="40.059210000" lon="-8.453392000">
        <ele>161.000000</ele>
        <time>2020-10-17T08:46:21Z</time>
      </trkpt>
      <trkpt lat="40.059099000" lon="-8.453253000">
        <ele>160.800000</ele>
        <time>2020-10-17T08:46:23Z</time>
      </trkpt>
      <trkpt lat="40.059042000" lon="-8.453195000">
        <ele>161.000000</ele>
        <time>2020-10-17T08:46:24Z</time>
      </trkpt>
      <trkpt lat="40.058983000" lon="-8.453141000">
        <ele>160.600000</ele>
        <time>2020-10-17T08:46:25Z</time>
      </trkpt>
      <trkpt lat="40.058865000" lon="-8.453035000">
        <ele>159.800000</ele>
        <time>2020-10-17T08:46:27Z</time>
      </trkpt>
      <trkpt lat="40.058808000" lon="-8.452980000">
        <ele>159.800000</ele>
        <time>2020-10-17T08:46:28Z</time>
      </trkpt>
      <trkpt lat="40.058756000" lon="-8.452923000">
        <ele>159.200000</ele>
        <time>2020-10-17T08:46:29Z</time>
      </trkpt>
      <trkpt lat="40.058706000" lon="-8.452867000">
        <ele>158.400000</ele>
        <time>2020-10-17T08:46:30Z</time>
      </trkpt>
      <trkpt lat="40.058657000" lon="-8.452812000">
        <ele>157.800000</ele>
        <time>2020-10-17T08:46:31Z</time>
      </trkpt>
      <trkpt lat="40.058609000" lon="-8.452762000">
        <ele>157.600000</ele>
        <time>2020-10-17T08:46:32Z</time>
      </trkpt>
      <trkpt lat="40.058565000" lon="-8.452713000">
        <ele>157.200000</ele>
        <time>2020-10-17T08:46:33Z</time>
      </trkpt>
      <trkpt lat="40.058522000" lon="-8.452666000">
        <ele>157.200000</ele>
        <time>2020-10-17T08:46:34Z</time>
      </trkpt>
      <trkpt lat="40.058441000" lon="-8.452564000">
        <ele>157.000000</ele>
        <time>2020-10-17T08:46:36Z</time>
      </trkpt>
      <trkpt lat="40.058403000" lon="-8.452507000">
        <ele>157.000000</ele>
        <time>2020-10-17T08:46:37Z</time>
      </trkpt>
      <trkpt lat="40.058253000" lon="-8.452243000">
        <ele>156.800000</ele>
        <time>2020-10-17T08:46:41Z</time>
      </trkpt>
      <trkpt lat="40.058216000" lon="-8.452161000">
        <ele>156.800000</ele>
        <time>2020-10-17T08:46:42Z</time>
      </trkpt>
      <trkpt lat="40.058141000" lon="-8.451979000">
        <ele>156.600000</ele>
        <time>2020-10-17T08:46:44Z</time>
      </trkpt>
      <trkpt lat="40.058081000" lon="-8.451774000">
        <ele>156.600000</ele>
        <time>2020-10-17T08:46:46Z</time>
      </trkpt>
      <trkpt lat="40.058059000" lon="-8.451662000">
        <ele>156.400000</ele>
        <time>2020-10-17T08:46:47Z</time>
      </trkpt>
      <trkpt lat="40.058033000" lon="-8.451546000">
        <ele>156.000000</ele>
        <time>2020-10-17T08:46:48Z</time>
      </trkpt>
      <trkpt lat="40.057978000" lon="-8.451313000">
        <ele>155.400000</ele>
        <time>2020-10-17T08:46:50Z</time>
      </trkpt>
      <trkpt lat="40.057949000" lon="-8.451200000">
        <ele>154.600000</ele>
        <time>2020-10-17T08:46:51Z</time>
      </trkpt>
      <trkpt lat="40.057916000" lon="-8.451100000">
        <ele>153.800000</ele>
        <time>2020-10-17T08:46:52Z</time>
      </trkpt>
      <trkpt lat="40.057883000" lon="-8.451014000">
        <ele>153.000000</ele>
        <time>2020-10-17T08:46:53Z</time>
      </trkpt>
      <trkpt lat="40.057852000" lon="-8.450947000">
        <ele>152.200000</ele>
        <time>2020-10-17T08:46:54Z</time>
      </trkpt>
      <trkpt lat="40.057823000" lon="-8.450893000">
        <ele>151.000000</ele>
        <time>2020-10-17T08:46:55Z</time>
      </trkpt>
      <trkpt lat="40.057794000" lon="-8.450853000">
        <ele>150.200000</ele>
        <time>2020-10-17T08:46:56Z</time>
      </trkpt>
      <trkpt lat="40.057764000" lon="-8.450821000">
        <ele>149.200000</ele>
        <time>2020-10-17T08:46:57Z</time>
      </trkpt>
      <trkpt lat="40.057733000" lon="-8.450792000">
        <ele>148.800000</ele>
        <time>2020-10-17T08:46:58Z</time>
      </trkpt>
      <trkpt lat="40.057702000" lon="-8.450762000">
        <ele>148.400000</ele>
        <time>2020-10-17T08:46:59Z</time>
      </trkpt>
      <trkpt lat="40.057673000" lon="-8.450731000">
        <ele>148.200000</ele>
        <time>2020-10-17T08:47:00Z</time>
      </trkpt>
      <trkpt lat="40.057657000" lon="-8.450695000">
        <ele>148.200000</ele>
        <time>2020-10-17T08:47:01Z</time>
      </trkpt>
      <trkpt lat="40.057653000" lon="-8.450653000">
        <ele>147.600000</ele>
        <time>2020-10-17T08:47:02Z</time>
      </trkpt>
      <trkpt lat="40.057654000" lon="-8.450607000">
        <ele>147.200000</ele>
        <time>2020-10-17T08:47:03Z</time>
      </trkpt>
      <trkpt lat="40.057658000" lon="-8.450560000">
        <ele>147.200000</ele>
        <time>2020-10-17T08:47:04Z</time>
      </trkpt>
      <trkpt lat="40.057663000" lon="-8.450510000">
        <ele>146.800000</ele>
        <time>2020-10-17T08:47:05Z</time>
      </trkpt>
      <trkpt lat="40.057666000" lon="-8.450403000">
        <ele>146.600000</ele>
        <time>2020-10-17T08:47:07Z</time>
      </trkpt>
      <trkpt lat="40.057640000" lon="-8.450285000">
        <ele>146.400000</ele>
        <time>2020-10-17T08:47:09Z</time>
      </trkpt>
      <trkpt lat="40.057614000" lon="-8.450229000">
        <ele>146.400000</ele>
        <time>2020-10-17T08:47:10Z</time>
      </trkpt>
      <trkpt lat="40.057582000" lon="-8.450174000">
        <ele>146.400000</ele>
        <time>2020-10-17T08:47:11Z</time>
      </trkpt>
      <trkpt lat="40.057542000" lon="-8.450129000">
        <ele>146.400000</ele>
        <time>2020-10-17T08:47:12Z</time>
      </trkpt>
      <trkpt lat="40.057500000" lon="-8.450090000">
        <ele>146.400000</ele>
        <time>2020-10-17T08:47:13Z</time>
      </trkpt>
      <trkpt lat="40.057456000" lon="-8.450059000">
        <ele>146.600000</ele>
        <time>2020-10-17T08:47:14Z</time>
      </trkpt>
      <trkpt lat="40.057408000" lon="-8.450035000">
        <ele>146.400000</ele>
        <time>2020-10-17T08:47:15Z</time>
      </trkpt>
      <trkpt lat="40.057261000" lon="-8.449945000">
        <ele>146.400000</ele>
        <time>2020-10-17T08:47:18Z</time>
      </trkpt>
      <trkpt lat="40.057181000" lon="-8.449860000">
        <ele>146.400000</ele>
        <time>2020-10-17T08:47:20Z</time>
      </trkpt>
      <trkpt lat="40.057145000" lon="-8.449815000">
        <ele>146.400000</ele>
        <time>2020-10-17T08:47:21Z</time>
      </trkpt>
      <trkpt lat="40.057111000" lon="-8.449770000">
        <ele>146.400000</ele>
        <time>2020-10-17T08:47:22Z</time>
      </trkpt>
      <trkpt lat="40.057079000" lon="-8.449724000">
        <ele>146.400000</ele>
        <time>2020-10-17T08:47:23Z</time>
      </trkpt>
      <trkpt lat="40.057048000" lon="-8.449676000">
        <ele>146.400000</ele>
        <time>2020-10-17T08:47:24Z</time>
      </trkpt>
      <trkpt lat="40.057020000" lon="-8.449627000">
        <ele>146.400000</ele>
        <time>2020-10-17T08:47:25Z</time>
      </trkpt>
      <trkpt lat="40.056995000" lon="-8.449576000">
        <ele>146.600000</ele>
        <time>2020-10-17T08:47:26Z</time>
      </trkpt>
      <trkpt lat="40.056974000" lon="-8.449527000">
        <ele>146.600000</ele>
        <time>2020-10-17T08:47:27Z</time>
      </trkpt>
      <trkpt lat="40.056959000" lon="-8.449478000">
        <ele>146.600000</ele>
        <time>2020-10-17T08:47:28Z</time>
      </trkpt>
      <trkpt lat="40.056950000" lon="-8.449431000">
        <ele>146.800000</ele>
        <time>2020-10-17T08:47:29Z</time>
      </trkpt>
      <trkpt lat="40.056944000" lon="-8.449384000">
        <ele>147.000000</ele>
        <time>2020-10-17T08:47:30Z</time>
      </trkpt>
      <trkpt lat="40.056942000" lon="-8.449339000">
        <ele>147.200000</ele>
        <time>2020-10-17T08:47:31Z</time>
      </trkpt>
      <trkpt lat="40.056942000" lon="-8.449298000">
        <ele>147.200000</ele>
        <time>2020-10-17T08:47:32Z</time>
      </trkpt>
      <trkpt lat="40.056940000" lon="-8.449262000">
        <ele>147.200000</ele>
        <time>2020-10-17T08:47:33Z</time>
      </trkpt>
      <trkpt lat="40.056935000" lon="-8.449226000">
        <ele>147.200000</ele>
        <time>2020-10-17T08:47:34Z</time>
      </trkpt>
      <trkpt lat="40.056932000" lon="-8.449189000">
        <ele>147.400000</ele>
        <time>2020-10-17T08:47:35Z</time>
      </trkpt>
      <trkpt lat="40.056929000" lon="-8.449153000">
        <ele>147.800000</ele>
        <time>2020-10-17T08:47:36Z</time>
      </trkpt>
      <trkpt lat="40.056921000" lon="-8.449120000">
        <ele>148.000000</ele>
        <time>2020-10-17T08:47:37Z</time>
      </trkpt>
      <trkpt lat="40.056912000" lon="-8.449087000">
        <ele>148.200000</ele>
        <time>2020-10-17T08:47:38Z</time>
      </trkpt>
      <trkpt lat="40.056900000" lon="-8.449054000">
        <ele>148.600000</ele>
        <time>2020-10-17T08:47:39Z</time>
      </trkpt>
      <trkpt lat="40.056889000" lon="-8.449022000">
        <ele>148.800000</ele>
        <time>2020-10-17T08:47:40Z</time>
      </trkpt>
      <trkpt lat="40.056878000" lon="-8.448987000">
        <ele>149.200000</ele>
        <time>2020-10-17T08:47:41Z</time>
      </trkpt>
      <trkpt lat="40.056865000" lon="-8.448953000">
        <ele>149.200000</ele>
        <time>2020-10-17T08:47:42Z</time>
      </trkpt>
      <trkpt lat="40.056852000" lon="-8.448919000">
        <ele>149.800000</ele>
        <time>2020-10-17T08:47:43Z</time>
      </trkpt>
      <trkpt lat="40.056837000" lon="-8.448886000">
        <ele>150.000000</ele>
        <time>2020-10-17T08:47:44Z</time>
      </trkpt>
      <trkpt lat="40.056825000" lon="-8.448852000">
        <ele>150.400000</ele>
        <time>2020-10-17T08:47:45Z</time>
      </trkpt>
      <trkpt lat="40.056813000" lon="-8.448820000">
        <ele>150.600000</ele>
        <time>2020-10-17T08:47:46Z</time>
      </trkpt>
      <trkpt lat="40.056799000" lon="-8.448789000">
        <ele>151.200000</ele>
        <time>2020-10-17T08:47:47Z</time>
      </trkpt>
      <trkpt lat="40.056789000" lon="-8.448759000">
        <ele>151.200000</ele>
        <time>2020-10-17T08:47:48Z</time>
      </trkpt>
      <trkpt lat="40.056774000" lon="-8.448727000">
        <ele>151.600000</ele>
        <time>2020-10-17T08:47:49Z</time>
      </trkpt>
      <trkpt lat="40.056763000" lon="-8.448695000">
        <ele>152.000000</ele>
        <time>2020-10-17T08:47:50Z</time>
      </trkpt>
      <trkpt lat="40.056749000" lon="-8.448664000">
        <ele>152.400000</ele>
        <time>2020-10-17T08:47:51Z</time>
      </trkpt>
      <trkpt lat="40.056739000" lon="-8.448634000">
        <ele>152.600000</ele>
        <time>2020-10-17T08:47:52Z</time>
      </trkpt>
      <trkpt lat="40.056728000" lon="-8.448603000">
        <ele>153.000000</ele>
        <time>2020-10-17T08:47:53Z</time>
      </trkpt>
      <trkpt lat="40.056716000" lon="-8.448570000">
        <ele>153.200000</ele>
        <time>2020-10-17T08:47:54Z</time>
      </trkpt>
      <trkpt lat="40.056706000" lon="-8.448538000">
        <ele>153.400000</ele>
        <time>2020-10-17T08:47:55Z</time>
      </trkpt>
      <trkpt lat="40.056694000" lon="-8.448502000">
        <ele>153.600000</ele>
        <time>2020-10-17T08:47:56Z</time>
      </trkpt>
      <trkpt lat="40.056682000" lon="-8.448467000">
        <ele>153.800000</ele>
        <time>2020-10-17T08:47:57Z</time>
      </trkpt>
      <trkpt lat="40.056669000" lon="-8.448431000">
        <ele>154.200000</ele>
        <time>2020-10-17T08:47:58Z</time>
      </trkpt>
      <trkpt lat="40.056655000" lon="-8.448395000">
        <ele>154.400000</ele>
        <time>2020-10-17T08:47:59Z</time>
      </trkpt>
      <trkpt lat="40.056642000" lon="-8.448362000">
        <ele>154.600000</ele>
        <time>2020-10-17T08:48:00Z</time>
      </trkpt>
      <trkpt lat="40.056628000" lon="-8.448327000">
        <ele>155.000000</ele>
        <time>2020-10-17T08:48:01Z</time>
      </trkpt>
      <trkpt lat="40.056615000" lon="-8.448290000">
        <ele>155.000000</ele>
        <time>2020-10-17T08:48:02Z</time>
      </trkpt>
      <trkpt lat="40.056602000" lon="-8.448255000">
        <ele>155.200000</ele>
        <time>2020-10-17T08:48:03Z</time>
      </trkpt>
      <trkpt lat="40.056591000" lon="-8.448219000">
        <ele>155.200000</ele>
        <time>2020-10-17T08:48:04Z</time>
      </trkpt>
      <trkpt lat="40.056579000" lon="-8.448184000">
        <ele>155.400000</ele>
        <time>2020-10-17T08:48:05Z</time>
      </trkpt>
      <trkpt lat="40.056568000" lon="-8.448149000">
        <ele>155.800000</ele>
        <time>2020-10-17T08:48:06Z</time>
      </trkpt>
      <trkpt lat="40.056557000" lon="-8.448115000">
        <ele>156.000000</ele>
        <time>2020-10-17T08:48:07Z</time>
      </trkpt>
      <trkpt lat="40.056545000" lon="-8.448080000">
        <ele>156.200000</ele>
        <time>2020-10-17T08:48:08Z</time>
      </trkpt>
      <trkpt lat="40.056531000" lon="-8.448043000">
        <ele>156.400000</ele>
        <time>2020-10-17T08:48:09Z</time>
      </trkpt>
      <trkpt lat="40.056516000" lon="-8.448007000">
        <ele>156.600000</ele>
        <time>2020-10-17T08:48:10Z</time>
      </trkpt>
      <trkpt lat="40.056506000" lon="-8.447971000">
        <ele>156.800000</ele>
        <time>2020-10-17T08:48:11Z</time>
      </trkpt>
      <trkpt lat="40.056499000" lon="-8.447937000">
        <ele>157.000000</ele>
        <time>2020-10-17T08:48:12Z</time>
      </trkpt>
      <trkpt lat="40.056491000" lon="-8.447902000">
        <ele>157.200000</ele>
        <time>2020-10-17T08:48:13Z</time>
      </trkpt>
      <trkpt lat="40.056482000" lon="-8.447867000">
        <ele>157.400000</ele>
        <time>2020-10-17T08:48:14Z</time>
      </trkpt>
      <trkpt lat="40.056472000" lon="-8.447824000">
        <ele>157.400000</ele>
        <time>2020-10-17T08:48:15Z</time>
      </trkpt>
      <trkpt lat="40.056462000" lon="-8.447786000">
        <ele>157.400000</ele>
        <time>2020-10-17T08:48:16Z</time>
      </trkpt>
      <trkpt lat="40.056455000" lon="-8.447745000">
        <ele>157.800000</ele>
        <time>2020-10-17T08:48:17Z</time>
      </trkpt>
      <trkpt lat="40.056445000" lon="-8.447704000">
        <ele>157.800000</ele>
        <time>2020-10-17T08:48:18Z</time>
      </trkpt>
      <trkpt lat="40.056438000" lon="-8.447663000">
        <ele>157.800000</ele>
        <time>2020-10-17T08:48:19Z</time>
      </trkpt>
      <trkpt lat="40.056430000" lon="-8.447624000">
        <ele>158.000000</ele>
        <time>2020-10-17T08:48:20Z</time>
      </trkpt>
      <trkpt lat="40.056422000" lon="-8.447588000">
        <ele>158.000000</ele>
        <time>2020-10-17T08:48:21Z</time>
      </trkpt>
      <trkpt lat="40.056413000" lon="-8.447554000">
        <ele>158.200000</ele>
        <time>2020-10-17T08:48:22Z</time>
      </trkpt>
      <trkpt lat="40.056402000" lon="-8.447518000">
        <ele>158.400000</ele>
        <time>2020-10-17T08:48:23Z</time>
      </trkpt>
      <trkpt lat="40.056389000" lon="-8.447480000">
        <ele>158.400000</ele>
        <time>2020-10-17T08:48:24Z</time>
      </trkpt>
      <trkpt lat="40.056376000" lon="-8.447443000">
        <ele>158.400000</ele>
        <time>2020-10-17T08:48:25Z</time>
      </trkpt>
      <trkpt lat="40.056363000" lon="-8.447405000">
        <ele>158.400000</ele>
        <time>2020-10-17T08:48:26Z</time>
      </trkpt>
      <trkpt lat="40.056350000" lon="-8.447367000">
        <ele>158.600000</ele>
        <time>2020-10-17T08:48:27Z</time>
      </trkpt>
      <trkpt lat="40.056342000" lon="-8.447332000">
        <ele>158.600000</ele>
        <time>2020-10-17T08:48:28Z</time>
      </trkpt>
      <trkpt lat="40.056329000" lon="-8.447295000">
        <ele>159.000000</ele>
        <time>2020-10-17T08:48:29Z</time>
      </trkpt>
      <trkpt lat="40.056319000" lon="-8.447257000">
        <ele>159.000000</ele>
        <time>2020-10-17T08:48:30Z</time>
      </trkpt>
      <trkpt lat="40.056308000" lon="-8.447223000">
        <ele>159.200000</ele>
        <time>2020-10-17T08:48:31Z</time>
      </trkpt>
      <trkpt lat="40.056296000" lon="-8.447189000">
        <ele>159.600000</ele>
        <time>2020-10-17T08:48:32Z</time>
      </trkpt>
      <trkpt lat="40.056281000" lon="-8.447155000">
        <ele>159.600000</ele>
        <time>2020-10-17T08:48:33Z</time>
      </trkpt>
      <trkpt lat="40.056269000" lon="-8.447119000">
        <ele>159.800000</ele>
        <time>2020-10-17T08:48:34Z</time>
      </trkpt>
      <trkpt lat="40.056253000" lon="-8.447078000">
        <ele>159.800000</ele>
        <time>2020-10-17T08:48:35Z</time>
      </trkpt>
      <trkpt lat="40.056234000" lon="-8.447041000">
        <ele>160.200000</ele>
        <time>2020-10-17T08:48:36Z</time>
      </trkpt>
      <trkpt lat="40.056215000" lon="-8.446999000">
        <ele>160.400000</ele>
        <time>2020-10-17T08:48:37Z</time>
      </trkpt>
      <trkpt lat="40.056199000" lon="-8.446957000">
        <ele>160.600000</ele>
        <time>2020-10-17T08:48:38Z</time>
      </trkpt>
      <trkpt lat="40.056184000" lon="-8.446915000">
        <ele>161.000000</ele>
        <time>2020-10-17T08:48:39Z</time>
      </trkpt>
      <trkpt lat="40.056170000" lon="-8.446874000">
        <ele>161.200000</ele>
        <time>2020-10-17T08:48:40Z</time>
      </trkpt>
      <trkpt lat="40.056149000" lon="-8.446829000">
        <ele>161.200000</ele>
        <time>2020-10-17T08:48:41Z</time>
      </trkpt>
      <trkpt lat="40.056125000" lon="-8.446781000">
        <ele>161.400000</ele>
        <time>2020-10-17T08:48:42Z</time>
      </trkpt>
      <trkpt lat="40.056099000" lon="-8.446737000">
        <ele>161.600000</ele>
        <time>2020-10-17T08:48:43Z</time>
      </trkpt>
      <trkpt lat="40.056076000" lon="-8.446696000">
        <ele>161.600000</ele>
        <time>2020-10-17T08:48:44Z</time>
      </trkpt>
      <trkpt lat="40.056051000" lon="-8.446654000">
        <ele>161.600000</ele>
        <time>2020-10-17T08:48:45Z</time>
      </trkpt>
      <trkpt lat="40.056027000" lon="-8.446617000">
        <ele>161.600000</ele>
        <time>2020-10-17T08:48:46Z</time>
      </trkpt>
      <trkpt lat="40.056000000" lon="-8.446578000">
        <ele>161.800000</ele>
        <time>2020-10-17T08:48:47Z</time>
      </trkpt>
      <trkpt lat="40.055973000" lon="-8.446536000">
        <ele>162.000000</ele>
        <time>2020-10-17T08:48:48Z</time>
      </trkpt>
      <trkpt lat="40.055948000" lon="-8.446490000">
        <ele>162.200000</ele>
        <time>2020-10-17T08:48:49Z</time>
      </trkpt>
      <trkpt lat="40.055922000" lon="-8.446447000">
        <ele>162.200000</ele>
        <time>2020-10-17T08:48:50Z</time>
      </trkpt>
      <trkpt lat="40.055898000" lon="-8.446406000">
        <ele>162.400000</ele>
        <time>2020-10-17T08:48:51Z</time>
      </trkpt>
      <trkpt lat="40.055882000" lon="-8.446363000">
        <ele>162.400000</ele>
        <time>2020-10-17T08:48:52Z</time>
      </trkpt>
      <trkpt lat="40.055865000" lon="-8.446323000">
        <ele>162.400000</ele>
        <time>2020-10-17T08:48:53Z</time>
      </trkpt>
      <trkpt lat="40.055844000" lon="-8.446284000">
        <ele>162.600000</ele>
        <time>2020-10-17T08:48:54Z</time>
      </trkpt>
      <trkpt lat="40.055819000" lon="-8.446244000">
        <ele>162.600000</ele>
        <time>2020-10-17T08:48:55Z</time>
      </trkpt>
      <trkpt lat="40.055790000" lon="-8.446207000">
        <ele>162.600000</ele>
        <time>2020-10-17T08:48:56Z</time>
      </trkpt>
      <trkpt lat="40.055762000" lon="-8.446177000">
        <ele>162.600000</ele>
        <time>2020-10-17T08:48:57Z</time>
      </trkpt>
      <trkpt lat="40.055734000" lon="-8.446154000">
        <ele>162.600000</ele>
        <time>2020-10-17T08:48:58Z</time>
      </trkpt>
      <trkpt lat="40.055705000" lon="-8.446142000">
        <ele>162.800000</ele>
        <time>2020-10-17T08:48:59Z</time>
      </trkpt>
      <trkpt lat="40.055670000" lon="-8.446139000">
        <ele>163.000000</ele>
        <time>2020-10-17T08:49:00Z</time>
      </trkpt>
      <trkpt lat="40.055629000" lon="-8.446148000">
        <ele>163.200000</ele>
        <time>2020-10-17T08:49:01Z</time>
      </trkpt>
      <trkpt lat="40.055585000" lon="-8.446164000">
        <ele>163.600000</ele>
        <time>2020-10-17T08:49:02Z</time>
      </trkpt>
      <trkpt lat="40.055538000" lon="-8.446187000">
        <ele>163.600000</ele>
        <time>2020-10-17T08:49:03Z</time>
      </trkpt>
      <trkpt lat="40.055492000" lon="-8.446218000">
        <ele>163.800000</ele>
        <time>2020-10-17T08:49:04Z</time>
      </trkpt>
      <trkpt lat="40.055447000" lon="-8.446257000">
        <ele>163.600000</ele>
        <time>2020-10-17T08:49:05Z</time>
      </trkpt>
      <trkpt lat="40.055354000" lon="-8.446357000">
        <ele>163.800000</ele>
        <time>2020-10-17T08:49:07Z</time>
      </trkpt>
      <trkpt lat="40.055309000" lon="-8.446417000">
        <ele>163.600000</ele>
        <time>2020-10-17T08:49:08Z</time>
      </trkpt>
      <trkpt lat="40.055222000" lon="-8.446557000">
        <ele>163.600000</ele>
        <time>2020-10-17T08:49:10Z</time>
      </trkpt>
      <trkpt lat="40.055151000" lon="-8.446701000">
        <ele>163.600000</ele>
        <time>2020-10-17T08:49:12Z</time>
      </trkpt>
      <trkpt lat="40.055121000" lon="-8.446743000">
        <ele>163.400000</ele>
        <time>2020-10-17T08:49:13Z</time>
      </trkpt>
      <trkpt lat="40.055092000" lon="-8.446760000">
        <ele>163.200000</ele>
        <time>2020-10-17T08:49:14Z</time>
      </trkpt>
      <trkpt lat="40.055059000" lon="-8.446760000">
        <ele>162.800000</ele>
        <time>2020-10-17T08:49:15Z</time>
      </trkpt>
      <trkpt lat="40.054986000" lon="-8.446748000">
        <ele>161.600000</ele>
        <time>2020-10-17T08:49:17Z</time>
      </trkpt>
      <trkpt lat="40.054951000" lon="-8.446745000">
        <ele>161.000000</ele>
        <time>2020-10-17T08:49:18Z</time>
      </trkpt>
      <trkpt lat="40.054918000" lon="-8.446745000">
        <ele>160.400000</ele>
        <time>2020-10-17T08:49:19Z</time>
      </trkpt>
      <trkpt lat="40.054882000" lon="-8.446747000">
        <ele>159.600000</ele>
        <time>2020-10-17T08:49:20Z</time>
      </trkpt>
      <trkpt lat="40.054840000" lon="-8.446752000">
        <ele>159.000000</ele>
        <time>2020-10-17T08:49:21Z</time>
      </trkpt>
      <trkpt lat="40.054806000" lon="-8.446755000">
        <ele>158.600000</ele>
        <time>2020-10-17T08:49:22Z</time>
      </trkpt>
      <trkpt lat="40.054783000" lon="-8.446743000">
        <ele>158.000000</ele>
        <time>2020-10-17T08:49:23Z</time>
      </trkpt>
      <trkpt lat="40.054764000" lon="-8.446719000">
        <ele>157.600000</ele>
        <time>2020-10-17T08:49:24Z</time>
      </trkpt>
      <trkpt lat="40.054756000" lon="-8.446685000">
        <ele>157.400000</ele>
        <time>2020-10-17T08:49:25Z</time>
      </trkpt>
      <trkpt lat="40.054741000" lon="-8.446601000">
        <ele>156.800000</ele>
        <time>2020-10-17T08:49:27Z</time>
      </trkpt>
      <trkpt lat="40.054736000" lon="-8.446560000">
        <ele>156.800000</ele>
        <time>2020-10-17T08:49:28Z</time>
      </trkpt>
      <trkpt lat="40.054730000" lon="-8.446519000">
        <ele>156.800000</ele>
        <time>2020-10-17T08:49:29Z</time>
      </trkpt>
      <trkpt lat="40.054709000" lon="-8.446388000">
        <ele>156.800000</ele>
        <time>2020-10-17T08:49:32Z</time>
      </trkpt>
      <trkpt lat="40.054694000" lon="-8.446301000">
        <ele>156.600000</ele>
        <time>2020-10-17T08:49:34Z</time>
      </trkpt>
      <trkpt lat="40.054687000" lon="-8.446259000">
        <ele>156.600000</ele>
        <time>2020-10-17T08:49:35Z</time>
      </trkpt>
      <trkpt lat="40.054683000" lon="-8.446219000">
        <ele>156.600000</ele>
        <time>2020-10-17T08:49:36Z</time>
      </trkpt>
      <trkpt lat="40.054678000" lon="-8.446179000">
        <ele>156.600000</ele>
        <time>2020-10-17T08:49:37Z</time>
      </trkpt>
      <trkpt lat="40.054676000" lon="-8.446142000">
        <ele>156.600000</ele>
        <time>2020-10-17T08:49:38Z</time>
      </trkpt>
      <trkpt lat="40.054670000" lon="-8.446109000">
        <ele>157.000000</ele>
        <time>2020-10-17T08:49:39Z</time>
      </trkpt>
      <trkpt lat="40.054652000" lon="-8.446081000">
        <ele>157.400000</ele>
        <time>2020-10-17T08:49:40Z</time>
      </trkpt>
      <trkpt lat="40.054599000" lon="-8.446056000">
        <ele>158.200000</ele>
        <time>2020-10-17T08:49:42Z</time>
      </trkpt>
      <trkpt lat="40.054557000" lon="-8.446062000">
        <ele>158.600000</ele>
        <time>2020-10-17T08:49:43Z</time>
      </trkpt>
      <trkpt lat="40.054507000" lon="-8.446077000">
        <ele>158.800000</ele>
        <time>2020-10-17T08:49:44Z</time>
      </trkpt>
      <trkpt lat="40.054455000" lon="-8.446097000">
        <ele>159.000000</ele>
        <time>2020-10-17T08:49:45Z</time>
      </trkpt>
      <trkpt lat="40.054402000" lon="-8.446117000">
        <ele>159.000000</ele>
        <time>2020-10-17T08:49:46Z</time>
      </trkpt>
      <trkpt lat="40.054346000" lon="-8.446134000">
        <ele>159.200000</ele>
        <time>2020-10-17T08:49:47Z</time>
      </trkpt>
      <trkpt lat="40.054217000" lon="-8.446125000">
        <ele>159.200000</ele>
        <time>2020-10-17T08:49:49Z</time>
      </trkpt>
      <trkpt lat="40.054153000" lon="-8.446110000">
        <ele>159.200000</ele>
        <time>2020-10-17T08:49:50Z</time>
      </trkpt>
      <trkpt lat="40.054018000" lon="-8.446078000">
        <ele>159.000000</ele>
        <time>2020-10-17T08:49:52Z</time>
      </trkpt>
      <trkpt lat="40.053804000" lon="-8.446004000">
        <ele>159.000000</ele>
        <time>2020-10-17T08:49:55Z</time>
      </trkpt>
      <trkpt lat="40.053727000" lon="-8.445978000">
        <ele>158.600000</ele>
        <time>2020-10-17T08:49:56Z</time>
      </trkpt>
      <trkpt lat="40.053646000" lon="-8.445955000">
        <ele>158.200000</ele>
        <time>2020-10-17T08:49:57Z</time>
      </trkpt>
      <trkpt lat="40.053479000" lon="-8.445912000">
        <ele>157.600000</ele>
        <time>2020-10-17T08:49:59Z</time>
      </trkpt>
      <trkpt lat="40.053312000" lon="-8.445893000">
        <ele>157.000000</ele>
        <time>2020-10-17T08:50:01Z</time>
      </trkpt>
      <trkpt lat="40.053147000" lon="-8.445884000">
        <ele>156.000000</ele>
        <time>2020-10-17T08:50:03Z</time>
      </trkpt>
      <trkpt lat="40.052978000" lon="-8.445879000">
        <ele>155.200000</ele>
        <time>2020-10-17T08:50:05Z</time>
      </trkpt>
      <trkpt lat="40.052808000" lon="-8.445880000">
        <ele>154.000000</ele>
        <time>2020-10-17T08:50:07Z</time>
      </trkpt>
      <trkpt lat="40.052725000" lon="-8.445886000">
        <ele>153.600000</ele>
        <time>2020-10-17T08:50:08Z</time>
      </trkpt>
      <trkpt lat="40.052645000" lon="-8.445895000">
        <ele>153.200000</ele>
        <time>2020-10-17T08:50:09Z</time>
      </trkpt>
      <trkpt lat="40.052568000" lon="-8.445907000">
        <ele>153.200000</ele>
        <time>2020-10-17T08:50:10Z</time>
      </trkpt>
      <trkpt lat="40.052497000" lon="-8.445922000">
        <ele>153.000000</ele>
        <time>2020-10-17T08:50:11Z</time>
      </trkpt>
      <trkpt lat="40.052432000" lon="-8.445939000">
        <ele>152.600000</ele>
        <time>2020-10-17T08:50:12Z</time>
      </trkpt>
      <trkpt lat="40.052370000" lon="-8.445958000">
        <ele>152.200000</ele>
        <time>2020-10-17T08:50:13Z</time>
      </trkpt>
      <trkpt lat="40.052312000" lon="-8.445978000">
        <ele>152.000000</ele>
        <time>2020-10-17T08:50:14Z</time>
      </trkpt>
      <trkpt lat="40.052256000" lon="-8.446002000">
        <ele>151.800000</ele>
        <time>2020-10-17T08:50:15Z</time>
      </trkpt>
      <trkpt lat="40.052197000" lon="-8.446025000">
        <ele>152.000000</ele>
        <time>2020-10-17T08:50:16Z</time>
      </trkpt>
      <trkpt lat="40.052142000" lon="-8.446044000">
        <ele>151.800000</ele>
        <time>2020-10-17T08:50:17Z</time>
      </trkpt>
      <trkpt lat="40.051902000" lon="-8.446102000">
        <ele>151.800000</ele>
        <time>2020-10-17T08:50:21Z</time>
      </trkpt>
      <trkpt lat="40.051843000" lon="-8.446117000">
        <ele>151.800000</ele>
        <time>2020-10-17T08:50:22Z</time>
      </trkpt>
      <trkpt lat="40.051787000" lon="-8.446133000">
        <ele>151.800000</ele>
        <time>2020-10-17T08:50:23Z</time>
      </trkpt>
      <trkpt lat="40.051554000" lon="-8.446197000">
        <ele>152.200000</ele>
        <time>2020-10-17T08:50:27Z</time>
      </trkpt>
      <trkpt lat="40.051438000" lon="-8.446245000">
        <ele>152.200000</ele>
        <time>2020-10-17T08:50:29Z</time>
      </trkpt>
      <trkpt lat="40.051383000" lon="-8.446271000">
        <ele>152.400000</ele>
        <time>2020-10-17T08:50:30Z</time>
      </trkpt>
      <trkpt lat="40.051210000" lon="-8.446335000">
        <ele>152.400000</ele>
        <time>2020-10-17T08:50:33Z</time>
      </trkpt>
      <trkpt lat="40.051035000" lon="-8.446390000">
        <ele>152.400000</ele>
        <time>2020-10-17T08:50:36Z</time>
      </trkpt>
      <trkpt lat="40.050916000" lon="-8.446428000">
        <ele>152.400000</ele>
        <time>2020-10-17T08:50:38Z</time>
      </trkpt>
      <trkpt lat="40.050732000" lon="-8.446481000">
        <ele>152.400000</ele>
        <time>2020-10-17T08:50:41Z</time>
      </trkpt>
      <trkpt lat="40.050488000" lon="-8.446578000">
        <ele>152.400000</ele>
        <time>2020-10-17T08:50:45Z</time>
      </trkpt>
      <trkpt lat="40.050386000" lon="-8.446675000">
        <ele>152.600000</ele>
        <time>2020-10-17T08:50:47Z</time>
      </trkpt>
      <trkpt lat="40.050338000" lon="-8.446728000">
        <ele>152.600000</ele>
        <time>2020-10-17T08:50:48Z</time>
      </trkpt>
      <trkpt lat="40.050290000" lon="-8.446777000">
        <ele>152.600000</ele>
        <time>2020-10-17T08:50:49Z</time>
      </trkpt>
      <trkpt lat="40.050243000" lon="-8.446825000">
        <ele>152.800000</ele>
        <time>2020-10-17T08:50:50Z</time>
      </trkpt>
      <trkpt lat="40.050198000" lon="-8.446871000">
        <ele>152.600000</ele>
        <time>2020-10-17T08:50:51Z</time>
      </trkpt>
      <trkpt lat="40.050153000" lon="-8.446911000">
        <ele>152.600000</ele>
        <time>2020-10-17T08:50:52Z</time>
      </trkpt>
      <trkpt lat="40.050108000" lon="-8.446946000">
        <ele>153.000000</ele>
        <time>2020-10-17T08:50:53Z</time>
      </trkpt>
      <trkpt lat="40.050066000" lon="-8.446981000">
        <ele>152.800000</ele>
        <time>2020-10-17T08:50:54Z</time>
      </trkpt>
      <trkpt lat="40.050028000" lon="-8.447014000">
        <ele>153.000000</ele>
        <time>2020-10-17T08:50:55Z</time>
      </trkpt>
      <trkpt lat="40.049994000" lon="-8.447047000">
        <ele>153.200000</ele>
        <time>2020-10-17T08:50:56Z</time>
      </trkpt>
      <trkpt lat="40.049963000" lon="-8.447082000">
        <ele>153.200000</ele>
        <time>2020-10-17T08:50:57Z</time>
      </trkpt>
      <trkpt lat="40.049932000" lon="-8.447119000">
        <ele>153.200000</ele>
        <time>2020-10-17T08:50:58Z</time>
      </trkpt>
      <trkpt lat="40.049900000" lon="-8.447154000">
        <ele>153.200000</ele>
        <time>2020-10-17T08:50:59Z</time>
      </trkpt>
      <trkpt lat="40.049867000" lon="-8.447188000">
        <ele>153.400000</ele>
        <time>2020-10-17T08:51:00Z</time>
      </trkpt>
      <trkpt lat="40.049831000" lon="-8.447222000">
        <ele>153.400000</ele>
        <time>2020-10-17T08:51:01Z</time>
      </trkpt>
      <trkpt lat="40.049795000" lon="-8.447253000">
        <ele>153.800000</ele>
        <time>2020-10-17T08:51:02Z</time>
      </trkpt>
      <trkpt lat="40.049756000" lon="-8.447280000">
        <ele>154.400000</ele>
        <time>2020-10-17T08:51:03Z</time>
      </trkpt>
      <trkpt lat="40.049718000" lon="-8.447302000">
        <ele>155.000000</ele>
        <time>2020-10-17T08:51:04Z</time>
      </trkpt>
      <trkpt lat="40.049678000" lon="-8.447324000">
        <ele>155.400000</ele>
        <time>2020-10-17T08:51:05Z</time>
      </trkpt>
      <trkpt lat="40.049633000" lon="-8.447347000">
        <ele>156.000000</ele>
        <time>2020-10-17T08:51:06Z</time>
      </trkpt>
      <trkpt lat="40.049586000" lon="-8.447367000">
        <ele>156.000000</ele>
        <time>2020-10-17T08:51:07Z</time>
      </trkpt>
      <trkpt lat="40.049534000" lon="-8.447382000">
        <ele>156.400000</ele>
        <time>2020-10-17T08:51:08Z</time>
      </trkpt>
      <trkpt lat="40.049480000" lon="-8.447390000">
        <ele>156.400000</ele>
        <time>2020-10-17T08:51:09Z</time>
      </trkpt>
      <trkpt lat="40.049424000" lon="-8.447383000">
        <ele>156.600000</ele>
        <time>2020-10-17T08:51:10Z</time>
      </trkpt>
      <trkpt lat="40.049365000" lon="-8.447361000">
        <ele>156.600000</ele>
        <time>2020-10-17T08:51:11Z</time>
      </trkpt>
      <trkpt lat="40.049303000" lon="-8.447325000">
        <ele>156.600000</ele>
        <time>2020-10-17T08:51:12Z</time>
      </trkpt>
      <trkpt lat="40.049240000" lon="-8.447281000">
        <ele>156.600000</ele>
        <time>2020-10-17T08:51:13Z</time>
      </trkpt>
      <trkpt lat="40.049170000" lon="-8.447242000">
        <ele>156.600000</ele>
        <time>2020-10-17T08:51:14Z</time>
      </trkpt>
      <trkpt lat="40.049015000" lon="-8.447210000">
        <ele>156.600000</ele>
        <time>2020-10-17T08:51:16Z</time>
      </trkpt>
      <trkpt lat="40.048862000" lon="-8.447208000">
        <ele>156.600000</ele>
        <time>2020-10-17T08:51:18Z</time>
      </trkpt>
      <trkpt lat="40.048788000" lon="-8.447208000">
        <ele>156.600000</ele>
        <time>2020-10-17T08:51:19Z</time>
      </trkpt>
      <trkpt lat="40.048716000" lon="-8.447205000">
        <ele>156.000000</ele>
        <time>2020-10-17T08:51:20Z</time>
      </trkpt>
      <trkpt lat="40.048646000" lon="-8.447202000">
        <ele>155.000000</ele>
        <time>2020-10-17T08:51:21Z</time>
      </trkpt>
      <trkpt lat="40.048577000" lon="-8.447199000">
        <ele>154.400000</ele>
        <time>2020-10-17T08:51:22Z</time>
      </trkpt>
      <trkpt lat="40.048510000" lon="-8.447197000">
        <ele>154.000000</ele>
        <time>2020-10-17T08:51:23Z</time>
      </trkpt>
      <trkpt lat="40.048446000" lon="-8.447197000">
        <ele>153.800000</ele>
        <time>2020-10-17T08:51:24Z</time>
      </trkpt>
      <trkpt lat="40.048381000" lon="-8.447195000">
        <ele>153.800000</ele>
        <time>2020-10-17T08:51:25Z</time>
      </trkpt>
      <trkpt lat="40.048316000" lon="-8.447191000">
        <ele>153.600000</ele>
        <time>2020-10-17T08:51:26Z</time>
      </trkpt>
      <trkpt lat="40.048252000" lon="-8.447186000">
        <ele>153.400000</ele>
        <time>2020-10-17T08:51:27Z</time>
      </trkpt>
      <trkpt lat="40.048189000" lon="-8.447180000">
        <ele>153.400000</ele>
        <time>2020-10-17T08:51:28Z</time>
      </trkpt>
      <trkpt lat="40.048126000" lon="-8.447170000">
        <ele>153.400000</ele>
        <time>2020-10-17T08:51:29Z</time>
      </trkpt>
      <trkpt lat="40.048066000" lon="-8.447156000">
        <ele>153.400000</ele>
        <time>2020-10-17T08:51:30Z</time>
      </trkpt>
      <trkpt lat="40.048006000" lon="-8.447142000">
        <ele>153.200000</ele>
        <time>2020-10-17T08:51:31Z</time>
      </trkpt>
      <trkpt lat="40.047946000" lon="-8.447126000">
        <ele>153.400000</ele>
        <time>2020-10-17T08:51:32Z</time>
      </trkpt>
      <trkpt lat="40.047766000" lon="-8.447069000">
        <ele>153.400000</ele>
        <time>2020-10-17T08:51:35Z</time>
      </trkpt>
      <trkpt lat="40.047705000" lon="-8.447060000">
        <ele>153.200000</ele>
        <time>2020-10-17T08:51:36Z</time>
      </trkpt>
      <trkpt lat="40.047585000" lon="-8.447064000">
        <ele>153.400000</ele>
        <time>2020-10-17T08:51:38Z</time>
      </trkpt>
      <trkpt lat="40.047528000" lon="-8.447076000">
        <ele>153.400000</ele>
        <time>2020-10-17T08:51:39Z</time>
      </trkpt>
      <trkpt lat="40.047410000" lon="-8.447109000">
        <ele>153.400000</ele>
        <time>2020-10-17T08:51:41Z</time>
      </trkpt>
      <trkpt lat="40.047294000" lon="-8.447146000">
        <ele>153.400000</ele>
        <time>2020-10-17T08:51:43Z</time>
      </trkpt>
      <trkpt lat="40.047238000" lon="-8.447168000">
        <ele>153.400000</ele>
        <time>2020-10-17T08:51:44Z</time>
      </trkpt>
      <trkpt lat="40.047182000" lon="-8.447195000">
        <ele>153.400000</ele>
        <time>2020-10-17T08:51:45Z</time>
      </trkpt>
      <trkpt lat="40.047070000" lon="-8.447259000">
        <ele>153.400000</ele>
        <time>2020-10-17T08:51:47Z</time>
      </trkpt>
      <trkpt lat="40.047016000" lon="-8.447298000">
        <ele>153.600000</ele>
        <time>2020-10-17T08:51:48Z</time>
      </trkpt>
      <trkpt lat="40.046920000" lon="-8.447400000">
        <ele>153.400000</ele>
        <time>2020-10-17T08:51:50Z</time>
      </trkpt>
      <trkpt lat="40.046880000" lon="-8.447459000">
        <ele>153.400000</ele>
        <time>2020-10-17T08:51:51Z</time>
      </trkpt>
      <trkpt lat="40.046840000" lon="-8.447518000">
        <ele>153.600000</ele>
        <time>2020-10-17T08:51:52Z</time>
      </trkpt>
      <trkpt lat="40.046802000" lon="-8.447578000">
        <ele>153.600000</ele>
        <time>2020-10-17T08:51:53Z</time>
      </trkpt>
      <trkpt lat="40.046570000" lon="-8.447843000">
        <ele>153.600000</ele>
        <time>2020-10-17T08:51:58Z</time>
      </trkpt>
      <trkpt lat="40.046275000" lon="-8.448145000">
        <ele>154.000000</ele>
        <time>2020-10-17T08:52:04Z</time>
      </trkpt>
      <trkpt lat="40.046230000" lon="-8.448195000">
        <ele>154.000000</ele>
        <time>2020-10-17T08:52:05Z</time>
      </trkpt>
      <trkpt lat="40.046182000" lon="-8.448241000">
        <ele>154.000000</ele>
        <time>2020-10-17T08:52:06Z</time>
      </trkpt>
      <trkpt lat="40.046131000" lon="-8.448281000">
        <ele>154.000000</ele>
        <time>2020-10-17T08:52:07Z</time>
      </trkpt>
      <trkpt lat="40.046021000" lon="-8.448351000">
        <ele>154.200000</ele>
        <time>2020-10-17T08:52:09Z</time>
      </trkpt>
      <trkpt lat="40.045966000" lon="-8.448381000">
        <ele>154.400000</ele>
        <time>2020-10-17T08:52:10Z</time>
      </trkpt>
      <trkpt lat="40.045911000" lon="-8.448407000">
        <ele>154.200000</ele>
        <time>2020-10-17T08:52:11Z</time>
      </trkpt>
      <trkpt lat="40.045854000" lon="-8.448425000">
        <ele>154.200000</ele>
        <time>2020-10-17T08:52:12Z</time>
      </trkpt>
      <trkpt lat="40.045798000" lon="-8.448434000">
        <ele>154.400000</ele>
        <time>2020-10-17T08:52:13Z</time>
      </trkpt>
      <trkpt lat="40.045740000" lon="-8.448435000">
        <ele>154.600000</ele>
        <time>2020-10-17T08:52:14Z</time>
      </trkpt>
      <trkpt lat="40.045684000" lon="-8.448426000">
        <ele>154.600000</ele>
        <time>2020-10-17T08:52:15Z</time>
      </trkpt>
      <trkpt lat="40.045631000" lon="-8.448410000">
        <ele>154.600000</ele>
        <time>2020-10-17T08:52:16Z</time>
      </trkpt>
      <trkpt lat="40.045581000" lon="-8.448388000">
        <ele>154.600000</ele>
        <time>2020-10-17T08:52:17Z</time>
      </trkpt>
      <trkpt lat="40.045532000" lon="-8.448364000">
        <ele>154.800000</ele>
        <time>2020-10-17T08:52:18Z</time>
      </trkpt>
      <trkpt lat="40.045484000" lon="-8.448336000">
        <ele>154.800000</ele>
        <time>2020-10-17T08:52:19Z</time>
      </trkpt>
      <trkpt lat="40.045438000" lon="-8.448306000">
        <ele>155.000000</ele>
        <time>2020-10-17T08:52:20Z</time>
      </trkpt>
      <trkpt lat="40.045395000" lon="-8.448270000">
        <ele>155.000000</ele>
        <time>2020-10-17T08:52:21Z</time>
      </trkpt>
      <trkpt lat="40.045271000" lon="-8.448122000">
        <ele>155.400000</ele>
        <time>2020-10-17T08:52:24Z</time>
      </trkpt>
      <trkpt lat="40.045231000" lon="-8.448060000">
        <ele>155.400000</ele>
        <time>2020-10-17T08:52:25Z</time>
      </trkpt>
      <trkpt lat="40.044987000" lon="-8.447689000">
        <ele>155.800000</ele>
        <time>2020-10-17T08:52:31Z</time>
      </trkpt>
      <trkpt lat="40.044948000" lon="-8.447628000">
        <ele>155.800000</ele>
        <time>2020-10-17T08:52:32Z</time>
      </trkpt>
      <trkpt lat="40.044820000" lon="-8.447453000">
        <ele>155.800000</ele>
        <time>2020-10-17T08:52:35Z</time>
      </trkpt>
      <trkpt lat="40.044630000" lon="-8.447246000">
        <ele>155.600000</ele>
        <time>2020-10-17T08:52:39Z</time>
      </trkpt>
      <trkpt lat="40.044581000" lon="-8.447196000">
        <ele>155.600000</ele>
        <time>2020-10-17T08:52:40Z</time>
      </trkpt>
      <trkpt lat="40.044375000" lon="-8.447000000">
        <ele>155.600000</ele>
        <time>2020-10-17T08:52:44Z</time>
      </trkpt>
      <trkpt lat="40.044326000" lon="-8.446957000">
        <ele>155.600000</ele>
        <time>2020-10-17T08:52:45Z</time>
      </trkpt>
      <trkpt lat="40.044276000" lon="-8.446915000">
        <ele>155.600000</ele>
        <time>2020-10-17T08:52:46Z</time>
      </trkpt>
      <trkpt lat="40.044062000" lon="-8.446761000">
        <ele>155.600000</ele>
        <time>2020-10-17T08:52:50Z</time>
      </trkpt>
      <trkpt lat="40.043896000" lon="-8.446677000">
        <ele>156.000000</ele>
        <time>2020-10-17T08:52:53Z</time>
      </trkpt>
      <trkpt lat="40.043779000" lon="-8.446634000">
        <ele>155.800000</ele>
        <time>2020-10-17T08:52:55Z</time>
      </trkpt>
      <trkpt lat="40.043599000" lon="-8.446595000">
        <ele>156.000000</ele>
        <time>2020-10-17T08:52:58Z</time>
      </trkpt>
      <trkpt lat="40.043538000" lon="-8.446584000">
        <ele>156.000000</ele>
        <time>2020-10-17T08:52:59Z</time>
      </trkpt>
      <trkpt lat="40.043293000" lon="-8.446559000">
        <ele>156.000000</ele>
        <time>2020-10-17T08:53:03Z</time>
      </trkpt>
      <trkpt lat="40.043109000" lon="-8.446568000">
        <ele>156.000000</ele>
        <time>2020-10-17T08:53:06Z</time>
      </trkpt>
      <trkpt lat="40.043049000" lon="-8.446576000">
        <ele>156.400000</ele>
        <time>2020-10-17T08:53:07Z</time>
      </trkpt>
      <trkpt lat="40.042928000" lon="-8.446606000">
        <ele>156.200000</ele>
        <time>2020-10-17T08:53:09Z</time>
      </trkpt>
      <trkpt lat="40.042872000" lon="-8.446627000">
        <ele>156.200000</ele>
        <time>2020-10-17T08:53:10Z</time>
      </trkpt>
      <trkpt lat="40.042818000" lon="-8.446649000">
        <ele>156.400000</ele>
        <time>2020-10-17T08:53:11Z</time>
      </trkpt>
      <trkpt lat="40.042763000" lon="-8.446676000">
        <ele>156.200000</ele>
        <time>2020-10-17T08:53:12Z</time>
      </trkpt>
      <trkpt lat="40.042604000" lon="-8.446781000">
        <ele>156.400000</ele>
        <time>2020-10-17T08:53:15Z</time>
      </trkpt>
      <trkpt lat="40.042518000" lon="-8.446885000">
        <ele>156.400000</ele>
        <time>2020-10-17T08:53:17Z</time>
      </trkpt>
      <trkpt lat="40.042482000" lon="-8.446944000">
        <ele>156.400000</ele>
        <time>2020-10-17T08:53:18Z</time>
      </trkpt>
      <trkpt lat="40.042446000" lon="-8.447005000">
        <ele>156.400000</ele>
        <time>2020-10-17T08:53:19Z</time>
      </trkpt>
      <trkpt lat="40.042412000" lon="-8.447066000">
        <ele>156.600000</ele>
        <time>2020-10-17T08:53:20Z</time>
      </trkpt>
      <trkpt lat="40.042305000" lon="-8.447241000">
        <ele>156.600000</ele>
        <time>2020-10-17T08:53:23Z</time>
      </trkpt>
      <trkpt lat="40.042264000" lon="-8.447285000">
        <ele>156.400000</ele>
        <time>2020-10-17T08:53:24Z</time>
      </trkpt>
      <trkpt lat="40.042214000" lon="-8.447307000">
        <ele>156.600000</ele>
        <time>2020-10-17T08:53:25Z</time>
      </trkpt>
      <trkpt lat="40.042163000" lon="-8.447307000">
        <ele>156.600000</ele>
        <time>2020-10-17T08:53:26Z</time>
      </trkpt>
      <trkpt lat="40.042116000" lon="-8.447283000">
        <ele>156.800000</ele>
        <time>2020-10-17T08:53:27Z</time>
      </trkpt>
      <trkpt lat="40.042072000" lon="-8.447244000">
        <ele>156.800000</ele>
        <time>2020-10-17T08:53:28Z</time>
      </trkpt>
      <trkpt lat="40.042030000" lon="-8.447206000">
        <ele>156.800000</ele>
        <time>2020-10-17T08:53:29Z</time>
      </trkpt>
      <trkpt lat="40.041988000" lon="-8.447178000">
        <ele>156.800000</ele>
        <time>2020-10-17T08:53:30Z</time>
      </trkpt>
      <trkpt lat="40.041945000" lon="-8.447166000">
        <ele>157.000000</ele>
        <time>2020-10-17T08:53:31Z</time>
      </trkpt>
      <trkpt lat="40.041903000" lon="-8.447168000">
        <ele>157.000000</ele>
        <time>2020-10-17T08:53:32Z</time>
      </trkpt>
      <trkpt lat="40.041859000" lon="-8.447175000">
        <ele>157.000000</ele>
        <time>2020-10-17T08:53:33Z</time>
      </trkpt>
      <trkpt lat="40.041813000" lon="-8.447187000">
        <ele>157.000000</ele>
        <time>2020-10-17T08:53:34Z</time>
      </trkpt>
      <trkpt lat="40.041766000" lon="-8.447201000">
        <ele>157.200000</ele>
        <time>2020-10-17T08:53:35Z</time>
      </trkpt>
      <trkpt lat="40.041716000" lon="-8.447213000">
        <ele>157.200000</ele>
        <time>2020-10-17T08:53:36Z</time>
      </trkpt>
      <trkpt lat="40.041663000" lon="-8.447219000">
        <ele>157.200000</ele>
        <time>2020-10-17T08:53:37Z</time>
      </trkpt>
      <trkpt lat="40.041503000" lon="-8.447208000">
        <ele>157.400000</ele>
        <time>2020-10-17T08:53:40Z</time>
      </trkpt>
      <trkpt lat="40.041452000" lon="-8.447200000">
        <ele>157.600000</ele>
        <time>2020-10-17T08:53:41Z</time>
      </trkpt>
      <trkpt lat="40.040963000" lon="-8.447092000">
        <ele>158.200000</ele>
        <time>2020-10-17T08:53:50Z</time>
      </trkpt>
      <trkpt lat="40.040737000" lon="-8.447037000">
        <ele>158.600000</ele>
        <time>2020-10-17T08:53:54Z</time>
      </trkpt>
      <trkpt lat="40.040626000" lon="-8.447013000">
        <ele>158.600000</ele>
        <time>2020-10-17T08:53:56Z</time>
      </trkpt>
      <trkpt lat="40.040570000" lon="-8.447003000">
        <ele>158.600000</ele>
        <time>2020-10-17T08:53:57Z</time>
      </trkpt>
      <trkpt lat="40.040457000" lon="-8.446993000">
        <ele>158.600000</ele>
        <time>2020-10-17T08:53:59Z</time>
      </trkpt>
      <trkpt lat="40.040059000" lon="-8.446915000">
        <ele>159.200000</ele>
        <time>2020-10-17T08:54:06Z</time>
      </trkpt>
      <trkpt lat="40.039718000" lon="-8.446793000">
        <ele>159.600000</ele>
        <time>2020-10-17T08:54:12Z</time>
      </trkpt>
      <trkpt lat="40.039662000" lon="-8.446772000">
        <ele>159.600000</ele>
        <time>2020-10-17T08:54:13Z</time>
      </trkpt>
      <trkpt lat="40.039498000" lon="-8.446707000">
        <ele>159.800000</ele>
        <time>2020-10-17T08:54:16Z</time>
      </trkpt>
      <trkpt lat="40.039442000" lon="-8.446687000">
        <ele>159.800000</ele>
        <time>2020-10-17T08:54:17Z</time>
      </trkpt>
      <trkpt lat="40.038896000" lon="-8.446464000">
        <ele>160.400000</ele>
        <time>2020-10-17T08:54:27Z</time>
      </trkpt>
      <trkpt lat="40.038438000" lon="-8.446310000">
        <ele>161.000000</ele>
        <time>2020-10-17T08:54:35Z</time>
      </trkpt>
      <trkpt lat="40.038380000" lon="-8.446294000">
        <ele>161.000000</ele>
        <time>2020-10-17T08:54:36Z</time>
      </trkpt>
      <trkpt lat="40.038149000" lon="-8.446230000">
        <ele>161.400000</ele>
        <time>2020-10-17T08:54:40Z</time>
      </trkpt>
      <trkpt lat="40.037977000" lon="-8.446179000">
        <ele>161.600000</ele>
        <time>2020-10-17T08:54:43Z</time>
      </trkpt>
      <trkpt lat="40.037806000" lon="-8.446125000">
        <ele>161.600000</ele>
        <time>2020-10-17T08:54:46Z</time>
      </trkpt>
      <trkpt lat="40.037391000" lon="-8.446005000">
        <ele>162.200000</ele>
        <time>2020-10-17T08:54:53Z</time>
      </trkpt>
      <trkpt lat="40.037212000" lon="-8.445946000">
        <ele>162.400000</ele>
        <time>2020-10-17T08:54:56Z</time>
      </trkpt>
      <trkpt lat="40.036980000" lon="-8.445849000">
        <ele>162.400000</ele>
        <time>2020-10-17T08:55:00Z</time>
      </trkpt>
      <trkpt lat="40.036923000" lon="-8.445821000">
        <ele>162.400000</ele>
        <time>2020-10-17T08:55:01Z</time>
      </trkpt>
      <trkpt lat="40.036868000" lon="-8.445791000">
        <ele>162.600000</ele>
        <time>2020-10-17T08:55:02Z</time>
      </trkpt>
      <trkpt lat="40.036759000" lon="-8.445732000">
        <ele>162.800000</ele>
        <time>2020-10-17T08:55:04Z</time>
      </trkpt>
      <trkpt lat="40.036706000" lon="-8.445703000">
        <ele>162.800000</ele>
        <time>2020-10-17T08:55:05Z</time>
      </trkpt>
      <trkpt lat="40.036651000" lon="-8.445674000">
        <ele>162.800000</ele>
        <time>2020-10-17T08:55:06Z</time>
      </trkpt>
      <trkpt lat="40.036310000" lon="-8.445537000">
        <ele>163.400000</ele>
        <time>2020-10-17T08:55:12Z</time>
      </trkpt>
      <trkpt lat="40.035728000" lon="-8.445354000">
        <ele>164.200000</ele>
        <time>2020-10-17T08:55:22Z</time>
      </trkpt>
      <trkpt lat="40.035610000" lon="-8.445313000">
        <ele>164.400000</ele>
        <time>2020-10-17T08:55:24Z</time>
      </trkpt>
      <trkpt lat="40.035493000" lon="-8.445272000">
        <ele>164.400000</ele>
        <time>2020-10-17T08:55:26Z</time>
      </trkpt>
      <trkpt lat="40.035378000" lon="-8.445225000">
        <ele>164.400000</ele>
        <time>2020-10-17T08:55:28Z</time>
      </trkpt>
      <trkpt lat="40.035323000" lon="-8.445201000">
        <ele>164.400000</ele>
        <time>2020-10-17T08:55:29Z</time>
      </trkpt>
      <trkpt lat="40.035150000" lon="-8.445131000">
        <ele>164.600000</ele>
        <time>2020-10-17T08:55:32Z</time>
      </trkpt>
      <trkpt lat="40.034918000" lon="-8.445044000">
        <ele>164.800000</ele>
        <time>2020-10-17T08:55:36Z</time>
      </trkpt>
      <trkpt lat="40.034861000" lon="-8.445025000">
        <ele>164.800000</ele>
        <time>2020-10-17T08:55:37Z</time>
      </trkpt>
      <trkpt lat="40.034689000" lon="-8.444976000">
        <ele>165.000000</ele>
        <time>2020-10-17T08:55:40Z</time>
      </trkpt>
      <trkpt lat="40.034632000" lon="-8.444958000">
        <ele>165.200000</ele>
        <time>2020-10-17T08:55:41Z</time>
      </trkpt>
      <trkpt lat="40.034576000" lon="-8.444940000">
        <ele>165.200000</ele>
        <time>2020-10-17T08:55:42Z</time>
      </trkpt>
      <trkpt lat="40.034294000" lon="-8.444858000">
        <ele>165.200000</ele>
        <time>2020-10-17T08:55:47Z</time>
      </trkpt>
      <trkpt lat="40.033833000" lon="-8.444724000">
        <ele>165.600000</ele>
        <time>2020-10-17T08:55:55Z</time>
      </trkpt>
      <trkpt lat="40.033779000" lon="-8.444728000">
        <ele>166.000000</ele>
        <time>2020-10-17T08:55:56Z</time>
      </trkpt>
      <trkpt lat="40.033733000" lon="-8.444741000">
        <ele>166.000000</ele>
        <time>2020-10-17T08:55:57Z</time>
      </trkpt>
      <trkpt lat="40.033693000" lon="-8.444761000">
        <ele>166.000000</ele>
        <time>2020-10-17T08:55:58Z</time>
      </trkpt>
      <trkpt lat="40.033661000" lon="-8.444784000">
        <ele>166.000000</ele>
        <time>2020-10-17T08:55:59Z</time>
      </trkpt>
      <trkpt lat="40.033636000" lon="-8.444812000">
        <ele>166.000000</ele>
        <time>2020-10-17T08:56:00Z</time>
      </trkpt>
      <trkpt lat="40.033618000" lon="-8.444851000">
        <ele>166.200000</ele>
        <time>2020-10-17T08:56:01Z</time>
      </trkpt>
      <trkpt lat="40.033611000" lon="-8.444894000">
        <ele>166.400000</ele>
        <time>2020-10-17T08:56:02Z</time>
      </trkpt>
      <trkpt lat="40.033615000" lon="-8.444993000">
        <ele>166.400000</ele>
        <time>2020-10-17T08:56:04Z</time>
      </trkpt>
      <trkpt lat="40.033620000" lon="-8.445056000">
        <ele>166.200000</ele>
        <time>2020-10-17T08:56:05Z</time>
      </trkpt>
      <trkpt lat="40.033624000" lon="-8.445122000">
        <ele>166.200000</ele>
        <time>2020-10-17T08:56:06Z</time>
      </trkpt>
      <trkpt lat="40.033643000" lon="-8.445616000">
        <ele>166.400000</ele>
        <time>2020-10-17T08:56:13Z</time>
      </trkpt>
      <trkpt lat="40.033643000" lon="-8.445687000">
        <ele>166.400000</ele>
        <time>2020-10-17T08:56:14Z</time>
      </trkpt>
      <trkpt lat="40.033658000" lon="-8.446129000">
        <ele>166.400000</ele>
        <time>2020-10-17T08:56:20Z</time>
      </trkpt>
      <trkpt lat="40.033678000" lon="-8.446360000">
        <ele>166.400000</ele>
        <time>2020-10-17T08:56:23Z</time>
      </trkpt>
      <trkpt lat="40.033716000" lon="-8.446678000">
        <ele>166.400000</ele>
        <time>2020-10-17T08:56:27Z</time>
      </trkpt>
      <trkpt lat="40.033742000" lon="-8.447009000">
        <ele>166.400000</ele>
        <time>2020-10-17T08:56:31Z</time>
      </trkpt>
      <trkpt lat="40.033750000" lon="-8.447091000">
        <ele>166.200000</ele>
        <time>2020-10-17T08:56:32Z</time>
      </trkpt>
      <trkpt lat="40.033762000" lon="-8.447344000">
        <ele>166.200000</ele>
        <time>2020-10-17T08:56:35Z</time>
      </trkpt>
      <trkpt lat="40.033758000" lon="-8.447426000">
        <ele>166.200000</ele>
        <time>2020-10-17T08:56:36Z</time>
      </trkpt>
      <trkpt lat="40.033749000" lon="-8.447503000">
        <ele>166.200000</ele>
        <time>2020-10-17T08:56:37Z</time>
      </trkpt>
      <trkpt lat="40.033736000" lon="-8.447576000">
        <ele>166.400000</ele>
        <time>2020-10-17T08:56:38Z</time>
      </trkpt>
      <trkpt lat="40.033723000" lon="-8.447642000">
        <ele>166.200000</ele>
        <time>2020-10-17T08:56:39Z</time>
      </trkpt>
      <trkpt lat="40.033663000" lon="-8.447944000">
        <ele>166.200000</ele>
        <time>2020-10-17T08:56:43Z</time>
      </trkpt>
      <trkpt lat="40.033631000" lon="-8.448094000">
        <ele>166.200000</ele>
        <time>2020-10-17T08:56:45Z</time>
      </trkpt>
      <trkpt lat="40.033593000" lon="-8.448248000">
        <ele>166.000000</ele>
        <time>2020-10-17T08:56:47Z</time>
      </trkpt>
      <trkpt lat="40.033545000" lon="-8.448403000">
        <ele>166.200000</ele>
        <time>2020-10-17T08:56:49Z</time>
      </trkpt>
      <trkpt lat="40.033498000" lon="-8.448558000">
        <ele>166.000000</ele>
        <time>2020-10-17T08:56:51Z</time>
      </trkpt>
      <trkpt lat="40.033474000" lon="-8.448637000">
        <ele>166.200000</ele>
        <time>2020-10-17T08:56:52Z</time>
      </trkpt>
      <trkpt lat="40.033456000" lon="-8.448709000">
        <ele>165.800000</ele>
        <time>2020-10-17T08:56:53Z</time>
      </trkpt>
      <trkpt lat="40.033436000" lon="-8.448783000">
        <ele>165.800000</ele>
        <time>2020-10-17T08:56:54Z</time>
      </trkpt>
      <trkpt lat="40.033391000" lon="-8.448940000">
        <ele>165.600000</ele>
        <time>2020-10-17T08:56:56Z</time>
      </trkpt>
      <trkpt lat="40.033371000" lon="-8.449013000">
        <ele>165.600000</ele>
        <time>2020-10-17T08:56:57Z</time>
      </trkpt>
      <trkpt lat="40.033349000" lon="-8.449088000">
        <ele>165.600000</ele>
        <time>2020-10-17T08:56:58Z</time>
      </trkpt>
      <trkpt lat="40.033290000" lon="-8.449404000">
        <ele>165.600000</ele>
        <time>2020-10-17T08:57:02Z</time>
      </trkpt>
      <trkpt lat="40.033279000" lon="-8.449482000">
        <ele>165.400000</ele>
        <time>2020-10-17T08:57:03Z</time>
      </trkpt>
      <trkpt lat="40.033242000" lon="-8.449874000">
        <ele>165.400000</ele>
        <time>2020-10-17T08:57:08Z</time>
      </trkpt>
      <trkpt lat="40.033235000" lon="-8.449949000">
        <ele>165.400000</ele>
        <time>2020-10-17T08:57:09Z</time>
      </trkpt>
      <trkpt lat="40.033219000" lon="-8.450096000">
        <ele>165.600000</ele>
        <time>2020-10-17T08:57:11Z</time>
      </trkpt>
      <trkpt lat="40.033211000" lon="-8.450168000">
        <ele>165.600000</ele>
        <time>2020-10-17T08:57:12Z</time>
      </trkpt>
      <trkpt lat="40.033205000" lon="-8.450237000">
        <ele>165.600000</ele>
        <time>2020-10-17T08:57:13Z</time>
      </trkpt>
      <trkpt lat="40.033198000" lon="-8.450305000">
        <ele>165.600000</ele>
        <time>2020-10-17T08:57:14Z</time>
      </trkpt>
      <trkpt lat="40.033190000" lon="-8.450374000">
        <ele>165.600000</ele>
        <time>2020-10-17T08:57:15Z</time>
      </trkpt>
      <trkpt lat="40.033161000" lon="-8.450580000">
        <ele>165.600000</ele>
        <time>2020-10-17T08:57:18Z</time>
      </trkpt>
      <trkpt lat="40.033146000" lon="-8.450648000">
        <ele>165.800000</ele>
        <time>2020-10-17T08:57:19Z</time>
      </trkpt>
      <trkpt lat="40.033128000" lon="-8.450718000">
        <ele>165.600000</ele>
        <time>2020-10-17T08:57:20Z</time>
      </trkpt>
      <trkpt lat="40.033026000" lon="-8.451168000">
        <ele>166.000000</ele>
        <time>2020-10-17T08:57:26Z</time>
      </trkpt>
      <trkpt lat="40.033009000" lon="-8.451240000">
        <ele>166.200000</ele>
        <time>2020-10-17T08:57:27Z</time>
      </trkpt>
      <trkpt lat="40.032993000" lon="-8.451313000">
        <ele>166.200000</ele>
        <time>2020-10-17T08:57:28Z</time>
      </trkpt>
      <trkpt lat="40.032980000" lon="-8.451386000">
        <ele>166.200000</ele>
        <time>2020-10-17T08:57:29Z</time>
      </trkpt>
      <trkpt lat="40.032969000" lon="-8.451457000">
        <ele>166.400000</ele>
        <time>2020-10-17T08:57:30Z</time>
      </trkpt>
      <trkpt lat="40.032958000" lon="-8.451527000">
        <ele>166.400000</ele>
        <time>2020-10-17T08:57:31Z</time>
      </trkpt>
      <trkpt lat="40.032928000" lon="-8.451669000">
        <ele>166.400000</ele>
        <time>2020-10-17T08:57:33Z</time>
      </trkpt>
      <trkpt lat="40.032912000" lon="-8.451740000">
        <ele>166.600000</ele>
        <time>2020-10-17T08:57:34Z</time>
      </trkpt>
      <trkpt lat="40.032898000" lon="-8.451811000">
        <ele>166.600000</ele>
        <time>2020-10-17T08:57:35Z</time>
      </trkpt>
      <trkpt lat="40.032806000" lon="-8.452165000">
        <ele>167.000000</ele>
        <time>2020-10-17T08:57:40Z</time>
      </trkpt>
      <trkpt lat="40.032785000" lon="-8.452233000">
        <ele>166.800000</ele>
        <time>2020-10-17T08:57:41Z</time>
      </trkpt>
      <trkpt lat="40.032765000" lon="-8.452302000">
        <ele>167.000000</ele>
        <time>2020-10-17T08:57:42Z</time>
      </trkpt>
      <trkpt lat="40.032696000" lon="-8.452517000">
        <ele>167.200000</ele>
        <time>2020-10-17T08:57:45Z</time>
      </trkpt>
      <trkpt lat="40.032608000" lon="-8.452805000">
        <ele>167.600000</ele>
        <time>2020-10-17T08:57:49Z</time>
      </trkpt>
      <trkpt lat="40.032590000" lon="-8.452873000">
        <ele>167.600000</ele>
        <time>2020-10-17T08:57:50Z</time>
      </trkpt>
      <trkpt lat="40.032397000" lon="-8.453443000">
        <ele>168.200000</ele>
        <time>2020-10-17T08:57:58Z</time>
      </trkpt>
      <trkpt lat="40.032274000" lon="-8.453830000">
        <ele>168.600000</ele>
        <time>2020-10-17T08:58:03Z</time>
      </trkpt>
      <trkpt lat="40.032223000" lon="-8.453976000">
        <ele>168.600000</ele>
        <time>2020-10-17T08:58:05Z</time>
      </trkpt>
      <trkpt lat="40.032200000" lon="-8.454049000">
        <ele>169.000000</ele>
        <time>2020-10-17T08:58:06Z</time>
      </trkpt>
      <trkpt lat="40.032176000" lon="-8.454123000">
        <ele>169.000000</ele>
        <time>2020-10-17T08:58:07Z</time>
      </trkpt>
      <trkpt lat="40.032155000" lon="-8.454196000">
        <ele>169.000000</ele>
        <time>2020-10-17T08:58:08Z</time>
      </trkpt>
      <trkpt lat="40.032134000" lon="-8.454267000">
        <ele>169.200000</ele>
        <time>2020-10-17T08:58:09Z</time>
      </trkpt>
      <trkpt lat="40.032112000" lon="-8.454336000">
        <ele>169.200000</ele>
        <time>2020-10-17T08:58:10Z</time>
      </trkpt>
      <trkpt lat="40.032092000" lon="-8.454406000">
        <ele>169.200000</ele>
        <time>2020-10-17T08:58:11Z</time>
      </trkpt>
      <trkpt lat="40.032075000" lon="-8.454473000">
        <ele>169.200000</ele>
        <time>2020-10-17T08:58:12Z</time>
      </trkpt>
      <trkpt lat="40.032061000" lon="-8.454541000">
        <ele>169.400000</ele>
        <time>2020-10-17T08:58:13Z</time>
      </trkpt>
      <trkpt lat="40.032052000" lon="-8.454612000">
        <ele>169.200000</ele>
        <time>2020-10-17T08:58:14Z</time>
      </trkpt>
      <trkpt lat="40.032046000" lon="-8.454680000">
        <ele>169.400000</ele>
        <time>2020-10-17T08:58:15Z</time>
      </trkpt>
      <trkpt lat="40.032041000" lon="-8.454744000">
        <ele>169.400000</ele>
        <time>2020-10-17T08:58:16Z</time>
      </trkpt>
      <trkpt lat="40.032036000" lon="-8.454803000">
        <ele>169.600000</ele>
        <time>2020-10-17T08:58:17Z</time>
      </trkpt>
      <trkpt lat="40.032032000" lon="-8.454855000">
        <ele>169.600000</ele>
        <time>2020-10-17T08:58:18Z</time>
      </trkpt>
      <trkpt lat="40.032020000" lon="-8.454903000">
        <ele>169.600000</ele>
        <time>2020-10-17T08:58:19Z</time>
      </trkpt>
      <trkpt lat="40.031999000" lon="-8.454941000">
        <ele>169.800000</ele>
        <time>2020-10-17T08:58:20Z</time>
      </trkpt>
      <trkpt lat="40.031972000" lon="-8.454965000">
        <ele>170.000000</ele>
        <time>2020-10-17T08:58:21Z</time>
      </trkpt>
      <trkpt lat="40.031946000" lon="-8.454974000">
        <ele>169.800000</ele>
        <time>2020-10-17T08:58:22Z</time>
      </trkpt>
      <trkpt lat="40.031876000" lon="-8.454985000">
        <ele>170.000000</ele>
        <time>2020-10-17T08:58:24Z</time>
      </trkpt>
      <trkpt lat="40.031836000" lon="-8.454987000">
        <ele>170.200000</ele>
        <time>2020-10-17T08:58:25Z</time>
      </trkpt>
      <trkpt lat="40.031756000" lon="-8.454961000">
        <ele>170.200000</ele>
        <time>2020-10-17T08:58:27Z</time>
      </trkpt>
      <trkpt lat="40.031721000" lon="-8.454936000">
        <ele>170.200000</ele>
        <time>2020-10-17T08:58:28Z</time>
      </trkpt>
      <trkpt lat="40.031687000" lon="-8.454902000">
        <ele>170.400000</ele>
        <time>2020-10-17T08:58:29Z</time>
      </trkpt>
      <trkpt lat="40.031654000" lon="-8.454867000">
        <ele>170.400000</ele>
        <time>2020-10-17T08:58:30Z</time>
      </trkpt>
      <trkpt lat="40.031571000" lon="-8.454817000">
        <ele>170.600000</ele>
        <time>2020-10-17T08:58:32Z</time>
      </trkpt>
      <trkpt lat="40.031526000" lon="-8.454807000">
        <ele>170.400000</ele>
        <time>2020-10-17T08:58:33Z</time>
      </trkpt>
      <trkpt lat="40.031477000" lon="-8.454806000">
        <ele>170.600000</ele>
        <time>2020-10-17T08:58:34Z</time>
      </trkpt>
      <trkpt lat="40.031425000" lon="-8.454812000">
        <ele>170.600000</ele>
        <time>2020-10-17T08:58:35Z</time>
      </trkpt>
      <trkpt lat="40.031375000" lon="-8.454820000">
        <ele>170.800000</ele>
        <time>2020-10-17T08:58:36Z</time>
      </trkpt>
      <trkpt lat="40.031326000" lon="-8.454830000">
        <ele>170.800000</ele>
        <time>2020-10-17T08:58:37Z</time>
      </trkpt>
      <trkpt lat="40.031017000" lon="-8.454895000">
        <ele>171.000000</ele>
        <time>2020-10-17T08:58:43Z</time>
      </trkpt>
      <trkpt lat="40.030966000" lon="-8.454898000">
        <ele>171.200000</ele>
        <time>2020-10-17T08:58:44Z</time>
      </trkpt>
      <trkpt lat="40.030804000" lon="-8.454898000">
        <ele>171.600000</ele>
        <time>2020-10-17T08:58:47Z</time>
      </trkpt>
      <trkpt lat="40.030749000" lon="-8.454901000">
        <ele>171.800000</ele>
        <time>2020-10-17T08:58:48Z</time>
      </trkpt>
      <trkpt lat="40.030685000" lon="-8.454903000">
        <ele>172.000000</ele>
        <time>2020-10-17T08:58:49Z</time>
      </trkpt>
      <trkpt lat="40.030626000" lon="-8.454907000">
        <ele>172.200000</ele>
        <time>2020-10-17T08:58:50Z</time>
      </trkpt>
      <trkpt lat="40.030569000" lon="-8.454911000">
        <ele>172.400000</ele>
        <time>2020-10-17T08:58:51Z</time>
      </trkpt>
      <trkpt lat="40.030514000" lon="-8.454916000">
        <ele>172.400000</ele>
        <time>2020-10-17T08:58:52Z</time>
      </trkpt>
      <trkpt lat="40.030458000" lon="-8.454919000">
        <ele>172.400000</ele>
        <time>2020-10-17T08:58:53Z</time>
      </trkpt>
      <trkpt lat="40.030403000" lon="-8.454920000">
        <ele>172.800000</ele>
        <time>2020-10-17T08:58:54Z</time>
      </trkpt>
      <trkpt lat="40.030344000" lon="-8.454919000">
        <ele>173.000000</ele>
        <time>2020-10-17T08:58:55Z</time>
      </trkpt>
      <trkpt lat="40.030290000" lon="-8.454920000">
        <ele>173.000000</ele>
        <time>2020-10-17T08:58:56Z</time>
      </trkpt>
      <trkpt lat="40.030237000" lon="-8.454922000">
        <ele>173.000000</ele>
        <time>2020-10-17T08:58:57Z</time>
      </trkpt>
      <trkpt lat="40.030187000" lon="-8.454924000">
        <ele>173.400000</ele>
        <time>2020-10-17T08:58:58Z</time>
      </trkpt>
      <trkpt lat="40.030138000" lon="-8.454928000">
        <ele>173.400000</ele>
        <time>2020-10-17T08:58:59Z</time>
      </trkpt>
      <trkpt lat="40.030088000" lon="-8.454927000">
        <ele>173.600000</ele>
        <time>2020-10-17T08:59:00Z</time>
      </trkpt>
      <trkpt lat="40.030040000" lon="-8.454927000">
        <ele>173.600000</ele>
        <time>2020-10-17T08:59:01Z</time>
      </trkpt>
      <trkpt lat="40.029991000" lon="-8.454931000">
        <ele>173.800000</ele>
        <time>2020-10-17T08:59:02Z</time>
      </trkpt>
      <trkpt lat="40.029941000" lon="-8.454936000">
        <ele>174.000000</ele>
        <time>2020-10-17T08:59:03Z</time>
      </trkpt>
      <trkpt lat="40.029891000" lon="-8.454938000">
        <ele>174.000000</ele>
        <time>2020-10-17T08:59:04Z</time>
      </trkpt>
      <trkpt lat="40.029842000" lon="-8.454936000">
        <ele>174.400000</ele>
        <time>2020-10-17T08:59:05Z</time>
      </trkpt>
      <trkpt lat="40.029791000" lon="-8.454934000">
        <ele>174.400000</ele>
        <time>2020-10-17T08:59:06Z</time>
      </trkpt>
      <trkpt lat="40.029738000" lon="-8.454931000">
        <ele>174.800000</ele>
        <time>2020-10-17T08:59:07Z</time>
      </trkpt>
      <trkpt lat="40.029685000" lon="-8.454925000">
        <ele>174.800000</ele>
        <time>2020-10-17T08:59:08Z</time>
      </trkpt>
      <trkpt lat="40.029630000" lon="-8.454918000">
        <ele>174.800000</ele>
        <time>2020-10-17T08:59:09Z</time>
      </trkpt>
      <trkpt lat="40.029577000" lon="-8.454918000">
        <ele>175.000000</ele>
        <time>2020-10-17T08:59:10Z</time>
      </trkpt>
      <trkpt lat="40.029523000" lon="-8.454917000">
        <ele>175.200000</ele>
        <time>2020-10-17T08:59:11Z</time>
      </trkpt>
      <trkpt lat="40.029469000" lon="-8.454919000">
        <ele>175.400000</ele>
        <time>2020-10-17T08:59:12Z</time>
      </trkpt>
      <trkpt lat="40.029420000" lon="-8.454917000">
        <ele>175.600000</ele>
        <time>2020-10-17T08:59:13Z</time>
      </trkpt>
      <trkpt lat="40.029372000" lon="-8.454914000">
        <ele>175.600000</ele>
        <time>2020-10-17T08:59:14Z</time>
      </trkpt>
      <trkpt lat="40.029324000" lon="-8.454916000">
        <ele>175.600000</ele>
        <time>2020-10-17T08:59:15Z</time>
      </trkpt>
      <trkpt lat="40.029282000" lon="-8.454917000">
        <ele>175.600000</ele>
        <time>2020-10-17T08:59:16Z</time>
      </trkpt>
      <trkpt lat="40.029242000" lon="-8.454917000">
        <ele>175.800000</ele>
        <time>2020-10-17T08:59:17Z</time>
      </trkpt>
      <trkpt lat="40.029202000" lon="-8.454913000">
        <ele>176.000000</ele>
        <time>2020-10-17T08:59:18Z</time>
      </trkpt>
      <trkpt lat="40.029165000" lon="-8.454903000">
        <ele>176.200000</ele>
        <time>2020-10-17T08:59:19Z</time>
      </trkpt>
      <trkpt lat="40.029132000" lon="-8.454880000">
        <ele>176.600000</ele>
        <time>2020-10-17T08:59:20Z</time>
      </trkpt>
      <trkpt lat="40.029112000" lon="-8.454842000">
        <ele>176.800000</ele>
        <time>2020-10-17T08:59:21Z</time>
      </trkpt>
      <trkpt lat="40.029105000" lon="-8.454793000">
        <ele>176.800000</ele>
        <time>2020-10-17T08:59:22Z</time>
      </trkpt>
      <trkpt lat="40.029100000" lon="-8.454743000">
        <ele>177.200000</ele>
        <time>2020-10-17T08:59:23Z</time>
      </trkpt>
      <trkpt lat="40.029098000" lon="-8.454693000">
        <ele>177.200000</ele>
        <time>2020-10-17T08:59:24Z</time>
      </trkpt>
      <trkpt lat="40.029100000" lon="-8.454642000">
        <ele>177.400000</ele>
        <time>2020-10-17T08:59:25Z</time>
      </trkpt>
      <trkpt lat="40.029103000" lon="-8.454591000">
        <ele>177.400000</ele>
        <time>2020-10-17T08:59:26Z</time>
      </trkpt>
      <trkpt lat="40.029107000" lon="-8.454540000">
        <ele>177.600000</ele>
        <time>2020-10-17T08:59:27Z</time>
      </trkpt>
      <trkpt lat="40.029109000" lon="-8.454488000">
        <ele>177.800000</ele>
        <time>2020-10-17T08:59:28Z</time>
      </trkpt>
      <trkpt lat="40.029112000" lon="-8.454433000">
        <ele>178.000000</ele>
        <time>2020-10-17T08:59:29Z</time>
      </trkpt>
      <trkpt lat="40.029115000" lon="-8.454378000">
        <ele>178.200000</ele>
        <time>2020-10-17T08:59:30Z</time>
      </trkpt>
      <trkpt lat="40.029117000" lon="-8.454323000">
        <ele>178.400000</ele>
        <time>2020-10-17T08:59:31Z</time>
      </trkpt>
      <trkpt lat="40.029117000" lon="-8.454272000">
        <ele>178.600000</ele>
        <time>2020-10-17T08:59:32Z</time>
      </trkpt>
      <trkpt lat="40.029119000" lon="-8.454220000">
        <ele>178.600000</ele>
        <time>2020-10-17T08:59:33Z</time>
      </trkpt>
      <trkpt lat="40.029120000" lon="-8.454168000">
        <ele>178.800000</ele>
        <time>2020-10-17T08:59:34Z</time>
      </trkpt>
      <trkpt lat="40.029121000" lon="-8.454122000">
        <ele>178.800000</ele>
        <time>2020-10-17T08:59:35Z</time>
      </trkpt>
      <trkpt lat="40.029123000" lon="-8.454077000">
        <ele>178.800000</ele>
        <time>2020-10-17T08:59:36Z</time>
      </trkpt>
      <trkpt lat="40.029124000" lon="-8.454027000">
        <ele>178.800000</ele>
        <time>2020-10-17T08:59:37Z</time>
      </trkpt>
      <trkpt lat="40.029123000" lon="-8.453973000">
        <ele>179.200000</ele>
        <time>2020-10-17T08:59:38Z</time>
      </trkpt>
      <trkpt lat="40.029122000" lon="-8.453916000">
        <ele>179.400000</ele>
        <time>2020-10-17T08:59:39Z</time>
      </trkpt>
      <trkpt lat="40.029122000" lon="-8.453859000">
        <ele>179.600000</ele>
        <time>2020-10-17T08:59:40Z</time>
      </trkpt>
      <trkpt lat="40.029124000" lon="-8.453799000">
        <ele>179.800000</ele>
        <time>2020-10-17T08:59:41Z</time>
      </trkpt>
      <trkpt lat="40.029127000" lon="-8.453738000">
        <ele>180.000000</ele>
        <time>2020-10-17T08:59:42Z</time>
      </trkpt>
      <trkpt lat="40.029128000" lon="-8.453677000">
        <ele>180.000000</ele>
        <time>2020-10-17T08:59:43Z</time>
      </trkpt>
      <trkpt lat="40.029131000" lon="-8.453614000">
        <ele>180.400000</ele>
        <time>2020-10-17T08:59:44Z</time>
      </trkpt>
      <trkpt lat="40.029133000" lon="-8.453552000">
        <ele>180.400000</ele>
        <time>2020-10-17T08:59:45Z</time>
      </trkpt>
      <trkpt lat="40.029134000" lon="-8.453490000">
        <ele>180.400000</ele>
        <time>2020-10-17T08:59:46Z</time>
      </trkpt>
      <trkpt lat="40.029132000" lon="-8.453427000">
        <ele>180.600000</ele>
        <time>2020-10-17T08:59:47Z</time>
      </trkpt>
      <trkpt lat="40.029131000" lon="-8.453364000">
        <ele>180.800000</ele>
        <time>2020-10-17T08:59:48Z</time>
      </trkpt>
      <trkpt lat="40.029129000" lon="-8.453301000">
        <ele>181.000000</ele>
        <time>2020-10-17T08:59:49Z</time>
      </trkpt>
      <trkpt lat="40.029126000" lon="-8.453239000">
        <ele>180.800000</ele>
        <time>2020-10-17T08:59:50Z</time>
      </trkpt>
      <trkpt lat="40.029124000" lon="-8.453175000">
        <ele>181.000000</ele>
        <time>2020-10-17T08:59:51Z</time>
      </trkpt>
      <trkpt lat="40.029122000" lon="-8.453111000">
        <ele>181.000000</ele>
        <time>2020-10-17T08:59:52Z</time>
      </trkpt>
      <trkpt lat="40.029122000" lon="-8.453047000">
        <ele>181.000000</ele>
        <time>2020-10-17T08:59:53Z</time>
      </trkpt>
      <trkpt lat="40.029120000" lon="-8.452981000">
        <ele>181.200000</ele>
        <time>2020-10-17T08:59:54Z</time>
      </trkpt>
      <trkpt lat="40.029117000" lon="-8.452914000">
        <ele>181.400000</ele>
        <time>2020-10-17T08:59:55Z</time>
      </trkpt>
      <trkpt lat="40.029110000" lon="-8.452844000">
        <ele>181.400000</ele>
        <time>2020-10-17T08:59:56Z</time>
      </trkpt>
      <trkpt lat="40.029081000" lon="-8.452707000">
        <ele>181.400000</ele>
        <time>2020-10-17T08:59:58Z</time>
      </trkpt>
      <trkpt lat="40.029059000" lon="-8.452643000">
        <ele>181.600000</ele>
        <time>2020-10-17T08:59:59Z</time>
      </trkpt>
      <trkpt lat="40.029039000" lon="-8.452583000">
        <ele>181.600000</ele>
        <time>2020-10-17T09:00:00Z</time>
      </trkpt>
      <trkpt lat="40.029021000" lon="-8.452525000">
        <ele>181.800000</ele>
        <time>2020-10-17T09:00:01Z</time>
      </trkpt>
      <trkpt lat="40.029004000" lon="-8.452467000">
        <ele>181.800000</ele>
        <time>2020-10-17T09:00:02Z</time>
      </trkpt>
      <trkpt lat="40.028988000" lon="-8.452413000">
        <ele>181.800000</ele>
        <time>2020-10-17T09:00:03Z</time>
      </trkpt>
      <trkpt lat="40.028951000" lon="-8.452303000">
        <ele>182.000000</ele>
        <time>2020-10-17T09:00:05Z</time>
      </trkpt>
      <trkpt lat="40.028927000" lon="-8.452240000">
        <ele>181.800000</ele>
        <time>2020-10-17T09:00:06Z</time>
      </trkpt>
      <trkpt lat="40.028903000" lon="-8.452171000">
        <ele>181.800000</ele>
        <time>2020-10-17T09:00:07Z</time>
      </trkpt>
      <trkpt lat="40.028880000" lon="-8.452099000">
        <ele>182.000000</ele>
        <time>2020-10-17T09:00:08Z</time>
      </trkpt>
      <trkpt lat="40.028861000" lon="-8.452020000">
        <ele>182.000000</ele>
        <time>2020-10-17T09:00:09Z</time>
      </trkpt>
      <trkpt lat="40.028843000" lon="-8.451932000">
        <ele>182.000000</ele>
        <time>2020-10-17T09:00:10Z</time>
      </trkpt>
      <trkpt lat="40.028822000" lon="-8.451837000">
        <ele>182.000000</ele>
        <time>2020-10-17T09:00:11Z</time>
      </trkpt>
      <trkpt lat="40.028804000" lon="-8.451739000">
        <ele>182.000000</ele>
        <time>2020-10-17T09:00:12Z</time>
      </trkpt>
      <trkpt lat="40.028761000" lon="-8.451532000">
        <ele>181.400000</ele>
        <time>2020-10-17T09:00:14Z</time>
      </trkpt>
      <trkpt lat="40.028699000" lon="-8.451301000">
        <ele>180.800000</ele>
        <time>2020-10-17T09:00:16Z</time>
      </trkpt>
      <trkpt lat="40.028675000" lon="-8.451184000">
        <ele>180.200000</ele>
        <time>2020-10-17T09:00:17Z</time>
      </trkpt>
      <trkpt lat="40.028642000" lon="-8.450948000">
        <ele>179.600000</ele>
        <time>2020-10-17T09:00:19Z</time>
      </trkpt>
      <trkpt lat="40.028631000" lon="-8.450839000">
        <ele>178.800000</ele>
        <time>2020-10-17T09:00:20Z</time>
      </trkpt>
      <trkpt lat="40.028626000" lon="-8.450734000">
        <ele>178.200000</ele>
        <time>2020-10-17T09:00:21Z</time>
      </trkpt>
      <trkpt lat="40.028627000" lon="-8.450632000">
        <ele>177.600000</ele>
        <time>2020-10-17T09:00:22Z</time>
      </trkpt>
      <trkpt lat="40.028632000" lon="-8.450527000">
        <ele>177.400000</ele>
        <time>2020-10-17T09:00:23Z</time>
      </trkpt>
      <trkpt lat="40.028626000" lon="-8.450424000">
        <ele>176.600000</ele>
        <time>2020-10-17T09:00:24Z</time>
      </trkpt>
      <trkpt lat="40.028569000" lon="-8.450229000">
        <ele>175.000000</ele>
        <time>2020-10-17T09:00:26Z</time>
      </trkpt>
      <trkpt lat="40.028529000" lon="-8.450137000">
        <ele>174.200000</ele>
        <time>2020-10-17T09:00:27Z</time>
      </trkpt>
      <trkpt lat="40.028488000" lon="-8.450049000">
        <ele>173.400000</ele>
        <time>2020-10-17T09:00:28Z</time>
      </trkpt>
      <trkpt lat="40.028450000" lon="-8.449962000">
        <ele>172.600000</ele>
        <time>2020-10-17T09:00:29Z</time>
      </trkpt>
      <trkpt lat="40.028415000" lon="-8.449876000">
        <ele>172.000000</ele>
        <time>2020-10-17T09:00:30Z</time>
      </trkpt>
      <trkpt lat="40.028384000" lon="-8.449791000">
        <ele>171.400000</ele>
        <time>2020-10-17T09:00:31Z</time>
      </trkpt>
      <trkpt lat="40.028352000" lon="-8.449708000">
        <ele>170.400000</ele>
        <time>2020-10-17T09:00:32Z</time>
      </trkpt>
      <trkpt lat="40.028317000" lon="-8.449626000">
        <ele>169.600000</ele>
        <time>2020-10-17T09:00:33Z</time>
      </trkpt>
      <trkpt lat="40.028283000" lon="-8.449545000">
        <ele>169.400000</ele>
        <time>2020-10-17T09:00:34Z</time>
      </trkpt>
      <trkpt lat="40.028250000" lon="-8.449464000">
        <ele>169.000000</ele>
        <time>2020-10-17T09:00:35Z</time>
      </trkpt>
      <trkpt lat="40.028164000" lon="-8.449216000">
        <ele>168.600000</ele>
        <time>2020-10-17T09:00:38Z</time>
      </trkpt>
      <trkpt lat="40.028105000" lon="-8.448774000">
        <ele>168.400000</ele>
        <time>2020-10-17T09:00:43Z</time>
      </trkpt>
      <trkpt lat="40.028123000" lon="-8.448317000">
        <ele>168.400000</ele>
        <time>2020-10-17T09:00:48Z</time>
      </trkpt>
      <trkpt lat="40.028128000" lon="-8.448229000">
        <ele>168.200000</ele>
        <time>2020-10-17T09:00:49Z</time>
      </trkpt>
      <trkpt lat="40.028131000" lon="-8.448144000">
        <ele>168.400000</ele>
        <time>2020-10-17T09:00:50Z</time>
      </trkpt>
      <trkpt lat="40.028131000" lon="-8.448061000">
        <ele>168.400000</ele>
        <time>2020-10-17T09:00:51Z</time>
      </trkpt>
      <trkpt lat="40.028167000" lon="-8.447699000">
        <ele>168.200000</ele>
        <time>2020-10-17T09:00:55Z</time>
      </trkpt>
      <trkpt lat="40.028161000" lon="-8.447604000">
        <ele>168.200000</ele>
        <time>2020-10-17T09:00:56Z</time>
      </trkpt>
      <trkpt lat="40.028141000" lon="-8.447513000">
        <ele>168.200000</ele>
        <time>2020-10-17T09:00:57Z</time>
      </trkpt>
      <trkpt lat="40.028109000" lon="-8.447431000">
        <ele>168.000000</ele>
        <time>2020-10-17T09:00:58Z</time>
      </trkpt>
      <trkpt lat="40.028071000" lon="-8.447354000">
        <ele>168.000000</ele>
        <time>2020-10-17T09:00:59Z</time>
      </trkpt>
      <trkpt lat="40.028032000" lon="-8.447281000">
        <ele>168.000000</ele>
        <time>2020-10-17T09:01:00Z</time>
      </trkpt>
      <trkpt lat="40.027997000" lon="-8.447203000">
        <ele>167.800000</ele>
        <time>2020-10-17T09:01:01Z</time>
      </trkpt>
      <trkpt lat="40.027927000" lon="-8.446958000">
        <ele>168.200000</ele>
        <time>2020-10-17T09:01:04Z</time>
      </trkpt>
      <trkpt lat="40.027920000" lon="-8.446876000">
        <ele>168.000000</ele>
        <time>2020-10-17T09:01:05Z</time>
      </trkpt>
      <trkpt lat="40.027917000" lon="-8.446795000">
        <ele>168.200000</ele>
        <time>2020-10-17T09:01:06Z</time>
      </trkpt>
      <trkpt lat="40.027916000" lon="-8.446715000">
        <ele>168.000000</ele>
        <time>2020-10-17T09:01:07Z</time>
      </trkpt>
      <trkpt lat="40.027915000" lon="-8.446635000">
        <ele>168.000000</ele>
        <time>2020-10-17T09:01:08Z</time>
      </trkpt>
      <trkpt lat="40.027915000" lon="-8.446555000">
        <ele>168.000000</ele>
        <time>2020-10-17T09:01:09Z</time>
      </trkpt>
      <trkpt lat="40.027916000" lon="-8.446477000">
        <ele>168.200000</ele>
        <time>2020-10-17T09:01:10Z</time>
      </trkpt>
      <trkpt lat="40.027919000" lon="-8.446397000">
        <ele>168.000000</ele>
        <time>2020-10-17T09:01:11Z</time>
      </trkpt>
      <trkpt lat="40.027928000" lon="-8.446072000">
        <ele>168.400000</ele>
        <time>2020-10-17T09:01:15Z</time>
      </trkpt>
      <trkpt lat="40.027930000" lon="-8.445994000">
        <ele>168.200000</ele>
        <time>2020-10-17T09:01:16Z</time>
      </trkpt>
      <trkpt lat="40.027929000" lon="-8.445918000">
        <ele>168.400000</ele>
        <time>2020-10-17T09:01:17Z</time>
      </trkpt>
      <trkpt lat="40.027919000" lon="-8.445596000">
        <ele>168.600000</ele>
        <time>2020-10-17T09:01:21Z</time>
      </trkpt>
      <trkpt lat="40.027910000" lon="-8.445352000">
        <ele>168.800000</ele>
        <time>2020-10-17T09:01:24Z</time>
      </trkpt>
      <trkpt lat="40.027906000" lon="-8.445270000">
        <ele>169.000000</ele>
        <time>2020-10-17T09:01:25Z</time>
      </trkpt>
      <trkpt lat="40.027902000" lon="-8.445191000">
        <ele>169.200000</ele>
        <time>2020-10-17T09:01:26Z</time>
      </trkpt>
      <trkpt lat="40.027897000" lon="-8.445112000">
        <ele>169.400000</ele>
        <time>2020-10-17T09:01:27Z</time>
      </trkpt>
      <trkpt lat="40.027892000" lon="-8.445032000">
        <ele>169.400000</ele>
        <time>2020-10-17T09:01:28Z</time>
      </trkpt>
      <trkpt lat="40.027885000" lon="-8.444954000">
        <ele>169.600000</ele>
        <time>2020-10-17T09:01:29Z</time>
      </trkpt>
      <trkpt lat="40.027878000" lon="-8.444878000">
        <ele>169.600000</ele>
        <time>2020-10-17T09:01:30Z</time>
      </trkpt>
      <trkpt lat="40.027870000" lon="-8.444803000">
        <ele>169.800000</ele>
        <time>2020-10-17T09:01:31Z</time>
      </trkpt>
      <trkpt lat="40.027857000" lon="-8.444728000">
        <ele>169.800000</ele>
        <time>2020-10-17T09:01:32Z</time>
      </trkpt>
      <trkpt lat="40.027833000" lon="-8.444664000">
        <ele>169.800000</ele>
        <time>2020-10-17T09:01:33Z</time>
      </trkpt>
      <trkpt lat="40.027796000" lon="-8.444616000">
        <ele>170.000000</ele>
        <time>2020-10-17T09:01:34Z</time>
      </trkpt>
      <trkpt lat="40.027752000" lon="-8.444587000">
        <ele>170.200000</ele>
        <time>2020-10-17T09:01:35Z</time>
      </trkpt>
      <trkpt lat="40.027701000" lon="-8.444574000">
        <ele>170.400000</ele>
        <time>2020-10-17T09:01:36Z</time>
      </trkpt>
      <trkpt lat="40.027643000" lon="-8.444573000">
        <ele>170.600000</ele>
        <time>2020-10-17T09:01:37Z</time>
      </trkpt>
      <trkpt lat="40.027584000" lon="-8.444575000">
        <ele>170.800000</ele>
        <time>2020-10-17T09:01:38Z</time>
      </trkpt>
      <trkpt lat="40.027524000" lon="-8.444580000">
        <ele>170.800000</ele>
        <time>2020-10-17T09:01:39Z</time>
      </trkpt>
      <trkpt lat="40.027463000" lon="-8.444584000">
        <ele>171.000000</ele>
        <time>2020-10-17T09:01:40Z</time>
      </trkpt>
      <trkpt lat="40.027402000" lon="-8.444584000">
        <ele>171.200000</ele>
        <time>2020-10-17T09:01:41Z</time>
      </trkpt>
      <trkpt lat="40.027339000" lon="-8.444582000">
        <ele>171.200000</ele>
        <time>2020-10-17T09:01:42Z</time>
      </trkpt>
      <trkpt lat="40.027275000" lon="-8.444577000">
        <ele>171.400000</ele>
        <time>2020-10-17T09:01:43Z</time>
      </trkpt>
      <trkpt lat="40.027141000" lon="-8.444579000">
        <ele>171.400000</ele>
        <time>2020-10-17T09:01:45Z</time>
      </trkpt>
      <trkpt lat="40.027013000" lon="-8.444596000">
        <ele>171.400000</ele>
        <time>2020-10-17T09:01:47Z</time>
      </trkpt>
      <trkpt lat="40.026949000" lon="-8.444598000">
        <ele>171.400000</ele>
        <time>2020-10-17T09:01:48Z</time>
      </trkpt>
      <trkpt lat="40.026886000" lon="-8.444600000">
        <ele>171.600000</ele>
        <time>2020-10-17T09:01:49Z</time>
      </trkpt>
      <trkpt lat="40.026825000" lon="-8.444601000">
        <ele>171.600000</ele>
        <time>2020-10-17T09:01:50Z</time>
      </trkpt>
      <trkpt lat="40.026766000" lon="-8.444601000">
        <ele>171.400000</ele>
        <time>2020-10-17T09:01:51Z</time>
      </trkpt>
      <trkpt lat="40.026706000" lon="-8.444601000">
        <ele>171.600000</ele>
        <time>2020-10-17T09:01:52Z</time>
      </trkpt>
      <trkpt lat="40.026647000" lon="-8.444601000">
        <ele>171.600000</ele>
        <time>2020-10-17T09:01:53Z</time>
      </trkpt>
      <trkpt lat="40.026589000" lon="-8.444600000">
        <ele>171.400000</ele>
        <time>2020-10-17T09:01:54Z</time>
      </trkpt>
      <trkpt lat="40.026529000" lon="-8.444598000">
        <ele>171.600000</ele>
        <time>2020-10-17T09:01:55Z</time>
      </trkpt>
      <trkpt lat="40.026163000" lon="-8.444615000">
        <ele>171.600000</ele>
        <time>2020-10-17T09:02:01Z</time>
      </trkpt>
      <trkpt lat="40.025919000" lon="-8.444628000">
        <ele>171.600000</ele>
        <time>2020-10-17T09:02:05Z</time>
      </trkpt>
      <trkpt lat="40.025795000" lon="-8.444623000">
        <ele>172.000000</ele>
        <time>2020-10-17T09:02:07Z</time>
      </trkpt>
      <trkpt lat="40.025673000" lon="-8.444623000">
        <ele>172.200000</ele>
        <time>2020-10-17T09:02:09Z</time>
      </trkpt>
      <trkpt lat="40.025612000" lon="-8.444622000">
        <ele>172.200000</ele>
        <time>2020-10-17T09:02:10Z</time>
      </trkpt>
      <trkpt lat="40.025371000" lon="-8.444611000">
        <ele>172.400000</ele>
        <time>2020-10-17T09:02:14Z</time>
      </trkpt>
      <trkpt lat="40.025310000" lon="-8.444614000">
        <ele>172.200000</ele>
        <time>2020-10-17T09:02:15Z</time>
      </trkpt>
      <trkpt lat="40.025251000" lon="-8.444617000">
        <ele>172.200000</ele>
        <time>2020-10-17T09:02:16Z</time>
      </trkpt>
      <trkpt lat="40.025193000" lon="-8.444619000">
        <ele>172.200000</ele>
        <time>2020-10-17T09:02:17Z</time>
      </trkpt>
      <trkpt lat="40.024769000" lon="-8.444613000">
        <ele>172.800000</ele>
        <time>2020-10-17T09:02:24Z</time>
      </trkpt>
      <trkpt lat="40.024706000" lon="-8.444611000">
        <ele>172.800000</ele>
        <time>2020-10-17T09:02:25Z</time>
      </trkpt>
      <trkpt lat="40.024321000" lon="-8.444599000">
        <ele>172.800000</ele>
        <time>2020-10-17T09:02:31Z</time>
      </trkpt>
      <trkpt lat="40.024258000" lon="-8.444596000">
        <ele>172.600000</ele>
        <time>2020-10-17T09:02:32Z</time>
      </trkpt>
      <trkpt lat="40.024194000" lon="-8.444595000">
        <ele>172.800000</ele>
        <time>2020-10-17T09:02:33Z</time>
      </trkpt>
      <trkpt lat="40.024133000" lon="-8.444592000">
        <ele>172.800000</ele>
        <time>2020-10-17T09:02:34Z</time>
      </trkpt>
      <trkpt lat="40.024073000" lon="-8.444590000">
        <ele>172.800000</ele>
        <time>2020-10-17T09:02:35Z</time>
      </trkpt>
      <trkpt lat="40.024013000" lon="-8.444586000">
        <ele>172.800000</ele>
        <time>2020-10-17T09:02:36Z</time>
      </trkpt>
      <trkpt lat="40.023952000" lon="-8.444582000">
        <ele>172.600000</ele>
        <time>2020-10-17T09:02:37Z</time>
      </trkpt>
      <trkpt lat="40.023834000" lon="-8.444577000">
        <ele>172.600000</ele>
        <time>2020-10-17T09:02:39Z</time>
      </trkpt>
      <trkpt lat="40.023651000" lon="-8.444573000">
        <ele>172.600000</ele>
        <time>2020-10-17T09:02:42Z</time>
      </trkpt>
      <trkpt lat="40.023087000" lon="-8.444567000">
        <ele>172.400000</ele>
        <time>2020-10-17T09:02:51Z</time>
      </trkpt>
      <trkpt lat="40.023022000" lon="-8.444570000">
        <ele>172.600000</ele>
        <time>2020-10-17T09:02:52Z</time>
      </trkpt>
      <trkpt lat="40.022960000" lon="-8.444573000">
        <ele>172.400000</ele>
        <time>2020-10-17T09:02:53Z</time>
      </trkpt>
      <trkpt lat="40.022899000" lon="-8.444573000">
        <ele>172.600000</ele>
        <time>2020-10-17T09:02:54Z</time>
      </trkpt>
      <trkpt lat="40.022839000" lon="-8.444574000">
        <ele>172.600000</ele>
        <time>2020-10-17T09:02:55Z</time>
      </trkpt>
      <trkpt lat="40.022781000" lon="-8.444573000">
        <ele>172.600000</ele>
        <time>2020-10-17T09:02:56Z</time>
      </trkpt>
      <trkpt lat="40.022660000" lon="-8.444571000">
        <ele>172.600000</ele>
        <time>2020-10-17T09:02:58Z</time>
      </trkpt>
      <trkpt lat="40.022538000" lon="-8.444568000">
        <ele>172.600000</ele>
        <time>2020-10-17T09:03:00Z</time>
      </trkpt>
      <trkpt lat="40.022476000" lon="-8.444566000">
        <ele>172.800000</ele>
        <time>2020-10-17T09:03:01Z</time>
      </trkpt>
      <trkpt lat="40.022416000" lon="-8.444564000">
        <ele>172.800000</ele>
        <time>2020-10-17T09:03:02Z</time>
      </trkpt>
      <trkpt lat="40.022357000" lon="-8.444563000">
        <ele>172.800000</ele>
        <time>2020-10-17T09:03:03Z</time>
      </trkpt>
      <trkpt lat="40.022299000" lon="-8.444562000">
        <ele>172.600000</ele>
        <time>2020-10-17T09:03:04Z</time>
      </trkpt>
      <trkpt lat="40.022119000" lon="-8.444557000">
        <ele>172.800000</ele>
        <time>2020-10-17T09:03:07Z</time>
      </trkpt>
      <trkpt lat="40.022063000" lon="-8.444557000">
        <ele>172.800000</ele>
        <time>2020-10-17T09:03:08Z</time>
      </trkpt>
      <trkpt lat="40.022005000" lon="-8.444558000">
        <ele>172.800000</ele>
        <time>2020-10-17T09:03:09Z</time>
      </trkpt>
      <trkpt lat="40.021653000" lon="-8.444544000">
        <ele>173.200000</ele>
        <time>2020-10-17T09:03:15Z</time>
      </trkpt>
      <trkpt lat="40.021592000" lon="-8.444545000">
        <ele>173.200000</ele>
        <time>2020-10-17T09:03:16Z</time>
      </trkpt>
      <trkpt lat="40.021536000" lon="-8.444546000">
        <ele>173.200000</ele>
        <time>2020-10-17T09:03:17Z</time>
      </trkpt>
      <trkpt lat="40.021479000" lon="-8.444546000">
        <ele>173.400000</ele>
        <time>2020-10-17T09:03:18Z</time>
      </trkpt>
      <trkpt lat="40.021362000" lon="-8.444547000">
        <ele>173.200000</ele>
        <time>2020-10-17T09:03:20Z</time>
      </trkpt>
      <trkpt lat="40.021304000" lon="-8.444548000">
        <ele>173.400000</ele>
        <time>2020-10-17T09:03:21Z</time>
      </trkpt>
      <trkpt lat="40.021249000" lon="-8.444548000">
        <ele>173.600000</ele>
        <time>2020-10-17T09:03:22Z</time>
      </trkpt>
      <trkpt lat="40.020961000" lon="-8.444540000">
        <ele>174.000000</ele>
        <time>2020-10-17T09:03:27Z</time>
      </trkpt>
      <trkpt lat="40.020427000" lon="-8.444533000">
        <ele>174.400000</ele>
        <time>2020-10-17T09:03:36Z</time>
      </trkpt>
      <trkpt lat="40.020368000" lon="-8.444530000">
        <ele>174.400000</ele>
        <time>2020-10-17T09:03:37Z</time>
      </trkpt>
      <trkpt lat="40.020252000" lon="-8.444522000">
        <ele>174.600000</ele>
        <time>2020-10-17T09:03:39Z</time>
      </trkpt>
      <trkpt lat="40.020196000" lon="-8.444519000">
        <ele>174.600000</ele>
        <time>2020-10-17T09:03:40Z</time>
      </trkpt>
      <trkpt lat="40.020140000" lon="-8.444516000">
        <ele>174.600000</ele>
        <time>2020-10-17T09:03:41Z</time>
      </trkpt>
      <trkpt lat="40.019966000" lon="-8.444514000">
        <ele>174.800000</ele>
        <time>2020-10-17T09:03:44Z</time>
      </trkpt>
      <trkpt lat="40.019910000" lon="-8.444510000">
        <ele>175.000000</ele>
        <time>2020-10-17T09:03:45Z</time>
      </trkpt>
      <trkpt lat="40.019742000" lon="-8.444486000">
        <ele>175.000000</ele>
        <time>2020-10-17T09:03:48Z</time>
      </trkpt>
      <trkpt lat="40.019689000" lon="-8.444470000">
        <ele>175.000000</ele>
        <time>2020-10-17T09:03:49Z</time>
      </trkpt>
      <trkpt lat="40.019635000" lon="-8.444454000">
        <ele>175.200000</ele>
        <time>2020-10-17T09:03:50Z</time>
      </trkpt>
      <trkpt lat="40.019315000" lon="-8.444320000">
        <ele>175.400000</ele>
        <time>2020-10-17T09:03:56Z</time>
      </trkpt>
      <trkpt lat="40.019150000" lon="-8.444258000">
        <ele>175.600000</ele>
        <time>2020-10-17T09:03:59Z</time>
      </trkpt>
      <trkpt lat="40.018987000" lon="-8.444195000">
        <ele>176.200000</ele>
        <time>2020-10-17T09:04:02Z</time>
      </trkpt>
      <trkpt lat="40.018879000" lon="-8.444154000">
        <ele>176.200000</ele>
        <time>2020-10-17T09:04:04Z</time>
      </trkpt>
      <trkpt lat="40.018768000" lon="-8.444134000">
        <ele>176.400000</ele>
        <time>2020-10-17T09:04:06Z</time>
      </trkpt>
      <trkpt lat="40.018714000" lon="-8.444145000">
        <ele>176.600000</ele>
        <time>2020-10-17T09:04:07Z</time>
      </trkpt>
      <trkpt lat="40.018665000" lon="-8.444173000">
        <ele>176.600000</ele>
        <time>2020-10-17T09:04:08Z</time>
      </trkpt>
      <trkpt lat="40.018624000" lon="-8.444214000">
        <ele>176.600000</ele>
        <time>2020-10-17T09:04:09Z</time>
      </trkpt>
      <trkpt lat="40.018590000" lon="-8.444267000">
        <ele>176.800000</ele>
        <time>2020-10-17T09:04:10Z</time>
      </trkpt>
      <trkpt lat="40.018544000" lon="-8.444392000">
        <ele>176.800000</ele>
        <time>2020-10-17T09:04:12Z</time>
      </trkpt>
      <trkpt lat="40.018525000" lon="-8.444458000">
        <ele>177.000000</ele>
        <time>2020-10-17T09:04:13Z</time>
      </trkpt>
      <trkpt lat="40.018484000" lon="-8.444588000">
        <ele>177.400000</ele>
        <time>2020-10-17T09:04:15Z</time>
      </trkpt>
      <trkpt lat="40.018315000" lon="-8.444999000">
        <ele>177.800000</ele>
        <time>2020-10-17T09:04:21Z</time>
      </trkpt>
      <trkpt lat="40.018282000" lon="-8.445063000">
        <ele>177.800000</ele>
        <time>2020-10-17T09:04:22Z</time>
      </trkpt>
      <trkpt lat="40.018250000" lon="-8.445124000">
        <ele>177.800000</ele>
        <time>2020-10-17T09:04:23Z</time>
      </trkpt>
      <trkpt lat="40.018216000" lon="-8.445182000">
        <ele>177.800000</ele>
        <time>2020-10-17T09:04:24Z</time>
      </trkpt>
      <trkpt lat="40.018179000" lon="-8.445237000">
        <ele>178.000000</ele>
        <time>2020-10-17T09:04:25Z</time>
      </trkpt>
      <trkpt lat="40.018140000" lon="-8.445287000">
        <ele>178.000000</ele>
        <time>2020-10-17T09:04:26Z</time>
      </trkpt>
      <trkpt lat="40.018102000" lon="-8.445336000">
        <ele>178.000000</ele>
        <time>2020-10-17T09:04:27Z</time>
      </trkpt>
      <trkpt lat="40.018067000" lon="-8.445382000">
        <ele>178.000000</ele>
        <time>2020-10-17T09:04:28Z</time>
      </trkpt>
      <trkpt lat="40.018037000" lon="-8.445426000">
        <ele>178.200000</ele>
        <time>2020-10-17T09:04:29Z</time>
      </trkpt>
      <trkpt lat="40.018012000" lon="-8.445473000">
        <ele>178.400000</ele>
        <time>2020-10-17T09:04:30Z</time>
      </trkpt>
      <trkpt lat="40.017991000" lon="-8.445519000">
        <ele>178.400000</ele>
        <time>2020-10-17T09:04:31Z</time>
      </trkpt>
      <trkpt lat="40.017972000" lon="-8.445567000">
        <ele>178.400000</ele>
        <time>2020-10-17T09:04:32Z</time>
      </trkpt>
      <trkpt lat="40.017954000" lon="-8.445618000">
        <ele>178.600000</ele>
        <time>2020-10-17T09:04:33Z</time>
      </trkpt>
      <trkpt lat="40.017939000" lon="-8.445673000">
        <ele>178.600000</ele>
        <time>2020-10-17T09:04:34Z</time>
      </trkpt>
      <trkpt lat="40.017927000" lon="-8.445727000">
        <ele>178.600000</ele>
        <time>2020-10-17T09:04:35Z</time>
      </trkpt>
      <trkpt lat="40.017919000" lon="-8.445777000">
        <ele>179.200000</ele>
        <time>2020-10-17T09:04:36Z</time>
      </trkpt>
      <trkpt lat="40.017915000" lon="-8.445825000">
        <ele>179.600000</ele>
        <time>2020-10-17T09:04:37Z</time>
      </trkpt>
      <trkpt lat="40.017913000" lon="-8.445872000">
        <ele>179.800000</ele>
        <time>2020-10-17T09:04:38Z</time>
      </trkpt>
      <trkpt lat="40.017913000" lon="-8.445925000">
        <ele>179.600000</ele>
        <time>2020-10-17T09:04:39Z</time>
      </trkpt>
      <trkpt lat="40.017912000" lon="-8.445988000">
        <ele>180.000000</ele>
        <time>2020-10-17T09:04:40Z</time>
      </trkpt>
      <trkpt lat="40.017909000" lon="-8.446057000">
        <ele>180.400000</ele>
        <time>2020-10-17T09:04:41Z</time>
      </trkpt>
      <trkpt lat="40.017903000" lon="-8.446133000">
        <ele>180.400000</ele>
        <time>2020-10-17T09:04:42Z</time>
      </trkpt>
      <trkpt lat="40.017893000" lon="-8.446205000">
        <ele>180.600000</ele>
        <time>2020-10-17T09:04:43Z</time>
      </trkpt>
      <trkpt lat="40.017878000" lon="-8.446278000">
        <ele>180.600000</ele>
        <time>2020-10-17T09:04:44Z</time>
      </trkpt>
      <trkpt lat="40.017860000" lon="-8.446351000">
        <ele>181.000000</ele>
        <time>2020-10-17T09:04:45Z</time>
      </trkpt>
      <trkpt lat="40.017840000" lon="-8.446420000">
        <ele>181.000000</ele>
        <time>2020-10-17T09:04:46Z</time>
      </trkpt>
      <trkpt lat="40.017817000" lon="-8.446486000">
        <ele>181.000000</ele>
        <time>2020-10-17T09:04:47Z</time>
      </trkpt>
      <trkpt lat="40.017791000" lon="-8.446550000">
        <ele>181.000000</ele>
        <time>2020-10-17T09:04:48Z</time>
      </trkpt>
      <trkpt lat="40.017766000" lon="-8.446621000">
        <ele>181.000000</ele>
        <time>2020-10-17T09:04:49Z</time>
      </trkpt>
      <trkpt lat="40.017734000" lon="-8.446783000">
        <ele>181.000000</ele>
        <time>2020-10-17T09:04:51Z</time>
      </trkpt>
      <trkpt lat="40.017705000" lon="-8.446953000">
        <ele>181.000000</ele>
        <time>2020-10-17T09:04:53Z</time>
      </trkpt>
      <trkpt lat="40.017676000" lon="-8.447029000">
        <ele>180.800000</ele>
        <time>2020-10-17T09:04:54Z</time>
      </trkpt>
      <trkpt lat="40.017636000" lon="-8.447089000">
        <ele>180.800000</ele>
        <time>2020-10-17T09:04:55Z</time>
      </trkpt>
      <trkpt lat="40.017585000" lon="-8.447127000">
        <ele>180.800000</ele>
        <time>2020-10-17T09:04:56Z</time>
      </trkpt>
      <trkpt lat="40.017528000" lon="-8.447143000">
        <ele>180.800000</ele>
        <time>2020-10-17T09:04:57Z</time>
      </trkpt>
      <trkpt lat="40.017469000" lon="-8.447151000">
        <ele>180.800000</ele>
        <time>2020-10-17T09:04:58Z</time>
      </trkpt>
      <trkpt lat="40.017409000" lon="-8.447159000">
        <ele>180.600000</ele>
        <time>2020-10-17T09:04:59Z</time>
      </trkpt>
      <trkpt lat="40.017162000" lon="-8.447231000">
        <ele>180.000000</ele>
        <time>2020-10-17T09:05:03Z</time>
      </trkpt>
      <trkpt lat="40.017101000" lon="-8.447249000">
        <ele>179.800000</ele>
        <time>2020-10-17T09:05:04Z</time>
      </trkpt>
      <trkpt lat="40.017042000" lon="-8.447265000">
        <ele>179.600000</ele>
        <time>2020-10-17T09:05:05Z</time>
      </trkpt>
      <trkpt lat="40.016860000" lon="-8.447305000">
        <ele>179.200000</ele>
        <time>2020-10-17T09:05:08Z</time>
      </trkpt>
      <trkpt lat="40.016803000" lon="-8.447315000">
        <ele>179.200000</ele>
        <time>2020-10-17T09:05:09Z</time>
      </trkpt>
      <trkpt lat="40.016687000" lon="-8.447334000">
        <ele>179.200000</ele>
        <time>2020-10-17T09:05:11Z</time>
      </trkpt>
      <trkpt lat="40.016627000" lon="-8.447339000">
        <ele>179.200000</ele>
        <time>2020-10-17T09:05:12Z</time>
      </trkpt>
      <trkpt lat="40.016217000" lon="-8.447376000">
        <ele>179.200000</ele>
        <time>2020-10-17T09:05:19Z</time>
      </trkpt>
      <trkpt lat="40.016160000" lon="-8.447391000">
        <ele>179.200000</ele>
        <time>2020-10-17T09:05:20Z</time>
      </trkpt>
      <trkpt lat="40.016103000" lon="-8.447408000">
        <ele>179.200000</ele>
        <time>2020-10-17T09:05:21Z</time>
      </trkpt>
      <trkpt lat="40.015932000" lon="-8.447454000">
        <ele>179.400000</ele>
        <time>2020-10-17T09:05:24Z</time>
      </trkpt>
      <trkpt lat="40.015757000" lon="-8.447479000">
        <ele>179.200000</ele>
        <time>2020-10-17T09:05:27Z</time>
      </trkpt>
      <trkpt lat="40.015342000" lon="-8.447506000">
        <ele>179.600000</ele>
        <time>2020-10-17T09:05:34Z</time>
      </trkpt>
      <trkpt lat="40.015223000" lon="-8.447517000">
        <ele>179.600000</ele>
        <time>2020-10-17T09:05:36Z</time>
      </trkpt>
      <trkpt lat="40.015165000" lon="-8.447520000">
        <ele>179.800000</ele>
        <time>2020-10-17T09:05:37Z</time>
      </trkpt>
      <trkpt lat="40.015050000" lon="-8.447530000">
        <ele>179.800000</ele>
        <time>2020-10-17T09:05:39Z</time>
      </trkpt>
      <trkpt lat="40.014877000" lon="-8.447550000">
        <ele>180.000000</ele>
        <time>2020-10-17T09:05:42Z</time>
      </trkpt>
      <trkpt lat="40.014765000" lon="-8.447561000">
        <ele>180.000000</ele>
        <time>2020-10-17T09:05:44Z</time>
      </trkpt>
      <trkpt lat="40.014720000" lon="-8.447590000">
        <ele>179.800000</ele>
        <time>2020-10-17T09:05:45Z</time>
      </trkpt>
      <trkpt lat="40.014692000" lon="-8.447642000">
        <ele>180.000000</ele>
        <time>2020-10-17T09:05:46Z</time>
      </trkpt>
      <trkpt lat="40.014676000" lon="-8.447703000">
        <ele>180.200000</ele>
        <time>2020-10-17T09:05:47Z</time>
      </trkpt>
      <trkpt lat="40.014675000" lon="-8.447767000">
        <ele>180.200000</ele>
        <time>2020-10-17T09:05:48Z</time>
      </trkpt>
      <trkpt lat="40.014684000" lon="-8.447835000">
        <ele>180.200000</ele>
        <time>2020-10-17T09:05:49Z</time>
      </trkpt>
      <trkpt lat="40.014751000" lon="-8.448369000">
        <ele>180.400000</ele>
        <time>2020-10-17T09:05:56Z</time>
      </trkpt>
      <trkpt lat="40.014761000" lon="-8.448444000">
        <ele>180.400000</ele>
        <time>2020-10-17T09:05:57Z</time>
      </trkpt>
      <trkpt lat="40.014773000" lon="-8.448520000">
        <ele>180.400000</ele>
        <time>2020-10-17T09:05:58Z</time>
      </trkpt>
      <trkpt lat="40.014792000" lon="-8.448852000">
        <ele>180.400000</ele>
        <time>2020-10-17T09:06:02Z</time>
      </trkpt>
      <trkpt lat="40.014799000" lon="-8.449010000">
        <ele>180.200000</ele>
        <time>2020-10-17T09:06:04Z</time>
      </trkpt>
      <trkpt lat="40.014805000" lon="-8.449085000">
        <ele>180.200000</ele>
        <time>2020-10-17T09:06:05Z</time>
      </trkpt>
      <trkpt lat="40.014828000" lon="-8.449413000">
        <ele>180.200000</ele>
        <time>2020-10-17T09:06:09Z</time>
      </trkpt>
      <trkpt lat="40.014836000" lon="-8.449482000">
        <ele>180.000000</ele>
        <time>2020-10-17T09:06:10Z</time>
      </trkpt>
      <trkpt lat="40.014848000" lon="-8.449559000">
        <ele>180.200000</ele>
        <time>2020-10-17T09:06:11Z</time>
      </trkpt>
      <trkpt lat="40.014848000" lon="-8.449670000">
        <ele>180.000000</ele>
        <time>2020-10-17T09:06:12Z</time>
      </trkpt>
      <trkpt lat="40.014833000" lon="-8.449856000">
        <ele>180.000000</ele>
        <time>2020-10-17T09:06:14Z</time>
      </trkpt>
      <trkpt lat="40.014806000" lon="-8.450018000">
        <ele>180.000000</ele>
        <time>2020-10-17T09:06:16Z</time>
      </trkpt>
      <trkpt lat="40.014788000" lon="-8.450102000">
        <ele>180.000000</ele>
        <time>2020-10-17T09:06:17Z</time>
      </trkpt>
      <trkpt lat="40.014764000" lon="-8.450177000">
        <ele>180.000000</ele>
        <time>2020-10-17T09:06:18Z</time>
      </trkpt>
      <trkpt lat="40.014739000" lon="-8.450232000">
        <ele>180.000000</ele>
        <time>2020-10-17T09:06:19Z</time>
      </trkpt>
      <trkpt lat="40.014709000" lon="-8.450257000">
        <ele>180.000000</ele>
        <time>2020-10-17T09:06:20Z</time>
      </trkpt>
      <trkpt lat="40.014670000" lon="-8.450294000">
        <ele>180.000000</ele>
        <time>2020-10-17T09:06:21Z</time>
      </trkpt>
      <trkpt lat="40.014624000" lon="-8.450320000">
        <ele>180.000000</ele>
        <time>2020-10-17T09:06:22Z</time>
      </trkpt>
      <trkpt lat="40.014578000" lon="-8.450345000">
        <ele>180.200000</ele>
        <time>2020-10-17T09:06:23Z</time>
      </trkpt>
      <trkpt lat="40.014525000" lon="-8.450376000">
        <ele>180.200000</ele>
        <time>2020-10-17T09:06:24Z</time>
      </trkpt>
      <trkpt lat="40.014356000" lon="-8.450438000">
        <ele>180.200000</ele>
        <time>2020-10-17T09:06:27Z</time>
      </trkpt>
      <trkpt lat="40.014304000" lon="-8.450455000">
        <ele>180.200000</ele>
        <time>2020-10-17T09:06:28Z</time>
      </trkpt>
      <trkpt lat="40.014022000" lon="-8.450568000">
        <ele>180.600000</ele>
        <time>2020-10-17T09:06:33Z</time>
      </trkpt>
      <trkpt lat="40.013914000" lon="-8.450602000">
        <ele>180.600000</ele>
        <time>2020-10-17T09:06:35Z</time>
      </trkpt>
      <trkpt lat="40.013795000" lon="-8.450617000">
        <ele>180.800000</ele>
        <time>2020-10-17T09:06:37Z</time>
      </trkpt>
      <trkpt lat="40.013730000" lon="-8.450618000">
        <ele>181.000000</ele>
        <time>2020-10-17T09:06:38Z</time>
      </trkpt>
      <trkpt lat="40.013607000" lon="-8.450627000">
        <ele>181.200000</ele>
        <time>2020-10-17T09:06:40Z</time>
      </trkpt>
      <trkpt lat="40.013491000" lon="-8.450631000">
        <ele>181.400000</ele>
        <time>2020-10-17T09:06:42Z</time>
      </trkpt>
      <trkpt lat="40.013434000" lon="-8.450631000">
        <ele>181.200000</ele>
        <time>2020-10-17T09:06:43Z</time>
      </trkpt>
      <trkpt lat="40.013379000" lon="-8.450636000">
        <ele>181.400000</ele>
        <time>2020-10-17T09:06:44Z</time>
      </trkpt>
      <trkpt lat="40.013222000" lon="-8.450662000">
        <ele>181.800000</ele>
        <time>2020-10-17T09:06:47Z</time>
      </trkpt>
      <trkpt lat="40.013178000" lon="-8.450681000">
        <ele>181.800000</ele>
        <time>2020-10-17T09:06:48Z</time>
      </trkpt>
      <trkpt lat="40.013146000" lon="-8.450700000">
        <ele>181.800000</ele>
        <time>2020-10-17T09:06:49Z</time>
      </trkpt>
      <trkpt lat="40.013128000" lon="-8.450717000">
        <ele>182.000000</ele>
        <time>2020-10-17T09:06:50Z</time>
      </trkpt>
      <trkpt lat="40.013109000" lon="-8.450744000">
        <ele>182.000000</ele>
        <time>2020-10-17T09:06:51Z</time>
      </trkpt>
      <trkpt lat="40.013093000" lon="-8.450771000">
        <ele>182.400000</ele>
        <time>2020-10-17T09:06:52Z</time>
      </trkpt>
      <trkpt lat="40.013079000" lon="-8.450802000">
        <ele>182.400000</ele>
        <time>2020-10-17T09:06:53Z</time>
      </trkpt>
      <trkpt lat="40.013057000" lon="-8.450841000">
        <ele>182.400000</ele>
        <time>2020-10-17T09:06:54Z</time>
      </trkpt>
      <trkpt lat="40.013035000" lon="-8.450889000">
        <ele>182.600000</ele>
        <time>2020-10-17T09:06:55Z</time>
      </trkpt>
      <trkpt lat="40.013018000" lon="-8.450929000">
        <ele>182.600000</ele>
        <time>2020-10-17T09:06:56Z</time>
      </trkpt>
      <trkpt lat="40.013004000" lon="-8.450975000">
        <ele>182.800000</ele>
        <time>2020-10-17T09:06:57Z</time>
      </trkpt>
      <trkpt lat="40.012986000" lon="-8.451026000">
        <ele>183.200000</ele>
        <time>2020-10-17T09:06:58Z</time>
      </trkpt>
      <trkpt lat="40.012971000" lon="-8.451069000">
        <ele>183.400000</ele>
        <time>2020-10-17T09:06:59Z</time>
      </trkpt>
      <trkpt lat="40.012952000" lon="-8.451113000">
        <ele>183.800000</ele>
        <time>2020-10-17T09:07:00Z</time>
      </trkpt>
      <trkpt lat="40.012937000" lon="-8.451167000">
        <ele>184.000000</ele>
        <time>2020-10-17T09:07:01Z</time>
      </trkpt>
      <trkpt lat="40.012922000" lon="-8.451212000">
        <ele>184.400000</ele>
        <time>2020-10-17T09:07:02Z</time>
      </trkpt>
      <trkpt lat="40.012906000" lon="-8.451252000">
        <ele>184.800000</ele>
        <time>2020-10-17T09:07:03Z</time>
      </trkpt>
      <trkpt lat="40.012886000" lon="-8.451297000">
        <ele>185.000000</ele>
        <time>2020-10-17T09:07:04Z</time>
      </trkpt>
      <trkpt lat="40.012866000" lon="-8.451339000">
        <ele>185.200000</ele>
        <time>2020-10-17T09:07:05Z</time>
      </trkpt>
      <trkpt lat="40.012841000" lon="-8.451384000">
        <ele>185.400000</ele>
        <time>2020-10-17T09:07:06Z</time>
      </trkpt>
      <trkpt lat="40.012817000" lon="-8.451423000">
        <ele>185.600000</ele>
        <time>2020-10-17T09:07:07Z</time>
      </trkpt>
      <trkpt lat="40.012794000" lon="-8.451479000">
        <ele>185.800000</ele>
        <time>2020-10-17T09:07:08Z</time>
      </trkpt>
      <trkpt lat="40.012769000" lon="-8.451514000">
        <ele>186.200000</ele>
        <time>2020-10-17T09:07:09Z</time>
      </trkpt>
      <trkpt lat="40.012746000" lon="-8.451553000">
        <ele>186.600000</ele>
        <time>2020-10-17T09:07:10Z</time>
      </trkpt>
      <trkpt lat="40.012723000" lon="-8.451600000">
        <ele>187.200000</ele>
        <time>2020-10-17T09:07:11Z</time>
      </trkpt>
      <trkpt lat="40.012696000" lon="-8.451647000">
        <ele>187.400000</ele>
        <time>2020-10-17T09:07:12Z</time>
      </trkpt>
      <trkpt lat="40.012668000" lon="-8.451692000">
        <ele>187.600000</ele>
        <time>2020-10-17T09:07:13Z</time>
      </trkpt>
      <trkpt lat="40.012643000" lon="-8.451738000">
        <ele>187.800000</ele>
        <time>2020-10-17T09:07:14Z</time>
      </trkpt>
      <trkpt lat="40.012622000" lon="-8.451804000">
        <ele>187.800000</ele>
        <time>2020-10-17T09:07:15Z</time>
      </trkpt>
      <trkpt lat="40.012595000" lon="-8.451860000">
        <ele>188.000000</ele>
        <time>2020-10-17T09:07:16Z</time>
      </trkpt>
      <trkpt lat="40.012563000" lon="-8.451913000">
        <ele>188.000000</ele>
        <time>2020-10-17T09:07:17Z</time>
      </trkpt>
      <trkpt lat="40.012524000" lon="-8.451957000">
        <ele>188.200000</ele>
        <time>2020-10-17T09:07:18Z</time>
      </trkpt>
      <trkpt lat="40.012484000" lon="-8.452001000">
        <ele>188.400000</ele>
        <time>2020-10-17T09:07:19Z</time>
      </trkpt>
      <trkpt lat="40.012447000" lon="-8.452043000">
        <ele>188.600000</ele>
        <time>2020-10-17T09:07:20Z</time>
      </trkpt>
      <trkpt lat="40.012410000" lon="-8.452087000">
        <ele>188.600000</ele>
        <time>2020-10-17T09:07:21Z</time>
      </trkpt>
      <trkpt lat="40.012378000" lon="-8.452134000">
        <ele>188.800000</ele>
        <time>2020-10-17T09:07:22Z</time>
      </trkpt>
      <trkpt lat="40.012344000" lon="-8.452180000">
        <ele>188.600000</ele>
        <time>2020-10-17T09:07:23Z</time>
      </trkpt>
      <trkpt lat="40.012309000" lon="-8.452227000">
        <ele>188.800000</ele>
        <time>2020-10-17T09:07:24Z</time>
      </trkpt>
      <trkpt lat="40.012270000" lon="-8.452271000">
        <ele>188.800000</ele>
        <time>2020-10-17T09:07:25Z</time>
      </trkpt>
      <trkpt lat="40.012226000" lon="-8.452321000">
        <ele>188.800000</ele>
        <time>2020-10-17T09:07:26Z</time>
      </trkpt>
      <trkpt lat="40.012189000" lon="-8.452370000">
        <ele>189.000000</ele>
        <time>2020-10-17T09:07:27Z</time>
      </trkpt>
      <trkpt lat="40.012149000" lon="-8.452414000">
        <ele>188.800000</ele>
        <time>2020-10-17T09:07:28Z</time>
      </trkpt>
      <trkpt lat="40.012064000" lon="-8.452504000">
        <ele>189.000000</ele>
        <time>2020-10-17T09:07:30Z</time>
      </trkpt>
      <trkpt lat="40.012023000" lon="-8.452545000">
        <ele>189.000000</ele>
        <time>2020-10-17T09:07:31Z</time>
      </trkpt>
      <trkpt lat="40.011995000" lon="-8.452585000">
        <ele>189.000000</ele>
        <time>2020-10-17T09:07:32Z</time>
      </trkpt>
      <trkpt lat="40.011963000" lon="-8.452627000">
        <ele>189.200000</ele>
        <time>2020-10-17T09:07:33Z</time>
      </trkpt>
      <trkpt lat="40.011940000" lon="-8.452671000">
        <ele>189.200000</ele>
        <time>2020-10-17T09:07:34Z</time>
      </trkpt>
      <trkpt lat="40.011915000" lon="-8.452711000">
        <ele>189.400000</ele>
        <time>2020-10-17T09:07:35Z</time>
      </trkpt>
      <trkpt lat="40.011889000" lon="-8.452747000">
        <ele>189.400000</ele>
        <time>2020-10-17T09:07:36Z</time>
      </trkpt>
      <trkpt lat="40.011859000" lon="-8.452787000">
        <ele>189.400000</ele>
        <time>2020-10-17T09:07:37Z</time>
      </trkpt>
      <trkpt lat="40.011801000" lon="-8.452858000">
        <ele>189.400000</ele>
        <time>2020-10-17T09:07:39Z</time>
      </trkpt>
      <trkpt lat="40.011774000" lon="-8.452892000">
        <ele>189.600000</ele>
        <time>2020-10-17T09:07:40Z</time>
      </trkpt>
      <trkpt lat="40.011753000" lon="-8.452921000">
        <ele>189.800000</ele>
        <time>2020-10-17T09:07:41Z</time>
      </trkpt>
      <trkpt lat="40.011720000" lon="-8.452935000">
        <ele>189.800000</ele>
        <time>2020-10-17T09:07:42Z</time>
      </trkpt>
      <trkpt lat="40.011687000" lon="-8.452940000">
        <ele>189.800000</ele>
        <time>2020-10-17T09:07:43Z</time>
      </trkpt>
      <trkpt lat="40.011660000" lon="-8.452950000">
        <ele>190.000000</ele>
        <time>2020-10-17T09:07:44Z</time>
      </trkpt>
      <trkpt lat="40.011635000" lon="-8.452969000">
        <ele>190.000000</ele>
        <time>2020-10-17T09:07:45Z</time>
      </trkpt>
      <trkpt lat="40.011561000" lon="-8.452965000">
        <ele>190.200000</ele>
        <time>2020-10-17T09:07:47Z</time>
      </trkpt>
      <trkpt lat="40.011516000" lon="-8.452948000">
        <ele>190.200000</ele>
        <time>2020-10-17T09:07:48Z</time>
      </trkpt>
      <trkpt lat="40.011388000" lon="-8.452889000">
        <ele>190.400000</ele>
        <time>2020-10-17T09:07:51Z</time>
      </trkpt>
      <trkpt lat="40.011350000" lon="-8.452866000">
        <ele>190.400000</ele>
        <time>2020-10-17T09:07:52Z</time>
      </trkpt>
      <trkpt lat="40.011309000" lon="-8.452849000">
        <ele>190.200000</ele>
        <time>2020-10-17T09:07:53Z</time>
      </trkpt>
      <trkpt lat="40.011128000" lon="-8.452794000">
        <ele>190.200000</ele>
        <time>2020-10-17T09:07:57Z</time>
      </trkpt>
      <trkpt lat="40.010998000" lon="-8.452732000">
        <ele>190.200000</ele>
        <time>2020-10-17T09:08:00Z</time>
      </trkpt>
      <trkpt lat="40.010682000" lon="-8.452513000">
        <ele>190.000000</ele>
        <time>2020-10-17T09:08:07Z</time>
      </trkpt>
      <trkpt lat="40.010403000" lon="-8.452325000">
        <ele>190.000000</ele>
        <time>2020-10-17T09:08:13Z</time>
      </trkpt>
      <trkpt lat="40.010358000" lon="-8.452297000">
        <ele>190.000000</ele>
        <time>2020-10-17T09:08:14Z</time>
      </trkpt>
      <trkpt lat="40.010261000" lon="-8.452232000">
        <ele>190.000000</ele>
        <time>2020-10-17T09:08:16Z</time>
      </trkpt>
      <trkpt lat="40.010215000" lon="-8.452202000">
        <ele>190.000000</ele>
        <time>2020-10-17T09:08:17Z</time>
      </trkpt>
      <trkpt lat="40.009934000" lon="-8.452013000">
        <ele>190.000000</ele>
        <time>2020-10-17T09:08:23Z</time>
      </trkpt>
      <trkpt lat="40.009744000" lon="-8.451885000">
        <ele>190.000000</ele>
        <time>2020-10-17T09:08:27Z</time>
      </trkpt>
      <trkpt lat="40.009696000" lon="-8.451854000">
        <ele>190.000000</ele>
        <time>2020-10-17T09:08:28Z</time>
      </trkpt>
      <trkpt lat="40.009603000" lon="-8.451794000">
        <ele>190.200000</ele>
        <time>2020-10-17T09:08:30Z</time>
      </trkpt>
      <trkpt lat="40.009557000" lon="-8.451765000">
        <ele>190.200000</ele>
        <time>2020-10-17T09:08:31Z</time>
      </trkpt>
      <trkpt lat="40.009506000" lon="-8.451738000">
        <ele>190.200000</ele>
        <time>2020-10-17T09:08:32Z</time>
      </trkpt>
      <trkpt lat="40.009080000" lon="-8.451546000">
        <ele>190.400000</ele>
        <time>2020-10-17T09:08:40Z</time>
      </trkpt>
      <trkpt lat="40.008681000" lon="-8.451387000">
        <ele>190.200000</ele>
        <time>2020-10-17T09:08:47Z</time>
      </trkpt>
      <trkpt lat="40.008511000" lon="-8.451321000">
        <ele>190.200000</ele>
        <time>2020-10-17T09:08:50Z</time>
      </trkpt>
      <trkpt lat="40.008455000" lon="-8.451301000">
        <ele>190.400000</ele>
        <time>2020-10-17T09:08:51Z</time>
      </trkpt>
      <trkpt lat="40.008212000" lon="-8.451234000">
        <ele>190.200000</ele>
        <time>2020-10-17T09:08:55Z</time>
      </trkpt>
      <trkpt lat="40.008148000" lon="-8.451227000">
        <ele>190.400000</ele>
        <time>2020-10-17T09:08:56Z</time>
      </trkpt>
      <trkpt lat="40.007889000" lon="-8.451253000">
        <ele>190.200000</ele>
        <time>2020-10-17T09:09:00Z</time>
      </trkpt>
      <trkpt lat="40.007756000" lon="-8.451270000">
        <ele>190.200000</ele>
        <time>2020-10-17T09:09:02Z</time>
      </trkpt>
      <trkpt lat="40.007361000" lon="-8.451287000">
        <ele>189.800000</ele>
        <time>2020-10-17T09:09:08Z</time>
      </trkpt>
      <trkpt lat="40.007294000" lon="-8.451272000">
        <ele>189.600000</ele>
        <time>2020-10-17T09:09:09Z</time>
      </trkpt>
      <trkpt lat="40.007232000" lon="-8.451246000">
        <ele>189.800000</ele>
        <time>2020-10-17T09:09:10Z</time>
      </trkpt>
      <trkpt lat="40.007172000" lon="-8.451216000">
        <ele>189.600000</ele>
        <time>2020-10-17T09:09:11Z</time>
      </trkpt>
      <trkpt lat="40.007113000" lon="-8.451185000">
        <ele>189.400000</ele>
        <time>2020-10-17T09:09:12Z</time>
      </trkpt>
      <trkpt lat="40.007056000" lon="-8.451152000">
        <ele>189.400000</ele>
        <time>2020-10-17T09:09:13Z</time>
      </trkpt>
      <trkpt lat="40.007002000" lon="-8.451119000">
        <ele>189.200000</ele>
        <time>2020-10-17T09:09:14Z</time>
      </trkpt>
      <trkpt lat="40.006949000" lon="-8.451085000">
        <ele>189.400000</ele>
        <time>2020-10-17T09:09:15Z</time>
      </trkpt>
      <trkpt lat="40.006896000" lon="-8.451052000">
        <ele>189.400000</ele>
        <time>2020-10-17T09:09:16Z</time>
      </trkpt>
      <trkpt lat="40.006844000" lon="-8.451020000">
        <ele>189.200000</ele>
        <time>2020-10-17T09:09:17Z</time>
      </trkpt>
      <trkpt lat="40.006677000" lon="-8.450944000">
        <ele>189.000000</ele>
        <time>2020-10-17T09:09:20Z</time>
      </trkpt>
      <trkpt lat="40.006625000" lon="-8.450927000">
        <ele>189.200000</ele>
        <time>2020-10-17T09:09:21Z</time>
      </trkpt>
      <trkpt lat="40.006576000" lon="-8.450913000">
        <ele>189.200000</ele>
        <time>2020-10-17T09:09:22Z</time>
      </trkpt>
      <trkpt lat="40.006532000" lon="-8.450901000">
        <ele>189.200000</ele>
        <time>2020-10-17T09:09:23Z</time>
      </trkpt>
      <trkpt lat="40.006492000" lon="-8.450888000">
        <ele>189.200000</ele>
        <time>2020-10-17T09:09:24Z</time>
      </trkpt>
      <trkpt lat="40.006465000" lon="-8.450873000">
        <ele>189.000000</ele>
        <time>2020-10-17T09:09:25Z</time>
      </trkpt>
      <trkpt lat="40.006457000" lon="-8.450865000">
        <ele>189.000000</ele>
        <time>2020-10-17T09:09:26Z</time>
      </trkpt>
      <trkpt lat="40.006473000" lon="-8.450866000">
        <ele>189.000000</ele>
        <time>2020-10-17T09:09:27Z</time>
      </trkpt>
      <trkpt lat="40.006498000" lon="-8.450873000">
        <ele>189.000000</ele>
        <time>2020-10-17T09:09:28Z</time>
      </trkpt>
      <trkpt lat="40.006656000" lon="-8.450903000">
        <ele>189.200000</ele>
        <time>2020-10-17T09:09:32Z</time>
      </trkpt>
      <trkpt lat="40.006754000" lon="-8.450934000">
        <ele>189.200000</ele>
        <time>2020-10-17T09:09:34Z</time>
      </trkpt>
      <trkpt lat="40.006849000" lon="-8.450986000">
        <ele>189.200000</ele>
        <time>2020-10-17T09:09:36Z</time>
      </trkpt>
      <trkpt lat="40.006897000" lon="-8.451014000">
        <ele>189.200000</ele>
        <time>2020-10-17T09:09:37Z</time>
      </trkpt>
      <trkpt lat="40.006933000" lon="-8.451033000">
        <ele>189.200000</ele>
        <time>2020-10-17T09:09:38Z</time>
      </trkpt>
      <trkpt lat="40.006957000" lon="-8.451033000">
        <ele>189.200000</ele>
        <time>2020-10-17T09:09:39Z</time>
      </trkpt>
      <trkpt lat="40.006975000" lon="-8.451015000">
        <ele>189.200000</ele>
        <time>2020-10-17T09:09:40Z</time>
      </trkpt>
      <trkpt lat="40.006983000" lon="-8.450985000">
        <ele>189.200000</ele>
        <time>2020-10-17T09:09:41Z</time>
      </trkpt>
      <trkpt lat="40.006987000" lon="-8.450908000">
        <ele>189.000000</ele>
        <time>2020-10-17T09:09:43Z</time>
      </trkpt>
      <trkpt lat="40.006981000" lon="-8.450815000">
        <ele>189.200000</ele>
        <time>2020-10-17T09:09:45Z</time>
      </trkpt>
      <trkpt lat="40.006955000" lon="-8.450429000">
        <ele>188.400000</ele>
        <time>2020-10-17T09:09:51Z</time>
      </trkpt>
      <trkpt lat="40.006949000" lon="-8.450356000">
        <ele>188.400000</ele>
        <time>2020-10-17T09:09:52Z</time>
      </trkpt>
      <trkpt lat="40.006944000" lon="-8.450286000">
        <ele>188.200000</ele>
        <time>2020-10-17T09:09:53Z</time>
      </trkpt>
      <trkpt lat="40.006900000" lon="-8.449946000">
        <ele>187.800000</ele>
        <time>2020-10-17T09:09:58Z</time>
      </trkpt>
      <trkpt lat="40.006887000" lon="-8.449881000">
        <ele>187.800000</ele>
        <time>2020-10-17T09:09:59Z</time>
      </trkpt>
      <trkpt lat="40.006874000" lon="-8.449819000">
        <ele>187.800000</ele>
        <time>2020-10-17T09:10:00Z</time>
      </trkpt>
      <trkpt lat="40.006861000" lon="-8.449757000">
        <ele>187.800000</ele>
        <time>2020-10-17T09:10:01Z</time>
      </trkpt>
      <trkpt lat="40.006783000" lon="-8.449490000">
        <ele>187.800000</ele>
        <time>2020-10-17T09:10:05Z</time>
      </trkpt>
      <trkpt lat="40.006760000" lon="-8.449424000">
        <ele>187.800000</ele>
        <time>2020-10-17T09:10:06Z</time>
      </trkpt>
      <trkpt lat="40.006738000" lon="-8.449359000">
        <ele>188.000000</ele>
        <time>2020-10-17T09:10:07Z</time>
      </trkpt>
      <trkpt lat="40.006718000" lon="-8.449293000">
        <ele>188.000000</ele>
        <time>2020-10-17T09:10:08Z</time>
      </trkpt>
      <trkpt lat="40.006697000" lon="-8.449231000">
        <ele>188.000000</ele>
        <time>2020-10-17T09:10:09Z</time>
      </trkpt>
      <trkpt lat="40.006678000" lon="-8.449171000">
        <ele>187.800000</ele>
        <time>2020-10-17T09:10:10Z</time>
      </trkpt>
      <trkpt lat="40.006658000" lon="-8.449115000">
        <ele>188.000000</ele>
        <time>2020-10-17T09:10:11Z</time>
      </trkpt>
      <trkpt lat="40.006635000" lon="-8.449063000">
        <ele>188.000000</ele>
        <time>2020-10-17T09:10:12Z</time>
      </trkpt>
      <trkpt lat="40.006607000" lon="-8.449017000">
        <ele>188.000000</ele>
        <time>2020-10-17T09:10:13Z</time>
      </trkpt>
      <trkpt lat="40.006578000" lon="-8.448976000">
        <ele>188.000000</ele>
        <time>2020-10-17T09:10:14Z</time>
      </trkpt>
      <trkpt lat="40.006549000" lon="-8.448937000">
        <ele>188.000000</ele>
        <time>2020-10-17T09:10:15Z</time>
      </trkpt>
      <trkpt lat="40.006523000" lon="-8.448896000">
        <ele>188.200000</ele>
        <time>2020-10-17T09:10:16Z</time>
      </trkpt>
      <trkpt lat="40.006494000" lon="-8.448859000">
        <ele>188.200000</ele>
        <time>2020-10-17T09:10:17Z</time>
      </trkpt>
      <trkpt lat="40.006465000" lon="-8.448823000">
        <ele>188.400000</ele>
        <time>2020-10-17T09:10:18Z</time>
      </trkpt>
      <trkpt lat="40.006436000" lon="-8.448788000">
        <ele>188.400000</ele>
        <time>2020-10-17T09:10:19Z</time>
      </trkpt>
      <trkpt lat="40.006404000" lon="-8.448752000">
        <ele>188.600000</ele>
        <time>2020-10-17T09:10:20Z</time>
      </trkpt>
      <trkpt lat="40.006369000" lon="-8.448716000">
        <ele>188.600000</ele>
        <time>2020-10-17T09:10:21Z</time>
      </trkpt>
      <trkpt lat="40.006336000" lon="-8.448681000">
        <ele>188.800000</ele>
        <time>2020-10-17T09:10:22Z</time>
      </trkpt>
      <trkpt lat="40.006302000" lon="-8.448650000">
        <ele>189.200000</ele>
        <time>2020-10-17T09:10:23Z</time>
      </trkpt>
      <trkpt lat="40.006269000" lon="-8.448620000">
        <ele>189.600000</ele>
        <time>2020-10-17T09:10:24Z</time>
      </trkpt>
      <trkpt lat="40.006237000" lon="-8.448593000">
        <ele>190.000000</ele>
        <time>2020-10-17T09:10:25Z</time>
      </trkpt>
      <trkpt lat="40.006206000" lon="-8.448569000">
        <ele>190.000000</ele>
        <time>2020-10-17T09:10:26Z</time>
      </trkpt>
      <trkpt lat="40.006179000" lon="-8.448543000">
        <ele>190.200000</ele>
        <time>2020-10-17T09:10:27Z</time>
      </trkpt>
      <trkpt lat="40.006150000" lon="-8.448519000">
        <ele>190.200000</ele>
        <time>2020-10-17T09:10:28Z</time>
      </trkpt>
      <trkpt lat="40.006120000" lon="-8.448497000">
        <ele>190.800000</ele>
        <time>2020-10-17T09:10:29Z</time>
      </trkpt>
      <trkpt lat="40.006093000" lon="-8.448475000">
        <ele>191.000000</ele>
        <time>2020-10-17T09:10:30Z</time>
      </trkpt>
      <trkpt lat="40.006068000" lon="-8.448453000">
        <ele>191.200000</ele>
        <time>2020-10-17T09:10:31Z</time>
      </trkpt>
      <trkpt lat="40.006045000" lon="-8.448434000">
        <ele>191.200000</ele>
        <time>2020-10-17T09:10:32Z</time>
      </trkpt>
      <trkpt lat="40.006026000" lon="-8.448420000">
        <ele>191.200000</ele>
        <time>2020-10-17T09:10:33Z</time>
      </trkpt>
      <trkpt lat="40.006018000" lon="-8.448412000">
        <ele>191.400000</ele>
        <time>2020-10-17T09:10:34Z</time>
      </trkpt>
      <trkpt lat="40.006021000" lon="-8.448408000">
        <ele>191.600000</ele>
        <time>2020-10-17T09:10:36Z</time>
      </trkpt>
      <trkpt lat="40.005975000" lon="-8.448337000">
        <ele>192.000000</ele>
        <time>2020-10-17T09:11:10Z</time>
      </trkpt>
      <trkpt lat="40.005965000" lon="-8.448307000">
        <ele>192.000000</ele>
        <time>2020-10-17T09:11:11Z</time>
      </trkpt>
      <trkpt lat="40.005956000" lon="-8.448275000">
        <ele>192.200000</ele>
        <time>2020-10-17T09:11:12Z</time>
      </trkpt>
      <trkpt lat="40.005945000" lon="-8.448241000">
        <ele>192.000000</ele>
        <time>2020-10-17T09:11:13Z</time>
      </trkpt>
      <trkpt lat="40.005900000" lon="-8.448045000">
        <ele>192.000000</ele>
        <time>2020-10-17T09:11:18Z</time>
      </trkpt>
      <trkpt lat="40.005772000" lon="-8.447818000">
        <ele>192.200000</ele>
        <time>2020-10-17T09:11:24Z</time>
      </trkpt>
      <trkpt lat="40.005749000" lon="-8.447780000">
        <ele>192.200000</ele>
        <time>2020-10-17T09:11:25Z</time>
      </trkpt>
      <trkpt lat="40.005700000" lon="-8.447705000">
        <ele>192.400000</ele>
        <time>2020-10-17T09:11:27Z</time>
      </trkpt>
      <trkpt lat="40.005675000" lon="-8.447670000">
        <ele>192.600000</ele>
        <time>2020-10-17T09:11:28Z</time>
      </trkpt>
      <trkpt lat="40.005625000" lon="-8.447606000">
        <ele>192.600000</ele>
        <time>2020-10-17T09:11:30Z</time>
      </trkpt>
      <trkpt lat="40.005597000" lon="-8.447574000">
        <ele>192.600000</ele>
        <time>2020-10-17T09:11:31Z</time>
      </trkpt>
      <trkpt lat="40.005545000" lon="-8.447510000">
        <ele>192.800000</ele>
        <time>2020-10-17T09:11:33Z</time>
      </trkpt>
      <trkpt lat="40.005501000" lon="-8.447428000">
        <ele>193.200000</ele>
        <time>2020-10-17T09:11:35Z</time>
      </trkpt>
      <trkpt lat="40.005483000" lon="-8.447395000">
        <ele>193.600000</ele>
        <time>2020-10-17T09:11:36Z</time>
      </trkpt>
      <trkpt lat="40.005469000" lon="-8.447369000">
        <ele>194.000000</ele>
        <time>2020-10-17T09:11:37Z</time>
      </trkpt>
      <trkpt lat="40.005463000" lon="-8.447353000">
        <ele>194.200000</ele>
        <time>2020-10-17T09:11:38Z</time>
      </trkpt>
      <trkpt lat="40.005458000" lon="-8.447344000">
        <ele>194.200000</ele>
        <time>2020-10-17T09:11:39Z</time>
      </trkpt>
      <trkpt lat="40.005463000" lon="-8.447344000">
        <ele>194.600000</ele>
        <time>2020-10-17T09:11:41Z</time>
      </trkpt>
      <trkpt lat="40.005516000" lon="-8.447409000">
        <ele>194.600000</ele>
        <time>2020-10-17T09:11:46Z</time>
      </trkpt>
      <trkpt lat="40.005546000" lon="-8.447466000">
        <ele>194.600000</ele>
        <time>2020-10-17T09:11:48Z</time>
      </trkpt>
      <trkpt lat="40.005682000" lon="-8.447654000">
        <ele>194.800000</ele>
        <time>2020-10-17T09:11:53Z</time>
      </trkpt>
      <trkpt lat="40.005717000" lon="-8.447704000">
        <ele>194.800000</ele>
        <time>2020-10-17T09:11:54Z</time>
      </trkpt>
      <trkpt lat="40.005813000" lon="-8.447859000">
        <ele>194.800000</ele>
        <time>2020-10-17T09:11:57Z</time>
      </trkpt>
      <trkpt lat="40.005841000" lon="-8.447909000">
        <ele>194.800000</ele>
        <time>2020-10-17T09:11:58Z</time>
      </trkpt>
      <trkpt lat="40.005868000" lon="-8.447952000">
        <ele>194.600000</ele>
        <time>2020-10-17T09:11:59Z</time>
      </trkpt>
      <trkpt lat="40.005889000" lon="-8.447987000">
        <ele>194.600000</ele>
        <time>2020-10-17T09:12:00Z</time>
      </trkpt>
      <trkpt lat="40.005906000" lon="-8.448021000">
        <ele>194.600000</ele>
        <time>2020-10-17T09:12:01Z</time>
      </trkpt>
      <trkpt lat="40.005922000" lon="-8.448052000">
        <ele>194.400000</ele>
        <time>2020-10-17T09:12:02Z</time>
      </trkpt>
      <trkpt lat="40.005932000" lon="-8.448086000">
        <ele>194.200000</ele>
        <time>2020-10-17T09:12:03Z</time>
      </trkpt>
      <trkpt lat="40.005930000" lon="-8.448123000">
        <ele>194.200000</ele>
        <time>2020-10-17T09:12:04Z</time>
      </trkpt>
      <trkpt lat="40.005916000" lon="-8.448152000">
        <ele>194.000000</ele>
        <time>2020-10-17T09:12:05Z</time>
      </trkpt>
      <trkpt lat="40.005899000" lon="-8.448165000">
        <ele>193.800000</ele>
        <time>2020-10-17T09:12:06Z</time>
      </trkpt>
      <trkpt lat="40.005877000" lon="-8.448167000">
        <ele>193.400000</ele>
        <time>2020-10-17T09:12:07Z</time>
      </trkpt>
      <trkpt lat="40.005736000" lon="-8.448109000">
        <ele>193.000000</ele>
        <time>2020-10-17T09:12:12Z</time>
      </trkpt>
      <trkpt lat="40.005709000" lon="-8.448099000">
        <ele>192.800000</ele>
        <time>2020-10-17T09:12:13Z</time>
      </trkpt>
      <trkpt lat="40.005683000" lon="-8.448090000">
        <ele>192.800000</ele>
        <time>2020-10-17T09:12:14Z</time>
      </trkpt>
      <trkpt lat="40.005657000" lon="-8.448078000">
        <ele>192.800000</ele>
        <time>2020-10-17T09:12:15Z</time>
      </trkpt>
      <trkpt lat="40.005602000" lon="-8.448059000">
        <ele>192.600000</ele>
        <time>2020-10-17T09:12:17Z</time>
      </trkpt>
      <trkpt lat="40.005549000" lon="-8.448036000">
        <ele>192.800000</ele>
        <time>2020-10-17T09:12:19Z</time>
      </trkpt>
      <trkpt lat="40.005330000" lon="-8.447911000">
        <ele>193.000000</ele>
        <time>2020-10-17T09:12:26Z</time>
      </trkpt>
      <trkpt lat="40.005204000" lon="-8.447817000">
        <ele>193.600000</ele>
        <time>2020-10-17T09:12:30Z</time>
      </trkpt>
      <trkpt lat="40.005077000" lon="-8.447729000">
        <ele>194.000000</ele>
        <time>2020-10-17T09:12:34Z</time>
      </trkpt>
      <trkpt lat="40.005044000" lon="-8.447713000">
        <ele>194.000000</ele>
        <time>2020-10-17T09:12:35Z</time>
      </trkpt>
      <trkpt lat="40.005010000" lon="-8.447699000">
        <ele>194.000000</ele>
        <time>2020-10-17T09:12:36Z</time>
      </trkpt>
      <trkpt lat="40.004976000" lon="-8.447684000">
        <ele>194.000000</ele>
        <time>2020-10-17T09:12:37Z</time>
      </trkpt>
      <trkpt lat="40.004944000" lon="-8.447673000">
        <ele>194.200000</ele>
        <time>2020-10-17T09:12:38Z</time>
      </trkpt>
      <trkpt lat="40.004910000" lon="-8.447667000">
        <ele>194.200000</ele>
        <time>2020-10-17T09:12:39Z</time>
      </trkpt>
      <trkpt lat="40.004879000" lon="-8.447659000">
        <ele>194.200000</ele>
        <time>2020-10-17T09:12:40Z</time>
      </trkpt>
      <trkpt lat="40.004849000" lon="-8.447646000">
        <ele>194.200000</ele>
        <time>2020-10-17T09:12:41Z</time>
      </trkpt>
      <trkpt lat="40.004817000" lon="-8.447632000">
        <ele>194.200000</ele>
        <time>2020-10-17T09:12:42Z</time>
      </trkpt>
      <trkpt lat="40.004783000" lon="-8.447620000">
        <ele>194.400000</ele>
        <time>2020-10-17T09:12:43Z</time>
      </trkpt>
      <trkpt lat="40.004749000" lon="-8.447612000">
        <ele>194.600000</ele>
        <time>2020-10-17T09:12:44Z</time>
      </trkpt>
      <trkpt lat="40.004714000" lon="-8.447608000">
        <ele>194.600000</ele>
        <time>2020-10-17T09:12:45Z</time>
      </trkpt>
      <trkpt lat="40.004681000" lon="-8.447606000">
        <ele>194.800000</ele>
        <time>2020-10-17T09:12:46Z</time>
      </trkpt>
      <trkpt lat="40.004651000" lon="-8.447602000">
        <ele>194.600000</ele>
        <time>2020-10-17T09:12:47Z</time>
      </trkpt>
      <trkpt lat="40.004618000" lon="-8.447597000">
        <ele>194.600000</ele>
        <time>2020-10-17T09:12:48Z</time>
      </trkpt>
      <trkpt lat="40.004588000" lon="-8.447591000">
        <ele>194.800000</ele>
        <time>2020-10-17T09:12:49Z</time>
      </trkpt>
      <trkpt lat="40.004529000" lon="-8.447595000">
        <ele>195.000000</ele>
        <time>2020-10-17T09:12:51Z</time>
      </trkpt>
      <trkpt lat="40.004502000" lon="-8.447600000">
        <ele>195.200000</ele>
        <time>2020-10-17T09:12:52Z</time>
      </trkpt>
      <trkpt lat="40.004475000" lon="-8.447602000">
        <ele>195.600000</ele>
        <time>2020-10-17T09:12:53Z</time>
      </trkpt>
      <trkpt lat="40.004451000" lon="-8.447604000">
        <ele>195.800000</ele>
        <time>2020-10-17T09:12:54Z</time>
      </trkpt>
      <trkpt lat="40.004428000" lon="-8.447605000">
        <ele>196.000000</ele>
        <time>2020-10-17T09:12:55Z</time>
      </trkpt>
      <trkpt lat="40.004405000" lon="-8.447608000">
        <ele>196.000000</ele>
        <time>2020-10-17T09:12:56Z</time>
      </trkpt>
      <trkpt lat="40.004382000" lon="-8.447610000">
        <ele>196.000000</ele>
        <time>2020-10-17T09:12:57Z</time>
      </trkpt>
      <trkpt lat="40.004358000" lon="-8.447614000">
        <ele>196.000000</ele>
        <time>2020-10-17T09:12:58Z</time>
      </trkpt>
      <trkpt lat="40.004331000" lon="-8.447619000">
        <ele>196.400000</ele>
        <time>2020-10-17T09:12:59Z</time>
      </trkpt>
      <trkpt lat="40.004304000" lon="-8.447628000">
        <ele>196.400000</ele>
        <time>2020-10-17T09:13:00Z</time>
      </trkpt>
      <trkpt lat="40.004276000" lon="-8.447639000">
        <ele>196.600000</ele>
        <time>2020-10-17T09:13:01Z</time>
      </trkpt>
      <trkpt lat="40.004247000" lon="-8.447650000">
        <ele>197.000000</ele>
        <time>2020-10-17T09:13:02Z</time>
      </trkpt>
      <trkpt lat="40.004217000" lon="-8.447660000">
        <ele>197.000000</ele>
        <time>2020-10-17T09:13:03Z</time>
      </trkpt>
      <trkpt lat="40.004189000" lon="-8.447671000">
        <ele>197.400000</ele>
        <time>2020-10-17T09:13:04Z</time>
      </trkpt>
      <trkpt lat="40.004157000" lon="-8.447681000">
        <ele>197.600000</ele>
        <time>2020-10-17T09:13:05Z</time>
      </trkpt>
      <trkpt lat="40.004126000" lon="-8.447689000">
        <ele>198.000000</ele>
        <time>2020-10-17T09:13:06Z</time>
      </trkpt>
      <trkpt lat="40.004094000" lon="-8.447697000">
        <ele>198.200000</ele>
        <time>2020-10-17T09:13:07Z</time>
      </trkpt>
      <trkpt lat="40.004058000" lon="-8.447707000">
        <ele>198.200000</ele>
        <time>2020-10-17T09:13:08Z</time>
      </trkpt>
      <trkpt lat="40.004022000" lon="-8.447716000">
        <ele>198.400000</ele>
        <time>2020-10-17T09:13:09Z</time>
      </trkpt>
      <trkpt lat="40.003985000" lon="-8.447722000">
        <ele>198.400000</ele>
        <time>2020-10-17T09:13:10Z</time>
      </trkpt>
      <trkpt lat="40.003947000" lon="-8.447731000">
        <ele>198.600000</ele>
        <time>2020-10-17T09:13:11Z</time>
      </trkpt>
      <trkpt lat="40.003909000" lon="-8.447747000">
        <ele>198.600000</ele>
        <time>2020-10-17T09:13:12Z</time>
      </trkpt>
      <trkpt lat="40.003868000" lon="-8.447765000">
        <ele>198.400000</ele>
        <time>2020-10-17T09:13:13Z</time>
      </trkpt>
      <trkpt lat="40.003829000" lon="-8.447781000">
        <ele>198.600000</ele>
        <time>2020-10-17T09:13:14Z</time>
      </trkpt>
      <trkpt lat="40.003702000" lon="-8.447818000">
        <ele>198.600000</ele>
        <time>2020-10-17T09:13:17Z</time>
      </trkpt>
      <trkpt lat="40.003560000" lon="-8.447839000">
        <ele>198.600000</ele>
        <time>2020-10-17T09:13:20Z</time>
      </trkpt>
      <trkpt lat="40.003386000" lon="-8.447869000">
        <ele>198.400000</ele>
        <time>2020-10-17T09:13:23Z</time>
      </trkpt>
      <trkpt lat="40.003332000" lon="-8.447884000">
        <ele>198.400000</ele>
        <time>2020-10-17T09:13:24Z</time>
      </trkpt>
      <trkpt lat="40.003219000" lon="-8.447916000">
        <ele>198.200000</ele>
        <time>2020-10-17T09:13:26Z</time>
      </trkpt>
      <trkpt lat="40.003163000" lon="-8.447931000">
        <ele>197.400000</ele>
        <time>2020-10-17T09:13:27Z</time>
      </trkpt>
      <trkpt lat="40.002881000" lon="-8.448005000">
        <ele>195.000000</ele>
        <time>2020-10-17T09:13:32Z</time>
      </trkpt>
      <trkpt lat="40.002828000" lon="-8.448029000">
        <ele>194.600000</ele>
        <time>2020-10-17T09:13:33Z</time>
      </trkpt>
      <trkpt lat="40.002579000" lon="-8.448232000">
        <ele>193.600000</ele>
        <time>2020-10-17T09:13:38Z</time>
      </trkpt>
      <trkpt lat="40.002530000" lon="-8.448273000">
        <ele>193.400000</ele>
        <time>2020-10-17T09:13:39Z</time>
      </trkpt>
      <trkpt lat="40.002480000" lon="-8.448303000">
        <ele>193.400000</ele>
        <time>2020-10-17T09:13:40Z</time>
      </trkpt>
      <trkpt lat="40.002429000" lon="-8.448320000">
        <ele>193.400000</ele>
        <time>2020-10-17T09:13:41Z</time>
      </trkpt>
      <trkpt lat="40.002373000" lon="-8.448330000">
        <ele>193.400000</ele>
        <time>2020-10-17T09:13:42Z</time>
      </trkpt>
      <trkpt lat="40.002318000" lon="-8.448334000">
        <ele>193.400000</ele>
        <time>2020-10-17T09:13:43Z</time>
      </trkpt>
      <trkpt lat="40.002262000" lon="-8.448343000">
        <ele>193.400000</ele>
        <time>2020-10-17T09:13:44Z</time>
      </trkpt>
      <trkpt lat="40.002210000" lon="-8.448361000">
        <ele>193.200000</ele>
        <time>2020-10-17T09:13:45Z</time>
      </trkpt>
      <trkpt lat="40.002104000" lon="-8.448398000">
        <ele>193.200000</ele>
        <time>2020-10-17T09:13:47Z</time>
      </trkpt>
      <trkpt lat="40.002056000" lon="-8.448412000">
        <ele>193.000000</ele>
        <time>2020-10-17T09:13:48Z</time>
      </trkpt>
      <trkpt lat="40.002007000" lon="-8.448427000">
        <ele>192.800000</ele>
        <time>2020-10-17T09:13:49Z</time>
      </trkpt>
      <trkpt lat="40.001905000" lon="-8.448453000">
        <ele>192.600000</ele>
        <time>2020-10-17T09:13:51Z</time>
      </trkpt>
      <trkpt lat="40.001858000" lon="-8.448463000">
        <ele>192.600000</ele>
        <time>2020-10-17T09:13:52Z</time>
      </trkpt>
      <trkpt lat="40.001812000" lon="-8.448471000">
        <ele>192.600000</ele>
        <time>2020-10-17T09:13:53Z</time>
      </trkpt>
      <trkpt lat="40.001767000" lon="-8.448473000">
        <ele>192.600000</ele>
        <time>2020-10-17T09:13:54Z</time>
      </trkpt>
      <trkpt lat="40.001723000" lon="-8.448466000">
        <ele>192.800000</ele>
        <time>2020-10-17T09:13:55Z</time>
      </trkpt>
      <trkpt lat="40.001681000" lon="-8.448450000">
        <ele>192.600000</ele>
        <time>2020-10-17T09:13:56Z</time>
      </trkpt>
      <trkpt lat="40.001639000" lon="-8.448432000">
        <ele>192.800000</ele>
        <time>2020-10-17T09:13:57Z</time>
      </trkpt>
      <trkpt lat="40.001598000" lon="-8.448417000">
        <ele>192.800000</ele>
        <time>2020-10-17T09:13:58Z</time>
      </trkpt>
      <trkpt lat="40.001558000" lon="-8.448406000">
        <ele>192.600000</ele>
        <time>2020-10-17T09:13:59Z</time>
      </trkpt>
      <trkpt lat="40.001388000" lon="-8.448383000">
        <ele>193.000000</ele>
        <time>2020-10-17T09:14:03Z</time>
      </trkpt>
      <trkpt lat="40.001343000" lon="-8.448379000">
        <ele>193.200000</ele>
        <time>2020-10-17T09:14:04Z</time>
      </trkpt>
      <trkpt lat="40.001299000" lon="-8.448375000">
        <ele>193.200000</ele>
        <time>2020-10-17T09:14:05Z</time>
      </trkpt>
      <trkpt lat="40.001075000" lon="-8.448389000">
        <ele>194.200000</ele>
        <time>2020-10-17T09:14:10Z</time>
      </trkpt>
      <trkpt lat="40.001031000" lon="-8.448395000">
        <ele>194.400000</ele>
        <time>2020-10-17T09:14:11Z</time>
      </trkpt>
      <trkpt lat="40.000981000" lon="-8.448402000">
        <ele>194.600000</ele>
        <time>2020-10-17T09:14:12Z</time>
      </trkpt>
      <trkpt lat="40.000931000" lon="-8.448409000">
        <ele>194.800000</ele>
        <time>2020-10-17T09:14:13Z</time>
      </trkpt>
      <trkpt lat="40.000881000" lon="-8.448418000">
        <ele>195.000000</ele>
        <time>2020-10-17T09:14:14Z</time>
      </trkpt>
      <trkpt lat="40.000831000" lon="-8.448428000">
        <ele>195.200000</ele>
        <time>2020-10-17T09:14:15Z</time>
      </trkpt>
      <trkpt lat="40.000782000" lon="-8.448438000">
        <ele>195.400000</ele>
        <time>2020-10-17T09:14:16Z</time>
      </trkpt>
      <trkpt lat="40.000735000" lon="-8.448444000">
        <ele>195.800000</ele>
        <time>2020-10-17T09:14:17Z</time>
      </trkpt>
      <trkpt lat="40.000687000" lon="-8.448446000">
        <ele>195.800000</ele>
        <time>2020-10-17T09:14:18Z</time>
      </trkpt>
      <trkpt lat="40.000635000" lon="-8.448443000">
        <ele>195.800000</ele>
        <time>2020-10-17T09:14:19Z</time>
      </trkpt>
      <trkpt lat="40.000581000" lon="-8.448432000">
        <ele>195.800000</ele>
        <time>2020-10-17T09:14:20Z</time>
      </trkpt>
      <trkpt lat="40.000522000" lon="-8.448415000">
        <ele>195.800000</ele>
        <time>2020-10-17T09:14:21Z</time>
      </trkpt>
      <trkpt lat="40.000463000" lon="-8.448393000">
        <ele>195.800000</ele>
        <time>2020-10-17T09:14:22Z</time>
      </trkpt>
      <trkpt lat="40.000405000" lon="-8.448372000">
        <ele>195.800000</ele>
        <time>2020-10-17T09:14:23Z</time>
      </trkpt>
      <trkpt lat="40.000295000" lon="-8.448326000">
        <ele>196.000000</ele>
        <time>2020-10-17T09:14:25Z</time>
      </trkpt>
      <trkpt lat="40.000199000" lon="-8.448249000">
        <ele>195.800000</ele>
        <time>2020-10-17T09:14:27Z</time>
      </trkpt>
      <trkpt lat="40.000160000" lon="-8.448198000">
        <ele>195.800000</ele>
        <time>2020-10-17T09:14:28Z</time>
      </trkpt>
      <trkpt lat="40.000115000" lon="-8.448145000">
        <ele>195.800000</ele>
        <time>2020-10-17T09:14:29Z</time>
      </trkpt>
      <trkpt lat="40.000067000" lon="-8.448098000">
        <ele>195.600000</ele>
        <time>2020-10-17T09:14:30Z</time>
      </trkpt>
      <trkpt lat="39.999928000" lon="-8.447951000">
        <ele>195.200000</ele>
        <time>2020-10-17T09:14:33Z</time>
      </trkpt>
      <trkpt lat="39.999889000" lon="-8.447898000">
        <ele>195.000000</ele>
        <time>2020-10-17T09:14:34Z</time>
      </trkpt>
      <trkpt lat="39.999851000" lon="-8.447846000">
        <ele>195.000000</ele>
        <time>2020-10-17T09:14:35Z</time>
      </trkpt>
      <trkpt lat="39.999818000" lon="-8.447788000">
        <ele>194.800000</ele>
        <time>2020-10-17T09:14:36Z</time>
      </trkpt>
      <trkpt lat="39.999773000" lon="-8.447657000">
        <ele>194.600000</ele>
        <time>2020-10-17T09:14:38Z</time>
      </trkpt>
      <trkpt lat="39.999759000" lon="-8.447590000">
        <ele>194.600000</ele>
        <time>2020-10-17T09:14:39Z</time>
      </trkpt>
      <trkpt lat="39.999741000" lon="-8.447525000">
        <ele>194.400000</ele>
        <time>2020-10-17T09:14:40Z</time>
      </trkpt>
      <trkpt lat="39.999717000" lon="-8.447470000">
        <ele>194.600000</ele>
        <time>2020-10-17T09:14:41Z</time>
      </trkpt>
      <trkpt lat="39.999682000" lon="-8.447429000">
        <ele>194.400000</ele>
        <time>2020-10-17T09:14:42Z</time>
      </trkpt>
      <trkpt lat="39.999641000" lon="-8.447405000">
        <ele>194.400000</ele>
        <time>2020-10-17T09:14:43Z</time>
      </trkpt>
      <trkpt lat="39.999598000" lon="-8.447390000">
        <ele>194.600000</ele>
        <time>2020-10-17T09:14:44Z</time>
      </trkpt>
      <trkpt lat="39.999552000" lon="-8.447377000">
        <ele>194.400000</ele>
        <time>2020-10-17T09:14:45Z</time>
      </trkpt>
      <trkpt lat="39.999504000" lon="-8.447367000">
        <ele>194.400000</ele>
        <time>2020-10-17T09:14:46Z</time>
      </trkpt>
      <trkpt lat="39.999224000" lon="-8.447255000">
        <ele>194.800000</ele>
        <time>2020-10-17T09:14:52Z</time>
      </trkpt>
      <trkpt lat="39.999180000" lon="-8.447230000">
        <ele>195.000000</ele>
        <time>2020-10-17T09:14:53Z</time>
      </trkpt>
      <trkpt lat="39.999136000" lon="-8.447208000">
        <ele>195.200000</ele>
        <time>2020-10-17T09:14:54Z</time>
      </trkpt>
      <trkpt lat="39.999096000" lon="-8.447187000">
        <ele>195.200000</ele>
        <time>2020-10-17T09:14:55Z</time>
      </trkpt>
      <trkpt lat="39.999060000" lon="-8.447177000">
        <ele>195.200000</ele>
        <time>2020-10-17T09:14:56Z</time>
      </trkpt>
      <trkpt lat="39.999035000" lon="-8.447183000">
        <ele>195.200000</ele>
        <time>2020-10-17T09:14:57Z</time>
      </trkpt>
      <trkpt lat="39.999022000" lon="-8.447192000">
        <ele>195.200000</ele>
        <time>2020-10-17T09:14:58Z</time>
      </trkpt>
      <trkpt lat="39.999020000" lon="-8.447197000">
        <ele>195.400000</ele>
        <time>2020-10-17T09:14:59Z</time>
      </trkpt>
      <trkpt lat="39.999020000" lon="-8.447197000">
        <ele>195.600000</ele>
        <time>2020-10-17T09:15:00Z</time>
      </trkpt>
      <trkpt lat="39.999020000" lon="-8.447077000">
        <ele>195.600000</ele>
        <time>2020-10-17T09:15:09Z</time>
      </trkpt>
      <trkpt lat="39.998991000" lon="-8.447013000">
        <ele>195.800000</ele>
        <time>2020-10-17T09:15:11Z</time>
      </trkpt>
      <trkpt lat="39.998967000" lon="-8.446983000">
        <ele>195.600000</ele>
        <time>2020-10-17T09:15:12Z</time>
      </trkpt>
      <trkpt lat="39.998942000" lon="-8.446952000">
        <ele>195.800000</ele>
        <time>2020-10-17T09:15:13Z</time>
      </trkpt>
      <trkpt lat="39.998918000" lon="-8.446919000">
        <ele>196.000000</ele>
        <time>2020-10-17T09:15:14Z</time>
      </trkpt>
      <trkpt lat="39.998822000" lon="-8.446764000">
        <ele>195.800000</ele>
        <time>2020-10-17T09:15:18Z</time>
      </trkpt>
      <trkpt lat="39.998746000" lon="-8.446638000">
        <ele>196.200000</ele>
        <time>2020-10-17T09:15:21Z</time>
      </trkpt>
      <trkpt lat="39.998629000" lon="-8.446476000">
        <ele>196.400000</ele>
        <time>2020-10-17T09:15:25Z</time>
      </trkpt>
      <trkpt lat="39.998573000" lon="-8.446386000">
        <ele>196.600000</ele>
        <time>2020-10-17T09:15:27Z</time>
      </trkpt>
      <trkpt lat="39.998550000" lon="-8.446337000">
        <ele>196.800000</ele>
        <time>2020-10-17T09:15:28Z</time>
      </trkpt>
      <trkpt lat="39.998532000" lon="-8.446289000">
        <ele>196.600000</ele>
        <time>2020-10-17T09:15:29Z</time>
      </trkpt>
      <trkpt lat="39.998514000" lon="-8.446241000">
        <ele>196.800000</ele>
        <time>2020-10-17T09:15:30Z</time>
      </trkpt>
      <trkpt lat="39.998495000" lon="-8.446194000">
        <ele>197.000000</ele>
        <time>2020-10-17T09:15:31Z</time>
      </trkpt>
      <trkpt lat="39.998477000" lon="-8.446154000">
        <ele>197.000000</ele>
        <time>2020-10-17T09:15:32Z</time>
      </trkpt>
      <trkpt lat="39.998460000" lon="-8.446117000">
        <ele>197.200000</ele>
        <time>2020-10-17T09:15:33Z</time>
      </trkpt>
      <trkpt lat="39.998444000" lon="-8.446088000">
        <ele>197.200000</ele>
        <time>2020-10-17T09:15:34Z</time>
      </trkpt>
      <trkpt lat="39.998430000" lon="-8.446063000">
        <ele>197.400000</ele>
        <time>2020-10-17T09:15:35Z</time>
      </trkpt>
      <trkpt lat="39.998416000" lon="-8.446039000">
        <ele>197.400000</ele>
        <time>2020-10-17T09:15:36Z</time>
      </trkpt>
      <trkpt lat="39.998404000" lon="-8.446017000">
        <ele>197.600000</ele>
        <time>2020-10-17T09:15:37Z</time>
      </trkpt>
      <trkpt lat="39.998390000" lon="-8.445995000">
        <ele>197.600000</ele>
        <time>2020-10-17T09:15:38Z</time>
      </trkpt>
      <trkpt lat="39.998378000" lon="-8.445970000">
        <ele>198.000000</ele>
        <time>2020-10-17T09:15:39Z</time>
      </trkpt>
      <trkpt lat="39.998365000" lon="-8.445945000">
        <ele>198.000000</ele>
        <time>2020-10-17T09:15:40Z</time>
      </trkpt>
      <trkpt lat="39.998354000" lon="-8.445919000">
        <ele>198.400000</ele>
        <time>2020-10-17T09:15:41Z</time>
      </trkpt>
      <trkpt lat="39.998343000" lon="-8.445894000">
        <ele>199.000000</ele>
        <time>2020-10-17T09:15:42Z</time>
      </trkpt>
      <trkpt lat="39.998335000" lon="-8.445870000">
        <ele>199.400000</ele>
        <time>2020-10-17T09:15:43Z</time>
      </trkpt>
      <trkpt lat="39.998329000" lon="-8.445845000">
        <ele>199.600000</ele>
        <time>2020-10-17T09:15:44Z</time>
      </trkpt>
      <trkpt lat="39.998320000" lon="-8.445819000">
        <ele>200.200000</ele>
        <time>2020-10-17T09:15:45Z</time>
      </trkpt>
      <trkpt lat="39.998311000" lon="-8.445795000">
        <ele>200.200000</ele>
        <time>2020-10-17T09:15:46Z</time>
      </trkpt>
      <trkpt lat="39.998304000" lon="-8.445774000">
        <ele>200.200000</ele>
        <time>2020-10-17T09:15:47Z</time>
      </trkpt>
      <trkpt lat="39.998299000" lon="-8.445753000">
        <ele>200.400000</ele>
        <time>2020-10-17T09:15:48Z</time>
      </trkpt>
      <trkpt lat="39.998294000" lon="-8.445729000">
        <ele>200.600000</ele>
        <time>2020-10-17T09:15:49Z</time>
      </trkpt>
      <trkpt lat="39.998289000" lon="-8.445704000">
        <ele>200.800000</ele>
        <time>2020-10-17T09:15:50Z</time>
      </trkpt>
      <trkpt lat="39.998281000" lon="-8.445677000">
        <ele>201.000000</ele>
        <time>2020-10-17T09:15:51Z</time>
      </trkpt>
      <trkpt lat="39.998274000" lon="-8.445651000">
        <ele>201.200000</ele>
        <time>2020-10-17T09:15:52Z</time>
      </trkpt>
      <trkpt lat="39.998268000" lon="-8.445627000">
        <ele>201.200000</ele>
        <time>2020-10-17T09:15:53Z</time>
      </trkpt>
      <trkpt lat="39.998261000" lon="-8.445600000">
        <ele>201.600000</ele>
        <time>2020-10-17T09:15:54Z</time>
      </trkpt>
      <trkpt lat="39.998257000" lon="-8.445575000">
        <ele>201.800000</ele>
        <time>2020-10-17T09:15:55Z</time>
      </trkpt>
      <trkpt lat="39.998254000" lon="-8.445550000">
        <ele>201.800000</ele>
        <time>2020-10-17T09:15:56Z</time>
      </trkpt>
      <trkpt lat="39.998253000" lon="-8.445526000">
        <ele>202.200000</ele>
        <time>2020-10-17T09:15:57Z</time>
      </trkpt>
      <trkpt lat="39.998254000" lon="-8.445504000">
        <ele>202.400000</ele>
        <time>2020-10-17T09:15:58Z</time>
      </trkpt>
      <trkpt lat="39.998257000" lon="-8.445483000">
        <ele>202.800000</ele>
        <time>2020-10-17T09:15:59Z</time>
      </trkpt>
      <trkpt lat="39.998262000" lon="-8.445462000">
        <ele>203.000000</ele>
        <time>2020-10-17T09:16:00Z</time>
      </trkpt>
      <trkpt lat="39.998266000" lon="-8.445440000">
        <ele>203.200000</ele>
        <time>2020-10-17T09:16:01Z</time>
      </trkpt>
      <trkpt lat="39.998270000" lon="-8.445418000">
        <ele>203.400000</ele>
        <time>2020-10-17T09:16:02Z</time>
      </trkpt>
      <trkpt lat="39.998277000" lon="-8.445394000">
        <ele>204.000000</ele>
        <time>2020-10-17T09:16:03Z</time>
      </trkpt>
      <trkpt lat="39.998285000" lon="-8.445371000">
        <ele>204.000000</ele>
        <time>2020-10-17T09:16:04Z</time>
      </trkpt>
      <trkpt lat="39.998291000" lon="-8.445349000">
        <ele>204.600000</ele>
        <time>2020-10-17T09:16:05Z</time>
      </trkpt>
      <trkpt lat="39.998297000" lon="-8.445325000">
        <ele>204.800000</ele>
        <time>2020-10-17T09:16:06Z</time>
      </trkpt>
      <trkpt lat="39.998303000" lon="-8.445302000">
        <ele>204.800000</ele>
        <time>2020-10-17T09:16:07Z</time>
      </trkpt>
      <trkpt lat="39.998308000" lon="-8.445278000">
        <ele>205.200000</ele>
        <time>2020-10-17T09:16:08Z</time>
      </trkpt>
      <trkpt lat="39.998311000" lon="-8.445251000">
        <ele>205.200000</ele>
        <time>2020-10-17T09:16:09Z</time>
      </trkpt>
      <trkpt lat="39.998312000" lon="-8.445226000">
        <ele>205.200000</ele>
        <time>2020-10-17T09:16:10Z</time>
      </trkpt>
      <trkpt lat="39.998312000" lon="-8.445202000">
        <ele>205.800000</ele>
        <time>2020-10-17T09:16:11Z</time>
      </trkpt>
      <trkpt lat="39.998310000" lon="-8.445174000">
        <ele>205.800000</ele>
        <time>2020-10-17T09:16:12Z</time>
      </trkpt>
      <trkpt lat="39.998310000" lon="-8.445143000">
        <ele>206.000000</ele>
        <time>2020-10-17T09:16:13Z</time>
      </trkpt>
      <trkpt lat="39.998311000" lon="-8.445111000">
        <ele>206.200000</ele>
        <time>2020-10-17T09:16:14Z</time>
      </trkpt>
      <trkpt lat="39.998311000" lon="-8.445077000">
        <ele>206.200000</ele>
        <time>2020-10-17T09:16:15Z</time>
      </trkpt>
      <trkpt lat="39.998309000" lon="-8.445043000">
        <ele>206.600000</ele>
        <time>2020-10-17T09:16:16Z</time>
      </trkpt>
      <trkpt lat="39.998306000" lon="-8.445006000">
        <ele>206.800000</ele>
        <time>2020-10-17T09:16:17Z</time>
      </trkpt>
      <trkpt lat="39.998299000" lon="-8.444970000">
        <ele>207.200000</ele>
        <time>2020-10-17T09:16:18Z</time>
      </trkpt>
      <trkpt lat="39.998288000" lon="-8.444935000">
        <ele>207.400000</ele>
        <time>2020-10-17T09:16:19Z</time>
      </trkpt>
      <trkpt lat="39.998275000" lon="-8.444902000">
        <ele>207.600000</ele>
        <time>2020-10-17T09:16:20Z</time>
      </trkpt>
      <trkpt lat="39.998260000" lon="-8.444871000">
        <ele>207.800000</ele>
        <time>2020-10-17T09:16:21Z</time>
      </trkpt>
      <trkpt lat="39.998244000" lon="-8.444842000">
        <ele>207.800000</ele>
        <time>2020-10-17T09:16:22Z</time>
      </trkpt>
      <trkpt lat="39.998227000" lon="-8.444813000">
        <ele>208.000000</ele>
        <time>2020-10-17T09:16:23Z</time>
      </trkpt>
      <trkpt lat="39.998211000" lon="-8.444786000">
        <ele>208.000000</ele>
        <time>2020-10-17T09:16:24Z</time>
      </trkpt>
      <trkpt lat="39.998199000" lon="-8.444759000">
        <ele>208.000000</ele>
        <time>2020-10-17T09:16:25Z</time>
      </trkpt>
      <trkpt lat="39.998185000" lon="-8.444736000">
        <ele>208.000000</ele>
        <time>2020-10-17T09:16:26Z</time>
      </trkpt>
      <trkpt lat="39.998169000" lon="-8.444714000">
        <ele>208.000000</ele>
        <time>2020-10-17T09:16:27Z</time>
      </trkpt>
      <trkpt lat="39.998150000" lon="-8.444692000">
        <ele>208.200000</ele>
        <time>2020-10-17T09:16:28Z</time>
      </trkpt>
      <trkpt lat="39.998130000" lon="-8.444673000">
        <ele>208.200000</ele>
        <time>2020-10-17T09:16:29Z</time>
      </trkpt>
      <trkpt lat="39.998111000" lon="-8.444654000">
        <ele>208.400000</ele>
        <time>2020-10-17T09:16:30Z</time>
      </trkpt>
      <trkpt lat="39.998092000" lon="-8.444635000">
        <ele>208.600000</ele>
        <time>2020-10-17T09:16:31Z</time>
      </trkpt>
      <trkpt lat="39.998073000" lon="-8.444614000">
        <ele>208.600000</ele>
        <time>2020-10-17T09:16:32Z</time>
      </trkpt>
      <trkpt lat="39.998054000" lon="-8.444592000">
        <ele>208.800000</ele>
        <time>2020-10-17T09:16:33Z</time>
      </trkpt>
      <trkpt lat="39.998035000" lon="-8.444570000">
        <ele>209.000000</ele>
        <time>2020-10-17T09:16:34Z</time>
      </trkpt>
      <trkpt lat="39.998014000" lon="-8.444549000">
        <ele>209.200000</ele>
        <time>2020-10-17T09:16:35Z</time>
      </trkpt>
      <trkpt lat="39.997992000" lon="-8.444531000">
        <ele>209.200000</ele>
        <time>2020-10-17T09:16:36Z</time>
      </trkpt>
      <trkpt lat="39.997971000" lon="-8.444511000">
        <ele>209.400000</ele>
        <time>2020-10-17T09:16:37Z</time>
      </trkpt>
      <trkpt lat="39.997950000" lon="-8.444492000">
        <ele>209.600000</ele>
        <time>2020-10-17T09:16:38Z</time>
      </trkpt>
      <trkpt lat="39.997928000" lon="-8.444474000">
        <ele>209.800000</ele>
        <time>2020-10-17T09:16:39Z</time>
      </trkpt>
      <trkpt lat="39.997907000" lon="-8.444453000">
        <ele>210.000000</ele>
        <time>2020-10-17T09:16:40Z</time>
      </trkpt>
      <trkpt lat="39.997887000" lon="-8.444432000">
        <ele>210.400000</ele>
        <time>2020-10-17T09:16:41Z</time>
      </trkpt>
      <trkpt lat="39.997867000" lon="-8.444415000">
        <ele>210.800000</ele>
        <time>2020-10-17T09:16:42Z</time>
      </trkpt>
      <trkpt lat="39.997847000" lon="-8.444396000">
        <ele>211.000000</ele>
        <time>2020-10-17T09:16:43Z</time>
      </trkpt>
      <trkpt lat="39.997829000" lon="-8.444376000">
        <ele>211.000000</ele>
        <time>2020-10-17T09:16:44Z</time>
      </trkpt>
      <trkpt lat="39.997812000" lon="-8.444356000">
        <ele>211.400000</ele>
        <time>2020-10-17T09:16:45Z</time>
      </trkpt>
      <trkpt lat="39.997794000" lon="-8.444337000">
        <ele>211.600000</ele>
        <time>2020-10-17T09:16:46Z</time>
      </trkpt>
      <trkpt lat="39.997776000" lon="-8.444319000">
        <ele>211.600000</ele>
        <time>2020-10-17T09:16:47Z</time>
      </trkpt>
      <trkpt lat="39.997757000" lon="-8.444300000">
        <ele>211.800000</ele>
        <time>2020-10-17T09:16:48Z</time>
      </trkpt>
      <trkpt lat="39.997738000" lon="-8.444282000">
        <ele>212.000000</ele>
        <time>2020-10-17T09:16:49Z</time>
      </trkpt>
      <trkpt lat="39.997720000" lon="-8.444265000">
        <ele>212.000000</ele>
        <time>2020-10-17T09:16:50Z</time>
      </trkpt>
      <trkpt lat="39.997700000" lon="-8.444247000">
        <ele>212.000000</ele>
        <time>2020-10-17T09:16:51Z</time>
      </trkpt>
      <trkpt lat="39.997681000" lon="-8.444231000">
        <ele>212.400000</ele>
        <time>2020-10-17T09:16:52Z</time>
      </trkpt>
      <trkpt lat="39.997663000" lon="-8.444218000">
        <ele>212.600000</ele>
        <time>2020-10-17T09:16:53Z</time>
      </trkpt>
      <trkpt lat="39.997642000" lon="-8.444207000">
        <ele>212.800000</ele>
        <time>2020-10-17T09:16:54Z</time>
      </trkpt>
      <trkpt lat="39.997621000" lon="-8.444196000">
        <ele>213.200000</ele>
        <time>2020-10-17T09:16:55Z</time>
      </trkpt>
      <trkpt lat="39.997601000" lon="-8.444180000">
        <ele>213.400000</ele>
        <time>2020-10-17T09:16:56Z</time>
      </trkpt>
      <trkpt lat="39.997584000" lon="-8.444160000">
        <ele>213.400000</ele>
        <time>2020-10-17T09:16:57Z</time>
      </trkpt>
      <trkpt lat="39.997573000" lon="-8.444140000">
        <ele>213.600000</ele>
        <time>2020-10-17T09:16:58Z</time>
      </trkpt>
      <trkpt lat="39.997567000" lon="-8.444116000">
        <ele>213.600000</ele>
        <time>2020-10-17T09:16:59Z</time>
      </trkpt>
      <trkpt lat="39.997564000" lon="-8.444090000">
        <ele>213.800000</ele>
        <time>2020-10-17T09:17:00Z</time>
      </trkpt>
      <trkpt lat="39.997563000" lon="-8.444061000">
        <ele>214.000000</ele>
        <time>2020-10-17T09:17:01Z</time>
      </trkpt>
      <trkpt lat="39.997562000" lon="-8.444030000">
        <ele>214.200000</ele>
        <time>2020-10-17T09:17:02Z</time>
      </trkpt>
      <trkpt lat="39.997565000" lon="-8.444000000">
        <ele>214.400000</ele>
        <time>2020-10-17T09:17:03Z</time>
      </trkpt>
      <trkpt lat="39.997568000" lon="-8.443970000">
        <ele>214.600000</ele>
        <time>2020-10-17T09:17:04Z</time>
      </trkpt>
      <trkpt lat="39.997571000" lon="-8.443939000">
        <ele>214.800000</ele>
        <time>2020-10-17T09:17:05Z</time>
      </trkpt>
      <trkpt lat="39.997575000" lon="-8.443907000">
        <ele>215.000000</ele>
        <time>2020-10-17T09:17:06Z</time>
      </trkpt>
      <trkpt lat="39.997578000" lon="-8.443874000">
        <ele>215.400000</ele>
        <time>2020-10-17T09:17:07Z</time>
      </trkpt>
      <trkpt lat="39.997579000" lon="-8.443841000">
        <ele>215.600000</ele>
        <time>2020-10-17T09:17:08Z</time>
      </trkpt>
      <trkpt lat="39.997579000" lon="-8.443809000">
        <ele>216.000000</ele>
        <time>2020-10-17T09:17:09Z</time>
      </trkpt>
      <trkpt lat="39.997579000" lon="-8.443778000">
        <ele>216.400000</ele>
        <time>2020-10-17T09:17:10Z</time>
      </trkpt>
      <trkpt lat="39.997578000" lon="-8.443745000">
        <ele>216.400000</ele>
        <time>2020-10-17T09:17:11Z</time>
      </trkpt>
      <trkpt lat="39.997576000" lon="-8.443714000">
        <ele>216.600000</ele>
        <time>2020-10-17T09:17:12Z</time>
      </trkpt>
      <trkpt lat="39.997572000" lon="-8.443682000">
        <ele>216.600000</ele>
        <time>2020-10-17T09:17:13Z</time>
      </trkpt>
      <trkpt lat="39.997569000" lon="-8.443649000">
        <ele>216.800000</ele>
        <time>2020-10-17T09:17:14Z</time>
      </trkpt>
      <trkpt lat="39.997565000" lon="-8.443617000">
        <ele>217.200000</ele>
        <time>2020-10-17T09:17:15Z</time>
      </trkpt>
      <trkpt lat="39.997562000" lon="-8.443583000">
        <ele>217.200000</ele>
        <time>2020-10-17T09:17:16Z</time>
      </trkpt>
      <trkpt lat="39.997557000" lon="-8.443550000">
        <ele>217.200000</ele>
        <time>2020-10-17T09:17:17Z</time>
      </trkpt>
      <trkpt lat="39.997550000" lon="-8.443518000">
        <ele>217.400000</ele>
        <time>2020-10-17T09:17:18Z</time>
      </trkpt>
      <trkpt lat="39.997543000" lon="-8.443487000">
        <ele>217.400000</ele>
        <time>2020-10-17T09:17:19Z</time>
      </trkpt>
      <trkpt lat="39.997536000" lon="-8.443455000">
        <ele>217.600000</ele>
        <time>2020-10-17T09:17:20Z</time>
      </trkpt>
      <trkpt lat="39.997529000" lon="-8.443423000">
        <ele>217.800000</ele>
        <time>2020-10-17T09:17:21Z</time>
      </trkpt>
      <trkpt lat="39.997522000" lon="-8.443393000">
        <ele>218.000000</ele>
        <time>2020-10-17T09:17:22Z</time>
      </trkpt>
      <trkpt lat="39.997514000" lon="-8.443362000">
        <ele>218.200000</ele>
        <time>2020-10-17T09:17:23Z</time>
      </trkpt>
      <trkpt lat="39.997505000" lon="-8.443332000">
        <ele>218.200000</ele>
        <time>2020-10-17T09:17:24Z</time>
      </trkpt>
      <trkpt lat="39.997496000" lon="-8.443302000">
        <ele>218.400000</ele>
        <time>2020-10-17T09:17:25Z</time>
      </trkpt>
      <trkpt lat="39.997487000" lon="-8.443271000">
        <ele>218.600000</ele>
        <time>2020-10-17T09:17:26Z</time>
      </trkpt>
      <trkpt lat="39.997477000" lon="-8.443240000">
        <ele>218.800000</ele>
        <time>2020-10-17T09:17:27Z</time>
      </trkpt>
      <trkpt lat="39.997467000" lon="-8.443209000">
        <ele>219.000000</ele>
        <time>2020-10-17T09:17:28Z</time>
      </trkpt>
      <trkpt lat="39.997456000" lon="-8.443176000">
        <ele>219.000000</ele>
        <time>2020-10-17T09:17:29Z</time>
      </trkpt>
      <trkpt lat="39.997445000" lon="-8.443146000">
        <ele>219.400000</ele>
        <time>2020-10-17T09:17:30Z</time>
      </trkpt>
      <trkpt lat="39.997434000" lon="-8.443117000">
        <ele>219.400000</ele>
        <time>2020-10-17T09:17:31Z</time>
      </trkpt>
      <trkpt lat="39.997422000" lon="-8.443088000">
        <ele>219.600000</ele>
        <time>2020-10-17T09:17:32Z</time>
      </trkpt>
      <trkpt lat="39.997410000" lon="-8.443059000">
        <ele>219.800000</ele>
        <time>2020-10-17T09:17:33Z</time>
      </trkpt>
      <trkpt lat="39.997399000" lon="-8.443029000">
        <ele>220.000000</ele>
        <time>2020-10-17T09:17:34Z</time>
      </trkpt>
      <trkpt lat="39.997387000" lon="-8.442999000">
        <ele>220.200000</ele>
        <time>2020-10-17T09:17:35Z</time>
      </trkpt>
      <trkpt lat="39.997376000" lon="-8.442971000">
        <ele>220.400000</ele>
        <time>2020-10-17T09:17:36Z</time>
      </trkpt>
      <trkpt lat="39.997364000" lon="-8.442942000">
        <ele>220.600000</ele>
        <time>2020-10-17T09:17:37Z</time>
      </trkpt>
      <trkpt lat="39.997353000" lon="-8.442912000">
        <ele>220.800000</ele>
        <time>2020-10-17T09:17:38Z</time>
      </trkpt>
      <trkpt lat="39.997341000" lon="-8.442884000">
        <ele>221.000000</ele>
        <time>2020-10-17T09:17:39Z</time>
      </trkpt>
      <trkpt lat="39.997331000" lon="-8.442856000">
        <ele>221.000000</ele>
        <time>2020-10-17T09:17:40Z</time>
      </trkpt>
      <trkpt lat="39.997321000" lon="-8.442828000">
        <ele>221.200000</ele>
        <time>2020-10-17T09:17:41Z</time>
      </trkpt>
      <trkpt lat="39.997310000" lon="-8.442798000">
        <ele>221.200000</ele>
        <time>2020-10-17T09:17:42Z</time>
      </trkpt>
      <trkpt lat="39.997299000" lon="-8.442769000">
        <ele>221.400000</ele>
        <time>2020-10-17T09:17:43Z</time>
      </trkpt>
      <trkpt lat="39.997289000" lon="-8.442740000">
        <ele>221.600000</ele>
        <time>2020-10-17T09:17:44Z</time>
      </trkpt>
      <trkpt lat="39.997278000" lon="-8.442710000">
        <ele>221.800000</ele>
        <time>2020-10-17T09:17:45Z</time>
      </trkpt>
      <trkpt lat="39.997267000" lon="-8.442682000">
        <ele>222.000000</ele>
        <time>2020-10-17T09:17:46Z</time>
      </trkpt>
      <trkpt lat="39.997257000" lon="-8.442654000">
        <ele>222.200000</ele>
        <time>2020-10-17T09:17:47Z</time>
      </trkpt>
      <trkpt lat="39.997244000" lon="-8.442627000">
        <ele>222.400000</ele>
        <time>2020-10-17T09:17:48Z</time>
      </trkpt>
      <trkpt lat="39.997231000" lon="-8.442599000">
        <ele>222.600000</ele>
        <time>2020-10-17T09:17:49Z</time>
      </trkpt>
      <trkpt lat="39.997218000" lon="-8.442571000">
        <ele>222.600000</ele>
        <time>2020-10-17T09:17:50Z</time>
      </trkpt>
      <trkpt lat="39.997207000" lon="-8.442544000">
        <ele>222.800000</ele>
        <time>2020-10-17T09:17:51Z</time>
      </trkpt>
      <trkpt lat="39.997196000" lon="-8.442516000">
        <ele>223.000000</ele>
        <time>2020-10-17T09:17:52Z</time>
      </trkpt>
      <trkpt lat="39.997185000" lon="-8.442489000">
        <ele>223.200000</ele>
        <time>2020-10-17T09:17:53Z</time>
      </trkpt>
      <trkpt lat="39.997173000" lon="-8.442459000">
        <ele>223.400000</ele>
        <time>2020-10-17T09:17:54Z</time>
      </trkpt>
      <trkpt lat="39.997161000" lon="-8.442427000">
        <ele>223.600000</ele>
        <time>2020-10-17T09:17:55Z</time>
      </trkpt>
      <trkpt lat="39.997148000" lon="-8.442393000">
        <ele>223.800000</ele>
        <time>2020-10-17T09:17:56Z</time>
      </trkpt>
      <trkpt lat="39.997137000" lon="-8.442359000">
        <ele>224.000000</ele>
        <time>2020-10-17T09:17:57Z</time>
      </trkpt>
      <trkpt lat="39.997127000" lon="-8.442325000">
        <ele>224.400000</ele>
        <time>2020-10-17T09:17:58Z</time>
      </trkpt>
      <trkpt lat="39.997115000" lon="-8.442289000">
        <ele>224.600000</ele>
        <time>2020-10-17T09:17:59Z</time>
      </trkpt>
      <trkpt lat="39.997104000" lon="-8.442254000">
        <ele>224.800000</ele>
        <time>2020-10-17T09:18:00Z</time>
      </trkpt>
      <trkpt lat="39.997093000" lon="-8.442219000">
        <ele>224.800000</ele>
        <time>2020-10-17T09:18:01Z</time>
      </trkpt>
      <trkpt lat="39.997082000" lon="-8.442185000">
        <ele>225.000000</ele>
        <time>2020-10-17T09:18:02Z</time>
      </trkpt>
      <trkpt lat="39.997071000" lon="-8.442152000">
        <ele>225.200000</ele>
        <time>2020-10-17T09:18:03Z</time>
      </trkpt>
      <trkpt lat="39.997061000" lon="-8.442119000">
        <ele>225.400000</ele>
        <time>2020-10-17T09:18:04Z</time>
      </trkpt>
      <trkpt lat="39.997051000" lon="-8.442085000">
        <ele>225.600000</ele>
        <time>2020-10-17T09:18:05Z</time>
      </trkpt>
      <trkpt lat="39.997039000" lon="-8.442051000">
        <ele>226.000000</ele>
        <time>2020-10-17T09:18:06Z</time>
      </trkpt>
      <trkpt lat="39.997028000" lon="-8.442018000">
        <ele>226.200000</ele>
        <time>2020-10-17T09:18:07Z</time>
      </trkpt>
      <trkpt lat="39.997018000" lon="-8.441984000">
        <ele>226.600000</ele>
        <time>2020-10-17T09:18:08Z</time>
      </trkpt>
      <trkpt lat="39.997005000" lon="-8.441953000">
        <ele>226.600000</ele>
        <time>2020-10-17T09:18:09Z</time>
      </trkpt>
      <trkpt lat="39.996993000" lon="-8.441923000">
        <ele>227.000000</ele>
        <time>2020-10-17T09:18:10Z</time>
      </trkpt>
      <trkpt lat="39.996980000" lon="-8.441891000">
        <ele>227.200000</ele>
        <time>2020-10-17T09:18:11Z</time>
      </trkpt>
      <trkpt lat="39.996968000" lon="-8.441859000">
        <ele>227.600000</ele>
        <time>2020-10-17T09:18:12Z</time>
      </trkpt>
      <trkpt lat="39.996957000" lon="-8.441825000">
        <ele>227.800000</ele>
        <time>2020-10-17T09:18:13Z</time>
      </trkpt>
      <trkpt lat="39.996947000" lon="-8.441792000">
        <ele>228.000000</ele>
        <time>2020-10-17T09:18:14Z</time>
      </trkpt>
      <trkpt lat="39.996936000" lon="-8.441759000">
        <ele>228.200000</ele>
        <time>2020-10-17T09:18:15Z</time>
      </trkpt>
      <trkpt lat="39.996926000" lon="-8.441727000">
        <ele>228.400000</ele>
        <time>2020-10-17T09:18:16Z</time>
      </trkpt>
      <trkpt lat="39.996915000" lon="-8.441696000">
        <ele>228.600000</ele>
        <time>2020-10-17T09:18:17Z</time>
      </trkpt>
      <trkpt lat="39.996905000" lon="-8.441666000">
        <ele>228.800000</ele>
        <time>2020-10-17T09:18:18Z</time>
      </trkpt>
      <trkpt lat="39.996894000" lon="-8.441637000">
        <ele>229.200000</ele>
        <time>2020-10-17T09:18:19Z</time>
      </trkpt>
      <trkpt lat="39.996883000" lon="-8.441606000">
        <ele>229.600000</ele>
        <time>2020-10-17T09:18:20Z</time>
      </trkpt>
      <trkpt lat="39.996870000" lon="-8.441577000">
        <ele>229.600000</ele>
        <time>2020-10-17T09:18:21Z</time>
      </trkpt>
      <trkpt lat="39.996860000" lon="-8.441547000">
        <ele>230.000000</ele>
        <time>2020-10-17T09:18:22Z</time>
      </trkpt>
      <trkpt lat="39.996849000" lon="-8.441517000">
        <ele>230.000000</ele>
        <time>2020-10-17T09:18:23Z</time>
      </trkpt>
      <trkpt lat="39.996838000" lon="-8.441487000">
        <ele>230.400000</ele>
        <time>2020-10-17T09:18:24Z</time>
      </trkpt>
      <trkpt lat="39.996828000" lon="-8.441457000">
        <ele>230.400000</ele>
        <time>2020-10-17T09:18:25Z</time>
      </trkpt>
      <trkpt lat="39.996818000" lon="-8.441426000">
        <ele>230.600000</ele>
        <time>2020-10-17T09:18:26Z</time>
      </trkpt>
      <trkpt lat="39.996808000" lon="-8.441395000">
        <ele>231.000000</ele>
        <time>2020-10-17T09:18:27Z</time>
      </trkpt>
      <trkpt lat="39.996800000" lon="-8.441364000">
        <ele>231.200000</ele>
        <time>2020-10-17T09:18:28Z</time>
      </trkpt>
      <trkpt lat="39.996791000" lon="-8.441331000">
        <ele>231.400000</ele>
        <time>2020-10-17T09:18:29Z</time>
      </trkpt>
      <trkpt lat="39.996783000" lon="-8.441298000">
        <ele>231.600000</ele>
        <time>2020-10-17T09:18:30Z</time>
      </trkpt>
      <trkpt lat="39.996772000" lon="-8.441268000">
        <ele>232.000000</ele>
        <time>2020-10-17T09:18:31Z</time>
      </trkpt>
      <trkpt lat="39.996761000" lon="-8.441237000">
        <ele>232.400000</ele>
        <time>2020-10-17T09:18:32Z</time>
      </trkpt>
      <trkpt lat="39.996749000" lon="-8.441207000">
        <ele>232.600000</ele>
        <time>2020-10-17T09:18:33Z</time>
      </trkpt>
      <trkpt lat="39.996736000" lon="-8.441178000">
        <ele>232.800000</ele>
        <time>2020-10-17T09:18:34Z</time>
      </trkpt>
      <trkpt lat="39.996725000" lon="-8.441151000">
        <ele>233.000000</ele>
        <time>2020-10-17T09:18:35Z</time>
      </trkpt>
      <trkpt lat="39.996712000" lon="-8.441124000">
        <ele>233.200000</ele>
        <time>2020-10-17T09:18:36Z</time>
      </trkpt>
      <trkpt lat="39.996701000" lon="-8.441096000">
        <ele>233.400000</ele>
        <time>2020-10-17T09:18:37Z</time>
      </trkpt>
      <trkpt lat="39.996689000" lon="-8.441067000">
        <ele>233.400000</ele>
        <time>2020-10-17T09:18:38Z</time>
      </trkpt>
      <trkpt lat="39.996678000" lon="-8.441037000">
        <ele>233.600000</ele>
        <time>2020-10-17T09:18:39Z</time>
      </trkpt>
      <trkpt lat="39.996668000" lon="-8.441006000">
        <ele>233.800000</ele>
        <time>2020-10-17T09:18:40Z</time>
      </trkpt>
      <trkpt lat="39.996657000" lon="-8.440972000">
        <ele>234.200000</ele>
        <time>2020-10-17T09:18:41Z</time>
      </trkpt>
      <trkpt lat="39.996647000" lon="-8.440938000">
        <ele>234.200000</ele>
        <time>2020-10-17T09:18:42Z</time>
      </trkpt>
      <trkpt lat="39.996635000" lon="-8.440900000">
        <ele>234.600000</ele>
        <time>2020-10-17T09:18:43Z</time>
      </trkpt>
      <trkpt lat="39.996623000" lon="-8.440864000">
        <ele>234.600000</ele>
        <time>2020-10-17T09:18:44Z</time>
      </trkpt>
      <trkpt lat="39.996612000" lon="-8.440830000">
        <ele>234.800000</ele>
        <time>2020-10-17T09:18:45Z</time>
      </trkpt>
      <trkpt lat="39.996600000" lon="-8.440798000">
        <ele>235.000000</ele>
        <time>2020-10-17T09:18:46Z</time>
      </trkpt>
      <trkpt lat="39.996589000" lon="-8.440764000">
        <ele>235.200000</ele>
        <time>2020-10-17T09:18:47Z</time>
      </trkpt>
      <trkpt lat="39.996577000" lon="-8.440730000">
        <ele>235.600000</ele>
        <time>2020-10-17T09:18:48Z</time>
      </trkpt>
      <trkpt lat="39.996563000" lon="-8.440698000">
        <ele>235.600000</ele>
        <time>2020-10-17T09:18:49Z</time>
      </trkpt>
      <trkpt lat="39.996550000" lon="-8.440667000">
        <ele>236.000000</ele>
        <time>2020-10-17T09:18:50Z</time>
      </trkpt>
      <trkpt lat="39.996540000" lon="-8.440637000">
        <ele>236.400000</ele>
        <time>2020-10-17T09:18:51Z</time>
      </trkpt>
      <trkpt lat="39.996530000" lon="-8.440605000">
        <ele>236.600000</ele>
        <time>2020-10-17T09:18:52Z</time>
      </trkpt>
      <trkpt lat="39.996518000" lon="-8.440570000">
        <ele>237.000000</ele>
        <time>2020-10-17T09:18:53Z</time>
      </trkpt>
      <trkpt lat="39.996506000" lon="-8.440536000">
        <ele>237.400000</ele>
        <time>2020-10-17T09:18:54Z</time>
      </trkpt>
      <trkpt lat="39.996493000" lon="-8.440501000">
        <ele>237.400000</ele>
        <time>2020-10-17T09:18:55Z</time>
      </trkpt>
      <trkpt lat="39.996482000" lon="-8.440469000">
        <ele>237.800000</ele>
        <time>2020-10-17T09:18:56Z</time>
      </trkpt>
      <trkpt lat="39.996472000" lon="-8.440436000">
        <ele>238.000000</ele>
        <time>2020-10-17T09:18:57Z</time>
      </trkpt>
      <trkpt lat="39.996461000" lon="-8.440402000">
        <ele>238.200000</ele>
        <time>2020-10-17T09:18:58Z</time>
      </trkpt>
      <trkpt lat="39.996450000" lon="-8.440367000">
        <ele>238.400000</ele>
        <time>2020-10-17T09:18:59Z</time>
      </trkpt>
      <trkpt lat="39.996439000" lon="-8.440334000">
        <ele>238.800000</ele>
        <time>2020-10-17T09:19:00Z</time>
      </trkpt>
      <trkpt lat="39.996431000" lon="-8.440300000">
        <ele>238.800000</ele>
        <time>2020-10-17T09:19:01Z</time>
      </trkpt>
      <trkpt lat="39.996423000" lon="-8.440267000">
        <ele>239.200000</ele>
        <time>2020-10-17T09:19:02Z</time>
      </trkpt>
      <trkpt lat="39.996414000" lon="-8.440235000">
        <ele>239.400000</ele>
        <time>2020-10-17T09:19:03Z</time>
      </trkpt>
      <trkpt lat="39.996403000" lon="-8.440204000">
        <ele>239.600000</ele>
        <time>2020-10-17T09:19:04Z</time>
      </trkpt>
      <trkpt lat="39.996390000" lon="-8.440173000">
        <ele>239.600000</ele>
        <time>2020-10-17T09:19:05Z</time>
      </trkpt>
      <trkpt lat="39.996379000" lon="-8.440142000">
        <ele>239.800000</ele>
        <time>2020-10-17T09:19:06Z</time>
      </trkpt>
      <trkpt lat="39.996366000" lon="-8.440110000">
        <ele>240.000000</ele>
        <time>2020-10-17T09:19:07Z</time>
      </trkpt>
      <trkpt lat="39.996353000" lon="-8.440077000">
        <ele>240.400000</ele>
        <time>2020-10-17T09:19:08Z</time>
      </trkpt>
      <trkpt lat="39.996342000" lon="-8.440043000">
        <ele>240.600000</ele>
        <time>2020-10-17T09:19:09Z</time>
      </trkpt>
      <trkpt lat="39.996328000" lon="-8.440013000">
        <ele>241.000000</ele>
        <time>2020-10-17T09:19:10Z</time>
      </trkpt>
      <trkpt lat="39.996315000" lon="-8.439985000">
        <ele>241.200000</ele>
        <time>2020-10-17T09:19:11Z</time>
      </trkpt>
      <trkpt lat="39.996304000" lon="-8.439955000">
        <ele>241.600000</ele>
        <time>2020-10-17T09:19:12Z</time>
      </trkpt>
      <trkpt lat="39.996293000" lon="-8.439922000">
        <ele>241.800000</ele>
        <time>2020-10-17T09:19:13Z</time>
      </trkpt>
      <trkpt lat="39.996281000" lon="-8.439889000">
        <ele>242.200000</ele>
        <time>2020-10-17T09:19:14Z</time>
      </trkpt>
      <trkpt lat="39.996268000" lon="-8.439858000">
        <ele>242.600000</ele>
        <time>2020-10-17T09:19:15Z</time>
      </trkpt>
      <trkpt lat="39.996255000" lon="-8.439828000">
        <ele>242.600000</ele>
        <time>2020-10-17T09:19:16Z</time>
      </trkpt>
      <trkpt lat="39.996242000" lon="-8.439797000">
        <ele>242.800000</ele>
        <time>2020-10-17T09:19:17Z</time>
      </trkpt>
      <trkpt lat="39.996231000" lon="-8.439765000">
        <ele>243.000000</ele>
        <time>2020-10-17T09:19:18Z</time>
      </trkpt>
      <trkpt lat="39.996220000" lon="-8.439733000">
        <ele>243.400000</ele>
        <time>2020-10-17T09:19:19Z</time>
      </trkpt>
      <trkpt lat="39.996208000" lon="-8.439700000">
        <ele>243.600000</ele>
        <time>2020-10-17T09:19:20Z</time>
      </trkpt>
      <trkpt lat="39.996197000" lon="-8.439666000">
        <ele>244.000000</ele>
        <time>2020-10-17T09:19:21Z</time>
      </trkpt>
      <trkpt lat="39.996185000" lon="-8.439634000">
        <ele>244.200000</ele>
        <time>2020-10-17T09:19:22Z</time>
      </trkpt>
      <trkpt lat="39.996174000" lon="-8.439603000">
        <ele>244.400000</ele>
        <time>2020-10-17T09:19:23Z</time>
      </trkpt>
      <trkpt lat="39.996162000" lon="-8.439572000">
        <ele>244.600000</ele>
        <time>2020-10-17T09:19:24Z</time>
      </trkpt>
      <trkpt lat="39.996152000" lon="-8.439540000">
        <ele>244.800000</ele>
        <time>2020-10-17T09:19:25Z</time>
      </trkpt>
      <trkpt lat="39.996143000" lon="-8.439508000">
        <ele>244.800000</ele>
        <time>2020-10-17T09:19:26Z</time>
      </trkpt>
      <trkpt lat="39.996134000" lon="-8.439476000">
        <ele>245.000000</ele>
        <time>2020-10-17T09:19:27Z</time>
      </trkpt>
      <trkpt lat="39.996128000" lon="-8.439443000">
        <ele>245.200000</ele>
        <time>2020-10-17T09:19:28Z</time>
      </trkpt>
      <trkpt lat="39.996124000" lon="-8.439406000">
        <ele>245.400000</ele>
        <time>2020-10-17T09:19:29Z</time>
      </trkpt>
      <trkpt lat="39.996120000" lon="-8.439370000">
        <ele>245.800000</ele>
        <time>2020-10-17T09:19:30Z</time>
      </trkpt>
      <trkpt lat="39.996116000" lon="-8.439334000">
        <ele>245.800000</ele>
        <time>2020-10-17T09:19:31Z</time>
      </trkpt>
      <trkpt lat="39.996113000" lon="-8.439296000">
        <ele>246.000000</ele>
        <time>2020-10-17T09:19:32Z</time>
      </trkpt>
      <trkpt lat="39.996111000" lon="-8.439259000">
        <ele>246.200000</ele>
        <time>2020-10-17T09:19:33Z</time>
      </trkpt>
      <trkpt lat="39.996110000" lon="-8.439222000">
        <ele>246.400000</ele>
        <time>2020-10-17T09:19:34Z</time>
      </trkpt>
      <trkpt lat="39.996110000" lon="-8.439186000">
        <ele>246.800000</ele>
        <time>2020-10-17T09:19:35Z</time>
      </trkpt>
      <trkpt lat="39.996111000" lon="-8.439151000">
        <ele>247.000000</ele>
        <time>2020-10-17T09:19:36Z</time>
      </trkpt>
      <trkpt lat="39.996113000" lon="-8.439117000">
        <ele>247.200000</ele>
        <time>2020-10-17T09:19:37Z</time>
      </trkpt>
      <trkpt lat="39.996116000" lon="-8.439083000">
        <ele>247.600000</ele>
        <time>2020-10-17T09:19:38Z</time>
      </trkpt>
      <trkpt lat="39.996115000" lon="-8.439053000">
        <ele>247.800000</ele>
        <time>2020-10-17T09:19:39Z</time>
      </trkpt>
      <trkpt lat="39.996115000" lon="-8.439023000">
        <ele>247.800000</ele>
        <time>2020-10-17T09:19:40Z</time>
      </trkpt>
      <trkpt lat="39.996116000" lon="-8.438993000">
        <ele>248.200000</ele>
        <time>2020-10-17T09:19:41Z</time>
      </trkpt>
      <trkpt lat="39.996114000" lon="-8.438962000">
        <ele>248.200000</ele>
        <time>2020-10-17T09:19:42Z</time>
      </trkpt>
      <trkpt lat="39.996098000" lon="-8.438937000">
        <ele>248.400000</ele>
        <time>2020-10-17T09:19:43Z</time>
      </trkpt>
      <trkpt lat="39.996080000" lon="-8.438920000">
        <ele>248.800000</ele>
        <time>2020-10-17T09:19:44Z</time>
      </trkpt>
      <trkpt lat="39.996059000" lon="-8.438909000">
        <ele>249.200000</ele>
        <time>2020-10-17T09:19:45Z</time>
      </trkpt>
      <trkpt lat="39.996041000" lon="-8.438902000">
        <ele>249.400000</ele>
        <time>2020-10-17T09:19:46Z</time>
      </trkpt>
      <trkpt lat="39.996027000" lon="-8.438895000">
        <ele>249.600000</ele>
        <time>2020-10-17T09:19:47Z</time>
      </trkpt>
      <trkpt lat="39.996008000" lon="-8.438896000">
        <ele>249.600000</ele>
        <time>2020-10-17T09:19:48Z</time>
      </trkpt>
      <trkpt lat="39.995987000" lon="-8.438899000">
        <ele>249.600000</ele>
        <time>2020-10-17T09:19:49Z</time>
      </trkpt>
      <trkpt lat="39.995967000" lon="-8.438908000">
        <ele>249.800000</ele>
        <time>2020-10-17T09:19:50Z</time>
      </trkpt>
      <trkpt lat="39.995948000" lon="-8.438914000">
        <ele>250.000000</ele>
        <time>2020-10-17T09:19:51Z</time>
      </trkpt>
      <trkpt lat="39.995928000" lon="-8.438924000">
        <ele>250.000000</ele>
        <time>2020-10-17T09:19:52Z</time>
      </trkpt>
      <trkpt lat="39.995893000" lon="-8.438945000">
        <ele>250.400000</ele>
        <time>2020-10-17T09:19:53Z</time>
      </trkpt>
      <trkpt lat="39.995855000" lon="-8.438968000">
        <ele>250.800000</ele>
        <time>2020-10-17T09:19:54Z</time>
      </trkpt>
      <trkpt lat="39.995814000" lon="-8.438999000">
        <ele>251.200000</ele>
        <time>2020-10-17T09:19:55Z</time>
      </trkpt>
      <trkpt lat="39.995772000" lon="-8.439037000">
        <ele>251.200000</ele>
        <time>2020-10-17T09:19:56Z</time>
      </trkpt>
      <trkpt lat="39.995743000" lon="-8.439066000">
        <ele>251.400000</ele>
        <time>2020-10-17T09:19:57Z</time>
      </trkpt>
      <trkpt lat="39.995705000" lon="-8.439108000">
        <ele>251.800000</ele>
        <time>2020-10-17T09:19:58Z</time>
      </trkpt>
      <trkpt lat="39.995673000" lon="-8.439147000">
        <ele>252.000000</ele>
        <time>2020-10-17T09:19:59Z</time>
      </trkpt>
      <trkpt lat="39.995646000" lon="-8.439191000">
        <ele>252.000000</ele>
        <time>2020-10-17T09:20:00Z</time>
      </trkpt>
      <trkpt lat="39.995618000" lon="-8.439235000">
        <ele>252.000000</ele>
        <time>2020-10-17T09:20:01Z</time>
      </trkpt>
      <trkpt lat="39.995597000" lon="-8.439284000">
        <ele>252.200000</ele>
        <time>2020-10-17T09:20:02Z</time>
      </trkpt>
      <trkpt lat="39.995581000" lon="-8.439332000">
        <ele>252.200000</ele>
        <time>2020-10-17T09:20:03Z</time>
      </trkpt>
      <trkpt lat="39.995570000" lon="-8.439380000">
        <ele>252.200000</ele>
        <time>2020-10-17T09:20:04Z</time>
      </trkpt>
      <trkpt lat="39.995565000" lon="-8.439423000">
        <ele>252.400000</ele>
        <time>2020-10-17T09:20:05Z</time>
      </trkpt>
      <trkpt lat="39.995557000" lon="-8.439477000">
        <ele>252.600000</ele>
        <time>2020-10-17T09:20:06Z</time>
      </trkpt>
      <trkpt lat="39.995540000" lon="-8.439534000">
        <ele>252.600000</ele>
        <time>2020-10-17T09:20:07Z</time>
      </trkpt>
      <trkpt lat="39.995527000" lon="-8.439576000">
        <ele>252.600000</ele>
        <time>2020-10-17T09:20:08Z</time>
      </trkpt>
      <trkpt lat="39.995506000" lon="-8.439625000">
        <ele>252.800000</ele>
        <time>2020-10-17T09:20:09Z</time>
      </trkpt>
      <trkpt lat="39.995479000" lon="-8.439674000">
        <ele>253.000000</ele>
        <time>2020-10-17T09:20:10Z</time>
      </trkpt>
      <trkpt lat="39.995443000" lon="-8.439719000">
        <ele>252.800000</ele>
        <time>2020-10-17T09:20:11Z</time>
      </trkpt>
      <trkpt lat="39.995423000" lon="-8.439742000">
        <ele>252.800000</ele>
        <time>2020-10-17T09:20:12Z</time>
      </trkpt>
      <trkpt lat="39.995398000" lon="-8.439796000">
        <ele>252.800000</ele>
        <time>2020-10-17T09:20:13Z</time>
      </trkpt>
      <trkpt lat="39.995334000" lon="-8.439920000">
        <ele>252.800000</ele>
        <time>2020-10-17T09:20:15Z</time>
      </trkpt>
      <trkpt lat="39.995272000" lon="-8.440020000">
        <ele>252.800000</ele>
        <time>2020-10-17T09:20:17Z</time>
      </trkpt>
      <trkpt lat="39.995241000" lon="-8.440062000">
        <ele>252.800000</ele>
        <time>2020-10-17T09:20:18Z</time>
      </trkpt>
      <trkpt lat="39.995220000" lon="-8.440106000">
        <ele>252.600000</ele>
        <time>2020-10-17T09:20:19Z</time>
      </trkpt>
      <trkpt lat="39.995187000" lon="-8.440151000">
        <ele>252.400000</ele>
        <time>2020-10-17T09:20:20Z</time>
      </trkpt>
      <trkpt lat="39.995156000" lon="-8.440201000">
        <ele>251.200000</ele>
        <time>2020-10-17T09:20:21Z</time>
      </trkpt>
      <trkpt lat="39.995122000" lon="-8.440244000">
        <ele>250.600000</ele>
        <time>2020-10-17T09:20:22Z</time>
      </trkpt>
      <trkpt lat="39.995084000" lon="-8.440295000">
        <ele>250.200000</ele>
        <time>2020-10-17T09:20:23Z</time>
      </trkpt>
      <trkpt lat="39.995048000" lon="-8.440356000">
        <ele>249.800000</ele>
        <time>2020-10-17T09:20:24Z</time>
      </trkpt>
      <trkpt lat="39.995012000" lon="-8.440414000">
        <ele>248.800000</ele>
        <time>2020-10-17T09:20:25Z</time>
      </trkpt>
      <trkpt lat="39.994924000" lon="-8.440529000">
        <ele>247.600000</ele>
        <time>2020-10-17T09:20:27Z</time>
      </trkpt>
      <trkpt lat="39.994822000" lon="-8.440649000">
        <ele>246.600000</ele>
        <time>2020-10-17T09:20:29Z</time>
      </trkpt>
      <trkpt lat="39.994761000" lon="-8.440702000">
        <ele>246.600000</ele>
        <time>2020-10-17T09:20:30Z</time>
      </trkpt>
      <trkpt lat="39.994695000" lon="-8.440760000">
        <ele>246.200000</ele>
        <time>2020-10-17T09:20:31Z</time>
      </trkpt>
      <trkpt lat="39.994632000" lon="-8.440819000">
        <ele>245.800000</ele>
        <time>2020-10-17T09:20:32Z</time>
      </trkpt>
      <trkpt lat="39.994562000" lon="-8.440876000">
        <ele>245.600000</ele>
        <time>2020-10-17T09:20:33Z</time>
      </trkpt>
      <trkpt lat="39.994442000" lon="-8.440994000">
        <ele>244.400000</ele>
        <time>2020-10-17T09:20:35Z</time>
      </trkpt>
      <trkpt lat="39.994389000" lon="-8.441053000">
        <ele>244.400000</ele>
        <time>2020-10-17T09:20:36Z</time>
      </trkpt>
      <trkpt lat="39.994339000" lon="-8.441104000">
        <ele>244.000000</ele>
        <time>2020-10-17T09:20:37Z</time>
      </trkpt>
      <trkpt lat="39.994294000" lon="-8.441145000">
        <ele>243.400000</ele>
        <time>2020-10-17T09:20:38Z</time>
      </trkpt>
      <trkpt lat="39.994255000" lon="-8.441170000">
        <ele>243.000000</ele>
        <time>2020-10-17T09:20:39Z</time>
      </trkpt>
      <trkpt lat="39.994224000" lon="-8.441188000">
        <ele>242.400000</ele>
        <time>2020-10-17T09:20:40Z</time>
      </trkpt>
      <trkpt lat="39.994199000" lon="-8.441211000">
        <ele>241.800000</ele>
        <time>2020-10-17T09:20:41Z</time>
      </trkpt>
      <trkpt lat="39.994171000" lon="-8.441245000">
        <ele>241.800000</ele>
        <time>2020-10-17T09:20:42Z</time>
      </trkpt>
      <trkpt lat="39.994148000" lon="-8.441276000">
        <ele>241.600000</ele>
        <time>2020-10-17T09:20:43Z</time>
      </trkpt>
      <trkpt lat="39.994123000" lon="-8.441319000">
        <ele>241.600000</ele>
        <time>2020-10-17T09:20:44Z</time>
      </trkpt>
      <trkpt lat="39.994108000" lon="-8.441357000">
        <ele>241.400000</ele>
        <time>2020-10-17T09:20:45Z</time>
      </trkpt>
      <trkpt lat="39.994089000" lon="-8.441402000">
        <ele>241.000000</ele>
        <time>2020-10-17T09:20:46Z</time>
      </trkpt>
      <trkpt lat="39.994065000" lon="-8.441458000">
        <ele>241.000000</ele>
        <time>2020-10-17T09:20:47Z</time>
      </trkpt>
      <trkpt lat="39.993962000" lon="-8.441702000">
        <ele>240.400000</ele>
        <time>2020-10-17T09:20:51Z</time>
      </trkpt>
      <trkpt lat="39.993892000" lon="-8.441818000">
        <ele>240.000000</ele>
        <time>2020-10-17T09:20:53Z</time>
      </trkpt>
      <trkpt lat="39.993859000" lon="-8.441855000">
        <ele>240.000000</ele>
        <time>2020-10-17T09:20:54Z</time>
      </trkpt>
      <trkpt lat="39.993819000" lon="-8.441891000">
        <ele>240.000000</ele>
        <time>2020-10-17T09:20:55Z</time>
      </trkpt>
      <trkpt lat="39.993779000" lon="-8.441918000">
        <ele>240.000000</ele>
        <time>2020-10-17T09:20:56Z</time>
      </trkpt>
      <trkpt lat="39.993744000" lon="-8.441930000">
        <ele>240.000000</ele>
        <time>2020-10-17T09:20:57Z</time>
      </trkpt>
      <trkpt lat="39.993700000" lon="-8.441938000">
        <ele>239.800000</ele>
        <time>2020-10-17T09:20:58Z</time>
      </trkpt>
      <trkpt lat="39.993649000" lon="-8.441944000">
        <ele>239.600000</ele>
        <time>2020-10-17T09:20:59Z</time>
      </trkpt>
      <trkpt lat="39.993595000" lon="-8.441947000">
        <ele>239.400000</ele>
        <time>2020-10-17T09:21:00Z</time>
      </trkpt>
      <trkpt lat="39.993483000" lon="-8.441953000">
        <ele>238.200000</ele>
        <time>2020-10-17T09:21:02Z</time>
      </trkpt>
      <trkpt lat="39.993433000" lon="-8.441962000">
        <ele>237.400000</ele>
        <time>2020-10-17T09:21:03Z</time>
      </trkpt>
      <trkpt lat="39.993382000" lon="-8.441970000">
        <ele>237.200000</ele>
        <time>2020-10-17T09:21:04Z</time>
      </trkpt>
      <trkpt lat="39.993331000" lon="-8.441972000">
        <ele>236.400000</ele>
        <time>2020-10-17T09:21:05Z</time>
      </trkpt>
      <trkpt lat="39.993287000" lon="-8.441976000">
        <ele>236.000000</ele>
        <time>2020-10-17T09:21:06Z</time>
      </trkpt>
      <trkpt lat="39.993243000" lon="-8.441985000">
        <ele>235.400000</ele>
        <time>2020-10-17T09:21:07Z</time>
      </trkpt>
      <trkpt lat="39.993197000" lon="-8.442004000">
        <ele>235.200000</ele>
        <time>2020-10-17T09:21:08Z</time>
      </trkpt>
      <trkpt lat="39.993139000" lon="-8.442040000">
        <ele>234.800000</ele>
        <time>2020-10-17T09:21:09Z</time>
      </trkpt>
      <trkpt lat="39.993089000" lon="-8.442073000">
        <ele>234.400000</ele>
        <time>2020-10-17T09:21:10Z</time>
      </trkpt>
      <trkpt lat="39.993038000" lon="-8.442099000">
        <ele>232.800000</ele>
        <time>2020-10-17T09:21:11Z</time>
      </trkpt>
      <trkpt lat="39.992997000" lon="-8.442124000">
        <ele>232.800000</ele>
        <time>2020-10-17T09:21:12Z</time>
      </trkpt>
      <trkpt lat="39.992954000" lon="-8.442139000">
        <ele>231.800000</ele>
        <time>2020-10-17T09:21:13Z</time>
      </trkpt>
      <trkpt lat="39.992908000" lon="-8.442155000">
        <ele>231.200000</ele>
        <time>2020-10-17T09:21:14Z</time>
      </trkpt>
      <trkpt lat="39.992804000" lon="-8.442183000">
        <ele>230.200000</ele>
        <time>2020-10-17T09:21:16Z</time>
      </trkpt>
      <trkpt lat="39.992748000" lon="-8.442194000">
        <ele>229.600000</ele>
        <time>2020-10-17T09:21:17Z</time>
      </trkpt>
      <trkpt lat="39.992687000" lon="-8.442210000">
        <ele>229.400000</ele>
        <time>2020-10-17T09:21:18Z</time>
      </trkpt>
      <trkpt lat="39.992629000" lon="-8.442228000">
        <ele>228.000000</ele>
        <time>2020-10-17T09:21:19Z</time>
      </trkpt>
      <trkpt lat="39.992594000" lon="-8.442244000">
        <ele>226.600000</ele>
        <time>2020-10-17T09:21:20Z</time>
      </trkpt>
      <trkpt lat="39.992573000" lon="-8.442261000">
        <ele>225.400000</ele>
        <time>2020-10-17T09:21:21Z</time>
      </trkpt>
      <trkpt lat="39.992555000" lon="-8.442283000">
        <ele>224.200000</ele>
        <time>2020-10-17T09:21:22Z</time>
      </trkpt>
      <trkpt lat="39.992538000" lon="-8.442311000">
        <ele>223.400000</ele>
        <time>2020-10-17T09:21:23Z</time>
      </trkpt>
      <trkpt lat="39.992525000" lon="-8.442335000">
        <ele>222.600000</ele>
        <time>2020-10-17T09:21:24Z</time>
      </trkpt>
      <trkpt lat="39.992504000" lon="-8.442353000">
        <ele>221.800000</ele>
        <time>2020-10-17T09:21:25Z</time>
      </trkpt>
      <trkpt lat="39.992474000" lon="-8.442370000">
        <ele>220.800000</ele>
        <time>2020-10-17T09:21:26Z</time>
      </trkpt>
      <trkpt lat="39.992433000" lon="-8.442395000">
        <ele>219.800000</ele>
        <time>2020-10-17T09:21:27Z</time>
      </trkpt>
      <trkpt lat="39.992391000" lon="-8.442430000">
        <ele>219.200000</ele>
        <time>2020-10-17T09:21:28Z</time>
      </trkpt>
      <trkpt lat="39.992368000" lon="-8.442470000">
        <ele>218.600000</ele>
        <time>2020-10-17T09:21:29Z</time>
      </trkpt>
      <trkpt lat="39.992335000" lon="-8.442505000">
        <ele>218.000000</ele>
        <time>2020-10-17T09:21:30Z</time>
      </trkpt>
      <trkpt lat="39.992300000" lon="-8.442537000">
        <ele>217.600000</ele>
        <time>2020-10-17T09:21:31Z</time>
      </trkpt>
      <trkpt lat="39.992264000" lon="-8.442574000">
        <ele>216.800000</ele>
        <time>2020-10-17T09:21:32Z</time>
      </trkpt>
      <trkpt lat="39.992161000" lon="-8.442683000">
        <ele>216.000000</ele>
        <time>2020-10-17T09:21:35Z</time>
      </trkpt>
      <trkpt lat="39.992131000" lon="-8.442712000">
        <ele>215.600000</ele>
        <time>2020-10-17T09:21:36Z</time>
      </trkpt>
      <trkpt lat="39.992039000" lon="-8.442801000">
        <ele>215.600000</ele>
        <time>2020-10-17T09:21:38Z</time>
      </trkpt>
      <trkpt lat="39.991939000" lon="-8.442917000">
        <ele>215.200000</ele>
        <time>2020-10-17T09:21:40Z</time>
      </trkpt>
      <trkpt lat="39.991891000" lon="-8.442975000">
        <ele>215.000000</ele>
        <time>2020-10-17T09:21:41Z</time>
      </trkpt>
      <trkpt lat="39.991835000" lon="-8.443021000">
        <ele>215.000000</ele>
        <time>2020-10-17T09:21:42Z</time>
      </trkpt>
      <trkpt lat="39.991773000" lon="-8.443062000">
        <ele>215.000000</ele>
        <time>2020-10-17T09:21:43Z</time>
      </trkpt>
      <trkpt lat="39.991713000" lon="-8.443112000">
        <ele>214.800000</ele>
        <time>2020-10-17T09:21:44Z</time>
      </trkpt>
      <trkpt lat="39.991653000" lon="-8.443168000">
        <ele>214.800000</ele>
        <time>2020-10-17T09:21:45Z</time>
      </trkpt>
      <trkpt lat="39.991452000" lon="-8.443309000">
        <ele>213.600000</ele>
        <time>2020-10-17T09:21:48Z</time>
      </trkpt>
      <trkpt lat="39.991410000" lon="-8.443351000">
        <ele>213.400000</ele>
        <time>2020-10-17T09:21:49Z</time>
      </trkpt>
      <trkpt lat="39.991374000" lon="-8.443389000">
        <ele>212.800000</ele>
        <time>2020-10-17T09:21:50Z</time>
      </trkpt>
      <trkpt lat="39.991337000" lon="-8.443423000">
        <ele>212.400000</ele>
        <time>2020-10-17T09:21:51Z</time>
      </trkpt>
      <trkpt lat="39.991287000" lon="-8.443458000">
        <ele>211.800000</ele>
        <time>2020-10-17T09:21:52Z</time>
      </trkpt>
      <trkpt lat="39.991244000" lon="-8.443475000">
        <ele>211.400000</ele>
        <time>2020-10-17T09:21:53Z</time>
      </trkpt>
      <trkpt lat="39.991195000" lon="-8.443492000">
        <ele>211.200000</ele>
        <time>2020-10-17T09:21:54Z</time>
      </trkpt>
      <trkpt lat="39.991138000" lon="-8.443514000">
        <ele>211.200000</ele>
        <time>2020-10-17T09:21:55Z</time>
      </trkpt>
      <trkpt lat="39.991090000" lon="-8.443540000">
        <ele>211.000000</ele>
        <time>2020-10-17T09:21:56Z</time>
      </trkpt>
      <trkpt lat="39.991048000" lon="-8.443560000">
        <ele>211.000000</ele>
        <time>2020-10-17T09:21:57Z</time>
      </trkpt>
      <trkpt lat="39.990999000" lon="-8.443597000">
        <ele>210.600000</ele>
        <time>2020-10-17T09:21:58Z</time>
      </trkpt>
      <trkpt lat="39.990953000" lon="-8.443635000">
        <ele>210.400000</ele>
        <time>2020-10-17T09:21:59Z</time>
      </trkpt>
      <trkpt lat="39.990909000" lon="-8.443676000">
        <ele>210.400000</ele>
        <time>2020-10-17T09:22:00Z</time>
      </trkpt>
      <trkpt lat="39.990813000" lon="-8.443749000">
        <ele>209.600000</ele>
        <time>2020-10-17T09:22:02Z</time>
      </trkpt>
      <trkpt lat="39.990761000" lon="-8.443769000">
        <ele>209.400000</ele>
        <time>2020-10-17T09:22:03Z</time>
      </trkpt>
      <trkpt lat="39.990726000" lon="-8.443781000">
        <ele>209.200000</ele>
        <time>2020-10-17T09:22:04Z</time>
      </trkpt>
      <trkpt lat="39.990686000" lon="-8.443811000">
        <ele>209.000000</ele>
        <time>2020-10-17T09:22:05Z</time>
      </trkpt>
      <trkpt lat="39.990647000" lon="-8.443855000">
        <ele>209.000000</ele>
        <time>2020-10-17T09:22:06Z</time>
      </trkpt>
      <trkpt lat="39.990608000" lon="-8.443906000">
        <ele>209.000000</ele>
        <time>2020-10-17T09:22:07Z</time>
      </trkpt>
      <trkpt lat="39.990563000" lon="-8.443954000">
        <ele>208.800000</ele>
        <time>2020-10-17T09:22:08Z</time>
      </trkpt>
      <trkpt lat="39.990422000" lon="-8.444080000">
        <ele>208.600000</ele>
        <time>2020-10-17T09:22:11Z</time>
      </trkpt>
      <trkpt lat="39.990379000" lon="-8.444123000">
        <ele>208.800000</ele>
        <time>2020-10-17T09:22:12Z</time>
      </trkpt>
      <trkpt lat="39.990334000" lon="-8.444164000">
        <ele>208.400000</ele>
        <time>2020-10-17T09:22:13Z</time>
      </trkpt>
      <trkpt lat="39.990281000" lon="-8.444190000">
        <ele>208.400000</ele>
        <time>2020-10-17T09:22:14Z</time>
      </trkpt>
      <trkpt lat="39.990232000" lon="-8.444212000">
        <ele>208.200000</ele>
        <time>2020-10-17T09:22:15Z</time>
      </trkpt>
      <trkpt lat="39.990182000" lon="-8.444227000">
        <ele>208.200000</ele>
        <time>2020-10-17T09:22:16Z</time>
      </trkpt>
      <trkpt lat="39.990128000" lon="-8.444243000">
        <ele>208.200000</ele>
        <time>2020-10-17T09:22:17Z</time>
      </trkpt>
      <trkpt lat="39.990076000" lon="-8.444250000">
        <ele>208.000000</ele>
        <time>2020-10-17T09:22:18Z</time>
      </trkpt>
      <trkpt lat="39.990018000" lon="-8.444256000">
        <ele>208.000000</ele>
        <time>2020-10-17T09:22:19Z</time>
      </trkpt>
      <trkpt lat="39.989846000" lon="-8.444288000">
        <ele>208.000000</ele>
        <time>2020-10-17T09:22:22Z</time>
      </trkpt>
      <trkpt lat="39.989798000" lon="-8.444301000">
        <ele>208.000000</ele>
        <time>2020-10-17T09:22:23Z</time>
      </trkpt>
      <trkpt lat="39.989749000" lon="-8.444326000">
        <ele>208.000000</ele>
        <time>2020-10-17T09:22:24Z</time>
      </trkpt>
      <trkpt lat="39.989698000" lon="-8.444357000">
        <ele>207.800000</ele>
        <time>2020-10-17T09:22:25Z</time>
      </trkpt>
      <trkpt lat="39.989654000" lon="-8.444373000">
        <ele>207.800000</ele>
        <time>2020-10-17T09:22:26Z</time>
      </trkpt>
      <trkpt lat="39.989619000" lon="-8.444379000">
        <ele>207.800000</ele>
        <time>2020-10-17T09:22:27Z</time>
      </trkpt>
      <trkpt lat="39.989580000" lon="-8.444384000">
        <ele>207.800000</ele>
        <time>2020-10-17T09:22:28Z</time>
      </trkpt>
      <trkpt lat="39.989542000" lon="-8.444389000">
        <ele>207.800000</ele>
        <time>2020-10-17T09:22:29Z</time>
      </trkpt>
      <trkpt lat="39.989504000" lon="-8.444396000">
        <ele>207.800000</ele>
        <time>2020-10-17T09:22:30Z</time>
      </trkpt>
      <trkpt lat="39.989473000" lon="-8.444396000">
        <ele>207.800000</ele>
        <time>2020-10-17T09:22:31Z</time>
      </trkpt>
      <trkpt lat="39.989449000" lon="-8.444392000">
        <ele>208.000000</ele>
        <time>2020-10-17T09:22:32Z</time>
      </trkpt>
      <trkpt lat="39.989425000" lon="-8.444388000">
        <ele>208.200000</ele>
        <time>2020-10-17T09:22:33Z</time>
      </trkpt>
      <trkpt lat="39.989402000" lon="-8.444387000">
        <ele>208.200000</ele>
        <time>2020-10-17T09:22:34Z</time>
      </trkpt>
      <trkpt lat="39.989373000" lon="-8.444399000">
        <ele>208.200000</ele>
        <time>2020-10-17T09:22:35Z</time>
      </trkpt>
      <trkpt lat="39.989340000" lon="-8.444420000">
        <ele>208.400000</ele>
        <time>2020-10-17T09:22:36Z</time>
      </trkpt>
      <trkpt lat="39.989311000" lon="-8.444442000">
        <ele>208.600000</ele>
        <time>2020-10-17T09:22:37Z</time>
      </trkpt>
      <trkpt lat="39.989285000" lon="-8.444461000">
        <ele>208.600000</ele>
        <time>2020-10-17T09:22:38Z</time>
      </trkpt>
      <trkpt lat="39.989251000" lon="-8.444484000">
        <ele>209.000000</ele>
        <time>2020-10-17T09:22:39Z</time>
      </trkpt>
      <trkpt lat="39.989213000" lon="-8.444510000">
        <ele>209.600000</ele>
        <time>2020-10-17T09:22:40Z</time>
      </trkpt>
      <trkpt lat="39.989180000" lon="-8.444534000">
        <ele>210.000000</ele>
        <time>2020-10-17T09:22:41Z</time>
      </trkpt>
      <trkpt lat="39.989135000" lon="-8.444569000">
        <ele>210.400000</ele>
        <time>2020-10-17T09:22:42Z</time>
      </trkpt>
      <trkpt lat="39.989097000" lon="-8.444596000">
        <ele>210.600000</ele>
        <time>2020-10-17T09:22:43Z</time>
      </trkpt>
      <trkpt lat="39.989064000" lon="-8.444612000">
        <ele>210.800000</ele>
        <time>2020-10-17T09:22:44Z</time>
      </trkpt>
      <trkpt lat="39.989029000" lon="-8.444628000">
        <ele>211.200000</ele>
        <time>2020-10-17T09:22:45Z</time>
      </trkpt>
      <trkpt lat="39.988992000" lon="-8.444642000">
        <ele>211.200000</ele>
        <time>2020-10-17T09:22:46Z</time>
      </trkpt>
      <trkpt lat="39.988958000" lon="-8.444648000">
        <ele>211.400000</ele>
        <time>2020-10-17T09:22:47Z</time>
      </trkpt>
      <trkpt lat="39.988926000" lon="-8.444645000">
        <ele>211.600000</ele>
        <time>2020-10-17T09:22:48Z</time>
      </trkpt>
      <trkpt lat="39.988890000" lon="-8.444642000">
        <ele>211.600000</ele>
        <time>2020-10-17T09:22:49Z</time>
      </trkpt>
      <trkpt lat="39.988860000" lon="-8.444641000">
        <ele>211.800000</ele>
        <time>2020-10-17T09:22:50Z</time>
      </trkpt>
      <trkpt lat="39.988829000" lon="-8.444646000">
        <ele>212.000000</ele>
        <time>2020-10-17T09:22:51Z</time>
      </trkpt>
      <trkpt lat="39.988795000" lon="-8.444656000">
        <ele>212.200000</ele>
        <time>2020-10-17T09:22:52Z</time>
      </trkpt>
      <trkpt lat="39.988765000" lon="-8.444660000">
        <ele>212.200000</ele>
        <time>2020-10-17T09:22:53Z</time>
      </trkpt>
      <trkpt lat="39.988731000" lon="-8.444675000">
        <ele>212.400000</ele>
        <time>2020-10-17T09:22:54Z</time>
      </trkpt>
      <trkpt lat="39.988699000" lon="-8.444696000">
        <ele>212.400000</ele>
        <time>2020-10-17T09:22:55Z</time>
      </trkpt>
      <trkpt lat="39.988663000" lon="-8.444723000">
        <ele>212.600000</ele>
        <time>2020-10-17T09:22:56Z</time>
      </trkpt>
      <trkpt lat="39.988636000" lon="-8.444748000">
        <ele>212.600000</ele>
        <time>2020-10-17T09:22:57Z</time>
      </trkpt>
      <trkpt lat="39.988610000" lon="-8.444773000">
        <ele>212.800000</ele>
        <time>2020-10-17T09:22:58Z</time>
      </trkpt>
      <trkpt lat="39.988584000" lon="-8.444792000">
        <ele>213.200000</ele>
        <time>2020-10-17T09:22:59Z</time>
      </trkpt>
      <trkpt lat="39.988550000" lon="-8.444812000">
        <ele>213.200000</ele>
        <time>2020-10-17T09:23:00Z</time>
      </trkpt>
      <trkpt lat="39.988514000" lon="-8.444829000">
        <ele>213.000000</ele>
        <time>2020-10-17T09:23:01Z</time>
      </trkpt>
      <trkpt lat="39.988488000" lon="-8.444838000">
        <ele>213.200000</ele>
        <time>2020-10-17T09:23:02Z</time>
      </trkpt>
      <trkpt lat="39.988460000" lon="-8.444851000">
        <ele>213.200000</ele>
        <time>2020-10-17T09:23:03Z</time>
      </trkpt>
      <trkpt lat="39.988432000" lon="-8.444864000">
        <ele>213.600000</ele>
        <time>2020-10-17T09:23:04Z</time>
      </trkpt>
      <trkpt lat="39.988403000" lon="-8.444875000">
        <ele>213.400000</ele>
        <time>2020-10-17T09:23:05Z</time>
      </trkpt>
      <trkpt lat="39.988371000" lon="-8.444892000">
        <ele>213.600000</ele>
        <time>2020-10-17T09:23:06Z</time>
      </trkpt>
      <trkpt lat="39.988348000" lon="-8.444902000">
        <ele>213.800000</ele>
        <time>2020-10-17T09:23:07Z</time>
      </trkpt>
      <trkpt lat="39.988324000" lon="-8.444907000">
        <ele>213.800000</ele>
        <time>2020-10-17T09:23:08Z</time>
      </trkpt>
      <trkpt lat="39.988290000" lon="-8.444927000">
        <ele>213.800000</ele>
        <time>2020-10-17T09:23:09Z</time>
      </trkpt>
      <trkpt lat="39.988262000" lon="-8.444942000">
        <ele>214.000000</ele>
        <time>2020-10-17T09:23:10Z</time>
      </trkpt>
      <trkpt lat="39.988230000" lon="-8.444964000">
        <ele>214.200000</ele>
        <time>2020-10-17T09:23:11Z</time>
      </trkpt>
      <trkpt lat="39.988212000" lon="-8.444986000">
        <ele>214.200000</ele>
        <time>2020-10-17T09:23:12Z</time>
      </trkpt>
      <trkpt lat="39.988191000" lon="-8.445013000">
        <ele>214.600000</ele>
        <time>2020-10-17T09:23:13Z</time>
      </trkpt>
      <trkpt lat="39.988170000" lon="-8.445041000">
        <ele>214.600000</ele>
        <time>2020-10-17T09:23:14Z</time>
      </trkpt>
      <trkpt lat="39.988147000" lon="-8.445072000">
        <ele>214.800000</ele>
        <time>2020-10-17T09:23:15Z</time>
      </trkpt>
      <trkpt lat="39.988114000" lon="-8.445107000">
        <ele>214.800000</ele>
        <time>2020-10-17T09:23:16Z</time>
      </trkpt>
      <trkpt lat="39.988078000" lon="-8.445135000">
        <ele>214.800000</ele>
        <time>2020-10-17T09:23:17Z</time>
      </trkpt>
      <trkpt lat="39.988044000" lon="-8.445162000">
        <ele>215.000000</ele>
        <time>2020-10-17T09:23:18Z</time>
      </trkpt>
      <trkpt lat="39.988012000" lon="-8.445182000">
        <ele>214.800000</ele>
        <time>2020-10-17T09:23:19Z</time>
      </trkpt>
      <trkpt lat="39.987978000" lon="-8.445205000">
        <ele>214.800000</ele>
        <time>2020-10-17T09:23:20Z</time>
      </trkpt>
      <trkpt lat="39.987943000" lon="-8.445227000">
        <ele>214.800000</ele>
        <time>2020-10-17T09:23:21Z</time>
      </trkpt>
      <trkpt lat="39.987902000" lon="-8.445249000">
        <ele>214.800000</ele>
        <time>2020-10-17T09:23:22Z</time>
      </trkpt>
      <trkpt lat="39.987803000" lon="-8.445311000">
        <ele>214.600000</ele>
        <time>2020-10-17T09:23:24Z</time>
      </trkpt>
      <trkpt lat="39.987745000" lon="-8.445353000">
        <ele>214.600000</ele>
        <time>2020-10-17T09:23:25Z</time>
      </trkpt>
      <trkpt lat="39.987698000" lon="-8.445399000">
        <ele>214.400000</ele>
        <time>2020-10-17T09:23:26Z</time>
      </trkpt>
      <trkpt lat="39.987628000" lon="-8.445499000">
        <ele>214.000000</ele>
        <time>2020-10-17T09:23:28Z</time>
      </trkpt>
      <trkpt lat="39.987591000" lon="-8.445552000">
        <ele>213.600000</ele>
        <time>2020-10-17T09:23:29Z</time>
      </trkpt>
      <trkpt lat="39.987556000" lon="-8.445597000">
        <ele>213.200000</ele>
        <time>2020-10-17T09:23:30Z</time>
      </trkpt>
      <trkpt lat="39.987522000" lon="-8.445648000">
        <ele>212.600000</ele>
        <time>2020-10-17T09:23:31Z</time>
      </trkpt>
      <trkpt lat="39.987494000" lon="-8.445701000">
        <ele>211.600000</ele>
        <time>2020-10-17T09:23:32Z</time>
      </trkpt>
      <trkpt lat="39.987472000" lon="-8.445755000">
        <ele>210.800000</ele>
        <time>2020-10-17T09:23:33Z</time>
      </trkpt>
      <trkpt lat="39.987447000" lon="-8.445814000">
        <ele>210.000000</ele>
        <time>2020-10-17T09:23:34Z</time>
      </trkpt>
      <trkpt lat="39.987396000" lon="-8.445932000">
        <ele>209.200000</ele>
        <time>2020-10-17T09:23:36Z</time>
      </trkpt>
      <trkpt lat="39.987367000" lon="-8.445978000">
        <ele>209.200000</ele>
        <time>2020-10-17T09:23:37Z</time>
      </trkpt>
      <trkpt lat="39.987340000" lon="-8.446015000">
        <ele>209.200000</ele>
        <time>2020-10-17T09:23:38Z</time>
      </trkpt>
      <trkpt lat="39.987315000" lon="-8.446045000">
        <ele>209.200000</ele>
        <time>2020-10-17T09:23:39Z</time>
      </trkpt>
      <trkpt lat="39.987292000" lon="-8.446069000">
        <ele>209.000000</ele>
        <time>2020-10-17T09:23:40Z</time>
      </trkpt>
      <trkpt lat="39.987260000" lon="-8.446100000">
        <ele>209.200000</ele>
        <time>2020-10-17T09:23:41Z</time>
      </trkpt>
      <trkpt lat="39.987232000" lon="-8.446121000">
        <ele>209.200000</ele>
        <time>2020-10-17T09:23:42Z</time>
      </trkpt>
      <trkpt lat="39.987214000" lon="-8.446136000">
        <ele>209.200000</ele>
        <time>2020-10-17T09:23:43Z</time>
      </trkpt>
      <trkpt lat="39.987195000" lon="-8.446154000">
        <ele>209.000000</ele>
        <time>2020-10-17T09:23:44Z</time>
      </trkpt>
      <trkpt lat="39.987178000" lon="-8.446170000">
        <ele>209.200000</ele>
        <time>2020-10-17T09:23:45Z</time>
      </trkpt>
      <trkpt lat="39.987156000" lon="-8.446181000">
        <ele>209.400000</ele>
        <time>2020-10-17T09:23:46Z</time>
      </trkpt>
      <trkpt lat="39.987132000" lon="-8.446185000">
        <ele>209.400000</ele>
        <time>2020-10-17T09:23:47Z</time>
      </trkpt>
      <trkpt lat="39.987107000" lon="-8.446194000">
        <ele>209.600000</ele>
        <time>2020-10-17T09:23:48Z</time>
      </trkpt>
      <trkpt lat="39.987035000" lon="-8.446220000">
        <ele>210.000000</ele>
        <time>2020-10-17T09:23:50Z</time>
      </trkpt>
      <trkpt lat="39.986739000" lon="-8.446265000">
        <ele>211.400000</ele>
        <time>2020-10-17T09:23:56Z</time>
      </trkpt>
      <trkpt lat="39.986680000" lon="-8.446286000">
        <ele>211.400000</ele>
        <time>2020-10-17T09:23:57Z</time>
      </trkpt>
      <trkpt lat="39.986636000" lon="-8.446298000">
        <ele>211.600000</ele>
        <time>2020-10-17T09:23:58Z</time>
      </trkpt>
      <trkpt lat="39.986598000" lon="-8.446304000">
        <ele>211.600000</ele>
        <time>2020-10-17T09:23:59Z</time>
      </trkpt>
      <trkpt lat="39.986556000" lon="-8.446331000">
        <ele>211.400000</ele>
        <time>2020-10-17T09:24:00Z</time>
      </trkpt>
      <trkpt lat="39.986442000" lon="-8.446394000">
        <ele>211.400000</ele>
        <time>2020-10-17T09:24:02Z</time>
      </trkpt>
      <trkpt lat="39.986340000" lon="-8.446412000">
        <ele>211.400000</ele>
        <time>2020-10-17T09:24:04Z</time>
      </trkpt>
      <trkpt lat="39.986305000" lon="-8.446405000">
        <ele>211.400000</ele>
        <time>2020-10-17T09:24:05Z</time>
      </trkpt>
      <trkpt lat="39.986260000" lon="-8.446401000">
        <ele>211.400000</ele>
        <time>2020-10-17T09:24:06Z</time>
      </trkpt>
      <trkpt lat="39.986159000" lon="-8.446389000">
        <ele>210.600000</ele>
        <time>2020-10-17T09:24:08Z</time>
      </trkpt>
      <trkpt lat="39.986123000" lon="-8.446381000">
        <ele>210.400000</ele>
        <time>2020-10-17T09:24:09Z</time>
      </trkpt>
      <trkpt lat="39.986099000" lon="-8.446378000">
        <ele>210.200000</ele>
        <time>2020-10-17T09:24:10Z</time>
      </trkpt>
      <trkpt lat="39.986083000" lon="-8.446379000">
        <ele>210.000000</ele>
        <time>2020-10-17T09:24:11Z</time>
      </trkpt>
      <trkpt lat="39.986073000" lon="-8.446377000">
        <ele>210.000000</ele>
        <time>2020-10-17T09:24:12Z</time>
      </trkpt>
      <trkpt lat="39.986075000" lon="-8.446378000">
        <ele>209.800000</ele>
        <time>2020-10-17T09:24:13Z</time>
      </trkpt>
      <trkpt lat="39.986083000" lon="-8.446388000">
        <ele>210.000000</ele>
        <time>2020-10-17T09:24:14Z</time>
      </trkpt>
      <trkpt lat="39.986088000" lon="-8.446394000">
        <ele>210.000000</ele>
        <time>2020-10-17T09:24:15Z</time>
      </trkpt>
      <trkpt lat="39.986102000" lon="-8.446393000">
        <ele>210.000000</ele>
        <time>2020-10-17T09:24:16Z</time>
      </trkpt>
      <trkpt lat="39.986091000" lon="-8.446422000">
        <ele>210.000000</ele>
        <time>2020-10-17T09:24:18Z</time>
      </trkpt>
      <trkpt lat="39.986093000" lon="-8.446443000">
        <ele>210.000000</ele>
        <time>2020-10-17T09:24:19Z</time>
      </trkpt>
      <trkpt lat="39.986099000" lon="-8.446466000">
        <ele>209.800000</ele>
        <time>2020-10-17T09:24:20Z</time>
      </trkpt>
      <trkpt lat="39.986096000" lon="-8.446505000">
        <ele>210.000000</ele>
        <time>2020-10-17T09:24:21Z</time>
      </trkpt>
      <trkpt lat="39.986089000" lon="-8.446536000">
        <ele>210.000000</ele>
        <time>2020-10-17T09:24:22Z</time>
      </trkpt>
      <trkpt lat="39.986079000" lon="-8.446583000">
        <ele>210.000000</ele>
        <time>2020-10-17T09:24:23Z</time>
      </trkpt>
      <trkpt lat="39.986066000" lon="-8.446655000">
        <ele>210.000000</ele>
        <time>2020-10-17T09:24:24Z</time>
      </trkpt>
      <trkpt lat="39.986041000" lon="-8.446708000">
        <ele>210.000000</ele>
        <time>2020-10-17T09:24:25Z</time>
      </trkpt>
      <trkpt lat="39.985997000" lon="-8.446899000">
        <ele>210.200000</ele>
        <time>2020-10-17T09:24:29Z</time>
      </trkpt>
      <trkpt lat="39.985985000" lon="-8.446985000">
        <ele>210.200000</ele>
        <time>2020-10-17T09:24:31Z</time>
      </trkpt>
      <trkpt lat="39.985960000" lon="-8.447126000">
        <ele>210.600000</ele>
        <time>2020-10-17T09:24:34Z</time>
      </trkpt>
      <trkpt lat="39.985945000" lon="-8.447224000">
        <ele>210.400000</ele>
        <time>2020-10-17T09:24:36Z</time>
      </trkpt>
      <trkpt lat="39.985938000" lon="-8.447269000">
        <ele>210.600000</ele>
        <time>2020-10-17T09:24:37Z</time>
      </trkpt>
      <trkpt lat="39.985926000" lon="-8.447311000">
        <ele>210.600000</ele>
        <time>2020-10-17T09:24:38Z</time>
      </trkpt>
      <trkpt lat="39.985905000" lon="-8.447346000">
        <ele>211.000000</ele>
        <time>2020-10-17T09:24:39Z</time>
      </trkpt>
      <trkpt lat="39.985875000" lon="-8.447375000">
        <ele>211.000000</ele>
        <time>2020-10-17T09:24:40Z</time>
      </trkpt>
      <trkpt lat="39.985804000" lon="-8.447419000">
        <ele>211.200000</ele>
        <time>2020-10-17T09:24:42Z</time>
      </trkpt>
      <trkpt lat="39.985766000" lon="-8.447438000">
        <ele>211.400000</ele>
        <time>2020-10-17T09:24:43Z</time>
      </trkpt>
      <trkpt lat="39.985694000" lon="-8.447479000">
        <ele>211.600000</ele>
        <time>2020-10-17T09:24:45Z</time>
      </trkpt>
      <trkpt lat="39.985666000" lon="-8.447496000">
        <ele>211.600000</ele>
        <time>2020-10-17T09:24:46Z</time>
      </trkpt>
      <trkpt lat="39.985644000" lon="-8.447513000">
        <ele>211.800000</ele>
        <time>2020-10-17T09:24:47Z</time>
      </trkpt>
      <trkpt lat="39.985625000" lon="-8.447531000">
        <ele>211.800000</ele>
        <time>2020-10-17T09:24:48Z</time>
      </trkpt>
      <trkpt lat="39.985606000" lon="-8.447547000">
        <ele>211.800000</ele>
        <time>2020-10-17T09:24:49Z</time>
      </trkpt>
      <trkpt lat="39.985588000" lon="-8.447562000">
        <ele>212.200000</ele>
        <time>2020-10-17T09:24:50Z</time>
      </trkpt>
      <trkpt lat="39.985571000" lon="-8.447577000">
        <ele>212.200000</ele>
        <time>2020-10-17T09:24:51Z</time>
      </trkpt>
      <trkpt lat="39.985555000" lon="-8.447592000">
        <ele>212.200000</ele>
        <time>2020-10-17T09:24:52Z</time>
      </trkpt>
      <trkpt lat="39.985539000" lon="-8.447606000">
        <ele>212.400000</ele>
        <time>2020-10-17T09:24:53Z</time>
      </trkpt>
      <trkpt lat="39.985522000" lon="-8.447623000">
        <ele>212.400000</ele>
        <time>2020-10-17T09:24:54Z</time>
      </trkpt>
      <trkpt lat="39.985503000" lon="-8.447643000">
        <ele>213.000000</ele>
        <time>2020-10-17T09:24:55Z</time>
      </trkpt>
      <trkpt lat="39.985481000" lon="-8.447667000">
        <ele>213.200000</ele>
        <time>2020-10-17T09:24:56Z</time>
      </trkpt>
      <trkpt lat="39.985460000" lon="-8.447691000">
        <ele>213.600000</ele>
        <time>2020-10-17T09:24:57Z</time>
      </trkpt>
      <trkpt lat="39.985437000" lon="-8.447715000">
        <ele>213.600000</ele>
        <time>2020-10-17T09:24:58Z</time>
      </trkpt>
      <trkpt lat="39.985410000" lon="-8.447738000">
        <ele>213.800000</ele>
        <time>2020-10-17T09:24:59Z</time>
      </trkpt>
      <trkpt lat="39.985381000" lon="-8.447757000">
        <ele>214.400000</ele>
        <time>2020-10-17T09:25:00Z</time>
      </trkpt>
      <trkpt lat="39.985347000" lon="-8.447777000">
        <ele>214.400000</ele>
        <time>2020-10-17T09:25:01Z</time>
      </trkpt>
      <trkpt lat="39.985312000" lon="-8.447796000">
        <ele>214.800000</ele>
        <time>2020-10-17T09:25:02Z</time>
      </trkpt>
      <trkpt lat="39.985275000" lon="-8.447814000">
        <ele>215.000000</ele>
        <time>2020-10-17T09:25:03Z</time>
      </trkpt>
      <trkpt lat="39.985238000" lon="-8.447833000">
        <ele>215.200000</ele>
        <time>2020-10-17T09:25:04Z</time>
      </trkpt>
      <trkpt lat="39.985199000" lon="-8.447851000">
        <ele>215.200000</ele>
        <time>2020-10-17T09:25:05Z</time>
      </trkpt>
      <trkpt lat="39.985161000" lon="-8.447865000">
        <ele>215.400000</ele>
        <time>2020-10-17T09:25:06Z</time>
      </trkpt>
      <trkpt lat="39.985120000" lon="-8.447878000">
        <ele>215.400000</ele>
        <time>2020-10-17T09:25:07Z</time>
      </trkpt>
      <trkpt lat="39.985080000" lon="-8.447890000">
        <ele>215.200000</ele>
        <time>2020-10-17T09:25:08Z</time>
      </trkpt>
      <trkpt lat="39.985041000" lon="-8.447907000">
        <ele>215.400000</ele>
        <time>2020-10-17T09:25:09Z</time>
      </trkpt>
      <trkpt lat="39.985008000" lon="-8.447933000">
        <ele>215.400000</ele>
        <time>2020-10-17T09:25:10Z</time>
      </trkpt>
      <trkpt lat="39.984984000" lon="-8.447967000">
        <ele>215.400000</ele>
        <time>2020-10-17T09:25:11Z</time>
      </trkpt>
      <trkpt lat="39.984971000" lon="-8.448007000">
        <ele>215.400000</ele>
        <time>2020-10-17T09:25:12Z</time>
      </trkpt>
      <trkpt lat="39.984966000" lon="-8.448044000">
        <ele>215.400000</ele>
        <time>2020-10-17T09:25:13Z</time>
      </trkpt>
      <trkpt lat="39.984965000" lon="-8.448076000">
        <ele>215.400000</ele>
        <time>2020-10-17T09:25:14Z</time>
      </trkpt>
      <trkpt lat="39.984965000" lon="-8.448102000">
        <ele>215.400000</ele>
        <time>2020-10-17T09:25:15Z</time>
      </trkpt>
      <trkpt lat="39.984964000" lon="-8.448128000">
        <ele>215.600000</ele>
        <time>2020-10-17T09:25:16Z</time>
      </trkpt>
      <trkpt lat="39.984961000" lon="-8.448155000">
        <ele>215.600000</ele>
        <time>2020-10-17T09:25:17Z</time>
      </trkpt>
      <trkpt lat="39.984956000" lon="-8.448181000">
        <ele>215.600000</ele>
        <time>2020-10-17T09:25:18Z</time>
      </trkpt>
      <trkpt lat="39.984952000" lon="-8.448207000">
        <ele>215.800000</ele>
        <time>2020-10-17T09:25:19Z</time>
      </trkpt>
      <trkpt lat="39.984948000" lon="-8.448233000">
        <ele>216.000000</ele>
        <time>2020-10-17T09:25:20Z</time>
      </trkpt>
      <trkpt lat="39.984943000" lon="-8.448257000">
        <ele>216.200000</ele>
        <time>2020-10-17T09:25:21Z</time>
      </trkpt>
      <trkpt lat="39.984938000" lon="-8.448281000">
        <ele>216.600000</ele>
        <time>2020-10-17T09:25:22Z</time>
      </trkpt>
      <trkpt lat="39.984932000" lon="-8.448304000">
        <ele>216.800000</ele>
        <time>2020-10-17T09:25:23Z</time>
      </trkpt>
      <trkpt lat="39.984925000" lon="-8.448328000">
        <ele>217.000000</ele>
        <time>2020-10-17T09:25:24Z</time>
      </trkpt>
      <trkpt lat="39.984918000" lon="-8.448351000">
        <ele>217.600000</ele>
        <time>2020-10-17T09:25:25Z</time>
      </trkpt>
      <trkpt lat="39.984910000" lon="-8.448372000">
        <ele>218.000000</ele>
        <time>2020-10-17T09:25:26Z</time>
      </trkpt>
      <trkpt lat="39.984901000" lon="-8.448394000">
        <ele>218.200000</ele>
        <time>2020-10-17T09:25:27Z</time>
      </trkpt>
      <trkpt lat="39.984890000" lon="-8.448414000">
        <ele>218.200000</ele>
        <time>2020-10-17T09:25:28Z</time>
      </trkpt>
      <trkpt lat="39.984878000" lon="-8.448432000">
        <ele>218.600000</ele>
        <time>2020-10-17T09:25:29Z</time>
      </trkpt>
      <trkpt lat="39.984866000" lon="-8.448451000">
        <ele>219.000000</ele>
        <time>2020-10-17T09:25:30Z</time>
      </trkpt>
      <trkpt lat="39.984857000" lon="-8.448472000">
        <ele>219.200000</ele>
        <time>2020-10-17T09:25:31Z</time>
      </trkpt>
      <trkpt lat="39.984848000" lon="-8.448493000">
        <ele>219.800000</ele>
        <time>2020-10-17T09:25:32Z</time>
      </trkpt>
      <trkpt lat="39.984838000" lon="-8.448513000">
        <ele>220.200000</ele>
        <time>2020-10-17T09:25:33Z</time>
      </trkpt>
      <trkpt lat="39.984828000" lon="-8.448533000">
        <ele>220.400000</ele>
        <time>2020-10-17T09:25:34Z</time>
      </trkpt>
      <trkpt lat="39.984817000" lon="-8.448551000">
        <ele>220.600000</ele>
        <time>2020-10-17T09:25:35Z</time>
      </trkpt>
      <trkpt lat="39.984806000" lon="-8.448569000">
        <ele>221.000000</ele>
        <time>2020-10-17T09:25:36Z</time>
      </trkpt>
      <trkpt lat="39.984795000" lon="-8.448587000">
        <ele>221.400000</ele>
        <time>2020-10-17T09:25:37Z</time>
      </trkpt>
      <trkpt lat="39.984783000" lon="-8.448605000">
        <ele>221.800000</ele>
        <time>2020-10-17T09:25:38Z</time>
      </trkpt>
      <trkpt lat="39.984772000" lon="-8.448623000">
        <ele>222.200000</ele>
        <time>2020-10-17T09:25:39Z</time>
      </trkpt>
      <trkpt lat="39.984760000" lon="-8.448642000">
        <ele>222.400000</ele>
        <time>2020-10-17T09:25:40Z</time>
      </trkpt>
      <trkpt lat="39.984746000" lon="-8.448659000">
        <ele>222.800000</ele>
        <time>2020-10-17T09:25:41Z</time>
      </trkpt>
      <trkpt lat="39.984730000" lon="-8.448673000">
        <ele>223.000000</ele>
        <time>2020-10-17T09:25:42Z</time>
      </trkpt>
      <trkpt lat="39.984713000" lon="-8.448686000">
        <ele>223.200000</ele>
        <time>2020-10-17T09:25:43Z</time>
      </trkpt>
      <trkpt lat="39.984696000" lon="-8.448699000">
        <ele>223.600000</ele>
        <time>2020-10-17T09:25:44Z</time>
      </trkpt>
      <trkpt lat="39.984679000" lon="-8.448712000">
        <ele>223.800000</ele>
        <time>2020-10-17T09:25:45Z</time>
      </trkpt>
      <trkpt lat="39.984663000" lon="-8.448723000">
        <ele>224.000000</ele>
        <time>2020-10-17T09:25:46Z</time>
      </trkpt>
      <trkpt lat="39.984645000" lon="-8.448735000">
        <ele>224.200000</ele>
        <time>2020-10-17T09:25:47Z</time>
      </trkpt>
      <trkpt lat="39.984628000" lon="-8.448747000">
        <ele>224.800000</ele>
        <time>2020-10-17T09:25:48Z</time>
      </trkpt>
      <trkpt lat="39.984611000" lon="-8.448759000">
        <ele>225.000000</ele>
        <time>2020-10-17T09:25:49Z</time>
      </trkpt>
      <trkpt lat="39.984595000" lon="-8.448772000">
        <ele>225.000000</ele>
        <time>2020-10-17T09:25:50Z</time>
      </trkpt>
      <trkpt lat="39.984579000" lon="-8.448785000">
        <ele>225.200000</ele>
        <time>2020-10-17T09:25:51Z</time>
      </trkpt>
      <trkpt lat="39.984562000" lon="-8.448796000">
        <ele>225.400000</ele>
        <time>2020-10-17T09:25:52Z</time>
      </trkpt>
      <trkpt lat="39.984543000" lon="-8.448804000">
        <ele>225.800000</ele>
        <time>2020-10-17T09:25:53Z</time>
      </trkpt>
      <trkpt lat="39.984525000" lon="-8.448809000">
        <ele>225.800000</ele>
        <time>2020-10-17T09:25:54Z</time>
      </trkpt>
      <trkpt lat="39.984505000" lon="-8.448815000">
        <ele>226.200000</ele>
        <time>2020-10-17T09:25:55Z</time>
      </trkpt>
      <trkpt lat="39.984487000" lon="-8.448823000">
        <ele>226.200000</ele>
        <time>2020-10-17T09:25:56Z</time>
      </trkpt>
      <trkpt lat="39.984469000" lon="-8.448833000">
        <ele>226.400000</ele>
        <time>2020-10-17T09:25:57Z</time>
      </trkpt>
      <trkpt lat="39.984450000" lon="-8.448844000">
        <ele>226.600000</ele>
        <time>2020-10-17T09:25:58Z</time>
      </trkpt>
      <trkpt lat="39.984432000" lon="-8.448854000">
        <ele>226.800000</ele>
        <time>2020-10-17T09:25:59Z</time>
      </trkpt>
      <trkpt lat="39.984415000" lon="-8.448862000">
        <ele>227.000000</ele>
        <time>2020-10-17T09:26:00Z</time>
      </trkpt>
      <trkpt lat="39.984397000" lon="-8.448869000">
        <ele>227.000000</ele>
        <time>2020-10-17T09:26:01Z</time>
      </trkpt>
      <trkpt lat="39.984379000" lon="-8.448877000">
        <ele>227.200000</ele>
        <time>2020-10-17T09:26:02Z</time>
      </trkpt>
      <trkpt lat="39.984362000" lon="-8.448886000">
        <ele>227.400000</ele>
        <time>2020-10-17T09:26:03Z</time>
      </trkpt>
      <trkpt lat="39.984345000" lon="-8.448897000">
        <ele>227.600000</ele>
        <time>2020-10-17T09:26:04Z</time>
      </trkpt>
      <trkpt lat="39.984328000" lon="-8.448906000">
        <ele>227.800000</ele>
        <time>2020-10-17T09:26:05Z</time>
      </trkpt>
      <trkpt lat="39.984312000" lon="-8.448913000">
        <ele>228.000000</ele>
        <time>2020-10-17T09:26:06Z</time>
      </trkpt>
      <trkpt lat="39.984296000" lon="-8.448919000">
        <ele>228.000000</ele>
        <time>2020-10-17T09:26:07Z</time>
      </trkpt>
      <trkpt lat="39.984280000" lon="-8.448925000">
        <ele>228.200000</ele>
        <time>2020-10-17T09:26:08Z</time>
      </trkpt>
      <trkpt lat="39.984264000" lon="-8.448930000">
        <ele>228.400000</ele>
        <time>2020-10-17T09:26:09Z</time>
      </trkpt>
      <trkpt lat="39.984248000" lon="-8.448936000">
        <ele>228.600000</ele>
        <time>2020-10-17T09:26:10Z</time>
      </trkpt>
      <trkpt lat="39.984230000" lon="-8.448942000">
        <ele>228.600000</ele>
        <time>2020-10-17T09:26:11Z</time>
      </trkpt>
      <trkpt lat="39.984212000" lon="-8.448948000">
        <ele>228.800000</ele>
        <time>2020-10-17T09:26:12Z</time>
      </trkpt>
      <trkpt lat="39.984195000" lon="-8.448952000">
        <ele>229.000000</ele>
        <time>2020-10-17T09:26:13Z</time>
      </trkpt>
      <trkpt lat="39.984179000" lon="-8.448959000">
        <ele>229.400000</ele>
        <time>2020-10-17T09:26:14Z</time>
      </trkpt>
      <trkpt lat="39.984162000" lon="-8.448964000">
        <ele>229.400000</ele>
        <time>2020-10-17T09:26:15Z</time>
      </trkpt>
      <trkpt lat="39.984144000" lon="-8.448968000">
        <ele>229.800000</ele>
        <time>2020-10-17T09:26:16Z</time>
      </trkpt>
      <trkpt lat="39.984126000" lon="-8.448973000">
        <ele>229.800000</ele>
        <time>2020-10-17T09:26:17Z</time>
      </trkpt>
      <trkpt lat="39.984108000" lon="-8.448977000">
        <ele>230.000000</ele>
        <time>2020-10-17T09:26:18Z</time>
      </trkpt>
      <trkpt lat="39.984092000" lon="-8.448982000">
        <ele>230.200000</ele>
        <time>2020-10-17T09:26:19Z</time>
      </trkpt>
      <trkpt lat="39.984077000" lon="-8.448988000">
        <ele>230.400000</ele>
        <time>2020-10-17T09:26:20Z</time>
      </trkpt>
      <trkpt lat="39.984062000" lon="-8.448996000">
        <ele>230.600000</ele>
        <time>2020-10-17T09:26:21Z</time>
      </trkpt>
      <trkpt lat="39.984047000" lon="-8.449002000">
        <ele>230.800000</ele>
        <time>2020-10-17T09:26:22Z</time>
      </trkpt>
      <trkpt lat="39.984030000" lon="-8.449012000">
        <ele>231.000000</ele>
        <time>2020-10-17T09:26:23Z</time>
      </trkpt>
      <trkpt lat="39.984015000" lon="-8.449022000">
        <ele>231.400000</ele>
        <time>2020-10-17T09:26:24Z</time>
      </trkpt>
      <trkpt lat="39.984002000" lon="-8.449032000">
        <ele>231.600000</ele>
        <time>2020-10-17T09:26:25Z</time>
      </trkpt>
      <trkpt lat="39.983990000" lon="-8.449044000">
        <ele>232.000000</ele>
        <time>2020-10-17T09:26:26Z</time>
      </trkpt>
      <trkpt lat="39.983978000" lon="-8.449055000">
        <ele>232.200000</ele>
        <time>2020-10-17T09:26:27Z</time>
      </trkpt>
      <trkpt lat="39.983968000" lon="-8.449067000">
        <ele>232.400000</ele>
        <time>2020-10-17T09:26:28Z</time>
      </trkpt>
      <trkpt lat="39.983956000" lon="-8.449082000">
        <ele>232.400000</ele>
        <time>2020-10-17T09:26:29Z</time>
      </trkpt>
      <trkpt lat="39.983947000" lon="-8.449098000">
        <ele>233.000000</ele>
        <time>2020-10-17T09:26:30Z</time>
      </trkpt>
      <trkpt lat="39.983939000" lon="-8.449115000">
        <ele>233.200000</ele>
        <time>2020-10-17T09:26:31Z</time>
      </trkpt>
      <trkpt lat="39.983933000" lon="-8.449134000">
        <ele>233.200000</ele>
        <time>2020-10-17T09:26:32Z</time>
      </trkpt>
      <trkpt lat="39.983927000" lon="-8.449153000">
        <ele>233.600000</ele>
        <time>2020-10-17T09:26:33Z</time>
      </trkpt>
      <trkpt lat="39.983922000" lon="-8.449174000">
        <ele>233.800000</ele>
        <time>2020-10-17T09:26:34Z</time>
      </trkpt>
      <trkpt lat="39.983916000" lon="-8.449198000">
        <ele>234.000000</ele>
        <time>2020-10-17T09:26:35Z</time>
      </trkpt>
      <trkpt lat="39.983910000" lon="-8.449222000">
        <ele>234.400000</ele>
        <time>2020-10-17T09:26:36Z</time>
      </trkpt>
      <trkpt lat="39.983905000" lon="-8.449246000">
        <ele>234.800000</ele>
        <time>2020-10-17T09:26:37Z</time>
      </trkpt>
      <trkpt lat="39.983900000" lon="-8.449270000">
        <ele>235.000000</ele>
        <time>2020-10-17T09:26:38Z</time>
      </trkpt>
      <trkpt lat="39.983894000" lon="-8.449294000">
        <ele>235.200000</ele>
        <time>2020-10-17T09:26:39Z</time>
      </trkpt>
      <trkpt lat="39.983890000" lon="-8.449318000">
        <ele>235.600000</ele>
        <time>2020-10-17T09:26:40Z</time>
      </trkpt>
      <trkpt lat="39.983887000" lon="-8.449344000">
        <ele>235.800000</ele>
        <time>2020-10-17T09:26:41Z</time>
      </trkpt>
      <trkpt lat="39.983883000" lon="-8.449371000">
        <ele>236.200000</ele>
        <time>2020-10-17T09:26:42Z</time>
      </trkpt>
      <trkpt lat="39.983879000" lon="-8.449398000">
        <ele>236.400000</ele>
        <time>2020-10-17T09:26:43Z</time>
      </trkpt>
      <trkpt lat="39.983877000" lon="-8.449427000">
        <ele>236.600000</ele>
        <time>2020-10-17T09:26:44Z</time>
      </trkpt>
      <trkpt lat="39.983874000" lon="-8.449458000">
        <ele>236.800000</ele>
        <time>2020-10-17T09:26:45Z</time>
      </trkpt>
      <trkpt lat="39.983873000" lon="-8.449490000">
        <ele>237.000000</ele>
        <time>2020-10-17T09:26:46Z</time>
      </trkpt>
      <trkpt lat="39.983871000" lon="-8.449521000">
        <ele>237.000000</ele>
        <time>2020-10-17T09:26:47Z</time>
      </trkpt>
      <trkpt lat="39.983869000" lon="-8.449552000">
        <ele>237.200000</ele>
        <time>2020-10-17T09:26:48Z</time>
      </trkpt>
      <trkpt lat="39.983866000" lon="-8.449582000">
        <ele>237.400000</ele>
        <time>2020-10-17T09:26:49Z</time>
      </trkpt>
      <trkpt lat="39.983864000" lon="-8.449610000">
        <ele>237.600000</ele>
        <time>2020-10-17T09:26:50Z</time>
      </trkpt>
      <trkpt lat="39.983863000" lon="-8.449639000">
        <ele>237.600000</ele>
        <time>2020-10-17T09:26:51Z</time>
      </trkpt>
      <trkpt lat="39.983864000" lon="-8.449669000">
        <ele>237.800000</ele>
        <time>2020-10-17T09:26:52Z</time>
      </trkpt>
      <trkpt lat="39.983861000" lon="-8.449699000">
        <ele>237.800000</ele>
        <time>2020-10-17T09:26:53Z</time>
      </trkpt>
      <trkpt lat="39.983858000" lon="-8.449727000">
        <ele>237.800000</ele>
        <time>2020-10-17T09:26:54Z</time>
      </trkpt>
      <trkpt lat="39.983856000" lon="-8.449755000">
        <ele>237.800000</ele>
        <time>2020-10-17T09:26:55Z</time>
      </trkpt>
      <trkpt lat="39.983855000" lon="-8.449784000">
        <ele>238.000000</ele>
        <time>2020-10-17T09:26:56Z</time>
      </trkpt>
      <trkpt lat="39.983855000" lon="-8.449812000">
        <ele>238.200000</ele>
        <time>2020-10-17T09:26:57Z</time>
      </trkpt>
      <trkpt lat="39.983855000" lon="-8.449840000">
        <ele>238.400000</ele>
        <time>2020-10-17T09:26:58Z</time>
      </trkpt>
      <trkpt lat="39.983857000" lon="-8.449867000">
        <ele>238.600000</ele>
        <time>2020-10-17T09:26:59Z</time>
      </trkpt>
      <trkpt lat="39.983857000" lon="-8.449893000">
        <ele>238.600000</ele>
        <time>2020-10-17T09:27:00Z</time>
      </trkpt>
      <trkpt lat="39.983857000" lon="-8.449920000">
        <ele>238.800000</ele>
        <time>2020-10-17T09:27:01Z</time>
      </trkpt>
      <trkpt lat="39.983856000" lon="-8.449948000">
        <ele>238.800000</ele>
        <time>2020-10-17T09:27:02Z</time>
      </trkpt>
      <trkpt lat="39.983855000" lon="-8.449978000">
        <ele>239.000000</ele>
        <time>2020-10-17T09:27:03Z</time>
      </trkpt>
      <trkpt lat="39.983856000" lon="-8.450005000">
        <ele>239.200000</ele>
        <time>2020-10-17T09:27:04Z</time>
      </trkpt>
      <trkpt lat="39.983858000" lon="-8.450032000">
        <ele>239.800000</ele>
        <time>2020-10-17T09:27:05Z</time>
      </trkpt>
      <trkpt lat="39.983860000" lon="-8.450060000">
        <ele>240.000000</ele>
        <time>2020-10-17T09:27:06Z</time>
      </trkpt>
      <trkpt lat="39.983860000" lon="-8.450088000">
        <ele>240.200000</ele>
        <time>2020-10-17T09:27:07Z</time>
      </trkpt>
      <trkpt lat="39.983861000" lon="-8.450115000">
        <ele>240.600000</ele>
        <time>2020-10-17T09:27:08Z</time>
      </trkpt>
      <trkpt lat="39.983863000" lon="-8.450142000">
        <ele>240.800000</ele>
        <time>2020-10-17T09:27:09Z</time>
      </trkpt>
      <trkpt lat="39.983864000" lon="-8.450170000">
        <ele>241.000000</ele>
        <time>2020-10-17T09:27:10Z</time>
      </trkpt>
      <trkpt lat="39.983865000" lon="-8.450199000">
        <ele>241.200000</ele>
        <time>2020-10-17T09:27:11Z</time>
      </trkpt>
      <trkpt lat="39.983866000" lon="-8.450227000">
        <ele>241.400000</ele>
        <time>2020-10-17T09:27:12Z</time>
      </trkpt>
      <trkpt lat="39.983867000" lon="-8.450255000">
        <ele>241.600000</ele>
        <time>2020-10-17T09:27:13Z</time>
      </trkpt>
      <trkpt lat="39.983867000" lon="-8.450285000">
        <ele>241.800000</ele>
        <time>2020-10-17T09:27:14Z</time>
      </trkpt>
      <trkpt lat="39.983868000" lon="-8.450315000">
        <ele>241.800000</ele>
        <time>2020-10-17T09:27:15Z</time>
      </trkpt>
      <trkpt lat="39.983873000" lon="-8.450346000">
        <ele>242.000000</ele>
        <time>2020-10-17T09:27:16Z</time>
      </trkpt>
      <trkpt lat="39.983874000" lon="-8.450375000">
        <ele>242.000000</ele>
        <time>2020-10-17T09:27:17Z</time>
      </trkpt>
      <trkpt lat="39.983875000" lon="-8.450408000">
        <ele>242.200000</ele>
        <time>2020-10-17T09:27:18Z</time>
      </trkpt>
      <trkpt lat="39.983875000" lon="-8.450445000">
        <ele>242.200000</ele>
        <time>2020-10-17T09:27:19Z</time>
      </trkpt>
      <trkpt lat="39.983876000" lon="-8.450479000">
        <ele>242.400000</ele>
        <time>2020-10-17T09:27:20Z</time>
      </trkpt>
      <trkpt lat="39.983879000" lon="-8.450510000">
        <ele>242.600000</ele>
        <time>2020-10-17T09:27:21Z</time>
      </trkpt>
      <trkpt lat="39.983880000" lon="-8.450541000">
        <ele>242.800000</ele>
        <time>2020-10-17T09:27:22Z</time>
      </trkpt>
      <trkpt lat="39.983881000" lon="-8.450572000">
        <ele>243.200000</ele>
        <time>2020-10-17T09:27:23Z</time>
      </trkpt>
      <trkpt lat="39.983878000" lon="-8.450604000">
        <ele>243.200000</ele>
        <time>2020-10-17T09:27:24Z</time>
      </trkpt>
      <trkpt lat="39.983876000" lon="-8.450639000">
        <ele>243.600000</ele>
        <time>2020-10-17T09:27:25Z</time>
      </trkpt>
      <trkpt lat="39.983870000" lon="-8.450677000">
        <ele>243.600000</ele>
        <time>2020-10-17T09:27:26Z</time>
      </trkpt>
      <trkpt lat="39.983865000" lon="-8.450712000">
        <ele>243.800000</ele>
        <time>2020-10-17T09:27:27Z</time>
      </trkpt>
      <trkpt lat="39.983858000" lon="-8.450748000">
        <ele>244.000000</ele>
        <time>2020-10-17T09:27:28Z</time>
      </trkpt>
      <trkpt lat="39.983843000" lon="-8.450784000">
        <ele>244.200000</ele>
        <time>2020-10-17T09:27:29Z</time>
      </trkpt>
      <trkpt lat="39.983817000" lon="-8.450814000">
        <ele>244.200000</ele>
        <time>2020-10-17T09:27:30Z</time>
      </trkpt>
      <trkpt lat="39.983781000" lon="-8.450837000">
        <ele>244.200000</ele>
        <time>2020-10-17T09:27:31Z</time>
      </trkpt>
      <trkpt lat="39.983733000" lon="-8.450858000">
        <ele>244.400000</ele>
        <time>2020-10-17T09:27:32Z</time>
      </trkpt>
      <trkpt lat="39.983677000" lon="-8.450880000">
        <ele>244.400000</ele>
        <time>2020-10-17T09:27:33Z</time>
      </trkpt>
      <trkpt lat="39.983618000" lon="-8.450903000">
        <ele>244.400000</ele>
        <time>2020-10-17T09:27:34Z</time>
      </trkpt>
      <trkpt lat="39.983556000" lon="-8.450929000">
        <ele>244.400000</ele>
        <time>2020-10-17T09:27:35Z</time>
      </trkpt>
      <trkpt lat="39.983491000" lon="-8.450968000">
        <ele>244.400000</ele>
        <time>2020-10-17T09:27:36Z</time>
      </trkpt>
      <trkpt lat="39.983425000" lon="-8.451016000">
        <ele>244.400000</ele>
        <time>2020-10-17T09:27:37Z</time>
      </trkpt>
      <trkpt lat="39.983303000" lon="-8.451134000">
        <ele>244.400000</ele>
        <time>2020-10-17T09:27:39Z</time>
      </trkpt>
      <trkpt lat="39.983245000" lon="-8.451203000">
        <ele>244.400000</ele>
        <time>2020-10-17T09:27:40Z</time>
      </trkpt>
      <trkpt lat="39.983183000" lon="-8.451270000">
        <ele>244.200000</ele>
        <time>2020-10-17T09:27:41Z</time>
      </trkpt>
      <trkpt lat="39.983113000" lon="-8.451339000">
        <ele>243.800000</ele>
        <time>2020-10-17T09:27:42Z</time>
      </trkpt>
      <trkpt lat="39.983040000" lon="-8.451408000">
        <ele>243.200000</ele>
        <time>2020-10-17T09:27:43Z</time>
      </trkpt>
      <trkpt lat="39.982961000" lon="-8.451479000">
        <ele>242.600000</ele>
        <time>2020-10-17T09:27:44Z</time>
      </trkpt>
      <trkpt lat="39.982887000" lon="-8.451550000">
        <ele>242.200000</ele>
        <time>2020-10-17T09:27:45Z</time>
      </trkpt>
      <trkpt lat="39.982814000" lon="-8.451624000">
        <ele>241.600000</ele>
        <time>2020-10-17T09:27:46Z</time>
      </trkpt>
      <trkpt lat="39.982747000" lon="-8.451700000">
        <ele>241.200000</ele>
        <time>2020-10-17T09:27:47Z</time>
      </trkpt>
      <trkpt lat="39.982691000" lon="-8.451786000">
        <ele>240.800000</ele>
        <time>2020-10-17T09:27:48Z</time>
      </trkpt>
      <trkpt lat="39.982645000" lon="-8.451884000">
        <ele>240.400000</ele>
        <time>2020-10-17T09:27:49Z</time>
      </trkpt>
      <trkpt lat="39.982609000" lon="-8.451982000">
        <ele>239.800000</ele>
        <time>2020-10-17T09:27:50Z</time>
      </trkpt>
      <trkpt lat="39.982572000" lon="-8.452075000">
        <ele>239.200000</ele>
        <time>2020-10-17T09:27:51Z</time>
      </trkpt>
      <trkpt lat="39.982528000" lon="-8.452160000">
        <ele>238.200000</ele>
        <time>2020-10-17T09:27:52Z</time>
      </trkpt>
      <trkpt lat="39.982475000" lon="-8.452236000">
        <ele>237.000000</ele>
        <time>2020-10-17T09:27:53Z</time>
      </trkpt>
      <trkpt lat="39.982418000" lon="-8.452297000">
        <ele>235.400000</ele>
        <time>2020-10-17T09:27:54Z</time>
      </trkpt>
      <trkpt lat="39.982360000" lon="-8.452347000">
        <ele>234.200000</ele>
        <time>2020-10-17T09:27:55Z</time>
      </trkpt>
      <trkpt lat="39.982311000" lon="-8.452398000">
        <ele>232.800000</ele>
        <time>2020-10-17T09:27:56Z</time>
      </trkpt>
      <trkpt lat="39.982277000" lon="-8.452453000">
        <ele>232.000000</ele>
        <time>2020-10-17T09:27:57Z</time>
      </trkpt>
      <trkpt lat="39.982251000" lon="-8.452516000">
        <ele>232.000000</ele>
        <time>2020-10-17T09:27:58Z</time>
      </trkpt>
      <trkpt lat="39.982231000" lon="-8.452578000">
        <ele>231.000000</ele>
        <time>2020-10-17T09:27:59Z</time>
      </trkpt>
      <trkpt lat="39.982214000" lon="-8.452637000">
        <ele>230.400000</ele>
        <time>2020-10-17T09:28:00Z</time>
      </trkpt>
      <trkpt lat="39.982201000" lon="-8.452685000">
        <ele>229.800000</ele>
        <time>2020-10-17T09:28:01Z</time>
      </trkpt>
      <trkpt lat="39.982190000" lon="-8.452720000">
        <ele>229.600000</ele>
        <time>2020-10-17T09:28:02Z</time>
      </trkpt>
      <trkpt lat="39.982177000" lon="-8.452749000">
        <ele>229.200000</ele>
        <time>2020-10-17T09:28:03Z</time>
      </trkpt>
      <trkpt lat="39.982162000" lon="-8.452772000">
        <ele>229.400000</ele>
        <time>2020-10-17T09:28:04Z</time>
      </trkpt>
      <trkpt lat="39.982148000" lon="-8.452793000">
        <ele>229.200000</ele>
        <time>2020-10-17T09:28:05Z</time>
      </trkpt>
      <trkpt lat="39.982133000" lon="-8.452810000">
        <ele>229.200000</ele>
        <time>2020-10-17T09:28:06Z</time>
      </trkpt>
      <trkpt lat="39.982121000" lon="-8.452824000">
        <ele>229.200000</ele>
        <time>2020-10-17T09:28:07Z</time>
      </trkpt>
      <trkpt lat="39.982110000" lon="-8.452835000">
        <ele>229.400000</ele>
        <time>2020-10-17T09:28:08Z</time>
      </trkpt>
      <trkpt lat="39.982099000" lon="-8.452844000">
        <ele>229.400000</ele>
        <time>2020-10-17T09:28:09Z</time>
      </trkpt>
      <trkpt lat="39.982088000" lon="-8.452854000">
        <ele>229.400000</ele>
        <time>2020-10-17T09:28:10Z</time>
      </trkpt>
      <trkpt lat="39.982077000" lon="-8.452862000">
        <ele>229.400000</ele>
        <time>2020-10-17T09:28:11Z</time>
      </trkpt>
      <trkpt lat="39.982066000" lon="-8.452870000">
        <ele>229.600000</ele>
        <time>2020-10-17T09:28:12Z</time>
      </trkpt>
      <trkpt lat="39.982054000" lon="-8.452874000">
        <ele>229.800000</ele>
        <time>2020-10-17T09:28:13Z</time>
      </trkpt>
      <trkpt lat="39.982043000" lon="-8.452880000">
        <ele>230.000000</ele>
        <time>2020-10-17T09:28:14Z</time>
      </trkpt>
      <trkpt lat="39.982020000" lon="-8.452895000">
        <ele>230.600000</ele>
        <time>2020-10-17T09:28:16Z</time>
      </trkpt>
      <trkpt lat="39.982009000" lon="-8.452904000">
        <ele>231.200000</ele>
        <time>2020-10-17T09:28:17Z</time>
      </trkpt>
      <trkpt lat="39.982000000" lon="-8.452914000">
        <ele>231.400000</ele>
        <time>2020-10-17T09:28:18Z</time>
      </trkpt>
      <trkpt lat="39.981974000" lon="-8.452932000">
        <ele>231.800000</ele>
        <time>2020-10-17T09:28:20Z</time>
      </trkpt>
      <trkpt lat="39.981960000" lon="-8.452939000">
        <ele>232.000000</ele>
        <time>2020-10-17T09:28:21Z</time>
      </trkpt>
      <trkpt lat="39.981947000" lon="-8.452946000">
        <ele>232.400000</ele>
        <time>2020-10-17T09:28:22Z</time>
      </trkpt>
      <trkpt lat="39.981933000" lon="-8.452955000">
        <ele>232.600000</ele>
        <time>2020-10-17T09:28:23Z</time>
      </trkpt>
      <trkpt lat="39.981918000" lon="-8.452964000">
        <ele>232.800000</ele>
        <time>2020-10-17T09:28:24Z</time>
      </trkpt>
      <trkpt lat="39.981903000" lon="-8.452972000">
        <ele>233.200000</ele>
        <time>2020-10-17T09:28:25Z</time>
      </trkpt>
      <trkpt lat="39.981889000" lon="-8.452977000">
        <ele>233.400000</ele>
        <time>2020-10-17T09:28:26Z</time>
      </trkpt>
      <trkpt lat="39.981874000" lon="-8.452982000">
        <ele>233.800000</ele>
        <time>2020-10-17T09:28:27Z</time>
      </trkpt>
      <trkpt lat="39.981861000" lon="-8.452985000">
        <ele>234.200000</ele>
        <time>2020-10-17T09:28:28Z</time>
      </trkpt>
      <trkpt lat="39.981848000" lon="-8.452987000">
        <ele>234.400000</ele>
        <time>2020-10-17T09:28:29Z</time>
      </trkpt>
      <trkpt lat="39.981836000" lon="-8.452988000">
        <ele>234.600000</ele>
        <time>2020-10-17T09:28:30Z</time>
      </trkpt>
      <trkpt lat="39.981824000" lon="-8.452988000">
        <ele>234.800000</ele>
        <time>2020-10-17T09:28:31Z</time>
      </trkpt>
      <trkpt lat="39.981811000" lon="-8.452987000">
        <ele>235.000000</ele>
        <time>2020-10-17T09:28:32Z</time>
      </trkpt>
      <trkpt lat="39.981800000" lon="-8.452986000">
        <ele>235.200000</ele>
        <time>2020-10-17T09:28:33Z</time>
      </trkpt>
      <trkpt lat="39.981794000" lon="-8.452987000">
        <ele>235.600000</ele>
        <time>2020-10-17T09:28:34Z</time>
      </trkpt>
      <trkpt lat="39.981793000" lon="-8.452986000">
        <ele>235.800000</ele>
        <time>2020-10-17T09:28:35Z</time>
      </trkpt>
      <trkpt lat="39.981790000" lon="-8.452985000">
        <ele>236.200000</ele>
        <time>2020-10-17T09:28:36Z</time>
      </trkpt>
      <trkpt lat="39.981681000" lon="-8.453119000">
        <ele>242.600000</ele>
        <time>2020-10-17T09:30:06Z</time>
      </trkpt>
      <trkpt lat="39.981710000" lon="-8.453210000">
        <ele>242.800000</ele>
        <time>2020-10-17T09:30:11Z</time>
      </trkpt>
      <trkpt lat="39.981721000" lon="-8.453225000">
        <ele>242.800000</ele>
        <time>2020-10-17T09:30:12Z</time>
      </trkpt>
      <trkpt lat="39.981730000" lon="-8.453240000">
        <ele>242.800000</ele>
        <time>2020-10-17T09:30:13Z</time>
      </trkpt>
      <trkpt lat="39.981738000" lon="-8.453258000">
        <ele>242.800000</ele>
        <time>2020-10-17T09:30:14Z</time>
      </trkpt>
      <trkpt lat="39.981746000" lon="-8.453276000">
        <ele>242.800000</ele>
        <time>2020-10-17T09:30:15Z</time>
      </trkpt>
      <trkpt lat="39.981752000" lon="-8.453293000">
        <ele>242.800000</ele>
        <time>2020-10-17T09:30:16Z</time>
      </trkpt>
      <trkpt lat="39.981758000" lon="-8.453308000">
        <ele>242.800000</ele>
        <time>2020-10-17T09:30:17Z</time>
      </trkpt>
      <trkpt lat="39.981771000" lon="-8.453341000">
        <ele>243.200000</ele>
        <time>2020-10-17T09:30:19Z</time>
      </trkpt>
      <trkpt lat="39.981777000" lon="-8.453357000">
        <ele>243.200000</ele>
        <time>2020-10-17T09:30:20Z</time>
      </trkpt>
      <trkpt lat="39.981783000" lon="-8.453373000">
        <ele>243.400000</ele>
        <time>2020-10-17T09:30:21Z</time>
      </trkpt>
      <trkpt lat="39.981789000" lon="-8.453386000">
        <ele>243.800000</ele>
        <time>2020-10-17T09:30:22Z</time>
      </trkpt>
      <trkpt lat="39.981796000" lon="-8.453400000">
        <ele>244.000000</ele>
        <time>2020-10-17T09:30:23Z</time>
      </trkpt>
      <trkpt lat="39.981805000" lon="-8.453414000">
        <ele>244.200000</ele>
        <time>2020-10-17T09:30:24Z</time>
      </trkpt>
      <trkpt lat="39.981815000" lon="-8.453429000">
        <ele>244.400000</ele>
        <time>2020-10-17T09:30:25Z</time>
      </trkpt>
      <trkpt lat="39.981824000" lon="-8.453446000">
        <ele>244.800000</ele>
        <time>2020-10-17T09:30:26Z</time>
      </trkpt>
      <trkpt lat="39.981833000" lon="-8.453465000">
        <ele>245.000000</ele>
        <time>2020-10-17T09:30:27Z</time>
      </trkpt>
      <trkpt lat="39.981840000" lon="-8.453480000">
        <ele>245.000000</ele>
        <time>2020-10-17T09:30:28Z</time>
      </trkpt>
      <trkpt lat="39.981846000" lon="-8.453494000">
        <ele>245.400000</ele>
        <time>2020-10-17T09:30:29Z</time>
      </trkpt>
      <trkpt lat="39.981852000" lon="-8.453510000">
        <ele>245.600000</ele>
        <time>2020-10-17T09:30:30Z</time>
      </trkpt>
      <trkpt lat="39.981859000" lon="-8.453526000">
        <ele>245.600000</ele>
        <time>2020-10-17T09:30:31Z</time>
      </trkpt>
      <trkpt lat="39.981866000" lon="-8.453541000">
        <ele>246.000000</ele>
        <time>2020-10-17T09:30:32Z</time>
      </trkpt>
      <trkpt lat="39.981875000" lon="-8.453555000">
        <ele>246.000000</ele>
        <time>2020-10-17T09:30:33Z</time>
      </trkpt>
      <trkpt lat="39.981881000" lon="-8.453570000">
        <ele>246.400000</ele>
        <time>2020-10-17T09:30:34Z</time>
      </trkpt>
      <trkpt lat="39.981884000" lon="-8.453584000">
        <ele>246.800000</ele>
        <time>2020-10-17T09:30:35Z</time>
      </trkpt>
      <trkpt lat="39.981886000" lon="-8.453599000">
        <ele>246.800000</ele>
        <time>2020-10-17T09:30:36Z</time>
      </trkpt>
      <trkpt lat="39.981889000" lon="-8.453614000">
        <ele>247.200000</ele>
        <time>2020-10-17T09:30:37Z</time>
      </trkpt>
      <trkpt lat="39.981896000" lon="-8.453632000">
        <ele>247.400000</ele>
        <time>2020-10-17T09:30:38Z</time>
      </trkpt>
      <trkpt lat="39.981905000" lon="-8.453646000">
        <ele>247.600000</ele>
        <time>2020-10-17T09:30:39Z</time>
      </trkpt>
      <trkpt lat="39.981911000" lon="-8.453660000">
        <ele>247.800000</ele>
        <time>2020-10-17T09:30:40Z</time>
      </trkpt>
      <trkpt lat="39.981918000" lon="-8.453678000">
        <ele>248.000000</ele>
        <time>2020-10-17T09:30:41Z</time>
      </trkpt>
      <trkpt lat="39.981924000" lon="-8.453695000">
        <ele>248.400000</ele>
        <time>2020-10-17T09:30:42Z</time>
      </trkpt>
      <trkpt lat="39.981933000" lon="-8.453707000">
        <ele>248.600000</ele>
        <time>2020-10-17T09:30:43Z</time>
      </trkpt>
      <trkpt lat="39.981940000" lon="-8.453721000">
        <ele>248.800000</ele>
        <time>2020-10-17T09:30:44Z</time>
      </trkpt>
      <trkpt lat="39.981951000" lon="-8.453733000">
        <ele>248.800000</ele>
        <time>2020-10-17T09:30:45Z</time>
      </trkpt>
      <trkpt lat="39.981960000" lon="-8.453749000">
        <ele>249.000000</ele>
        <time>2020-10-17T09:30:46Z</time>
      </trkpt>
      <trkpt lat="39.981967000" lon="-8.453763000">
        <ele>249.400000</ele>
        <time>2020-10-17T09:30:47Z</time>
      </trkpt>
      <trkpt lat="39.981974000" lon="-8.453777000">
        <ele>249.600000</ele>
        <time>2020-10-17T09:30:48Z</time>
      </trkpt>
      <trkpt lat="39.981985000" lon="-8.453794000">
        <ele>250.000000</ele>
        <time>2020-10-17T09:30:49Z</time>
      </trkpt>
      <trkpt lat="39.981993000" lon="-8.453809000">
        <ele>250.200000</ele>
        <time>2020-10-17T09:30:50Z</time>
      </trkpt>
      <trkpt lat="39.981998000" lon="-8.453824000">
        <ele>250.600000</ele>
        <time>2020-10-17T09:30:51Z</time>
      </trkpt>
      <trkpt lat="39.982014000" lon="-8.453831000">
        <ele>250.600000</ele>
        <time>2020-10-17T09:30:52Z</time>
      </trkpt>
      <trkpt lat="39.982033000" lon="-8.453836000">
        <ele>250.800000</ele>
        <time>2020-10-17T09:30:53Z</time>
      </trkpt>
      <trkpt lat="39.982057000" lon="-8.453842000">
        <ele>251.000000</ele>
        <time>2020-10-17T09:30:54Z</time>
      </trkpt>
      <trkpt lat="39.982064000" lon="-8.453854000">
        <ele>251.200000</ele>
        <time>2020-10-17T09:30:55Z</time>
      </trkpt>
      <trkpt lat="39.982072000" lon="-8.453865000">
        <ele>251.600000</ele>
        <time>2020-10-17T09:30:56Z</time>
      </trkpt>
      <trkpt lat="39.982077000" lon="-8.453879000">
        <ele>251.600000</ele>
        <time>2020-10-17T09:30:57Z</time>
      </trkpt>
      <trkpt lat="39.982084000" lon="-8.453895000">
        <ele>251.800000</ele>
        <time>2020-10-17T09:30:58Z</time>
      </trkpt>
      <trkpt lat="39.982089000" lon="-8.453911000">
        <ele>251.800000</ele>
        <time>2020-10-17T09:30:59Z</time>
      </trkpt>
      <trkpt lat="39.982092000" lon="-8.453926000">
        <ele>252.000000</ele>
        <time>2020-10-17T09:31:00Z</time>
      </trkpt>
      <trkpt lat="39.982097000" lon="-8.453937000">
        <ele>252.400000</ele>
        <time>2020-10-17T09:31:01Z</time>
      </trkpt>
      <trkpt lat="39.982103000" lon="-8.453947000">
        <ele>252.600000</ele>
        <time>2020-10-17T09:31:02Z</time>
      </trkpt>
      <trkpt lat="39.982108000" lon="-8.453961000">
        <ele>252.800000</ele>
        <time>2020-10-17T09:31:03Z</time>
      </trkpt>
      <trkpt lat="39.982118000" lon="-8.453976000">
        <ele>253.000000</ele>
        <time>2020-10-17T09:31:04Z</time>
      </trkpt>
      <trkpt lat="39.982126000" lon="-8.454001000">
        <ele>253.200000</ele>
        <time>2020-10-17T09:31:05Z</time>
      </trkpt>
      <trkpt lat="39.982132000" lon="-8.454018000">
        <ele>253.600000</ele>
        <time>2020-10-17T09:31:06Z</time>
      </trkpt>
      <trkpt lat="39.982149000" lon="-8.454026000">
        <ele>253.800000</ele>
        <time>2020-10-17T09:31:07Z</time>
      </trkpt>
      <trkpt lat="39.982158000" lon="-8.454044000">
        <ele>254.200000</ele>
        <time>2020-10-17T09:31:08Z</time>
      </trkpt>
      <trkpt lat="39.982170000" lon="-8.454063000">
        <ele>254.400000</ele>
        <time>2020-10-17T09:31:09Z</time>
      </trkpt>
      <trkpt lat="39.982177000" lon="-8.454076000">
        <ele>254.600000</ele>
        <time>2020-10-17T09:31:10Z</time>
      </trkpt>
      <trkpt lat="39.982185000" lon="-8.454090000">
        <ele>254.800000</ele>
        <time>2020-10-17T09:31:11Z</time>
      </trkpt>
      <trkpt lat="39.982189000" lon="-8.454105000">
        <ele>255.000000</ele>
        <time>2020-10-17T09:31:12Z</time>
      </trkpt>
      <trkpt lat="39.982194000" lon="-8.454125000">
        <ele>255.000000</ele>
        <time>2020-10-17T09:31:13Z</time>
      </trkpt>
      <trkpt lat="39.982198000" lon="-8.454141000">
        <ele>255.200000</ele>
        <time>2020-10-17T09:31:14Z</time>
      </trkpt>
      <trkpt lat="39.982203000" lon="-8.454156000">
        <ele>255.800000</ele>
        <time>2020-10-17T09:31:15Z</time>
      </trkpt>
      <trkpt lat="39.982208000" lon="-8.454171000">
        <ele>256.000000</ele>
        <time>2020-10-17T09:31:16Z</time>
      </trkpt>
      <trkpt lat="39.982217000" lon="-8.454188000">
        <ele>256.000000</ele>
        <time>2020-10-17T09:31:17Z</time>
      </trkpt>
      <trkpt lat="39.982226000" lon="-8.454202000">
        <ele>256.200000</ele>
        <time>2020-10-17T09:31:18Z</time>
      </trkpt>
      <trkpt lat="39.982231000" lon="-8.454218000">
        <ele>256.600000</ele>
        <time>2020-10-17T09:31:19Z</time>
      </trkpt>
      <trkpt lat="39.982234000" lon="-8.454238000">
        <ele>256.800000</ele>
        <time>2020-10-17T09:31:20Z</time>
      </trkpt>
      <trkpt lat="39.982240000" lon="-8.454258000">
        <ele>257.000000</ele>
        <time>2020-10-17T09:31:21Z</time>
      </trkpt>
      <trkpt lat="39.982248000" lon="-8.454273000">
        <ele>257.200000</ele>
        <time>2020-10-17T09:31:22Z</time>
      </trkpt>
      <trkpt lat="39.982254000" lon="-8.454288000">
        <ele>257.400000</ele>
        <time>2020-10-17T09:31:23Z</time>
      </trkpt>
      <trkpt lat="39.982259000" lon="-8.454302000">
        <ele>257.600000</ele>
        <time>2020-10-17T09:31:24Z</time>
      </trkpt>
      <trkpt lat="39.982261000" lon="-8.454319000">
        <ele>257.800000</ele>
        <time>2020-10-17T09:31:25Z</time>
      </trkpt>
      <trkpt lat="39.982266000" lon="-8.454334000">
        <ele>258.200000</ele>
        <time>2020-10-17T09:31:26Z</time>
      </trkpt>
      <trkpt lat="39.982272000" lon="-8.454345000">
        <ele>258.400000</ele>
        <time>2020-10-17T09:31:27Z</time>
      </trkpt>
      <trkpt lat="39.982277000" lon="-8.454358000">
        <ele>258.400000</ele>
        <time>2020-10-17T09:31:28Z</time>
      </trkpt>
      <trkpt lat="39.982283000" lon="-8.454370000">
        <ele>258.800000</ele>
        <time>2020-10-17T09:31:29Z</time>
      </trkpt>
      <trkpt lat="39.982288000" lon="-8.454388000">
        <ele>259.200000</ele>
        <time>2020-10-17T09:31:30Z</time>
      </trkpt>
      <trkpt lat="39.982293000" lon="-8.454407000">
        <ele>259.400000</ele>
        <time>2020-10-17T09:31:31Z</time>
      </trkpt>
      <trkpt lat="39.982295000" lon="-8.454430000">
        <ele>259.600000</ele>
        <time>2020-10-17T09:31:32Z</time>
      </trkpt>
      <trkpt lat="39.982294000" lon="-8.454452000">
        <ele>260.000000</ele>
        <time>2020-10-17T09:31:33Z</time>
      </trkpt>
      <trkpt lat="39.982296000" lon="-8.454472000">
        <ele>260.200000</ele>
        <time>2020-10-17T09:31:34Z</time>
      </trkpt>
      <trkpt lat="39.982298000" lon="-8.454489000">
        <ele>260.200000</ele>
        <time>2020-10-17T09:31:35Z</time>
      </trkpt>
      <trkpt lat="39.982298000" lon="-8.454513000">
        <ele>260.600000</ele>
        <time>2020-10-17T09:31:36Z</time>
      </trkpt>
      <trkpt lat="39.982299000" lon="-8.454538000">
        <ele>261.000000</ele>
        <time>2020-10-17T09:31:37Z</time>
      </trkpt>
      <trkpt lat="39.982298000" lon="-8.454563000">
        <ele>261.200000</ele>
        <time>2020-10-17T09:31:38Z</time>
      </trkpt>
      <trkpt lat="39.982297000" lon="-8.454585000">
        <ele>261.200000</ele>
        <time>2020-10-17T09:31:39Z</time>
      </trkpt>
      <trkpt lat="39.982296000" lon="-8.454605000">
        <ele>261.400000</ele>
        <time>2020-10-17T09:31:40Z</time>
      </trkpt>
      <trkpt lat="39.982297000" lon="-8.454623000">
        <ele>261.600000</ele>
        <time>2020-10-17T09:31:41Z</time>
      </trkpt>
      <trkpt lat="39.982298000" lon="-8.454641000">
        <ele>261.600000</ele>
        <time>2020-10-17T09:31:42Z</time>
      </trkpt>
      <trkpt lat="39.982296000" lon="-8.454659000">
        <ele>261.800000</ele>
        <time>2020-10-17T09:31:43Z</time>
      </trkpt>
      <trkpt lat="39.982293000" lon="-8.454676000">
        <ele>262.400000</ele>
        <time>2020-10-17T09:31:44Z</time>
      </trkpt>
      <trkpt lat="39.982287000" lon="-8.454693000">
        <ele>262.400000</ele>
        <time>2020-10-17T09:31:45Z</time>
      </trkpt>
      <trkpt lat="39.982281000" lon="-8.454710000">
        <ele>262.600000</ele>
        <time>2020-10-17T09:31:46Z</time>
      </trkpt>
      <trkpt lat="39.982274000" lon="-8.454725000">
        <ele>263.000000</ele>
        <time>2020-10-17T09:31:47Z</time>
      </trkpt>
      <trkpt lat="39.982266000" lon="-8.454738000">
        <ele>263.000000</ele>
        <time>2020-10-17T09:31:48Z</time>
      </trkpt>
      <trkpt lat="39.982258000" lon="-8.454751000">
        <ele>263.000000</ele>
        <time>2020-10-17T09:31:49Z</time>
      </trkpt>
      <trkpt lat="39.982250000" lon="-8.454765000">
        <ele>263.400000</ele>
        <time>2020-10-17T09:31:50Z</time>
      </trkpt>
      <trkpt lat="39.982245000" lon="-8.454778000">
        <ele>263.600000</ele>
        <time>2020-10-17T09:31:51Z</time>
      </trkpt>
      <trkpt lat="39.982240000" lon="-8.454792000">
        <ele>263.600000</ele>
        <time>2020-10-17T09:31:52Z</time>
      </trkpt>
      <trkpt lat="39.982235000" lon="-8.454806000">
        <ele>263.800000</ele>
        <time>2020-10-17T09:31:53Z</time>
      </trkpt>
      <trkpt lat="39.982231000" lon="-8.454820000">
        <ele>264.200000</ele>
        <time>2020-10-17T09:31:54Z</time>
      </trkpt>
      <trkpt lat="39.982225000" lon="-8.454834000">
        <ele>264.400000</ele>
        <time>2020-10-17T09:31:55Z</time>
      </trkpt>
      <trkpt lat="39.982219000" lon="-8.454848000">
        <ele>264.400000</ele>
        <time>2020-10-17T09:31:56Z</time>
      </trkpt>
      <trkpt lat="39.982213000" lon="-8.454863000">
        <ele>264.600000</ele>
        <time>2020-10-17T09:31:57Z</time>
      </trkpt>
      <trkpt lat="39.982208000" lon="-8.454880000">
        <ele>264.800000</ele>
        <time>2020-10-17T09:31:58Z</time>
      </trkpt>
      <trkpt lat="39.982204000" lon="-8.454898000">
        <ele>265.000000</ele>
        <time>2020-10-17T09:31:59Z</time>
      </trkpt>
      <trkpt lat="39.982202000" lon="-8.454916000">
        <ele>265.200000</ele>
        <time>2020-10-17T09:32:00Z</time>
      </trkpt>
      <trkpt lat="39.982197000" lon="-8.454935000">
        <ele>265.600000</ele>
        <time>2020-10-17T09:32:01Z</time>
      </trkpt>
      <trkpt lat="39.982193000" lon="-8.454951000">
        <ele>265.800000</ele>
        <time>2020-10-17T09:32:02Z</time>
      </trkpt>
      <trkpt lat="39.982190000" lon="-8.454967000">
        <ele>266.000000</ele>
        <time>2020-10-17T09:32:03Z</time>
      </trkpt>
      <trkpt lat="39.982188000" lon="-8.454981000">
        <ele>266.200000</ele>
        <time>2020-10-17T09:32:04Z</time>
      </trkpt>
      <trkpt lat="39.982185000" lon="-8.454996000">
        <ele>266.600000</ele>
        <time>2020-10-17T09:32:05Z</time>
      </trkpt>
      <trkpt lat="39.982182000" lon="-8.455010000">
        <ele>266.800000</ele>
        <time>2020-10-17T09:32:06Z</time>
      </trkpt>
      <trkpt lat="39.982179000" lon="-8.455025000">
        <ele>267.200000</ele>
        <time>2020-10-17T09:32:07Z</time>
      </trkpt>
      <trkpt lat="39.982177000" lon="-8.455042000">
        <ele>267.200000</ele>
        <time>2020-10-17T09:32:08Z</time>
      </trkpt>
      <trkpt lat="39.982174000" lon="-8.455057000">
        <ele>267.600000</ele>
        <time>2020-10-17T09:32:09Z</time>
      </trkpt>
      <trkpt lat="39.982171000" lon="-8.455071000">
        <ele>267.800000</ele>
        <time>2020-10-17T09:32:10Z</time>
      </trkpt>
      <trkpt lat="39.982167000" lon="-8.455086000">
        <ele>268.000000</ele>
        <time>2020-10-17T09:32:11Z</time>
      </trkpt>
      <trkpt lat="39.982163000" lon="-8.455101000">
        <ele>268.400000</ele>
        <time>2020-10-17T09:32:12Z</time>
      </trkpt>
      <trkpt lat="39.982158000" lon="-8.455117000">
        <ele>268.600000</ele>
        <time>2020-10-17T09:32:13Z</time>
      </trkpt>
      <trkpt lat="39.982154000" lon="-8.455133000">
        <ele>268.800000</ele>
        <time>2020-10-17T09:32:14Z</time>
      </trkpt>
      <trkpt lat="39.982150000" lon="-8.455149000">
        <ele>269.200000</ele>
        <time>2020-10-17T09:32:15Z</time>
      </trkpt>
      <trkpt lat="39.982148000" lon="-8.455166000">
        <ele>269.400000</ele>
        <time>2020-10-17T09:32:16Z</time>
      </trkpt>
      <trkpt lat="39.982145000" lon="-8.455183000">
        <ele>269.600000</ele>
        <time>2020-10-17T09:32:17Z</time>
      </trkpt>
      <trkpt lat="39.982141000" lon="-8.455199000">
        <ele>269.600000</ele>
        <time>2020-10-17T09:32:18Z</time>
      </trkpt>
      <trkpt lat="39.982137000" lon="-8.455217000">
        <ele>270.000000</ele>
        <time>2020-10-17T09:32:19Z</time>
      </trkpt>
      <trkpt lat="39.982133000" lon="-8.455236000">
        <ele>270.200000</ele>
        <time>2020-10-17T09:32:20Z</time>
      </trkpt>
      <trkpt lat="39.982130000" lon="-8.455254000">
        <ele>270.400000</ele>
        <time>2020-10-17T09:32:21Z</time>
      </trkpt>
      <trkpt lat="39.982127000" lon="-8.455271000">
        <ele>270.800000</ele>
        <time>2020-10-17T09:32:22Z</time>
      </trkpt>
      <trkpt lat="39.982124000" lon="-8.455288000">
        <ele>271.000000</ele>
        <time>2020-10-17T09:32:23Z</time>
      </trkpt>
      <trkpt lat="39.982121000" lon="-8.455307000">
        <ele>271.200000</ele>
        <time>2020-10-17T09:32:24Z</time>
      </trkpt>
      <trkpt lat="39.982117000" lon="-8.455325000">
        <ele>271.400000</ele>
        <time>2020-10-17T09:32:25Z</time>
      </trkpt>
      <trkpt lat="39.982109000" lon="-8.455341000">
        <ele>271.600000</ele>
        <time>2020-10-17T09:32:26Z</time>
      </trkpt>
      <trkpt lat="39.982099000" lon="-8.455353000">
        <ele>272.000000</ele>
        <time>2020-10-17T09:32:27Z</time>
      </trkpt>
      <trkpt lat="39.982087000" lon="-8.455363000">
        <ele>272.200000</ele>
        <time>2020-10-17T09:32:28Z</time>
      </trkpt>
      <trkpt lat="39.982075000" lon="-8.455369000">
        <ele>272.400000</ele>
        <time>2020-10-17T09:32:29Z</time>
      </trkpt>
      <trkpt lat="39.982059000" lon="-8.455373000">
        <ele>272.600000</ele>
        <time>2020-10-17T09:32:30Z</time>
      </trkpt>
      <trkpt lat="39.982043000" lon="-8.455375000">
        <ele>273.000000</ele>
        <time>2020-10-17T09:32:31Z</time>
      </trkpt>
      <trkpt lat="39.982026000" lon="-8.455372000">
        <ele>273.200000</ele>
        <time>2020-10-17T09:32:32Z</time>
      </trkpt>
      <trkpt lat="39.982011000" lon="-8.455365000">
        <ele>273.400000</ele>
        <time>2020-10-17T09:32:33Z</time>
      </trkpt>
      <trkpt lat="39.982000000" lon="-8.455352000">
        <ele>273.600000</ele>
        <time>2020-10-17T09:32:34Z</time>
      </trkpt>
      <trkpt lat="39.981990000" lon="-8.455337000">
        <ele>274.000000</ele>
        <time>2020-10-17T09:32:35Z</time>
      </trkpt>
      <trkpt lat="39.981983000" lon="-8.455320000">
        <ele>274.000000</ele>
        <time>2020-10-17T09:32:36Z</time>
      </trkpt>
      <trkpt lat="39.981977000" lon="-8.455304000">
        <ele>274.000000</ele>
        <time>2020-10-17T09:32:37Z</time>
      </trkpt>
      <trkpt lat="39.981972000" lon="-8.455286000">
        <ele>274.200000</ele>
        <time>2020-10-17T09:32:38Z</time>
      </trkpt>
      <trkpt lat="39.981966000" lon="-8.455269000">
        <ele>274.200000</ele>
        <time>2020-10-17T09:32:39Z</time>
      </trkpt>
      <trkpt lat="39.981961000" lon="-8.455250000">
        <ele>274.200000</ele>
        <time>2020-10-17T09:32:40Z</time>
      </trkpt>
      <trkpt lat="39.981955000" lon="-8.455229000">
        <ele>274.200000</ele>
        <time>2020-10-17T09:32:41Z</time>
      </trkpt>
      <trkpt lat="39.981949000" lon="-8.455206000">
        <ele>274.400000</ele>
        <time>2020-10-17T09:32:42Z</time>
      </trkpt>
      <trkpt lat="39.981943000" lon="-8.455181000">
        <ele>274.400000</ele>
        <time>2020-10-17T09:32:43Z</time>
      </trkpt>
      <trkpt lat="39.981938000" lon="-8.455155000">
        <ele>274.200000</ele>
        <time>2020-10-17T09:32:44Z</time>
      </trkpt>
      <trkpt lat="39.981935000" lon="-8.455129000">
        <ele>274.200000</ele>
        <time>2020-10-17T09:32:45Z</time>
      </trkpt>
      <trkpt lat="39.981933000" lon="-8.455104000">
        <ele>274.400000</ele>
        <time>2020-10-17T09:32:46Z</time>
      </trkpt>
      <trkpt lat="39.981931000" lon="-8.455076000">
        <ele>274.400000</ele>
        <time>2020-10-17T09:32:47Z</time>
      </trkpt>
      <trkpt lat="39.981929000" lon="-8.455048000">
        <ele>274.600000</ele>
        <time>2020-10-17T09:32:48Z</time>
      </trkpt>
      <trkpt lat="39.981925000" lon="-8.455023000">
        <ele>274.400000</ele>
        <time>2020-10-17T09:32:49Z</time>
      </trkpt>
      <trkpt lat="39.981920000" lon="-8.455002000">
        <ele>274.400000</ele>
        <time>2020-10-17T09:32:50Z</time>
      </trkpt>
      <trkpt lat="39.981910000" lon="-8.454957000">
        <ele>274.800000</ele>
        <time>2020-10-17T09:32:52Z</time>
      </trkpt>
      <trkpt lat="39.981902000" lon="-8.454912000">
        <ele>274.800000</ele>
        <time>2020-10-17T09:32:54Z</time>
      </trkpt>
      <trkpt lat="39.981897000" lon="-8.454890000">
        <ele>275.000000</ele>
        <time>2020-10-17T09:32:55Z</time>
      </trkpt>
      <trkpt lat="39.981891000" lon="-8.454868000">
        <ele>275.200000</ele>
        <time>2020-10-17T09:32:56Z</time>
      </trkpt>
      <trkpt lat="39.981884000" lon="-8.454847000">
        <ele>275.400000</ele>
        <time>2020-10-17T09:32:57Z</time>
      </trkpt>
      <trkpt lat="39.981877000" lon="-8.454825000">
        <ele>275.400000</ele>
        <time>2020-10-17T09:32:58Z</time>
      </trkpt>
      <trkpt lat="39.981870000" lon="-8.454801000">
        <ele>275.800000</ele>
        <time>2020-10-17T09:32:59Z</time>
      </trkpt>
      <trkpt lat="39.981866000" lon="-8.454775000">
        <ele>276.000000</ele>
        <time>2020-10-17T09:33:00Z</time>
      </trkpt>
      <trkpt lat="39.981862000" lon="-8.454749000">
        <ele>276.000000</ele>
        <time>2020-10-17T09:33:01Z</time>
      </trkpt>
      <trkpt lat="39.981856000" lon="-8.454724000">
        <ele>276.000000</ele>
        <time>2020-10-17T09:33:02Z</time>
      </trkpt>
      <trkpt lat="39.981847000" lon="-8.454701000">
        <ele>276.000000</ele>
        <time>2020-10-17T09:33:03Z</time>
      </trkpt>
      <trkpt lat="39.981836000" lon="-8.454682000">
        <ele>276.400000</ele>
        <time>2020-10-17T09:33:04Z</time>
      </trkpt>
      <trkpt lat="39.981824000" lon="-8.454664000">
        <ele>276.400000</ele>
        <time>2020-10-17T09:33:05Z</time>
      </trkpt>
      <trkpt lat="39.981811000" lon="-8.454647000">
        <ele>276.600000</ele>
        <time>2020-10-17T09:33:06Z</time>
      </trkpt>
      <trkpt lat="39.981795000" lon="-8.454631000">
        <ele>276.600000</ele>
        <time>2020-10-17T09:33:07Z</time>
      </trkpt>
      <trkpt lat="39.981778000" lon="-8.454619000">
        <ele>276.800000</ele>
        <time>2020-10-17T09:33:08Z</time>
      </trkpt>
      <trkpt lat="39.981761000" lon="-8.454610000">
        <ele>276.800000</ele>
        <time>2020-10-17T09:33:09Z</time>
      </trkpt>
      <trkpt lat="39.981745000" lon="-8.454604000">
        <ele>277.200000</ele>
        <time>2020-10-17T09:33:10Z</time>
      </trkpt>
      <trkpt lat="39.981726000" lon="-8.454602000">
        <ele>277.200000</ele>
        <time>2020-10-17T09:33:11Z</time>
      </trkpt>
      <trkpt lat="39.981707000" lon="-8.454601000">
        <ele>277.200000</ele>
        <time>2020-10-17T09:33:12Z</time>
      </trkpt>
      <trkpt lat="39.981687000" lon="-8.454599000">
        <ele>277.600000</ele>
        <time>2020-10-17T09:33:13Z</time>
      </trkpt>
      <trkpt lat="39.981666000" lon="-8.454598000">
        <ele>277.800000</ele>
        <time>2020-10-17T09:33:14Z</time>
      </trkpt>
      <trkpt lat="39.981647000" lon="-8.454600000">
        <ele>277.800000</ele>
        <time>2020-10-17T09:33:15Z</time>
      </trkpt>
      <trkpt lat="39.981626000" lon="-8.454605000">
        <ele>278.200000</ele>
        <time>2020-10-17T09:33:16Z</time>
      </trkpt>
      <trkpt lat="39.981606000" lon="-8.454613000">
        <ele>278.400000</ele>
        <time>2020-10-17T09:33:17Z</time>
      </trkpt>
      <trkpt lat="39.981586000" lon="-8.454620000">
        <ele>278.600000</ele>
        <time>2020-10-17T09:33:18Z</time>
      </trkpt>
      <trkpt lat="39.981565000" lon="-8.454627000">
        <ele>279.000000</ele>
        <time>2020-10-17T09:33:19Z</time>
      </trkpt>
      <trkpt lat="39.981544000" lon="-8.454631000">
        <ele>279.200000</ele>
        <time>2020-10-17T09:33:20Z</time>
      </trkpt>
      <trkpt lat="39.981521000" lon="-8.454632000">
        <ele>279.400000</ele>
        <time>2020-10-17T09:33:21Z</time>
      </trkpt>
      <trkpt lat="39.981498000" lon="-8.454634000">
        <ele>279.400000</ele>
        <time>2020-10-17T09:33:22Z</time>
      </trkpt>
      <trkpt lat="39.981475000" lon="-8.454634000">
        <ele>279.600000</ele>
        <time>2020-10-17T09:33:23Z</time>
      </trkpt>
      <trkpt lat="39.981452000" lon="-8.454633000">
        <ele>279.800000</ele>
        <time>2020-10-17T09:33:24Z</time>
      </trkpt>
      <trkpt lat="39.981428000" lon="-8.454633000">
        <ele>280.000000</ele>
        <time>2020-10-17T09:33:25Z</time>
      </trkpt>
      <trkpt lat="39.981402000" lon="-8.454629000">
        <ele>280.000000</ele>
        <time>2020-10-17T09:33:26Z</time>
      </trkpt>
      <trkpt lat="39.981375000" lon="-8.454627000">
        <ele>280.200000</ele>
        <time>2020-10-17T09:33:27Z</time>
      </trkpt>
      <trkpt lat="39.981348000" lon="-8.454625000">
        <ele>280.400000</ele>
        <time>2020-10-17T09:33:28Z</time>
      </trkpt>
      <trkpt lat="39.981320000" lon="-8.454622000">
        <ele>280.400000</ele>
        <time>2020-10-17T09:33:29Z</time>
      </trkpt>
      <trkpt lat="39.981293000" lon="-8.454617000">
        <ele>280.600000</ele>
        <time>2020-10-17T09:33:30Z</time>
      </trkpt>
      <trkpt lat="39.981266000" lon="-8.454612000">
        <ele>280.600000</ele>
        <time>2020-10-17T09:33:31Z</time>
      </trkpt>
      <trkpt lat="39.981239000" lon="-8.454606000">
        <ele>280.800000</ele>
        <time>2020-10-17T09:33:32Z</time>
      </trkpt>
      <trkpt lat="39.981212000" lon="-8.454602000">
        <ele>281.000000</ele>
        <time>2020-10-17T09:33:33Z</time>
      </trkpt>
      <trkpt lat="39.981186000" lon="-8.454598000">
        <ele>281.000000</ele>
        <time>2020-10-17T09:33:34Z</time>
      </trkpt>
      <trkpt lat="39.981157000" lon="-8.454598000">
        <ele>281.200000</ele>
        <time>2020-10-17T09:33:35Z</time>
      </trkpt>
      <trkpt lat="39.981127000" lon="-8.454601000">
        <ele>281.400000</ele>
        <time>2020-10-17T09:33:36Z</time>
      </trkpt>
      <trkpt lat="39.981097000" lon="-8.454607000">
        <ele>281.400000</ele>
        <time>2020-10-17T09:33:37Z</time>
      </trkpt>
      <trkpt lat="39.981068000" lon="-8.454617000">
        <ele>281.600000</ele>
        <time>2020-10-17T09:33:38Z</time>
      </trkpt>
      <trkpt lat="39.981038000" lon="-8.454629000">
        <ele>281.600000</ele>
        <time>2020-10-17T09:33:39Z</time>
      </trkpt>
      <trkpt lat="39.981007000" lon="-8.454644000">
        <ele>281.600000</ele>
        <time>2020-10-17T09:33:40Z</time>
      </trkpt>
      <trkpt lat="39.980975000" lon="-8.454661000">
        <ele>281.600000</ele>
        <time>2020-10-17T09:33:41Z</time>
      </trkpt>
      <trkpt lat="39.980914000" lon="-8.454694000">
        <ele>281.600000</ele>
        <time>2020-10-17T09:33:43Z</time>
      </trkpt>
      <trkpt lat="39.980884000" lon="-8.454713000">
        <ele>281.600000</ele>
        <time>2020-10-17T09:33:44Z</time>
      </trkpt>
      <trkpt lat="39.980855000" lon="-8.454730000">
        <ele>281.800000</ele>
        <time>2020-10-17T09:33:45Z</time>
      </trkpt>
      <trkpt lat="39.980826000" lon="-8.454746000">
        <ele>282.000000</ele>
        <time>2020-10-17T09:33:46Z</time>
      </trkpt>
      <trkpt lat="39.980767000" lon="-8.454774000">
        <ele>282.000000</ele>
        <time>2020-10-17T09:33:48Z</time>
      </trkpt>
      <trkpt lat="39.980673000" lon="-8.454832000">
        <ele>282.200000</ele>
        <time>2020-10-17T09:33:51Z</time>
      </trkpt>
      <trkpt lat="39.980445000" lon="-8.454912000">
        <ele>282.200000</ele>
        <time>2020-10-17T09:33:57Z</time>
      </trkpt>
      <trkpt lat="39.980405000" lon="-8.454914000">
        <ele>282.200000</ele>
        <time>2020-10-17T09:33:58Z</time>
      </trkpt>
      <trkpt lat="39.980322000" lon="-8.454915000">
        <ele>282.200000</ele>
        <time>2020-10-17T09:34:00Z</time>
      </trkpt>
      <trkpt lat="39.980233000" lon="-8.454920000">
        <ele>282.400000</ele>
        <time>2020-10-17T09:34:02Z</time>
      </trkpt>
      <trkpt lat="39.980193000" lon="-8.454921000">
        <ele>282.200000</ele>
        <time>2020-10-17T09:34:03Z</time>
      </trkpt>
      <trkpt lat="39.980113000" lon="-8.454915000">
        <ele>282.200000</ele>
        <time>2020-10-17T09:34:05Z</time>
      </trkpt>
      <trkpt lat="39.980074000" lon="-8.454913000">
        <ele>282.200000</ele>
        <time>2020-10-17T09:34:06Z</time>
      </trkpt>
      <trkpt lat="39.979951000" lon="-8.454899000">
        <ele>282.400000</ele>
        <time>2020-10-17T09:34:09Z</time>
      </trkpt>
      <trkpt lat="39.979825000" lon="-8.454897000">
        <ele>282.600000</ele>
        <time>2020-10-17T09:34:12Z</time>
      </trkpt>
      <trkpt lat="39.979552000" lon="-8.454920000">
        <ele>283.400000</ele>
        <time>2020-10-17T09:34:18Z</time>
      </trkpt>
      <trkpt lat="39.979513000" lon="-8.454939000">
        <ele>283.400000</ele>
        <time>2020-10-17T09:34:19Z</time>
      </trkpt>
      <trkpt lat="39.979473000" lon="-8.454961000">
        <ele>283.400000</ele>
        <time>2020-10-17T09:34:20Z</time>
      </trkpt>
      <trkpt lat="39.979437000" lon="-8.454980000">
        <ele>283.600000</ele>
        <time>2020-10-17T09:34:21Z</time>
      </trkpt>
      <trkpt lat="39.979403000" lon="-8.454999000">
        <ele>283.600000</ele>
        <time>2020-10-17T09:34:22Z</time>
      </trkpt>
      <trkpt lat="39.979372000" lon="-8.455016000">
        <ele>283.800000</ele>
        <time>2020-10-17T09:34:23Z</time>
      </trkpt>
      <trkpt lat="39.979339000" lon="-8.455025000">
        <ele>283.800000</ele>
        <time>2020-10-17T09:34:24Z</time>
      </trkpt>
      <trkpt lat="39.979267000" lon="-8.455032000">
        <ele>284.000000</ele>
        <time>2020-10-17T09:34:26Z</time>
      </trkpt>
      <trkpt lat="39.979190000" lon="-8.455036000">
        <ele>284.200000</ele>
        <time>2020-10-17T09:34:28Z</time>
      </trkpt>
      <trkpt lat="39.979153000" lon="-8.455038000">
        <ele>284.200000</ele>
        <time>2020-10-17T09:34:29Z</time>
      </trkpt>
      <trkpt lat="39.979118000" lon="-8.455041000">
        <ele>284.400000</ele>
        <time>2020-10-17T09:34:30Z</time>
      </trkpt>
      <trkpt lat="39.979090000" lon="-8.455047000">
        <ele>284.400000</ele>
        <time>2020-10-17T09:34:31Z</time>
      </trkpt>
      <trkpt lat="39.979066000" lon="-8.455053000">
        <ele>284.600000</ele>
        <time>2020-10-17T09:34:32Z</time>
      </trkpt>
      <trkpt lat="39.979043000" lon="-8.455057000">
        <ele>284.400000</ele>
        <time>2020-10-17T09:34:33Z</time>
      </trkpt>
      <trkpt lat="39.979022000" lon="-8.455039000">
        <ele>284.600000</ele>
        <time>2020-10-17T09:34:34Z</time>
      </trkpt>
      <trkpt lat="39.979004000" lon="-8.455027000">
        <ele>284.800000</ele>
        <time>2020-10-17T09:34:35Z</time>
      </trkpt>
      <trkpt lat="39.978978000" lon="-8.455017000">
        <ele>284.800000</ele>
        <time>2020-10-17T09:34:36Z</time>
      </trkpt>
      <trkpt lat="39.978957000" lon="-8.455006000">
        <ele>285.000000</ele>
        <time>2020-10-17T09:34:37Z</time>
      </trkpt>
      <trkpt lat="39.978936000" lon="-8.454997000">
        <ele>284.800000</ele>
        <time>2020-10-17T09:34:38Z</time>
      </trkpt>
      <trkpt lat="39.978909000" lon="-8.454998000">
        <ele>285.200000</ele>
        <time>2020-10-17T09:34:39Z</time>
      </trkpt>
      <trkpt lat="39.978883000" lon="-8.455005000">
        <ele>285.000000</ele>
        <time>2020-10-17T09:34:40Z</time>
      </trkpt>
      <trkpt lat="39.978852000" lon="-8.455009000">
        <ele>285.200000</ele>
        <time>2020-10-17T09:34:41Z</time>
      </trkpt>
      <trkpt lat="39.978825000" lon="-8.455008000">
        <ele>285.200000</ele>
        <time>2020-10-17T09:34:42Z</time>
      </trkpt>
      <trkpt lat="39.978797000" lon="-8.455008000">
        <ele>285.200000</ele>
        <time>2020-10-17T09:34:43Z</time>
      </trkpt>
      <trkpt lat="39.978775000" lon="-8.455014000">
        <ele>285.200000</ele>
        <time>2020-10-17T09:34:44Z</time>
      </trkpt>
      <trkpt lat="39.978756000" lon="-8.455019000">
        <ele>285.400000</ele>
        <time>2020-10-17T09:34:45Z</time>
      </trkpt>
      <trkpt lat="39.978738000" lon="-8.455022000">
        <ele>285.200000</ele>
        <time>2020-10-17T09:34:46Z</time>
      </trkpt>
      <trkpt lat="39.978719000" lon="-8.455025000">
        <ele>285.200000</ele>
        <time>2020-10-17T09:34:47Z</time>
      </trkpt>
      <trkpt lat="39.978704000" lon="-8.455024000">
        <ele>285.400000</ele>
        <time>2020-10-17T09:34:48Z</time>
      </trkpt>
      <trkpt lat="39.978693000" lon="-8.455019000">
        <ele>285.200000</ele>
        <time>2020-10-17T09:34:49Z</time>
      </trkpt>
      <trkpt lat="39.978680000" lon="-8.455016000">
        <ele>285.200000</ele>
        <time>2020-10-17T09:34:50Z</time>
      </trkpt>
      <trkpt lat="39.978646000" lon="-8.455018000">
        <ele>285.200000</ele>
        <time>2020-10-17T09:34:52Z</time>
      </trkpt>
      <trkpt lat="39.978633000" lon="-8.455018000">
        <ele>285.200000</ele>
        <time>2020-10-17T09:34:53Z</time>
      </trkpt>
      <trkpt lat="39.978622000" lon="-8.455019000">
        <ele>285.200000</ele>
        <time>2020-10-17T09:34:54Z</time>
      </trkpt>
      <trkpt lat="39.978613000" lon="-8.455019000">
        <ele>285.200000</ele>
        <time>2020-10-17T09:34:55Z</time>
      </trkpt>
      <trkpt lat="39.978598000" lon="-8.455018000">
        <ele>285.200000</ele>
        <time>2020-10-17T09:34:57Z</time>
      </trkpt>
      <trkpt lat="39.978524000" lon="-8.455079000">
        <ele>285.200000</ele>
        <time>2020-10-17T09:35:58Z</time>
      </trkpt>
      <trkpt lat="39.978502000" lon="-8.455110000">
        <ele>285.000000</ele>
        <time>2020-10-17T09:35:59Z</time>
      </trkpt>
      <trkpt lat="39.978421000" lon="-8.455220000">
        <ele>285.200000</ele>
        <time>2020-10-17T09:36:02Z</time>
      </trkpt>
      <trkpt lat="39.978363000" lon="-8.455293000">
        <ele>285.000000</ele>
        <time>2020-10-17T09:36:04Z</time>
      </trkpt>
      <trkpt lat="39.978301000" lon="-8.455350000">
        <ele>285.200000</ele>
        <time>2020-10-17T09:36:06Z</time>
      </trkpt>
      <trkpt lat="39.978270000" lon="-8.455374000">
        <ele>285.400000</ele>
        <time>2020-10-17T09:36:07Z</time>
      </trkpt>
      <trkpt lat="39.978241000" lon="-8.455398000">
        <ele>285.200000</ele>
        <time>2020-10-17T09:36:08Z</time>
      </trkpt>
      <trkpt lat="39.978213000" lon="-8.455423000">
        <ele>285.400000</ele>
        <time>2020-10-17T09:36:09Z</time>
      </trkpt>
      <trkpt lat="39.978184000" lon="-8.455448000">
        <ele>285.400000</ele>
        <time>2020-10-17T09:36:10Z</time>
      </trkpt>
      <trkpt lat="39.978156000" lon="-8.455473000">
        <ele>285.600000</ele>
        <time>2020-10-17T09:36:11Z</time>
      </trkpt>
      <trkpt lat="39.978131000" lon="-8.455499000">
        <ele>285.600000</ele>
        <time>2020-10-17T09:36:12Z</time>
      </trkpt>
      <trkpt lat="39.978046000" lon="-8.455577000">
        <ele>285.800000</ele>
        <time>2020-10-17T09:36:15Z</time>
      </trkpt>
      <trkpt lat="39.978015000" lon="-8.455603000">
        <ele>286.200000</ele>
        <time>2020-10-17T09:36:16Z</time>
      </trkpt>
      <trkpt lat="39.977978000" lon="-8.455629000">
        <ele>286.400000</ele>
        <time>2020-10-17T09:36:17Z</time>
      </trkpt>
      <trkpt lat="39.977942000" lon="-8.455658000">
        <ele>286.600000</ele>
        <time>2020-10-17T09:36:18Z</time>
      </trkpt>
      <trkpt lat="39.977901000" lon="-8.455686000">
        <ele>286.800000</ele>
        <time>2020-10-17T09:36:19Z</time>
      </trkpt>
      <trkpt lat="39.977860000" lon="-8.455711000">
        <ele>287.200000</ele>
        <time>2020-10-17T09:36:20Z</time>
      </trkpt>
      <trkpt lat="39.977813000" lon="-8.455735000">
        <ele>287.200000</ele>
        <time>2020-10-17T09:36:21Z</time>
      </trkpt>
      <trkpt lat="39.977761000" lon="-8.455756000">
        <ele>287.600000</ele>
        <time>2020-10-17T09:36:22Z</time>
      </trkpt>
      <trkpt lat="39.977703000" lon="-8.455778000">
        <ele>287.600000</ele>
        <time>2020-10-17T09:36:23Z</time>
      </trkpt>
      <trkpt lat="39.977641000" lon="-8.455804000">
        <ele>287.600000</ele>
        <time>2020-10-17T09:36:24Z</time>
      </trkpt>
      <trkpt lat="39.977430000" lon="-8.455915000">
        <ele>287.600000</ele>
        <time>2020-10-17T09:36:27Z</time>
      </trkpt>
      <trkpt lat="39.977362000" lon="-8.455953000">
        <ele>287.600000</ele>
        <time>2020-10-17T09:36:28Z</time>
      </trkpt>
      <trkpt lat="39.977293000" lon="-8.455995000">
        <ele>287.600000</ele>
        <time>2020-10-17T09:36:29Z</time>
      </trkpt>
      <trkpt lat="39.977227000" lon="-8.456036000">
        <ele>287.600000</ele>
        <time>2020-10-17T09:36:30Z</time>
      </trkpt>
      <trkpt lat="39.977162000" lon="-8.456081000">
        <ele>287.600000</ele>
        <time>2020-10-17T09:36:31Z</time>
      </trkpt>
      <trkpt lat="39.977039000" lon="-8.456184000">
        <ele>286.600000</ele>
        <time>2020-10-17T09:36:33Z</time>
      </trkpt>
      <trkpt lat="39.976986000" lon="-8.456237000">
        <ele>286.400000</ele>
        <time>2020-10-17T09:36:34Z</time>
      </trkpt>
      <trkpt lat="39.976940000" lon="-8.456288000">
        <ele>286.000000</ele>
        <time>2020-10-17T09:36:35Z</time>
      </trkpt>
      <trkpt lat="39.976898000" lon="-8.456333000">
        <ele>286.000000</ele>
        <time>2020-10-17T09:36:36Z</time>
      </trkpt>
      <trkpt lat="39.976860000" lon="-8.456375000">
        <ele>285.800000</ele>
        <time>2020-10-17T09:36:37Z</time>
      </trkpt>
      <trkpt lat="39.976824000" lon="-8.456417000">
        <ele>285.600000</ele>
        <time>2020-10-17T09:36:38Z</time>
      </trkpt>
      <trkpt lat="39.976791000" lon="-8.456459000">
        <ele>285.600000</ele>
        <time>2020-10-17T09:36:39Z</time>
      </trkpt>
      <trkpt lat="39.976761000" lon="-8.456499000">
        <ele>285.600000</ele>
        <time>2020-10-17T09:36:40Z</time>
      </trkpt>
      <trkpt lat="39.976730000" lon="-8.456539000">
        <ele>285.600000</ele>
        <time>2020-10-17T09:36:41Z</time>
      </trkpt>
      <trkpt lat="39.976699000" lon="-8.456576000">
        <ele>285.600000</ele>
        <time>2020-10-17T09:36:42Z</time>
      </trkpt>
      <trkpt lat="39.976669000" lon="-8.456613000">
        <ele>285.600000</ele>
        <time>2020-10-17T09:36:43Z</time>
      </trkpt>
      <trkpt lat="39.976547000" lon="-8.456797000">
        <ele>286.000000</ele>
        <time>2020-10-17T09:36:47Z</time>
      </trkpt>
      <trkpt lat="39.976452000" lon="-8.456983000">
        <ele>286.200000</ele>
        <time>2020-10-17T09:36:50Z</time>
      </trkpt>
      <trkpt lat="39.976349000" lon="-8.457187000">
        <ele>286.200000</ele>
        <time>2020-10-17T09:36:53Z</time>
      </trkpt>
      <trkpt lat="39.976313000" lon="-8.457257000">
        <ele>286.200000</ele>
        <time>2020-10-17T09:36:54Z</time>
      </trkpt>
      <trkpt lat="39.976145000" lon="-8.457540000">
        <ele>286.200000</ele>
        <time>2020-10-17T09:36:58Z</time>
      </trkpt>
      <trkpt lat="39.976041000" lon="-8.457673000">
        <ele>286.400000</ele>
        <time>2020-10-17T09:37:00Z</time>
      </trkpt>
      <trkpt lat="39.975988000" lon="-8.457736000">
        <ele>286.000000</ele>
        <time>2020-10-17T09:37:01Z</time>
      </trkpt>
      <trkpt lat="39.975881000" lon="-8.457858000">
        <ele>285.800000</ele>
        <time>2020-10-17T09:37:03Z</time>
      </trkpt>
      <trkpt lat="39.975826000" lon="-8.457917000">
        <ele>285.400000</ele>
        <time>2020-10-17T09:37:04Z</time>
      </trkpt>
      <trkpt lat="39.975711000" lon="-8.458031000">
        <ele>284.800000</ele>
        <time>2020-10-17T09:37:06Z</time>
      </trkpt>
      <trkpt lat="39.975588000" lon="-8.458142000">
        <ele>284.000000</ele>
        <time>2020-10-17T09:37:08Z</time>
      </trkpt>
      <trkpt lat="39.975524000" lon="-8.458198000">
        <ele>283.600000</ele>
        <time>2020-10-17T09:37:09Z</time>
      </trkpt>
      <trkpt lat="39.975325000" lon="-8.458363000">
        <ele>282.600000</ele>
        <time>2020-10-17T09:37:12Z</time>
      </trkpt>
      <trkpt lat="39.975197000" lon="-8.458480000">
        <ele>282.000000</ele>
        <time>2020-10-17T09:37:14Z</time>
      </trkpt>
      <trkpt lat="39.975136000" lon="-8.458536000">
        <ele>281.200000</ele>
        <time>2020-10-17T09:37:15Z</time>
      </trkpt>
      <trkpt lat="39.975074000" lon="-8.458588000">
        <ele>281.000000</ele>
        <time>2020-10-17T09:37:16Z</time>
      </trkpt>
      <trkpt lat="39.975011000" lon="-8.458627000">
        <ele>280.200000</ele>
        <time>2020-10-17T09:37:17Z</time>
      </trkpt>
      <trkpt lat="39.974948000" lon="-8.458657000">
        <ele>279.400000</ele>
        <time>2020-10-17T09:37:18Z</time>
      </trkpt>
      <trkpt lat="39.974883000" lon="-8.458680000">
        <ele>279.400000</ele>
        <time>2020-10-17T09:37:19Z</time>
      </trkpt>
      <trkpt lat="39.974818000" lon="-8.458701000">
        <ele>279.200000</ele>
        <time>2020-10-17T09:37:20Z</time>
      </trkpt>
      <trkpt lat="39.974683000" lon="-8.458736000">
        <ele>278.600000</ele>
        <time>2020-10-17T09:37:22Z</time>
      </trkpt>
      <trkpt lat="39.974616000" lon="-8.458749000">
        <ele>278.400000</ele>
        <time>2020-10-17T09:37:23Z</time>
      </trkpt>
      <trkpt lat="39.974480000" lon="-8.458770000">
        <ele>278.200000</ele>
        <time>2020-10-17T09:37:25Z</time>
      </trkpt>
      <trkpt lat="39.974415000" lon="-8.458783000">
        <ele>278.000000</ele>
        <time>2020-10-17T09:37:26Z</time>
      </trkpt>
      <trkpt lat="39.974350000" lon="-8.458798000">
        <ele>277.800000</ele>
        <time>2020-10-17T09:37:27Z</time>
      </trkpt>
      <trkpt lat="39.974290000" lon="-8.458814000">
        <ele>277.800000</ele>
        <time>2020-10-17T09:37:28Z</time>
      </trkpt>
      <trkpt lat="39.974231000" lon="-8.458831000">
        <ele>277.800000</ele>
        <time>2020-10-17T09:37:29Z</time>
      </trkpt>
      <trkpt lat="39.974172000" lon="-8.458851000">
        <ele>277.800000</ele>
        <time>2020-10-17T09:37:30Z</time>
      </trkpt>
      <trkpt lat="39.974115000" lon="-8.458869000">
        <ele>278.000000</ele>
        <time>2020-10-17T09:37:31Z</time>
      </trkpt>
      <trkpt lat="39.974061000" lon="-8.458884000">
        <ele>278.000000</ele>
        <time>2020-10-17T09:37:32Z</time>
      </trkpt>
      <trkpt lat="39.974007000" lon="-8.458900000">
        <ele>277.800000</ele>
        <time>2020-10-17T09:37:33Z</time>
      </trkpt>
      <trkpt lat="39.973956000" lon="-8.458916000">
        <ele>278.000000</ele>
        <time>2020-10-17T09:37:34Z</time>
      </trkpt>
      <trkpt lat="39.973909000" lon="-8.458934000">
        <ele>278.000000</ele>
        <time>2020-10-17T09:37:35Z</time>
      </trkpt>
      <trkpt lat="39.973862000" lon="-8.458958000">
        <ele>277.800000</ele>
        <time>2020-10-17T09:37:36Z</time>
      </trkpt>
      <trkpt lat="39.973813000" lon="-8.458987000">
        <ele>278.200000</ele>
        <time>2020-10-17T09:37:37Z</time>
      </trkpt>
      <trkpt lat="39.973764000" lon="-8.459012000">
        <ele>278.000000</ele>
        <time>2020-10-17T09:37:38Z</time>
      </trkpt>
      <trkpt lat="39.973716000" lon="-8.459031000">
        <ele>278.200000</ele>
        <time>2020-10-17T09:37:39Z</time>
      </trkpt>
      <trkpt lat="39.973670000" lon="-8.459047000">
        <ele>278.200000</ele>
        <time>2020-10-17T09:37:40Z</time>
      </trkpt>
      <trkpt lat="39.973624000" lon="-8.459063000">
        <ele>278.200000</ele>
        <time>2020-10-17T09:37:41Z</time>
      </trkpt>
      <trkpt lat="39.973576000" lon="-8.459076000">
        <ele>278.200000</ele>
        <time>2020-10-17T09:37:42Z</time>
      </trkpt>
      <trkpt lat="39.973476000" lon="-8.459097000">
        <ele>278.600000</ele>
        <time>2020-10-17T09:37:44Z</time>
      </trkpt>
      <trkpt lat="39.973427000" lon="-8.459114000">
        <ele>278.600000</ele>
        <time>2020-10-17T09:37:45Z</time>
      </trkpt>
      <trkpt lat="39.973376000" lon="-8.459139000">
        <ele>278.800000</ele>
        <time>2020-10-17T09:37:46Z</time>
      </trkpt>
      <trkpt lat="39.973325000" lon="-8.459173000">
        <ele>279.000000</ele>
        <time>2020-10-17T09:37:47Z</time>
      </trkpt>
      <trkpt lat="39.973229000" lon="-8.459264000">
        <ele>279.200000</ele>
        <time>2020-10-17T09:37:49Z</time>
      </trkpt>
      <trkpt lat="39.973185000" lon="-8.459318000">
        <ele>279.200000</ele>
        <time>2020-10-17T09:37:50Z</time>
      </trkpt>
      <trkpt lat="39.973144000" lon="-8.459373000">
        <ele>279.200000</ele>
        <time>2020-10-17T09:37:51Z</time>
      </trkpt>
      <trkpt lat="39.973106000" lon="-8.459431000">
        <ele>279.200000</ele>
        <time>2020-10-17T09:37:52Z</time>
      </trkpt>
      <trkpt lat="39.973069000" lon="-8.459488000">
        <ele>279.400000</ele>
        <time>2020-10-17T09:37:53Z</time>
      </trkpt>
      <trkpt lat="39.973029000" lon="-8.459543000">
        <ele>279.600000</ele>
        <time>2020-10-17T09:37:54Z</time>
      </trkpt>
      <trkpt lat="39.972989000" lon="-8.459590000">
        <ele>279.600000</ele>
        <time>2020-10-17T09:37:55Z</time>
      </trkpt>
      <trkpt lat="39.972944000" lon="-8.459635000">
        <ele>279.600000</ele>
        <time>2020-10-17T09:37:56Z</time>
      </trkpt>
      <trkpt lat="39.972798000" lon="-8.459756000">
        <ele>279.600000</ele>
        <time>2020-10-17T09:37:59Z</time>
      </trkpt>
      <trkpt lat="39.972688000" lon="-8.459830000">
        <ele>279.600000</ele>
        <time>2020-10-17T09:38:01Z</time>
      </trkpt>
      <trkpt lat="39.972586000" lon="-8.459923000">
        <ele>279.400000</ele>
        <time>2020-10-17T09:38:03Z</time>
      </trkpt>
      <trkpt lat="39.972543000" lon="-8.459973000">
        <ele>279.600000</ele>
        <time>2020-10-17T09:38:04Z</time>
      </trkpt>
      <trkpt lat="39.972505000" lon="-8.460024000">
        <ele>279.400000</ele>
        <time>2020-10-17T09:38:05Z</time>
      </trkpt>
      <trkpt lat="39.972470000" lon="-8.460080000">
        <ele>279.400000</ele>
        <time>2020-10-17T09:38:06Z</time>
      </trkpt>
      <trkpt lat="39.972440000" lon="-8.460134000">
        <ele>279.400000</ele>
        <time>2020-10-17T09:38:07Z</time>
      </trkpt>
      <trkpt lat="39.972409000" lon="-8.460184000">
        <ele>279.200000</ele>
        <time>2020-10-17T09:38:08Z</time>
      </trkpt>
      <trkpt lat="39.972377000" lon="-8.460234000">
        <ele>279.200000</ele>
        <time>2020-10-17T09:38:09Z</time>
      </trkpt>
      <trkpt lat="39.972343000" lon="-8.460282000">
        <ele>279.200000</ele>
        <time>2020-10-17T09:38:10Z</time>
      </trkpt>
      <trkpt lat="39.972305000" lon="-8.460328000">
        <ele>279.400000</ele>
        <time>2020-10-17T09:38:11Z</time>
      </trkpt>
      <trkpt lat="39.972266000" lon="-8.460368000">
        <ele>279.400000</ele>
        <time>2020-10-17T09:38:12Z</time>
      </trkpt>
      <trkpt lat="39.972091000" lon="-8.460507000">
        <ele>279.200000</ele>
        <time>2020-10-17T09:38:16Z</time>
      </trkpt>
      <trkpt lat="39.972048000" lon="-8.460540000">
        <ele>279.400000</ele>
        <time>2020-10-17T09:38:17Z</time>
      </trkpt>
      <trkpt lat="39.972004000" lon="-8.460574000">
        <ele>279.400000</ele>
        <time>2020-10-17T09:38:18Z</time>
      </trkpt>
      <trkpt lat="39.971866000" lon="-8.460684000">
        <ele>279.600000</ele>
        <time>2020-10-17T09:38:21Z</time>
      </trkpt>
      <trkpt lat="39.971822000" lon="-8.460728000">
        <ele>279.800000</ele>
        <time>2020-10-17T09:38:22Z</time>
      </trkpt>
      <trkpt lat="39.971780000" lon="-8.460774000">
        <ele>279.800000</ele>
        <time>2020-10-17T09:38:23Z</time>
      </trkpt>
      <trkpt lat="39.971744000" lon="-8.460815000">
        <ele>279.600000</ele>
        <time>2020-10-17T09:38:24Z</time>
      </trkpt>
      <trkpt lat="39.971709000" lon="-8.460854000">
        <ele>279.800000</ele>
        <time>2020-10-17T09:38:25Z</time>
      </trkpt>
      <trkpt lat="39.971677000" lon="-8.460892000">
        <ele>279.800000</ele>
        <time>2020-10-17T09:38:26Z</time>
      </trkpt>
      <trkpt lat="39.971644000" lon="-8.460925000">
        <ele>279.800000</ele>
        <time>2020-10-17T09:38:27Z</time>
      </trkpt>
      <trkpt lat="39.971611000" lon="-8.460952000">
        <ele>280.000000</ele>
        <time>2020-10-17T09:38:28Z</time>
      </trkpt>
      <trkpt lat="39.971579000" lon="-8.460976000">
        <ele>280.200000</ele>
        <time>2020-10-17T09:38:29Z</time>
      </trkpt>
      <trkpt lat="39.971547000" lon="-8.460998000">
        <ele>280.200000</ele>
        <time>2020-10-17T09:38:30Z</time>
      </trkpt>
      <trkpt lat="39.971516000" lon="-8.461020000">
        <ele>280.200000</ele>
        <time>2020-10-17T09:38:31Z</time>
      </trkpt>
      <trkpt lat="39.971449000" lon="-8.461074000">
        <ele>280.400000</ele>
        <time>2020-10-17T09:38:33Z</time>
      </trkpt>
      <trkpt lat="39.971345000" lon="-8.461196000">
        <ele>280.400000</ele>
        <time>2020-10-17T09:38:36Z</time>
      </trkpt>
      <trkpt lat="39.971264000" lon="-8.461316000">
        <ele>280.600000</ele>
        <time>2020-10-17T09:38:38Z</time>
      </trkpt>
      <trkpt lat="39.971133000" lon="-8.461533000">
        <ele>280.600000</ele>
        <time>2020-10-17T09:38:41Z</time>
      </trkpt>
      <trkpt lat="39.971038000" lon="-8.461677000">
        <ele>280.400000</ele>
        <time>2020-10-17T09:38:43Z</time>
      </trkpt>
      <trkpt lat="39.970993000" lon="-8.461742000">
        <ele>280.400000</ele>
        <time>2020-10-17T09:38:44Z</time>
      </trkpt>
      <trkpt lat="39.970945000" lon="-8.461802000">
        <ele>280.600000</ele>
        <time>2020-10-17T09:38:45Z</time>
      </trkpt>
      <trkpt lat="39.970896000" lon="-8.461850000">
        <ele>280.600000</ele>
        <time>2020-10-17T09:38:46Z</time>
      </trkpt>
      <trkpt lat="39.970847000" lon="-8.461888000">
        <ele>280.000000</ele>
        <time>2020-10-17T09:38:47Z</time>
      </trkpt>
      <trkpt lat="39.970797000" lon="-8.461916000">
        <ele>279.400000</ele>
        <time>2020-10-17T09:38:48Z</time>
      </trkpt>
      <trkpt lat="39.970744000" lon="-8.461942000">
        <ele>279.000000</ele>
        <time>2020-10-17T09:38:49Z</time>
      </trkpt>
      <trkpt lat="39.970688000" lon="-8.461963000">
        <ele>278.800000</ele>
        <time>2020-10-17T09:38:50Z</time>
      </trkpt>
      <trkpt lat="39.970627000" lon="-8.461980000">
        <ele>278.800000</ele>
        <time>2020-10-17T09:38:51Z</time>
      </trkpt>
      <trkpt lat="39.970427000" lon="-8.462036000">
        <ele>277.200000</ele>
        <time>2020-10-17T09:38:54Z</time>
      </trkpt>
      <trkpt lat="39.970282000" lon="-8.462096000">
        <ele>276.600000</ele>
        <time>2020-10-17T09:38:56Z</time>
      </trkpt>
      <trkpt lat="39.970217000" lon="-8.462138000">
        <ele>276.400000</ele>
        <time>2020-10-17T09:38:57Z</time>
      </trkpt>
      <trkpt lat="39.970156000" lon="-8.462186000">
        <ele>276.200000</ele>
        <time>2020-10-17T09:38:58Z</time>
      </trkpt>
      <trkpt lat="39.969979000" lon="-8.462357000">
        <ele>275.000000</ele>
        <time>2020-10-17T09:39:01Z</time>
      </trkpt>
      <trkpt lat="39.969915000" lon="-8.462413000">
        <ele>274.400000</ele>
        <time>2020-10-17T09:39:02Z</time>
      </trkpt>
      <trkpt lat="39.969779000" lon="-8.462505000">
        <ele>273.800000</ele>
        <time>2020-10-17T09:39:04Z</time>
      </trkpt>
      <trkpt lat="39.969631000" lon="-8.462576000">
        <ele>273.600000</ele>
        <time>2020-10-17T09:39:06Z</time>
      </trkpt>
      <trkpt lat="39.969557000" lon="-8.462612000">
        <ele>273.000000</ele>
        <time>2020-10-17T09:39:07Z</time>
      </trkpt>
      <trkpt lat="39.969485000" lon="-8.462649000">
        <ele>272.600000</ele>
        <time>2020-10-17T09:39:08Z</time>
      </trkpt>
      <trkpt lat="39.969414000" lon="-8.462682000">
        <ele>272.400000</ele>
        <time>2020-10-17T09:39:09Z</time>
      </trkpt>
      <trkpt lat="39.969126000" lon="-8.462820000">
        <ele>270.400000</ele>
        <time>2020-10-17T09:39:13Z</time>
      </trkpt>
      <trkpt lat="39.969057000" lon="-8.462855000">
        <ele>270.000000</ele>
        <time>2020-10-17T09:39:14Z</time>
      </trkpt>
      <trkpt lat="39.968990000" lon="-8.462892000">
        <ele>269.600000</ele>
        <time>2020-10-17T09:39:15Z</time>
      </trkpt>
      <trkpt lat="39.968713000" lon="-8.463009000">
        <ele>268.200000</ele>
        <time>2020-10-17T09:39:19Z</time>
      </trkpt>
      <trkpt lat="39.968638000" lon="-8.463016000">
        <ele>268.200000</ele>
        <time>2020-10-17T09:39:20Z</time>
      </trkpt>
      <trkpt lat="39.968556000" lon="-8.463011000">
        <ele>268.000000</ele>
        <time>2020-10-17T09:39:21Z</time>
      </trkpt>
      <trkpt lat="39.968471000" lon="-8.462992000">
        <ele>267.800000</ele>
        <time>2020-10-17T09:39:22Z</time>
      </trkpt>
      <trkpt lat="39.968388000" lon="-8.462953000">
        <ele>267.400000</ele>
        <time>2020-10-17T09:39:23Z</time>
      </trkpt>
      <trkpt lat="39.968306000" lon="-8.462903000">
        <ele>267.400000</ele>
        <time>2020-10-17T09:39:24Z</time>
      </trkpt>
      <trkpt lat="39.968229000" lon="-8.462844000">
        <ele>267.200000</ele>
        <time>2020-10-17T09:39:25Z</time>
      </trkpt>
      <trkpt lat="39.968151000" lon="-8.462784000">
        <ele>267.200000</ele>
        <time>2020-10-17T09:39:26Z</time>
      </trkpt>
      <trkpt lat="39.968074000" lon="-8.462730000">
        <ele>266.800000</ele>
        <time>2020-10-17T09:39:27Z</time>
      </trkpt>
      <trkpt lat="39.967996000" lon="-8.462684000">
        <ele>266.400000</ele>
        <time>2020-10-17T09:39:28Z</time>
      </trkpt>
      <trkpt lat="39.967916000" lon="-8.462646000">
        <ele>266.000000</ele>
        <time>2020-10-17T09:39:29Z</time>
      </trkpt>
      <trkpt lat="39.967835000" lon="-8.462609000">
        <ele>265.000000</ele>
        <time>2020-10-17T09:39:30Z</time>
      </trkpt>
      <trkpt lat="39.967756000" lon="-8.462571000">
        <ele>263.800000</ele>
        <time>2020-10-17T09:39:31Z</time>
      </trkpt>
      <trkpt lat="39.967678000" lon="-8.462535000">
        <ele>263.000000</ele>
        <time>2020-10-17T09:39:32Z</time>
      </trkpt>
      <trkpt lat="39.967602000" lon="-8.462496000">
        <ele>262.200000</ele>
        <time>2020-10-17T09:39:33Z</time>
      </trkpt>
      <trkpt lat="39.967526000" lon="-8.462456000">
        <ele>261.200000</ele>
        <time>2020-10-17T09:39:34Z</time>
      </trkpt>
      <trkpt lat="39.967451000" lon="-8.462417000">
        <ele>260.800000</ele>
        <time>2020-10-17T09:39:35Z</time>
      </trkpt>
      <trkpt lat="39.967305000" lon="-8.462327000">
        <ele>260.000000</ele>
        <time>2020-10-17T09:39:37Z</time>
      </trkpt>
      <trkpt lat="39.967234000" lon="-8.462281000">
        <ele>259.800000</ele>
        <time>2020-10-17T09:39:38Z</time>
      </trkpt>
      <trkpt lat="39.967162000" lon="-8.462235000">
        <ele>259.600000</ele>
        <time>2020-10-17T09:39:39Z</time>
      </trkpt>
      <trkpt lat="39.967087000" lon="-8.462196000">
        <ele>259.200000</ele>
        <time>2020-10-17T09:39:40Z</time>
      </trkpt>
      <trkpt lat="39.966933000" lon="-8.462165000">
        <ele>258.400000</ele>
        <time>2020-10-17T09:39:42Z</time>
      </trkpt>
      <trkpt lat="39.966859000" lon="-8.462177000">
        <ele>258.400000</ele>
        <time>2020-10-17T09:39:43Z</time>
      </trkpt>
      <trkpt lat="39.966786000" lon="-8.462197000">
        <ele>258.200000</ele>
        <time>2020-10-17T09:39:44Z</time>
      </trkpt>
      <trkpt lat="39.966712000" lon="-8.462212000">
        <ele>257.800000</ele>
        <time>2020-10-17T09:39:45Z</time>
      </trkpt>
      <trkpt lat="39.966641000" lon="-8.462223000">
        <ele>257.800000</ele>
        <time>2020-10-17T09:39:46Z</time>
      </trkpt>
      <trkpt lat="39.966575000" lon="-8.462221000">
        <ele>257.200000</ele>
        <time>2020-10-17T09:39:47Z</time>
      </trkpt>
      <trkpt lat="39.966517000" lon="-8.462206000">
        <ele>257.200000</ele>
        <time>2020-10-17T09:39:48Z</time>
      </trkpt>
      <trkpt lat="39.966466000" lon="-8.462189000">
        <ele>257.200000</ele>
        <time>2020-10-17T09:39:49Z</time>
      </trkpt>
      <trkpt lat="39.966426000" lon="-8.462168000">
        <ele>257.000000</ele>
        <time>2020-10-17T09:39:50Z</time>
      </trkpt>
      <trkpt lat="39.966395000" lon="-8.462143000">
        <ele>257.000000</ele>
        <time>2020-10-17T09:39:51Z</time>
      </trkpt>
      <trkpt lat="39.966367000" lon="-8.462114000">
        <ele>256.600000</ele>
        <time>2020-10-17T09:39:52Z</time>
      </trkpt>
      <trkpt lat="39.966338000" lon="-8.462081000">
        <ele>256.400000</ele>
        <time>2020-10-17T09:39:53Z</time>
      </trkpt>
      <trkpt lat="39.966204000" lon="-8.461936000">
        <ele>256.000000</ele>
        <time>2020-10-17T09:39:57Z</time>
      </trkpt>
      <trkpt lat="39.966092000" lon="-8.461821000">
        <ele>255.600000</ele>
        <time>2020-10-17T09:40:00Z</time>
      </trkpt>
      <trkpt lat="39.965819000" lon="-8.461579000">
        <ele>255.200000</ele>
        <time>2020-10-17T09:40:06Z</time>
      </trkpt>
      <trkpt lat="39.965770000" lon="-8.461529000">
        <ele>255.000000</ele>
        <time>2020-10-17T09:40:07Z</time>
      </trkpt>
      <trkpt lat="39.965677000" lon="-8.461407000">
        <ele>255.000000</ele>
        <time>2020-10-17T09:40:09Z</time>
      </trkpt>
      <trkpt lat="39.965636000" lon="-8.461335000">
        <ele>255.000000</ele>
        <time>2020-10-17T09:40:10Z</time>
      </trkpt>
      <trkpt lat="39.965556000" lon="-8.461170000">
        <ele>254.800000</ele>
        <time>2020-10-17T09:40:12Z</time>
      </trkpt>
      <trkpt lat="39.965485000" lon="-8.460984000">
        <ele>254.800000</ele>
        <time>2020-10-17T09:40:14Z</time>
      </trkpt>
      <trkpt lat="39.965452000" lon="-8.460891000">
        <ele>254.600000</ele>
        <time>2020-10-17T09:40:15Z</time>
      </trkpt>
      <trkpt lat="39.965423000" lon="-8.460802000">
        <ele>254.200000</ele>
        <time>2020-10-17T09:40:16Z</time>
      </trkpt>
      <trkpt lat="39.965400000" lon="-8.460728000">
        <ele>254.200000</ele>
        <time>2020-10-17T09:40:17Z</time>
      </trkpt>
      <trkpt lat="39.965384000" lon="-8.460672000">
        <ele>254.000000</ele>
        <time>2020-10-17T09:40:18Z</time>
      </trkpt>
      <trkpt lat="39.965374000" lon="-8.460632000">
        <ele>253.000000</ele>
        <time>2020-10-17T09:40:19Z</time>
      </trkpt>
      <trkpt lat="39.965373000" lon="-8.460610000">
        <ele>252.400000</ele>
        <time>2020-10-17T09:40:20Z</time>
      </trkpt>
      <trkpt lat="39.965376000" lon="-8.460601000">
        <ele>251.800000</ele>
        <time>2020-10-17T09:40:21Z</time>
      </trkpt>
      <trkpt lat="39.965382000" lon="-8.460602000">
        <ele>251.200000</ele>
        <time>2020-10-17T09:40:22Z</time>
      </trkpt>
      <trkpt lat="39.965389000" lon="-8.460607000">
        <ele>250.600000</ele>
        <time>2020-10-17T09:40:23Z</time>
      </trkpt>
      <trkpt lat="39.965395000" lon="-8.460616000">
        <ele>250.200000</ele>
        <time>2020-10-17T09:40:24Z</time>
      </trkpt>
      <trkpt lat="39.965400000" lon="-8.460629000">
        <ele>250.000000</ele>
        <time>2020-10-17T09:40:25Z</time>
      </trkpt>
      <trkpt lat="39.965404000" lon="-8.460649000">
        <ele>249.800000</ele>
        <time>2020-10-17T09:40:26Z</time>
      </trkpt>
      <trkpt lat="39.965411000" lon="-8.460675000">
        <ele>249.800000</ele>
        <time>2020-10-17T09:40:27Z</time>
      </trkpt>
      <trkpt lat="39.965491000" lon="-8.460879000">
        <ele>249.600000</ele>
        <time>2020-10-17T09:40:33Z</time>
      </trkpt>
      <trkpt lat="39.965559000" lon="-8.461035000">
        <ele>249.400000</ele>
        <time>2020-10-17T09:40:37Z</time>
      </trkpt>
      <trkpt lat="39.965603000" lon="-8.461165000">
        <ele>249.600000</ele>
        <time>2020-10-17T09:40:40Z</time>
      </trkpt>
      <trkpt lat="39.965620000" lon="-8.461202000">
        <ele>250.000000</ele>
        <time>2020-10-17T09:40:41Z</time>
      </trkpt>
      <trkpt lat="39.965638000" lon="-8.461239000">
        <ele>250.000000</ele>
        <time>2020-10-17T09:40:42Z</time>
      </trkpt>
      <trkpt lat="39.965654000" lon="-8.461271000">
        <ele>250.200000</ele>
        <time>2020-10-17T09:40:43Z</time>
      </trkpt>
      <trkpt lat="39.965667000" lon="-8.461296000">
        <ele>250.400000</ele>
        <time>2020-10-17T09:40:44Z</time>
      </trkpt>
      <trkpt lat="39.965675000" lon="-8.461319000">
        <ele>250.600000</ele>
        <time>2020-10-17T09:40:45Z</time>
      </trkpt>
      <trkpt lat="39.965672000" lon="-8.461341000">
        <ele>250.600000</ele>
        <time>2020-10-17T09:40:46Z</time>
      </trkpt>
      <trkpt lat="39.965663000" lon="-8.461357000">
        <ele>250.800000</ele>
        <time>2020-10-17T09:40:47Z</time>
      </trkpt>
      <trkpt lat="39.965649000" lon="-8.461367000">
        <ele>250.800000</ele>
        <time>2020-10-17T09:40:48Z</time>
      </trkpt>
      <trkpt lat="39.965608000" lon="-8.461356000">
        <ele>251.200000</ele>
        <time>2020-10-17T09:40:50Z</time>
      </trkpt>
      <trkpt lat="39.965433000" lon="-8.461260000">
        <ele>252.000000</ele>
        <time>2020-10-17T09:40:55Z</time>
      </trkpt>
      <trkpt lat="39.965249000" lon="-8.461182000">
        <ele>252.200000</ele>
        <time>2020-10-17T09:40:59Z</time>
      </trkpt>
      <trkpt lat="39.965203000" lon="-8.461170000">
        <ele>252.200000</ele>
        <time>2020-10-17T09:41:00Z</time>
      </trkpt>
      <trkpt lat="39.965115000" lon="-8.461144000">
        <ele>252.200000</ele>
        <time>2020-10-17T09:41:02Z</time>
      </trkpt>
      <trkpt lat="39.965031000" lon="-8.461111000">
        <ele>252.400000</ele>
        <time>2020-10-17T09:41:04Z</time>
      </trkpt>
      <trkpt lat="39.964952000" lon="-8.461047000">
        <ele>252.200000</ele>
        <time>2020-10-17T09:41:06Z</time>
      </trkpt>
      <trkpt lat="39.964912000" lon="-8.461013000">
        <ele>252.000000</ele>
        <time>2020-10-17T09:41:07Z</time>
      </trkpt>
      <trkpt lat="39.964865000" lon="-8.460987000">
        <ele>252.000000</ele>
        <time>2020-10-17T09:41:08Z</time>
      </trkpt>
      <trkpt lat="39.964766000" lon="-8.460967000">
        <ele>252.000000</ele>
        <time>2020-10-17T09:41:10Z</time>
      </trkpt>
      <trkpt lat="39.964719000" lon="-8.460959000">
        <ele>252.000000</ele>
        <time>2020-10-17T09:41:11Z</time>
      </trkpt>
      <trkpt lat="39.964672000" lon="-8.460945000">
        <ele>251.800000</ele>
        <time>2020-10-17T09:41:12Z</time>
      </trkpt>
      <trkpt lat="39.964490000" lon="-8.460833000">
        <ele>251.600000</ele>
        <time>2020-10-17T09:41:16Z</time>
      </trkpt>
      <trkpt lat="39.964406000" lon="-8.460756000">
        <ele>251.600000</ele>
        <time>2020-10-17T09:41:18Z</time>
      </trkpt>
      <trkpt lat="39.964371000" lon="-8.460723000">
        <ele>251.600000</ele>
        <time>2020-10-17T09:41:19Z</time>
      </trkpt>
      <trkpt lat="39.964345000" lon="-8.460694000">
        <ele>251.400000</ele>
        <time>2020-10-17T09:41:20Z</time>
      </trkpt>
      <trkpt lat="39.964324000" lon="-8.460669000">
        <ele>251.200000</ele>
        <time>2020-10-17T09:41:21Z</time>
      </trkpt>
      <trkpt lat="39.964306000" lon="-8.460645000">
        <ele>251.200000</ele>
        <time>2020-10-17T09:41:22Z</time>
      </trkpt>
      <trkpt lat="39.964290000" lon="-8.460627000">
        <ele>250.800000</ele>
        <time>2020-10-17T09:41:23Z</time>
      </trkpt>
      <trkpt lat="39.964281000" lon="-8.460619000">
        <ele>250.600000</ele>
        <time>2020-10-17T09:41:24Z</time>
      </trkpt>
      <trkpt lat="39.964285000" lon="-8.460617000">
        <ele>249.800000</ele>
        <time>2020-10-17T09:41:26Z</time>
      </trkpt>
      <trkpt lat="39.964251000" lon="-8.460553000">
        <ele>248.400000</ele>
        <time>2020-10-17T09:41:36Z</time>
      </trkpt>
      <trkpt lat="39.964246000" lon="-8.460527000">
        <ele>248.400000</ele>
        <time>2020-10-17T09:41:37Z</time>
      </trkpt>
      <trkpt lat="39.964243000" lon="-8.460496000">
        <ele>248.600000</ele>
        <time>2020-10-17T09:41:38Z</time>
      </trkpt>
      <trkpt lat="39.964244000" lon="-8.460461000">
        <ele>248.400000</ele>
        <time>2020-10-17T09:41:39Z</time>
      </trkpt>
      <trkpt lat="39.964245000" lon="-8.460428000">
        <ele>248.400000</ele>
        <time>2020-10-17T09:41:40Z</time>
      </trkpt>
      <trkpt lat="39.964243000" lon="-8.460397000">
        <ele>248.400000</ele>
        <time>2020-10-17T09:41:41Z</time>
      </trkpt>
      <trkpt lat="39.964239000" lon="-8.460368000">
        <ele>248.400000</ele>
        <time>2020-10-17T09:41:42Z</time>
      </trkpt>
      <trkpt lat="39.964230000" lon="-8.460341000">
        <ele>248.400000</ele>
        <time>2020-10-17T09:41:43Z</time>
      </trkpt>
      <trkpt lat="39.964218000" lon="-8.460311000">
        <ele>248.200000</ele>
        <time>2020-10-17T09:41:44Z</time>
      </trkpt>
      <trkpt lat="39.964202000" lon="-8.460280000">
        <ele>248.000000</ele>
        <time>2020-10-17T09:41:45Z</time>
      </trkpt>
      <trkpt lat="39.964112000" lon="-8.460140000">
        <ele>247.600000</ele>
        <time>2020-10-17T09:41:49Z</time>
      </trkpt>
      <trkpt lat="39.964086000" lon="-8.460097000">
        <ele>247.400000</ele>
        <time>2020-10-17T09:41:50Z</time>
      </trkpt>
      <trkpt lat="39.964028000" lon="-8.459959000">
        <ele>247.000000</ele>
        <time>2020-10-17T09:41:53Z</time>
      </trkpt>
      <trkpt lat="39.964007000" lon="-8.459927000">
        <ele>246.800000</ele>
        <time>2020-10-17T09:41:54Z</time>
      </trkpt>
      <trkpt lat="39.963979000" lon="-8.459908000">
        <ele>246.600000</ele>
        <time>2020-10-17T09:41:55Z</time>
      </trkpt>
      <trkpt lat="39.963951000" lon="-8.459902000">
        <ele>246.200000</ele>
        <time>2020-10-17T09:41:56Z</time>
      </trkpt>
      <trkpt lat="39.963918000" lon="-8.459913000">
        <ele>246.200000</ele>
        <time>2020-10-17T09:41:57Z</time>
      </trkpt>
      <trkpt lat="39.963844000" lon="-8.459965000">
        <ele>245.800000</ele>
        <time>2020-10-17T09:41:59Z</time>
      </trkpt>
      <trkpt lat="39.963806000" lon="-8.459997000">
        <ele>245.600000</ele>
        <time>2020-10-17T09:42:00Z</time>
      </trkpt>
      <trkpt lat="39.963766000" lon="-8.460030000">
        <ele>245.600000</ele>
        <time>2020-10-17T09:42:01Z</time>
      </trkpt>
      <trkpt lat="39.963502000" lon="-8.460324000">
        <ele>245.600000</ele>
        <time>2020-10-17T09:42:08Z</time>
      </trkpt>
      <trkpt lat="39.963366000" lon="-8.460538000">
        <ele>245.600000</ele>
        <time>2020-10-17T09:42:12Z</time>
      </trkpt>
      <trkpt lat="39.963272000" lon="-8.460715000">
        <ele>245.400000</ele>
        <time>2020-10-17T09:42:15Z</time>
      </trkpt>
      <trkpt lat="39.963120000" lon="-8.461040000">
        <ele>245.400000</ele>
        <time>2020-10-17T09:42:20Z</time>
      </trkpt>
      <trkpt lat="39.963091000" lon="-8.461101000">
        <ele>245.400000</ele>
        <time>2020-10-17T09:42:21Z</time>
      </trkpt>
      <trkpt lat="39.963061000" lon="-8.461159000">
        <ele>245.400000</ele>
        <time>2020-10-17T09:42:22Z</time>
      </trkpt>
      <trkpt lat="39.963031000" lon="-8.461215000">
        <ele>245.400000</ele>
        <time>2020-10-17T09:42:23Z</time>
      </trkpt>
      <trkpt lat="39.963001000" lon="-8.461270000">
        <ele>245.400000</ele>
        <time>2020-10-17T09:42:24Z</time>
      </trkpt>
      <trkpt lat="39.962939000" lon="-8.461381000">
        <ele>245.600000</ele>
        <time>2020-10-17T09:42:26Z</time>
      </trkpt>
      <trkpt lat="39.962908000" lon="-8.461434000">
        <ele>245.400000</ele>
        <time>2020-10-17T09:42:27Z</time>
      </trkpt>
      <trkpt lat="39.962877000" lon="-8.461485000">
        <ele>245.600000</ele>
        <time>2020-10-17T09:42:28Z</time>
      </trkpt>
      <trkpt lat="39.962847000" lon="-8.461536000">
        <ele>245.600000</ele>
        <time>2020-10-17T09:42:29Z</time>
      </trkpt>
      <trkpt lat="39.962818000" lon="-8.461587000">
        <ele>245.600000</ele>
        <time>2020-10-17T09:42:30Z</time>
      </trkpt>
      <trkpt lat="39.962792000" lon="-8.461638000">
        <ele>246.000000</ele>
        <time>2020-10-17T09:42:31Z</time>
      </trkpt>
      <trkpt lat="39.962631000" lon="-8.461986000">
        <ele>247.000000</ele>
        <time>2020-10-17T09:42:37Z</time>
      </trkpt>
      <trkpt lat="39.962576000" lon="-8.462104000">
        <ele>247.000000</ele>
        <time>2020-10-17T09:42:39Z</time>
      </trkpt>
      <trkpt lat="39.962548000" lon="-8.462162000">
        <ele>247.200000</ele>
        <time>2020-10-17T09:42:40Z</time>
      </trkpt>
      <trkpt lat="39.962433000" lon="-8.462396000">
        <ele>247.000000</ele>
        <time>2020-10-17T09:42:44Z</time>
      </trkpt>
      <trkpt lat="39.962400000" lon="-8.462448000">
        <ele>247.200000</ele>
        <time>2020-10-17T09:42:45Z</time>
      </trkpt>
      <trkpt lat="39.962360000" lon="-8.462489000">
        <ele>247.200000</ele>
        <time>2020-10-17T09:42:46Z</time>
      </trkpt>
      <trkpt lat="39.962313000" lon="-8.462516000">
        <ele>247.200000</ele>
        <time>2020-10-17T09:42:47Z</time>
      </trkpt>
      <trkpt lat="39.962262000" lon="-8.462537000">
        <ele>247.200000</ele>
        <time>2020-10-17T09:42:48Z</time>
      </trkpt>
      <trkpt lat="39.962212000" lon="-8.462570000">
        <ele>247.200000</ele>
        <time>2020-10-17T09:42:49Z</time>
      </trkpt>
      <trkpt lat="39.962168000" lon="-8.462620000">
        <ele>247.200000</ele>
        <time>2020-10-17T09:42:50Z</time>
      </trkpt>
      <trkpt lat="39.962129000" lon="-8.462682000">
        <ele>247.200000</ele>
        <time>2020-10-17T09:42:51Z</time>
      </trkpt>
      <trkpt lat="39.962090000" lon="-8.462748000">
        <ele>247.000000</ele>
        <time>2020-10-17T09:42:52Z</time>
      </trkpt>
      <trkpt lat="39.962050000" lon="-8.462812000">
        <ele>247.000000</ele>
        <time>2020-10-17T09:42:53Z</time>
      </trkpt>
      <trkpt lat="39.962014000" lon="-8.462873000">
        <ele>247.000000</ele>
        <time>2020-10-17T09:42:54Z</time>
      </trkpt>
      <trkpt lat="39.961985000" lon="-8.462930000">
        <ele>247.000000</ele>
        <time>2020-10-17T09:42:55Z</time>
      </trkpt>
      <trkpt lat="39.961960000" lon="-8.462991000">
        <ele>247.000000</ele>
        <time>2020-10-17T09:42:56Z</time>
      </trkpt>
      <trkpt lat="39.961942000" lon="-8.463050000">
        <ele>247.000000</ele>
        <time>2020-10-17T09:42:57Z</time>
      </trkpt>
      <trkpt lat="39.961923000" lon="-8.463110000">
        <ele>246.200000</ele>
        <time>2020-10-17T09:42:58Z</time>
      </trkpt>
      <trkpt lat="39.961899000" lon="-8.463168000">
        <ele>245.800000</ele>
        <time>2020-10-17T09:42:59Z</time>
      </trkpt>
      <trkpt lat="39.961872000" lon="-8.463228000">
        <ele>245.200000</ele>
        <time>2020-10-17T09:43:00Z</time>
      </trkpt>
      <trkpt lat="39.961845000" lon="-8.463286000">
        <ele>244.800000</ele>
        <time>2020-10-17T09:43:01Z</time>
      </trkpt>
      <trkpt lat="39.961820000" lon="-8.463341000">
        <ele>244.600000</ele>
        <time>2020-10-17T09:43:02Z</time>
      </trkpt>
      <trkpt lat="39.961798000" lon="-8.463396000">
        <ele>244.400000</ele>
        <time>2020-10-17T09:43:03Z</time>
      </trkpt>
      <trkpt lat="39.961775000" lon="-8.463450000">
        <ele>244.000000</ele>
        <time>2020-10-17T09:43:04Z</time>
      </trkpt>
      <trkpt lat="39.961718000" lon="-8.463559000">
        <ele>243.800000</ele>
        <time>2020-10-17T09:43:06Z</time>
      </trkpt>
      <trkpt lat="39.961691000" lon="-8.463614000">
        <ele>243.600000</ele>
        <time>2020-10-17T09:43:07Z</time>
      </trkpt>
      <trkpt lat="39.961666000" lon="-8.463669000">
        <ele>243.200000</ele>
        <time>2020-10-17T09:43:08Z</time>
      </trkpt>
      <trkpt lat="39.961641000" lon="-8.463726000">
        <ele>242.600000</ele>
        <time>2020-10-17T09:43:09Z</time>
      </trkpt>
      <trkpt lat="39.961590000" lon="-8.463849000">
        <ele>242.400000</ele>
        <time>2020-10-17T09:43:11Z</time>
      </trkpt>
      <trkpt lat="39.961512000" lon="-8.464045000">
        <ele>241.800000</ele>
        <time>2020-10-17T09:43:14Z</time>
      </trkpt>
      <trkpt lat="39.961485000" lon="-8.464105000">
        <ele>241.600000</ele>
        <time>2020-10-17T09:43:15Z</time>
      </trkpt>
      <trkpt lat="39.961461000" lon="-8.464163000">
        <ele>241.400000</ele>
        <time>2020-10-17T09:43:16Z</time>
      </trkpt>
      <trkpt lat="39.961437000" lon="-8.464219000">
        <ele>241.400000</ele>
        <time>2020-10-17T09:43:17Z</time>
      </trkpt>
      <trkpt lat="39.961413000" lon="-8.464277000">
        <ele>241.400000</ele>
        <time>2020-10-17T09:43:18Z</time>
      </trkpt>
      <trkpt lat="39.961390000" lon="-8.464337000">
        <ele>241.200000</ele>
        <time>2020-10-17T09:43:19Z</time>
      </trkpt>
      <trkpt lat="39.961367000" lon="-8.464398000">
        <ele>241.200000</ele>
        <time>2020-10-17T09:43:20Z</time>
      </trkpt>
      <trkpt lat="39.961340000" lon="-8.464457000">
        <ele>241.000000</ele>
        <time>2020-10-17T09:43:21Z</time>
      </trkpt>
      <trkpt lat="39.961313000" lon="-8.464513000">
        <ele>241.000000</ele>
        <time>2020-10-17T09:43:22Z</time>
      </trkpt>
      <trkpt lat="39.961257000" lon="-8.464626000">
        <ele>240.600000</ele>
        <time>2020-10-17T09:43:24Z</time>
      </trkpt>
      <trkpt lat="39.961232000" lon="-8.464687000">
        <ele>240.600000</ele>
        <time>2020-10-17T09:43:25Z</time>
      </trkpt>
      <trkpt lat="39.961209000" lon="-8.464747000">
        <ele>240.400000</ele>
        <time>2020-10-17T09:43:26Z</time>
      </trkpt>
      <trkpt lat="39.961183000" lon="-8.464804000">
        <ele>240.400000</ele>
        <time>2020-10-17T09:43:27Z</time>
      </trkpt>
      <trkpt lat="39.961152000" lon="-8.464859000">
        <ele>240.200000</ele>
        <time>2020-10-17T09:43:28Z</time>
      </trkpt>
      <trkpt lat="39.961119000" lon="-8.464914000">
        <ele>240.000000</ele>
        <time>2020-10-17T09:43:29Z</time>
      </trkpt>
      <trkpt lat="39.961093000" lon="-8.464969000">
        <ele>240.000000</ele>
        <time>2020-10-17T09:43:30Z</time>
      </trkpt>
      <trkpt lat="39.961074000" lon="-8.465027000">
        <ele>239.800000</ele>
        <time>2020-10-17T09:43:31Z</time>
      </trkpt>
      <trkpt lat="39.961015000" lon="-8.465285000">
        <ele>239.200000</ele>
        <time>2020-10-17T09:43:35Z</time>
      </trkpt>
      <trkpt lat="39.961002000" lon="-8.465354000">
        <ele>238.800000</ele>
        <time>2020-10-17T09:43:36Z</time>
      </trkpt>
      <trkpt lat="39.960983000" lon="-8.465428000">
        <ele>238.600000</ele>
        <time>2020-10-17T09:43:37Z</time>
      </trkpt>
      <trkpt lat="39.960966000" lon="-8.465497000">
        <ele>238.200000</ele>
        <time>2020-10-17T09:43:38Z</time>
      </trkpt>
      <trkpt lat="39.960950000" lon="-8.465558000">
        <ele>238.200000</ele>
        <time>2020-10-17T09:43:39Z</time>
      </trkpt>
      <trkpt lat="39.960933000" lon="-8.465619000">
        <ele>238.200000</ele>
        <time>2020-10-17T09:43:40Z</time>
      </trkpt>
      <trkpt lat="39.960879000" lon="-8.465810000">
        <ele>237.400000</ele>
        <time>2020-10-17T09:43:43Z</time>
      </trkpt>
      <trkpt lat="39.960845000" lon="-8.465931000">
        <ele>237.200000</ele>
        <time>2020-10-17T09:43:45Z</time>
      </trkpt>
      <trkpt lat="39.960827000" lon="-8.465980000">
        <ele>236.800000</ele>
        <time>2020-10-17T09:43:46Z</time>
      </trkpt>
      <trkpt lat="39.960810000" lon="-8.466027000">
        <ele>237.000000</ele>
        <time>2020-10-17T09:43:47Z</time>
      </trkpt>
      <trkpt lat="39.960796000" lon="-8.466070000">
        <ele>237.000000</ele>
        <time>2020-10-17T09:43:48Z</time>
      </trkpt>
      <trkpt lat="39.960782000" lon="-8.466111000">
        <ele>236.600000</ele>
        <time>2020-10-17T09:43:49Z</time>
      </trkpt>
      <trkpt lat="39.960765000" lon="-8.466152000">
        <ele>236.200000</ele>
        <time>2020-10-17T09:43:50Z</time>
      </trkpt>
      <trkpt lat="39.960753000" lon="-8.466188000">
        <ele>236.200000</ele>
        <time>2020-10-17T09:43:51Z</time>
      </trkpt>
      <trkpt lat="39.960741000" lon="-8.466223000">
        <ele>236.000000</ele>
        <time>2020-10-17T09:43:52Z</time>
      </trkpt>
      <trkpt lat="39.960710000" lon="-8.466307000">
        <ele>235.800000</ele>
        <time>2020-10-17T09:43:54Z</time>
      </trkpt>
      <trkpt lat="39.960667000" lon="-8.466454000">
        <ele>235.600000</ele>
        <time>2020-10-17T09:43:57Z</time>
      </trkpt>
      <trkpt lat="39.960660000" lon="-8.466501000">
        <ele>235.200000</ele>
        <time>2020-10-17T09:43:58Z</time>
      </trkpt>
      <trkpt lat="39.960656000" lon="-8.466544000">
        <ele>235.000000</ele>
        <time>2020-10-17T09:43:59Z</time>
      </trkpt>
      <trkpt lat="39.960650000" lon="-8.466587000">
        <ele>235.000000</ele>
        <time>2020-10-17T09:44:00Z</time>
      </trkpt>
      <trkpt lat="39.960639000" lon="-8.466629000">
        <ele>234.800000</ele>
        <time>2020-10-17T09:44:01Z</time>
      </trkpt>
      <trkpt lat="39.960624000" lon="-8.466673000">
        <ele>234.800000</ele>
        <time>2020-10-17T09:44:02Z</time>
      </trkpt>
      <trkpt lat="39.960556000" lon="-8.466852000">
        <ele>234.000000</ele>
        <time>2020-10-17T09:44:06Z</time>
      </trkpt>
      <trkpt lat="39.960539000" lon="-8.466892000">
        <ele>233.800000</ele>
        <time>2020-10-17T09:44:07Z</time>
      </trkpt>
      <trkpt lat="39.960524000" lon="-8.466930000">
        <ele>233.800000</ele>
        <time>2020-10-17T09:44:08Z</time>
      </trkpt>
      <trkpt lat="39.960512000" lon="-8.466972000">
        <ele>233.800000</ele>
        <time>2020-10-17T09:44:09Z</time>
      </trkpt>
      <trkpt lat="39.960463000" lon="-8.467179000">
        <ele>233.400000</ele>
        <time>2020-10-17T09:44:13Z</time>
      </trkpt>
      <trkpt lat="39.960431000" lon="-8.467288000">
        <ele>233.400000</ele>
        <time>2020-10-17T09:44:15Z</time>
      </trkpt>
      <trkpt lat="39.960398000" lon="-8.467395000">
        <ele>233.200000</ele>
        <time>2020-10-17T09:44:17Z</time>
      </trkpt>
      <trkpt lat="39.960385000" lon="-8.467447000">
        <ele>233.200000</ele>
        <time>2020-10-17T09:44:18Z</time>
      </trkpt>
      <trkpt lat="39.960314000" lon="-8.467741000">
        <ele>232.800000</ele>
        <time>2020-10-17T09:44:23Z</time>
      </trkpt>
      <trkpt lat="39.960300000" lon="-8.467800000">
        <ele>232.800000</ele>
        <time>2020-10-17T09:44:24Z</time>
      </trkpt>
      <trkpt lat="39.960275000" lon="-8.467920000">
        <ele>232.600000</ele>
        <time>2020-10-17T09:44:26Z</time>
      </trkpt>
      <trkpt lat="39.960271000" lon="-8.467970000">
        <ele>232.600000</ele>
        <time>2020-10-17T09:44:27Z</time>
      </trkpt>
      <trkpt lat="39.960275000" lon="-8.468014000">
        <ele>232.400000</ele>
        <time>2020-10-17T09:44:28Z</time>
      </trkpt>
      <trkpt lat="39.960288000" lon="-8.468058000">
        <ele>232.400000</ele>
        <time>2020-10-17T09:44:29Z</time>
      </trkpt>
      <trkpt lat="39.960308000" lon="-8.468099000">
        <ele>232.400000</ele>
        <time>2020-10-17T09:44:30Z</time>
      </trkpt>
      <trkpt lat="39.960330000" lon="-8.468139000">
        <ele>232.600000</ele>
        <time>2020-10-17T09:44:31Z</time>
      </trkpt>
      <trkpt lat="39.960351000" lon="-8.468182000">
        <ele>232.600000</ele>
        <time>2020-10-17T09:44:32Z</time>
      </trkpt>
      <trkpt lat="39.960419000" lon="-8.468307000">
        <ele>232.400000</ele>
        <time>2020-10-17T09:44:35Z</time>
      </trkpt>
      <trkpt lat="39.960478000" lon="-8.468438000">
        <ele>232.600000</ele>
        <time>2020-10-17T09:44:38Z</time>
      </trkpt>
      <trkpt lat="39.960520000" lon="-8.468525000">
        <ele>233.000000</ele>
        <time>2020-10-17T09:44:40Z</time>
      </trkpt>
      <trkpt lat="39.960540000" lon="-8.468568000">
        <ele>233.400000</ele>
        <time>2020-10-17T09:44:41Z</time>
      </trkpt>
      <trkpt lat="39.960582000" lon="-8.468650000">
        <ele>233.600000</ele>
        <time>2020-10-17T09:44:43Z</time>
      </trkpt>
      <trkpt lat="39.960605000" lon="-8.468688000">
        <ele>233.800000</ele>
        <time>2020-10-17T09:44:44Z</time>
      </trkpt>
      <trkpt lat="39.960627000" lon="-8.468727000">
        <ele>234.000000</ele>
        <time>2020-10-17T09:44:45Z</time>
      </trkpt>
      <trkpt lat="39.960647000" lon="-8.468767000">
        <ele>234.000000</ele>
        <time>2020-10-17T09:44:46Z</time>
      </trkpt>
      <trkpt lat="39.960665000" lon="-8.468811000">
        <ele>234.000000</ele>
        <time>2020-10-17T09:44:47Z</time>
      </trkpt>
      <trkpt lat="39.960681000" lon="-8.468856000">
        <ele>234.200000</ele>
        <time>2020-10-17T09:44:48Z</time>
      </trkpt>
      <trkpt lat="39.960697000" lon="-8.468898000">
        <ele>234.400000</ele>
        <time>2020-10-17T09:44:49Z</time>
      </trkpt>
      <trkpt lat="39.960712000" lon="-8.468944000">
        <ele>234.200000</ele>
        <time>2020-10-17T09:44:50Z</time>
      </trkpt>
      <trkpt lat="39.960726000" lon="-8.468986000">
        <ele>234.400000</ele>
        <time>2020-10-17T09:44:51Z</time>
      </trkpt>
      <trkpt lat="39.960737000" lon="-8.469028000">
        <ele>234.400000</ele>
        <time>2020-10-17T09:44:52Z</time>
      </trkpt>
      <trkpt lat="39.960747000" lon="-8.469072000">
        <ele>234.400000</ele>
        <time>2020-10-17T09:44:53Z</time>
      </trkpt>
      <trkpt lat="39.960756000" lon="-8.469116000">
        <ele>234.600000</ele>
        <time>2020-10-17T09:44:54Z</time>
      </trkpt>
      <trkpt lat="39.960763000" lon="-8.469166000">
        <ele>235.000000</ele>
        <time>2020-10-17T09:44:55Z</time>
      </trkpt>
      <trkpt lat="39.960770000" lon="-8.469216000">
        <ele>235.200000</ele>
        <time>2020-10-17T09:44:56Z</time>
      </trkpt>
      <trkpt lat="39.960778000" lon="-8.469266000">
        <ele>235.600000</ele>
        <time>2020-10-17T09:44:57Z</time>
      </trkpt>
      <trkpt lat="39.960781000" lon="-8.469315000">
        <ele>236.000000</ele>
        <time>2020-10-17T09:44:58Z</time>
      </trkpt>
      <trkpt lat="39.960773000" lon="-8.469365000">
        <ele>236.400000</ele>
        <time>2020-10-17T09:44:59Z</time>
      </trkpt>
      <trkpt lat="39.960760000" lon="-8.469406000">
        <ele>236.600000</ele>
        <time>2020-10-17T09:45:00Z</time>
      </trkpt>
      <trkpt lat="39.960747000" lon="-8.469438000">
        <ele>236.600000</ele>
        <time>2020-10-17T09:45:01Z</time>
      </trkpt>
      <trkpt lat="39.960737000" lon="-8.469458000">
        <ele>236.600000</ele>
        <time>2020-10-17T09:45:02Z</time>
      </trkpt>
      <trkpt lat="39.960738000" lon="-8.469451000">
        <ele>236.600000</ele>
        <time>2020-10-17T09:45:03Z</time>
      </trkpt>
      <trkpt lat="39.960735000" lon="-8.469447000">
        <ele>236.800000</ele>
        <time>2020-10-17T09:45:04Z</time>
      </trkpt>
      <trkpt lat="39.960753000" lon="-8.469427000">
        <ele>236.800000</ele>
        <time>2020-10-17T09:45:06Z</time>
      </trkpt>
      <trkpt lat="39.960765000" lon="-8.469419000">
        <ele>236.800000</ele>
        <time>2020-10-17T09:45:07Z</time>
      </trkpt>
      <trkpt lat="39.960784000" lon="-8.469412000">
        <ele>236.600000</ele>
        <time>2020-10-17T09:45:08Z</time>
      </trkpt>
      <trkpt lat="39.960808000" lon="-8.469413000">
        <ele>236.600000</ele>
        <time>2020-10-17T09:45:09Z</time>
      </trkpt>
      <trkpt lat="39.960881000" lon="-8.469472000">
        <ele>236.600000</ele>
        <time>2020-10-17T09:45:12Z</time>
      </trkpt>
      <trkpt lat="39.960913000" lon="-8.469504000">
        <ele>236.600000</ele>
        <time>2020-10-17T09:45:13Z</time>
      </trkpt>
      <trkpt lat="39.961053000" lon="-8.469620000">
        <ele>236.400000</ele>
        <time>2020-10-17T09:45:17Z</time>
      </trkpt>
      <trkpt lat="39.961115000" lon="-8.469686000">
        <ele>236.600000</ele>
        <time>2020-10-17T09:45:19Z</time>
      </trkpt>
      <trkpt lat="39.961134000" lon="-8.469720000">
        <ele>236.600000</ele>
        <time>2020-10-17T09:45:20Z</time>
      </trkpt>
      <trkpt lat="39.961142000" lon="-8.469760000">
        <ele>236.600000</ele>
        <time>2020-10-17T09:45:21Z</time>
      </trkpt>
      <trkpt lat="39.961118000" lon="-8.469897000">
        <ele>236.600000</ele>
        <time>2020-10-17T09:45:24Z</time>
      </trkpt>
      <trkpt lat="39.961101000" lon="-8.469945000">
        <ele>236.600000</ele>
        <time>2020-10-17T09:45:25Z</time>
      </trkpt>
      <trkpt lat="39.960996000" lon="-8.470134000">
        <ele>236.400000</ele>
        <time>2020-10-17T09:45:29Z</time>
      </trkpt>
      <trkpt lat="39.960887000" lon="-8.470269000">
        <ele>236.600000</ele>
        <time>2020-10-17T09:45:32Z</time>
      </trkpt>
      <trkpt lat="39.960749000" lon="-8.470393000">
        <ele>236.600000</ele>
        <time>2020-10-17T09:45:35Z</time>
      </trkpt>
      <trkpt lat="39.960645000" lon="-8.470473000">
        <ele>236.600000</ele>
        <time>2020-10-17T09:45:37Z</time>
      </trkpt>
      <trkpt lat="39.960415000" lon="-8.470626000">
        <ele>236.200000</ele>
        <time>2020-10-17T09:45:41Z</time>
      </trkpt>
      <trkpt lat="39.960301000" lon="-8.470714000">
        <ele>235.600000</ele>
        <time>2020-10-17T09:45:43Z</time>
      </trkpt>
      <trkpt lat="39.960002000" lon="-8.470930000">
        <ele>234.400000</ele>
        <time>2020-10-17T09:45:48Z</time>
      </trkpt>
      <trkpt lat="39.959936000" lon="-8.470972000">
        <ele>234.200000</ele>
        <time>2020-10-17T09:45:49Z</time>
      </trkpt>
      <trkpt lat="39.959738000" lon="-8.471089000">
        <ele>233.600000</ele>
        <time>2020-10-17T09:45:52Z</time>
      </trkpt>
      <trkpt lat="39.959609000" lon="-8.471170000">
        <ele>233.400000</ele>
        <time>2020-10-17T09:45:54Z</time>
      </trkpt>
      <trkpt lat="39.959478000" lon="-8.471258000">
        <ele>233.200000</ele>
        <time>2020-10-17T09:45:56Z</time>
      </trkpt>
      <trkpt lat="39.959142000" lon="-8.471468000">
        <ele>232.200000</ele>
        <time>2020-10-17T09:46:01Z</time>
      </trkpt>
      <trkpt lat="39.959009000" lon="-8.471545000">
        <ele>231.800000</ele>
        <time>2020-10-17T09:46:03Z</time>
      </trkpt>
      <trkpt lat="39.958668000" lon="-8.471750000">
        <ele>230.800000</ele>
        <time>2020-10-17T09:46:08Z</time>
      </trkpt>
      <trkpt lat="39.958599000" lon="-8.471796000">
        <ele>230.400000</ele>
        <time>2020-10-17T09:46:09Z</time>
      </trkpt>
      <trkpt lat="39.958459000" lon="-8.471882000">
        <ele>230.400000</ele>
        <time>2020-10-17T09:46:11Z</time>
      </trkpt>
      <trkpt lat="39.958248000" lon="-8.471993000">
        <ele>230.200000</ele>
        <time>2020-10-17T09:46:14Z</time>
      </trkpt>
      <trkpt lat="39.958109000" lon="-8.472060000">
        <ele>229.800000</ele>
        <time>2020-10-17T09:46:16Z</time>
      </trkpt>
      <trkpt lat="39.958038000" lon="-8.472092000">
        <ele>229.800000</ele>
        <time>2020-10-17T09:46:17Z</time>
      </trkpt>
      <trkpt lat="39.957968000" lon="-8.472123000">
        <ele>229.600000</ele>
        <time>2020-10-17T09:46:18Z</time>
      </trkpt>
      <trkpt lat="39.957898000" lon="-8.472151000">
        <ele>229.400000</ele>
        <time>2020-10-17T09:46:19Z</time>
      </trkpt>
      <trkpt lat="39.957322000" lon="-8.472338000">
        <ele>228.200000</ele>
        <time>2020-10-17T09:46:27Z</time>
      </trkpt>
      <trkpt lat="39.957178000" lon="-8.472381000">
        <ele>228.000000</ele>
        <time>2020-10-17T09:46:29Z</time>
      </trkpt>
      <trkpt lat="39.957032000" lon="-8.472422000">
        <ele>227.800000</ele>
        <time>2020-10-17T09:46:31Z</time>
      </trkpt>
      <trkpt lat="39.956962000" lon="-8.472439000">
        <ele>227.800000</ele>
        <time>2020-10-17T09:46:32Z</time>
      </trkpt>
      <trkpt lat="39.956891000" lon="-8.472458000">
        <ele>227.600000</ele>
        <time>2020-10-17T09:46:33Z</time>
      </trkpt>
      <trkpt lat="39.956821000" lon="-8.472480000">
        <ele>227.600000</ele>
        <time>2020-10-17T09:46:34Z</time>
      </trkpt>
      <trkpt lat="39.956614000" lon="-8.472549000">
        <ele>227.400000</ele>
        <time>2020-10-17T09:46:37Z</time>
      </trkpt>
      <trkpt lat="39.956544000" lon="-8.472570000">
        <ele>227.400000</ele>
        <time>2020-10-17T09:46:38Z</time>
      </trkpt>
      <trkpt lat="39.956475000" lon="-8.472589000">
        <ele>227.200000</ele>
        <time>2020-10-17T09:46:39Z</time>
      </trkpt>
      <trkpt lat="39.956338000" lon="-8.472632000">
        <ele>227.400000</ele>
        <time>2020-10-17T09:46:41Z</time>
      </trkpt>
      <trkpt lat="39.956140000" lon="-8.472708000">
        <ele>227.200000</ele>
        <time>2020-10-17T09:46:44Z</time>
      </trkpt>
      <trkpt lat="39.955936000" lon="-8.472751000">
        <ele>227.200000</ele>
        <time>2020-10-17T09:46:47Z</time>
      </trkpt>
      <trkpt lat="39.955868000" lon="-8.472749000">
        <ele>227.200000</ele>
        <time>2020-10-17T09:46:48Z</time>
      </trkpt>
      <trkpt lat="39.955800000" lon="-8.472738000">
        <ele>227.200000</ele>
        <time>2020-10-17T09:46:49Z</time>
      </trkpt>
      <trkpt lat="39.955667000" lon="-8.472703000">
        <ele>227.200000</ele>
        <time>2020-10-17T09:46:51Z</time>
      </trkpt>
      <trkpt lat="39.955601000" lon="-8.472701000">
        <ele>227.200000</ele>
        <time>2020-10-17T09:46:52Z</time>
      </trkpt>
      <trkpt lat="39.955543000" lon="-8.472719000">
        <ele>227.200000</ele>
        <time>2020-10-17T09:46:53Z</time>
      </trkpt>
      <trkpt lat="39.955493000" lon="-8.472756000">
        <ele>227.200000</ele>
        <time>2020-10-17T09:46:54Z</time>
      </trkpt>
      <trkpt lat="39.955447000" lon="-8.472802000">
        <ele>227.200000</ele>
        <time>2020-10-17T09:46:55Z</time>
      </trkpt>
      <trkpt lat="39.955403000" lon="-8.472853000">
        <ele>227.000000</ele>
        <time>2020-10-17T09:46:56Z</time>
      </trkpt>
      <trkpt lat="39.955358000" lon="-8.472901000">
        <ele>227.000000</ele>
        <time>2020-10-17T09:46:57Z</time>
      </trkpt>
      <trkpt lat="39.955314000" lon="-8.472944000">
        <ele>226.800000</ele>
        <time>2020-10-17T09:46:58Z</time>
      </trkpt>
      <trkpt lat="39.955083000" lon="-8.473154000">
        <ele>226.800000</ele>
        <time>2020-10-17T09:47:03Z</time>
      </trkpt>
      <trkpt lat="39.955041000" lon="-8.473196000">
        <ele>226.600000</ele>
        <time>2020-10-17T09:47:04Z</time>
      </trkpt>
      <trkpt lat="39.954998000" lon="-8.473241000">
        <ele>226.600000</ele>
        <time>2020-10-17T09:47:05Z</time>
      </trkpt>
      <trkpt lat="39.954916000" lon="-8.473336000">
        <ele>226.400000</ele>
        <time>2020-10-17T09:47:07Z</time>
      </trkpt>
      <trkpt lat="39.954809000" lon="-8.473493000">
        <ele>226.400000</ele>
        <time>2020-10-17T09:47:10Z</time>
      </trkpt>
      <trkpt lat="39.954776000" lon="-8.473544000">
        <ele>226.200000</ele>
        <time>2020-10-17T09:47:11Z</time>
      </trkpt>
      <trkpt lat="39.954742000" lon="-8.473596000">
        <ele>226.200000</ele>
        <time>2020-10-17T09:47:12Z</time>
      </trkpt>
      <trkpt lat="39.954673000" lon="-8.473693000">
        <ele>226.200000</ele>
        <time>2020-10-17T09:47:14Z</time>
      </trkpt>
      <trkpt lat="39.954561000" lon="-8.473838000">
        <ele>226.200000</ele>
        <time>2020-10-17T09:47:17Z</time>
      </trkpt>
      <trkpt lat="39.954518000" lon="-8.473878000">
        <ele>226.200000</ele>
        <time>2020-10-17T09:47:18Z</time>
      </trkpt>
      <trkpt lat="39.954472000" lon="-8.473906000">
        <ele>226.400000</ele>
        <time>2020-10-17T09:47:19Z</time>
      </trkpt>
      <trkpt lat="39.954423000" lon="-8.473938000">
        <ele>226.400000</ele>
        <time>2020-10-17T09:47:20Z</time>
      </trkpt>
      <trkpt lat="39.954341000" lon="-8.474028000">
        <ele>226.400000</ele>
        <time>2020-10-17T09:47:22Z</time>
      </trkpt>
      <trkpt lat="39.954302000" lon="-8.474074000">
        <ele>226.400000</ele>
        <time>2020-10-17T09:47:23Z</time>
      </trkpt>
      <trkpt lat="39.954265000" lon="-8.474118000">
        <ele>226.400000</ele>
        <time>2020-10-17T09:47:24Z</time>
      </trkpt>
      <trkpt lat="39.954193000" lon="-8.474206000">
        <ele>226.600000</ele>
        <time>2020-10-17T09:47:26Z</time>
      </trkpt>
      <trkpt lat="39.954170000" lon="-8.474257000">
        <ele>226.800000</ele>
        <time>2020-10-17T09:47:27Z</time>
      </trkpt>
      <trkpt lat="39.954159000" lon="-8.474314000">
        <ele>226.800000</ele>
        <time>2020-10-17T09:47:28Z</time>
      </trkpt>
      <trkpt lat="39.954152000" lon="-8.474373000">
        <ele>226.800000</ele>
        <time>2020-10-17T09:47:29Z</time>
      </trkpt>
      <trkpt lat="39.954147000" lon="-8.474436000">
        <ele>226.800000</ele>
        <time>2020-10-17T09:47:30Z</time>
      </trkpt>
      <trkpt lat="39.954123000" lon="-8.474775000">
        <ele>226.800000</ele>
        <time>2020-10-17T09:47:35Z</time>
      </trkpt>
      <trkpt lat="39.954106000" lon="-8.474917000">
        <ele>227.000000</ele>
        <time>2020-10-17T09:47:37Z</time>
      </trkpt>
      <trkpt lat="39.954095000" lon="-8.474989000">
        <ele>226.800000</ele>
        <time>2020-10-17T09:47:38Z</time>
      </trkpt>
      <trkpt lat="39.954085000" lon="-8.475059000">
        <ele>227.000000</ele>
        <time>2020-10-17T09:47:39Z</time>
      </trkpt>
      <trkpt lat="39.954053000" lon="-8.475268000">
        <ele>226.800000</ele>
        <time>2020-10-17T09:47:42Z</time>
      </trkpt>
      <trkpt lat="39.954044000" lon="-8.475336000">
        <ele>226.800000</ele>
        <time>2020-10-17T09:47:43Z</time>
      </trkpt>
      <trkpt lat="39.954034000" lon="-8.475403000">
        <ele>227.000000</ele>
        <time>2020-10-17T09:47:44Z</time>
      </trkpt>
      <trkpt lat="39.954020000" lon="-8.475469000">
        <ele>226.800000</ele>
        <time>2020-10-17T09:47:45Z</time>
      </trkpt>
      <trkpt lat="39.953971000" lon="-8.475668000">
        <ele>226.600000</ele>
        <time>2020-10-17T09:47:48Z</time>
      </trkpt>
      <trkpt lat="39.953954000" lon="-8.475806000">
        <ele>226.800000</ele>
        <time>2020-10-17T09:47:50Z</time>
      </trkpt>
      <trkpt lat="39.953937000" lon="-8.475944000">
        <ele>226.800000</ele>
        <time>2020-10-17T09:47:52Z</time>
      </trkpt>
      <trkpt lat="39.953913000" lon="-8.476078000">
        <ele>226.800000</ele>
        <time>2020-10-17T09:47:54Z</time>
      </trkpt>
      <trkpt lat="39.953885000" lon="-8.476211000">
        <ele>226.600000</ele>
        <time>2020-10-17T09:47:56Z</time>
      </trkpt>
      <trkpt lat="39.953818000" lon="-8.476406000">
        <ele>226.600000</ele>
        <time>2020-10-17T09:47:59Z</time>
      </trkpt>
      <trkpt lat="39.953792000" lon="-8.476466000">
        <ele>226.800000</ele>
        <time>2020-10-17T09:48:00Z</time>
      </trkpt>
      <trkpt lat="39.953766000" lon="-8.476525000">
        <ele>226.800000</ele>
        <time>2020-10-17T09:48:01Z</time>
      </trkpt>
      <trkpt lat="39.953716000" lon="-8.476642000">
        <ele>226.800000</ele>
        <time>2020-10-17T09:48:03Z</time>
      </trkpt>
      <trkpt lat="39.953690000" lon="-8.476698000">
        <ele>226.800000</ele>
        <time>2020-10-17T09:48:04Z</time>
      </trkpt>
      <trkpt lat="39.953666000" lon="-8.476752000">
        <ele>227.000000</ele>
        <time>2020-10-17T09:48:05Z</time>
      </trkpt>
      <trkpt lat="39.953569000" lon="-8.476984000">
        <ele>226.800000</ele>
        <time>2020-10-17T09:48:09Z</time>
      </trkpt>
      <trkpt lat="39.953545000" lon="-8.477025000">
        <ele>227.000000</ele>
        <time>2020-10-17T09:48:10Z</time>
      </trkpt>
      <trkpt lat="39.953518000" lon="-8.477052000">
        <ele>227.000000</ele>
        <time>2020-10-17T09:48:11Z</time>
      </trkpt>
      <trkpt lat="39.953488000" lon="-8.477075000">
        <ele>227.000000</ele>
        <time>2020-10-17T09:48:12Z</time>
      </trkpt>
      <trkpt lat="39.953449000" lon="-8.477100000">
        <ele>227.000000</ele>
        <time>2020-10-17T09:48:13Z</time>
      </trkpt>
      <trkpt lat="39.953410000" lon="-8.477128000">
        <ele>227.000000</ele>
        <time>2020-10-17T09:48:14Z</time>
      </trkpt>
      <trkpt lat="39.953323000" lon="-8.477199000">
        <ele>227.000000</ele>
        <time>2020-10-17T09:48:16Z</time>
      </trkpt>
      <trkpt lat="39.953147000" lon="-8.477379000">
        <ele>227.200000</ele>
        <time>2020-10-17T09:48:20Z</time>
      </trkpt>
      <trkpt lat="39.952978000" lon="-8.477591000">
        <ele>227.000000</ele>
        <time>2020-10-17T09:48:24Z</time>
      </trkpt>
      <trkpt lat="39.952936000" lon="-8.477644000">
        <ele>227.200000</ele>
        <time>2020-10-17T09:48:25Z</time>
      </trkpt>
      <trkpt lat="39.952853000" lon="-8.477750000">
        <ele>227.000000</ele>
        <time>2020-10-17T09:48:27Z</time>
      </trkpt>
      <trkpt lat="39.952641000" lon="-8.478033000">
        <ele>226.800000</ele>
        <time>2020-10-17T09:48:32Z</time>
      </trkpt>
      <trkpt lat="39.952600000" lon="-8.478092000">
        <ele>226.800000</ele>
        <time>2020-10-17T09:48:33Z</time>
      </trkpt>
      <trkpt lat="39.952521000" lon="-8.478213000">
        <ele>226.800000</ele>
        <time>2020-10-17T09:48:35Z</time>
      </trkpt>
      <trkpt lat="39.952481000" lon="-8.478270000">
        <ele>227.000000</ele>
        <time>2020-10-17T09:48:36Z</time>
      </trkpt>
      <trkpt lat="39.952359000" lon="-8.478438000">
        <ele>226.800000</ele>
        <time>2020-10-17T09:48:39Z</time>
      </trkpt>
      <trkpt lat="39.952274000" lon="-8.478546000">
        <ele>227.000000</ele>
        <time>2020-10-17T09:48:41Z</time>
      </trkpt>
      <trkpt lat="39.952233000" lon="-8.478598000">
        <ele>227.000000</ele>
        <time>2020-10-17T09:48:42Z</time>
      </trkpt>
      <trkpt lat="39.952193000" lon="-8.478653000">
        <ele>227.000000</ele>
        <time>2020-10-17T09:48:43Z</time>
      </trkpt>
      <trkpt lat="39.951888000" lon="-8.479038000">
        <ele>227.200000</ele>
        <time>2020-10-17T09:48:50Z</time>
      </trkpt>
      <trkpt lat="39.951594000" lon="-8.479374000">
        <ele>227.400000</ele>
        <time>2020-10-17T09:48:56Z</time>
      </trkpt>
      <trkpt lat="39.951550000" lon="-8.479428000">
        <ele>227.400000</ele>
        <time>2020-10-17T09:48:57Z</time>
      </trkpt>
      <trkpt lat="39.951510000" lon="-8.479480000">
        <ele>227.400000</ele>
        <time>2020-10-17T09:48:58Z</time>
      </trkpt>
      <trkpt lat="39.951465000" lon="-8.479514000">
        <ele>227.200000</ele>
        <time>2020-10-17T09:48:59Z</time>
      </trkpt>
      <trkpt lat="39.951414000" lon="-8.479532000">
        <ele>227.200000</ele>
        <time>2020-10-17T09:49:00Z</time>
      </trkpt>
      <trkpt lat="39.951364000" lon="-8.479547000">
        <ele>227.000000</ele>
        <time>2020-10-17T09:49:01Z</time>
      </trkpt>
      <trkpt lat="39.951310000" lon="-8.479558000">
        <ele>227.000000</ele>
        <time>2020-10-17T09:49:02Z</time>
      </trkpt>
      <trkpt lat="39.951254000" lon="-8.479570000">
        <ele>227.000000</ele>
        <time>2020-10-17T09:49:03Z</time>
      </trkpt>
      <trkpt lat="39.951088000" lon="-8.479598000">
        <ele>227.000000</ele>
        <time>2020-10-17T09:49:06Z</time>
      </trkpt>
      <trkpt lat="39.951036000" lon="-8.479605000">
        <ele>227.000000</ele>
        <time>2020-10-17T09:49:07Z</time>
      </trkpt>
      <trkpt lat="39.950986000" lon="-8.479612000">
        <ele>226.800000</ele>
        <time>2020-10-17T09:49:08Z</time>
      </trkpt>
      <trkpt lat="39.950937000" lon="-8.479622000">
        <ele>227.000000</ele>
        <time>2020-10-17T09:49:09Z</time>
      </trkpt>
      <trkpt lat="39.950890000" lon="-8.479635000">
        <ele>226.800000</ele>
        <time>2020-10-17T09:49:10Z</time>
      </trkpt>
      <trkpt lat="39.950845000" lon="-8.479645000">
        <ele>227.000000</ele>
        <time>2020-10-17T09:49:11Z</time>
      </trkpt>
      <trkpt lat="39.950757000" lon="-8.479655000">
        <ele>226.800000</ele>
        <time>2020-10-17T09:49:13Z</time>
      </trkpt>
      <trkpt lat="39.950717000" lon="-8.479639000">
        <ele>227.000000</ele>
        <time>2020-10-17T09:49:14Z</time>
      </trkpt>
      <trkpt lat="39.950680000" lon="-8.479613000">
        <ele>227.000000</ele>
        <time>2020-10-17T09:49:15Z</time>
      </trkpt>
      <trkpt lat="39.950644000" lon="-8.479582000">
        <ele>227.200000</ele>
        <time>2020-10-17T09:49:16Z</time>
      </trkpt>
      <trkpt lat="39.950611000" lon="-8.479548000">
        <ele>227.200000</ele>
        <time>2020-10-17T09:49:17Z</time>
      </trkpt>
      <trkpt lat="39.950578000" lon="-8.479513000">
        <ele>227.200000</ele>
        <time>2020-10-17T09:49:18Z</time>
      </trkpt>
      <trkpt lat="39.950508000" lon="-8.479450000">
        <ele>227.400000</ele>
        <time>2020-10-17T09:49:20Z</time>
      </trkpt>
      <trkpt lat="39.950434000" lon="-8.479400000">
        <ele>227.400000</ele>
        <time>2020-10-17T09:49:22Z</time>
      </trkpt>
      <trkpt lat="39.950399000" lon="-8.479374000">
        <ele>227.600000</ele>
        <time>2020-10-17T09:49:23Z</time>
      </trkpt>
      <trkpt lat="39.950365000" lon="-8.479350000">
        <ele>227.600000</ele>
        <time>2020-10-17T09:49:24Z</time>
      </trkpt>
      <trkpt lat="39.950330000" lon="-8.479331000">
        <ele>227.800000</ele>
        <time>2020-10-17T09:49:25Z</time>
      </trkpt>
      <trkpt lat="39.950293000" lon="-8.479317000">
        <ele>228.000000</ele>
        <time>2020-10-17T09:49:26Z</time>
      </trkpt>
      <trkpt lat="39.950215000" lon="-8.479309000">
        <ele>228.200000</ele>
        <time>2020-10-17T09:49:28Z</time>
      </trkpt>
      <trkpt lat="39.950176000" lon="-8.479313000">
        <ele>228.200000</ele>
        <time>2020-10-17T09:49:29Z</time>
      </trkpt>
      <trkpt lat="39.950137000" lon="-8.479326000">
        <ele>228.600000</ele>
        <time>2020-10-17T09:49:30Z</time>
      </trkpt>
      <trkpt lat="39.950100000" lon="-8.479347000">
        <ele>228.600000</ele>
        <time>2020-10-17T09:49:31Z</time>
      </trkpt>
      <trkpt lat="39.950066000" lon="-8.479375000">
        <ele>228.800000</ele>
        <time>2020-10-17T09:49:32Z</time>
      </trkpt>
      <trkpt lat="39.950035000" lon="-8.479409000">
        <ele>229.000000</ele>
        <time>2020-10-17T09:49:33Z</time>
      </trkpt>
      <trkpt lat="39.950006000" lon="-8.479446000">
        <ele>229.200000</ele>
        <time>2020-10-17T09:49:34Z</time>
      </trkpt>
      <trkpt lat="39.949976000" lon="-8.479485000">
        <ele>229.400000</ele>
        <time>2020-10-17T09:49:35Z</time>
      </trkpt>
      <trkpt lat="39.949946000" lon="-8.479527000">
        <ele>229.800000</ele>
        <time>2020-10-17T09:49:36Z</time>
      </trkpt>
      <trkpt lat="39.949917000" lon="-8.479569000">
        <ele>230.000000</ele>
        <time>2020-10-17T09:49:37Z</time>
      </trkpt>
      <trkpt lat="39.949886000" lon="-8.479612000">
        <ele>230.200000</ele>
        <time>2020-10-17T09:49:38Z</time>
      </trkpt>
      <trkpt lat="39.949852000" lon="-8.479650000">
        <ele>230.400000</ele>
        <time>2020-10-17T09:49:39Z</time>
      </trkpt>
      <trkpt lat="39.949814000" lon="-8.479681000">
        <ele>230.400000</ele>
        <time>2020-10-17T09:49:40Z</time>
      </trkpt>
      <trkpt lat="39.949775000" lon="-8.479702000">
        <ele>230.400000</ele>
        <time>2020-10-17T09:49:41Z</time>
      </trkpt>
      <trkpt lat="39.949733000" lon="-8.479715000">
        <ele>230.600000</ele>
        <time>2020-10-17T09:49:42Z</time>
      </trkpt>
      <trkpt lat="39.949688000" lon="-8.479720000">
        <ele>230.800000</ele>
        <time>2020-10-17T09:49:43Z</time>
      </trkpt>
      <trkpt lat="39.949644000" lon="-8.479718000">
        <ele>230.800000</ele>
        <time>2020-10-17T09:49:44Z</time>
      </trkpt>
      <trkpt lat="39.949599000" lon="-8.479709000">
        <ele>231.000000</ele>
        <time>2020-10-17T09:49:45Z</time>
      </trkpt>
      <trkpt lat="39.949557000" lon="-8.479694000">
        <ele>231.000000</ele>
        <time>2020-10-17T09:49:46Z</time>
      </trkpt>
      <trkpt lat="39.949516000" lon="-8.479678000">
        <ele>231.200000</ele>
        <time>2020-10-17T09:49:47Z</time>
      </trkpt>
      <trkpt lat="39.949476000" lon="-8.479660000">
        <ele>231.200000</ele>
        <time>2020-10-17T09:49:48Z</time>
      </trkpt>
      <trkpt lat="39.949435000" lon="-8.479642000">
        <ele>231.400000</ele>
        <time>2020-10-17T09:49:49Z</time>
      </trkpt>
      <trkpt lat="39.949396000" lon="-8.479623000">
        <ele>231.400000</ele>
        <time>2020-10-17T09:49:50Z</time>
      </trkpt>
      <trkpt lat="39.949358000" lon="-8.479602000">
        <ele>231.800000</ele>
        <time>2020-10-17T09:49:51Z</time>
      </trkpt>
      <trkpt lat="39.949322000" lon="-8.479582000">
        <ele>231.800000</ele>
        <time>2020-10-17T09:49:52Z</time>
      </trkpt>
      <trkpt lat="39.949287000" lon="-8.479561000">
        <ele>232.000000</ele>
        <time>2020-10-17T09:49:53Z</time>
      </trkpt>
      <trkpt lat="39.949252000" lon="-8.479538000">
        <ele>232.000000</ele>
        <time>2020-10-17T09:49:54Z</time>
      </trkpt>
      <trkpt lat="39.949219000" lon="-8.479516000">
        <ele>232.000000</ele>
        <time>2020-10-17T09:49:55Z</time>
      </trkpt>
      <trkpt lat="39.949186000" lon="-8.479495000">
        <ele>232.200000</ele>
        <time>2020-10-17T09:49:56Z</time>
      </trkpt>
      <trkpt lat="39.949155000" lon="-8.479477000">
        <ele>232.400000</ele>
        <time>2020-10-17T09:49:57Z</time>
      </trkpt>
      <trkpt lat="39.949125000" lon="-8.479459000">
        <ele>232.600000</ele>
        <time>2020-10-17T09:49:58Z</time>
      </trkpt>
      <trkpt lat="39.949094000" lon="-8.479441000">
        <ele>232.800000</ele>
        <time>2020-10-17T09:49:59Z</time>
      </trkpt>
      <trkpt lat="39.949064000" lon="-8.479424000">
        <ele>232.800000</ele>
        <time>2020-10-17T09:50:00Z</time>
      </trkpt>
      <trkpt lat="39.949031000" lon="-8.479410000">
        <ele>233.200000</ele>
        <time>2020-10-17T09:50:01Z</time>
      </trkpt>
      <trkpt lat="39.948996000" lon="-8.479399000">
        <ele>233.200000</ele>
        <time>2020-10-17T09:50:02Z</time>
      </trkpt>
      <trkpt lat="39.948960000" lon="-8.479390000">
        <ele>233.400000</ele>
        <time>2020-10-17T09:50:03Z</time>
      </trkpt>
      <trkpt lat="39.948925000" lon="-8.479380000">
        <ele>233.600000</ele>
        <time>2020-10-17T09:50:04Z</time>
      </trkpt>
      <trkpt lat="39.948893000" lon="-8.479368000">
        <ele>233.800000</ele>
        <time>2020-10-17T09:50:05Z</time>
      </trkpt>
      <trkpt lat="39.948864000" lon="-8.479355000">
        <ele>234.400000</ele>
        <time>2020-10-17T09:50:06Z</time>
      </trkpt>
      <trkpt lat="39.948833000" lon="-8.479347000">
        <ele>234.600000</ele>
        <time>2020-10-17T09:50:07Z</time>
      </trkpt>
      <trkpt lat="39.948802000" lon="-8.479344000">
        <ele>234.600000</ele>
        <time>2020-10-17T09:50:08Z</time>
      </trkpt>
      <trkpt lat="39.948770000" lon="-8.479342000">
        <ele>234.600000</ele>
        <time>2020-10-17T09:50:09Z</time>
      </trkpt>
      <trkpt lat="39.948738000" lon="-8.479342000">
        <ele>234.800000</ele>
        <time>2020-10-17T09:50:10Z</time>
      </trkpt>
      <trkpt lat="39.948706000" lon="-8.479344000">
        <ele>235.000000</ele>
        <time>2020-10-17T09:50:11Z</time>
      </trkpt>
      <trkpt lat="39.948670000" lon="-8.479348000">
        <ele>235.400000</ele>
        <time>2020-10-17T09:50:12Z</time>
      </trkpt>
      <trkpt lat="39.948636000" lon="-8.479352000">
        <ele>235.400000</ele>
        <time>2020-10-17T09:50:13Z</time>
      </trkpt>
      <trkpt lat="39.948601000" lon="-8.479352000">
        <ele>235.600000</ele>
        <time>2020-10-17T09:50:14Z</time>
      </trkpt>
      <trkpt lat="39.948569000" lon="-8.479363000">
        <ele>235.800000</ele>
        <time>2020-10-17T09:50:15Z</time>
      </trkpt>
      <trkpt lat="39.948540000" lon="-8.479386000">
        <ele>236.000000</ele>
        <time>2020-10-17T09:50:16Z</time>
      </trkpt>
      <trkpt lat="39.948518000" lon="-8.479418000">
        <ele>236.200000</ele>
        <time>2020-10-17T09:50:17Z</time>
      </trkpt>
      <trkpt lat="39.948504000" lon="-8.479455000">
        <ele>236.600000</ele>
        <time>2020-10-17T09:50:18Z</time>
      </trkpt>
      <trkpt lat="39.948498000" lon="-8.479493000">
        <ele>236.600000</ele>
        <time>2020-10-17T09:50:19Z</time>
      </trkpt>
      <trkpt lat="39.948496000" lon="-8.479530000">
        <ele>236.800000</ele>
        <time>2020-10-17T09:50:20Z</time>
      </trkpt>
      <trkpt lat="39.948496000" lon="-8.479568000">
        <ele>236.800000</ele>
        <time>2020-10-17T09:50:21Z</time>
      </trkpt>
      <trkpt lat="39.948499000" lon="-8.479605000">
        <ele>237.200000</ele>
        <time>2020-10-17T09:50:22Z</time>
      </trkpt>
      <trkpt lat="39.948503000" lon="-8.479645000">
        <ele>237.400000</ele>
        <time>2020-10-17T09:50:23Z</time>
      </trkpt>
      <trkpt lat="39.948509000" lon="-8.479681000">
        <ele>237.400000</ele>
        <time>2020-10-17T09:50:24Z</time>
      </trkpt>
      <trkpt lat="39.948515000" lon="-8.479722000">
        <ele>237.600000</ele>
        <time>2020-10-17T09:50:25Z</time>
      </trkpt>
      <trkpt lat="39.948518000" lon="-8.479765000">
        <ele>237.800000</ele>
        <time>2020-10-17T09:50:26Z</time>
      </trkpt>
      <trkpt lat="39.948523000" lon="-8.479808000">
        <ele>238.000000</ele>
        <time>2020-10-17T09:50:27Z</time>
      </trkpt>
      <trkpt lat="39.948528000" lon="-8.479849000">
        <ele>238.600000</ele>
        <time>2020-10-17T09:50:28Z</time>
      </trkpt>
      <trkpt lat="39.948531000" lon="-8.479889000">
        <ele>238.600000</ele>
        <time>2020-10-17T09:50:29Z</time>
      </trkpt>
      <trkpt lat="39.948535000" lon="-8.479928000">
        <ele>238.800000</ele>
        <time>2020-10-17T09:50:30Z</time>
      </trkpt>
      <trkpt lat="39.948539000" lon="-8.479966000">
        <ele>239.200000</ele>
        <time>2020-10-17T09:50:31Z</time>
      </trkpt>
      <trkpt lat="39.948543000" lon="-8.480005000">
        <ele>239.400000</ele>
        <time>2020-10-17T09:50:32Z</time>
      </trkpt>
      <trkpt lat="39.948547000" lon="-8.480045000">
        <ele>239.800000</ele>
        <time>2020-10-17T09:50:33Z</time>
      </trkpt>
      <trkpt lat="39.948552000" lon="-8.480085000">
        <ele>240.000000</ele>
        <time>2020-10-17T09:50:34Z</time>
      </trkpt>
      <trkpt lat="39.948555000" lon="-8.480126000">
        <ele>240.000000</ele>
        <time>2020-10-17T09:50:35Z</time>
      </trkpt>
      <trkpt lat="39.948556000" lon="-8.480166000">
        <ele>240.200000</ele>
        <time>2020-10-17T09:50:36Z</time>
      </trkpt>
      <trkpt lat="39.948561000" lon="-8.480207000">
        <ele>240.600000</ele>
        <time>2020-10-17T09:50:37Z</time>
      </trkpt>
      <trkpt lat="39.948570000" lon="-8.480246000">
        <ele>240.800000</ele>
        <time>2020-10-17T09:50:38Z</time>
      </trkpt>
      <trkpt lat="39.948578000" lon="-8.480285000">
        <ele>241.000000</ele>
        <time>2020-10-17T09:50:39Z</time>
      </trkpt>
      <trkpt lat="39.948582000" lon="-8.480325000">
        <ele>241.400000</ele>
        <time>2020-10-17T09:50:40Z</time>
      </trkpt>
      <trkpt lat="39.948580000" lon="-8.480364000">
        <ele>241.400000</ele>
        <time>2020-10-17T09:50:41Z</time>
      </trkpt>
      <trkpt lat="39.948571000" lon="-8.480398000">
        <ele>241.600000</ele>
        <time>2020-10-17T09:50:42Z</time>
      </trkpt>
      <trkpt lat="39.948555000" lon="-8.480430000">
        <ele>242.000000</ele>
        <time>2020-10-17T09:50:43Z</time>
      </trkpt>
      <trkpt lat="39.948532000" lon="-8.480458000">
        <ele>242.200000</ele>
        <time>2020-10-17T09:50:44Z</time>
      </trkpt>
      <trkpt lat="39.948507000" lon="-8.480481000">
        <ele>242.200000</ele>
        <time>2020-10-17T09:50:45Z</time>
      </trkpt>
      <trkpt lat="39.948479000" lon="-8.480503000">
        <ele>242.400000</ele>
        <time>2020-10-17T09:50:46Z</time>
      </trkpt>
      <trkpt lat="39.948449000" lon="-8.480523000">
        <ele>242.800000</ele>
        <time>2020-10-17T09:50:47Z</time>
      </trkpt>
      <trkpt lat="39.948417000" lon="-8.480543000">
        <ele>243.000000</ele>
        <time>2020-10-17T09:50:48Z</time>
      </trkpt>
      <trkpt lat="39.948384000" lon="-8.480561000">
        <ele>243.200000</ele>
        <time>2020-10-17T09:50:49Z</time>
      </trkpt>
      <trkpt lat="39.948351000" lon="-8.480578000">
        <ele>243.400000</ele>
        <time>2020-10-17T09:50:50Z</time>
      </trkpt>
      <trkpt lat="39.948315000" lon="-8.480592000">
        <ele>243.400000</ele>
        <time>2020-10-17T09:50:51Z</time>
      </trkpt>
      <trkpt lat="39.948277000" lon="-8.480605000">
        <ele>243.600000</ele>
        <time>2020-10-17T09:50:52Z</time>
      </trkpt>
      <trkpt lat="39.948240000" lon="-8.480617000">
        <ele>243.600000</ele>
        <time>2020-10-17T09:50:53Z</time>
      </trkpt>
      <trkpt lat="39.948202000" lon="-8.480631000">
        <ele>243.800000</ele>
        <time>2020-10-17T09:50:54Z</time>
      </trkpt>
      <trkpt lat="39.948165000" lon="-8.480645000">
        <ele>244.000000</ele>
        <time>2020-10-17T09:50:55Z</time>
      </trkpt>
      <trkpt lat="39.948128000" lon="-8.480659000">
        <ele>244.000000</ele>
        <time>2020-10-17T09:50:56Z</time>
      </trkpt>
      <trkpt lat="39.948092000" lon="-8.480670000">
        <ele>244.000000</ele>
        <time>2020-10-17T09:50:57Z</time>
      </trkpt>
      <trkpt lat="39.948056000" lon="-8.480678000">
        <ele>244.200000</ele>
        <time>2020-10-17T09:50:58Z</time>
      </trkpt>
      <trkpt lat="39.948018000" lon="-8.480688000">
        <ele>244.200000</ele>
        <time>2020-10-17T09:50:59Z</time>
      </trkpt>
      <trkpt lat="39.947981000" lon="-8.480698000">
        <ele>244.200000</ele>
        <time>2020-10-17T09:51:00Z</time>
      </trkpt>
      <trkpt lat="39.947944000" lon="-8.480708000">
        <ele>244.200000</ele>
        <time>2020-10-17T09:51:01Z</time>
      </trkpt>
      <trkpt lat="39.947908000" lon="-8.480719000">
        <ele>244.200000</ele>
        <time>2020-10-17T09:51:02Z</time>
      </trkpt>
      <trkpt lat="39.947872000" lon="-8.480730000">
        <ele>244.400000</ele>
        <time>2020-10-17T09:51:03Z</time>
      </trkpt>
      <trkpt lat="39.947834000" lon="-8.480741000">
        <ele>244.400000</ele>
        <time>2020-10-17T09:51:04Z</time>
      </trkpt>
      <trkpt lat="39.947797000" lon="-8.480754000">
        <ele>244.400000</ele>
        <time>2020-10-17T09:51:05Z</time>
      </trkpt>
      <trkpt lat="39.947759000" lon="-8.480766000">
        <ele>244.600000</ele>
        <time>2020-10-17T09:51:06Z</time>
      </trkpt>
      <trkpt lat="39.947723000" lon="-8.480780000">
        <ele>244.600000</ele>
        <time>2020-10-17T09:51:07Z</time>
      </trkpt>
      <trkpt lat="39.947688000" lon="-8.480793000">
        <ele>244.600000</ele>
        <time>2020-10-17T09:51:08Z</time>
      </trkpt>
      <trkpt lat="39.947652000" lon="-8.480809000">
        <ele>244.800000</ele>
        <time>2020-10-17T09:51:09Z</time>
      </trkpt>
      <trkpt lat="39.947618000" lon="-8.480825000">
        <ele>245.000000</ele>
        <time>2020-10-17T09:51:10Z</time>
      </trkpt>
      <trkpt lat="39.947584000" lon="-8.480839000">
        <ele>245.000000</ele>
        <time>2020-10-17T09:51:11Z</time>
      </trkpt>
      <trkpt lat="39.947550000" lon="-8.480854000">
        <ele>245.000000</ele>
        <time>2020-10-17T09:51:12Z</time>
      </trkpt>
      <trkpt lat="39.947516000" lon="-8.480868000">
        <ele>245.200000</ele>
        <time>2020-10-17T09:51:13Z</time>
      </trkpt>
      <trkpt lat="39.947483000" lon="-8.480878000">
        <ele>245.200000</ele>
        <time>2020-10-17T09:51:14Z</time>
      </trkpt>
      <trkpt lat="39.947451000" lon="-8.480888000">
        <ele>245.400000</ele>
        <time>2020-10-17T09:51:15Z</time>
      </trkpt>
      <trkpt lat="39.947421000" lon="-8.480902000">
        <ele>245.400000</ele>
        <time>2020-10-17T09:51:16Z</time>
      </trkpt>
      <trkpt lat="39.947394000" lon="-8.480920000">
        <ele>245.400000</ele>
        <time>2020-10-17T09:51:17Z</time>
      </trkpt>
      <trkpt lat="39.947368000" lon="-8.480938000">
        <ele>245.800000</ele>
        <time>2020-10-17T09:51:18Z</time>
      </trkpt>
      <trkpt lat="39.947343000" lon="-8.480955000">
        <ele>246.000000</ele>
        <time>2020-10-17T09:51:19Z</time>
      </trkpt>
      <trkpt lat="39.947317000" lon="-8.480969000">
        <ele>246.000000</ele>
        <time>2020-10-17T09:51:20Z</time>
      </trkpt>
      <trkpt lat="39.947289000" lon="-8.480981000">
        <ele>246.400000</ele>
        <time>2020-10-17T09:51:21Z</time>
      </trkpt>
      <trkpt lat="39.947260000" lon="-8.480992000">
        <ele>246.400000</ele>
        <time>2020-10-17T09:51:22Z</time>
      </trkpt>
      <trkpt lat="39.947232000" lon="-8.481000000">
        <ele>246.600000</ele>
        <time>2020-10-17T09:51:23Z</time>
      </trkpt>
      <trkpt lat="39.947206000" lon="-8.481005000">
        <ele>246.800000</ele>
        <time>2020-10-17T09:51:24Z</time>
      </trkpt>
      <trkpt lat="39.947178000" lon="-8.481008000">
        <ele>246.800000</ele>
        <time>2020-10-17T09:51:25Z</time>
      </trkpt>
      <trkpt lat="39.947151000" lon="-8.481011000">
        <ele>247.200000</ele>
        <time>2020-10-17T09:51:26Z</time>
      </trkpt>
      <trkpt lat="39.947124000" lon="-8.481013000">
        <ele>247.600000</ele>
        <time>2020-10-17T09:51:27Z</time>
      </trkpt>
      <trkpt lat="39.947098000" lon="-8.481012000">
        <ele>248.000000</ele>
        <time>2020-10-17T09:51:28Z</time>
      </trkpt>
      <trkpt lat="39.947072000" lon="-8.481009000">
        <ele>248.200000</ele>
        <time>2020-10-17T09:51:29Z</time>
      </trkpt>
      <trkpt lat="39.947046000" lon="-8.481005000">
        <ele>248.400000</ele>
        <time>2020-10-17T09:51:30Z</time>
      </trkpt>
      <trkpt lat="39.947019000" lon="-8.480998000">
        <ele>248.600000</ele>
        <time>2020-10-17T09:51:31Z</time>
      </trkpt>
      <trkpt lat="39.946993000" lon="-8.480990000">
        <ele>248.600000</ele>
        <time>2020-10-17T09:51:32Z</time>
      </trkpt>
      <trkpt lat="39.946968000" lon="-8.480986000">
        <ele>248.600000</ele>
        <time>2020-10-17T09:51:33Z</time>
      </trkpt>
      <trkpt lat="39.946942000" lon="-8.480986000">
        <ele>249.000000</ele>
        <time>2020-10-17T09:51:34Z</time>
      </trkpt>
      <trkpt lat="39.946921000" lon="-8.480988000">
        <ele>249.400000</ele>
        <time>2020-10-17T09:51:35Z</time>
      </trkpt>
      <trkpt lat="39.946906000" lon="-8.480983000">
        <ele>249.400000</ele>
        <time>2020-10-17T09:51:36Z</time>
      </trkpt>
      <trkpt lat="39.946895000" lon="-8.480980000">
        <ele>249.800000</ele>
        <time>2020-10-17T09:51:37Z</time>
      </trkpt>
      <trkpt lat="39.946890000" lon="-8.480981000">
        <ele>249.800000</ele>
        <time>2020-10-17T09:51:38Z</time>
      </trkpt>
      <trkpt lat="39.946893000" lon="-8.480980000">
        <ele>250.400000</ele>
        <time>2020-10-17T09:51:40Z</time>
      </trkpt>
      <trkpt lat="39.946797000" lon="-8.480881000">
        <ele>251.800000</ele>
        <time>2020-10-17T10:08:00Z</time>
      </trkpt>
      <trkpt lat="39.946778000" lon="-8.480874000">
        <ele>251.800000</ele>
        <time>2020-10-17T10:08:01Z</time>
      </trkpt>
      <trkpt lat="39.946751000" lon="-8.480871000">
        <ele>251.800000</ele>
        <time>2020-10-17T10:08:02Z</time>
      </trkpt>
      <trkpt lat="39.946722000" lon="-8.480874000">
        <ele>251.800000</ele>
        <time>2020-10-17T10:08:03Z</time>
      </trkpt>
      <trkpt lat="39.946690000" lon="-8.480882000">
        <ele>251.600000</ele>
        <time>2020-10-17T10:08:04Z</time>
      </trkpt>
      <trkpt lat="39.946656000" lon="-8.480890000">
        <ele>251.800000</ele>
        <time>2020-10-17T10:08:05Z</time>
      </trkpt>
      <trkpt lat="39.946578000" lon="-8.480900000">
        <ele>252.000000</ele>
        <time>2020-10-17T10:08:07Z</time>
      </trkpt>
      <trkpt lat="39.946290000" lon="-8.480969000">
        <ele>252.200000</ele>
        <time>2020-10-17T10:08:13Z</time>
      </trkpt>
      <trkpt lat="39.946233000" lon="-8.480983000">
        <ele>252.200000</ele>
        <time>2020-10-17T10:08:14Z</time>
      </trkpt>
      <trkpt lat="39.945989000" lon="-8.481036000">
        <ele>252.200000</ele>
        <time>2020-10-17T10:08:18Z</time>
      </trkpt>
      <trkpt lat="39.945920000" lon="-8.481047000">
        <ele>252.000000</ele>
        <time>2020-10-17T10:08:19Z</time>
      </trkpt>
      <trkpt lat="39.945852000" lon="-8.481060000">
        <ele>252.000000</ele>
        <time>2020-10-17T10:08:20Z</time>
      </trkpt>
      <trkpt lat="39.945633000" lon="-8.481099000">
        <ele>251.400000</ele>
        <time>2020-10-17T10:08:23Z</time>
      </trkpt>
      <trkpt lat="39.945401000" lon="-8.481133000">
        <ele>250.800000</ele>
        <time>2020-10-17T10:08:26Z</time>
      </trkpt>
      <trkpt lat="39.945320000" lon="-8.481146000">
        <ele>250.400000</ele>
        <time>2020-10-17T10:08:27Z</time>
      </trkpt>
      <trkpt lat="39.945069000" lon="-8.481180000">
        <ele>249.000000</ele>
        <time>2020-10-17T10:08:30Z</time>
      </trkpt>
      <trkpt lat="39.944893000" lon="-8.481211000">
        <ele>248.600000</ele>
        <time>2020-10-17T10:08:32Z</time>
      </trkpt>
      <trkpt lat="39.944803000" lon="-8.481226000">
        <ele>248.200000</ele>
        <time>2020-10-17T10:08:33Z</time>
      </trkpt>
      <trkpt lat="39.944618000" lon="-8.481261000">
        <ele>247.600000</ele>
        <time>2020-10-17T10:08:35Z</time>
      </trkpt>
      <trkpt lat="39.944519000" lon="-8.481280000">
        <ele>247.200000</ele>
        <time>2020-10-17T10:08:36Z</time>
      </trkpt>
      <trkpt lat="39.944417000" lon="-8.481302000">
        <ele>246.800000</ele>
        <time>2020-10-17T10:08:37Z</time>
      </trkpt>
      <trkpt lat="39.944311000" lon="-8.481329000">
        <ele>246.200000</ele>
        <time>2020-10-17T10:08:38Z</time>
      </trkpt>
      <trkpt lat="39.944205000" lon="-8.481364000">
        <ele>245.800000</ele>
        <time>2020-10-17T10:08:39Z</time>
      </trkpt>
      <trkpt lat="39.944104000" lon="-8.481410000">
        <ele>245.400000</ele>
        <time>2020-10-17T10:08:40Z</time>
      </trkpt>
      <trkpt lat="39.944006000" lon="-8.481470000">
        <ele>245.000000</ele>
        <time>2020-10-17T10:08:41Z</time>
      </trkpt>
      <trkpt lat="39.943913000" lon="-8.481544000">
        <ele>244.200000</ele>
        <time>2020-10-17T10:08:42Z</time>
      </trkpt>
      <trkpt lat="39.943827000" lon="-8.481624000">
        <ele>243.400000</ele>
        <time>2020-10-17T10:08:43Z</time>
      </trkpt>
      <trkpt lat="39.943745000" lon="-8.481706000">
        <ele>242.600000</ele>
        <time>2020-10-17T10:08:44Z</time>
      </trkpt>
      <trkpt lat="39.943665000" lon="-8.481789000">
        <ele>241.800000</ele>
        <time>2020-10-17T10:08:45Z</time>
      </trkpt>
      <trkpt lat="39.943584000" lon="-8.481869000">
        <ele>240.600000</ele>
        <time>2020-10-17T10:08:46Z</time>
      </trkpt>
      <trkpt lat="39.943505000" lon="-8.481946000">
        <ele>239.200000</ele>
        <time>2020-10-17T10:08:47Z</time>
      </trkpt>
      <trkpt lat="39.943426000" lon="-8.482014000">
        <ele>238.000000</ele>
        <time>2020-10-17T10:08:48Z</time>
      </trkpt>
      <trkpt lat="39.943351000" lon="-8.482065000">
        <ele>236.600000</ele>
        <time>2020-10-17T10:08:49Z</time>
      </trkpt>
      <trkpt lat="39.943275000" lon="-8.482092000">
        <ele>235.200000</ele>
        <time>2020-10-17T10:08:50Z</time>
      </trkpt>
      <trkpt lat="39.943197000" lon="-8.482090000">
        <ele>233.600000</ele>
        <time>2020-10-17T10:08:51Z</time>
      </trkpt>
      <trkpt lat="39.943117000" lon="-8.482075000">
        <ele>232.000000</ele>
        <time>2020-10-17T10:08:52Z</time>
      </trkpt>
      <trkpt lat="39.943038000" lon="-8.482063000">
        <ele>232.000000</ele>
        <time>2020-10-17T10:08:53Z</time>
      </trkpt>
      <trkpt lat="39.942871000" lon="-8.482056000">
        <ele>229.400000</ele>
        <time>2020-10-17T10:08:55Z</time>
      </trkpt>
      <trkpt lat="39.942699000" lon="-8.482051000">
        <ele>227.800000</ele>
        <time>2020-10-17T10:08:57Z</time>
      </trkpt>
      <trkpt lat="39.942613000" lon="-8.482042000">
        <ele>227.200000</ele>
        <time>2020-10-17T10:08:58Z</time>
      </trkpt>
      <trkpt lat="39.942442000" lon="-8.481997000">
        <ele>226.000000</ele>
        <time>2020-10-17T10:09:00Z</time>
      </trkpt>
      <trkpt lat="39.942359000" lon="-8.481972000">
        <ele>225.200000</ele>
        <time>2020-10-17T10:09:01Z</time>
      </trkpt>
      <trkpt lat="39.942277000" lon="-8.481947000">
        <ele>225.000000</ele>
        <time>2020-10-17T10:09:02Z</time>
      </trkpt>
      <trkpt lat="39.942197000" lon="-8.481922000">
        <ele>224.400000</ele>
        <time>2020-10-17T10:09:03Z</time>
      </trkpt>
      <trkpt lat="39.942121000" lon="-8.481894000">
        <ele>223.200000</ele>
        <time>2020-10-17T10:09:04Z</time>
      </trkpt>
      <trkpt lat="39.942041000" lon="-8.481876000">
        <ele>222.600000</ele>
        <time>2020-10-17T10:09:05Z</time>
      </trkpt>
      <trkpt lat="39.941964000" lon="-8.481872000">
        <ele>222.000000</ele>
        <time>2020-10-17T10:09:06Z</time>
      </trkpt>
      <trkpt lat="39.941887000" lon="-8.481876000">
        <ele>221.400000</ele>
        <time>2020-10-17T10:09:07Z</time>
      </trkpt>
      <trkpt lat="39.941646000" lon="-8.481917000">
        <ele>220.600000</ele>
        <time>2020-10-17T10:09:10Z</time>
      </trkpt>
      <trkpt lat="39.941488000" lon="-8.481931000">
        <ele>220.600000</ele>
        <time>2020-10-17T10:09:12Z</time>
      </trkpt>
      <trkpt lat="39.941413000" lon="-8.481929000">
        <ele>220.400000</ele>
        <time>2020-10-17T10:09:13Z</time>
      </trkpt>
      <trkpt lat="39.941268000" lon="-8.481908000">
        <ele>220.400000</ele>
        <time>2020-10-17T10:09:15Z</time>
      </trkpt>
      <trkpt lat="39.941120000" lon="-8.481859000">
        <ele>220.200000</ele>
        <time>2020-10-17T10:09:17Z</time>
      </trkpt>
      <trkpt lat="39.941048000" lon="-8.481824000">
        <ele>220.000000</ele>
        <time>2020-10-17T10:09:18Z</time>
      </trkpt>
      <trkpt lat="39.940974000" lon="-8.481788000">
        <ele>220.000000</ele>
        <time>2020-10-17T10:09:19Z</time>
      </trkpt>
      <trkpt lat="39.940899000" lon="-8.481750000">
        <ele>219.800000</ele>
        <time>2020-10-17T10:09:20Z</time>
      </trkpt>
      <trkpt lat="39.940827000" lon="-8.481708000">
        <ele>219.600000</ele>
        <time>2020-10-17T10:09:21Z</time>
      </trkpt>
      <trkpt lat="39.940745000" lon="-8.481666000">
        <ele>219.400000</ele>
        <time>2020-10-17T10:09:22Z</time>
      </trkpt>
      <trkpt lat="39.940656000" lon="-8.481626000">
        <ele>219.400000</ele>
        <time>2020-10-17T10:09:23Z</time>
      </trkpt>
      <trkpt lat="39.940468000" lon="-8.481548000">
        <ele>218.600000</ele>
        <time>2020-10-17T10:09:25Z</time>
      </trkpt>
      <trkpt lat="39.940367000" lon="-8.481503000">
        <ele>218.400000</ele>
        <time>2020-10-17T10:09:26Z</time>
      </trkpt>
      <trkpt lat="39.940256000" lon="-8.481465000">
        <ele>217.600000</ele>
        <time>2020-10-17T10:09:27Z</time>
      </trkpt>
      <trkpt lat="39.940140000" lon="-8.481426000">
        <ele>217.000000</ele>
        <time>2020-10-17T10:09:28Z</time>
      </trkpt>
      <trkpt lat="39.940016000" lon="-8.481394000">
        <ele>216.200000</ele>
        <time>2020-10-17T10:09:29Z</time>
      </trkpt>
      <trkpt lat="39.939898000" lon="-8.481352000">
        <ele>214.800000</ele>
        <time>2020-10-17T10:09:30Z</time>
      </trkpt>
      <trkpt lat="39.939784000" lon="-8.481305000">
        <ele>213.600000</ele>
        <time>2020-10-17T10:09:31Z</time>
      </trkpt>
      <trkpt lat="39.939675000" lon="-8.481262000">
        <ele>212.000000</ele>
        <time>2020-10-17T10:09:32Z</time>
      </trkpt>
      <trkpt lat="39.939571000" lon="-8.481223000">
        <ele>210.600000</ele>
        <time>2020-10-17T10:09:33Z</time>
      </trkpt>
      <trkpt lat="39.939469000" lon="-8.481192000">
        <ele>208.800000</ele>
        <time>2020-10-17T10:09:34Z</time>
      </trkpt>
      <trkpt lat="39.939376000" lon="-8.481168000">
        <ele>206.800000</ele>
        <time>2020-10-17T10:09:35Z</time>
      </trkpt>
      <trkpt lat="39.939292000" lon="-8.481144000">
        <ele>206.800000</ele>
        <time>2020-10-17T10:09:36Z</time>
      </trkpt>
      <trkpt lat="39.939220000" lon="-8.481113000">
        <ele>204.800000</ele>
        <time>2020-10-17T10:09:37Z</time>
      </trkpt>
      <trkpt lat="39.939158000" lon="-8.481073000">
        <ele>203.400000</ele>
        <time>2020-10-17T10:09:38Z</time>
      </trkpt>
      <trkpt lat="39.939106000" lon="-8.481029000">
        <ele>202.600000</ele>
        <time>2020-10-17T10:09:39Z</time>
      </trkpt>
      <trkpt lat="39.939057000" lon="-8.480985000">
        <ele>202.200000</ele>
        <time>2020-10-17T10:09:40Z</time>
      </trkpt>
      <trkpt lat="39.939010000" lon="-8.480944000">
        <ele>202.200000</ele>
        <time>2020-10-17T10:09:41Z</time>
      </trkpt>
      <trkpt lat="39.938966000" lon="-8.480905000">
        <ele>202.200000</ele>
        <time>2020-10-17T10:09:42Z</time>
      </trkpt>
      <trkpt lat="39.938924000" lon="-8.480870000">
        <ele>202.200000</ele>
        <time>2020-10-17T10:09:43Z</time>
      </trkpt>
      <trkpt lat="39.938885000" lon="-8.480839000">
        <ele>202.000000</ele>
        <time>2020-10-17T10:09:44Z</time>
      </trkpt>
      <trkpt lat="39.938849000" lon="-8.480813000">
        <ele>202.200000</ele>
        <time>2020-10-17T10:09:45Z</time>
      </trkpt>
      <trkpt lat="39.938814000" lon="-8.480786000">
        <ele>202.000000</ele>
        <time>2020-10-17T10:09:46Z</time>
      </trkpt>
      <trkpt lat="39.938781000" lon="-8.480760000">
        <ele>202.000000</ele>
        <time>2020-10-17T10:09:47Z</time>
      </trkpt>
      <trkpt lat="39.938746000" lon="-8.480735000">
        <ele>202.800000</ele>
        <time>2020-10-17T10:09:48Z</time>
      </trkpt>
      <trkpt lat="39.938712000" lon="-8.480713000">
        <ele>203.000000</ele>
        <time>2020-10-17T10:09:49Z</time>
      </trkpt>
      <trkpt lat="39.938680000" lon="-8.480690000">
        <ele>203.400000</ele>
        <time>2020-10-17T10:09:50Z</time>
      </trkpt>
      <trkpt lat="39.938523000" lon="-8.480576000">
        <ele>205.000000</ele>
        <time>2020-10-17T10:09:54Z</time>
      </trkpt>
      <trkpt lat="39.938470000" lon="-8.480533000">
        <ele>205.200000</ele>
        <time>2020-10-17T10:09:55Z</time>
      </trkpt>
      <trkpt lat="39.938267000" lon="-8.480370000">
        <ele>205.200000</ele>
        <time>2020-10-17T10:09:58Z</time>
      </trkpt>
      <trkpt lat="39.938108000" lon="-8.480229000">
        <ele>205.200000</ele>
        <time>2020-10-17T10:10:00Z</time>
      </trkpt>
      <trkpt lat="39.937948000" lon="-8.480089000">
        <ele>205.200000</ele>
        <time>2020-10-17T10:10:02Z</time>
      </trkpt>
      <trkpt lat="39.937871000" lon="-8.480012000">
        <ele>205.200000</ele>
        <time>2020-10-17T10:10:03Z</time>
      </trkpt>
      <trkpt lat="39.937799000" lon="-8.479923000">
        <ele>205.200000</ele>
        <time>2020-10-17T10:10:04Z</time>
      </trkpt>
      <trkpt lat="39.937733000" lon="-8.479830000">
        <ele>204.800000</ele>
        <time>2020-10-17T10:10:05Z</time>
      </trkpt>
      <trkpt lat="39.937667000" lon="-8.479744000">
        <ele>204.000000</ele>
        <time>2020-10-17T10:10:06Z</time>
      </trkpt>
      <trkpt lat="39.937600000" lon="-8.479666000">
        <ele>202.800000</ele>
        <time>2020-10-17T10:10:07Z</time>
      </trkpt>
      <trkpt lat="39.937536000" lon="-8.479595000">
        <ele>201.600000</ele>
        <time>2020-10-17T10:10:08Z</time>
      </trkpt>
      <trkpt lat="39.937475000" lon="-8.479532000">
        <ele>200.400000</ele>
        <time>2020-10-17T10:10:09Z</time>
      </trkpt>
      <trkpt lat="39.937417000" lon="-8.479475000">
        <ele>199.200000</ele>
        <time>2020-10-17T10:10:10Z</time>
      </trkpt>
      <trkpt lat="39.937362000" lon="-8.479421000">
        <ele>198.600000</ele>
        <time>2020-10-17T10:10:11Z</time>
      </trkpt>
      <trkpt lat="39.937309000" lon="-8.479371000">
        <ele>198.200000</ele>
        <time>2020-10-17T10:10:12Z</time>
      </trkpt>
      <trkpt lat="39.937259000" lon="-8.479324000">
        <ele>198.000000</ele>
        <time>2020-10-17T10:10:13Z</time>
      </trkpt>
      <trkpt lat="39.937211000" lon="-8.479281000">
        <ele>197.800000</ele>
        <time>2020-10-17T10:10:14Z</time>
      </trkpt>
      <trkpt lat="39.937163000" lon="-8.479241000">
        <ele>197.800000</ele>
        <time>2020-10-17T10:10:15Z</time>
      </trkpt>
      <trkpt lat="39.937117000" lon="-8.479205000">
        <ele>197.800000</ele>
        <time>2020-10-17T10:10:16Z</time>
      </trkpt>
      <trkpt lat="39.937073000" lon="-8.479168000">
        <ele>197.800000</ele>
        <time>2020-10-17T10:10:17Z</time>
      </trkpt>
      <trkpt lat="39.937032000" lon="-8.479126000">
        <ele>197.800000</ele>
        <time>2020-10-17T10:10:18Z</time>
      </trkpt>
      <trkpt lat="39.936995000" lon="-8.479080000">
        <ele>197.800000</ele>
        <time>2020-10-17T10:10:19Z</time>
      </trkpt>
      <trkpt lat="39.936960000" lon="-8.479034000">
        <ele>197.800000</ele>
        <time>2020-10-17T10:10:20Z</time>
      </trkpt>
      <trkpt lat="39.936926000" lon="-8.478990000">
        <ele>197.600000</ele>
        <time>2020-10-17T10:10:21Z</time>
      </trkpt>
      <trkpt lat="39.936891000" lon="-8.478944000">
        <ele>197.800000</ele>
        <time>2020-10-17T10:10:22Z</time>
      </trkpt>
      <trkpt lat="39.936856000" lon="-8.478899000">
        <ele>198.000000</ele>
        <time>2020-10-17T10:10:23Z</time>
      </trkpt>
      <trkpt lat="39.936822000" lon="-8.478855000">
        <ele>198.200000</ele>
        <time>2020-10-17T10:10:24Z</time>
      </trkpt>
      <trkpt lat="39.936785000" lon="-8.478813000">
        <ele>198.400000</ele>
        <time>2020-10-17T10:10:25Z</time>
      </trkpt>
      <trkpt lat="39.936750000" lon="-8.478772000">
        <ele>198.600000</ele>
        <time>2020-10-17T10:10:26Z</time>
      </trkpt>
      <trkpt lat="39.936715000" lon="-8.478731000">
        <ele>198.600000</ele>
        <time>2020-10-17T10:10:27Z</time>
      </trkpt>
      <trkpt lat="39.936681000" lon="-8.478692000">
        <ele>198.800000</ele>
        <time>2020-10-17T10:10:28Z</time>
      </trkpt>
      <trkpt lat="39.936646000" lon="-8.478657000">
        <ele>198.800000</ele>
        <time>2020-10-17T10:10:29Z</time>
      </trkpt>
      <trkpt lat="39.936610000" lon="-8.478623000">
        <ele>199.000000</ele>
        <time>2020-10-17T10:10:30Z</time>
      </trkpt>
      <trkpt lat="39.936576000" lon="-8.478591000">
        <ele>199.200000</ele>
        <time>2020-10-17T10:10:31Z</time>
      </trkpt>
      <trkpt lat="39.936540000" lon="-8.478560000">
        <ele>199.400000</ele>
        <time>2020-10-17T10:10:32Z</time>
      </trkpt>
      <trkpt lat="39.936502000" lon="-8.478529000">
        <ele>199.800000</ele>
        <time>2020-10-17T10:10:33Z</time>
      </trkpt>
      <trkpt lat="39.936426000" lon="-8.478469000">
        <ele>200.200000</ele>
        <time>2020-10-17T10:10:35Z</time>
      </trkpt>
      <trkpt lat="39.936389000" lon="-8.478438000">
        <ele>200.400000</ele>
        <time>2020-10-17T10:10:36Z</time>
      </trkpt>
      <trkpt lat="39.936354000" lon="-8.478411000">
        <ele>200.600000</ele>
        <time>2020-10-17T10:10:37Z</time>
      </trkpt>
      <trkpt lat="39.936317000" lon="-8.478385000">
        <ele>200.600000</ele>
        <time>2020-10-17T10:10:38Z</time>
      </trkpt>
      <trkpt lat="39.936282000" lon="-8.478359000">
        <ele>200.800000</ele>
        <time>2020-10-17T10:10:39Z</time>
      </trkpt>
      <trkpt lat="39.936248000" lon="-8.478336000">
        <ele>200.800000</ele>
        <time>2020-10-17T10:10:40Z</time>
      </trkpt>
      <trkpt lat="39.936212000" lon="-8.478319000">
        <ele>201.400000</ele>
        <time>2020-10-17T10:10:41Z</time>
      </trkpt>
      <trkpt lat="39.936175000" lon="-8.478301000">
        <ele>201.400000</ele>
        <time>2020-10-17T10:10:42Z</time>
      </trkpt>
      <trkpt lat="39.936139000" lon="-8.478286000">
        <ele>201.400000</ele>
        <time>2020-10-17T10:10:43Z</time>
      </trkpt>
      <trkpt lat="39.936103000" lon="-8.478271000">
        <ele>201.600000</ele>
        <time>2020-10-17T10:10:44Z</time>
      </trkpt>
      <trkpt lat="39.936067000" lon="-8.478256000">
        <ele>201.800000</ele>
        <time>2020-10-17T10:10:45Z</time>
      </trkpt>
      <trkpt lat="39.936034000" lon="-8.478242000">
        <ele>202.000000</ele>
        <time>2020-10-17T10:10:46Z</time>
      </trkpt>
      <trkpt lat="39.935997000" lon="-8.478231000">
        <ele>202.400000</ele>
        <time>2020-10-17T10:10:47Z</time>
      </trkpt>
      <trkpt lat="39.935959000" lon="-8.478221000">
        <ele>202.400000</ele>
        <time>2020-10-17T10:10:48Z</time>
      </trkpt>
      <trkpt lat="39.935922000" lon="-8.478214000">
        <ele>202.400000</ele>
        <time>2020-10-17T10:10:49Z</time>
      </trkpt>
      <trkpt lat="39.935884000" lon="-8.478205000">
        <ele>202.400000</ele>
        <time>2020-10-17T10:10:50Z</time>
      </trkpt>
      <trkpt lat="39.935847000" lon="-8.478196000">
        <ele>202.600000</ele>
        <time>2020-10-17T10:10:51Z</time>
      </trkpt>
      <trkpt lat="39.935811000" lon="-8.478189000">
        <ele>202.800000</ele>
        <time>2020-10-17T10:10:52Z</time>
      </trkpt>
      <trkpt lat="39.935777000" lon="-8.478181000">
        <ele>202.800000</ele>
        <time>2020-10-17T10:10:53Z</time>
      </trkpt>
      <trkpt lat="39.935744000" lon="-8.478173000">
        <ele>203.000000</ele>
        <time>2020-10-17T10:10:54Z</time>
      </trkpt>
      <trkpt lat="39.935711000" lon="-8.478163000">
        <ele>203.000000</ele>
        <time>2020-10-17T10:10:55Z</time>
      </trkpt>
      <trkpt lat="39.935677000" lon="-8.478152000">
        <ele>203.400000</ele>
        <time>2020-10-17T10:10:56Z</time>
      </trkpt>
      <trkpt lat="39.935641000" lon="-8.478140000">
        <ele>203.800000</ele>
        <time>2020-10-17T10:10:57Z</time>
      </trkpt>
      <trkpt lat="39.935606000" lon="-8.478131000">
        <ele>203.800000</ele>
        <time>2020-10-17T10:10:58Z</time>
      </trkpt>
      <trkpt lat="39.935574000" lon="-8.478123000">
        <ele>204.400000</ele>
        <time>2020-10-17T10:10:59Z</time>
      </trkpt>
      <trkpt lat="39.935545000" lon="-8.478113000">
        <ele>204.600000</ele>
        <time>2020-10-17T10:11:00Z</time>
      </trkpt>
      <trkpt lat="39.935516000" lon="-8.478103000">
        <ele>204.600000</ele>
        <time>2020-10-17T10:11:01Z</time>
      </trkpt>
      <trkpt lat="39.935487000" lon="-8.478095000">
        <ele>204.800000</ele>
        <time>2020-10-17T10:11:02Z</time>
      </trkpt>
      <trkpt lat="39.935459000" lon="-8.478087000">
        <ele>205.000000</ele>
        <time>2020-10-17T10:11:03Z</time>
      </trkpt>
      <trkpt lat="39.935433000" lon="-8.478074000">
        <ele>205.000000</ele>
        <time>2020-10-17T10:11:04Z</time>
      </trkpt>
      <trkpt lat="39.935406000" lon="-8.478062000">
        <ele>205.000000</ele>
        <time>2020-10-17T10:11:05Z</time>
      </trkpt>
      <trkpt lat="39.935381000" lon="-8.478049000">
        <ele>205.200000</ele>
        <time>2020-10-17T10:11:06Z</time>
      </trkpt>
      <trkpt lat="39.935358000" lon="-8.478035000">
        <ele>205.600000</ele>
        <time>2020-10-17T10:11:07Z</time>
      </trkpt>
      <trkpt lat="39.935335000" lon="-8.478018000">
        <ele>205.800000</ele>
        <time>2020-10-17T10:11:08Z</time>
      </trkpt>
      <trkpt lat="39.935313000" lon="-8.478000000">
        <ele>206.000000</ele>
        <time>2020-10-17T10:11:09Z</time>
      </trkpt>
      <trkpt lat="39.935290000" lon="-8.477978000">
        <ele>206.200000</ele>
        <time>2020-10-17T10:11:10Z</time>
      </trkpt>
      <trkpt lat="39.935267000" lon="-8.477953000">
        <ele>206.400000</ele>
        <time>2020-10-17T10:11:11Z</time>
      </trkpt>
      <trkpt lat="39.935244000" lon="-8.477925000">
        <ele>207.000000</ele>
        <time>2020-10-17T10:11:12Z</time>
      </trkpt>
      <trkpt lat="39.935221000" lon="-8.477897000">
        <ele>207.400000</ele>
        <time>2020-10-17T10:11:13Z</time>
      </trkpt>
      <trkpt lat="39.935193000" lon="-8.477870000">
        <ele>207.600000</ele>
        <time>2020-10-17T10:11:14Z</time>
      </trkpt>
      <trkpt lat="39.935160000" lon="-8.477840000">
        <ele>207.800000</ele>
        <time>2020-10-17T10:11:15Z</time>
      </trkpt>
      <trkpt lat="39.935125000" lon="-8.477806000">
        <ele>208.000000</ele>
        <time>2020-10-17T10:11:16Z</time>
      </trkpt>
      <trkpt lat="39.935088000" lon="-8.477767000">
        <ele>208.000000</ele>
        <time>2020-10-17T10:11:17Z</time>
      </trkpt>
      <trkpt lat="39.935045000" lon="-8.477722000">
        <ele>208.000000</ele>
        <time>2020-10-17T10:11:18Z</time>
      </trkpt>
      <trkpt lat="39.935004000" lon="-8.477674000">
        <ele>208.200000</ele>
        <time>2020-10-17T10:11:19Z</time>
      </trkpt>
      <trkpt lat="39.934961000" lon="-8.477623000">
        <ele>208.200000</ele>
        <time>2020-10-17T10:11:20Z</time>
      </trkpt>
      <trkpt lat="39.934913000" lon="-8.477573000">
        <ele>208.200000</ele>
        <time>2020-10-17T10:11:21Z</time>
      </trkpt>
      <trkpt lat="39.934866000" lon="-8.477521000">
        <ele>208.200000</ele>
        <time>2020-10-17T10:11:22Z</time>
      </trkpt>
      <trkpt lat="39.934719000" lon="-8.477369000">
        <ele>208.200000</ele>
        <time>2020-10-17T10:11:25Z</time>
      </trkpt>
      <trkpt lat="39.934671000" lon="-8.477323000">
        <ele>208.200000</ele>
        <time>2020-10-17T10:11:26Z</time>
      </trkpt>
      <trkpt lat="39.934624000" lon="-8.477279000">
        <ele>208.000000</ele>
        <time>2020-10-17T10:11:27Z</time>
      </trkpt>
      <trkpt lat="39.934574000" lon="-8.477239000">
        <ele>208.000000</ele>
        <time>2020-10-17T10:11:28Z</time>
      </trkpt>
      <trkpt lat="39.934420000" lon="-8.477127000">
        <ele>207.600000</ele>
        <time>2020-10-17T10:11:31Z</time>
      </trkpt>
      <trkpt lat="39.934370000" lon="-8.477092000">
        <ele>207.600000</ele>
        <time>2020-10-17T10:11:32Z</time>
      </trkpt>
      <trkpt lat="39.934319000" lon="-8.477059000">
        <ele>207.600000</ele>
        <time>2020-10-17T10:11:33Z</time>
      </trkpt>
      <trkpt lat="39.934270000" lon="-8.477026000">
        <ele>207.600000</ele>
        <time>2020-10-17T10:11:34Z</time>
      </trkpt>
      <trkpt lat="39.934222000" lon="-8.476994000">
        <ele>207.600000</ele>
        <time>2020-10-17T10:11:35Z</time>
      </trkpt>
      <trkpt lat="39.934175000" lon="-8.476960000">
        <ele>207.400000</ele>
        <time>2020-10-17T10:11:36Z</time>
      </trkpt>
      <trkpt lat="39.934129000" lon="-8.476926000">
        <ele>207.600000</ele>
        <time>2020-10-17T10:11:37Z</time>
      </trkpt>
      <trkpt lat="39.934085000" lon="-8.476891000">
        <ele>207.600000</ele>
        <time>2020-10-17T10:11:38Z</time>
      </trkpt>
      <trkpt lat="39.934043000" lon="-8.476855000">
        <ele>207.600000</ele>
        <time>2020-10-17T10:11:39Z</time>
      </trkpt>
      <trkpt lat="39.934004000" lon="-8.476816000">
        <ele>207.600000</ele>
        <time>2020-10-17T10:11:40Z</time>
      </trkpt>
      <trkpt lat="39.933970000" lon="-8.476778000">
        <ele>207.600000</ele>
        <time>2020-10-17T10:11:41Z</time>
      </trkpt>
      <trkpt lat="39.933940000" lon="-8.476743000">
        <ele>207.600000</ele>
        <time>2020-10-17T10:11:42Z</time>
      </trkpt>
      <trkpt lat="39.933911000" lon="-8.476717000">
        <ele>207.800000</ele>
        <time>2020-10-17T10:11:43Z</time>
      </trkpt>
      <trkpt lat="39.933885000" lon="-8.476690000">
        <ele>207.800000</ele>
        <time>2020-10-17T10:11:44Z</time>
      </trkpt>
      <trkpt lat="39.933864000" lon="-8.476661000">
        <ele>207.800000</ele>
        <time>2020-10-17T10:11:45Z</time>
      </trkpt>
      <trkpt lat="39.933852000" lon="-8.476629000">
        <ele>208.000000</ele>
        <time>2020-10-17T10:11:46Z</time>
      </trkpt>
      <trkpt lat="39.933842000" lon="-8.476597000">
        <ele>208.200000</ele>
        <time>2020-10-17T10:11:47Z</time>
      </trkpt>
      <trkpt lat="39.933827000" lon="-8.476565000">
        <ele>208.400000</ele>
        <time>2020-10-17T10:11:48Z</time>
      </trkpt>
      <trkpt lat="39.933810000" lon="-8.476532000">
        <ele>208.400000</ele>
        <time>2020-10-17T10:11:49Z</time>
      </trkpt>
      <trkpt lat="39.933794000" lon="-8.476495000">
        <ele>208.600000</ele>
        <time>2020-10-17T10:11:50Z</time>
      </trkpt>
      <trkpt lat="39.933779000" lon="-8.476459000">
        <ele>209.000000</ele>
        <time>2020-10-17T10:11:51Z</time>
      </trkpt>
      <trkpt lat="39.933763000" lon="-8.476421000">
        <ele>209.200000</ele>
        <time>2020-10-17T10:11:52Z</time>
      </trkpt>
      <trkpt lat="39.933748000" lon="-8.476382000">
        <ele>209.400000</ele>
        <time>2020-10-17T10:11:53Z</time>
      </trkpt>
      <trkpt lat="39.933732000" lon="-8.476340000">
        <ele>209.800000</ele>
        <time>2020-10-17T10:11:54Z</time>
      </trkpt>
      <trkpt lat="39.933717000" lon="-8.476297000">
        <ele>210.000000</ele>
        <time>2020-10-17T10:11:55Z</time>
      </trkpt>
      <trkpt lat="39.933702000" lon="-8.476251000">
        <ele>210.400000</ele>
        <time>2020-10-17T10:11:56Z</time>
      </trkpt>
      <trkpt lat="39.933689000" lon="-8.476205000">
        <ele>210.600000</ele>
        <time>2020-10-17T10:11:57Z</time>
      </trkpt>
      <trkpt lat="39.933677000" lon="-8.476161000">
        <ele>210.600000</ele>
        <time>2020-10-17T10:11:58Z</time>
      </trkpt>
      <trkpt lat="39.933662000" lon="-8.476120000">
        <ele>210.800000</ele>
        <time>2020-10-17T10:11:59Z</time>
      </trkpt>
      <trkpt lat="39.933641000" lon="-8.476086000">
        <ele>211.200000</ele>
        <time>2020-10-17T10:12:00Z</time>
      </trkpt>
      <trkpt lat="39.933615000" lon="-8.476058000">
        <ele>211.400000</ele>
        <time>2020-10-17T10:12:01Z</time>
      </trkpt>
      <trkpt lat="39.933589000" lon="-8.476031000">
        <ele>211.600000</ele>
        <time>2020-10-17T10:12:02Z</time>
      </trkpt>
      <trkpt lat="39.933566000" lon="-8.476008000">
        <ele>211.800000</ele>
        <time>2020-10-17T10:12:03Z</time>
      </trkpt>
      <trkpt lat="39.933548000" lon="-8.475983000">
        <ele>212.000000</ele>
        <time>2020-10-17T10:12:04Z</time>
      </trkpt>
      <trkpt lat="39.933531000" lon="-8.475957000">
        <ele>212.200000</ele>
        <time>2020-10-17T10:12:05Z</time>
      </trkpt>
      <trkpt lat="39.933514000" lon="-8.475924000">
        <ele>212.200000</ele>
        <time>2020-10-17T10:12:06Z</time>
      </trkpt>
      <trkpt lat="39.933501000" lon="-8.475896000">
        <ele>212.400000</ele>
        <time>2020-10-17T10:12:07Z</time>
      </trkpt>
      <trkpt lat="39.933493000" lon="-8.475869000">
        <ele>212.600000</ele>
        <time>2020-10-17T10:12:08Z</time>
      </trkpt>
      <trkpt lat="39.933485000" lon="-8.475845000">
        <ele>212.800000</ele>
        <time>2020-10-17T10:12:09Z</time>
      </trkpt>
      <trkpt lat="39.933484000" lon="-8.475825000">
        <ele>213.000000</ele>
        <time>2020-10-17T10:12:10Z</time>
      </trkpt>
      <trkpt lat="39.933485000" lon="-8.475803000">
        <ele>213.400000</ele>
        <time>2020-10-17T10:12:11Z</time>
      </trkpt>
      <trkpt lat="39.933486000" lon="-8.475783000">
        <ele>213.400000</ele>
        <time>2020-10-17T10:12:12Z</time>
      </trkpt>
      <trkpt lat="39.933480000" lon="-8.475762000">
        <ele>213.600000</ele>
        <time>2020-10-17T10:12:13Z</time>
      </trkpt>
      <trkpt lat="39.933475000" lon="-8.475738000">
        <ele>213.800000</ele>
        <time>2020-10-17T10:12:14Z</time>
      </trkpt>
      <trkpt lat="39.933470000" lon="-8.475715000">
        <ele>213.800000</ele>
        <time>2020-10-17T10:12:15Z</time>
      </trkpt>
      <trkpt lat="39.933466000" lon="-8.475689000">
        <ele>214.200000</ele>
        <time>2020-10-17T10:12:16Z</time>
      </trkpt>
      <trkpt lat="39.933467000" lon="-8.475662000">
        <ele>214.600000</ele>
        <time>2020-10-17T10:12:17Z</time>
      </trkpt>
      <trkpt lat="39.933468000" lon="-8.475631000">
        <ele>214.800000</ele>
        <time>2020-10-17T10:12:18Z</time>
      </trkpt>
      <trkpt lat="39.933469000" lon="-8.475593000">
        <ele>215.000000</ele>
        <time>2020-10-17T10:12:19Z</time>
      </trkpt>
      <trkpt lat="39.933470000" lon="-8.475548000">
        <ele>215.200000</ele>
        <time>2020-10-17T10:12:20Z</time>
      </trkpt>
      <trkpt lat="39.933472000" lon="-8.475499000">
        <ele>215.600000</ele>
        <time>2020-10-17T10:12:21Z</time>
      </trkpt>
      <trkpt lat="39.933471000" lon="-8.475444000">
        <ele>216.000000</ele>
        <time>2020-10-17T10:12:22Z</time>
      </trkpt>
      <trkpt lat="39.933468000" lon="-8.475387000">
        <ele>216.200000</ele>
        <time>2020-10-17T10:12:23Z</time>
      </trkpt>
      <trkpt lat="39.933462000" lon="-8.475325000">
        <ele>216.400000</ele>
        <time>2020-10-17T10:12:24Z</time>
      </trkpt>
      <trkpt lat="39.933456000" lon="-8.475261000">
        <ele>216.600000</ele>
        <time>2020-10-17T10:12:25Z</time>
      </trkpt>
      <trkpt lat="39.933446000" lon="-8.475197000">
        <ele>216.600000</ele>
        <time>2020-10-17T10:12:26Z</time>
      </trkpt>
      <trkpt lat="39.933437000" lon="-8.475134000">
        <ele>216.600000</ele>
        <time>2020-10-17T10:12:27Z</time>
      </trkpt>
      <trkpt lat="39.933428000" lon="-8.475072000">
        <ele>216.400000</ele>
        <time>2020-10-17T10:12:28Z</time>
      </trkpt>
      <trkpt lat="39.933421000" lon="-8.475007000">
        <ele>216.600000</ele>
        <time>2020-10-17T10:12:29Z</time>
      </trkpt>
      <trkpt lat="39.933413000" lon="-8.474943000">
        <ele>216.600000</ele>
        <time>2020-10-17T10:12:30Z</time>
      </trkpt>
      <trkpt lat="39.933405000" lon="-8.474880000">
        <ele>216.400000</ele>
        <time>2020-10-17T10:12:31Z</time>
      </trkpt>
      <trkpt lat="39.933395000" lon="-8.474821000">
        <ele>216.600000</ele>
        <time>2020-10-17T10:12:32Z</time>
      </trkpt>
      <trkpt lat="39.933383000" lon="-8.474766000">
        <ele>216.600000</ele>
        <time>2020-10-17T10:12:33Z</time>
      </trkpt>
      <trkpt lat="39.933370000" lon="-8.474712000">
        <ele>216.800000</ele>
        <time>2020-10-17T10:12:34Z</time>
      </trkpt>
      <trkpt lat="39.933358000" lon="-8.474662000">
        <ele>216.800000</ele>
        <time>2020-10-17T10:12:35Z</time>
      </trkpt>
      <trkpt lat="39.933348000" lon="-8.474614000">
        <ele>216.800000</ele>
        <time>2020-10-17T10:12:36Z</time>
      </trkpt>
      <trkpt lat="39.933336000" lon="-8.474572000">
        <ele>216.800000</ele>
        <time>2020-10-17T10:12:37Z</time>
      </trkpt>
      <trkpt lat="39.933324000" lon="-8.474532000">
        <ele>216.800000</ele>
        <time>2020-10-17T10:12:38Z</time>
      </trkpt>
      <trkpt lat="39.933311000" lon="-8.474491000">
        <ele>216.800000</ele>
        <time>2020-10-17T10:12:39Z</time>
      </trkpt>
      <trkpt lat="39.933298000" lon="-8.474447000">
        <ele>216.800000</ele>
        <time>2020-10-17T10:12:40Z</time>
      </trkpt>
      <trkpt lat="39.933285000" lon="-8.474399000">
        <ele>216.800000</ele>
        <time>2020-10-17T10:12:41Z</time>
      </trkpt>
      <trkpt lat="39.933263000" lon="-8.474352000">
        <ele>217.000000</ele>
        <time>2020-10-17T10:12:42Z</time>
      </trkpt>
      <trkpt lat="39.933228000" lon="-8.474312000">
        <ele>217.400000</ele>
        <time>2020-10-17T10:12:43Z</time>
      </trkpt>
      <trkpt lat="39.933177000" lon="-8.474287000">
        <ele>217.600000</ele>
        <time>2020-10-17T10:12:44Z</time>
      </trkpt>
      <trkpt lat="39.933115000" lon="-8.474276000">
        <ele>217.800000</ele>
        <time>2020-10-17T10:12:45Z</time>
      </trkpt>
      <trkpt lat="39.933045000" lon="-8.474278000">
        <ele>217.800000</ele>
        <time>2020-10-17T10:12:46Z</time>
      </trkpt>
      <trkpt lat="39.932972000" lon="-8.474291000">
        <ele>217.800000</ele>
        <time>2020-10-17T10:12:47Z</time>
      </trkpt>
      <trkpt lat="39.932897000" lon="-8.474311000">
        <ele>217.800000</ele>
        <time>2020-10-17T10:12:48Z</time>
      </trkpt>
      <trkpt lat="39.932742000" lon="-8.474371000">
        <ele>217.800000</ele>
        <time>2020-10-17T10:12:50Z</time>
      </trkpt>
      <trkpt lat="39.932661000" lon="-8.474397000">
        <ele>217.800000</ele>
        <time>2020-10-17T10:12:51Z</time>
      </trkpt>
      <trkpt lat="39.932572000" lon="-8.474417000">
        <ele>217.800000</ele>
        <time>2020-10-17T10:12:52Z</time>
      </trkpt>
      <trkpt lat="39.932480000" lon="-8.474426000">
        <ele>217.800000</ele>
        <time>2020-10-17T10:12:53Z</time>
      </trkpt>
      <trkpt lat="39.932384000" lon="-8.474426000">
        <ele>216.800000</ele>
        <time>2020-10-17T10:12:54Z</time>
      </trkpt>
      <trkpt lat="39.932191000" lon="-8.474403000">
        <ele>216.000000</ele>
        <time>2020-10-17T10:12:56Z</time>
      </trkpt>
      <trkpt lat="39.932000000" lon="-8.474376000">
        <ele>214.800000</ele>
        <time>2020-10-17T10:12:58Z</time>
      </trkpt>
      <trkpt lat="39.931805000" lon="-8.474354000">
        <ele>213.800000</ele>
        <time>2020-10-17T10:13:00Z</time>
      </trkpt>
      <trkpt lat="39.931711000" lon="-8.474344000">
        <ele>213.200000</ele>
        <time>2020-10-17T10:13:01Z</time>
      </trkpt>
      <trkpt lat="39.931620000" lon="-8.474329000">
        <ele>211.800000</ele>
        <time>2020-10-17T10:13:02Z</time>
      </trkpt>
      <trkpt lat="39.931537000" lon="-8.474300000">
        <ele>210.400000</ele>
        <time>2020-10-17T10:13:03Z</time>
      </trkpt>
      <trkpt lat="39.931461000" lon="-8.474259000">
        <ele>209.200000</ele>
        <time>2020-10-17T10:13:04Z</time>
      </trkpt>
      <trkpt lat="39.931390000" lon="-8.474207000">
        <ele>208.800000</ele>
        <time>2020-10-17T10:13:05Z</time>
      </trkpt>
      <trkpt lat="39.931257000" lon="-8.474081000">
        <ele>207.800000</ele>
        <time>2020-10-17T10:13:07Z</time>
      </trkpt>
      <trkpt lat="39.931194000" lon="-8.474011000">
        <ele>207.200000</ele>
        <time>2020-10-17T10:13:08Z</time>
      </trkpt>
      <trkpt lat="39.931138000" lon="-8.473930000">
        <ele>206.800000</ele>
        <time>2020-10-17T10:13:09Z</time>
      </trkpt>
      <trkpt lat="39.931031000" lon="-8.473759000">
        <ele>206.600000</ele>
        <time>2020-10-17T10:13:11Z</time>
      </trkpt>
      <trkpt lat="39.930887000" lon="-8.473465000">
        <ele>205.000000</ele>
        <time>2020-10-17T10:13:14Z</time>
      </trkpt>
      <trkpt lat="39.930800000" lon="-8.473256000">
        <ele>204.400000</ele>
        <time>2020-10-17T10:13:16Z</time>
      </trkpt>
      <trkpt lat="39.930754000" lon="-8.473152000">
        <ele>204.400000</ele>
        <time>2020-10-17T10:13:17Z</time>
      </trkpt>
      <trkpt lat="39.930700000" lon="-8.473058000">
        <ele>203.600000</ele>
        <time>2020-10-17T10:13:18Z</time>
      </trkpt>
      <trkpt lat="39.930569000" lon="-8.472895000">
        <ele>202.600000</ele>
        <time>2020-10-17T10:13:20Z</time>
      </trkpt>
      <trkpt lat="39.930377000" lon="-8.472640000">
        <ele>201.400000</ele>
        <time>2020-10-17T10:13:23Z</time>
      </trkpt>
      <trkpt lat="39.930325000" lon="-8.472552000">
        <ele>201.000000</ele>
        <time>2020-10-17T10:13:24Z</time>
      </trkpt>
      <trkpt lat="39.930270000" lon="-8.472480000">
        <ele>200.200000</ele>
        <time>2020-10-17T10:13:25Z</time>
      </trkpt>
      <trkpt lat="39.930217000" lon="-8.472427000">
        <ele>199.600000</ele>
        <time>2020-10-17T10:13:26Z</time>
      </trkpt>
      <trkpt lat="39.930162000" lon="-8.472395000">
        <ele>199.000000</ele>
        <time>2020-10-17T10:13:27Z</time>
      </trkpt>
      <trkpt lat="39.930103000" lon="-8.472387000">
        <ele>198.400000</ele>
        <time>2020-10-17T10:13:28Z</time>
      </trkpt>
      <trkpt lat="39.930045000" lon="-8.472385000">
        <ele>197.600000</ele>
        <time>2020-10-17T10:13:29Z</time>
      </trkpt>
      <trkpt lat="39.929990000" lon="-8.472383000">
        <ele>197.000000</ele>
        <time>2020-10-17T10:13:30Z</time>
      </trkpt>
      <trkpt lat="39.929933000" lon="-8.472386000">
        <ele>196.800000</ele>
        <time>2020-10-17T10:13:31Z</time>
      </trkpt>
      <trkpt lat="39.929798000" lon="-8.472375000">
        <ele>196.800000</ele>
        <time>2020-10-17T10:13:33Z</time>
      </trkpt>
      <trkpt lat="39.929733000" lon="-8.472360000">
        <ele>196.600000</ele>
        <time>2020-10-17T10:13:34Z</time>
      </trkpt>
      <trkpt lat="39.929685000" lon="-8.472343000">
        <ele>196.400000</ele>
        <time>2020-10-17T10:13:35Z</time>
      </trkpt>
      <trkpt lat="39.929668000" lon="-8.472313000">
        <ele>196.400000</ele>
        <time>2020-10-17T10:13:36Z</time>
      </trkpt>
      <trkpt lat="39.929664000" lon="-8.472292000">
        <ele>196.200000</ele>
        <time>2020-10-17T10:13:37Z</time>
      </trkpt>
      <trkpt lat="39.929673000" lon="-8.472275000">
        <ele>196.200000</ele>
        <time>2020-10-17T10:13:38Z</time>
      </trkpt>
      <trkpt lat="39.929680000" lon="-8.472249000">
        <ele>195.800000</ele>
        <time>2020-10-17T10:13:39Z</time>
      </trkpt>
      <trkpt lat="39.929687000" lon="-8.472168000">
        <ele>195.200000</ele>
        <time>2020-10-17T10:13:41Z</time>
      </trkpt>
      <trkpt lat="39.929682000" lon="-8.472119000">
        <ele>194.600000</ele>
        <time>2020-10-17T10:13:42Z</time>
      </trkpt>
      <trkpt lat="39.929648000" lon="-8.471892000">
        <ele>193.400000</ele>
        <time>2020-10-17T10:13:46Z</time>
      </trkpt>
      <trkpt lat="39.929641000" lon="-8.471833000">
        <ele>193.200000</ele>
        <time>2020-10-17T10:13:47Z</time>
      </trkpt>
      <trkpt lat="39.929641000" lon="-8.471778000">
        <ele>193.000000</ele>
        <time>2020-10-17T10:13:48Z</time>
      </trkpt>
      <trkpt lat="39.929642000" lon="-8.471734000">
        <ele>193.000000</ele>
        <time>2020-10-17T10:13:49Z</time>
      </trkpt>
      <trkpt lat="39.929642000" lon="-8.471702000">
        <ele>193.000000</ele>
        <time>2020-10-17T10:13:50Z</time>
      </trkpt>
      <trkpt lat="39.929642000" lon="-8.471674000">
        <ele>193.000000</ele>
        <time>2020-10-17T10:13:51Z</time>
      </trkpt>
      <trkpt lat="39.929640000" lon="-8.471651000">
        <ele>193.000000</ele>
        <time>2020-10-17T10:13:52Z</time>
      </trkpt>
      <trkpt lat="39.929639000" lon="-8.471631000">
        <ele>193.000000</ele>
        <time>2020-10-17T10:13:53Z</time>
      </trkpt>
      <trkpt lat="39.929637000" lon="-8.471611000">
        <ele>193.000000</ele>
        <time>2020-10-17T10:13:54Z</time>
      </trkpt>
      <trkpt lat="39.929631000" lon="-8.471598000">
        <ele>193.000000</ele>
        <time>2020-10-17T10:13:55Z</time>
      </trkpt>
      <trkpt lat="39.929624000" lon="-8.471589000">
        <ele>193.200000</ele>
        <time>2020-10-17T10:13:56Z</time>
      </trkpt>
      <trkpt lat="39.929617000" lon="-8.471579000">
        <ele>193.000000</ele>
        <time>2020-10-17T10:13:57Z</time>
      </trkpt>
      <trkpt lat="39.929614000" lon="-8.471567000">
        <ele>193.400000</ele>
        <time>2020-10-17T10:13:58Z</time>
      </trkpt>
      <trkpt lat="39.929609000" lon="-8.471558000">
        <ele>193.600000</ele>
        <time>2020-10-17T10:13:59Z</time>
      </trkpt>
      <trkpt lat="39.929582000" lon="-8.471528000">
        <ele>194.800000</ele>
        <time>2020-10-17T10:14:02Z</time>
      </trkpt>
      <trkpt lat="39.929570000" lon="-8.471522000">
        <ele>195.000000</ele>
        <time>2020-10-17T10:14:03Z</time>
      </trkpt>
      <trkpt lat="39.929557000" lon="-8.471517000">
        <ele>195.400000</ele>
        <time>2020-10-17T10:14:04Z</time>
      </trkpt>
      <trkpt lat="39.929544000" lon="-8.471514000">
        <ele>195.800000</ele>
        <time>2020-10-17T10:14:05Z</time>
      </trkpt>
      <trkpt lat="39.929530000" lon="-8.471511000">
        <ele>196.200000</ele>
        <time>2020-10-17T10:14:06Z</time>
      </trkpt>
      <trkpt lat="39.929515000" lon="-8.471508000">
        <ele>196.600000</ele>
        <time>2020-10-17T10:14:07Z</time>
      </trkpt>
      <trkpt lat="39.929503000" lon="-8.471502000">
        <ele>197.000000</ele>
        <time>2020-10-17T10:14:08Z</time>
      </trkpt>
      <trkpt lat="39.929488000" lon="-8.471499000">
        <ele>197.400000</ele>
        <time>2020-10-17T10:14:09Z</time>
      </trkpt>
      <trkpt lat="39.929473000" lon="-8.471494000">
        <ele>197.800000</ele>
        <time>2020-10-17T10:14:10Z</time>
      </trkpt>
      <trkpt lat="39.929457000" lon="-8.471491000">
        <ele>198.000000</ele>
        <time>2020-10-17T10:14:11Z</time>
      </trkpt>
      <trkpt lat="39.929444000" lon="-8.471487000">
        <ele>198.400000</ele>
        <time>2020-10-17T10:14:12Z</time>
      </trkpt>
      <trkpt lat="39.929429000" lon="-8.471483000">
        <ele>198.800000</ele>
        <time>2020-10-17T10:14:13Z</time>
      </trkpt>
      <trkpt lat="39.929414000" lon="-8.471478000">
        <ele>199.000000</ele>
        <time>2020-10-17T10:14:14Z</time>
      </trkpt>
      <trkpt lat="39.929400000" lon="-8.471471000">
        <ele>199.000000</ele>
        <time>2020-10-17T10:14:15Z</time>
      </trkpt>
      <trkpt lat="39.929386000" lon="-8.471466000">
        <ele>199.200000</ele>
        <time>2020-10-17T10:14:16Z</time>
      </trkpt>
      <trkpt lat="39.929372000" lon="-8.471462000">
        <ele>199.600000</ele>
        <time>2020-10-17T10:14:17Z</time>
      </trkpt>
      <trkpt lat="39.929358000" lon="-8.471459000">
        <ele>199.800000</ele>
        <time>2020-10-17T10:14:18Z</time>
      </trkpt>
      <trkpt lat="39.929344000" lon="-8.471455000">
        <ele>200.200000</ele>
        <time>2020-10-17T10:14:19Z</time>
      </trkpt>
      <trkpt lat="39.929330000" lon="-8.471451000">
        <ele>200.400000</ele>
        <time>2020-10-17T10:14:20Z</time>
      </trkpt>
      <trkpt lat="39.929316000" lon="-8.471447000">
        <ele>200.600000</ele>
        <time>2020-10-17T10:14:21Z</time>
      </trkpt>
      <trkpt lat="39.929301000" lon="-8.471445000">
        <ele>200.800000</ele>
        <time>2020-10-17T10:14:22Z</time>
      </trkpt>
      <trkpt lat="39.929287000" lon="-8.471443000">
        <ele>201.200000</ele>
        <time>2020-10-17T10:14:23Z</time>
      </trkpt>
      <trkpt lat="39.929272000" lon="-8.471440000">
        <ele>201.200000</ele>
        <time>2020-10-17T10:14:24Z</time>
      </trkpt>
      <trkpt lat="39.929257000" lon="-8.471438000">
        <ele>201.600000</ele>
        <time>2020-10-17T10:14:25Z</time>
      </trkpt>
      <trkpt lat="39.929242000" lon="-8.471440000">
        <ele>201.600000</ele>
        <time>2020-10-17T10:14:26Z</time>
      </trkpt>
      <trkpt lat="39.929228000" lon="-8.471440000">
        <ele>202.000000</ele>
        <time>2020-10-17T10:14:27Z</time>
      </trkpt>
      <trkpt lat="39.929212000" lon="-8.471441000">
        <ele>202.000000</ele>
        <time>2020-10-17T10:14:28Z</time>
      </trkpt>
      <trkpt lat="39.929198000" lon="-8.471439000">
        <ele>202.200000</ele>
        <time>2020-10-17T10:14:29Z</time>
      </trkpt>
      <trkpt lat="39.929185000" lon="-8.471436000">
        <ele>202.600000</ele>
        <time>2020-10-17T10:14:30Z</time>
      </trkpt>
      <trkpt lat="39.929172000" lon="-8.471434000">
        <ele>202.600000</ele>
        <time>2020-10-17T10:14:31Z</time>
      </trkpt>
      <trkpt lat="39.929160000" lon="-8.471431000">
        <ele>203.000000</ele>
        <time>2020-10-17T10:14:32Z</time>
      </trkpt>
      <trkpt lat="39.929151000" lon="-8.471428000">
        <ele>203.200000</ele>
        <time>2020-10-17T10:14:33Z</time>
      </trkpt>
      <trkpt lat="39.929142000" lon="-8.471425000">
        <ele>203.400000</ele>
        <time>2020-10-17T10:14:34Z</time>
      </trkpt>
      <trkpt lat="39.929130000" lon="-8.471421000">
        <ele>203.600000</ele>
        <time>2020-10-17T10:14:35Z</time>
      </trkpt>
      <trkpt lat="39.929119000" lon="-8.471419000">
        <ele>203.600000</ele>
        <time>2020-10-17T10:14:36Z</time>
      </trkpt>
      <trkpt lat="39.929106000" lon="-8.471417000">
        <ele>204.000000</ele>
        <time>2020-10-17T10:14:37Z</time>
      </trkpt>
      <trkpt lat="39.929093000" lon="-8.471415000">
        <ele>204.200000</ele>
        <time>2020-10-17T10:14:38Z</time>
      </trkpt>
      <trkpt lat="39.929080000" lon="-8.471411000">
        <ele>204.400000</ele>
        <time>2020-10-17T10:14:39Z</time>
      </trkpt>
      <trkpt lat="39.929070000" lon="-8.471405000">
        <ele>204.800000</ele>
        <time>2020-10-17T10:14:40Z</time>
      </trkpt>
      <trkpt lat="39.929060000" lon="-8.471397000">
        <ele>205.000000</ele>
        <time>2020-10-17T10:14:41Z</time>
      </trkpt>
      <trkpt lat="39.929051000" lon="-8.471389000">
        <ele>205.000000</ele>
        <time>2020-10-17T10:14:42Z</time>
      </trkpt>
      <trkpt lat="39.929040000" lon="-8.471383000">
        <ele>205.600000</ele>
        <time>2020-10-17T10:14:43Z</time>
      </trkpt>
      <trkpt lat="39.929028000" lon="-8.471377000">
        <ele>205.800000</ele>
        <time>2020-10-17T10:14:44Z</time>
      </trkpt>
      <trkpt lat="39.929016000" lon="-8.471367000">
        <ele>206.000000</ele>
        <time>2020-10-17T10:14:45Z</time>
      </trkpt>
      <trkpt lat="39.929005000" lon="-8.471358000">
        <ele>206.400000</ele>
        <time>2020-10-17T10:14:46Z</time>
      </trkpt>
      <trkpt lat="39.928995000" lon="-8.471347000">
        <ele>206.800000</ele>
        <time>2020-10-17T10:14:47Z</time>
      </trkpt>
      <trkpt lat="39.928984000" lon="-8.471334000">
        <ele>207.000000</ele>
        <time>2020-10-17T10:14:48Z</time>
      </trkpt>
      <trkpt lat="39.928977000" lon="-8.471319000">
        <ele>207.200000</ele>
        <time>2020-10-17T10:14:49Z</time>
      </trkpt>
      <trkpt lat="39.928968000" lon="-8.471308000">
        <ele>207.800000</ele>
        <time>2020-10-17T10:14:50Z</time>
      </trkpt>
      <trkpt lat="39.928959000" lon="-8.471300000">
        <ele>208.000000</ele>
        <time>2020-10-17T10:14:51Z</time>
      </trkpt>
      <trkpt lat="39.928945000" lon="-8.471291000">
        <ele>208.000000</ele>
        <time>2020-10-17T10:14:52Z</time>
      </trkpt>
      <trkpt lat="39.928934000" lon="-8.471285000">
        <ele>208.400000</ele>
        <time>2020-10-17T10:14:53Z</time>
      </trkpt>
      <trkpt lat="39.928922000" lon="-8.471278000">
        <ele>208.800000</ele>
        <time>2020-10-17T10:14:54Z</time>
      </trkpt>
      <trkpt lat="39.928909000" lon="-8.471266000">
        <ele>209.000000</ele>
        <time>2020-10-17T10:14:55Z</time>
      </trkpt>
      <trkpt lat="39.928897000" lon="-8.471254000">
        <ele>209.400000</ele>
        <time>2020-10-17T10:14:56Z</time>
      </trkpt>
      <trkpt lat="39.928889000" lon="-8.471242000">
        <ele>209.400000</ele>
        <time>2020-10-17T10:14:57Z</time>
      </trkpt>
      <trkpt lat="39.928880000" lon="-8.471229000">
        <ele>209.600000</ele>
        <time>2020-10-17T10:14:58Z</time>
      </trkpt>
      <trkpt lat="39.928872000" lon="-8.471216000">
        <ele>209.800000</ele>
        <time>2020-10-17T10:14:59Z</time>
      </trkpt>
      <trkpt lat="39.928862000" lon="-8.471204000">
        <ele>210.000000</ele>
        <time>2020-10-17T10:15:00Z</time>
      </trkpt>
      <trkpt lat="39.928852000" lon="-8.471186000">
        <ele>210.200000</ele>
        <time>2020-10-17T10:15:01Z</time>
      </trkpt>
      <trkpt lat="39.928841000" lon="-8.471170000">
        <ele>210.400000</ele>
        <time>2020-10-17T10:15:02Z</time>
      </trkpt>
      <trkpt lat="39.928831000" lon="-8.471153000">
        <ele>210.600000</ele>
        <time>2020-10-17T10:15:03Z</time>
      </trkpt>
      <trkpt lat="39.928822000" lon="-8.471134000">
        <ele>210.800000</ele>
        <time>2020-10-17T10:15:04Z</time>
      </trkpt>
      <trkpt lat="39.928812000" lon="-8.471114000">
        <ele>211.000000</ele>
        <time>2020-10-17T10:15:05Z</time>
      </trkpt>
      <trkpt lat="39.928800000" lon="-8.471092000">
        <ele>211.000000</ele>
        <time>2020-10-17T10:15:06Z</time>
      </trkpt>
      <trkpt lat="39.928789000" lon="-8.471073000">
        <ele>211.000000</ele>
        <time>2020-10-17T10:15:07Z</time>
      </trkpt>
      <trkpt lat="39.928779000" lon="-8.471053000">
        <ele>211.400000</ele>
        <time>2020-10-17T10:15:08Z</time>
      </trkpt>
      <trkpt lat="39.928768000" lon="-8.471034000">
        <ele>211.400000</ele>
        <time>2020-10-17T10:15:09Z</time>
      </trkpt>
      <trkpt lat="39.928758000" lon="-8.471016000">
        <ele>211.600000</ele>
        <time>2020-10-17T10:15:10Z</time>
      </trkpt>
      <trkpt lat="39.928748000" lon="-8.470997000">
        <ele>211.800000</ele>
        <time>2020-10-17T10:15:11Z</time>
      </trkpt>
      <trkpt lat="39.928737000" lon="-8.470975000">
        <ele>211.800000</ele>
        <time>2020-10-17T10:15:12Z</time>
      </trkpt>
      <trkpt lat="39.928726000" lon="-8.470951000">
        <ele>212.200000</ele>
        <time>2020-10-17T10:15:13Z</time>
      </trkpt>
      <trkpt lat="39.928716000" lon="-8.470928000">
        <ele>212.200000</ele>
        <time>2020-10-17T10:15:14Z</time>
      </trkpt>
      <trkpt lat="39.928708000" lon="-8.470905000">
        <ele>212.400000</ele>
        <time>2020-10-17T10:15:15Z</time>
      </trkpt>
      <trkpt lat="39.928700000" lon="-8.470885000">
        <ele>212.400000</ele>
        <time>2020-10-17T10:15:16Z</time>
      </trkpt>
      <trkpt lat="39.928693000" lon="-8.470865000">
        <ele>212.400000</ele>
        <time>2020-10-17T10:15:17Z</time>
      </trkpt>
      <trkpt lat="39.928685000" lon="-8.470845000">
        <ele>212.800000</ele>
        <time>2020-10-17T10:15:18Z</time>
      </trkpt>
      <trkpt lat="39.928679000" lon="-8.470822000">
        <ele>212.800000</ele>
        <time>2020-10-17T10:15:19Z</time>
      </trkpt>
      <trkpt lat="39.928670000" lon="-8.470800000">
        <ele>212.800000</ele>
        <time>2020-10-17T10:15:20Z</time>
      </trkpt>
      <trkpt lat="39.928658000" lon="-8.470780000">
        <ele>213.000000</ele>
        <time>2020-10-17T10:15:21Z</time>
      </trkpt>
      <trkpt lat="39.928644000" lon="-8.470758000">
        <ele>213.000000</ele>
        <time>2020-10-17T10:15:22Z</time>
      </trkpt>
      <trkpt lat="39.928630000" lon="-8.470738000">
        <ele>213.000000</ele>
        <time>2020-10-17T10:15:23Z</time>
      </trkpt>
      <trkpt lat="39.928617000" lon="-8.470719000">
        <ele>213.200000</ele>
        <time>2020-10-17T10:15:24Z</time>
      </trkpt>
      <trkpt lat="39.928601000" lon="-8.470700000">
        <ele>213.400000</ele>
        <time>2020-10-17T10:15:25Z</time>
      </trkpt>
      <trkpt lat="39.928589000" lon="-8.470680000">
        <ele>213.400000</ele>
        <time>2020-10-17T10:15:26Z</time>
      </trkpt>
      <trkpt lat="39.928581000" lon="-8.470660000">
        <ele>213.600000</ele>
        <time>2020-10-17T10:15:27Z</time>
      </trkpt>
      <trkpt lat="39.928573000" lon="-8.470642000">
        <ele>213.600000</ele>
        <time>2020-10-17T10:15:28Z</time>
      </trkpt>
      <trkpt lat="39.928566000" lon="-8.470623000">
        <ele>214.000000</ele>
        <time>2020-10-17T10:15:29Z</time>
      </trkpt>
      <trkpt lat="39.928558000" lon="-8.470605000">
        <ele>214.000000</ele>
        <time>2020-10-17T10:15:30Z</time>
      </trkpt>
      <trkpt lat="39.928549000" lon="-8.470586000">
        <ele>214.200000</ele>
        <time>2020-10-17T10:15:31Z</time>
      </trkpt>
      <trkpt lat="39.928540000" lon="-8.470566000">
        <ele>214.400000</ele>
        <time>2020-10-17T10:15:32Z</time>
      </trkpt>
      <trkpt lat="39.928534000" lon="-8.470547000">
        <ele>214.400000</ele>
        <time>2020-10-17T10:15:33Z</time>
      </trkpt>
      <trkpt lat="39.928526000" lon="-8.470530000">
        <ele>214.600000</ele>
        <time>2020-10-17T10:15:34Z</time>
      </trkpt>
      <trkpt lat="39.928521000" lon="-8.470510000">
        <ele>214.800000</ele>
        <time>2020-10-17T10:15:35Z</time>
      </trkpt>
      <trkpt lat="39.928517000" lon="-8.470490000">
        <ele>215.000000</ele>
        <time>2020-10-17T10:15:36Z</time>
      </trkpt>
      <trkpt lat="39.928512000" lon="-8.470468000">
        <ele>215.200000</ele>
        <time>2020-10-17T10:15:37Z</time>
      </trkpt>
      <trkpt lat="39.928506000" lon="-8.470449000">
        <ele>215.400000</ele>
        <time>2020-10-17T10:15:38Z</time>
      </trkpt>
      <trkpt lat="39.928502000" lon="-8.470430000">
        <ele>215.600000</ele>
        <time>2020-10-17T10:15:39Z</time>
      </trkpt>
      <trkpt lat="39.928497000" lon="-8.470410000">
        <ele>215.800000</ele>
        <time>2020-10-17T10:15:40Z</time>
      </trkpt>
      <trkpt lat="39.928491000" lon="-8.470388000">
        <ele>215.800000</ele>
        <time>2020-10-17T10:15:41Z</time>
      </trkpt>
      <trkpt lat="39.928484000" lon="-8.470368000">
        <ele>216.200000</ele>
        <time>2020-10-17T10:15:42Z</time>
      </trkpt>
      <trkpt lat="39.928475000" lon="-8.470348000">
        <ele>216.600000</ele>
        <time>2020-10-17T10:15:43Z</time>
      </trkpt>
      <trkpt lat="39.928469000" lon="-8.470326000">
        <ele>216.800000</ele>
        <time>2020-10-17T10:15:44Z</time>
      </trkpt>
      <trkpt lat="39.928462000" lon="-8.470302000">
        <ele>217.200000</ele>
        <time>2020-10-17T10:15:45Z</time>
      </trkpt>
      <trkpt lat="39.928458000" lon="-8.470279000">
        <ele>217.400000</ele>
        <time>2020-10-17T10:15:46Z</time>
      </trkpt>
      <trkpt lat="39.928453000" lon="-8.470255000">
        <ele>217.600000</ele>
        <time>2020-10-17T10:15:47Z</time>
      </trkpt>
      <trkpt lat="39.928446000" lon="-8.470232000">
        <ele>217.800000</ele>
        <time>2020-10-17T10:15:48Z</time>
      </trkpt>
      <trkpt lat="39.928442000" lon="-8.470208000">
        <ele>217.800000</ele>
        <time>2020-10-17T10:15:49Z</time>
      </trkpt>
      <trkpt lat="39.928437000" lon="-8.470186000">
        <ele>218.200000</ele>
        <time>2020-10-17T10:15:50Z</time>
      </trkpt>
      <trkpt lat="39.928433000" lon="-8.470162000">
        <ele>218.400000</ele>
        <time>2020-10-17T10:15:51Z</time>
      </trkpt>
      <trkpt lat="39.928426000" lon="-8.470136000">
        <ele>218.600000</ele>
        <time>2020-10-17T10:15:52Z</time>
      </trkpt>
      <trkpt lat="39.928419000" lon="-8.470111000">
        <ele>219.000000</ele>
        <time>2020-10-17T10:15:53Z</time>
      </trkpt>
      <trkpt lat="39.928412000" lon="-8.470086000">
        <ele>219.000000</ele>
        <time>2020-10-17T10:15:54Z</time>
      </trkpt>
      <trkpt lat="39.928405000" lon="-8.470064000">
        <ele>219.200000</ele>
        <time>2020-10-17T10:15:55Z</time>
      </trkpt>
      <trkpt lat="39.928398000" lon="-8.470042000">
        <ele>219.200000</ele>
        <time>2020-10-17T10:15:56Z</time>
      </trkpt>
      <trkpt lat="39.928391000" lon="-8.470021000">
        <ele>219.400000</ele>
        <time>2020-10-17T10:15:57Z</time>
      </trkpt>
      <trkpt lat="39.928385000" lon="-8.469999000">
        <ele>219.600000</ele>
        <time>2020-10-17T10:15:58Z</time>
      </trkpt>
      <trkpt lat="39.928380000" lon="-8.469978000">
        <ele>219.800000</ele>
        <time>2020-10-17T10:15:59Z</time>
      </trkpt>
      <trkpt lat="39.928374000" lon="-8.469960000">
        <ele>220.000000</ele>
        <time>2020-10-17T10:16:00Z</time>
      </trkpt>
      <trkpt lat="39.928368000" lon="-8.469941000">
        <ele>220.000000</ele>
        <time>2020-10-17T10:16:01Z</time>
      </trkpt>
      <trkpt lat="39.928364000" lon="-8.469919000">
        <ele>220.000000</ele>
        <time>2020-10-17T10:16:02Z</time>
      </trkpt>
      <trkpt lat="39.928361000" lon="-8.469896000">
        <ele>220.400000</ele>
        <time>2020-10-17T10:16:03Z</time>
      </trkpt>
      <trkpt lat="39.928355000" lon="-8.469878000">
        <ele>220.600000</ele>
        <time>2020-10-17T10:16:04Z</time>
      </trkpt>
      <trkpt lat="39.928351000" lon="-8.469856000">
        <ele>221.000000</ele>
        <time>2020-10-17T10:16:05Z</time>
      </trkpt>
      <trkpt lat="39.928349000" lon="-8.469833000">
        <ele>221.200000</ele>
        <time>2020-10-17T10:16:06Z</time>
      </trkpt>
      <trkpt lat="39.928348000" lon="-8.469812000">
        <ele>221.400000</ele>
        <time>2020-10-17T10:16:07Z</time>
      </trkpt>
      <trkpt lat="39.928347000" lon="-8.469792000">
        <ele>221.600000</ele>
        <time>2020-10-17T10:16:08Z</time>
      </trkpt>
      <trkpt lat="39.928345000" lon="-8.469775000">
        <ele>221.800000</ele>
        <time>2020-10-17T10:16:09Z</time>
      </trkpt>
      <trkpt lat="39.928343000" lon="-8.469760000">
        <ele>222.000000</ele>
        <time>2020-10-17T10:16:10Z</time>
      </trkpt>
      <trkpt lat="39.928341000" lon="-8.469743000">
        <ele>222.000000</ele>
        <time>2020-10-17T10:16:11Z</time>
      </trkpt>
      <trkpt lat="39.928337000" lon="-8.469725000">
        <ele>222.400000</ele>
        <time>2020-10-17T10:16:12Z</time>
      </trkpt>
      <trkpt lat="39.928333000" lon="-8.469706000">
        <ele>222.600000</ele>
        <time>2020-10-17T10:16:13Z</time>
      </trkpt>
      <trkpt lat="39.928330000" lon="-8.469680000">
        <ele>222.800000</ele>
        <time>2020-10-17T10:16:14Z</time>
      </trkpt>
      <trkpt lat="39.928328000" lon="-8.469658000">
        <ele>223.200000</ele>
        <time>2020-10-17T10:16:15Z</time>
      </trkpt>
      <trkpt lat="39.928326000" lon="-8.469636000">
        <ele>223.400000</ele>
        <time>2020-10-17T10:16:16Z</time>
      </trkpt>
      <trkpt lat="39.928321000" lon="-8.469613000">
        <ele>223.600000</ele>
        <time>2020-10-17T10:16:17Z</time>
      </trkpt>
      <trkpt lat="39.928313000" lon="-8.469598000">
        <ele>224.000000</ele>
        <time>2020-10-17T10:16:18Z</time>
      </trkpt>
      <trkpt lat="39.928304000" lon="-8.469582000">
        <ele>224.200000</ele>
        <time>2020-10-17T10:16:19Z</time>
      </trkpt>
      <trkpt lat="39.928292000" lon="-8.469568000">
        <ele>224.200000</ele>
        <time>2020-10-17T10:16:20Z</time>
      </trkpt>
      <trkpt lat="39.928277000" lon="-8.469559000">
        <ele>224.600000</ele>
        <time>2020-10-17T10:16:21Z</time>
      </trkpt>
      <trkpt lat="39.928260000" lon="-8.469549000">
        <ele>224.800000</ele>
        <time>2020-10-17T10:16:22Z</time>
      </trkpt>
      <trkpt lat="39.928239000" lon="-8.469539000">
        <ele>224.800000</ele>
        <time>2020-10-17T10:16:23Z</time>
      </trkpt>
      <trkpt lat="39.928216000" lon="-8.469529000">
        <ele>225.000000</ele>
        <time>2020-10-17T10:16:24Z</time>
      </trkpt>
      <trkpt lat="39.928190000" lon="-8.469521000">
        <ele>225.200000</ele>
        <time>2020-10-17T10:16:25Z</time>
      </trkpt>
      <trkpt lat="39.928161000" lon="-8.469514000">
        <ele>225.400000</ele>
        <time>2020-10-17T10:16:26Z</time>
      </trkpt>
      <trkpt lat="39.928135000" lon="-8.469503000">
        <ele>225.600000</ele>
        <time>2020-10-17T10:16:27Z</time>
      </trkpt>
      <trkpt lat="39.928111000" lon="-8.469490000">
        <ele>225.800000</ele>
        <time>2020-10-17T10:16:28Z</time>
      </trkpt>
      <trkpt lat="39.928088000" lon="-8.469474000">
        <ele>225.800000</ele>
        <time>2020-10-17T10:16:29Z</time>
      </trkpt>
      <trkpt lat="39.928072000" lon="-8.469442000">
        <ele>226.000000</ele>
        <time>2020-10-17T10:16:30Z</time>
      </trkpt>
      <trkpt lat="39.928058000" lon="-8.469392000">
        <ele>226.000000</ele>
        <time>2020-10-17T10:16:31Z</time>
      </trkpt>
      <trkpt lat="39.928045000" lon="-8.469339000">
        <ele>226.000000</ele>
        <time>2020-10-17T10:16:32Z</time>
      </trkpt>
      <trkpt lat="39.928029000" lon="-8.469293000">
        <ele>226.000000</ele>
        <time>2020-10-17T10:16:33Z</time>
      </trkpt>
      <trkpt lat="39.928012000" lon="-8.469261000">
        <ele>225.800000</ele>
        <time>2020-10-17T10:16:34Z</time>
      </trkpt>
      <trkpt lat="39.927991000" lon="-8.469237000">
        <ele>226.000000</ele>
        <time>2020-10-17T10:16:35Z</time>
      </trkpt>
      <trkpt lat="39.927969000" lon="-8.469214000">
        <ele>226.000000</ele>
        <time>2020-10-17T10:16:36Z</time>
      </trkpt>
      <trkpt lat="39.927947000" lon="-8.469186000">
        <ele>226.000000</ele>
        <time>2020-10-17T10:16:37Z</time>
      </trkpt>
      <trkpt lat="39.927919000" lon="-8.469156000">
        <ele>225.600000</ele>
        <time>2020-10-17T10:16:38Z</time>
      </trkpt>
      <trkpt lat="39.927886000" lon="-8.469121000">
        <ele>225.200000</ele>
        <time>2020-10-17T10:16:39Z</time>
      </trkpt>
      <trkpt lat="39.927856000" lon="-8.469089000">
        <ele>225.000000</ele>
        <time>2020-10-17T10:16:40Z</time>
      </trkpt>
      <trkpt lat="39.927821000" lon="-8.469050000">
        <ele>224.200000</ele>
        <time>2020-10-17T10:16:41Z</time>
      </trkpt>
      <trkpt lat="39.927790000" lon="-8.469015000">
        <ele>223.800000</ele>
        <time>2020-10-17T10:16:42Z</time>
      </trkpt>
      <trkpt lat="39.927760000" lon="-8.468982000">
        <ele>223.000000</ele>
        <time>2020-10-17T10:16:43Z</time>
      </trkpt>
      <trkpt lat="39.927705000" lon="-8.468892000">
        <ele>222.400000</ele>
        <time>2020-10-17T10:16:45Z</time>
      </trkpt>
      <trkpt lat="39.927677000" lon="-8.468845000">
        <ele>222.000000</ele>
        <time>2020-10-17T10:16:46Z</time>
      </trkpt>
      <trkpt lat="39.927649000" lon="-8.468794000">
        <ele>221.200000</ele>
        <time>2020-10-17T10:16:47Z</time>
      </trkpt>
      <trkpt lat="39.927612000" lon="-8.468663000">
        <ele>220.000000</ele>
        <time>2020-10-17T10:16:49Z</time>
      </trkpt>
      <trkpt lat="39.927597000" lon="-8.468597000">
        <ele>219.800000</ele>
        <time>2020-10-17T10:16:50Z</time>
      </trkpt>
      <trkpt lat="39.927580000" lon="-8.468531000">
        <ele>219.600000</ele>
        <time>2020-10-17T10:16:51Z</time>
      </trkpt>
      <trkpt lat="39.927560000" lon="-8.468462000">
        <ele>219.000000</ele>
        <time>2020-10-17T10:16:52Z</time>
      </trkpt>
      <trkpt lat="39.927510000" lon="-8.468310000">
        <ele>218.200000</ele>
        <time>2020-10-17T10:16:54Z</time>
      </trkpt>
      <trkpt lat="39.927460000" lon="-8.468165000">
        <ele>217.200000</ele>
        <time>2020-10-17T10:16:56Z</time>
      </trkpt>
      <trkpt lat="39.927440000" lon="-8.468100000">
        <ele>216.800000</ele>
        <time>2020-10-17T10:16:57Z</time>
      </trkpt>
      <trkpt lat="39.927422000" lon="-8.468035000">
        <ele>216.200000</ele>
        <time>2020-10-17T10:16:58Z</time>
      </trkpt>
      <trkpt lat="39.927393000" lon="-8.467857000">
        <ele>215.000000</ele>
        <time>2020-10-17T10:17:00Z</time>
      </trkpt>
      <trkpt lat="39.927379000" lon="-8.467689000">
        <ele>214.200000</ele>
        <time>2020-10-17T10:17:02Z</time>
      </trkpt>
      <trkpt lat="39.927374000" lon="-8.467617000">
        <ele>213.400000</ele>
        <time>2020-10-17T10:17:03Z</time>
      </trkpt>
      <trkpt lat="39.927362000" lon="-8.467546000">
        <ele>213.400000</ele>
        <time>2020-10-17T10:17:04Z</time>
      </trkpt>
      <trkpt lat="39.927342000" lon="-8.467480000">
        <ele>213.400000</ele>
        <time>2020-10-17T10:17:05Z</time>
      </trkpt>
      <trkpt lat="39.927325000" lon="-8.467423000">
        <ele>212.800000</ele>
        <time>2020-10-17T10:17:06Z</time>
      </trkpt>
      <trkpt lat="39.927311000" lon="-8.467365000">
        <ele>212.600000</ele>
        <time>2020-10-17T10:17:07Z</time>
      </trkpt>
      <trkpt lat="39.927276000" lon="-8.467229000">
        <ele>211.600000</ele>
        <time>2020-10-17T10:17:09Z</time>
      </trkpt>
      <trkpt lat="39.927273000" lon="-8.467152000">
        <ele>211.000000</ele>
        <time>2020-10-17T10:17:10Z</time>
      </trkpt>
      <trkpt lat="39.927287000" lon="-8.467089000">
        <ele>210.600000</ele>
        <time>2020-10-17T10:17:11Z</time>
      </trkpt>
      <trkpt lat="39.927311000" lon="-8.467036000">
        <ele>210.200000</ele>
        <time>2020-10-17T10:17:12Z</time>
      </trkpt>
      <trkpt lat="39.927334000" lon="-8.466994000">
        <ele>210.200000</ele>
        <time>2020-10-17T10:17:13Z</time>
      </trkpt>
      <trkpt lat="39.927353000" lon="-8.466950000">
        <ele>209.400000</ele>
        <time>2020-10-17T10:17:14Z</time>
      </trkpt>
      <trkpt lat="39.927367000" lon="-8.466892000">
        <ele>209.000000</ele>
        <time>2020-10-17T10:17:15Z</time>
      </trkpt>
      <trkpt lat="39.927371000" lon="-8.466832000">
        <ele>208.400000</ele>
        <time>2020-10-17T10:17:16Z</time>
      </trkpt>
      <trkpt lat="39.927354000" lon="-8.466780000">
        <ele>207.800000</ele>
        <time>2020-10-17T10:17:17Z</time>
      </trkpt>
      <trkpt lat="39.927327000" lon="-8.466738000">
        <ele>207.400000</ele>
        <time>2020-10-17T10:17:18Z</time>
      </trkpt>
      <trkpt lat="39.927292000" lon="-8.466706000">
        <ele>207.000000</ele>
        <time>2020-10-17T10:17:19Z</time>
      </trkpt>
      <trkpt lat="39.927239000" lon="-8.466683000">
        <ele>206.600000</ele>
        <time>2020-10-17T10:17:20Z</time>
      </trkpt>
      <trkpt lat="39.927182000" lon="-8.466663000">
        <ele>206.200000</ele>
        <time>2020-10-17T10:17:21Z</time>
      </trkpt>
      <trkpt lat="39.927132000" lon="-8.466646000">
        <ele>205.800000</ele>
        <time>2020-10-17T10:17:22Z</time>
      </trkpt>
      <trkpt lat="39.926991000" lon="-8.466582000">
        <ele>204.400000</ele>
        <time>2020-10-17T10:17:25Z</time>
      </trkpt>
      <trkpt lat="39.926952000" lon="-8.466551000">
        <ele>204.000000</ele>
        <time>2020-10-17T10:17:26Z</time>
      </trkpt>
      <trkpt lat="39.926919000" lon="-8.466511000">
        <ele>204.000000</ele>
        <time>2020-10-17T10:17:27Z</time>
      </trkpt>
      <trkpt lat="39.926885000" lon="-8.466463000">
        <ele>203.800000</ele>
        <time>2020-10-17T10:17:28Z</time>
      </trkpt>
      <trkpt lat="39.926854000" lon="-8.466426000">
        <ele>203.800000</ele>
        <time>2020-10-17T10:17:29Z</time>
      </trkpt>
      <trkpt lat="39.926822000" lon="-8.466400000">
        <ele>203.800000</ele>
        <time>2020-10-17T10:17:30Z</time>
      </trkpt>
      <trkpt lat="39.926787000" lon="-8.466382000">
        <ele>203.600000</ele>
        <time>2020-10-17T10:17:31Z</time>
      </trkpt>
      <trkpt lat="39.926747000" lon="-8.466363000">
        <ele>203.600000</ele>
        <time>2020-10-17T10:17:32Z</time>
      </trkpt>
      <trkpt lat="39.926714000" lon="-8.466348000">
        <ele>203.600000</ele>
        <time>2020-10-17T10:17:33Z</time>
      </trkpt>
      <trkpt lat="39.926692000" lon="-8.466334000">
        <ele>203.400000</ele>
        <time>2020-10-17T10:17:34Z</time>
      </trkpt>
      <trkpt lat="39.926683000" lon="-8.466323000">
        <ele>203.200000</ele>
        <time>2020-10-17T10:17:35Z</time>
      </trkpt>
      <trkpt lat="39.926678000" lon="-8.466319000">
        <ele>203.000000</ele>
        <time>2020-10-17T10:17:36Z</time>
      </trkpt>
      <trkpt lat="39.926678000" lon="-8.466318000">
        <ele>203.000000</ele>
        <time>2020-10-17T10:17:37Z</time>
      </trkpt>
      <trkpt lat="39.926638000" lon="-8.466196000">
        <ele>201.400000</ele>
        <time>2020-10-17T10:18:31Z</time>
      </trkpt>
      <trkpt lat="39.926617000" lon="-8.466187000">
        <ele>201.200000</ele>
        <time>2020-10-17T10:18:32Z</time>
      </trkpt>
      <trkpt lat="39.926594000" lon="-8.466175000">
        <ele>201.200000</ele>
        <time>2020-10-17T10:18:33Z</time>
      </trkpt>
      <trkpt lat="39.926564000" lon="-8.466161000">
        <ele>201.200000</ele>
        <time>2020-10-17T10:18:34Z</time>
      </trkpt>
      <trkpt lat="39.926447000" lon="-8.466108000">
        <ele>201.000000</ele>
        <time>2020-10-17T10:18:37Z</time>
      </trkpt>
      <trkpt lat="39.926416000" lon="-8.466071000">
        <ele>201.000000</ele>
        <time>2020-10-17T10:18:38Z</time>
      </trkpt>
      <trkpt lat="39.926394000" lon="-8.466019000">
        <ele>201.000000</ele>
        <time>2020-10-17T10:18:39Z</time>
      </trkpt>
      <trkpt lat="39.926381000" lon="-8.465959000">
        <ele>201.000000</ele>
        <time>2020-10-17T10:18:40Z</time>
      </trkpt>
      <trkpt lat="39.926337000" lon="-8.465602000">
        <ele>200.800000</ele>
        <time>2020-10-17T10:18:45Z</time>
      </trkpt>
      <trkpt lat="39.926291000" lon="-8.465383000">
        <ele>200.400000</ele>
        <time>2020-10-17T10:18:48Z</time>
      </trkpt>
      <trkpt lat="39.926255000" lon="-8.465247000">
        <ele>200.400000</ele>
        <time>2020-10-17T10:18:50Z</time>
      </trkpt>
      <trkpt lat="39.926240000" lon="-8.465182000">
        <ele>200.200000</ele>
        <time>2020-10-17T10:18:51Z</time>
      </trkpt>
      <trkpt lat="39.926228000" lon="-8.465114000">
        <ele>200.000000</ele>
        <time>2020-10-17T10:18:52Z</time>
      </trkpt>
      <trkpt lat="39.926199000" lon="-8.464971000">
        <ele>199.800000</ele>
        <time>2020-10-17T10:18:54Z</time>
      </trkpt>
      <trkpt lat="39.926147000" lon="-8.464815000">
        <ele>199.800000</ele>
        <time>2020-10-17T10:18:56Z</time>
      </trkpt>
      <trkpt lat="39.926106000" lon="-8.464756000">
        <ele>199.800000</ele>
        <time>2020-10-17T10:18:57Z</time>
      </trkpt>
      <trkpt lat="39.926053000" lon="-8.464695000">
        <ele>199.600000</ele>
        <time>2020-10-17T10:18:58Z</time>
      </trkpt>
      <trkpt lat="39.925999000" lon="-8.464629000">
        <ele>199.400000</ele>
        <time>2020-10-17T10:18:59Z</time>
      </trkpt>
      <trkpt lat="39.925944000" lon="-8.464552000">
        <ele>199.400000</ele>
        <time>2020-10-17T10:19:00Z</time>
      </trkpt>
      <trkpt lat="39.925775000" lon="-8.464345000">
        <ele>199.000000</ele>
        <time>2020-10-17T10:19:03Z</time>
      </trkpt>
      <trkpt lat="39.925707000" lon="-8.464303000">
        <ele>198.600000</ele>
        <time>2020-10-17T10:19:04Z</time>
      </trkpt>
      <trkpt lat="39.925635000" lon="-8.464286000">
        <ele>198.400000</ele>
        <time>2020-10-17T10:19:05Z</time>
      </trkpt>
      <trkpt lat="39.925564000" lon="-8.464282000">
        <ele>198.000000</ele>
        <time>2020-10-17T10:19:06Z</time>
      </trkpt>
      <trkpt lat="39.925500000" lon="-8.464275000">
        <ele>197.200000</ele>
        <time>2020-10-17T10:19:07Z</time>
      </trkpt>
      <trkpt lat="39.925452000" lon="-8.464246000">
        <ele>196.800000</ele>
        <time>2020-10-17T10:19:08Z</time>
      </trkpt>
      <trkpt lat="39.925410000" lon="-8.464217000">
        <ele>196.600000</ele>
        <time>2020-10-17T10:19:09Z</time>
      </trkpt>
      <trkpt lat="39.925375000" lon="-8.464185000">
        <ele>196.400000</ele>
        <time>2020-10-17T10:19:10Z</time>
      </trkpt>
      <trkpt lat="39.925341000" lon="-8.464160000">
        <ele>196.400000</ele>
        <time>2020-10-17T10:19:11Z</time>
      </trkpt>
      <trkpt lat="39.925307000" lon="-8.464140000">
        <ele>196.400000</ele>
        <time>2020-10-17T10:19:12Z</time>
      </trkpt>
      <trkpt lat="39.925268000" lon="-8.464126000">
        <ele>196.200000</ele>
        <time>2020-10-17T10:19:13Z</time>
      </trkpt>
      <trkpt lat="39.925232000" lon="-8.464116000">
        <ele>196.400000</ele>
        <time>2020-10-17T10:19:14Z</time>
      </trkpt>
      <trkpt lat="39.925203000" lon="-8.464105000">
        <ele>196.400000</ele>
        <time>2020-10-17T10:19:15Z</time>
      </trkpt>
      <trkpt lat="39.925183000" lon="-8.464082000">
        <ele>196.200000</ele>
        <time>2020-10-17T10:19:16Z</time>
      </trkpt>
      <trkpt lat="39.925165000" lon="-8.464047000">
        <ele>196.400000</ele>
        <time>2020-10-17T10:19:17Z</time>
      </trkpt>
      <trkpt lat="39.925150000" lon="-8.464003000">
        <ele>196.800000</ele>
        <time>2020-10-17T10:19:18Z</time>
      </trkpt>
      <trkpt lat="39.925140000" lon="-8.463950000">
        <ele>197.200000</ele>
        <time>2020-10-17T10:19:19Z</time>
      </trkpt>
      <trkpt lat="39.925131000" lon="-8.463891000">
        <ele>197.400000</ele>
        <time>2020-10-17T10:19:20Z</time>
      </trkpt>
      <trkpt lat="39.925129000" lon="-8.463819000">
        <ele>197.400000</ele>
        <time>2020-10-17T10:19:21Z</time>
      </trkpt>
      <trkpt lat="39.925129000" lon="-8.463643000">
        <ele>197.600000</ele>
        <time>2020-10-17T10:19:23Z</time>
      </trkpt>
      <trkpt lat="39.925119000" lon="-8.463453000">
        <ele>197.600000</ele>
        <time>2020-10-17T10:19:25Z</time>
      </trkpt>
      <trkpt lat="39.925116000" lon="-8.463360000">
        <ele>197.600000</ele>
        <time>2020-10-17T10:19:26Z</time>
      </trkpt>
      <trkpt lat="39.925120000" lon="-8.463265000">
        <ele>197.400000</ele>
        <time>2020-10-17T10:19:27Z</time>
      </trkpt>
      <trkpt lat="39.925123000" lon="-8.463180000">
        <ele>197.600000</ele>
        <time>2020-10-17T10:19:28Z</time>
      </trkpt>
      <trkpt lat="39.925128000" lon="-8.463100000">
        <ele>197.600000</ele>
        <time>2020-10-17T10:19:29Z</time>
      </trkpt>
      <trkpt lat="39.925134000" lon="-8.463027000">
        <ele>196.200000</ele>
        <time>2020-10-17T10:19:30Z</time>
      </trkpt>
      <trkpt lat="39.925138000" lon="-8.462962000">
        <ele>195.400000</ele>
        <time>2020-10-17T10:19:31Z</time>
      </trkpt>
      <trkpt lat="39.925140000" lon="-8.462905000">
        <ele>195.000000</ele>
        <time>2020-10-17T10:19:32Z</time>
      </trkpt>
      <trkpt lat="39.925136000" lon="-8.462855000">
        <ele>195.000000</ele>
        <time>2020-10-17T10:19:33Z</time>
      </trkpt>
      <trkpt lat="39.925123000" lon="-8.462821000">
        <ele>194.400000</ele>
        <time>2020-10-17T10:19:34Z</time>
      </trkpt>
      <trkpt lat="39.925108000" lon="-8.462805000">
        <ele>194.000000</ele>
        <time>2020-10-17T10:19:35Z</time>
      </trkpt>
      <trkpt lat="39.925088000" lon="-8.462795000">
        <ele>194.200000</ele>
        <time>2020-10-17T10:19:36Z</time>
      </trkpt>
      <trkpt lat="39.925069000" lon="-8.462788000">
        <ele>194.000000</ele>
        <time>2020-10-17T10:19:37Z</time>
      </trkpt>
      <trkpt lat="39.925050000" lon="-8.462782000">
        <ele>194.000000</ele>
        <time>2020-10-17T10:19:38Z</time>
      </trkpt>
      <trkpt lat="39.925028000" lon="-8.462776000">
        <ele>194.000000</ele>
        <time>2020-10-17T10:19:39Z</time>
      </trkpt>
      <trkpt lat="39.925010000" lon="-8.462771000">
        <ele>194.000000</ele>
        <time>2020-10-17T10:19:40Z</time>
      </trkpt>
      <trkpt lat="39.924992000" lon="-8.462761000">
        <ele>193.800000</ele>
        <time>2020-10-17T10:19:41Z</time>
      </trkpt>
      <trkpt lat="39.924950000" lon="-8.462735000">
        <ele>194.000000</ele>
        <time>2020-10-17T10:19:43Z</time>
      </trkpt>
      <trkpt lat="39.924931000" lon="-8.462728000">
        <ele>194.000000</ele>
        <time>2020-10-17T10:19:44Z</time>
      </trkpt>
      <trkpt lat="39.924919000" lon="-8.462717000">
        <ele>194.000000</ele>
        <time>2020-10-17T10:19:45Z</time>
      </trkpt>
      <trkpt lat="39.924905000" lon="-8.462701000">
        <ele>194.200000</ele>
        <time>2020-10-17T10:19:46Z</time>
      </trkpt>
      <trkpt lat="39.924892000" lon="-8.462684000">
        <ele>194.600000</ele>
        <time>2020-10-17T10:19:47Z</time>
      </trkpt>
      <trkpt lat="39.924879000" lon="-8.462666000">
        <ele>195.200000</ele>
        <time>2020-10-17T10:19:48Z</time>
      </trkpt>
      <trkpt lat="39.924870000" lon="-8.462649000">
        <ele>195.400000</ele>
        <time>2020-10-17T10:19:49Z</time>
      </trkpt>
      <trkpt lat="39.924863000" lon="-8.462634000">
        <ele>195.600000</ele>
        <time>2020-10-17T10:19:50Z</time>
      </trkpt>
      <trkpt lat="39.924860000" lon="-8.462616000">
        <ele>196.000000</ele>
        <time>2020-10-17T10:19:51Z</time>
      </trkpt>
      <trkpt lat="39.924862000" lon="-8.462596000">
        <ele>196.200000</ele>
        <time>2020-10-17T10:19:52Z</time>
      </trkpt>
      <trkpt lat="39.924863000" lon="-8.462577000">
        <ele>196.400000</ele>
        <time>2020-10-17T10:19:53Z</time>
      </trkpt>
      <trkpt lat="39.924866000" lon="-8.462561000">
        <ele>196.400000</ele>
        <time>2020-10-17T10:19:54Z</time>
      </trkpt>
      <trkpt lat="39.924868000" lon="-8.462541000">
        <ele>196.600000</ele>
        <time>2020-10-17T10:19:55Z</time>
      </trkpt>
      <trkpt lat="39.924872000" lon="-8.462521000">
        <ele>196.800000</ele>
        <time>2020-10-17T10:19:56Z</time>
      </trkpt>
      <trkpt lat="39.924876000" lon="-8.462505000">
        <ele>197.400000</ele>
        <time>2020-10-17T10:19:57Z</time>
      </trkpt>
      <trkpt lat="39.924881000" lon="-8.462495000">
        <ele>197.800000</ele>
        <time>2020-10-17T10:19:58Z</time>
      </trkpt>
      <trkpt lat="39.924886000" lon="-8.462486000">
        <ele>198.200000</ele>
        <time>2020-10-17T10:19:59Z</time>
      </trkpt>
      <trkpt lat="39.924896000" lon="-8.462476000">
        <ele>198.600000</ele>
        <time>2020-10-17T10:20:00Z</time>
      </trkpt>
      <trkpt lat="39.924906000" lon="-8.462463000">
        <ele>198.600000</ele>
        <time>2020-10-17T10:20:01Z</time>
      </trkpt>
      <trkpt lat="39.924917000" lon="-8.462452000">
        <ele>198.800000</ele>
        <time>2020-10-17T10:20:02Z</time>
      </trkpt>
      <trkpt lat="39.924927000" lon="-8.462442000">
        <ele>199.200000</ele>
        <time>2020-10-17T10:20:03Z</time>
      </trkpt>
      <trkpt lat="39.924935000" lon="-8.462433000">
        <ele>199.400000</ele>
        <time>2020-10-17T10:20:04Z</time>
      </trkpt>
      <trkpt lat="39.924941000" lon="-8.462422000">
        <ele>199.600000</ele>
        <time>2020-10-17T10:20:05Z</time>
      </trkpt>
      <trkpt lat="39.924952000" lon="-8.462408000">
        <ele>200.000000</ele>
        <time>2020-10-17T10:20:06Z</time>
      </trkpt>
      <trkpt lat="39.924959000" lon="-8.462393000">
        <ele>200.200000</ele>
        <time>2020-10-17T10:20:07Z</time>
      </trkpt>
      <trkpt lat="39.924963000" lon="-8.462377000">
        <ele>200.400000</ele>
        <time>2020-10-17T10:20:08Z</time>
      </trkpt>
      <trkpt lat="39.924968000" lon="-8.462360000">
        <ele>200.600000</ele>
        <time>2020-10-17T10:20:09Z</time>
      </trkpt>
      <trkpt lat="39.924969000" lon="-8.462345000">
        <ele>200.800000</ele>
        <time>2020-10-17T10:20:10Z</time>
      </trkpt>
      <trkpt lat="39.924970000" lon="-8.462329000">
        <ele>201.000000</ele>
        <time>2020-10-17T10:20:11Z</time>
      </trkpt>
      <trkpt lat="39.924968000" lon="-8.462316000">
        <ele>201.200000</ele>
        <time>2020-10-17T10:20:12Z</time>
      </trkpt>
      <trkpt lat="39.924968000" lon="-8.462305000">
        <ele>201.400000</ele>
        <time>2020-10-17T10:20:13Z</time>
      </trkpt>
      <trkpt lat="39.924967000" lon="-8.462294000">
        <ele>201.600000</ele>
        <time>2020-10-17T10:20:14Z</time>
      </trkpt>
      <trkpt lat="39.924967000" lon="-8.462281000">
        <ele>201.800000</ele>
        <time>2020-10-17T10:20:15Z</time>
      </trkpt>
      <trkpt lat="39.924967000" lon="-8.462268000">
        <ele>201.800000</ele>
        <time>2020-10-17T10:20:16Z</time>
      </trkpt>
      <trkpt lat="39.924972000" lon="-8.462250000">
        <ele>202.000000</ele>
        <time>2020-10-17T10:20:17Z</time>
      </trkpt>
      <trkpt lat="39.924977000" lon="-8.462235000">
        <ele>202.000000</ele>
        <time>2020-10-17T10:20:18Z</time>
      </trkpt>
      <trkpt lat="39.924980000" lon="-8.462223000">
        <ele>202.400000</ele>
        <time>2020-10-17T10:20:19Z</time>
      </trkpt>
      <trkpt lat="39.924983000" lon="-8.462210000">
        <ele>202.400000</ele>
        <time>2020-10-17T10:20:20Z</time>
      </trkpt>
      <trkpt lat="39.924985000" lon="-8.462197000">
        <ele>202.400000</ele>
        <time>2020-10-17T10:20:21Z</time>
      </trkpt>
      <trkpt lat="39.924986000" lon="-8.462184000">
        <ele>202.800000</ele>
        <time>2020-10-17T10:20:22Z</time>
      </trkpt>
      <trkpt lat="39.924992000" lon="-8.462168000">
        <ele>203.000000</ele>
        <time>2020-10-17T10:20:23Z</time>
      </trkpt>
      <trkpt lat="39.925002000" lon="-8.462154000">
        <ele>203.400000</ele>
        <time>2020-10-17T10:20:24Z</time>
      </trkpt>
      <trkpt lat="39.925013000" lon="-8.462142000">
        <ele>203.600000</ele>
        <time>2020-10-17T10:20:25Z</time>
      </trkpt>
      <trkpt lat="39.925021000" lon="-8.462126000">
        <ele>203.800000</ele>
        <time>2020-10-17T10:20:26Z</time>
      </trkpt>
      <trkpt lat="39.925027000" lon="-8.462110000">
        <ele>204.000000</ele>
        <time>2020-10-17T10:20:27Z</time>
      </trkpt>
      <trkpt lat="39.925031000" lon="-8.462094000">
        <ele>204.200000</ele>
        <time>2020-10-17T10:20:28Z</time>
      </trkpt>
      <trkpt lat="39.925033000" lon="-8.462080000">
        <ele>204.600000</ele>
        <time>2020-10-17T10:20:29Z</time>
      </trkpt>
      <trkpt lat="39.925037000" lon="-8.462059000">
        <ele>204.600000</ele>
        <time>2020-10-17T10:20:30Z</time>
      </trkpt>
      <trkpt lat="39.925038000" lon="-8.462039000">
        <ele>204.600000</ele>
        <time>2020-10-17T10:20:31Z</time>
      </trkpt>
      <trkpt lat="39.925039000" lon="-8.462022000">
        <ele>205.000000</ele>
        <time>2020-10-17T10:20:32Z</time>
      </trkpt>
      <trkpt lat="39.925038000" lon="-8.462004000">
        <ele>205.200000</ele>
        <time>2020-10-17T10:20:33Z</time>
      </trkpt>
      <trkpt lat="39.925035000" lon="-8.461987000">
        <ele>205.600000</ele>
        <time>2020-10-17T10:20:34Z</time>
      </trkpt>
      <trkpt lat="39.925030000" lon="-8.461976000">
        <ele>205.600000</ele>
        <time>2020-10-17T10:20:35Z</time>
      </trkpt>
      <trkpt lat="39.925026000" lon="-8.461963000">
        <ele>205.800000</ele>
        <time>2020-10-17T10:20:36Z</time>
      </trkpt>
      <trkpt lat="39.925022000" lon="-8.461946000">
        <ele>205.800000</ele>
        <time>2020-10-17T10:20:37Z</time>
      </trkpt>
      <trkpt lat="39.925017000" lon="-8.461924000">
        <ele>206.200000</ele>
        <time>2020-10-17T10:20:38Z</time>
      </trkpt>
      <trkpt lat="39.925014000" lon="-8.461905000">
        <ele>206.400000</ele>
        <time>2020-10-17T10:20:39Z</time>
      </trkpt>
      <trkpt lat="39.925010000" lon="-8.461884000">
        <ele>206.400000</ele>
        <time>2020-10-17T10:20:40Z</time>
      </trkpt>
      <trkpt lat="39.925008000" lon="-8.461862000">
        <ele>206.600000</ele>
        <time>2020-10-17T10:20:41Z</time>
      </trkpt>
      <trkpt lat="39.924999000" lon="-8.461837000">
        <ele>207.000000</ele>
        <time>2020-10-17T10:20:42Z</time>
      </trkpt>
      <trkpt lat="39.924993000" lon="-8.461816000">
        <ele>207.200000</ele>
        <time>2020-10-17T10:20:43Z</time>
      </trkpt>
      <trkpt lat="39.924986000" lon="-8.461792000">
        <ele>207.200000</ele>
        <time>2020-10-17T10:20:44Z</time>
      </trkpt>
      <trkpt lat="39.924983000" lon="-8.461769000">
        <ele>207.400000</ele>
        <time>2020-10-17T10:20:45Z</time>
      </trkpt>
      <trkpt lat="39.924982000" lon="-8.461744000">
        <ele>207.600000</ele>
        <time>2020-10-17T10:20:46Z</time>
      </trkpt>
      <trkpt lat="39.924977000" lon="-8.461721000">
        <ele>208.000000</ele>
        <time>2020-10-17T10:20:47Z</time>
      </trkpt>
      <trkpt lat="39.924971000" lon="-8.461699000">
        <ele>208.000000</ele>
        <time>2020-10-17T10:20:48Z</time>
      </trkpt>
      <trkpt lat="39.924967000" lon="-8.461676000">
        <ele>208.200000</ele>
        <time>2020-10-17T10:20:49Z</time>
      </trkpt>
      <trkpt lat="39.924965000" lon="-8.461654000">
        <ele>208.400000</ele>
        <time>2020-10-17T10:20:50Z</time>
      </trkpt>
      <trkpt lat="39.924964000" lon="-8.461635000">
        <ele>208.600000</ele>
        <time>2020-10-17T10:20:51Z</time>
      </trkpt>
      <trkpt lat="39.924964000" lon="-8.461615000">
        <ele>208.600000</ele>
        <time>2020-10-17T10:20:52Z</time>
      </trkpt>
      <trkpt lat="39.924960000" lon="-8.461596000">
        <ele>209.000000</ele>
        <time>2020-10-17T10:20:53Z</time>
      </trkpt>
      <trkpt lat="39.924957000" lon="-8.461581000">
        <ele>209.200000</ele>
        <time>2020-10-17T10:20:54Z</time>
      </trkpt>
      <trkpt lat="39.924955000" lon="-8.461564000">
        <ele>209.400000</ele>
        <time>2020-10-17T10:20:55Z</time>
      </trkpt>
      <trkpt lat="39.924951000" lon="-8.461544000">
        <ele>209.600000</ele>
        <time>2020-10-17T10:20:56Z</time>
      </trkpt>
      <trkpt lat="39.924945000" lon="-8.461528000">
        <ele>209.800000</ele>
        <time>2020-10-17T10:20:57Z</time>
      </trkpt>
      <trkpt lat="39.924937000" lon="-8.461507000">
        <ele>209.800000</ele>
        <time>2020-10-17T10:20:58Z</time>
      </trkpt>
      <trkpt lat="39.924930000" lon="-8.461488000">
        <ele>210.000000</ele>
        <time>2020-10-17T10:20:59Z</time>
      </trkpt>
      <trkpt lat="39.924920000" lon="-8.461465000">
        <ele>210.000000</ele>
        <time>2020-10-17T10:21:00Z</time>
      </trkpt>
      <trkpt lat="39.924914000" lon="-8.461442000">
        <ele>210.400000</ele>
        <time>2020-10-17T10:21:01Z</time>
      </trkpt>
      <trkpt lat="39.924912000" lon="-8.461419000">
        <ele>210.400000</ele>
        <time>2020-10-17T10:21:02Z</time>
      </trkpt>
      <trkpt lat="39.924914000" lon="-8.461395000">
        <ele>210.800000</ele>
        <time>2020-10-17T10:21:03Z</time>
      </trkpt>
      <trkpt lat="39.924914000" lon="-8.461376000">
        <ele>211.000000</ele>
        <time>2020-10-17T10:21:04Z</time>
      </trkpt>
      <trkpt lat="39.924912000" lon="-8.461354000">
        <ele>211.200000</ele>
        <time>2020-10-17T10:21:05Z</time>
      </trkpt>
      <trkpt lat="39.924908000" lon="-8.461330000">
        <ele>211.200000</ele>
        <time>2020-10-17T10:21:06Z</time>
      </trkpt>
      <trkpt lat="39.924906000" lon="-8.461303000">
        <ele>211.200000</ele>
        <time>2020-10-17T10:21:07Z</time>
      </trkpt>
      <trkpt lat="39.924906000" lon="-8.461274000">
        <ele>211.200000</ele>
        <time>2020-10-17T10:21:08Z</time>
      </trkpt>
      <trkpt lat="39.924905000" lon="-8.461250000">
        <ele>211.400000</ele>
        <time>2020-10-17T10:21:09Z</time>
      </trkpt>
      <trkpt lat="39.924906000" lon="-8.461227000">
        <ele>211.600000</ele>
        <time>2020-10-17T10:21:10Z</time>
      </trkpt>
      <trkpt lat="39.924908000" lon="-8.461206000">
        <ele>211.600000</ele>
        <time>2020-10-17T10:21:11Z</time>
      </trkpt>
      <trkpt lat="39.924909000" lon="-8.461183000">
        <ele>211.600000</ele>
        <time>2020-10-17T10:21:12Z</time>
      </trkpt>
      <trkpt lat="39.924910000" lon="-8.461163000">
        <ele>211.800000</ele>
        <time>2020-10-17T10:21:13Z</time>
      </trkpt>
      <trkpt lat="39.924909000" lon="-8.461140000">
        <ele>212.000000</ele>
        <time>2020-10-17T10:21:14Z</time>
      </trkpt>
      <trkpt lat="39.924906000" lon="-8.461112000">
        <ele>212.000000</ele>
        <time>2020-10-17T10:21:15Z</time>
      </trkpt>
      <trkpt lat="39.924899000" lon="-8.461085000">
        <ele>212.000000</ele>
        <time>2020-10-17T10:21:16Z</time>
      </trkpt>
      <trkpt lat="39.924889000" lon="-8.461043000">
        <ele>212.200000</ele>
        <time>2020-10-17T10:21:17Z</time>
      </trkpt>
      <trkpt lat="39.924889000" lon="-8.461043000">
        <ele>212.400000</ele>
        <time>2020-10-17T10:21:18Z</time>
      </trkpt>
      <trkpt lat="39.924866000" lon="-8.460992000">
        <ele>212.400000</ele>
        <time>2020-10-17T10:21:19Z</time>
      </trkpt>
      <trkpt lat="39.924864000" lon="-8.460969000">
        <ele>212.400000</ele>
        <time>2020-10-17T10:21:20Z</time>
      </trkpt>
      <trkpt lat="39.924864000" lon="-8.460969000">
        <ele>212.800000</ele>
        <time>2020-10-17T10:21:21Z</time>
      </trkpt>
      <trkpt lat="39.924864000" lon="-8.460933000">
        <ele>212.800000</ele>
        <time>2020-10-17T10:21:22Z</time>
      </trkpt>
      <trkpt lat="39.924860000" lon="-8.460897000">
        <ele>213.000000</ele>
        <time>2020-10-17T10:21:23Z</time>
      </trkpt>
      <trkpt lat="39.924847000" lon="-8.460865000">
        <ele>213.000000</ele>
        <time>2020-10-17T10:21:24Z</time>
      </trkpt>
      <trkpt lat="39.924841000" lon="-8.460842000">
        <ele>213.200000</ele>
        <time>2020-10-17T10:21:25Z</time>
      </trkpt>
      <trkpt lat="39.924824000" lon="-8.460816000">
        <ele>213.200000</ele>
        <time>2020-10-17T10:21:26Z</time>
      </trkpt>
      <trkpt lat="39.924817000" lon="-8.460798000">
        <ele>213.200000</ele>
        <time>2020-10-17T10:21:27Z</time>
      </trkpt>
      <trkpt lat="39.924806000" lon="-8.460771000">
        <ele>213.400000</ele>
        <time>2020-10-17T10:21:28Z</time>
      </trkpt>
      <trkpt lat="39.924784000" lon="-8.460738000">
        <ele>213.600000</ele>
        <time>2020-10-17T10:21:29Z</time>
      </trkpt>
      <trkpt lat="39.924743000" lon="-8.460696000">
        <ele>213.600000</ele>
        <time>2020-10-17T10:21:30Z</time>
      </trkpt>
      <trkpt lat="39.924738000" lon="-8.460665000">
        <ele>213.800000</ele>
        <time>2020-10-17T10:21:31Z</time>
      </trkpt>
      <trkpt lat="39.924733000" lon="-8.460634000">
        <ele>213.800000</ele>
        <time>2020-10-17T10:21:32Z</time>
      </trkpt>
      <trkpt lat="39.924718000" lon="-8.460612000">
        <ele>214.000000</ele>
        <time>2020-10-17T10:21:33Z</time>
      </trkpt>
      <trkpt lat="39.924703000" lon="-8.460591000">
        <ele>214.200000</ele>
        <time>2020-10-17T10:21:34Z</time>
      </trkpt>
      <trkpt lat="39.924703000" lon="-8.460553000">
        <ele>214.400000</ele>
        <time>2020-10-17T10:21:35Z</time>
      </trkpt>
      <trkpt lat="39.924700000" lon="-8.460527000">
        <ele>214.400000</ele>
        <time>2020-10-17T10:21:36Z</time>
      </trkpt>
      <trkpt lat="39.924702000" lon="-8.460494000">
        <ele>214.600000</ele>
        <time>2020-10-17T10:21:37Z</time>
      </trkpt>
      <trkpt lat="39.924703000" lon="-8.460473000">
        <ele>214.600000</ele>
        <time>2020-10-17T10:21:38Z</time>
      </trkpt>
      <trkpt lat="39.924701000" lon="-8.460450000">
        <ele>215.000000</ele>
        <time>2020-10-17T10:21:39Z</time>
      </trkpt>
      <trkpt lat="39.924699000" lon="-8.460422000">
        <ele>215.200000</ele>
        <time>2020-10-17T10:21:40Z</time>
      </trkpt>
      <trkpt lat="39.924693000" lon="-8.460398000">
        <ele>215.200000</ele>
        <time>2020-10-17T10:21:41Z</time>
      </trkpt>
      <trkpt lat="39.924680000" lon="-8.460361000">
        <ele>215.400000</ele>
        <time>2020-10-17T10:21:42Z</time>
      </trkpt>
      <trkpt lat="39.924656000" lon="-8.460348000">
        <ele>215.600000</ele>
        <time>2020-10-17T10:21:43Z</time>
      </trkpt>
      <trkpt lat="39.924642000" lon="-8.460300000">
        <ele>215.800000</ele>
        <time>2020-10-17T10:21:44Z</time>
      </trkpt>
      <trkpt lat="39.924601000" lon="-8.460273000">
        <ele>216.000000</ele>
        <time>2020-10-17T10:21:45Z</time>
      </trkpt>
      <trkpt lat="39.924563000" lon="-8.460253000">
        <ele>216.200000</ele>
        <time>2020-10-17T10:21:46Z</time>
      </trkpt>
      <trkpt lat="39.924542000" lon="-8.460233000">
        <ele>216.200000</ele>
        <time>2020-10-17T10:21:47Z</time>
      </trkpt>
      <trkpt lat="39.924519000" lon="-8.460206000">
        <ele>216.400000</ele>
        <time>2020-10-17T10:21:48Z</time>
      </trkpt>
      <trkpt lat="39.924506000" lon="-8.460177000">
        <ele>216.600000</ele>
        <time>2020-10-17T10:21:49Z</time>
      </trkpt>
      <trkpt lat="39.924506000" lon="-8.460177000">
        <ele>217.000000</ele>
        <time>2020-10-17T10:21:50Z</time>
      </trkpt>
      <trkpt lat="39.924483000" lon="-8.460143000">
        <ele>217.400000</ele>
        <time>2020-10-17T10:21:51Z</time>
      </trkpt>
      <trkpt lat="39.924478000" lon="-8.460113000">
        <ele>217.600000</ele>
        <time>2020-10-17T10:21:52Z</time>
      </trkpt>
      <trkpt lat="39.924484000" lon="-8.460073000">
        <ele>217.800000</ele>
        <time>2020-10-17T10:21:53Z</time>
      </trkpt>
      <trkpt lat="39.924481000" lon="-8.460032000">
        <ele>218.000000</ele>
        <time>2020-10-17T10:21:54Z</time>
      </trkpt>
      <trkpt lat="39.924435000" lon="-8.459964000">
        <ele>218.200000</ele>
        <time>2020-10-17T10:21:55Z</time>
      </trkpt>
      <trkpt lat="39.924410000" lon="-8.459952000">
        <ele>218.400000</ele>
        <time>2020-10-17T10:21:56Z</time>
      </trkpt>
      <trkpt lat="39.924410000" lon="-8.459952000">
        <ele>218.600000</ele>
        <time>2020-10-17T10:21:57Z</time>
      </trkpt>
      <trkpt lat="39.924389000" lon="-8.459926000">
        <ele>218.800000</ele>
        <time>2020-10-17T10:21:58Z</time>
      </trkpt>
      <trkpt lat="39.924358000" lon="-8.459908000">
        <ele>218.800000</ele>
        <time>2020-10-17T10:21:59Z</time>
      </trkpt>
      <trkpt lat="39.924344000" lon="-8.459892000">
        <ele>219.000000</ele>
        <time>2020-10-17T10:22:00Z</time>
      </trkpt>
      <trkpt lat="39.924347000" lon="-8.459853000">
        <ele>219.200000</ele>
        <time>2020-10-17T10:22:01Z</time>
      </trkpt>
      <trkpt lat="39.924350000" lon="-8.459818000">
        <ele>219.600000</ele>
        <time>2020-10-17T10:22:02Z</time>
      </trkpt>
      <trkpt lat="39.924341000" lon="-8.459791000">
        <ele>219.600000</ele>
        <time>2020-10-17T10:22:03Z</time>
      </trkpt>
      <trkpt lat="39.924316000" lon="-8.459759000">
        <ele>219.600000</ele>
        <time>2020-10-17T10:22:04Z</time>
      </trkpt>
      <trkpt lat="39.924297000" lon="-8.459723000">
        <ele>219.800000</ele>
        <time>2020-10-17T10:22:05Z</time>
      </trkpt>
      <trkpt lat="39.924299000" lon="-8.459695000">
        <ele>220.000000</ele>
        <time>2020-10-17T10:22:06Z</time>
      </trkpt>
      <trkpt lat="39.924309000" lon="-8.459677000">
        <ele>220.000000</ele>
        <time>2020-10-17T10:22:07Z</time>
      </trkpt>
      <trkpt lat="39.924336000" lon="-8.459624000">
        <ele>220.200000</ele>
        <time>2020-10-17T10:22:08Z</time>
      </trkpt>
      <trkpt lat="39.924354000" lon="-8.459593000">
        <ele>220.400000</ele>
        <time>2020-10-17T10:22:09Z</time>
      </trkpt>
      <trkpt lat="39.924365000" lon="-8.459581000">
        <ele>220.600000</ele>
        <time>2020-10-17T10:22:10Z</time>
      </trkpt>
      <trkpt lat="39.924394000" lon="-8.459559000">
        <ele>220.800000</ele>
        <time>2020-10-17T10:22:11Z</time>
      </trkpt>
      <trkpt lat="39.924440000" lon="-8.459519000">
        <ele>221.000000</ele>
        <time>2020-10-17T10:22:12Z</time>
      </trkpt>
      <trkpt lat="39.924465000" lon="-8.459511000">
        <ele>221.000000</ele>
        <time>2020-10-17T10:22:13Z</time>
      </trkpt>
      <trkpt lat="39.924465000" lon="-8.459511000">
        <ele>221.000000</ele>
        <time>2020-10-17T10:22:14Z</time>
      </trkpt>
      <trkpt lat="39.924487000" lon="-8.459496000">
        <ele>221.200000</ele>
        <time>2020-10-17T10:22:15Z</time>
      </trkpt>
      <trkpt lat="39.924515000" lon="-8.459462000">
        <ele>221.600000</ele>
        <time>2020-10-17T10:22:16Z</time>
      </trkpt>
      <trkpt lat="39.924520000" lon="-8.459436000">
        <ele>221.800000</ele>
        <time>2020-10-17T10:22:17Z</time>
      </trkpt>
      <trkpt lat="39.924525000" lon="-8.459411000">
        <ele>222.000000</ele>
        <time>2020-10-17T10:22:18Z</time>
      </trkpt>
      <trkpt lat="39.924541000" lon="-8.459372000">
        <ele>222.200000</ele>
        <time>2020-10-17T10:22:19Z</time>
      </trkpt>
      <trkpt lat="39.924567000" lon="-8.459325000">
        <ele>222.600000</ele>
        <time>2020-10-17T10:22:20Z</time>
      </trkpt>
      <trkpt lat="39.924573000" lon="-8.459290000">
        <ele>222.800000</ele>
        <time>2020-10-17T10:22:21Z</time>
      </trkpt>
      <trkpt lat="39.924559000" lon="-8.459262000">
        <ele>222.800000</ele>
        <time>2020-10-17T10:22:22Z</time>
      </trkpt>
      <trkpt lat="39.924538000" lon="-8.459239000">
        <ele>222.800000</ele>
        <time>2020-10-17T10:22:23Z</time>
      </trkpt>
      <trkpt lat="39.924524000" lon="-8.459216000">
        <ele>222.800000</ele>
        <time>2020-10-17T10:22:24Z</time>
      </trkpt>
      <trkpt lat="39.924499000" lon="-8.459198000">
        <ele>222.800000</ele>
        <time>2020-10-17T10:22:25Z</time>
      </trkpt>
      <trkpt lat="39.924481000" lon="-8.459179000">
        <ele>223.200000</ele>
        <time>2020-10-17T10:22:26Z</time>
      </trkpt>
      <trkpt lat="39.924463000" lon="-8.459157000">
        <ele>223.200000</ele>
        <time>2020-10-17T10:22:27Z</time>
      </trkpt>
      <trkpt lat="39.924412000" lon="-8.459112000">
        <ele>223.200000</ele>
        <time>2020-10-17T10:22:28Z</time>
      </trkpt>
      <trkpt lat="39.924412000" lon="-8.459112000">
        <ele>223.400000</ele>
        <time>2020-10-17T10:22:29Z</time>
      </trkpt>
      <trkpt lat="39.924387000" lon="-8.459085000">
        <ele>223.800000</ele>
        <time>2020-10-17T10:22:30Z</time>
      </trkpt>
      <trkpt lat="39.924359000" lon="-8.459067000">
        <ele>224.000000</ele>
        <time>2020-10-17T10:22:31Z</time>
      </trkpt>
      <trkpt lat="39.924326000" lon="-8.459052000">
        <ele>224.200000</ele>
        <time>2020-10-17T10:22:32Z</time>
      </trkpt>
      <trkpt lat="39.924295000" lon="-8.459036000">
        <ele>224.400000</ele>
        <time>2020-10-17T10:22:33Z</time>
      </trkpt>
      <trkpt lat="39.924264000" lon="-8.459025000">
        <ele>224.800000</ele>
        <time>2020-10-17T10:22:34Z</time>
      </trkpt>
      <trkpt lat="39.924237000" lon="-8.459022000">
        <ele>225.000000</ele>
        <time>2020-10-17T10:22:35Z</time>
      </trkpt>
      <trkpt lat="39.924209000" lon="-8.459014000">
        <ele>225.200000</ele>
        <time>2020-10-17T10:22:36Z</time>
      </trkpt>
      <trkpt lat="39.924146000" lon="-8.458981000">
        <ele>225.400000</ele>
        <time>2020-10-17T10:22:37Z</time>
      </trkpt>
      <trkpt lat="39.924119000" lon="-8.458967000">
        <ele>225.600000</ele>
        <time>2020-10-17T10:22:38Z</time>
      </trkpt>
      <trkpt lat="39.924119000" lon="-8.458967000">
        <ele>225.800000</ele>
        <time>2020-10-17T10:22:39Z</time>
      </trkpt>
      <trkpt lat="39.924092000" lon="-8.458950000">
        <ele>226.000000</ele>
        <time>2020-10-17T10:22:40Z</time>
      </trkpt>
      <trkpt lat="39.924065000" lon="-8.458940000">
        <ele>226.400000</ele>
        <time>2020-10-17T10:22:41Z</time>
      </trkpt>
      <trkpt lat="39.924034000" lon="-8.458923000">
        <ele>226.400000</ele>
        <time>2020-10-17T10:22:42Z</time>
      </trkpt>
      <trkpt lat="39.923997000" lon="-8.458893000">
        <ele>226.800000</ele>
        <time>2020-10-17T10:22:43Z</time>
      </trkpt>
      <trkpt lat="39.923964000" lon="-8.458870000">
        <ele>227.000000</ele>
        <time>2020-10-17T10:22:44Z</time>
      </trkpt>
      <trkpt lat="39.923932000" lon="-8.458850000">
        <ele>227.200000</ele>
        <time>2020-10-17T10:22:45Z</time>
      </trkpt>
      <trkpt lat="39.923898000" lon="-8.458813000">
        <ele>227.200000</ele>
        <time>2020-10-17T10:22:46Z</time>
      </trkpt>
      <trkpt lat="39.923850000" lon="-8.458771000">
        <ele>227.400000</ele>
        <time>2020-10-17T10:22:47Z</time>
      </trkpt>
      <trkpt lat="39.923803000" lon="-8.458735000">
        <ele>227.600000</ele>
        <time>2020-10-17T10:22:48Z</time>
      </trkpt>
      <trkpt lat="39.923763000" lon="-8.458690000">
        <ele>227.800000</ele>
        <time>2020-10-17T10:22:49Z</time>
      </trkpt>
      <trkpt lat="39.923729000" lon="-8.458652000">
        <ele>228.000000</ele>
        <time>2020-10-17T10:22:50Z</time>
      </trkpt>
      <trkpt lat="39.923686000" lon="-8.458618000">
        <ele>228.200000</ele>
        <time>2020-10-17T10:22:51Z</time>
      </trkpt>
      <trkpt lat="39.923653000" lon="-8.458585000">
        <ele>228.600000</ele>
        <time>2020-10-17T10:22:52Z</time>
      </trkpt>
      <trkpt lat="39.923617000" lon="-8.458555000">
        <ele>228.600000</ele>
        <time>2020-10-17T10:22:53Z</time>
      </trkpt>
      <trkpt lat="39.923584000" lon="-8.458529000">
        <ele>228.600000</ele>
        <time>2020-10-17T10:22:54Z</time>
      </trkpt>
      <trkpt lat="39.923550000" lon="-8.458505000">
        <ele>228.800000</ele>
        <time>2020-10-17T10:22:55Z</time>
      </trkpt>
      <trkpt lat="39.923519000" lon="-8.458475000">
        <ele>229.000000</ele>
        <time>2020-10-17T10:22:56Z</time>
      </trkpt>
      <trkpt lat="39.923494000" lon="-8.458442000">
        <ele>229.000000</ele>
        <time>2020-10-17T10:22:57Z</time>
      </trkpt>
      <trkpt lat="39.923475000" lon="-8.458402000">
        <ele>229.400000</ele>
        <time>2020-10-17T10:22:58Z</time>
      </trkpt>
      <trkpt lat="39.923458000" lon="-8.458367000">
        <ele>229.200000</ele>
        <time>2020-10-17T10:22:59Z</time>
      </trkpt>
      <trkpt lat="39.923447000" lon="-8.458329000">
        <ele>229.400000</ele>
        <time>2020-10-17T10:23:00Z</time>
      </trkpt>
      <trkpt lat="39.923425000" lon="-8.458288000">
        <ele>229.800000</ele>
        <time>2020-10-17T10:23:01Z</time>
      </trkpt>
      <trkpt lat="39.923402000" lon="-8.458243000">
        <ele>230.200000</ele>
        <time>2020-10-17T10:23:02Z</time>
      </trkpt>
      <trkpt lat="39.923386000" lon="-8.458201000">
        <ele>230.400000</ele>
        <time>2020-10-17T10:23:03Z</time>
      </trkpt>
      <trkpt lat="39.923350000" lon="-8.458151000">
        <ele>230.800000</ele>
        <time>2020-10-17T10:23:04Z</time>
      </trkpt>
      <trkpt lat="39.923343000" lon="-8.458109000">
        <ele>231.000000</ele>
        <time>2020-10-17T10:23:05Z</time>
      </trkpt>
      <trkpt lat="39.923325000" lon="-8.458089000">
        <ele>231.400000</ele>
        <time>2020-10-17T10:23:06Z</time>
      </trkpt>
      <trkpt lat="39.923305000" lon="-8.458063000">
        <ele>231.400000</ele>
        <time>2020-10-17T10:23:07Z</time>
      </trkpt>
      <trkpt lat="39.923283000" lon="-8.458047000">
        <ele>232.000000</ele>
        <time>2020-10-17T10:23:08Z</time>
      </trkpt>
      <trkpt lat="39.923252000" lon="-8.458041000">
        <ele>232.400000</ele>
        <time>2020-10-17T10:23:09Z</time>
      </trkpt>
      <trkpt lat="39.923214000" lon="-8.458035000">
        <ele>232.600000</ele>
        <time>2020-10-17T10:23:10Z</time>
      </trkpt>
      <trkpt lat="39.923178000" lon="-8.458038000">
        <ele>233.200000</ele>
        <time>2020-10-17T10:23:11Z</time>
      </trkpt>
      <trkpt lat="39.923134000" lon="-8.458044000">
        <ele>233.600000</ele>
        <time>2020-10-17T10:23:12Z</time>
      </trkpt>
      <trkpt lat="39.923093000" lon="-8.458059000">
        <ele>233.800000</ele>
        <time>2020-10-17T10:23:13Z</time>
      </trkpt>
      <trkpt lat="39.923045000" lon="-8.458076000">
        <ele>234.200000</ele>
        <time>2020-10-17T10:23:14Z</time>
      </trkpt>
      <trkpt lat="39.922997000" lon="-8.458088000">
        <ele>234.000000</ele>
        <time>2020-10-17T10:23:15Z</time>
      </trkpt>
      <trkpt lat="39.922939000" lon="-8.458109000">
        <ele>234.200000</ele>
        <time>2020-10-17T10:23:16Z</time>
      </trkpt>
      <trkpt lat="39.922865000" lon="-8.458115000">
        <ele>234.200000</ele>
        <time>2020-10-17T10:23:17Z</time>
      </trkpt>
      <trkpt lat="39.922788000" lon="-8.458115000">
        <ele>234.400000</ele>
        <time>2020-10-17T10:23:18Z</time>
      </trkpt>
      <trkpt lat="39.922707000" lon="-8.458111000">
        <ele>234.400000</ele>
        <time>2020-10-17T10:23:19Z</time>
      </trkpt>
      <trkpt lat="39.922623000" lon="-8.458109000">
        <ele>234.200000</ele>
        <time>2020-10-17T10:23:20Z</time>
      </trkpt>
      <trkpt lat="39.922563000" lon="-8.458106000">
        <ele>234.200000</ele>
        <time>2020-10-17T10:23:21Z</time>
      </trkpt>
      <trkpt lat="39.922513000" lon="-8.458105000">
        <ele>234.400000</ele>
        <time>2020-10-17T10:23:22Z</time>
      </trkpt>
      <trkpt lat="39.922471000" lon="-8.458097000">
        <ele>234.200000</ele>
        <time>2020-10-17T10:23:23Z</time>
      </trkpt>
      <trkpt lat="39.922438000" lon="-8.458094000">
        <ele>234.200000</ele>
        <time>2020-10-17T10:23:24Z</time>
      </trkpt>
      <trkpt lat="39.922409000" lon="-8.458095000">
        <ele>233.800000</ele>
        <time>2020-10-17T10:23:25Z</time>
      </trkpt>
      <trkpt lat="39.922381000" lon="-8.458097000">
        <ele>233.400000</ele>
        <time>2020-10-17T10:23:26Z</time>
      </trkpt>
      <trkpt lat="39.922366000" lon="-8.458073000">
        <ele>232.400000</ele>
        <time>2020-10-17T10:23:27Z</time>
      </trkpt>
      <trkpt lat="39.922351000" lon="-8.458062000">
        <ele>231.200000</ele>
        <time>2020-10-17T10:23:28Z</time>
      </trkpt>
      <trkpt lat="39.922336000" lon="-8.458050000">
        <ele>231.200000</ele>
        <time>2020-10-17T10:23:29Z</time>
      </trkpt>
      <trkpt lat="39.922321000" lon="-8.458039000">
        <ele>230.400000</ele>
        <time>2020-10-17T10:23:30Z</time>
      </trkpt>
      <trkpt lat="39.922306000" lon="-8.458028000">
        <ele>229.400000</ele>
        <time>2020-10-17T10:23:31Z</time>
      </trkpt>
      <trkpt lat="39.922290000" lon="-8.458017000">
        <ele>229.200000</ele>
        <time>2020-10-17T10:23:32Z</time>
      </trkpt>
      <trkpt lat="39.922275000" lon="-8.458006000">
        <ele>228.600000</ele>
        <time>2020-10-17T10:23:34Z</time>
      </trkpt>
      <trkpt lat="39.922260000" lon="-8.457994000">
        <ele>228.200000</ele>
        <time>2020-10-17T10:23:38Z</time>
      </trkpt>
      <trkpt lat="39.922245000" lon="-8.457983000">
        <ele>228.400000</ele>
        <time>2020-10-17T10:23:40Z</time>
      </trkpt>
      <trkpt lat="39.922230000" lon="-8.457972000">
        <ele>228.400000</ele>
        <time>2020-10-17T10:23:41Z</time>
      </trkpt>
      <trkpt lat="39.922163000" lon="-8.457947000">
        <ele>228.400000</ele>
        <time>2020-10-17T10:23:43Z</time>
      </trkpt>
      <trkpt lat="39.922176000" lon="-8.457944000">
        <ele>228.400000</ele>
        <time>2020-10-17T10:23:45Z</time>
      </trkpt>
      <trkpt lat="39.922209000" lon="-8.457964000">
        <ele>228.200000</ele>
        <time>2020-10-17T10:23:46Z</time>
      </trkpt>
      <trkpt lat="39.922222000" lon="-8.457971000">
        <ele>228.200000</ele>
        <time>2020-10-17T10:23:47Z</time>
      </trkpt>
      <trkpt lat="39.922242000" lon="-8.457971000">
        <ele>228.200000</ele>
        <time>2020-10-17T10:23:48Z</time>
      </trkpt>
      <trkpt lat="39.922263000" lon="-8.457964000">
        <ele>228.400000</ele>
        <time>2020-10-17T10:23:50Z</time>
      </trkpt>
      <trkpt lat="39.922475000" lon="-8.458008000">
        <ele>228.200000</ele>
        <time>2020-10-17T10:24:04Z</time>
      </trkpt>
      <trkpt lat="39.922483000" lon="-8.457978000">
        <ele>228.200000</ele>
        <time>2020-10-17T10:24:05Z</time>
      </trkpt>
      <trkpt lat="39.922500000" lon="-8.457934000">
        <ele>228.200000</ele>
        <time>2020-10-17T10:24:07Z</time>
      </trkpt>
      <trkpt lat="39.922533000" lon="-8.457776000">
        <ele>228.200000</ele>
        <time>2020-10-17T10:24:10Z</time>
      </trkpt>
      <trkpt lat="39.922578000" lon="-8.457624000">
        <ele>228.400000</ele>
        <time>2020-10-17T10:24:12Z</time>
      </trkpt>
      <trkpt lat="39.922633000" lon="-8.457443000">
        <ele>228.200000</ele>
        <time>2020-10-17T10:24:14Z</time>
      </trkpt>
      <trkpt lat="39.922655000" lon="-8.457235000">
        <ele>227.800000</ele>
        <time>2020-10-17T10:24:16Z</time>
      </trkpt>
      <trkpt lat="39.922680000" lon="-8.456998000">
        <ele>227.400000</ele>
        <time>2020-10-17T10:24:18Z</time>
      </trkpt>
      <trkpt lat="39.922706000" lon="-8.456741000">
        <ele>226.200000</ele>
        <time>2020-10-17T10:24:20Z</time>
      </trkpt>
      <trkpt lat="39.922735000" lon="-8.456623000">
        <ele>226.200000</ele>
        <time>2020-10-17T10:24:21Z</time>
      </trkpt>
      <trkpt lat="39.922781000" lon="-8.456490000">
        <ele>225.200000</ele>
        <time>2020-10-17T10:24:22Z</time>
      </trkpt>
      <trkpt lat="39.922821000" lon="-8.456387000">
        <ele>224.400000</ele>
        <time>2020-10-17T10:24:23Z</time>
      </trkpt>
      <trkpt lat="39.922871000" lon="-8.456285000">
        <ele>223.600000</ele>
        <time>2020-10-17T10:24:24Z</time>
      </trkpt>
      <trkpt lat="39.922920000" lon="-8.456187000">
        <ele>223.000000</ele>
        <time>2020-10-17T10:24:25Z</time>
      </trkpt>
      <trkpt lat="39.922964000" lon="-8.456068000">
        <ele>221.800000</ele>
        <time>2020-10-17T10:24:26Z</time>
      </trkpt>
      <trkpt lat="39.923005000" lon="-8.455942000">
        <ele>221.200000</ele>
        <time>2020-10-17T10:24:27Z</time>
      </trkpt>
      <trkpt lat="39.923075000" lon="-8.455712000">
        <ele>220.400000</ele>
        <time>2020-10-17T10:24:29Z</time>
      </trkpt>
      <trkpt lat="39.923107000" lon="-8.455596000">
        <ele>220.000000</ele>
        <time>2020-10-17T10:24:30Z</time>
      </trkpt>
      <trkpt lat="39.923142000" lon="-8.455470000">
        <ele>219.600000</ele>
        <time>2020-10-17T10:24:31Z</time>
      </trkpt>
      <trkpt lat="39.923173000" lon="-8.455357000">
        <ele>219.200000</ele>
        <time>2020-10-17T10:24:32Z</time>
      </trkpt>
      <trkpt lat="39.923206000" lon="-8.455246000">
        <ele>219.000000</ele>
        <time>2020-10-17T10:24:33Z</time>
      </trkpt>
      <trkpt lat="39.923230000" lon="-8.455150000">
        <ele>218.600000</ele>
        <time>2020-10-17T10:24:34Z</time>
      </trkpt>
      <trkpt lat="39.923275000" lon="-8.455066000">
        <ele>218.200000</ele>
        <time>2020-10-17T10:24:35Z</time>
      </trkpt>
      <trkpt lat="39.923321000" lon="-8.455012000">
        <ele>217.600000</ele>
        <time>2020-10-17T10:24:36Z</time>
      </trkpt>
      <trkpt lat="39.923368000" lon="-8.454966000">
        <ele>217.000000</ele>
        <time>2020-10-17T10:24:37Z</time>
      </trkpt>
      <trkpt lat="39.923421000" lon="-8.454921000">
        <ele>217.000000</ele>
        <time>2020-10-17T10:24:38Z</time>
      </trkpt>
      <trkpt lat="39.923491000" lon="-8.454883000">
        <ele>216.800000</ele>
        <time>2020-10-17T10:24:39Z</time>
      </trkpt>
      <trkpt lat="39.923545000" lon="-8.454842000">
        <ele>216.800000</ele>
        <time>2020-10-17T10:24:40Z</time>
      </trkpt>
      <trkpt lat="39.923597000" lon="-8.454805000">
        <ele>216.600000</ele>
        <time>2020-10-17T10:24:41Z</time>
      </trkpt>
      <trkpt lat="39.923641000" lon="-8.454770000">
        <ele>216.600000</ele>
        <time>2020-10-17T10:24:42Z</time>
      </trkpt>
      <trkpt lat="39.923674000" lon="-8.454739000">
        <ele>216.800000</ele>
        <time>2020-10-17T10:24:43Z</time>
      </trkpt>
      <trkpt lat="39.923706000" lon="-8.454705000">
        <ele>216.800000</ele>
        <time>2020-10-17T10:24:44Z</time>
      </trkpt>
      <trkpt lat="39.923756000" lon="-8.454660000">
        <ele>216.800000</ele>
        <time>2020-10-17T10:24:45Z</time>
      </trkpt>
      <trkpt lat="39.923800000" lon="-8.454618000">
        <ele>216.800000</ele>
        <time>2020-10-17T10:24:46Z</time>
      </trkpt>
      <trkpt lat="39.923830000" lon="-8.454588000">
        <ele>216.800000</ele>
        <time>2020-10-17T10:24:47Z</time>
      </trkpt>
      <trkpt lat="39.923861000" lon="-8.454559000">
        <ele>217.400000</ele>
        <time>2020-10-17T10:24:48Z</time>
      </trkpt>
      <trkpt lat="39.923958000" lon="-8.454445000">
        <ele>218.000000</ele>
        <time>2020-10-17T10:24:50Z</time>
      </trkpt>
      <trkpt lat="39.923990000" lon="-8.454406000">
        <ele>218.600000</ele>
        <time>2020-10-17T10:24:51Z</time>
      </trkpt>
      <trkpt lat="39.924024000" lon="-8.454366000">
        <ele>219.000000</ele>
        <time>2020-10-17T10:24:52Z</time>
      </trkpt>
      <trkpt lat="39.924042000" lon="-8.454327000">
        <ele>219.400000</ele>
        <time>2020-10-17T10:24:53Z</time>
      </trkpt>
      <trkpt lat="39.924057000" lon="-8.454278000">
        <ele>219.800000</ele>
        <time>2020-10-17T10:24:54Z</time>
      </trkpt>
      <trkpt lat="39.924087000" lon="-8.454237000">
        <ele>220.400000</ele>
        <time>2020-10-17T10:24:55Z</time>
      </trkpt>
      <trkpt lat="39.924123000" lon="-8.454205000">
        <ele>220.800000</ele>
        <time>2020-10-17T10:24:56Z</time>
      </trkpt>
      <trkpt lat="39.924162000" lon="-8.454175000">
        <ele>221.000000</ele>
        <time>2020-10-17T10:24:57Z</time>
      </trkpt>
      <trkpt lat="39.924194000" lon="-8.454157000">
        <ele>221.200000</ele>
        <time>2020-10-17T10:24:58Z</time>
      </trkpt>
      <trkpt lat="39.924232000" lon="-8.454134000">
        <ele>221.800000</ele>
        <time>2020-10-17T10:24:59Z</time>
      </trkpt>
      <trkpt lat="39.924271000" lon="-8.454109000">
        <ele>222.400000</ele>
        <time>2020-10-17T10:25:00Z</time>
      </trkpt>
      <trkpt lat="39.924300000" lon="-8.454085000">
        <ele>222.600000</ele>
        <time>2020-10-17T10:25:01Z</time>
      </trkpt>
      <trkpt lat="39.924334000" lon="-8.454060000">
        <ele>223.200000</ele>
        <time>2020-10-17T10:25:02Z</time>
      </trkpt>
      <trkpt lat="39.924366000" lon="-8.454035000">
        <ele>223.400000</ele>
        <time>2020-10-17T10:25:03Z</time>
      </trkpt>
      <trkpt lat="39.924408000" lon="-8.454008000">
        <ele>223.400000</ele>
        <time>2020-10-17T10:25:04Z</time>
      </trkpt>
      <trkpt lat="39.924444000" lon="-8.453984000">
        <ele>223.600000</ele>
        <time>2020-10-17T10:25:05Z</time>
      </trkpt>
      <trkpt lat="39.924513000" lon="-8.453924000">
        <ele>223.800000</ele>
        <time>2020-10-17T10:25:06Z</time>
      </trkpt>
      <trkpt lat="39.924541000" lon="-8.453883000">
        <ele>224.000000</ele>
        <time>2020-10-17T10:25:07Z</time>
      </trkpt>
      <trkpt lat="39.924553000" lon="-8.453858000">
        <ele>224.200000</ele>
        <time>2020-10-17T10:25:08Z</time>
      </trkpt>
      <trkpt lat="39.924564000" lon="-8.453832000">
        <ele>224.400000</ele>
        <time>2020-10-17T10:25:09Z</time>
      </trkpt>
      <trkpt lat="39.924557000" lon="-8.453793000">
        <ele>224.400000</ele>
        <time>2020-10-17T10:25:10Z</time>
      </trkpt>
      <trkpt lat="39.924564000" lon="-8.453747000">
        <ele>224.400000</ele>
        <time>2020-10-17T10:25:11Z</time>
      </trkpt>
      <trkpt lat="39.924567000" lon="-8.453698000">
        <ele>224.400000</ele>
        <time>2020-10-17T10:25:12Z</time>
      </trkpt>
      <trkpt lat="39.924568000" lon="-8.453645000">
        <ele>224.400000</ele>
        <time>2020-10-17T10:25:13Z</time>
      </trkpt>
      <trkpt lat="39.924549000" lon="-8.453602000">
        <ele>224.600000</ele>
        <time>2020-10-17T10:25:14Z</time>
      </trkpt>
      <trkpt lat="39.924529000" lon="-8.453562000">
        <ele>224.600000</ele>
        <time>2020-10-17T10:25:15Z</time>
      </trkpt>
      <trkpt lat="39.924502000" lon="-8.453530000">
        <ele>224.800000</ele>
        <time>2020-10-17T10:25:16Z</time>
      </trkpt>
      <trkpt lat="39.924466000" lon="-8.453513000">
        <ele>224.800000</ele>
        <time>2020-10-17T10:25:17Z</time>
      </trkpt>
      <trkpt lat="39.924433000" lon="-8.453484000">
        <ele>225.000000</ele>
        <time>2020-10-17T10:25:18Z</time>
      </trkpt>
      <trkpt lat="39.924399000" lon="-8.453454000">
        <ele>225.200000</ele>
        <time>2020-10-17T10:25:19Z</time>
      </trkpt>
      <trkpt lat="39.924357000" lon="-8.453429000">
        <ele>225.200000</ele>
        <time>2020-10-17T10:25:20Z</time>
      </trkpt>
      <trkpt lat="39.924320000" lon="-8.453407000">
        <ele>225.200000</ele>
        <time>2020-10-17T10:25:21Z</time>
      </trkpt>
      <trkpt lat="39.924277000" lon="-8.453382000">
        <ele>225.400000</ele>
        <time>2020-10-17T10:25:22Z</time>
      </trkpt>
      <trkpt lat="39.924233000" lon="-8.453354000">
        <ele>225.400000</ele>
        <time>2020-10-17T10:25:23Z</time>
      </trkpt>
      <trkpt lat="39.924156000" lon="-8.453292000">
        <ele>225.200000</ele>
        <time>2020-10-17T10:25:25Z</time>
      </trkpt>
      <trkpt lat="39.924124000" lon="-8.453260000">
        <ele>225.200000</ele>
        <time>2020-10-17T10:25:26Z</time>
      </trkpt>
      <trkpt lat="39.924099000" lon="-8.453215000">
        <ele>225.400000</ele>
        <time>2020-10-17T10:25:27Z</time>
      </trkpt>
      <trkpt lat="39.924080000" lon="-8.453164000">
        <ele>225.400000</ele>
        <time>2020-10-17T10:25:28Z</time>
      </trkpt>
      <trkpt lat="39.924065000" lon="-8.453102000">
        <ele>225.400000</ele>
        <time>2020-10-17T10:25:29Z</time>
      </trkpt>
      <trkpt lat="39.924049000" lon="-8.453041000">
        <ele>225.400000</ele>
        <time>2020-10-17T10:25:30Z</time>
      </trkpt>
      <trkpt lat="39.924003000" lon="-8.452857000">
        <ele>225.400000</ele>
        <time>2020-10-17T10:25:33Z</time>
      </trkpt>
      <trkpt lat="39.923989000" lon="-8.452798000">
        <ele>225.400000</ele>
        <time>2020-10-17T10:25:34Z</time>
      </trkpt>
      <trkpt lat="39.923973000" lon="-8.452744000">
        <ele>225.600000</ele>
        <time>2020-10-17T10:25:35Z</time>
      </trkpt>
      <trkpt lat="39.923959000" lon="-8.452696000">
        <ele>225.600000</ele>
        <time>2020-10-17T10:25:36Z</time>
      </trkpt>
      <trkpt lat="39.923944000" lon="-8.452647000">
        <ele>225.400000</ele>
        <time>2020-10-17T10:25:37Z</time>
      </trkpt>
      <trkpt lat="39.923908000" lon="-8.452504000">
        <ele>225.800000</ele>
        <time>2020-10-17T10:25:40Z</time>
      </trkpt>
      <trkpt lat="39.923862000" lon="-8.452329000">
        <ele>226.200000</ele>
        <time>2020-10-17T10:25:43Z</time>
      </trkpt>
      <trkpt lat="39.923850000" lon="-8.452265000">
        <ele>226.400000</ele>
        <time>2020-10-17T10:25:44Z</time>
      </trkpt>
      <trkpt lat="39.923843000" lon="-8.452197000">
        <ele>226.600000</ele>
        <time>2020-10-17T10:25:45Z</time>
      </trkpt>
      <trkpt lat="39.923842000" lon="-8.452128000">
        <ele>227.000000</ele>
        <time>2020-10-17T10:25:46Z</time>
      </trkpt>
      <trkpt lat="39.923841000" lon="-8.452051000">
        <ele>227.000000</ele>
        <time>2020-10-17T10:25:47Z</time>
      </trkpt>
      <trkpt lat="39.923844000" lon="-8.451978000">
        <ele>227.200000</ele>
        <time>2020-10-17T10:25:48Z</time>
      </trkpt>
      <trkpt lat="39.923838000" lon="-8.451818000">
        <ele>227.200000</ele>
        <time>2020-10-17T10:25:50Z</time>
      </trkpt>
      <trkpt lat="39.923818000" lon="-8.451657000">
        <ele>227.400000</ele>
        <time>2020-10-17T10:25:52Z</time>
      </trkpt>
      <trkpt lat="39.923802000" lon="-8.451581000">
        <ele>227.200000</ele>
        <time>2020-10-17T10:25:53Z</time>
      </trkpt>
      <trkpt lat="39.923778000" lon="-8.451509000">
        <ele>227.200000</ele>
        <time>2020-10-17T10:25:54Z</time>
      </trkpt>
      <trkpt lat="39.923740000" lon="-8.451438000">
        <ele>227.400000</ele>
        <time>2020-10-17T10:25:55Z</time>
      </trkpt>
      <trkpt lat="39.923649000" lon="-8.451305000">
        <ele>227.400000</ele>
        <time>2020-10-17T10:25:57Z</time>
      </trkpt>
      <trkpt lat="39.923604000" lon="-8.451241000">
        <ele>227.200000</ele>
        <time>2020-10-17T10:25:58Z</time>
      </trkpt>
      <trkpt lat="39.923571000" lon="-8.451169000">
        <ele>227.000000</ele>
        <time>2020-10-17T10:25:59Z</time>
      </trkpt>
      <trkpt lat="39.923564000" lon="-8.451091000">
        <ele>227.000000</ele>
        <time>2020-10-17T10:26:00Z</time>
      </trkpt>
      <trkpt lat="39.923578000" lon="-8.451020000">
        <ele>227.000000</ele>
        <time>2020-10-17T10:26:01Z</time>
      </trkpt>
      <trkpt lat="39.923632000" lon="-8.450876000">
        <ele>226.400000</ele>
        <time>2020-10-17T10:26:03Z</time>
      </trkpt>
      <trkpt lat="39.923658000" lon="-8.450797000">
        <ele>225.800000</ele>
        <time>2020-10-17T10:26:04Z</time>
      </trkpt>
      <trkpt lat="39.923676000" lon="-8.450708000">
        <ele>225.200000</ele>
        <time>2020-10-17T10:26:05Z</time>
      </trkpt>
      <trkpt lat="39.923679000" lon="-8.450621000">
        <ele>224.800000</ele>
        <time>2020-10-17T10:26:06Z</time>
      </trkpt>
      <trkpt lat="39.923679000" lon="-8.450530000">
        <ele>224.000000</ele>
        <time>2020-10-17T10:26:07Z</time>
      </trkpt>
      <trkpt lat="39.923687000" lon="-8.450436000">
        <ele>224.000000</ele>
        <time>2020-10-17T10:26:08Z</time>
      </trkpt>
      <trkpt lat="39.923699000" lon="-8.450333000">
        <ele>223.800000</ele>
        <time>2020-10-17T10:26:09Z</time>
      </trkpt>
      <trkpt lat="39.923712000" lon="-8.450229000">
        <ele>223.400000</ele>
        <time>2020-10-17T10:26:10Z</time>
      </trkpt>
      <trkpt lat="39.923747000" lon="-8.450046000">
        <ele>222.800000</ele>
        <time>2020-10-17T10:26:12Z</time>
      </trkpt>
      <trkpt lat="39.923777000" lon="-8.449971000">
        <ele>222.400000</ele>
        <time>2020-10-17T10:26:13Z</time>
      </trkpt>
      <trkpt lat="39.923817000" lon="-8.449898000">
        <ele>221.800000</ele>
        <time>2020-10-17T10:26:14Z</time>
      </trkpt>
      <trkpt lat="39.923861000" lon="-8.449831000">
        <ele>221.400000</ele>
        <time>2020-10-17T10:26:15Z</time>
      </trkpt>
      <trkpt lat="39.923920000" lon="-8.449777000">
        <ele>221.200000</ele>
        <time>2020-10-17T10:26:16Z</time>
      </trkpt>
      <trkpt lat="39.923986000" lon="-8.449721000">
        <ele>221.000000</ele>
        <time>2020-10-17T10:26:17Z</time>
      </trkpt>
      <trkpt lat="39.924055000" lon="-8.449665000">
        <ele>220.600000</ele>
        <time>2020-10-17T10:26:18Z</time>
      </trkpt>
      <trkpt lat="39.924129000" lon="-8.449605000">
        <ele>219.600000</ele>
        <time>2020-10-17T10:26:19Z</time>
      </trkpt>
      <trkpt lat="39.924338000" lon="-8.449407000">
        <ele>218.000000</ele>
        <time>2020-10-17T10:26:22Z</time>
      </trkpt>
      <trkpt lat="39.924391000" lon="-8.449337000">
        <ele>217.400000</ele>
        <time>2020-10-17T10:26:23Z</time>
      </trkpt>
      <trkpt lat="39.924432000" lon="-8.449277000">
        <ele>216.600000</ele>
        <time>2020-10-17T10:26:24Z</time>
      </trkpt>
      <trkpt lat="39.924453000" lon="-8.449225000">
        <ele>215.800000</ele>
        <time>2020-10-17T10:26:25Z</time>
      </trkpt>
      <trkpt lat="39.924463000" lon="-8.449182000">
        <ele>214.600000</ele>
        <time>2020-10-17T10:26:26Z</time>
      </trkpt>
      <trkpt lat="39.924463000" lon="-8.449143000">
        <ele>214.200000</ele>
        <time>2020-10-17T10:26:27Z</time>
      </trkpt>
      <trkpt lat="39.924459000" lon="-8.449109000">
        <ele>214.000000</ele>
        <time>2020-10-17T10:26:28Z</time>
      </trkpt>
      <trkpt lat="39.924452000" lon="-8.449072000">
        <ele>213.800000</ele>
        <time>2020-10-17T10:26:29Z</time>
      </trkpt>
      <trkpt lat="39.924443000" lon="-8.449037000">
        <ele>213.800000</ele>
        <time>2020-10-17T10:26:30Z</time>
      </trkpt>
      <trkpt lat="39.924435000" lon="-8.449002000">
        <ele>213.800000</ele>
        <time>2020-10-17T10:26:31Z</time>
      </trkpt>
      <trkpt lat="39.924427000" lon="-8.448964000">
        <ele>213.600000</ele>
        <time>2020-10-17T10:26:32Z</time>
      </trkpt>
      <trkpt lat="39.924413000" lon="-8.448879000">
        <ele>213.600000</ele>
        <time>2020-10-17T10:26:34Z</time>
      </trkpt>
      <trkpt lat="39.924404000" lon="-8.448838000">
        <ele>213.600000</ele>
        <time>2020-10-17T10:26:35Z</time>
      </trkpt>
      <trkpt lat="39.924396000" lon="-8.448798000">
        <ele>213.800000</ele>
        <time>2020-10-17T10:26:36Z</time>
      </trkpt>
      <trkpt lat="39.924390000" lon="-8.448760000">
        <ele>214.000000</ele>
        <time>2020-10-17T10:26:37Z</time>
      </trkpt>
      <trkpt lat="39.924387000" lon="-8.448730000">
        <ele>214.200000</ele>
        <time>2020-10-17T10:26:38Z</time>
      </trkpt>
      <trkpt lat="39.924382000" lon="-8.448703000">
        <ele>214.600000</ele>
        <time>2020-10-17T10:26:39Z</time>
      </trkpt>
      <trkpt lat="39.924368000" lon="-8.448679000">
        <ele>214.800000</ele>
        <time>2020-10-17T10:26:40Z</time>
      </trkpt>
      <trkpt lat="39.924299000" lon="-8.448659000">
        <ele>215.200000</ele>
        <time>2020-10-17T10:26:42Z</time>
      </trkpt>
      <trkpt lat="39.924192000" lon="-8.448661000">
        <ele>215.200000</ele>
        <time>2020-10-17T10:26:44Z</time>
      </trkpt>
      <trkpt lat="39.924137000" lon="-8.448659000">
        <ele>215.200000</ele>
        <time>2020-10-17T10:26:45Z</time>
      </trkpt>
      <trkpt lat="39.924098000" lon="-8.448648000">
        <ele>215.200000</ele>
        <time>2020-10-17T10:26:46Z</time>
      </trkpt>
      <trkpt lat="39.924071000" lon="-8.448630000">
        <ele>215.200000</ele>
        <time>2020-10-17T10:26:47Z</time>
      </trkpt>
      <trkpt lat="39.924051000" lon="-8.448601000">
        <ele>215.200000</ele>
        <time>2020-10-17T10:26:48Z</time>
      </trkpt>
      <trkpt lat="39.924030000" lon="-8.448567000">
        <ele>215.400000</ele>
        <time>2020-10-17T10:26:49Z</time>
      </trkpt>
      <trkpt lat="39.924012000" lon="-8.448526000">
        <ele>215.400000</ele>
        <time>2020-10-17T10:26:50Z</time>
      </trkpt>
      <trkpt lat="39.923963000" lon="-8.448260000">
        <ele>213.400000</ele>
        <time>2020-10-17T10:26:55Z</time>
      </trkpt>
      <trkpt lat="39.923963000" lon="-8.448201000">
        <ele>213.200000</ele>
        <time>2020-10-17T10:26:56Z</time>
      </trkpt>
      <trkpt lat="39.923948000" lon="-8.448072000">
        <ele>213.000000</ele>
        <time>2020-10-17T10:26:58Z</time>
      </trkpt>
      <trkpt lat="39.923927000" lon="-8.447952000">
        <ele>212.800000</ele>
        <time>2020-10-17T10:27:00Z</time>
      </trkpt>
      <trkpt lat="39.923922000" lon="-8.447896000">
        <ele>212.800000</ele>
        <time>2020-10-17T10:27:01Z</time>
      </trkpt>
      <trkpt lat="39.923909000" lon="-8.447846000">
        <ele>212.600000</ele>
        <time>2020-10-17T10:27:02Z</time>
      </trkpt>
      <trkpt lat="39.923894000" lon="-8.447806000">
        <ele>212.600000</ele>
        <time>2020-10-17T10:27:03Z</time>
      </trkpt>
      <trkpt lat="39.923877000" lon="-8.447772000">
        <ele>212.400000</ele>
        <time>2020-10-17T10:27:04Z</time>
      </trkpt>
      <trkpt lat="39.923853000" lon="-8.447737000">
        <ele>212.400000</ele>
        <time>2020-10-17T10:27:05Z</time>
      </trkpt>
      <trkpt lat="39.923827000" lon="-8.447683000">
        <ele>212.000000</ele>
        <time>2020-10-17T10:27:06Z</time>
      </trkpt>
      <trkpt lat="39.923808000" lon="-8.447624000">
        <ele>212.000000</ele>
        <time>2020-10-17T10:27:07Z</time>
      </trkpt>
      <trkpt lat="39.923801000" lon="-8.447553000">
        <ele>211.800000</ele>
        <time>2020-10-17T10:27:08Z</time>
      </trkpt>
      <trkpt lat="39.923799000" lon="-8.447482000">
        <ele>211.400000</ele>
        <time>2020-10-17T10:27:09Z</time>
      </trkpt>
      <trkpt lat="39.923796000" lon="-8.447405000">
        <ele>211.200000</ele>
        <time>2020-10-17T10:27:10Z</time>
      </trkpt>
      <trkpt lat="39.923793000" lon="-8.447090000">
        <ele>210.000000</ele>
        <time>2020-10-17T10:27:13Z</time>
      </trkpt>
      <trkpt lat="39.923791000" lon="-8.446976000">
        <ele>209.600000</ele>
        <time>2020-10-17T10:27:14Z</time>
      </trkpt>
      <trkpt lat="39.923791000" lon="-8.446870000">
        <ele>208.800000</ele>
        <time>2020-10-17T10:27:15Z</time>
      </trkpt>
      <trkpt lat="39.923786000" lon="-8.446776000">
        <ele>207.800000</ele>
        <time>2020-10-17T10:27:16Z</time>
      </trkpt>
      <trkpt lat="39.923775000" lon="-8.446696000">
        <ele>207.000000</ele>
        <time>2020-10-17T10:27:17Z</time>
      </trkpt>
      <trkpt lat="39.923750000" lon="-8.446629000">
        <ele>205.800000</ele>
        <time>2020-10-17T10:27:18Z</time>
      </trkpt>
      <trkpt lat="39.923707000" lon="-8.446582000">
        <ele>205.400000</ele>
        <time>2020-10-17T10:27:19Z</time>
      </trkpt>
      <trkpt lat="39.923652000" lon="-8.446558000">
        <ele>205.000000</ele>
        <time>2020-10-17T10:27:20Z</time>
      </trkpt>
      <trkpt lat="39.923588000" lon="-8.446539000">
        <ele>204.400000</ele>
        <time>2020-10-17T10:27:21Z</time>
      </trkpt>
      <trkpt lat="39.923521000" lon="-8.446525000">
        <ele>204.000000</ele>
        <time>2020-10-17T10:27:22Z</time>
      </trkpt>
      <trkpt lat="39.923448000" lon="-8.446505000">
        <ele>202.800000</ele>
        <time>2020-10-17T10:27:23Z</time>
      </trkpt>
      <trkpt lat="39.923372000" lon="-8.446478000">
        <ele>201.800000</ele>
        <time>2020-10-17T10:27:24Z</time>
      </trkpt>
      <trkpt lat="39.923294000" lon="-8.446440000">
        <ele>200.600000</ele>
        <time>2020-10-17T10:27:25Z</time>
      </trkpt>
      <trkpt lat="39.923212000" lon="-8.446393000">
        <ele>199.400000</ele>
        <time>2020-10-17T10:27:26Z</time>
      </trkpt>
      <trkpt lat="39.923037000" lon="-8.446291000">
        <ele>197.600000</ele>
        <time>2020-10-17T10:27:28Z</time>
      </trkpt>
      <trkpt lat="39.922836000" lon="-8.446193000">
        <ele>196.600000</ele>
        <time>2020-10-17T10:27:30Z</time>
      </trkpt>
      <trkpt lat="39.922731000" lon="-8.446159000">
        <ele>196.200000</ele>
        <time>2020-10-17T10:27:31Z</time>
      </trkpt>
      <trkpt lat="39.922628000" lon="-8.446133000">
        <ele>195.600000</ele>
        <time>2020-10-17T10:27:32Z</time>
      </trkpt>
      <trkpt lat="39.922401000" lon="-8.446092000">
        <ele>194.000000</ele>
        <time>2020-10-17T10:27:34Z</time>
      </trkpt>
      <trkpt lat="39.922176000" lon="-8.446058000">
        <ele>191.600000</ele>
        <time>2020-10-17T10:27:36Z</time>
      </trkpt>
      <trkpt lat="39.922068000" lon="-8.446047000">
        <ele>190.800000</ele>
        <time>2020-10-17T10:27:37Z</time>
      </trkpt>
      <trkpt lat="39.921967000" lon="-8.446042000">
        <ele>189.600000</ele>
        <time>2020-10-17T10:27:38Z</time>
      </trkpt>
      <trkpt lat="39.921878000" lon="-8.446035000">
        <ele>189.000000</ele>
        <time>2020-10-17T10:27:39Z</time>
      </trkpt>
      <trkpt lat="39.921799000" lon="-8.446015000">
        <ele>188.000000</ele>
        <time>2020-10-17T10:27:40Z</time>
      </trkpt>
      <trkpt lat="39.921729000" lon="-8.445981000">
        <ele>187.000000</ele>
        <time>2020-10-17T10:27:41Z</time>
      </trkpt>
      <trkpt lat="39.921668000" lon="-8.445938000">
        <ele>185.800000</ele>
        <time>2020-10-17T10:27:42Z</time>
      </trkpt>
      <trkpt lat="39.921618000" lon="-8.445884000">
        <ele>185.000000</ele>
        <time>2020-10-17T10:27:43Z</time>
      </trkpt>
      <trkpt lat="39.921576000" lon="-8.445823000">
        <ele>184.400000</ele>
        <time>2020-10-17T10:27:44Z</time>
      </trkpt>
      <trkpt lat="39.921540000" lon="-8.445761000">
        <ele>183.800000</ele>
        <time>2020-10-17T10:27:45Z</time>
      </trkpt>
      <trkpt lat="39.921506000" lon="-8.445702000">
        <ele>183.600000</ele>
        <time>2020-10-17T10:27:46Z</time>
      </trkpt>
      <trkpt lat="39.921474000" lon="-8.445648000">
        <ele>183.600000</ele>
        <time>2020-10-17T10:27:47Z</time>
      </trkpt>
      <trkpt lat="39.921441000" lon="-8.445598000">
        <ele>183.400000</ele>
        <time>2020-10-17T10:27:48Z</time>
      </trkpt>
      <trkpt lat="39.921406000" lon="-8.445552000">
        <ele>183.400000</ele>
        <time>2020-10-17T10:27:49Z</time>
      </trkpt>
      <trkpt lat="39.921376000" lon="-8.445511000">
        <ele>183.400000</ele>
        <time>2020-10-17T10:27:50Z</time>
      </trkpt>
      <trkpt lat="39.921348000" lon="-8.445467000">
        <ele>183.400000</ele>
        <time>2020-10-17T10:27:51Z</time>
      </trkpt>
      <trkpt lat="39.921322000" lon="-8.445421000">
        <ele>183.400000</ele>
        <time>2020-10-17T10:27:52Z</time>
      </trkpt>
      <trkpt lat="39.921250000" lon="-8.445272000">
        <ele>183.600000</ele>
        <time>2020-10-17T10:27:55Z</time>
      </trkpt>
      <trkpt lat="39.921213000" lon="-8.445159000">
        <ele>183.800000</ele>
        <time>2020-10-17T10:27:57Z</time>
      </trkpt>
      <trkpt lat="39.921193000" lon="-8.445107000">
        <ele>184.400000</ele>
        <time>2020-10-17T10:27:58Z</time>
      </trkpt>
      <trkpt lat="39.921171000" lon="-8.445061000">
        <ele>184.800000</ele>
        <time>2020-10-17T10:27:59Z</time>
      </trkpt>
      <trkpt lat="39.921154000" lon="-8.445026000">
        <ele>185.000000</ele>
        <time>2020-10-17T10:28:00Z</time>
      </trkpt>
      <trkpt lat="39.921146000" lon="-8.445004000">
        <ele>185.000000</ele>
        <time>2020-10-17T10:28:01Z</time>
      </trkpt>
      <trkpt lat="39.921141000" lon="-8.444995000">
        <ele>185.000000</ele>
        <time>2020-10-17T10:28:02Z</time>
      </trkpt>
      <trkpt lat="39.921141000" lon="-8.444991000">
        <ele>185.400000</ele>
        <time>2020-10-17T10:28:03Z</time>
      </trkpt>
      <trkpt lat="39.921135000" lon="-8.444911000">
        <ele>185.200000</ele>
        <time>2020-10-17T10:28:11Z</time>
      </trkpt>
      <trkpt lat="39.921130000" lon="-8.444876000">
        <ele>185.200000</ele>
        <time>2020-10-17T10:28:12Z</time>
      </trkpt>
      <trkpt lat="39.921123000" lon="-8.444832000">
        <ele>185.200000</ele>
        <time>2020-10-17T10:28:13Z</time>
      </trkpt>
      <trkpt lat="39.921058000" lon="-8.444535000">
        <ele>185.400000</ele>
        <time>2020-10-17T10:28:18Z</time>
      </trkpt>
      <trkpt lat="39.921050000" lon="-8.444472000">
        <ele>185.200000</ele>
        <time>2020-10-17T10:28:19Z</time>
      </trkpt>
      <trkpt lat="39.921038000" lon="-8.444283000">
        <ele>185.200000</ele>
        <time>2020-10-17T10:28:22Z</time>
      </trkpt>
      <trkpt lat="39.921035000" lon="-8.444156000">
        <ele>185.200000</ele>
        <time>2020-10-17T10:28:24Z</time>
      </trkpt>
      <trkpt lat="39.921042000" lon="-8.443956000">
        <ele>185.800000</ele>
        <time>2020-10-17T10:28:27Z</time>
      </trkpt>
      <trkpt lat="39.921048000" lon="-8.443889000">
        <ele>185.800000</ele>
        <time>2020-10-17T10:28:28Z</time>
      </trkpt>
      <trkpt lat="39.921072000" lon="-8.443745000">
        <ele>185.800000</ele>
        <time>2020-10-17T10:28:30Z</time>
      </trkpt>
      <trkpt lat="39.921081000" lon="-8.443671000">
        <ele>186.000000</ele>
        <time>2020-10-17T10:28:31Z</time>
      </trkpt>
      <trkpt lat="39.921097000" lon="-8.443530000">
        <ele>186.000000</ele>
        <time>2020-10-17T10:28:33Z</time>
      </trkpt>
      <trkpt lat="39.921107000" lon="-8.443461000">
        <ele>186.200000</ele>
        <time>2020-10-17T10:28:34Z</time>
      </trkpt>
      <trkpt lat="39.921119000" lon="-8.443393000">
        <ele>186.000000</ele>
        <time>2020-10-17T10:28:35Z</time>
      </trkpt>
      <trkpt lat="39.921130000" lon="-8.443327000">
        <ele>186.400000</ele>
        <time>2020-10-17T10:28:36Z</time>
      </trkpt>
      <trkpt lat="39.921161000" lon="-8.443126000">
        <ele>187.000000</ele>
        <time>2020-10-17T10:28:39Z</time>
      </trkpt>
      <trkpt lat="39.921170000" lon="-8.443059000">
        <ele>186.800000</ele>
        <time>2020-10-17T10:28:40Z</time>
      </trkpt>
      <trkpt lat="39.921178000" lon="-8.442993000">
        <ele>187.000000</ele>
        <time>2020-10-17T10:28:41Z</time>
      </trkpt>
      <trkpt lat="39.921186000" lon="-8.442927000">
        <ele>187.000000</ele>
        <time>2020-10-17T10:28:42Z</time>
      </trkpt>
      <trkpt lat="39.921195000" lon="-8.442859000">
        <ele>187.400000</ele>
        <time>2020-10-17T10:28:43Z</time>
      </trkpt>
      <trkpt lat="39.921206000" lon="-8.442792000">
        <ele>187.400000</ele>
        <time>2020-10-17T10:28:44Z</time>
      </trkpt>
      <trkpt lat="39.921216000" lon="-8.442728000">
        <ele>187.400000</ele>
        <time>2020-10-17T10:28:45Z</time>
      </trkpt>
      <trkpt lat="39.921227000" lon="-8.442667000">
        <ele>187.800000</ele>
        <time>2020-10-17T10:28:46Z</time>
      </trkpt>
      <trkpt lat="39.921235000" lon="-8.442609000">
        <ele>188.000000</ele>
        <time>2020-10-17T10:28:47Z</time>
      </trkpt>
      <trkpt lat="39.921243000" lon="-8.442550000">
        <ele>188.000000</ele>
        <time>2020-10-17T10:28:48Z</time>
      </trkpt>
      <trkpt lat="39.921245000" lon="-8.442488000">
        <ele>188.200000</ele>
        <time>2020-10-17T10:28:49Z</time>
      </trkpt>
      <trkpt lat="39.921241000" lon="-8.442425000">
        <ele>188.200000</ele>
        <time>2020-10-17T10:28:50Z</time>
      </trkpt>
      <trkpt lat="39.921228000" lon="-8.442366000">
        <ele>188.400000</ele>
        <time>2020-10-17T10:28:51Z</time>
      </trkpt>
      <trkpt lat="39.921209000" lon="-8.442313000">
        <ele>188.400000</ele>
        <time>2020-10-17T10:28:52Z</time>
      </trkpt>
      <trkpt lat="39.921183000" lon="-8.442266000">
        <ele>188.600000</ele>
        <time>2020-10-17T10:28:53Z</time>
      </trkpt>
      <trkpt lat="39.921153000" lon="-8.442221000">
        <ele>188.600000</ele>
        <time>2020-10-17T10:28:54Z</time>
      </trkpt>
      <trkpt lat="39.921125000" lon="-8.442184000">
        <ele>188.800000</ele>
        <time>2020-10-17T10:28:55Z</time>
      </trkpt>
      <trkpt lat="39.921098000" lon="-8.442153000">
        <ele>188.600000</ele>
        <time>2020-10-17T10:28:56Z</time>
      </trkpt>
      <trkpt lat="39.921073000" lon="-8.442130000">
        <ele>188.800000</ele>
        <time>2020-10-17T10:28:57Z</time>
      </trkpt>
      <trkpt lat="39.921049000" lon="-8.442108000">
        <ele>189.000000</ele>
        <time>2020-10-17T10:28:58Z</time>
      </trkpt>
      <trkpt lat="39.921029000" lon="-8.442089000">
        <ele>189.200000</ele>
        <time>2020-10-17T10:28:59Z</time>
      </trkpt>
      <trkpt lat="39.921012000" lon="-8.442076000">
        <ele>189.200000</ele>
        <time>2020-10-17T10:29:00Z</time>
      </trkpt>
      <trkpt lat="39.920992000" lon="-8.442062000">
        <ele>189.400000</ele>
        <time>2020-10-17T10:29:01Z</time>
      </trkpt>
      <trkpt lat="39.920971000" lon="-8.442052000">
        <ele>189.600000</ele>
        <time>2020-10-17T10:29:02Z</time>
      </trkpt>
      <trkpt lat="39.920954000" lon="-8.442038000">
        <ele>189.600000</ele>
        <time>2020-10-17T10:29:03Z</time>
      </trkpt>
      <trkpt lat="39.920934000" lon="-8.442025000">
        <ele>190.200000</ele>
        <time>2020-10-17T10:29:04Z</time>
      </trkpt>
      <trkpt lat="39.920916000" lon="-8.442008000">
        <ele>190.400000</ele>
        <time>2020-10-17T10:29:05Z</time>
      </trkpt>
      <trkpt lat="39.920896000" lon="-8.441995000">
        <ele>190.600000</ele>
        <time>2020-10-17T10:29:06Z</time>
      </trkpt>
      <trkpt lat="39.920876000" lon="-8.441985000">
        <ele>191.200000</ele>
        <time>2020-10-17T10:29:07Z</time>
      </trkpt>
      <trkpt lat="39.920855000" lon="-8.441972000">
        <ele>191.800000</ele>
        <time>2020-10-17T10:29:08Z</time>
      </trkpt>
      <trkpt lat="39.920836000" lon="-8.441957000">
        <ele>192.000000</ele>
        <time>2020-10-17T10:29:09Z</time>
      </trkpt>
      <trkpt lat="39.920816000" lon="-8.441942000">
        <ele>192.400000</ele>
        <time>2020-10-17T10:29:10Z</time>
      </trkpt>
      <trkpt lat="39.920797000" lon="-8.441933000">
        <ele>192.800000</ele>
        <time>2020-10-17T10:29:11Z</time>
      </trkpt>
      <trkpt lat="39.920776000" lon="-8.441923000">
        <ele>193.000000</ele>
        <time>2020-10-17T10:29:12Z</time>
      </trkpt>
      <trkpt lat="39.920754000" lon="-8.441916000">
        <ele>193.600000</ele>
        <time>2020-10-17T10:29:13Z</time>
      </trkpt>
      <trkpt lat="39.920731000" lon="-8.441906000">
        <ele>193.800000</ele>
        <time>2020-10-17T10:29:14Z</time>
      </trkpt>
      <trkpt lat="39.920707000" lon="-8.441887000">
        <ele>194.400000</ele>
        <time>2020-10-17T10:29:15Z</time>
      </trkpt>
      <trkpt lat="39.920683000" lon="-8.441865000">
        <ele>194.400000</ele>
        <time>2020-10-17T10:29:16Z</time>
      </trkpt>
      <trkpt lat="39.920657000" lon="-8.441845000">
        <ele>194.600000</ele>
        <time>2020-10-17T10:29:17Z</time>
      </trkpt>
      <trkpt lat="39.920630000" lon="-8.441827000">
        <ele>194.800000</ele>
        <time>2020-10-17T10:29:18Z</time>
      </trkpt>
      <trkpt lat="39.920606000" lon="-8.441804000">
        <ele>195.000000</ele>
        <time>2020-10-17T10:29:19Z</time>
      </trkpt>
      <trkpt lat="39.920583000" lon="-8.441788000">
        <ele>195.400000</ele>
        <time>2020-10-17T10:29:20Z</time>
      </trkpt>
      <trkpt lat="39.920559000" lon="-8.441773000">
        <ele>195.600000</ele>
        <time>2020-10-17T10:29:21Z</time>
      </trkpt>
      <trkpt lat="39.920535000" lon="-8.441763000">
        <ele>195.800000</ele>
        <time>2020-10-17T10:29:22Z</time>
      </trkpt>
      <trkpt lat="39.920510000" lon="-8.441753000">
        <ele>196.000000</ele>
        <time>2020-10-17T10:29:23Z</time>
      </trkpt>
      <trkpt lat="39.920487000" lon="-8.441743000">
        <ele>196.000000</ele>
        <time>2020-10-17T10:29:24Z</time>
      </trkpt>
      <trkpt lat="39.920464000" lon="-8.441729000">
        <ele>196.200000</ele>
        <time>2020-10-17T10:29:25Z</time>
      </trkpt>
      <trkpt lat="39.920445000" lon="-8.441713000">
        <ele>196.600000</ele>
        <time>2020-10-17T10:29:26Z</time>
      </trkpt>
      <trkpt lat="39.920427000" lon="-8.441692000">
        <ele>196.600000</ele>
        <time>2020-10-17T10:29:27Z</time>
      </trkpt>
      <trkpt lat="39.920403000" lon="-8.441670000">
        <ele>197.000000</ele>
        <time>2020-10-17T10:29:28Z</time>
      </trkpt>
      <trkpt lat="39.920378000" lon="-8.441650000">
        <ele>197.200000</ele>
        <time>2020-10-17T10:29:29Z</time>
      </trkpt>
      <trkpt lat="39.920356000" lon="-8.441630000">
        <ele>197.200000</ele>
        <time>2020-10-17T10:29:30Z</time>
      </trkpt>
      <trkpt lat="39.920333000" lon="-8.441614000">
        <ele>197.600000</ele>
        <time>2020-10-17T10:29:31Z</time>
      </trkpt>
      <trkpt lat="39.920312000" lon="-8.441601000">
        <ele>197.800000</ele>
        <time>2020-10-17T10:29:32Z</time>
      </trkpt>
      <trkpt lat="39.920290000" lon="-8.441588000">
        <ele>198.200000</ele>
        <time>2020-10-17T10:29:33Z</time>
      </trkpt>
      <trkpt lat="39.920266000" lon="-8.441565000">
        <ele>198.400000</ele>
        <time>2020-10-17T10:29:34Z</time>
      </trkpt>
      <trkpt lat="39.920245000" lon="-8.441541000">
        <ele>198.600000</ele>
        <time>2020-10-17T10:29:35Z</time>
      </trkpt>
      <trkpt lat="39.920227000" lon="-8.441519000">
        <ele>199.000000</ele>
        <time>2020-10-17T10:29:36Z</time>
      </trkpt>
      <trkpt lat="39.920209000" lon="-8.441493000">
        <ele>199.200000</ele>
        <time>2020-10-17T10:29:37Z</time>
      </trkpt>
      <trkpt lat="39.920194000" lon="-8.441473000">
        <ele>199.400000</ele>
        <time>2020-10-17T10:29:38Z</time>
      </trkpt>
      <trkpt lat="39.920179000" lon="-8.441450000">
        <ele>199.600000</ele>
        <time>2020-10-17T10:29:39Z</time>
      </trkpt>
      <trkpt lat="39.920160000" lon="-8.441424000">
        <ele>200.000000</ele>
        <time>2020-10-17T10:29:40Z</time>
      </trkpt>
      <trkpt lat="39.920145000" lon="-8.441393000">
        <ele>200.000000</ele>
        <time>2020-10-17T10:29:41Z</time>
      </trkpt>
      <trkpt lat="39.920129000" lon="-8.441362000">
        <ele>200.400000</ele>
        <time>2020-10-17T10:29:42Z</time>
      </trkpt>
      <trkpt lat="39.920120000" lon="-8.441334000">
        <ele>200.600000</ele>
        <time>2020-10-17T10:29:43Z</time>
      </trkpt>
      <trkpt lat="39.920110000" lon="-8.441305000">
        <ele>201.000000</ele>
        <time>2020-10-17T10:29:44Z</time>
      </trkpt>
      <trkpt lat="39.920098000" lon="-8.441277000">
        <ele>201.000000</ele>
        <time>2020-10-17T10:29:45Z</time>
      </trkpt>
      <trkpt lat="39.920089000" lon="-8.441252000">
        <ele>201.200000</ele>
        <time>2020-10-17T10:29:46Z</time>
      </trkpt>
      <trkpt lat="39.920083000" lon="-8.441227000">
        <ele>201.400000</ele>
        <time>2020-10-17T10:29:47Z</time>
      </trkpt>
      <trkpt lat="39.920073000" lon="-8.441202000">
        <ele>201.400000</ele>
        <time>2020-10-17T10:29:48Z</time>
      </trkpt>
      <trkpt lat="39.920060000" lon="-8.441175000">
        <ele>201.600000</ele>
        <time>2020-10-17T10:29:49Z</time>
      </trkpt>
      <trkpt lat="39.920046000" lon="-8.441151000">
        <ele>201.600000</ele>
        <time>2020-10-17T10:29:50Z</time>
      </trkpt>
      <trkpt lat="39.920031000" lon="-8.441125000">
        <ele>201.800000</ele>
        <time>2020-10-17T10:29:51Z</time>
      </trkpt>
      <trkpt lat="39.920018000" lon="-8.441101000">
        <ele>202.000000</ele>
        <time>2020-10-17T10:29:52Z</time>
      </trkpt>
      <trkpt lat="39.920008000" lon="-8.441079000">
        <ele>202.000000</ele>
        <time>2020-10-17T10:29:53Z</time>
      </trkpt>
      <trkpt lat="39.919998000" lon="-8.441059000">
        <ele>202.400000</ele>
        <time>2020-10-17T10:29:54Z</time>
      </trkpt>
      <trkpt lat="39.919988000" lon="-8.441040000">
        <ele>202.400000</ele>
        <time>2020-10-17T10:29:55Z</time>
      </trkpt>
      <trkpt lat="39.919982000" lon="-8.441017000">
        <ele>202.600000</ele>
        <time>2020-10-17T10:29:56Z</time>
      </trkpt>
      <trkpt lat="39.919978000" lon="-8.440990000">
        <ele>203.000000</ele>
        <time>2020-10-17T10:29:57Z</time>
      </trkpt>
      <trkpt lat="39.919975000" lon="-8.440970000">
        <ele>203.200000</ele>
        <time>2020-10-17T10:29:58Z</time>
      </trkpt>
      <trkpt lat="39.919974000" lon="-8.440948000">
        <ele>203.400000</ele>
        <time>2020-10-17T10:29:59Z</time>
      </trkpt>
      <trkpt lat="39.919972000" lon="-8.440923000">
        <ele>203.600000</ele>
        <time>2020-10-17T10:30:00Z</time>
      </trkpt>
      <trkpt lat="39.919971000" lon="-8.440904000">
        <ele>203.800000</ele>
        <time>2020-10-17T10:30:01Z</time>
      </trkpt>
      <trkpt lat="39.919969000" lon="-8.440883000">
        <ele>204.000000</ele>
        <time>2020-10-17T10:30:02Z</time>
      </trkpt>
      <trkpt lat="39.919967000" lon="-8.440863000">
        <ele>204.400000</ele>
        <time>2020-10-17T10:30:03Z</time>
      </trkpt>
      <trkpt lat="39.919965000" lon="-8.440841000">
        <ele>204.600000</ele>
        <time>2020-10-17T10:30:04Z</time>
      </trkpt>
      <trkpt lat="39.919963000" lon="-8.440818000">
        <ele>205.200000</ele>
        <time>2020-10-17T10:30:05Z</time>
      </trkpt>
      <trkpt lat="39.919963000" lon="-8.440794000">
        <ele>205.600000</ele>
        <time>2020-10-17T10:30:06Z</time>
      </trkpt>
      <trkpt lat="39.919959000" lon="-8.440771000">
        <ele>205.600000</ele>
        <time>2020-10-17T10:30:07Z</time>
      </trkpt>
      <trkpt lat="39.919953000" lon="-8.440753000">
        <ele>206.000000</ele>
        <time>2020-10-17T10:30:08Z</time>
      </trkpt>
      <trkpt lat="39.919949000" lon="-8.440742000">
        <ele>206.200000</ele>
        <time>2020-10-17T10:30:09Z</time>
      </trkpt>
      <trkpt lat="39.919947000" lon="-8.440734000">
        <ele>206.400000</ele>
        <time>2020-10-17T10:30:10Z</time>
      </trkpt>
      <trkpt lat="39.919943000" lon="-8.440719000">
        <ele>206.400000</ele>
        <time>2020-10-17T10:30:11Z</time>
      </trkpt>
      <trkpt lat="39.919935000" lon="-8.440711000">
        <ele>206.600000</ele>
        <time>2020-10-17T10:30:12Z</time>
      </trkpt>
      <trkpt lat="39.919920000" lon="-8.440701000">
        <ele>207.000000</ele>
        <time>2020-10-17T10:30:13Z</time>
      </trkpt>
      <trkpt lat="39.919903000" lon="-8.440689000">
        <ele>207.200000</ele>
        <time>2020-10-17T10:30:14Z</time>
      </trkpt>
      <trkpt lat="39.919886000" lon="-8.440679000">
        <ele>207.200000</ele>
        <time>2020-10-17T10:30:15Z</time>
      </trkpt>
      <trkpt lat="39.919865000" lon="-8.440670000">
        <ele>207.400000</ele>
        <time>2020-10-17T10:30:16Z</time>
      </trkpt>
      <trkpt lat="39.919845000" lon="-8.440664000">
        <ele>207.400000</ele>
        <time>2020-10-17T10:30:17Z</time>
      </trkpt>
      <trkpt lat="39.919824000" lon="-8.440662000">
        <ele>207.400000</ele>
        <time>2020-10-17T10:30:18Z</time>
      </trkpt>
      <trkpt lat="39.919805000" lon="-8.440663000">
        <ele>207.600000</ele>
        <time>2020-10-17T10:30:19Z</time>
      </trkpt>
      <trkpt lat="39.919790000" lon="-8.440666000">
        <ele>207.400000</ele>
        <time>2020-10-17T10:30:20Z</time>
      </trkpt>
      <trkpt lat="39.919776000" lon="-8.440672000">
        <ele>207.400000</ele>
        <time>2020-10-17T10:30:21Z</time>
      </trkpt>
      <trkpt lat="39.919764000" lon="-8.440680000">
        <ele>207.400000</ele>
        <time>2020-10-17T10:30:22Z</time>
      </trkpt>
      <trkpt lat="39.919749000" lon="-8.440689000">
        <ele>207.400000</ele>
        <time>2020-10-17T10:30:23Z</time>
      </trkpt>
      <trkpt lat="39.919733000" lon="-8.440699000">
        <ele>207.400000</ele>
        <time>2020-10-17T10:30:24Z</time>
      </trkpt>
      <trkpt lat="39.919711000" lon="-8.440709000">
        <ele>207.400000</ele>
        <time>2020-10-17T10:30:25Z</time>
      </trkpt>
      <trkpt lat="39.919685000" lon="-8.440713000">
        <ele>207.400000</ele>
        <time>2020-10-17T10:30:26Z</time>
      </trkpt>
      <trkpt lat="39.919655000" lon="-8.440716000">
        <ele>207.200000</ele>
        <time>2020-10-17T10:30:27Z</time>
      </trkpt>
      <trkpt lat="39.919590000" lon="-8.440721000">
        <ele>207.200000</ele>
        <time>2020-10-17T10:30:29Z</time>
      </trkpt>
      <trkpt lat="39.919409000" lon="-8.440745000">
        <ele>206.600000</ele>
        <time>2020-10-17T10:30:34Z</time>
      </trkpt>
      <trkpt lat="39.919373000" lon="-8.440742000">
        <ele>206.600000</ele>
        <time>2020-10-17T10:30:35Z</time>
      </trkpt>
      <trkpt lat="39.919334000" lon="-8.440735000">
        <ele>206.400000</ele>
        <time>2020-10-17T10:30:36Z</time>
      </trkpt>
      <trkpt lat="39.919260000" lon="-8.440707000">
        <ele>206.400000</ele>
        <time>2020-10-17T10:30:38Z</time>
      </trkpt>
      <trkpt lat="39.919237000" lon="-8.440689000">
        <ele>206.400000</ele>
        <time>2020-10-17T10:30:39Z</time>
      </trkpt>
      <trkpt lat="39.919222000" lon="-8.440670000">
        <ele>206.400000</ele>
        <time>2020-10-17T10:30:40Z</time>
      </trkpt>
      <trkpt lat="39.919210000" lon="-8.440655000">
        <ele>206.200000</ele>
        <time>2020-10-17T10:30:41Z</time>
      </trkpt>
      <trkpt lat="39.919201000" lon="-8.440645000">
        <ele>206.000000</ele>
        <time>2020-10-17T10:30:42Z</time>
      </trkpt>
      <trkpt lat="39.919193000" lon="-8.440638000">
        <ele>206.200000</ele>
        <time>2020-10-17T10:30:43Z</time>
      </trkpt>
      <trkpt lat="39.919184000" lon="-8.440635000">
        <ele>206.000000</ele>
        <time>2020-10-17T10:30:44Z</time>
      </trkpt>
      <trkpt lat="39.919176000" lon="-8.440634000">
        <ele>205.800000</ele>
        <time>2020-10-17T10:30:45Z</time>
      </trkpt>
      <trkpt lat="39.919170000" lon="-8.440632000">
        <ele>205.200000</ele>
        <time>2020-10-17T10:30:46Z</time>
      </trkpt>
      <trkpt lat="39.919164000" lon="-8.440631000">
        <ele>205.000000</ele>
        <time>2020-10-17T10:30:47Z</time>
      </trkpt>
      <trkpt lat="39.919160000" lon="-8.440632000">
        <ele>204.800000</ele>
        <time>2020-10-17T10:30:48Z</time>
      </trkpt>
      <trkpt lat="39.919158000" lon="-8.440633000">
        <ele>204.400000</ele>
        <time>2020-10-17T10:30:49Z</time>
      </trkpt>
      <trkpt lat="39.919088000" lon="-8.440644000">
        <ele>203.200000</ele>
        <time>2020-10-17T10:30:59Z</time>
      </trkpt>
      <trkpt lat="39.919061000" lon="-8.440640000">
        <ele>203.200000</ele>
        <time>2020-10-17T10:31:00Z</time>
      </trkpt>
      <trkpt lat="39.919032000" lon="-8.440626000">
        <ele>203.200000</ele>
        <time>2020-10-17T10:31:01Z</time>
      </trkpt>
      <trkpt lat="39.919001000" lon="-8.440601000">
        <ele>203.200000</ele>
        <time>2020-10-17T10:31:02Z</time>
      </trkpt>
      <trkpt lat="39.918974000" lon="-8.440562000">
        <ele>203.200000</ele>
        <time>2020-10-17T10:31:03Z</time>
      </trkpt>
      <trkpt lat="39.918954000" lon="-8.440513000">
        <ele>203.000000</ele>
        <time>2020-10-17T10:31:04Z</time>
      </trkpt>
      <trkpt lat="39.918944000" lon="-8.440457000">
        <ele>203.000000</ele>
        <time>2020-10-17T10:31:05Z</time>
      </trkpt>
      <trkpt lat="39.918947000" lon="-8.440348000">
        <ele>203.000000</ele>
        <time>2020-10-17T10:31:07Z</time>
      </trkpt>
      <trkpt lat="39.918958000" lon="-8.440303000">
        <ele>203.000000</ele>
        <time>2020-10-17T10:31:08Z</time>
      </trkpt>
      <trkpt lat="39.918973000" lon="-8.440262000">
        <ele>203.000000</ele>
        <time>2020-10-17T10:31:09Z</time>
      </trkpt>
      <trkpt lat="39.918989000" lon="-8.440222000">
        <ele>203.000000</ele>
        <time>2020-10-17T10:31:10Z</time>
      </trkpt>
      <trkpt lat="39.919005000" lon="-8.440183000">
        <ele>202.800000</ele>
        <time>2020-10-17T10:31:11Z</time>
      </trkpt>
      <trkpt lat="39.919063000" lon="-8.440009000">
        <ele>202.800000</ele>
        <time>2020-10-17T10:31:15Z</time>
      </trkpt>
      <trkpt lat="39.919092000" lon="-8.439919000">
        <ele>202.800000</ele>
        <time>2020-10-17T10:31:17Z</time>
      </trkpt>
      <trkpt lat="39.919156000" lon="-8.439737000">
        <ele>203.000000</ele>
        <time>2020-10-17T10:31:21Z</time>
      </trkpt>
      <trkpt lat="39.919190000" lon="-8.439646000">
        <ele>203.000000</ele>
        <time>2020-10-17T10:31:23Z</time>
      </trkpt>
      <trkpt lat="39.919207000" lon="-8.439599000">
        <ele>203.400000</ele>
        <time>2020-10-17T10:31:24Z</time>
      </trkpt>
      <trkpt lat="39.919223000" lon="-8.439554000">
        <ele>203.600000</ele>
        <time>2020-10-17T10:31:25Z</time>
      </trkpt>
      <trkpt lat="39.919254000" lon="-8.439459000">
        <ele>204.000000</ele>
        <time>2020-10-17T10:31:27Z</time>
      </trkpt>
      <trkpt lat="39.919259000" lon="-8.439411000">
        <ele>204.200000</ele>
        <time>2020-10-17T10:31:28Z</time>
      </trkpt>
      <trkpt lat="39.919246000" lon="-8.439369000">
        <ele>204.400000</ele>
        <time>2020-10-17T10:31:29Z</time>
      </trkpt>
      <trkpt lat="39.919219000" lon="-8.439335000">
        <ele>204.600000</ele>
        <time>2020-10-17T10:31:30Z</time>
      </trkpt>
      <trkpt lat="39.919177000" lon="-8.439309000">
        <ele>204.800000</ele>
        <time>2020-10-17T10:31:31Z</time>
      </trkpt>
      <trkpt lat="39.919120000" lon="-8.439289000">
        <ele>204.800000</ele>
        <time>2020-10-17T10:31:32Z</time>
      </trkpt>
      <trkpt lat="39.919047000" lon="-8.439269000">
        <ele>204.800000</ele>
        <time>2020-10-17T10:31:33Z</time>
      </trkpt>
      <trkpt lat="39.918971000" lon="-8.439248000">
        <ele>205.000000</ele>
        <time>2020-10-17T10:31:34Z</time>
      </trkpt>
      <trkpt lat="39.918805000" lon="-8.439196000">
        <ele>204.800000</ele>
        <time>2020-10-17T10:31:36Z</time>
      </trkpt>
      <trkpt lat="39.918710000" lon="-8.439168000">
        <ele>204.800000</ele>
        <time>2020-10-17T10:31:37Z</time>
      </trkpt>
      <trkpt lat="39.918608000" lon="-8.439147000">
        <ele>204.800000</ele>
        <time>2020-10-17T10:31:38Z</time>
      </trkpt>
      <trkpt lat="39.918508000" lon="-8.439134000">
        <ele>204.800000</ele>
        <time>2020-10-17T10:31:39Z</time>
      </trkpt>
      <trkpt lat="39.918199000" lon="-8.439147000">
        <ele>204.200000</ele>
        <time>2020-10-17T10:31:42Z</time>
      </trkpt>
      <trkpt lat="39.918093000" lon="-8.439165000">
        <ele>203.600000</ele>
        <time>2020-10-17T10:31:43Z</time>
      </trkpt>
      <trkpt lat="39.917986000" lon="-8.439187000">
        <ele>202.800000</ele>
        <time>2020-10-17T10:31:44Z</time>
      </trkpt>
      <trkpt lat="39.917881000" lon="-8.439211000">
        <ele>201.800000</ele>
        <time>2020-10-17T10:31:45Z</time>
      </trkpt>
      <trkpt lat="39.917783000" lon="-8.439232000">
        <ele>200.800000</ele>
        <time>2020-10-17T10:31:46Z</time>
      </trkpt>
      <trkpt lat="39.917691000" lon="-8.439241000">
        <ele>199.600000</ele>
        <time>2020-10-17T10:31:47Z</time>
      </trkpt>
      <trkpt lat="39.917615000" lon="-8.439225000">
        <ele>198.800000</ele>
        <time>2020-10-17T10:31:48Z</time>
      </trkpt>
      <trkpt lat="39.917552000" lon="-8.439184000">
        <ele>198.000000</ele>
        <time>2020-10-17T10:31:49Z</time>
      </trkpt>
      <trkpt lat="39.917507000" lon="-8.439126000">
        <ele>197.400000</ele>
        <time>2020-10-17T10:31:50Z</time>
      </trkpt>
      <trkpt lat="39.917481000" lon="-8.439056000">
        <ele>196.400000</ele>
        <time>2020-10-17T10:31:51Z</time>
      </trkpt>
      <trkpt lat="39.917468000" lon="-8.438978000">
        <ele>195.600000</ele>
        <time>2020-10-17T10:31:52Z</time>
      </trkpt>
      <trkpt lat="39.917462000" lon="-8.438899000">
        <ele>194.400000</ele>
        <time>2020-10-17T10:31:53Z</time>
      </trkpt>
      <trkpt lat="39.917461000" lon="-8.438815000">
        <ele>193.800000</ele>
        <time>2020-10-17T10:31:54Z</time>
      </trkpt>
      <trkpt lat="39.917459000" lon="-8.438731000">
        <ele>192.800000</ele>
        <time>2020-10-17T10:31:55Z</time>
      </trkpt>
      <trkpt lat="39.917447000" lon="-8.438394000">
        <ele>191.200000</ele>
        <time>2020-10-17T10:31:59Z</time>
      </trkpt>
      <trkpt lat="39.917449000" lon="-8.438308000">
        <ele>191.000000</ele>
        <time>2020-10-17T10:32:00Z</time>
      </trkpt>
      <trkpt lat="39.917449000" lon="-8.437956000">
        <ele>190.800000</ele>
        <time>2020-10-17T10:32:04Z</time>
      </trkpt>
      <trkpt lat="39.917450000" lon="-8.437870000">
        <ele>190.800000</ele>
        <time>2020-10-17T10:32:05Z</time>
      </trkpt>
      <trkpt lat="39.917451000" lon="-8.437787000">
        <ele>190.600000</ele>
        <time>2020-10-17T10:32:06Z</time>
      </trkpt>
      <trkpt lat="39.917454000" lon="-8.437706000">
        <ele>190.600000</ele>
        <time>2020-10-17T10:32:07Z</time>
      </trkpt>
      <trkpt lat="39.917459000" lon="-8.437628000">
        <ele>190.600000</ele>
        <time>2020-10-17T10:32:08Z</time>
      </trkpt>
      <trkpt lat="39.917465000" lon="-8.437552000">
        <ele>190.600000</ele>
        <time>2020-10-17T10:32:09Z</time>
      </trkpt>
      <trkpt lat="39.917472000" lon="-8.437481000">
        <ele>190.600000</ele>
        <time>2020-10-17T10:32:10Z</time>
      </trkpt>
      <trkpt lat="39.917491000" lon="-8.437257000">
        <ele>190.800000</ele>
        <time>2020-10-17T10:32:13Z</time>
      </trkpt>
      <trkpt lat="39.917532000" lon="-8.436955000">
        <ele>191.000000</ele>
        <time>2020-10-17T10:32:17Z</time>
      </trkpt>
      <trkpt lat="39.917546000" lon="-8.436888000">
        <ele>191.000000</ele>
        <time>2020-10-17T10:32:18Z</time>
      </trkpt>
      <trkpt lat="39.917562000" lon="-8.436826000">
        <ele>191.000000</ele>
        <time>2020-10-17T10:32:19Z</time>
      </trkpt>
      <trkpt lat="39.917575000" lon="-8.436773000">
        <ele>191.000000</ele>
        <time>2020-10-17T10:32:20Z</time>
      </trkpt>
      <trkpt lat="39.917587000" lon="-8.436731000">
        <ele>191.200000</ele>
        <time>2020-10-17T10:32:21Z</time>
      </trkpt>
      <trkpt lat="39.917598000" lon="-8.436698000">
        <ele>191.200000</ele>
        <time>2020-10-17T10:32:22Z</time>
      </trkpt>
      <trkpt lat="39.917604000" lon="-8.436665000">
        <ele>191.200000</ele>
        <time>2020-10-17T10:32:23Z</time>
      </trkpt>
      <trkpt lat="39.917601000" lon="-8.436628000">
        <ele>191.200000</ele>
        <time>2020-10-17T10:32:24Z</time>
      </trkpt>
      <trkpt lat="39.917587000" lon="-8.436592000">
        <ele>191.000000</ele>
        <time>2020-10-17T10:32:25Z</time>
      </trkpt>
      <trkpt lat="39.917573000" lon="-8.436559000">
        <ele>191.000000</ele>
        <time>2020-10-17T10:32:26Z</time>
      </trkpt>
      <trkpt lat="39.917558000" lon="-8.436538000">
        <ele>191.200000</ele>
        <time>2020-10-17T10:32:27Z</time>
      </trkpt>
      <trkpt lat="39.917497000" lon="-8.436501000">
        <ele>190.600000</ele>
        <time>2020-10-17T10:32:29Z</time>
      </trkpt>
      <trkpt lat="39.917379000" lon="-8.436470000">
        <ele>190.000000</ele>
        <time>2020-10-17T10:32:30Z</time>
      </trkpt>
      <trkpt lat="39.917329000" lon="-8.436451000">
        <ele>189.200000</ele>
        <time>2020-10-17T10:32:31Z</time>
      </trkpt>
      <trkpt lat="39.917277000" lon="-8.436429000">
        <ele>188.800000</ele>
        <time>2020-10-17T10:32:32Z</time>
      </trkpt>
      <trkpt lat="39.917144000" lon="-8.436375000">
        <ele>187.800000</ele>
        <time>2020-10-17T10:32:35Z</time>
      </trkpt>
      <trkpt lat="39.916924000" lon="-8.436309000">
        <ele>187.200000</ele>
        <time>2020-10-17T10:32:38Z</time>
      </trkpt>
      <trkpt lat="39.916849000" lon="-8.436298000">
        <ele>187.000000</ele>
        <time>2020-10-17T10:32:39Z</time>
      </trkpt>
      <trkpt lat="39.916783000" lon="-8.436289000">
        <ele>187.000000</ele>
        <time>2020-10-17T10:32:40Z</time>
      </trkpt>
      <trkpt lat="39.916646000" lon="-8.436267000">
        <ele>186.800000</ele>
        <time>2020-10-17T10:32:42Z</time>
      </trkpt>
      <trkpt lat="39.916505000" lon="-8.436240000">
        <ele>186.800000</ele>
        <time>2020-10-17T10:32:44Z</time>
      </trkpt>
      <trkpt lat="39.916013000" lon="-8.436137000">
        <ele>185.400000</ele>
        <time>2020-10-17T10:32:51Z</time>
      </trkpt>
      <trkpt lat="39.915880000" lon="-8.436117000">
        <ele>185.200000</ele>
        <time>2020-10-17T10:32:53Z</time>
      </trkpt>
      <trkpt lat="39.915818000" lon="-8.436109000">
        <ele>185.200000</ele>
        <time>2020-10-17T10:32:54Z</time>
      </trkpt>
      <trkpt lat="39.915758000" lon="-8.436095000">
        <ele>185.000000</ele>
        <time>2020-10-17T10:32:55Z</time>
      </trkpt>
      <trkpt lat="39.915699000" lon="-8.436082000">
        <ele>184.600000</ele>
        <time>2020-10-17T10:32:56Z</time>
      </trkpt>
      <trkpt lat="39.915639000" lon="-8.436067000">
        <ele>184.800000</ele>
        <time>2020-10-17T10:32:57Z</time>
      </trkpt>
      <trkpt lat="39.915579000" lon="-8.436054000">
        <ele>184.600000</ele>
        <time>2020-10-17T10:32:58Z</time>
      </trkpt>
      <trkpt lat="39.915528000" lon="-8.436030000">
        <ele>184.600000</ele>
        <time>2020-10-17T10:32:59Z</time>
      </trkpt>
      <trkpt lat="39.915474000" lon="-8.436016000">
        <ele>184.200000</ele>
        <time>2020-10-17T10:33:00Z</time>
      </trkpt>
      <trkpt lat="39.915421000" lon="-8.436024000">
        <ele>184.200000</ele>
        <time>2020-10-17T10:33:01Z</time>
      </trkpt>
      <trkpt lat="39.915369000" lon="-8.436025000">
        <ele>184.000000</ele>
        <time>2020-10-17T10:33:02Z</time>
      </trkpt>
      <trkpt lat="39.915321000" lon="-8.436025000">
        <ele>184.200000</ele>
        <time>2020-10-17T10:33:03Z</time>
      </trkpt>
      <trkpt lat="39.915112000" lon="-8.435972000">
        <ele>184.200000</ele>
        <time>2020-10-17T10:33:07Z</time>
      </trkpt>
      <trkpt lat="39.915070000" lon="-8.435954000">
        <ele>184.000000</ele>
        <time>2020-10-17T10:33:08Z</time>
      </trkpt>
      <trkpt lat="39.915031000" lon="-8.435935000">
        <ele>184.000000</ele>
        <time>2020-10-17T10:33:09Z</time>
      </trkpt>
      <trkpt lat="39.914990000" lon="-8.435920000">
        <ele>184.000000</ele>
        <time>2020-10-17T10:33:10Z</time>
      </trkpt>
      <trkpt lat="39.914945000" lon="-8.435903000">
        <ele>184.000000</ele>
        <time>2020-10-17T10:33:11Z</time>
      </trkpt>
      <trkpt lat="39.914897000" lon="-8.435881000">
        <ele>184.000000</ele>
        <time>2020-10-17T10:33:12Z</time>
      </trkpt>
      <trkpt lat="39.914846000" lon="-8.435864000">
        <ele>184.000000</ele>
        <time>2020-10-17T10:33:13Z</time>
      </trkpt>
      <trkpt lat="39.914738000" lon="-8.435854000">
        <ele>183.800000</ele>
        <time>2020-10-17T10:33:15Z</time>
      </trkpt>
      <trkpt lat="39.914689000" lon="-8.435856000">
        <ele>184.000000</ele>
        <time>2020-10-17T10:33:16Z</time>
      </trkpt>
      <trkpt lat="39.914644000" lon="-8.435856000">
        <ele>184.000000</ele>
        <time>2020-10-17T10:33:17Z</time>
      </trkpt>
      <trkpt lat="39.914608000" lon="-8.435852000">
        <ele>184.000000</ele>
        <time>2020-10-17T10:33:18Z</time>
      </trkpt>
      <trkpt lat="39.914576000" lon="-8.435848000">
        <ele>184.000000</ele>
        <time>2020-10-17T10:33:19Z</time>
      </trkpt>
      <trkpt lat="39.914548000" lon="-8.435842000">
        <ele>184.000000</ele>
        <time>2020-10-17T10:33:20Z</time>
      </trkpt>
      <trkpt lat="39.914524000" lon="-8.435837000">
        <ele>184.000000</ele>
        <time>2020-10-17T10:33:21Z</time>
      </trkpt>
      <trkpt lat="39.914501000" lon="-8.435833000">
        <ele>183.800000</ele>
        <time>2020-10-17T10:33:22Z</time>
      </trkpt>
      <trkpt lat="39.914476000" lon="-8.435827000">
        <ele>183.800000</ele>
        <time>2020-10-17T10:33:23Z</time>
      </trkpt>
      <trkpt lat="39.914454000" lon="-8.435819000">
        <ele>183.800000</ele>
        <time>2020-10-17T10:33:24Z</time>
      </trkpt>
      <trkpt lat="39.914430000" lon="-8.435809000">
        <ele>183.800000</ele>
        <time>2020-10-17T10:33:25Z</time>
      </trkpt>
      <trkpt lat="39.914405000" lon="-8.435797000">
        <ele>183.600000</ele>
        <time>2020-10-17T10:33:26Z</time>
      </trkpt>
      <trkpt lat="39.914348000" lon="-8.435767000">
        <ele>183.600000</ele>
        <time>2020-10-17T10:33:28Z</time>
      </trkpt>
      <trkpt lat="39.914316000" lon="-8.435753000">
        <ele>183.600000</ele>
        <time>2020-10-17T10:33:29Z</time>
      </trkpt>
      <trkpt lat="39.914249000" lon="-8.435732000">
        <ele>183.600000</ele>
        <time>2020-10-17T10:33:31Z</time>
      </trkpt>
      <trkpt lat="39.914180000" lon="-8.435711000">
        <ele>183.600000</ele>
        <time>2020-10-17T10:33:33Z</time>
      </trkpt>
      <trkpt lat="39.913995000" lon="-8.435668000">
        <ele>184.400000</ele>
        <time>2020-10-17T10:33:38Z</time>
      </trkpt>
      <trkpt lat="39.913956000" lon="-8.435665000">
        <ele>184.400000</ele>
        <time>2020-10-17T10:33:39Z</time>
      </trkpt>
      <trkpt lat="39.913877000" lon="-8.435654000">
        <ele>184.600000</ele>
        <time>2020-10-17T10:33:41Z</time>
      </trkpt>
      <trkpt lat="39.913838000" lon="-8.435645000">
        <ele>184.400000</ele>
        <time>2020-10-17T10:33:42Z</time>
      </trkpt>
      <trkpt lat="39.913657000" lon="-8.435579000">
        <ele>184.800000</ele>
        <time>2020-10-17T10:33:46Z</time>
      </trkpt>
      <trkpt lat="39.913569000" lon="-8.435557000">
        <ele>184.800000</ele>
        <time>2020-10-17T10:33:48Z</time>
      </trkpt>
      <trkpt lat="39.913378000" lon="-8.435541000">
        <ele>184.800000</ele>
        <time>2020-10-17T10:33:52Z</time>
      </trkpt>
      <trkpt lat="39.913330000" lon="-8.435528000">
        <ele>185.000000</ele>
        <time>2020-10-17T10:33:53Z</time>
      </trkpt>
      <trkpt lat="39.913287000" lon="-8.435513000">
        <ele>185.400000</ele>
        <time>2020-10-17T10:33:54Z</time>
      </trkpt>
      <trkpt lat="39.913241000" lon="-8.435498000">
        <ele>185.400000</ele>
        <time>2020-10-17T10:33:55Z</time>
      </trkpt>
      <trkpt lat="39.913147000" lon="-8.435445000">
        <ele>185.600000</ele>
        <time>2020-10-17T10:33:57Z</time>
      </trkpt>
      <trkpt lat="39.913006000" lon="-8.435377000">
        <ele>185.800000</ele>
        <time>2020-10-17T10:34:00Z</time>
      </trkpt>
      <trkpt lat="39.912911000" lon="-8.435367000">
        <ele>186.000000</ele>
        <time>2020-10-17T10:34:02Z</time>
      </trkpt>
      <trkpt lat="39.912866000" lon="-8.435381000">
        <ele>186.000000</ele>
        <time>2020-10-17T10:34:03Z</time>
      </trkpt>
      <trkpt lat="39.912824000" lon="-8.435399000">
        <ele>186.000000</ele>
        <time>2020-10-17T10:34:04Z</time>
      </trkpt>
      <trkpt lat="39.912783000" lon="-8.435420000">
        <ele>186.200000</ele>
        <time>2020-10-17T10:34:05Z</time>
      </trkpt>
      <trkpt lat="39.912744000" lon="-8.435440000">
        <ele>186.200000</ele>
        <time>2020-10-17T10:34:06Z</time>
      </trkpt>
      <trkpt lat="39.912704000" lon="-8.435461000">
        <ele>186.400000</ele>
        <time>2020-10-17T10:34:07Z</time>
      </trkpt>
      <trkpt lat="39.912665000" lon="-8.435480000">
        <ele>186.600000</ele>
        <time>2020-10-17T10:34:08Z</time>
      </trkpt>
      <trkpt lat="39.912627000" lon="-8.435501000">
        <ele>186.600000</ele>
        <time>2020-10-17T10:34:09Z</time>
      </trkpt>
      <trkpt lat="39.912588000" lon="-8.435523000">
        <ele>186.600000</ele>
        <time>2020-10-17T10:34:10Z</time>
      </trkpt>
      <trkpt lat="39.912547000" lon="-8.435547000">
        <ele>187.000000</ele>
        <time>2020-10-17T10:34:11Z</time>
      </trkpt>
      <trkpt lat="39.912508000" lon="-8.435566000">
        <ele>187.200000</ele>
        <time>2020-10-17T10:34:12Z</time>
      </trkpt>
      <trkpt lat="39.912468000" lon="-8.435585000">
        <ele>187.200000</ele>
        <time>2020-10-17T10:34:13Z</time>
      </trkpt>
      <trkpt lat="39.912428000" lon="-8.435603000">
        <ele>187.600000</ele>
        <time>2020-10-17T10:34:14Z</time>
      </trkpt>
      <trkpt lat="39.912389000" lon="-8.435618000">
        <ele>187.800000</ele>
        <time>2020-10-17T10:34:15Z</time>
      </trkpt>
      <trkpt lat="39.912349000" lon="-8.435632000">
        <ele>188.200000</ele>
        <time>2020-10-17T10:34:16Z</time>
      </trkpt>
      <trkpt lat="39.912310000" lon="-8.435649000">
        <ele>188.600000</ele>
        <time>2020-10-17T10:34:17Z</time>
      </trkpt>
      <trkpt lat="39.912271000" lon="-8.435668000">
        <ele>188.600000</ele>
        <time>2020-10-17T10:34:18Z</time>
      </trkpt>
      <trkpt lat="39.912233000" lon="-8.435687000">
        <ele>189.000000</ele>
        <time>2020-10-17T10:34:19Z</time>
      </trkpt>
      <trkpt lat="39.912196000" lon="-8.435705000">
        <ele>189.400000</ele>
        <time>2020-10-17T10:34:20Z</time>
      </trkpt>
      <trkpt lat="39.912156000" lon="-8.435721000">
        <ele>189.600000</ele>
        <time>2020-10-17T10:34:21Z</time>
      </trkpt>
      <trkpt lat="39.912115000" lon="-8.435736000">
        <ele>189.800000</ele>
        <time>2020-10-17T10:34:22Z</time>
      </trkpt>
      <trkpt lat="39.912078000" lon="-8.435756000">
        <ele>190.200000</ele>
        <time>2020-10-17T10:34:23Z</time>
      </trkpt>
      <trkpt lat="39.912042000" lon="-8.435779000">
        <ele>190.600000</ele>
        <time>2020-10-17T10:34:24Z</time>
      </trkpt>
      <trkpt lat="39.912005000" lon="-8.435799000">
        <ele>190.800000</ele>
        <time>2020-10-17T10:34:25Z</time>
      </trkpt>
      <trkpt lat="39.911968000" lon="-8.435816000">
        <ele>191.200000</ele>
        <time>2020-10-17T10:34:26Z</time>
      </trkpt>
      <trkpt lat="39.911930000" lon="-8.435828000">
        <ele>191.600000</ele>
        <time>2020-10-17T10:34:27Z</time>
      </trkpt>
      <trkpt lat="39.911897000" lon="-8.435839000">
        <ele>191.800000</ele>
        <time>2020-10-17T10:34:28Z</time>
      </trkpt>
      <trkpt lat="39.911866000" lon="-8.435852000">
        <ele>192.200000</ele>
        <time>2020-10-17T10:34:29Z</time>
      </trkpt>
      <trkpt lat="39.911838000" lon="-8.435864000">
        <ele>192.200000</ele>
        <time>2020-10-17T10:34:30Z</time>
      </trkpt>
      <trkpt lat="39.911807000" lon="-8.435876000">
        <ele>192.600000</ele>
        <time>2020-10-17T10:34:31Z</time>
      </trkpt>
      <trkpt lat="39.911776000" lon="-8.435885000">
        <ele>192.600000</ele>
        <time>2020-10-17T10:34:32Z</time>
      </trkpt>
      <trkpt lat="39.911748000" lon="-8.435894000">
        <ele>192.800000</ele>
        <time>2020-10-17T10:34:33Z</time>
      </trkpt>
      <trkpt lat="39.911719000" lon="-8.435902000">
        <ele>193.400000</ele>
        <time>2020-10-17T10:34:34Z</time>
      </trkpt>
      <trkpt lat="39.911687000" lon="-8.435908000">
        <ele>193.400000</ele>
        <time>2020-10-17T10:34:35Z</time>
      </trkpt>
      <trkpt lat="39.911659000" lon="-8.435910000">
        <ele>193.800000</ele>
        <time>2020-10-17T10:34:36Z</time>
      </trkpt>
      <trkpt lat="39.911630000" lon="-8.435909000">
        <ele>194.000000</ele>
        <time>2020-10-17T10:34:37Z</time>
      </trkpt>
      <trkpt lat="39.911597000" lon="-8.435902000">
        <ele>194.200000</ele>
        <time>2020-10-17T10:34:38Z</time>
      </trkpt>
      <trkpt lat="39.911560000" lon="-8.435889000">
        <ele>194.600000</ele>
        <time>2020-10-17T10:34:39Z</time>
      </trkpt>
      <trkpt lat="39.911526000" lon="-8.435874000">
        <ele>194.800000</ele>
        <time>2020-10-17T10:34:40Z</time>
      </trkpt>
      <trkpt lat="39.911492000" lon="-8.435857000">
        <ele>195.000000</ele>
        <time>2020-10-17T10:34:41Z</time>
      </trkpt>
      <trkpt lat="39.911457000" lon="-8.435838000">
        <ele>195.000000</ele>
        <time>2020-10-17T10:34:42Z</time>
      </trkpt>
      <trkpt lat="39.911428000" lon="-8.435815000">
        <ele>195.400000</ele>
        <time>2020-10-17T10:34:43Z</time>
      </trkpt>
      <trkpt lat="39.911399000" lon="-8.435789000">
        <ele>195.600000</ele>
        <time>2020-10-17T10:34:44Z</time>
      </trkpt>
      <trkpt lat="39.911372000" lon="-8.435762000">
        <ele>195.800000</ele>
        <time>2020-10-17T10:34:45Z</time>
      </trkpt>
      <trkpt lat="39.911349000" lon="-8.435730000">
        <ele>196.000000</ele>
        <time>2020-10-17T10:34:46Z</time>
      </trkpt>
      <trkpt lat="39.911333000" lon="-8.435695000">
        <ele>196.000000</ele>
        <time>2020-10-17T10:34:47Z</time>
      </trkpt>
      <trkpt lat="39.911324000" lon="-8.435654000">
        <ele>196.400000</ele>
        <time>2020-10-17T10:34:48Z</time>
      </trkpt>
      <trkpt lat="39.911315000" lon="-8.435609000">
        <ele>196.600000</ele>
        <time>2020-10-17T10:34:49Z</time>
      </trkpt>
      <trkpt lat="39.911304000" lon="-8.435564000">
        <ele>196.800000</ele>
        <time>2020-10-17T10:34:50Z</time>
      </trkpt>
      <trkpt lat="39.911292000" lon="-8.435520000">
        <ele>196.800000</ele>
        <time>2020-10-17T10:34:51Z</time>
      </trkpt>
      <trkpt lat="39.911283000" lon="-8.435473000">
        <ele>197.000000</ele>
        <time>2020-10-17T10:34:52Z</time>
      </trkpt>
      <trkpt lat="39.911265000" lon="-8.435437000">
        <ele>197.000000</ele>
        <time>2020-10-17T10:34:53Z</time>
      </trkpt>
      <trkpt lat="39.911237000" lon="-8.435408000">
        <ele>197.000000</ele>
        <time>2020-10-17T10:34:54Z</time>
      </trkpt>
      <trkpt lat="39.911209000" lon="-8.435393000">
        <ele>197.400000</ele>
        <time>2020-10-17T10:34:55Z</time>
      </trkpt>
      <trkpt lat="39.911178000" lon="-8.435390000">
        <ele>197.600000</ele>
        <time>2020-10-17T10:34:56Z</time>
      </trkpt>
      <trkpt lat="39.911145000" lon="-8.435391000">
        <ele>197.800000</ele>
        <time>2020-10-17T10:34:57Z</time>
      </trkpt>
      <trkpt lat="39.911110000" lon="-8.435394000">
        <ele>197.800000</ele>
        <time>2020-10-17T10:34:58Z</time>
      </trkpt>
      <trkpt lat="39.911077000" lon="-8.435396000">
        <ele>198.000000</ele>
        <time>2020-10-17T10:34:59Z</time>
      </trkpt>
      <trkpt lat="39.911043000" lon="-8.435399000">
        <ele>198.000000</ele>
        <time>2020-10-17T10:35:00Z</time>
      </trkpt>
      <trkpt lat="39.911011000" lon="-8.435405000">
        <ele>198.000000</ele>
        <time>2020-10-17T10:35:01Z</time>
      </trkpt>
      <trkpt lat="39.910976000" lon="-8.435411000">
        <ele>198.000000</ele>
        <time>2020-10-17T10:35:02Z</time>
      </trkpt>
      <trkpt lat="39.910942000" lon="-8.435418000">
        <ele>198.000000</ele>
        <time>2020-10-17T10:35:03Z</time>
      </trkpt>
      <trkpt lat="39.910909000" lon="-8.435425000">
        <ele>198.200000</ele>
        <time>2020-10-17T10:35:04Z</time>
      </trkpt>
      <trkpt lat="39.910876000" lon="-8.435432000">
        <ele>198.400000</ele>
        <time>2020-10-17T10:35:05Z</time>
      </trkpt>
      <trkpt lat="39.910842000" lon="-8.435438000">
        <ele>198.600000</ele>
        <time>2020-10-17T10:35:06Z</time>
      </trkpt>
      <trkpt lat="39.910811000" lon="-8.435444000">
        <ele>199.000000</ele>
        <time>2020-10-17T10:35:07Z</time>
      </trkpt>
      <trkpt lat="39.910780000" lon="-8.435451000">
        <ele>199.200000</ele>
        <time>2020-10-17T10:35:08Z</time>
      </trkpt>
      <trkpt lat="39.910747000" lon="-8.435459000">
        <ele>199.200000</ele>
        <time>2020-10-17T10:35:09Z</time>
      </trkpt>
      <trkpt lat="39.910717000" lon="-8.435464000">
        <ele>199.600000</ele>
        <time>2020-10-17T10:35:10Z</time>
      </trkpt>
      <trkpt lat="39.910687000" lon="-8.435471000">
        <ele>199.800000</ele>
        <time>2020-10-17T10:35:11Z</time>
      </trkpt>
      <trkpt lat="39.910656000" lon="-8.435481000">
        <ele>200.000000</ele>
        <time>2020-10-17T10:35:12Z</time>
      </trkpt>
      <trkpt lat="39.910626000" lon="-8.435491000">
        <ele>200.200000</ele>
        <time>2020-10-17T10:35:13Z</time>
      </trkpt>
      <trkpt lat="39.910596000" lon="-8.435498000">
        <ele>200.200000</ele>
        <time>2020-10-17T10:35:14Z</time>
      </trkpt>
      <trkpt lat="39.910566000" lon="-8.435504000">
        <ele>200.400000</ele>
        <time>2020-10-17T10:35:15Z</time>
      </trkpt>
      <trkpt lat="39.910533000" lon="-8.435508000">
        <ele>200.600000</ele>
        <time>2020-10-17T10:35:16Z</time>
      </trkpt>
      <trkpt lat="39.910501000" lon="-8.435509000">
        <ele>201.000000</ele>
        <time>2020-10-17T10:35:17Z</time>
      </trkpt>
      <trkpt lat="39.910468000" lon="-8.435510000">
        <ele>201.200000</ele>
        <time>2020-10-17T10:35:18Z</time>
      </trkpt>
      <trkpt lat="39.910435000" lon="-8.435508000">
        <ele>201.600000</ele>
        <time>2020-10-17T10:35:19Z</time>
      </trkpt>
      <trkpt lat="39.910404000" lon="-8.435505000">
        <ele>201.800000</ele>
        <time>2020-10-17T10:35:20Z</time>
      </trkpt>
      <trkpt lat="39.910373000" lon="-8.435505000">
        <ele>202.200000</ele>
        <time>2020-10-17T10:35:21Z</time>
      </trkpt>
      <trkpt lat="39.910339000" lon="-8.435502000">
        <ele>202.200000</ele>
        <time>2020-10-17T10:35:22Z</time>
      </trkpt>
      <trkpt lat="39.910304000" lon="-8.435498000">
        <ele>202.600000</ele>
        <time>2020-10-17T10:35:23Z</time>
      </trkpt>
      <trkpt lat="39.910270000" lon="-8.435495000">
        <ele>202.800000</ele>
        <time>2020-10-17T10:35:24Z</time>
      </trkpt>
      <trkpt lat="39.910232000" lon="-8.435488000">
        <ele>203.200000</ele>
        <time>2020-10-17T10:35:25Z</time>
      </trkpt>
      <trkpt lat="39.910199000" lon="-8.435486000">
        <ele>203.200000</ele>
        <time>2020-10-17T10:35:26Z</time>
      </trkpt>
      <trkpt lat="39.910167000" lon="-8.435484000">
        <ele>203.800000</ele>
        <time>2020-10-17T10:35:27Z</time>
      </trkpt>
      <trkpt lat="39.910132000" lon="-8.435485000">
        <ele>203.800000</ele>
        <time>2020-10-17T10:35:28Z</time>
      </trkpt>
      <trkpt lat="39.910097000" lon="-8.435484000">
        <ele>204.200000</ele>
        <time>2020-10-17T10:35:29Z</time>
      </trkpt>
      <trkpt lat="39.910061000" lon="-8.435481000">
        <ele>204.600000</ele>
        <time>2020-10-17T10:35:30Z</time>
      </trkpt>
      <trkpt lat="39.910025000" lon="-8.435478000">
        <ele>204.800000</ele>
        <time>2020-10-17T10:35:31Z</time>
      </trkpt>
      <trkpt lat="39.909986000" lon="-8.435476000">
        <ele>205.200000</ele>
        <time>2020-10-17T10:35:32Z</time>
      </trkpt>
      <trkpt lat="39.909947000" lon="-8.435479000">
        <ele>205.400000</ele>
        <time>2020-10-17T10:35:33Z</time>
      </trkpt>
      <trkpt lat="39.909910000" lon="-8.435487000">
        <ele>205.600000</ele>
        <time>2020-10-17T10:35:34Z</time>
      </trkpt>
      <trkpt lat="39.909867000" lon="-8.435469000">
        <ele>205.800000</ele>
        <time>2020-10-17T10:35:35Z</time>
      </trkpt>
      <trkpt lat="39.909827000" lon="-8.435461000">
        <ele>205.800000</ele>
        <time>2020-10-17T10:35:36Z</time>
      </trkpt>
      <trkpt lat="39.909789000" lon="-8.435454000">
        <ele>206.000000</ele>
        <time>2020-10-17T10:35:37Z</time>
      </trkpt>
      <trkpt lat="39.909752000" lon="-8.435450000">
        <ele>206.200000</ele>
        <time>2020-10-17T10:35:38Z</time>
      </trkpt>
      <trkpt lat="39.909707000" lon="-8.435431000">
        <ele>206.400000</ele>
        <time>2020-10-17T10:35:39Z</time>
      </trkpt>
      <trkpt lat="39.909662000" lon="-8.435411000">
        <ele>206.600000</ele>
        <time>2020-10-17T10:35:40Z</time>
      </trkpt>
      <trkpt lat="39.909615000" lon="-8.435396000">
        <ele>206.800000</ele>
        <time>2020-10-17T10:35:41Z</time>
      </trkpt>
      <trkpt lat="39.909564000" lon="-8.435384000">
        <ele>206.800000</ele>
        <time>2020-10-17T10:35:42Z</time>
      </trkpt>
      <trkpt lat="39.909513000" lon="-8.435372000">
        <ele>207.000000</ele>
        <time>2020-10-17T10:35:43Z</time>
      </trkpt>
      <trkpt lat="39.909467000" lon="-8.435367000">
        <ele>207.000000</ele>
        <time>2020-10-17T10:35:44Z</time>
      </trkpt>
      <trkpt lat="39.909423000" lon="-8.435365000">
        <ele>207.000000</ele>
        <time>2020-10-17T10:35:45Z</time>
      </trkpt>
      <trkpt lat="39.909387000" lon="-8.435351000">
        <ele>207.200000</ele>
        <time>2020-10-17T10:35:46Z</time>
      </trkpt>
      <trkpt lat="39.909352000" lon="-8.435328000">
        <ele>207.400000</ele>
        <time>2020-10-17T10:35:47Z</time>
      </trkpt>
      <trkpt lat="39.909317000" lon="-8.435297000">
        <ele>207.400000</ele>
        <time>2020-10-17T10:35:48Z</time>
      </trkpt>
      <trkpt lat="39.909283000" lon="-8.435256000">
        <ele>207.200000</ele>
        <time>2020-10-17T10:35:49Z</time>
      </trkpt>
      <trkpt lat="39.909244000" lon="-8.435216000">
        <ele>207.400000</ele>
        <time>2020-10-17T10:35:50Z</time>
      </trkpt>
      <trkpt lat="39.909207000" lon="-8.435177000">
        <ele>207.600000</ele>
        <time>2020-10-17T10:35:51Z</time>
      </trkpt>
      <trkpt lat="39.909171000" lon="-8.435140000">
        <ele>207.800000</ele>
        <time>2020-10-17T10:35:52Z</time>
      </trkpt>
      <trkpt lat="39.909137000" lon="-8.435104000">
        <ele>207.800000</ele>
        <time>2020-10-17T10:35:53Z</time>
      </trkpt>
      <trkpt lat="39.909103000" lon="-8.435074000">
        <ele>207.800000</ele>
        <time>2020-10-17T10:35:54Z</time>
      </trkpt>
      <trkpt lat="39.909068000" lon="-8.435047000">
        <ele>208.000000</ele>
        <time>2020-10-17T10:35:55Z</time>
      </trkpt>
      <trkpt lat="39.909030000" lon="-8.435022000">
        <ele>208.000000</ele>
        <time>2020-10-17T10:35:56Z</time>
      </trkpt>
      <trkpt lat="39.908992000" lon="-8.435000000">
        <ele>208.000000</ele>
        <time>2020-10-17T10:35:57Z</time>
      </trkpt>
      <trkpt lat="39.908956000" lon="-8.434981000">
        <ele>208.000000</ele>
        <time>2020-10-17T10:35:58Z</time>
      </trkpt>
      <trkpt lat="39.908917000" lon="-8.434963000">
        <ele>208.200000</ele>
        <time>2020-10-17T10:35:59Z</time>
      </trkpt>
      <trkpt lat="39.908876000" lon="-8.434943000">
        <ele>208.400000</ele>
        <time>2020-10-17T10:36:00Z</time>
      </trkpt>
      <trkpt lat="39.908835000" lon="-8.434922000">
        <ele>208.800000</ele>
        <time>2020-10-17T10:36:01Z</time>
      </trkpt>
      <trkpt lat="39.908795000" lon="-8.434898000">
        <ele>209.000000</ele>
        <time>2020-10-17T10:36:02Z</time>
      </trkpt>
      <trkpt lat="39.908756000" lon="-8.434877000">
        <ele>209.000000</ele>
        <time>2020-10-17T10:36:03Z</time>
      </trkpt>
      <trkpt lat="39.908716000" lon="-8.434855000">
        <ele>209.400000</ele>
        <time>2020-10-17T10:36:04Z</time>
      </trkpt>
      <trkpt lat="39.908676000" lon="-8.434828000">
        <ele>209.400000</ele>
        <time>2020-10-17T10:36:05Z</time>
      </trkpt>
      <trkpt lat="39.908635000" lon="-8.434798000">
        <ele>209.600000</ele>
        <time>2020-10-17T10:36:06Z</time>
      </trkpt>
      <trkpt lat="39.908595000" lon="-8.434777000">
        <ele>209.600000</ele>
        <time>2020-10-17T10:36:07Z</time>
      </trkpt>
      <trkpt lat="39.908556000" lon="-8.434755000">
        <ele>209.800000</ele>
        <time>2020-10-17T10:36:08Z</time>
      </trkpt>
      <trkpt lat="39.908519000" lon="-8.434730000">
        <ele>210.200000</ele>
        <time>2020-10-17T10:36:09Z</time>
      </trkpt>
      <trkpt lat="39.908481000" lon="-8.434704000">
        <ele>210.400000</ele>
        <time>2020-10-17T10:36:10Z</time>
      </trkpt>
      <trkpt lat="39.908442000" lon="-8.434675000">
        <ele>210.400000</ele>
        <time>2020-10-17T10:36:11Z</time>
      </trkpt>
      <trkpt lat="39.908396000" lon="-8.434620000">
        <ele>210.600000</ele>
        <time>2020-10-17T10:36:12Z</time>
      </trkpt>
      <trkpt lat="39.908356000" lon="-8.434591000">
        <ele>210.800000</ele>
        <time>2020-10-17T10:36:13Z</time>
      </trkpt>
      <trkpt lat="39.908318000" lon="-8.434563000">
        <ele>211.000000</ele>
        <time>2020-10-17T10:36:14Z</time>
      </trkpt>
      <trkpt lat="39.908281000" lon="-8.434536000">
        <ele>211.200000</ele>
        <time>2020-10-17T10:36:15Z</time>
      </trkpt>
      <trkpt lat="39.908239000" lon="-8.434501000">
        <ele>211.600000</ele>
        <time>2020-10-17T10:36:16Z</time>
      </trkpt>
      <trkpt lat="39.908195000" lon="-8.434463000">
        <ele>211.800000</ele>
        <time>2020-10-17T10:36:17Z</time>
      </trkpt>
      <trkpt lat="39.908153000" lon="-8.434436000">
        <ele>212.000000</ele>
        <time>2020-10-17T10:36:18Z</time>
      </trkpt>
      <trkpt lat="39.908113000" lon="-8.434404000">
        <ele>212.000000</ele>
        <time>2020-10-17T10:36:19Z</time>
      </trkpt>
      <trkpt lat="39.908072000" lon="-8.434376000">
        <ele>212.200000</ele>
        <time>2020-10-17T10:36:20Z</time>
      </trkpt>
      <trkpt lat="39.908028000" lon="-8.434356000">
        <ele>212.400000</ele>
        <time>2020-10-17T10:36:21Z</time>
      </trkpt>
      <trkpt lat="39.907986000" lon="-8.434346000">
        <ele>212.600000</ele>
        <time>2020-10-17T10:36:22Z</time>
      </trkpt>
      <trkpt lat="39.907942000" lon="-8.434345000">
        <ele>212.600000</ele>
        <time>2020-10-17T10:36:23Z</time>
      </trkpt>
      <trkpt lat="39.907899000" lon="-8.434341000">
        <ele>212.800000</ele>
        <time>2020-10-17T10:36:24Z</time>
      </trkpt>
      <trkpt lat="39.907854000" lon="-8.434340000">
        <ele>213.000000</ele>
        <time>2020-10-17T10:36:25Z</time>
      </trkpt>
      <trkpt lat="39.907812000" lon="-8.434334000">
        <ele>213.000000</ele>
        <time>2020-10-17T10:36:26Z</time>
      </trkpt>
      <trkpt lat="39.907767000" lon="-8.434332000">
        <ele>213.200000</ele>
        <time>2020-10-17T10:36:27Z</time>
      </trkpt>
      <trkpt lat="39.907718000" lon="-8.434338000">
        <ele>213.400000</ele>
        <time>2020-10-17T10:36:28Z</time>
      </trkpt>
      <trkpt lat="39.907674000" lon="-8.434348000">
        <ele>213.600000</ele>
        <time>2020-10-17T10:36:29Z</time>
      </trkpt>
      <trkpt lat="39.907629000" lon="-8.434353000">
        <ele>213.800000</ele>
        <time>2020-10-17T10:36:30Z</time>
      </trkpt>
      <trkpt lat="39.907582000" lon="-8.434355000">
        <ele>213.800000</ele>
        <time>2020-10-17T10:36:31Z</time>
      </trkpt>
      <trkpt lat="39.907535000" lon="-8.434355000">
        <ele>214.000000</ele>
        <time>2020-10-17T10:36:32Z</time>
      </trkpt>
      <trkpt lat="39.907487000" lon="-8.434353000">
        <ele>214.200000</ele>
        <time>2020-10-17T10:36:33Z</time>
      </trkpt>
      <trkpt lat="39.907441000" lon="-8.434356000">
        <ele>214.200000</ele>
        <time>2020-10-17T10:36:34Z</time>
      </trkpt>
      <trkpt lat="39.907397000" lon="-8.434361000">
        <ele>214.600000</ele>
        <time>2020-10-17T10:36:35Z</time>
      </trkpt>
      <trkpt lat="39.907355000" lon="-8.434371000">
        <ele>214.800000</ele>
        <time>2020-10-17T10:36:36Z</time>
      </trkpt>
      <trkpt lat="39.907310000" lon="-8.434379000">
        <ele>214.800000</ele>
        <time>2020-10-17T10:36:37Z</time>
      </trkpt>
      <trkpt lat="39.907266000" lon="-8.434384000">
        <ele>215.200000</ele>
        <time>2020-10-17T10:36:38Z</time>
      </trkpt>
      <trkpt lat="39.907224000" lon="-8.434386000">
        <ele>215.200000</ele>
        <time>2020-10-17T10:36:39Z</time>
      </trkpt>
      <trkpt lat="39.907182000" lon="-8.434386000">
        <ele>215.200000</ele>
        <time>2020-10-17T10:36:40Z</time>
      </trkpt>
      <trkpt lat="39.907143000" lon="-8.434387000">
        <ele>215.200000</ele>
        <time>2020-10-17T10:36:41Z</time>
      </trkpt>
      <trkpt lat="39.907105000" lon="-8.434384000">
        <ele>215.600000</ele>
        <time>2020-10-17T10:36:42Z</time>
      </trkpt>
      <trkpt lat="39.907064000" lon="-8.434372000">
        <ele>215.400000</ele>
        <time>2020-10-17T10:36:43Z</time>
      </trkpt>
      <trkpt lat="39.907012000" lon="-8.434364000">
        <ele>215.800000</ele>
        <time>2020-10-17T10:36:44Z</time>
      </trkpt>
      <trkpt lat="39.906950000" lon="-8.434358000">
        <ele>215.800000</ele>
        <time>2020-10-17T10:36:45Z</time>
      </trkpt>
      <trkpt lat="39.906883000" lon="-8.434352000">
        <ele>216.200000</ele>
        <time>2020-10-17T10:36:46Z</time>
      </trkpt>
      <trkpt lat="39.906810000" lon="-8.434345000">
        <ele>216.000000</ele>
        <time>2020-10-17T10:36:47Z</time>
      </trkpt>
      <trkpt lat="39.906729000" lon="-8.434335000">
        <ele>216.200000</ele>
        <time>2020-10-17T10:36:48Z</time>
      </trkpt>
      <trkpt lat="39.906648000" lon="-8.434321000">
        <ele>216.200000</ele>
        <time>2020-10-17T10:36:49Z</time>
      </trkpt>
      <trkpt lat="39.906562000" lon="-8.434303000">
        <ele>216.000000</ele>
        <time>2020-10-17T10:36:50Z</time>
      </trkpt>
      <trkpt lat="39.906393000" lon="-8.434275000">
        <ele>216.000000</ele>
        <time>2020-10-17T10:36:52Z</time>
      </trkpt>
      <trkpt lat="39.906311000" lon="-8.434262000">
        <ele>216.000000</ele>
        <time>2020-10-17T10:36:53Z</time>
      </trkpt>
      <trkpt lat="39.906237000" lon="-8.434247000">
        <ele>216.000000</ele>
        <time>2020-10-17T10:36:54Z</time>
      </trkpt>
      <trkpt lat="39.906165000" lon="-8.434229000">
        <ele>216.200000</ele>
        <time>2020-10-17T10:36:55Z</time>
      </trkpt>
      <trkpt lat="39.906096000" lon="-8.434211000">
        <ele>215.800000</ele>
        <time>2020-10-17T10:36:56Z</time>
      </trkpt>
      <trkpt lat="39.906028000" lon="-8.434191000">
        <ele>215.400000</ele>
        <time>2020-10-17T10:36:57Z</time>
      </trkpt>
      <trkpt lat="39.905963000" lon="-8.434173000">
        <ele>215.200000</ele>
        <time>2020-10-17T10:36:58Z</time>
      </trkpt>
      <trkpt lat="39.905901000" lon="-8.434156000">
        <ele>215.200000</ele>
        <time>2020-10-17T10:36:59Z</time>
      </trkpt>
      <trkpt lat="39.905842000" lon="-8.434141000">
        <ele>215.000000</ele>
        <time>2020-10-17T10:37:00Z</time>
      </trkpt>
      <trkpt lat="39.905787000" lon="-8.434128000">
        <ele>214.800000</ele>
        <time>2020-10-17T10:37:01Z</time>
      </trkpt>
      <trkpt lat="39.905735000" lon="-8.434115000">
        <ele>214.800000</ele>
        <time>2020-10-17T10:37:02Z</time>
      </trkpt>
      <trkpt lat="39.905684000" lon="-8.434099000">
        <ele>215.000000</ele>
        <time>2020-10-17T10:37:03Z</time>
      </trkpt>
      <trkpt lat="39.905633000" lon="-8.434080000">
        <ele>215.000000</ele>
        <time>2020-10-17T10:37:04Z</time>
      </trkpt>
      <trkpt lat="39.905584000" lon="-8.434062000">
        <ele>215.000000</ele>
        <time>2020-10-17T10:37:05Z</time>
      </trkpt>
      <trkpt lat="39.905537000" lon="-8.434043000">
        <ele>215.000000</ele>
        <time>2020-10-17T10:37:06Z</time>
      </trkpt>
      <trkpt lat="39.905494000" lon="-8.434023000">
        <ele>215.000000</ele>
        <time>2020-10-17T10:37:07Z</time>
      </trkpt>
      <trkpt lat="39.905455000" lon="-8.434003000">
        <ele>215.200000</ele>
        <time>2020-10-17T10:37:08Z</time>
      </trkpt>
      <trkpt lat="39.905419000" lon="-8.433983000">
        <ele>215.000000</ele>
        <time>2020-10-17T10:37:09Z</time>
      </trkpt>
      <trkpt lat="39.905382000" lon="-8.433964000">
        <ele>215.400000</ele>
        <time>2020-10-17T10:37:10Z</time>
      </trkpt>
      <trkpt lat="39.905348000" lon="-8.433943000">
        <ele>215.600000</ele>
        <time>2020-10-17T10:37:11Z</time>
      </trkpt>
      <trkpt lat="39.905314000" lon="-8.433923000">
        <ele>215.800000</ele>
        <time>2020-10-17T10:37:12Z</time>
      </trkpt>
      <trkpt lat="39.905281000" lon="-8.433902000">
        <ele>216.000000</ele>
        <time>2020-10-17T10:37:13Z</time>
      </trkpt>
      <trkpt lat="39.905250000" lon="-8.433881000">
        <ele>216.400000</ele>
        <time>2020-10-17T10:37:14Z</time>
      </trkpt>
      <trkpt lat="39.905220000" lon="-8.433859000">
        <ele>216.800000</ele>
        <time>2020-10-17T10:37:15Z</time>
      </trkpt>
      <trkpt lat="39.905192000" lon="-8.433836000">
        <ele>217.200000</ele>
        <time>2020-10-17T10:37:16Z</time>
      </trkpt>
      <trkpt lat="39.905165000" lon="-8.433807000">
        <ele>217.400000</ele>
        <time>2020-10-17T10:37:17Z</time>
      </trkpt>
      <trkpt lat="39.905138000" lon="-8.433778000">
        <ele>217.600000</ele>
        <time>2020-10-17T10:37:18Z</time>
      </trkpt>
      <trkpt lat="39.905111000" lon="-8.433753000">
        <ele>217.800000</ele>
        <time>2020-10-17T10:37:19Z</time>
      </trkpt>
      <trkpt lat="39.905088000" lon="-8.433722000">
        <ele>218.200000</ele>
        <time>2020-10-17T10:37:20Z</time>
      </trkpt>
      <trkpt lat="39.905064000" lon="-8.433691000">
        <ele>218.400000</ele>
        <time>2020-10-17T10:37:21Z</time>
      </trkpt>
      <trkpt lat="39.905038000" lon="-8.433659000">
        <ele>218.800000</ele>
        <time>2020-10-17T10:37:22Z</time>
      </trkpt>
      <trkpt lat="39.905011000" lon="-8.433629000">
        <ele>218.800000</ele>
        <time>2020-10-17T10:37:23Z</time>
      </trkpt>
      <trkpt lat="39.904983000" lon="-8.433596000">
        <ele>219.000000</ele>
        <time>2020-10-17T10:37:24Z</time>
      </trkpt>
      <trkpt lat="39.904956000" lon="-8.433564000">
        <ele>219.200000</ele>
        <time>2020-10-17T10:37:25Z</time>
      </trkpt>
      <trkpt lat="39.904927000" lon="-8.433535000">
        <ele>219.600000</ele>
        <time>2020-10-17T10:37:26Z</time>
      </trkpt>
      <trkpt lat="39.904896000" lon="-8.433512000">
        <ele>220.000000</ele>
        <time>2020-10-17T10:37:27Z</time>
      </trkpt>
      <trkpt lat="39.904864000" lon="-8.433493000">
        <ele>220.200000</ele>
        <time>2020-10-17T10:37:28Z</time>
      </trkpt>
      <trkpt lat="39.904833000" lon="-8.433478000">
        <ele>220.400000</ele>
        <time>2020-10-17T10:37:29Z</time>
      </trkpt>
      <trkpt lat="39.904800000" lon="-8.433463000">
        <ele>220.800000</ele>
        <time>2020-10-17T10:37:30Z</time>
      </trkpt>
      <trkpt lat="39.904766000" lon="-8.433447000">
        <ele>221.200000</ele>
        <time>2020-10-17T10:37:31Z</time>
      </trkpt>
      <trkpt lat="39.904735000" lon="-8.433429000">
        <ele>221.200000</ele>
        <time>2020-10-17T10:37:32Z</time>
      </trkpt>
      <trkpt lat="39.904704000" lon="-8.433409000">
        <ele>221.400000</ele>
        <time>2020-10-17T10:37:33Z</time>
      </trkpt>
      <trkpt lat="39.904678000" lon="-8.433386000">
        <ele>221.400000</ele>
        <time>2020-10-17T10:37:34Z</time>
      </trkpt>
      <trkpt lat="39.904657000" lon="-8.433361000">
        <ele>221.600000</ele>
        <time>2020-10-17T10:37:35Z</time>
      </trkpt>
      <trkpt lat="39.904645000" lon="-8.433331000">
        <ele>221.600000</ele>
        <time>2020-10-17T10:37:36Z</time>
      </trkpt>
      <trkpt lat="39.904635000" lon="-8.433303000">
        <ele>221.800000</ele>
        <time>2020-10-17T10:37:37Z</time>
      </trkpt>
      <trkpt lat="39.904629000" lon="-8.433275000">
        <ele>222.000000</ele>
        <time>2020-10-17T10:37:38Z</time>
      </trkpt>
      <trkpt lat="39.904622000" lon="-8.433248000">
        <ele>222.200000</ele>
        <time>2020-10-17T10:37:39Z</time>
      </trkpt>
      <trkpt lat="39.904613000" lon="-8.433220000">
        <ele>222.200000</ele>
        <time>2020-10-17T10:37:40Z</time>
      </trkpt>
      <trkpt lat="39.904603000" lon="-8.433191000">
        <ele>222.200000</ele>
        <time>2020-10-17T10:37:41Z</time>
      </trkpt>
      <trkpt lat="39.904594000" lon="-8.433161000">
        <ele>222.400000</ele>
        <time>2020-10-17T10:37:42Z</time>
      </trkpt>
      <trkpt lat="39.904583000" lon="-8.433132000">
        <ele>222.800000</ele>
        <time>2020-10-17T10:37:43Z</time>
      </trkpt>
      <trkpt lat="39.904576000" lon="-8.433103000">
        <ele>223.000000</ele>
        <time>2020-10-17T10:37:44Z</time>
      </trkpt>
      <trkpt lat="39.904566000" lon="-8.433076000">
        <ele>223.000000</ele>
        <time>2020-10-17T10:37:45Z</time>
      </trkpt>
      <trkpt lat="39.904560000" lon="-8.433051000">
        <ele>223.000000</ele>
        <time>2020-10-17T10:37:46Z</time>
      </trkpt>
      <trkpt lat="39.904554000" lon="-8.433024000">
        <ele>223.400000</ele>
        <time>2020-10-17T10:37:47Z</time>
      </trkpt>
      <trkpt lat="39.904547000" lon="-8.432997000">
        <ele>223.600000</ele>
        <time>2020-10-17T10:37:48Z</time>
      </trkpt>
      <trkpt lat="39.904539000" lon="-8.432971000">
        <ele>224.000000</ele>
        <time>2020-10-17T10:37:49Z</time>
      </trkpt>
      <trkpt lat="39.904528000" lon="-8.432947000">
        <ele>224.400000</ele>
        <time>2020-10-17T10:37:50Z</time>
      </trkpt>
      <trkpt lat="39.904518000" lon="-8.432922000">
        <ele>224.600000</ele>
        <time>2020-10-17T10:37:51Z</time>
      </trkpt>
      <trkpt lat="39.904508000" lon="-8.432896000">
        <ele>225.000000</ele>
        <time>2020-10-17T10:37:52Z</time>
      </trkpt>
      <trkpt lat="39.904500000" lon="-8.432868000">
        <ele>225.400000</ele>
        <time>2020-10-17T10:37:53Z</time>
      </trkpt>
      <trkpt lat="39.904491000" lon="-8.432842000">
        <ele>225.600000</ele>
        <time>2020-10-17T10:37:54Z</time>
      </trkpt>
      <trkpt lat="39.904483000" lon="-8.432817000">
        <ele>225.800000</ele>
        <time>2020-10-17T10:37:55Z</time>
      </trkpt>
      <trkpt lat="39.904476000" lon="-8.432791000">
        <ele>226.200000</ele>
        <time>2020-10-17T10:37:56Z</time>
      </trkpt>
      <trkpt lat="39.904468000" lon="-8.432764000">
        <ele>226.600000</ele>
        <time>2020-10-17T10:37:57Z</time>
      </trkpt>
      <trkpt lat="39.904462000" lon="-8.432735000">
        <ele>226.800000</ele>
        <time>2020-10-17T10:37:58Z</time>
      </trkpt>
      <trkpt lat="39.904455000" lon="-8.432707000">
        <ele>227.200000</ele>
        <time>2020-10-17T10:37:59Z</time>
      </trkpt>
      <trkpt lat="39.904447000" lon="-8.432681000">
        <ele>227.400000</ele>
        <time>2020-10-17T10:38:00Z</time>
      </trkpt>
      <trkpt lat="39.904441000" lon="-8.432657000">
        <ele>227.800000</ele>
        <time>2020-10-17T10:38:01Z</time>
      </trkpt>
      <trkpt lat="39.904434000" lon="-8.432632000">
        <ele>228.000000</ele>
        <time>2020-10-17T10:38:02Z</time>
      </trkpt>
      <trkpt lat="39.904424000" lon="-8.432605000">
        <ele>228.200000</ele>
        <time>2020-10-17T10:38:03Z</time>
      </trkpt>
      <trkpt lat="39.904416000" lon="-8.432577000">
        <ele>228.400000</ele>
        <time>2020-10-17T10:38:04Z</time>
      </trkpt>
      <trkpt lat="39.904410000" lon="-8.432550000">
        <ele>228.800000</ele>
        <time>2020-10-17T10:38:05Z</time>
      </trkpt>
      <trkpt lat="39.904403000" lon="-8.432524000">
        <ele>228.800000</ele>
        <time>2020-10-17T10:38:06Z</time>
      </trkpt>
      <trkpt lat="39.904393000" lon="-8.432499000">
        <ele>228.800000</ele>
        <time>2020-10-17T10:38:07Z</time>
      </trkpt>
      <trkpt lat="39.904383000" lon="-8.432475000">
        <ele>229.200000</ele>
        <time>2020-10-17T10:38:08Z</time>
      </trkpt>
      <trkpt lat="39.904373000" lon="-8.432451000">
        <ele>229.600000</ele>
        <time>2020-10-17T10:38:09Z</time>
      </trkpt>
      <trkpt lat="39.904363000" lon="-8.432426000">
        <ele>229.800000</ele>
        <time>2020-10-17T10:38:10Z</time>
      </trkpt>
      <trkpt lat="39.904352000" lon="-8.432401000">
        <ele>230.200000</ele>
        <time>2020-10-17T10:38:11Z</time>
      </trkpt>
      <trkpt lat="39.904343000" lon="-8.432377000">
        <ele>230.200000</ele>
        <time>2020-10-17T10:38:12Z</time>
      </trkpt>
      <trkpt lat="39.904334000" lon="-8.432352000">
        <ele>230.600000</ele>
        <time>2020-10-17T10:38:13Z</time>
      </trkpt>
      <trkpt lat="39.904325000" lon="-8.432326000">
        <ele>230.800000</ele>
        <time>2020-10-17T10:38:14Z</time>
      </trkpt>
      <trkpt lat="39.904317000" lon="-8.432300000">
        <ele>231.000000</ele>
        <time>2020-10-17T10:38:15Z</time>
      </trkpt>
      <trkpt lat="39.904308000" lon="-8.432274000">
        <ele>231.400000</ele>
        <time>2020-10-17T10:38:16Z</time>
      </trkpt>
      <trkpt lat="39.904299000" lon="-8.432247000">
        <ele>231.600000</ele>
        <time>2020-10-17T10:38:17Z</time>
      </trkpt>
      <trkpt lat="39.904290000" lon="-8.432221000">
        <ele>231.800000</ele>
        <time>2020-10-17T10:38:18Z</time>
      </trkpt>
      <trkpt lat="39.904277000" lon="-8.432197000">
        <ele>232.200000</ele>
        <time>2020-10-17T10:38:19Z</time>
      </trkpt>
      <trkpt lat="39.904264000" lon="-8.432172000">
        <ele>232.600000</ele>
        <time>2020-10-17T10:38:20Z</time>
      </trkpt>
      <trkpt lat="39.904251000" lon="-8.432146000">
        <ele>232.600000</ele>
        <time>2020-10-17T10:38:21Z</time>
      </trkpt>
      <trkpt lat="39.904236000" lon="-8.432121000">
        <ele>233.000000</ele>
        <time>2020-10-17T10:38:22Z</time>
      </trkpt>
      <trkpt lat="39.904221000" lon="-8.432096000">
        <ele>233.400000</ele>
        <time>2020-10-17T10:38:23Z</time>
      </trkpt>
      <trkpt lat="39.904205000" lon="-8.432075000">
        <ele>233.600000</ele>
        <time>2020-10-17T10:38:24Z</time>
      </trkpt>
      <trkpt lat="39.904189000" lon="-8.432060000">
        <ele>233.800000</ele>
        <time>2020-10-17T10:38:25Z</time>
      </trkpt>
      <trkpt lat="39.904174000" lon="-8.432054000">
        <ele>234.000000</ele>
        <time>2020-10-17T10:38:26Z</time>
      </trkpt>
      <trkpt lat="39.904160000" lon="-8.432048000">
        <ele>234.200000</ele>
        <time>2020-10-17T10:38:27Z</time>
      </trkpt>
      <trkpt lat="39.904147000" lon="-8.432042000">
        <ele>234.200000</ele>
        <time>2020-10-17T10:38:28Z</time>
      </trkpt>
      <trkpt lat="39.904135000" lon="-8.432037000">
        <ele>234.600000</ele>
        <time>2020-10-17T10:38:29Z</time>
      </trkpt>
      <trkpt lat="39.904124000" lon="-8.432033000">
        <ele>234.600000</ele>
        <time>2020-10-17T10:38:30Z</time>
      </trkpt>
      <trkpt lat="39.904117000" lon="-8.432029000">
        <ele>234.800000</ele>
        <time>2020-10-17T10:38:31Z</time>
      </trkpt>
      <trkpt lat="39.904106000" lon="-8.432029000">
        <ele>235.000000</ele>
        <time>2020-10-17T10:38:32Z</time>
      </trkpt>
      <trkpt lat="39.904095000" lon="-8.432028000">
        <ele>235.000000</ele>
        <time>2020-10-17T10:38:33Z</time>
      </trkpt>
      <trkpt lat="39.904082000" lon="-8.432028000">
        <ele>235.200000</ele>
        <time>2020-10-17T10:38:34Z</time>
      </trkpt>
      <trkpt lat="39.904070000" lon="-8.432033000">
        <ele>235.600000</ele>
        <time>2020-10-17T10:38:35Z</time>
      </trkpt>
      <trkpt lat="39.904057000" lon="-8.432035000">
        <ele>235.800000</ele>
        <time>2020-10-17T10:38:36Z</time>
      </trkpt>
      <trkpt lat="39.904043000" lon="-8.432037000">
        <ele>236.000000</ele>
        <time>2020-10-17T10:38:37Z</time>
      </trkpt>
      <trkpt lat="39.904029000" lon="-8.432039000">
        <ele>236.400000</ele>
        <time>2020-10-17T10:38:38Z</time>
      </trkpt>
      <trkpt lat="39.904017000" lon="-8.432038000">
        <ele>236.400000</ele>
        <time>2020-10-17T10:38:39Z</time>
      </trkpt>
      <trkpt lat="39.904003000" lon="-8.432035000">
        <ele>236.800000</ele>
        <time>2020-10-17T10:38:40Z</time>
      </trkpt>
      <trkpt lat="39.903989000" lon="-8.432033000">
        <ele>237.000000</ele>
        <time>2020-10-17T10:38:41Z</time>
      </trkpt>
      <trkpt lat="39.903975000" lon="-8.432032000">
        <ele>237.400000</ele>
        <time>2020-10-17T10:38:42Z</time>
      </trkpt>
      <trkpt lat="39.903962000" lon="-8.432031000">
        <ele>237.600000</ele>
        <time>2020-10-17T10:38:43Z</time>
      </trkpt>
      <trkpt lat="39.903949000" lon="-8.432030000">
        <ele>238.000000</ele>
        <time>2020-10-17T10:38:44Z</time>
      </trkpt>
      <trkpt lat="39.903935000" lon="-8.432028000">
        <ele>238.200000</ele>
        <time>2020-10-17T10:38:45Z</time>
      </trkpt>
      <trkpt lat="39.903920000" lon="-8.432024000">
        <ele>238.200000</ele>
        <time>2020-10-17T10:38:46Z</time>
      </trkpt>
      <trkpt lat="39.903904000" lon="-8.432020000">
        <ele>238.400000</ele>
        <time>2020-10-17T10:38:47Z</time>
      </trkpt>
      <trkpt lat="39.903891000" lon="-8.432019000">
        <ele>238.600000</ele>
        <time>2020-10-17T10:38:48Z</time>
      </trkpt>
      <trkpt lat="39.903878000" lon="-8.432019000">
        <ele>238.600000</ele>
        <time>2020-10-17T10:38:49Z</time>
      </trkpt>
      <trkpt lat="39.903866000" lon="-8.432015000">
        <ele>238.800000</ele>
        <time>2020-10-17T10:38:50Z</time>
      </trkpt>
      <trkpt lat="39.903854000" lon="-8.432010000">
        <ele>239.200000</ele>
        <time>2020-10-17T10:38:51Z</time>
      </trkpt>
      <trkpt lat="39.903843000" lon="-8.432007000">
        <ele>239.400000</ele>
        <time>2020-10-17T10:38:52Z</time>
      </trkpt>
      <trkpt lat="39.903831000" lon="-8.432007000">
        <ele>239.800000</ele>
        <time>2020-10-17T10:38:53Z</time>
      </trkpt>
      <trkpt lat="39.903817000" lon="-8.432008000">
        <ele>240.000000</ele>
        <time>2020-10-17T10:38:54Z</time>
      </trkpt>
      <trkpt lat="39.903804000" lon="-8.432008000">
        <ele>240.400000</ele>
        <time>2020-10-17T10:38:55Z</time>
      </trkpt>
      <trkpt lat="39.903790000" lon="-8.432007000">
        <ele>240.600000</ele>
        <time>2020-10-17T10:38:56Z</time>
      </trkpt>
      <trkpt lat="39.903777000" lon="-8.432002000">
        <ele>240.600000</ele>
        <time>2020-10-17T10:38:57Z</time>
      </trkpt>
      <trkpt lat="39.903766000" lon="-8.431999000">
        <ele>241.000000</ele>
        <time>2020-10-17T10:38:58Z</time>
      </trkpt>
      <trkpt lat="39.903754000" lon="-8.431996000">
        <ele>241.200000</ele>
        <time>2020-10-17T10:38:59Z</time>
      </trkpt>
      <trkpt lat="39.903742000" lon="-8.431992000">
        <ele>241.400000</ele>
        <time>2020-10-17T10:39:00Z</time>
      </trkpt>
      <trkpt lat="39.903731000" lon="-8.431988000">
        <ele>241.800000</ele>
        <time>2020-10-17T10:39:01Z</time>
      </trkpt>
      <trkpt lat="39.903718000" lon="-8.431985000">
        <ele>242.000000</ele>
        <time>2020-10-17T10:39:02Z</time>
      </trkpt>
      <trkpt lat="39.903705000" lon="-8.431982000">
        <ele>242.400000</ele>
        <time>2020-10-17T10:39:03Z</time>
      </trkpt>
      <trkpt lat="39.903692000" lon="-8.431978000">
        <ele>242.600000</ele>
        <time>2020-10-17T10:39:04Z</time>
      </trkpt>
      <trkpt lat="39.903678000" lon="-8.431973000">
        <ele>242.800000</ele>
        <time>2020-10-17T10:39:05Z</time>
      </trkpt>
      <trkpt lat="39.903665000" lon="-8.431965000">
        <ele>243.200000</ele>
        <time>2020-10-17T10:39:06Z</time>
      </trkpt>
      <trkpt lat="39.903649000" lon="-8.431958000">
        <ele>243.200000</ele>
        <time>2020-10-17T10:39:07Z</time>
      </trkpt>
      <trkpt lat="39.903632000" lon="-8.431948000">
        <ele>243.600000</ele>
        <time>2020-10-17T10:39:08Z</time>
      </trkpt>
      <trkpt lat="39.903611000" lon="-8.431938000">
        <ele>243.600000</ele>
        <time>2020-10-17T10:39:09Z</time>
      </trkpt>
      <trkpt lat="39.903589000" lon="-8.431930000">
        <ele>243.600000</ele>
        <time>2020-10-17T10:39:10Z</time>
      </trkpt>
      <trkpt lat="39.903570000" lon="-8.431923000">
        <ele>244.200000</ele>
        <time>2020-10-17T10:39:11Z</time>
      </trkpt>
      <trkpt lat="39.903551000" lon="-8.431914000">
        <ele>244.400000</ele>
        <time>2020-10-17T10:39:12Z</time>
      </trkpt>
      <trkpt lat="39.903532000" lon="-8.431902000">
        <ele>244.800000</ele>
        <time>2020-10-17T10:39:13Z</time>
      </trkpt>
      <trkpt lat="39.903511000" lon="-8.431887000">
        <ele>245.000000</ele>
        <time>2020-10-17T10:39:14Z</time>
      </trkpt>
      <trkpt lat="39.903485000" lon="-8.431869000">
        <ele>245.200000</ele>
        <time>2020-10-17T10:39:15Z</time>
      </trkpt>
      <trkpt lat="39.903460000" lon="-8.431849000">
        <ele>245.400000</ele>
        <time>2020-10-17T10:39:16Z</time>
      </trkpt>
      <trkpt lat="39.903432000" lon="-8.431827000">
        <ele>245.600000</ele>
        <time>2020-10-17T10:39:17Z</time>
      </trkpt>
      <trkpt lat="39.903404000" lon="-8.431804000">
        <ele>245.800000</ele>
        <time>2020-10-17T10:39:18Z</time>
      </trkpt>
      <trkpt lat="39.903374000" lon="-8.431783000">
        <ele>245.800000</ele>
        <time>2020-10-17T10:39:19Z</time>
      </trkpt>
      <trkpt lat="39.903342000" lon="-8.431762000">
        <ele>246.200000</ele>
        <time>2020-10-17T10:39:20Z</time>
      </trkpt>
      <trkpt lat="39.903309000" lon="-8.431746000">
        <ele>246.200000</ele>
        <time>2020-10-17T10:39:21Z</time>
      </trkpt>
      <trkpt lat="39.903276000" lon="-8.431734000">
        <ele>246.400000</ele>
        <time>2020-10-17T10:39:22Z</time>
      </trkpt>
      <trkpt lat="39.903242000" lon="-8.431721000">
        <ele>246.400000</ele>
        <time>2020-10-17T10:39:23Z</time>
      </trkpt>
      <trkpt lat="39.903207000" lon="-8.431704000">
        <ele>246.400000</ele>
        <time>2020-10-17T10:39:24Z</time>
      </trkpt>
      <trkpt lat="39.903171000" lon="-8.431686000">
        <ele>246.600000</ele>
        <time>2020-10-17T10:39:25Z</time>
      </trkpt>
      <trkpt lat="39.903134000" lon="-8.431666000">
        <ele>246.400000</ele>
        <time>2020-10-17T10:39:26Z</time>
      </trkpt>
      <trkpt lat="39.903091000" lon="-8.431647000">
        <ele>246.600000</ele>
        <time>2020-10-17T10:39:27Z</time>
      </trkpt>
      <trkpt lat="39.903053000" lon="-8.431629000">
        <ele>246.800000</ele>
        <time>2020-10-17T10:39:28Z</time>
      </trkpt>
      <trkpt lat="39.903011000" lon="-8.431606000">
        <ele>246.600000</ele>
        <time>2020-10-17T10:39:29Z</time>
      </trkpt>
      <trkpt lat="39.902970000" lon="-8.431584000">
        <ele>246.600000</ele>
        <time>2020-10-17T10:39:30Z</time>
      </trkpt>
      <trkpt lat="39.902936000" lon="-8.431564000">
        <ele>246.600000</ele>
        <time>2020-10-17T10:39:31Z</time>
      </trkpt>
      <trkpt lat="39.902899000" lon="-8.431544000">
        <ele>246.600000</ele>
        <time>2020-10-17T10:39:32Z</time>
      </trkpt>
      <trkpt lat="39.902862000" lon="-8.431519000">
        <ele>246.600000</ele>
        <time>2020-10-17T10:39:33Z</time>
      </trkpt>
      <trkpt lat="39.902829000" lon="-8.431499000">
        <ele>246.600000</ele>
        <time>2020-10-17T10:39:34Z</time>
      </trkpt>
      <trkpt lat="39.902798000" lon="-8.431480000">
        <ele>246.600000</ele>
        <time>2020-10-17T10:39:35Z</time>
      </trkpt>
      <trkpt lat="39.902768000" lon="-8.431455000">
        <ele>246.600000</ele>
        <time>2020-10-17T10:39:36Z</time>
      </trkpt>
      <trkpt lat="39.902740000" lon="-8.431439000">
        <ele>246.600000</ele>
        <time>2020-10-17T10:39:37Z</time>
      </trkpt>
      <trkpt lat="39.902716000" lon="-8.431425000">
        <ele>246.600000</ele>
        <time>2020-10-17T10:39:38Z</time>
      </trkpt>
      <trkpt lat="39.902695000" lon="-8.431408000">
        <ele>246.600000</ele>
        <time>2020-10-17T10:39:39Z</time>
      </trkpt>
      <trkpt lat="39.902676000" lon="-8.431389000">
        <ele>246.600000</ele>
        <time>2020-10-17T10:39:40Z</time>
      </trkpt>
      <trkpt lat="39.902655000" lon="-8.431376000">
        <ele>246.800000</ele>
        <time>2020-10-17T10:39:41Z</time>
      </trkpt>
      <trkpt lat="39.902635000" lon="-8.431363000">
        <ele>246.800000</ele>
        <time>2020-10-17T10:39:42Z</time>
      </trkpt>
      <trkpt lat="39.902618000" lon="-8.431350000">
        <ele>247.000000</ele>
        <time>2020-10-17T10:39:43Z</time>
      </trkpt>
      <trkpt lat="39.902599000" lon="-8.431336000">
        <ele>247.200000</ele>
        <time>2020-10-17T10:39:44Z</time>
      </trkpt>
      <trkpt lat="39.902582000" lon="-8.431320000">
        <ele>247.400000</ele>
        <time>2020-10-17T10:39:45Z</time>
      </trkpt>
      <trkpt lat="39.902565000" lon="-8.431297000">
        <ele>247.800000</ele>
        <time>2020-10-17T10:39:46Z</time>
      </trkpt>
      <trkpt lat="39.902546000" lon="-8.431283000">
        <ele>247.800000</ele>
        <time>2020-10-17T10:39:47Z</time>
      </trkpt>
      <trkpt lat="39.902528000" lon="-8.431273000">
        <ele>248.200000</ele>
        <time>2020-10-17T10:39:48Z</time>
      </trkpt>
      <trkpt lat="39.902510000" lon="-8.431263000">
        <ele>248.400000</ele>
        <time>2020-10-17T10:39:49Z</time>
      </trkpt>
      <trkpt lat="39.902494000" lon="-8.431251000">
        <ele>248.600000</ele>
        <time>2020-10-17T10:39:50Z</time>
      </trkpt>
      <trkpt lat="39.902476000" lon="-8.431228000">
        <ele>248.800000</ele>
        <time>2020-10-17T10:39:51Z</time>
      </trkpt>
      <trkpt lat="39.902459000" lon="-8.431211000">
        <ele>248.800000</ele>
        <time>2020-10-17T10:39:52Z</time>
      </trkpt>
      <trkpt lat="39.902444000" lon="-8.431199000">
        <ele>249.200000</ele>
        <time>2020-10-17T10:39:53Z</time>
      </trkpt>
      <trkpt lat="39.902431000" lon="-8.431188000">
        <ele>249.400000</ele>
        <time>2020-10-17T10:39:54Z</time>
      </trkpt>
      <trkpt lat="39.902416000" lon="-8.431177000">
        <ele>249.600000</ele>
        <time>2020-10-17T10:39:55Z</time>
      </trkpt>
      <trkpt lat="39.902400000" lon="-8.431165000">
        <ele>250.000000</ele>
        <time>2020-10-17T10:39:56Z</time>
      </trkpt>
      <trkpt lat="39.902383000" lon="-8.431148000">
        <ele>250.200000</ele>
        <time>2020-10-17T10:39:57Z</time>
      </trkpt>
      <trkpt lat="39.902369000" lon="-8.431134000">
        <ele>250.200000</ele>
        <time>2020-10-17T10:39:58Z</time>
      </trkpt>
      <trkpt lat="39.902355000" lon="-8.431121000">
        <ele>250.400000</ele>
        <time>2020-10-17T10:39:59Z</time>
      </trkpt>
      <trkpt lat="39.902342000" lon="-8.431108000">
        <ele>250.600000</ele>
        <time>2020-10-17T10:40:00Z</time>
      </trkpt>
      <trkpt lat="39.902327000" lon="-8.431096000">
        <ele>250.800000</ele>
        <time>2020-10-17T10:40:01Z</time>
      </trkpt>
      <trkpt lat="39.902309000" lon="-8.431086000">
        <ele>251.400000</ele>
        <time>2020-10-17T10:40:02Z</time>
      </trkpt>
      <trkpt lat="39.902292000" lon="-8.431076000">
        <ele>251.400000</ele>
        <time>2020-10-17T10:40:03Z</time>
      </trkpt>
      <trkpt lat="39.902276000" lon="-8.431069000">
        <ele>251.600000</ele>
        <time>2020-10-17T10:40:04Z</time>
      </trkpt>
      <trkpt lat="39.902258000" lon="-8.431060000">
        <ele>252.000000</ele>
        <time>2020-10-17T10:40:05Z</time>
      </trkpt>
      <trkpt lat="39.902242000" lon="-8.431054000">
        <ele>252.200000</ele>
        <time>2020-10-17T10:40:06Z</time>
      </trkpt>
      <trkpt lat="39.902230000" lon="-8.431044000">
        <ele>252.600000</ele>
        <time>2020-10-17T10:40:07Z</time>
      </trkpt>
      <trkpt lat="39.902219000" lon="-8.431031000">
        <ele>253.000000</ele>
        <time>2020-10-17T10:40:08Z</time>
      </trkpt>
      <trkpt lat="39.902207000" lon="-8.431018000">
        <ele>253.200000</ele>
        <time>2020-10-17T10:40:09Z</time>
      </trkpt>
      <trkpt lat="39.902195000" lon="-8.431000000">
        <ele>253.400000</ele>
        <time>2020-10-17T10:40:10Z</time>
      </trkpt>
      <trkpt lat="39.902184000" lon="-8.430981000">
        <ele>253.400000</ele>
        <time>2020-10-17T10:40:11Z</time>
      </trkpt>
      <trkpt lat="39.902172000" lon="-8.430965000">
        <ele>253.800000</ele>
        <time>2020-10-17T10:40:12Z</time>
      </trkpt>
      <trkpt lat="39.902158000" lon="-8.430942000">
        <ele>254.000000</ele>
        <time>2020-10-17T10:40:13Z</time>
      </trkpt>
      <trkpt lat="39.902148000" lon="-8.430916000">
        <ele>254.000000</ele>
        <time>2020-10-17T10:40:14Z</time>
      </trkpt>
      <trkpt lat="39.902136000" lon="-8.430884000">
        <ele>254.400000</ele>
        <time>2020-10-17T10:40:15Z</time>
      </trkpt>
      <trkpt lat="39.902128000" lon="-8.430849000">
        <ele>254.600000</ele>
        <time>2020-10-17T10:40:16Z</time>
      </trkpt>
      <trkpt lat="39.902130000" lon="-8.430817000">
        <ele>255.000000</ele>
        <time>2020-10-17T10:40:17Z</time>
      </trkpt>
      <trkpt lat="39.902137000" lon="-8.430785000">
        <ele>255.200000</ele>
        <time>2020-10-17T10:40:18Z</time>
      </trkpt>
      <trkpt lat="39.902150000" lon="-8.430758000">
        <ele>255.400000</ele>
        <time>2020-10-17T10:40:19Z</time>
      </trkpt>
      <trkpt lat="39.902163000" lon="-8.430736000">
        <ele>255.800000</ele>
        <time>2020-10-17T10:40:20Z</time>
      </trkpt>
      <trkpt lat="39.902179000" lon="-8.430715000">
        <ele>256.000000</ele>
        <time>2020-10-17T10:40:21Z</time>
      </trkpt>
      <trkpt lat="39.902195000" lon="-8.430694000">
        <ele>256.200000</ele>
        <time>2020-10-17T10:40:22Z</time>
      </trkpt>
      <trkpt lat="39.902212000" lon="-8.430667000">
        <ele>256.400000</ele>
        <time>2020-10-17T10:40:23Z</time>
      </trkpt>
      <trkpt lat="39.902232000" lon="-8.430637000">
        <ele>256.600000</ele>
        <time>2020-10-17T10:40:24Z</time>
      </trkpt>
      <trkpt lat="39.902251000" lon="-8.430605000">
        <ele>256.800000</ele>
        <time>2020-10-17T10:40:25Z</time>
      </trkpt>
      <trkpt lat="39.902268000" lon="-8.430567000">
        <ele>257.000000</ele>
        <time>2020-10-17T10:40:26Z</time>
      </trkpt>
      <trkpt lat="39.902284000" lon="-8.430527000">
        <ele>257.200000</ele>
        <time>2020-10-17T10:40:27Z</time>
      </trkpt>
      <trkpt lat="39.902298000" lon="-8.430485000">
        <ele>257.200000</ele>
        <time>2020-10-17T10:40:28Z</time>
      </trkpt>
      <trkpt lat="39.902310000" lon="-8.430441000">
        <ele>257.400000</ele>
        <time>2020-10-17T10:40:29Z</time>
      </trkpt>
      <trkpt lat="39.902321000" lon="-8.430392000">
        <ele>257.400000</ele>
        <time>2020-10-17T10:40:30Z</time>
      </trkpt>
      <trkpt lat="39.902333000" lon="-8.430342000">
        <ele>257.400000</ele>
        <time>2020-10-17T10:40:31Z</time>
      </trkpt>
      <trkpt lat="39.902346000" lon="-8.430290000">
        <ele>257.600000</ele>
        <time>2020-10-17T10:40:32Z</time>
      </trkpt>
      <trkpt lat="39.902360000" lon="-8.430236000">
        <ele>257.600000</ele>
        <time>2020-10-17T10:40:33Z</time>
      </trkpt>
      <trkpt lat="39.902376000" lon="-8.430182000">
        <ele>257.600000</ele>
        <time>2020-10-17T10:40:34Z</time>
      </trkpt>
      <trkpt lat="39.902393000" lon="-8.430128000">
        <ele>257.600000</ele>
        <time>2020-10-17T10:40:35Z</time>
      </trkpt>
      <trkpt lat="39.902410000" lon="-8.430075000">
        <ele>257.600000</ele>
        <time>2020-10-17T10:40:36Z</time>
      </trkpt>
      <trkpt lat="39.902429000" lon="-8.430025000">
        <ele>257.600000</ele>
        <time>2020-10-17T10:40:37Z</time>
      </trkpt>
      <trkpt lat="39.902450000" lon="-8.429975000">
        <ele>257.800000</ele>
        <time>2020-10-17T10:40:38Z</time>
      </trkpt>
      <trkpt lat="39.902472000" lon="-8.429932000">
        <ele>257.600000</ele>
        <time>2020-10-17T10:40:39Z</time>
      </trkpt>
      <trkpt lat="39.902497000" lon="-8.429885000">
        <ele>257.800000</ele>
        <time>2020-10-17T10:40:40Z</time>
      </trkpt>
      <trkpt lat="39.902550000" lon="-8.429788000">
        <ele>257.800000</ele>
        <time>2020-10-17T10:40:42Z</time>
      </trkpt>
      <trkpt lat="39.902569000" lon="-8.429738000">
        <ele>257.800000</ele>
        <time>2020-10-17T10:40:43Z</time>
      </trkpt>
      <trkpt lat="39.902581000" lon="-8.429690000">
        <ele>257.800000</ele>
        <time>2020-10-17T10:40:44Z</time>
      </trkpt>
      <trkpt lat="39.902585000" lon="-8.429641000">
        <ele>257.800000</ele>
        <time>2020-10-17T10:40:45Z</time>
      </trkpt>
      <trkpt lat="39.902591000" lon="-8.429591000">
        <ele>257.800000</ele>
        <time>2020-10-17T10:40:46Z</time>
      </trkpt>
      <trkpt lat="39.902597000" lon="-8.429539000">
        <ele>258.000000</ele>
        <time>2020-10-17T10:40:47Z</time>
      </trkpt>
      <trkpt lat="39.902615000" lon="-8.429422000">
        <ele>257.800000</ele>
        <time>2020-10-17T10:40:49Z</time>
      </trkpt>
      <trkpt lat="39.902630000" lon="-8.429366000">
        <ele>257.800000</ele>
        <time>2020-10-17T10:40:50Z</time>
      </trkpt>
      <trkpt lat="39.902649000" lon="-8.429313000">
        <ele>257.800000</ele>
        <time>2020-10-17T10:40:51Z</time>
      </trkpt>
      <trkpt lat="39.902665000" lon="-8.429262000">
        <ele>257.800000</ele>
        <time>2020-10-17T10:40:52Z</time>
      </trkpt>
      <trkpt lat="39.902679000" lon="-8.429212000">
        <ele>257.800000</ele>
        <time>2020-10-17T10:40:53Z</time>
      </trkpt>
      <trkpt lat="39.902700000" lon="-8.429157000">
        <ele>257.800000</ele>
        <time>2020-10-17T10:40:54Z</time>
      </trkpt>
      <trkpt lat="39.902750000" lon="-8.429051000">
        <ele>257.600000</ele>
        <time>2020-10-17T10:40:56Z</time>
      </trkpt>
      <trkpt lat="39.902778000" lon="-8.429003000">
        <ele>257.600000</ele>
        <time>2020-10-17T10:40:57Z</time>
      </trkpt>
      <trkpt lat="39.902844000" lon="-8.428915000">
        <ele>257.200000</ele>
        <time>2020-10-17T10:40:59Z</time>
      </trkpt>
      <trkpt lat="39.902875000" lon="-8.428874000">
        <ele>257.000000</ele>
        <time>2020-10-17T10:41:00Z</time>
      </trkpt>
      <trkpt lat="39.902904000" lon="-8.428831000">
        <ele>256.600000</ele>
        <time>2020-10-17T10:41:01Z</time>
      </trkpt>
      <trkpt lat="39.902929000" lon="-8.428785000">
        <ele>256.200000</ele>
        <time>2020-10-17T10:41:02Z</time>
      </trkpt>
      <trkpt lat="39.902943000" lon="-8.428739000">
        <ele>256.000000</ele>
        <time>2020-10-17T10:41:03Z</time>
      </trkpt>
      <trkpt lat="39.902952000" lon="-8.428694000">
        <ele>256.000000</ele>
        <time>2020-10-17T10:41:04Z</time>
      </trkpt>
      <trkpt lat="39.902962000" lon="-8.428652000">
        <ele>255.800000</ele>
        <time>2020-10-17T10:41:05Z</time>
      </trkpt>
      <trkpt lat="39.902974000" lon="-8.428610000">
        <ele>255.600000</ele>
        <time>2020-10-17T10:41:06Z</time>
      </trkpt>
      <trkpt lat="39.903011000" lon="-8.428458000">
        <ele>254.800000</ele>
        <time>2020-10-17T10:41:09Z</time>
      </trkpt>
      <trkpt lat="39.903042000" lon="-8.428279000">
        <ele>254.400000</ele>
        <time>2020-10-17T10:41:12Z</time>
      </trkpt>
      <trkpt lat="39.903044000" lon="-8.428219000">
        <ele>254.200000</ele>
        <time>2020-10-17T10:41:13Z</time>
      </trkpt>
      <trkpt lat="39.903049000" lon="-8.428161000">
        <ele>253.800000</ele>
        <time>2020-10-17T10:41:14Z</time>
      </trkpt>
      <trkpt lat="39.903056000" lon="-8.428102000">
        <ele>253.000000</ele>
        <time>2020-10-17T10:41:15Z</time>
      </trkpt>
      <trkpt lat="39.903069000" lon="-8.427984000">
        <ele>252.400000</ele>
        <time>2020-10-17T10:41:17Z</time>
      </trkpt>
      <trkpt lat="39.903075000" lon="-8.427932000">
        <ele>252.400000</ele>
        <time>2020-10-17T10:41:18Z</time>
      </trkpt>
      <trkpt lat="39.903082000" lon="-8.427889000">
        <ele>252.400000</ele>
        <time>2020-10-17T10:41:19Z</time>
      </trkpt>
      <trkpt lat="39.903086000" lon="-8.427851000">
        <ele>252.200000</ele>
        <time>2020-10-17T10:41:20Z</time>
      </trkpt>
      <trkpt lat="39.903087000" lon="-8.427817000">
        <ele>252.200000</ele>
        <time>2020-10-17T10:41:21Z</time>
      </trkpt>
      <trkpt lat="39.903088000" lon="-8.427780000">
        <ele>252.000000</ele>
        <time>2020-10-17T10:41:22Z</time>
      </trkpt>
      <trkpt lat="39.903082000" lon="-8.427711000">
        <ele>252.200000</ele>
        <time>2020-10-17T10:41:23Z</time>
      </trkpt>
      <trkpt lat="39.903082000" lon="-8.427711000">
        <ele>252.200000</ele>
        <time>2020-10-17T10:41:24Z</time>
      </trkpt>
      <trkpt lat="39.903067000" lon="-8.427648000">
        <ele>252.400000</ele>
        <time>2020-10-17T10:41:26Z</time>
      </trkpt>
      <trkpt lat="39.903058000" lon="-8.427621000">
        <ele>252.400000</ele>
        <time>2020-10-17T10:41:27Z</time>
      </trkpt>
      <trkpt lat="39.903048000" lon="-8.427592000">
        <ele>252.400000</ele>
        <time>2020-10-17T10:41:28Z</time>
      </trkpt>
      <trkpt lat="39.902975000" lon="-8.427424000">
        <ele>253.800000</ele>
        <time>2020-10-17T10:41:34Z</time>
      </trkpt>
      <trkpt lat="39.902948000" lon="-8.427413000">
        <ele>254.200000</ele>
        <time>2020-10-17T10:41:35Z</time>
      </trkpt>
      <trkpt lat="39.902919000" lon="-8.427405000">
        <ele>254.600000</ele>
        <time>2020-10-17T10:41:36Z</time>
      </trkpt>
      <trkpt lat="39.902889000" lon="-8.427400000">
        <ele>254.800000</ele>
        <time>2020-10-17T10:41:37Z</time>
      </trkpt>
      <trkpt lat="39.902857000" lon="-8.427393000">
        <ele>255.000000</ele>
        <time>2020-10-17T10:41:38Z</time>
      </trkpt>
      <trkpt lat="39.902826000" lon="-8.427382000">
        <ele>255.400000</ele>
        <time>2020-10-17T10:41:39Z</time>
      </trkpt>
      <trkpt lat="39.902801000" lon="-8.427372000">
        <ele>255.400000</ele>
        <time>2020-10-17T10:41:40Z</time>
      </trkpt>
      <trkpt lat="39.902783000" lon="-8.427368000">
        <ele>255.400000</ele>
        <time>2020-10-17T10:41:41Z</time>
      </trkpt>
      <trkpt lat="39.902772000" lon="-8.427367000">
        <ele>255.600000</ele>
        <time>2020-10-17T10:41:42Z</time>
      </trkpt>
      <trkpt lat="39.902768000" lon="-8.427366000">
        <ele>255.800000</ele>
        <time>2020-10-17T10:41:43Z</time>
      </trkpt>
      <trkpt lat="39.902767000" lon="-8.427364000">
        <ele>255.800000</ele>
        <time>2020-10-17T10:41:44Z</time>
      </trkpt>
      <trkpt lat="39.902691000" lon="-8.427289000">
        <ele>255.600000</ele>
        <time>2020-10-17T10:43:01Z</time>
      </trkpt>
      <trkpt lat="39.902670000" lon="-8.427265000">
        <ele>255.600000</ele>
        <time>2020-10-17T10:43:02Z</time>
      </trkpt>
      <trkpt lat="39.902647000" lon="-8.427242000">
        <ele>255.600000</ele>
        <time>2020-10-17T10:43:03Z</time>
      </trkpt>
      <trkpt lat="39.902624000" lon="-8.427222000">
        <ele>255.400000</ele>
        <time>2020-10-17T10:43:04Z</time>
      </trkpt>
      <trkpt lat="39.902487000" lon="-8.427146000">
        <ele>255.600000</ele>
        <time>2020-10-17T10:43:08Z</time>
      </trkpt>
      <trkpt lat="39.902400000" lon="-8.427108000">
        <ele>255.600000</ele>
        <time>2020-10-17T10:43:10Z</time>
      </trkpt>
      <trkpt lat="39.902241000" lon="-8.427064000">
        <ele>255.200000</ele>
        <time>2020-10-17T10:43:13Z</time>
      </trkpt>
      <trkpt lat="39.902189000" lon="-8.427064000">
        <ele>255.200000</ele>
        <time>2020-10-17T10:43:14Z</time>
      </trkpt>
      <trkpt lat="39.902139000" lon="-8.427064000">
        <ele>255.000000</ele>
        <time>2020-10-17T10:43:15Z</time>
      </trkpt>
      <trkpt lat="39.902091000" lon="-8.427059000">
        <ele>254.800000</ele>
        <time>2020-10-17T10:43:16Z</time>
      </trkpt>
      <trkpt lat="39.902046000" lon="-8.427044000">
        <ele>254.800000</ele>
        <time>2020-10-17T10:43:17Z</time>
      </trkpt>
      <trkpt lat="39.902007000" lon="-8.427023000">
        <ele>254.400000</ele>
        <time>2020-10-17T10:43:18Z</time>
      </trkpt>
      <trkpt lat="39.901969000" lon="-8.426996000">
        <ele>254.200000</ele>
        <time>2020-10-17T10:43:19Z</time>
      </trkpt>
      <trkpt lat="39.901935000" lon="-8.426966000">
        <ele>254.200000</ele>
        <time>2020-10-17T10:43:20Z</time>
      </trkpt>
      <trkpt lat="39.901869000" lon="-8.426897000">
        <ele>254.000000</ele>
        <time>2020-10-17T10:43:22Z</time>
      </trkpt>
      <trkpt lat="39.901839000" lon="-8.426861000">
        <ele>253.800000</ele>
        <time>2020-10-17T10:43:23Z</time>
      </trkpt>
      <trkpt lat="39.901812000" lon="-8.426824000">
        <ele>253.800000</ele>
        <time>2020-10-17T10:43:24Z</time>
      </trkpt>
      <trkpt lat="39.901785000" lon="-8.426789000">
        <ele>253.800000</ele>
        <time>2020-10-17T10:43:25Z</time>
      </trkpt>
      <trkpt lat="39.901756000" lon="-8.426758000">
        <ele>253.800000</ele>
        <time>2020-10-17T10:43:26Z</time>
      </trkpt>
      <trkpt lat="39.901725000" lon="-8.426732000">
        <ele>254.000000</ele>
        <time>2020-10-17T10:43:27Z</time>
      </trkpt>
      <trkpt lat="39.901663000" lon="-8.426699000">
        <ele>253.800000</ele>
        <time>2020-10-17T10:43:28Z</time>
      </trkpt>
      <trkpt lat="39.901663000" lon="-8.426699000">
        <ele>253.800000</ele>
        <time>2020-10-17T10:43:29Z</time>
      </trkpt>
      <trkpt lat="39.901633000" lon="-8.426688000">
        <ele>253.800000</ele>
        <time>2020-10-17T10:43:30Z</time>
      </trkpt>
      <trkpt lat="39.901607000" lon="-8.426678000">
        <ele>254.000000</ele>
        <time>2020-10-17T10:43:31Z</time>
      </trkpt>
      <trkpt lat="39.901583000" lon="-8.426666000">
        <ele>254.200000</ele>
        <time>2020-10-17T10:43:32Z</time>
      </trkpt>
      <trkpt lat="39.901558000" lon="-8.426655000">
        <ele>254.400000</ele>
        <time>2020-10-17T10:43:33Z</time>
      </trkpt>
      <trkpt lat="39.901534000" lon="-8.426647000">
        <ele>254.800000</ele>
        <time>2020-10-17T10:43:34Z</time>
      </trkpt>
      <trkpt lat="39.901511000" lon="-8.426642000">
        <ele>255.000000</ele>
        <time>2020-10-17T10:43:35Z</time>
      </trkpt>
      <trkpt lat="39.901487000" lon="-8.426637000">
        <ele>255.400000</ele>
        <time>2020-10-17T10:43:36Z</time>
      </trkpt>
      <trkpt lat="39.901462000" lon="-8.426633000">
        <ele>255.800000</ele>
        <time>2020-10-17T10:43:37Z</time>
      </trkpt>
      <trkpt lat="39.901438000" lon="-8.426631000">
        <ele>256.000000</ele>
        <time>2020-10-17T10:43:38Z</time>
      </trkpt>
      <trkpt lat="39.901415000" lon="-8.426628000">
        <ele>256.400000</ele>
        <time>2020-10-17T10:43:39Z</time>
      </trkpt>
      <trkpt lat="39.901393000" lon="-8.426622000">
        <ele>256.800000</ele>
        <time>2020-10-17T10:43:40Z</time>
      </trkpt>
      <trkpt lat="39.901371000" lon="-8.426617000">
        <ele>256.800000</ele>
        <time>2020-10-17T10:43:41Z</time>
      </trkpt>
      <trkpt lat="39.901348000" lon="-8.426614000">
        <ele>257.400000</ele>
        <time>2020-10-17T10:43:42Z</time>
      </trkpt>
      <trkpt lat="39.901323000" lon="-8.426614000">
        <ele>257.600000</ele>
        <time>2020-10-17T10:43:43Z</time>
      </trkpt>
      <trkpt lat="39.901299000" lon="-8.426616000">
        <ele>258.200000</ele>
        <time>2020-10-17T10:43:44Z</time>
      </trkpt>
      <trkpt lat="39.901277000" lon="-8.426618000">
        <ele>258.400000</ele>
        <time>2020-10-17T10:43:45Z</time>
      </trkpt>
      <trkpt lat="39.901256000" lon="-8.426622000">
        <ele>258.600000</ele>
        <time>2020-10-17T10:43:46Z</time>
      </trkpt>
      <trkpt lat="39.901235000" lon="-8.426627000">
        <ele>258.800000</ele>
        <time>2020-10-17T10:43:47Z</time>
      </trkpt>
      <trkpt lat="39.901213000" lon="-8.426630000">
        <ele>259.000000</ele>
        <time>2020-10-17T10:43:48Z</time>
      </trkpt>
      <trkpt lat="39.901193000" lon="-8.426632000">
        <ele>259.400000</ele>
        <time>2020-10-17T10:43:49Z</time>
      </trkpt>
      <trkpt lat="39.901172000" lon="-8.426632000">
        <ele>259.600000</ele>
        <time>2020-10-17T10:43:50Z</time>
      </trkpt>
      <trkpt lat="39.901149000" lon="-8.426635000">
        <ele>259.800000</ele>
        <time>2020-10-17T10:43:51Z</time>
      </trkpt>
      <trkpt lat="39.901127000" lon="-8.426634000">
        <ele>260.400000</ele>
        <time>2020-10-17T10:43:52Z</time>
      </trkpt>
      <trkpt lat="39.901106000" lon="-8.426631000">
        <ele>260.400000</ele>
        <time>2020-10-17T10:43:53Z</time>
      </trkpt>
      <trkpt lat="39.901084000" lon="-8.426628000">
        <ele>260.800000</ele>
        <time>2020-10-17T10:43:54Z</time>
      </trkpt>
      <trkpt lat="39.901063000" lon="-8.426625000">
        <ele>261.000000</ele>
        <time>2020-10-17T10:43:55Z</time>
      </trkpt>
      <trkpt lat="39.901043000" lon="-8.426621000">
        <ele>261.200000</ele>
        <time>2020-10-17T10:43:56Z</time>
      </trkpt>
      <trkpt lat="39.901022000" lon="-8.426617000">
        <ele>261.600000</ele>
        <time>2020-10-17T10:43:57Z</time>
      </trkpt>
      <trkpt lat="39.901002000" lon="-8.426615000">
        <ele>261.800000</ele>
        <time>2020-10-17T10:43:58Z</time>
      </trkpt>
      <trkpt lat="39.900980000" lon="-8.426613000">
        <ele>262.200000</ele>
        <time>2020-10-17T10:43:59Z</time>
      </trkpt>
      <trkpt lat="39.900958000" lon="-8.426610000">
        <ele>262.200000</ele>
        <time>2020-10-17T10:44:00Z</time>
      </trkpt>
      <trkpt lat="39.900937000" lon="-8.426605000">
        <ele>262.600000</ele>
        <time>2020-10-17T10:44:01Z</time>
      </trkpt>
      <trkpt lat="39.900915000" lon="-8.426600000">
        <ele>262.600000</ele>
        <time>2020-10-17T10:44:02Z</time>
      </trkpt>
      <trkpt lat="39.900893000" lon="-8.426594000">
        <ele>262.800000</ele>
        <time>2020-10-17T10:44:03Z</time>
      </trkpt>
      <trkpt lat="39.900872000" lon="-8.426591000">
        <ele>262.800000</ele>
        <time>2020-10-17T10:44:04Z</time>
      </trkpt>
      <trkpt lat="39.900850000" lon="-8.426589000">
        <ele>263.200000</ele>
        <time>2020-10-17T10:44:05Z</time>
      </trkpt>
      <trkpt lat="39.900827000" lon="-8.426586000">
        <ele>263.400000</ele>
        <time>2020-10-17T10:44:06Z</time>
      </trkpt>
      <trkpt lat="39.900785000" lon="-8.426573000">
        <ele>263.600000</ele>
        <time>2020-10-17T10:44:07Z</time>
      </trkpt>
      <trkpt lat="39.900785000" lon="-8.426573000">
        <ele>263.800000</ele>
        <time>2020-10-17T10:44:08Z</time>
      </trkpt>
      <trkpt lat="39.900764000" lon="-8.426566000">
        <ele>264.200000</ele>
        <time>2020-10-17T10:44:09Z</time>
      </trkpt>
      <trkpt lat="39.900744000" lon="-8.426561000">
        <ele>264.200000</ele>
        <time>2020-10-17T10:44:10Z</time>
      </trkpt>
      <trkpt lat="39.900725000" lon="-8.426555000">
        <ele>264.400000</ele>
        <time>2020-10-17T10:44:11Z</time>
      </trkpt>
      <trkpt lat="39.900683000" lon="-8.426544000">
        <ele>264.800000</ele>
        <time>2020-10-17T10:44:12Z</time>
      </trkpt>
      <trkpt lat="39.900662000" lon="-8.426536000">
        <ele>264.800000</ele>
        <time>2020-10-17T10:44:13Z</time>
      </trkpt>
      <trkpt lat="39.900662000" lon="-8.426536000">
        <ele>265.200000</ele>
        <time>2020-10-17T10:44:14Z</time>
      </trkpt>
      <trkpt lat="39.900640000" lon="-8.426527000">
        <ele>265.400000</ele>
        <time>2020-10-17T10:44:15Z</time>
      </trkpt>
      <trkpt lat="39.900601000" lon="-8.426519000">
        <ele>265.600000</ele>
        <time>2020-10-17T10:44:16Z</time>
      </trkpt>
      <trkpt lat="39.900582000" lon="-8.426515000">
        <ele>265.800000</ele>
        <time>2020-10-17T10:44:17Z</time>
      </trkpt>
      <trkpt lat="39.900562000" lon="-8.426511000">
        <ele>266.200000</ele>
        <time>2020-10-17T10:44:18Z</time>
      </trkpt>
      <trkpt lat="39.900543000" lon="-8.426510000">
        <ele>266.400000</ele>
        <time>2020-10-17T10:44:19Z</time>
      </trkpt>
      <trkpt lat="39.900543000" lon="-8.426510000">
        <ele>266.800000</ele>
        <time>2020-10-17T10:44:20Z</time>
      </trkpt>
      <trkpt lat="39.900524000" lon="-8.426512000">
        <ele>267.000000</ele>
        <time>2020-10-17T10:44:21Z</time>
      </trkpt>
      <trkpt lat="39.900486000" lon="-8.426509000">
        <ele>267.200000</ele>
        <time>2020-10-17T10:44:22Z</time>
      </trkpt>
      <trkpt lat="39.900486000" lon="-8.426509000">
        <ele>267.200000</ele>
        <time>2020-10-17T10:44:23Z</time>
      </trkpt>
      <trkpt lat="39.900466000" lon="-8.426506000">
        <ele>267.400000</ele>
        <time>2020-10-17T10:44:24Z</time>
      </trkpt>
      <trkpt lat="39.900447000" lon="-8.426503000">
        <ele>267.800000</ele>
        <time>2020-10-17T10:44:25Z</time>
      </trkpt>
      <trkpt lat="39.900428000" lon="-8.426501000">
        <ele>268.000000</ele>
        <time>2020-10-17T10:44:26Z</time>
      </trkpt>
      <trkpt lat="39.900410000" lon="-8.426499000">
        <ele>268.400000</ele>
        <time>2020-10-17T10:44:27Z</time>
      </trkpt>
      <trkpt lat="39.900393000" lon="-8.426498000">
        <ele>268.400000</ele>
        <time>2020-10-17T10:44:28Z</time>
      </trkpt>
      <trkpt lat="39.900376000" lon="-8.426498000">
        <ele>268.800000</ele>
        <time>2020-10-17T10:44:29Z</time>
      </trkpt>
      <trkpt lat="39.900357000" lon="-8.426500000">
        <ele>268.800000</ele>
        <time>2020-10-17T10:44:30Z</time>
      </trkpt>
      <trkpt lat="39.900338000" lon="-8.426502000">
        <ele>269.200000</ele>
        <time>2020-10-17T10:44:31Z</time>
      </trkpt>
      <trkpt lat="39.900319000" lon="-8.426504000">
        <ele>269.600000</ele>
        <time>2020-10-17T10:44:32Z</time>
      </trkpt>
      <trkpt lat="39.900299000" lon="-8.426508000">
        <ele>270.000000</ele>
        <time>2020-10-17T10:44:33Z</time>
      </trkpt>
      <trkpt lat="39.900281000" lon="-8.426509000">
        <ele>270.200000</ele>
        <time>2020-10-17T10:44:34Z</time>
      </trkpt>
      <trkpt lat="39.900263000" lon="-8.426512000">
        <ele>270.600000</ele>
        <time>2020-10-17T10:44:35Z</time>
      </trkpt>
      <trkpt lat="39.900245000" lon="-8.426515000">
        <ele>270.800000</ele>
        <time>2020-10-17T10:44:36Z</time>
      </trkpt>
      <trkpt lat="39.900229000" lon="-8.426517000">
        <ele>271.000000</ele>
        <time>2020-10-17T10:44:37Z</time>
      </trkpt>
      <trkpt lat="39.900211000" lon="-8.426519000">
        <ele>271.400000</ele>
        <time>2020-10-17T10:44:38Z</time>
      </trkpt>
      <trkpt lat="39.900194000" lon="-8.426522000">
        <ele>271.600000</ele>
        <time>2020-10-17T10:44:39Z</time>
      </trkpt>
      <trkpt lat="39.900176000" lon="-8.426525000">
        <ele>271.800000</ele>
        <time>2020-10-17T10:44:40Z</time>
      </trkpt>
      <trkpt lat="39.900161000" lon="-8.426528000">
        <ele>272.200000</ele>
        <time>2020-10-17T10:44:41Z</time>
      </trkpt>
      <trkpt lat="39.900146000" lon="-8.426529000">
        <ele>272.200000</ele>
        <time>2020-10-17T10:44:42Z</time>
      </trkpt>
      <trkpt lat="39.900131000" lon="-8.426525000">
        <ele>272.400000</ele>
        <time>2020-10-17T10:44:43Z</time>
      </trkpt>
      <trkpt lat="39.900116000" lon="-8.426517000">
        <ele>272.400000</ele>
        <time>2020-10-17T10:44:44Z</time>
      </trkpt>
      <trkpt lat="39.900100000" lon="-8.426508000">
        <ele>272.800000</ele>
        <time>2020-10-17T10:44:45Z</time>
      </trkpt>
      <trkpt lat="39.900083000" lon="-8.426495000">
        <ele>273.000000</ele>
        <time>2020-10-17T10:44:46Z</time>
      </trkpt>
      <trkpt lat="39.900067000" lon="-8.426483000">
        <ele>273.200000</ele>
        <time>2020-10-17T10:44:47Z</time>
      </trkpt>
      <trkpt lat="39.900052000" lon="-8.426471000">
        <ele>273.400000</ele>
        <time>2020-10-17T10:44:48Z</time>
      </trkpt>
      <trkpt lat="39.900021000" lon="-8.426448000">
        <ele>273.800000</ele>
        <time>2020-10-17T10:44:49Z</time>
      </trkpt>
      <trkpt lat="39.900006000" lon="-8.426437000">
        <ele>274.000000</ele>
        <time>2020-10-17T10:44:50Z</time>
      </trkpt>
      <trkpt lat="39.900006000" lon="-8.426437000">
        <ele>274.200000</ele>
        <time>2020-10-17T10:44:51Z</time>
      </trkpt>
      <trkpt lat="39.899992000" lon="-8.426423000">
        <ele>274.400000</ele>
        <time>2020-10-17T10:44:52Z</time>
      </trkpt>
      <trkpt lat="39.899976000" lon="-8.426410000">
        <ele>274.600000</ele>
        <time>2020-10-17T10:44:53Z</time>
      </trkpt>
      <trkpt lat="39.899961000" lon="-8.426397000">
        <ele>274.800000</ele>
        <time>2020-10-17T10:44:54Z</time>
      </trkpt>
      <trkpt lat="39.899948000" lon="-8.426386000">
        <ele>275.000000</ele>
        <time>2020-10-17T10:44:55Z</time>
      </trkpt>
      <trkpt lat="39.899935000" lon="-8.426376000">
        <ele>275.000000</ele>
        <time>2020-10-17T10:44:56Z</time>
      </trkpt>
      <trkpt lat="39.899916000" lon="-8.426366000">
        <ele>275.400000</ele>
        <time>2020-10-17T10:44:57Z</time>
      </trkpt>
      <trkpt lat="39.899896000" lon="-8.426357000">
        <ele>275.600000</ele>
        <time>2020-10-17T10:44:58Z</time>
      </trkpt>
      <trkpt lat="39.899879000" lon="-8.426348000">
        <ele>275.600000</ele>
        <time>2020-10-17T10:44:59Z</time>
      </trkpt>
      <trkpt lat="39.899862000" lon="-8.426340000">
        <ele>275.800000</ele>
        <time>2020-10-17T10:45:00Z</time>
      </trkpt>
      <trkpt lat="39.899844000" lon="-8.426331000">
        <ele>276.200000</ele>
        <time>2020-10-17T10:45:01Z</time>
      </trkpt>
      <trkpt lat="39.899824000" lon="-8.426319000">
        <ele>276.400000</ele>
        <time>2020-10-17T10:45:02Z</time>
      </trkpt>
      <trkpt lat="39.899799000" lon="-8.426309000">
        <ele>276.800000</ele>
        <time>2020-10-17T10:45:03Z</time>
      </trkpt>
      <trkpt lat="39.899778000" lon="-8.426299000">
        <ele>277.000000</ele>
        <time>2020-10-17T10:45:04Z</time>
      </trkpt>
      <trkpt lat="39.899759000" lon="-8.426286000">
        <ele>277.200000</ele>
        <time>2020-10-17T10:45:05Z</time>
      </trkpt>
      <trkpt lat="39.899738000" lon="-8.426278000">
        <ele>277.200000</ele>
        <time>2020-10-17T10:45:06Z</time>
      </trkpt>
      <trkpt lat="39.899719000" lon="-8.426272000">
        <ele>277.600000</ele>
        <time>2020-10-17T10:45:07Z</time>
      </trkpt>
      <trkpt lat="39.899701000" lon="-8.426267000">
        <ele>277.600000</ele>
        <time>2020-10-17T10:45:08Z</time>
      </trkpt>
      <trkpt lat="39.899684000" lon="-8.426262000">
        <ele>278.000000</ele>
        <time>2020-10-17T10:45:09Z</time>
      </trkpt>
      <trkpt lat="39.899665000" lon="-8.426257000">
        <ele>278.200000</ele>
        <time>2020-10-17T10:45:10Z</time>
      </trkpt>
      <trkpt lat="39.899646000" lon="-8.426252000">
        <ele>278.400000</ele>
        <time>2020-10-17T10:45:11Z</time>
      </trkpt>
      <trkpt lat="39.899628000" lon="-8.426248000">
        <ele>278.600000</ele>
        <time>2020-10-17T10:45:12Z</time>
      </trkpt>
      <trkpt lat="39.899612000" lon="-8.426239000">
        <ele>278.800000</ele>
        <time>2020-10-17T10:45:13Z</time>
      </trkpt>
      <trkpt lat="39.899592000" lon="-8.426231000">
        <ele>279.000000</ele>
        <time>2020-10-17T10:45:14Z</time>
      </trkpt>
      <trkpt lat="39.899569000" lon="-8.426227000">
        <ele>279.200000</ele>
        <time>2020-10-17T10:45:15Z</time>
      </trkpt>
      <trkpt lat="39.899547000" lon="-8.426224000">
        <ele>279.400000</ele>
        <time>2020-10-17T10:45:16Z</time>
      </trkpt>
      <trkpt lat="39.899526000" lon="-8.426220000">
        <ele>279.400000</ele>
        <time>2020-10-17T10:45:17Z</time>
      </trkpt>
      <trkpt lat="39.899503000" lon="-8.426217000">
        <ele>279.600000</ele>
        <time>2020-10-17T10:45:18Z</time>
      </trkpt>
      <trkpt lat="39.899482000" lon="-8.426216000">
        <ele>279.800000</ele>
        <time>2020-10-17T10:45:19Z</time>
      </trkpt>
      <trkpt lat="39.899461000" lon="-8.426214000">
        <ele>280.000000</ele>
        <time>2020-10-17T10:45:20Z</time>
      </trkpt>
      <trkpt lat="39.899443000" lon="-8.426210000">
        <ele>280.200000</ele>
        <time>2020-10-17T10:45:21Z</time>
      </trkpt>
      <trkpt lat="39.899421000" lon="-8.426208000">
        <ele>280.400000</ele>
        <time>2020-10-17T10:45:22Z</time>
      </trkpt>
      <trkpt lat="39.899400000" lon="-8.426207000">
        <ele>280.600000</ele>
        <time>2020-10-17T10:45:23Z</time>
      </trkpt>
      <trkpt lat="39.899376000" lon="-8.426206000">
        <ele>280.800000</ele>
        <time>2020-10-17T10:45:24Z</time>
      </trkpt>
      <trkpt lat="39.899351000" lon="-8.426208000">
        <ele>281.000000</ele>
        <time>2020-10-17T10:45:25Z</time>
      </trkpt>
      <trkpt lat="39.899327000" lon="-8.426208000">
        <ele>281.200000</ele>
        <time>2020-10-17T10:45:26Z</time>
      </trkpt>
      <trkpt lat="39.899302000" lon="-8.426211000">
        <ele>281.200000</ele>
        <time>2020-10-17T10:45:27Z</time>
      </trkpt>
      <trkpt lat="39.899278000" lon="-8.426218000">
        <ele>281.200000</ele>
        <time>2020-10-17T10:45:28Z</time>
      </trkpt>
      <trkpt lat="39.899253000" lon="-8.426222000">
        <ele>281.400000</ele>
        <time>2020-10-17T10:45:29Z</time>
      </trkpt>
      <trkpt lat="39.899227000" lon="-8.426226000">
        <ele>281.800000</ele>
        <time>2020-10-17T10:45:30Z</time>
      </trkpt>
      <trkpt lat="39.899199000" lon="-8.426232000">
        <ele>282.000000</ele>
        <time>2020-10-17T10:45:31Z</time>
      </trkpt>
      <trkpt lat="39.899173000" lon="-8.426235000">
        <ele>282.000000</ele>
        <time>2020-10-17T10:45:32Z</time>
      </trkpt>
      <trkpt lat="39.899149000" lon="-8.426240000">
        <ele>282.400000</ele>
        <time>2020-10-17T10:45:33Z</time>
      </trkpt>
      <trkpt lat="39.899123000" lon="-8.426246000">
        <ele>282.400000</ele>
        <time>2020-10-17T10:45:34Z</time>
      </trkpt>
      <trkpt lat="39.899098000" lon="-8.426261000">
        <ele>282.400000</ele>
        <time>2020-10-17T10:45:35Z</time>
      </trkpt>
      <trkpt lat="39.899072000" lon="-8.426281000">
        <ele>282.600000</ele>
        <time>2020-10-17T10:45:36Z</time>
      </trkpt>
      <trkpt lat="39.899047000" lon="-8.426302000">
        <ele>282.800000</ele>
        <time>2020-10-17T10:45:37Z</time>
      </trkpt>
      <trkpt lat="39.899018000" lon="-8.426322000">
        <ele>282.800000</ele>
        <time>2020-10-17T10:45:38Z</time>
      </trkpt>
      <trkpt lat="39.898984000" lon="-8.426340000">
        <ele>283.000000</ele>
        <time>2020-10-17T10:45:39Z</time>
      </trkpt>
      <trkpt lat="39.898954000" lon="-8.426349000">
        <ele>283.200000</ele>
        <time>2020-10-17T10:45:40Z</time>
      </trkpt>
      <trkpt lat="39.898884000" lon="-8.426336000">
        <ele>283.200000</ele>
        <time>2020-10-17T10:45:41Z</time>
      </trkpt>
      <trkpt lat="39.898847000" lon="-8.426328000">
        <ele>283.200000</ele>
        <time>2020-10-17T10:45:42Z</time>
      </trkpt>
      <trkpt lat="39.898808000" lon="-8.426322000">
        <ele>283.400000</ele>
        <time>2020-10-17T10:45:43Z</time>
      </trkpt>
      <trkpt lat="39.898786000" lon="-8.426317000">
        <ele>283.600000</ele>
        <time>2020-10-17T10:45:44Z</time>
      </trkpt>
      <trkpt lat="39.898763000" lon="-8.426313000">
        <ele>283.600000</ele>
        <time>2020-10-17T10:45:45Z</time>
      </trkpt>
      <trkpt lat="39.898716000" lon="-8.426299000">
        <ele>283.600000</ele>
        <time>2020-10-17T10:45:46Z</time>
      </trkpt>
      <trkpt lat="39.898520000" lon="-8.426209000">
        <ele>283.600000</ele>
        <time>2020-10-17T10:45:50Z</time>
      </trkpt>
      <trkpt lat="39.898473000" lon="-8.426178000">
        <ele>283.600000</ele>
        <time>2020-10-17T10:45:51Z</time>
      </trkpt>
      <trkpt lat="39.898430000" lon="-8.426146000">
        <ele>283.400000</ele>
        <time>2020-10-17T10:45:52Z</time>
      </trkpt>
      <trkpt lat="39.898390000" lon="-8.426113000">
        <ele>283.600000</ele>
        <time>2020-10-17T10:45:53Z</time>
      </trkpt>
      <trkpt lat="39.898247000" lon="-8.426027000">
        <ele>283.400000</ele>
        <time>2020-10-17T10:45:56Z</time>
      </trkpt>
      <trkpt lat="39.898190000" lon="-8.426017000">
        <ele>283.400000</ele>
        <time>2020-10-17T10:45:57Z</time>
      </trkpt>
      <trkpt lat="39.898133000" lon="-8.426023000">
        <ele>283.400000</ele>
        <time>2020-10-17T10:45:58Z</time>
      </trkpt>
      <trkpt lat="39.898073000" lon="-8.426036000">
        <ele>283.200000</ele>
        <time>2020-10-17T10:45:59Z</time>
      </trkpt>
      <trkpt lat="39.898013000" lon="-8.426052000">
        <ele>283.200000</ele>
        <time>2020-10-17T10:46:00Z</time>
      </trkpt>
      <trkpt lat="39.897953000" lon="-8.426071000">
        <ele>283.000000</ele>
        <time>2020-10-17T10:46:01Z</time>
      </trkpt>
      <trkpt lat="39.897826000" lon="-8.426091000">
        <ele>282.600000</ele>
        <time>2020-10-17T10:46:03Z</time>
      </trkpt>
      <trkpt lat="39.897695000" lon="-8.426067000">
        <ele>282.200000</ele>
        <time>2020-10-17T10:46:05Z</time>
      </trkpt>
      <trkpt lat="39.897420000" lon="-8.425999000">
        <ele>281.200000</ele>
        <time>2020-10-17T10:46:08Z</time>
      </trkpt>
      <trkpt lat="39.897346000" lon="-8.425983000">
        <ele>280.800000</ele>
        <time>2020-10-17T10:46:10Z</time>
      </trkpt>
      <trkpt lat="39.897187000" lon="-8.425945000">
        <ele>280.400000</ele>
        <time>2020-10-17T10:46:12Z</time>
      </trkpt>
      <trkpt lat="39.897032000" lon="-8.425919000">
        <ele>280.000000</ele>
        <time>2020-10-17T10:46:13Z</time>
      </trkpt>
      <trkpt lat="39.896955000" lon="-8.425909000">
        <ele>280.000000</ele>
        <time>2020-10-17T10:46:14Z</time>
      </trkpt>
      <trkpt lat="39.896894000" lon="-8.425908000">
        <ele>278.800000</ele>
        <time>2020-10-17T10:46:15Z</time>
      </trkpt>
      <trkpt lat="39.896833000" lon="-8.425908000">
        <ele>278.200000</ele>
        <time>2020-10-17T10:46:16Z</time>
      </trkpt>
      <trkpt lat="39.896711000" lon="-8.425907000">
        <ele>277.600000</ele>
        <time>2020-10-17T10:46:17Z</time>
      </trkpt>
      <trkpt lat="39.896671000" lon="-8.425914000">
        <ele>277.200000</ele>
        <time>2020-10-17T10:46:18Z</time>
      </trkpt>
      <trkpt lat="39.896631000" lon="-8.425921000">
        <ele>277.000000</ele>
        <time>2020-10-17T10:46:19Z</time>
      </trkpt>
      <trkpt lat="39.896489000" lon="-8.425947000">
        <ele>276.600000</ele>
        <time>2020-10-17T10:46:20Z</time>
      </trkpt>
      <trkpt lat="39.896426000" lon="-8.425959000">
        <ele>276.400000</ele>
        <time>2020-10-17T10:46:21Z</time>
      </trkpt>
      <trkpt lat="39.896301000" lon="-8.425984000">
        <ele>275.200000</ele>
        <time>2020-10-17T10:46:22Z</time>
      </trkpt>
      <trkpt lat="39.896123000" lon="-8.425992000">
        <ele>273.000000</ele>
        <time>2020-10-17T10:46:24Z</time>
      </trkpt>
      <trkpt lat="39.896083000" lon="-8.425990000">
        <ele>272.400000</ele>
        <time>2020-10-17T10:46:25Z</time>
      </trkpt>
      <trkpt lat="39.896043000" lon="-8.425988000">
        <ele>272.200000</ele>
        <time>2020-10-17T10:46:26Z</time>
      </trkpt>
      <trkpt lat="39.895908000" lon="-8.425973000">
        <ele>271.000000</ele>
        <time>2020-10-17T10:46:27Z</time>
      </trkpt>
      <trkpt lat="39.895853000" lon="-8.425961000">
        <ele>270.200000</ele>
        <time>2020-10-17T10:46:28Z</time>
      </trkpt>
      <trkpt lat="39.895744000" lon="-8.425937000">
        <ele>269.600000</ele>
        <time>2020-10-17T10:46:29Z</time>
      </trkpt>
      <trkpt lat="39.895668000" lon="-8.425929000">
        <ele>269.600000</ele>
        <time>2020-10-17T10:46:30Z</time>
      </trkpt>
      <trkpt lat="39.895608000" lon="-8.425937000">
        <ele>268.600000</ele>
        <time>2020-10-17T10:46:31Z</time>
      </trkpt>
      <trkpt lat="39.895547000" lon="-8.425945000">
        <ele>267.800000</ele>
        <time>2020-10-17T10:46:32Z</time>
      </trkpt>
      <trkpt lat="39.895426000" lon="-8.425961000">
        <ele>267.400000</ele>
        <time>2020-10-17T10:46:33Z</time>
      </trkpt>
      <trkpt lat="39.895355000" lon="-8.425977000">
        <ele>264.800000</ele>
        <time>2020-10-17T10:46:34Z</time>
      </trkpt>
      <trkpt lat="39.895299000" lon="-8.425985000">
        <ele>263.200000</ele>
        <time>2020-10-17T10:46:35Z</time>
      </trkpt>
      <trkpt lat="39.895257000" lon="-8.425983000">
        <ele>262.400000</ele>
        <time>2020-10-17T10:46:36Z</time>
      </trkpt>
      <trkpt lat="39.895215000" lon="-8.425981000">
        <ele>261.800000</ele>
        <time>2020-10-17T10:46:37Z</time>
      </trkpt>
      <trkpt lat="39.895186000" lon="-8.425976000">
        <ele>261.200000</ele>
        <time>2020-10-17T10:46:38Z</time>
      </trkpt>
      <trkpt lat="39.895156000" lon="-8.425971000">
        <ele>259.800000</ele>
        <time>2020-10-17T10:46:39Z</time>
      </trkpt>
      <trkpt lat="39.895130000" lon="-8.425966000">
        <ele>259.000000</ele>
        <time>2020-10-17T10:46:40Z</time>
      </trkpt>
      <trkpt lat="39.895106000" lon="-8.425961000">
        <ele>258.800000</ele>
        <time>2020-10-17T10:46:41Z</time>
      </trkpt>
      <trkpt lat="39.895083000" lon="-8.425955000">
        <ele>258.800000</ele>
        <time>2020-10-17T10:46:42Z</time>
      </trkpt>
      <trkpt lat="39.895060000" lon="-8.425947000">
        <ele>258.400000</ele>
        <time>2020-10-17T10:46:43Z</time>
      </trkpt>
      <trkpt lat="39.894992000" lon="-8.425912000">
        <ele>258.600000</ele>
        <time>2020-10-17T10:46:46Z</time>
      </trkpt>
      <trkpt lat="39.894992000" lon="-8.425912000">
        <ele>258.400000</ele>
        <time>2020-10-17T10:46:47Z</time>
      </trkpt>
      <trkpt lat="39.894970000" lon="-8.425899000">
        <ele>258.600000</ele>
        <time>2020-10-17T10:46:48Z</time>
      </trkpt>
      <trkpt lat="39.894900000" lon="-8.425852000">
        <ele>258.800000</ele>
        <time>2020-10-17T10:46:51Z</time>
      </trkpt>
      <trkpt lat="39.894878000" lon="-8.425839000">
        <ele>258.800000</ele>
        <time>2020-10-17T10:46:52Z</time>
      </trkpt>
      <trkpt lat="39.894859000" lon="-8.425827000">
        <ele>259.200000</ele>
        <time>2020-10-17T10:46:53Z</time>
      </trkpt>
      <trkpt lat="39.894840000" lon="-8.425814000">
        <ele>259.400000</ele>
        <time>2020-10-17T10:46:54Z</time>
      </trkpt>
      <trkpt lat="39.894822000" lon="-8.425800000">
        <ele>259.400000</ele>
        <time>2020-10-17T10:46:55Z</time>
      </trkpt>
      <trkpt lat="39.894805000" lon="-8.425785000">
        <ele>259.800000</ele>
        <time>2020-10-17T10:46:56Z</time>
      </trkpt>
      <trkpt lat="39.894789000" lon="-8.425771000">
        <ele>260.000000</ele>
        <time>2020-10-17T10:46:57Z</time>
      </trkpt>
      <trkpt lat="39.894776000" lon="-8.425758000">
        <ele>260.400000</ele>
        <time>2020-10-17T10:46:58Z</time>
      </trkpt>
      <trkpt lat="39.894761000" lon="-8.425746000">
        <ele>260.400000</ele>
        <time>2020-10-17T10:46:59Z</time>
      </trkpt>
      <trkpt lat="39.894746000" lon="-8.425736000">
        <ele>260.800000</ele>
        <time>2020-10-17T10:47:00Z</time>
      </trkpt>
      <trkpt lat="39.894728000" lon="-8.425726000">
        <ele>261.000000</ele>
        <time>2020-10-17T10:47:01Z</time>
      </trkpt>
      <trkpt lat="39.894693000" lon="-8.425709000">
        <ele>261.400000</ele>
        <time>2020-10-17T10:47:02Z</time>
      </trkpt>
      <trkpt lat="39.894673000" lon="-8.425695000">
        <ele>261.800000</ele>
        <time>2020-10-17T10:47:03Z</time>
      </trkpt>
      <trkpt lat="39.894651000" lon="-8.425684000">
        <ele>262.200000</ele>
        <time>2020-10-17T10:47:04Z</time>
      </trkpt>
      <trkpt lat="39.894628000" lon="-8.425674000">
        <ele>262.400000</ele>
        <time>2020-10-17T10:47:05Z</time>
      </trkpt>
      <trkpt lat="39.894605000" lon="-8.425671000">
        <ele>262.600000</ele>
        <time>2020-10-17T10:47:06Z</time>
      </trkpt>
      <trkpt lat="39.894581000" lon="-8.425669000">
        <ele>263.000000</ele>
        <time>2020-10-17T10:47:07Z</time>
      </trkpt>
      <trkpt lat="39.894556000" lon="-8.425668000">
        <ele>263.400000</ele>
        <time>2020-10-17T10:47:08Z</time>
      </trkpt>
      <trkpt lat="39.894533000" lon="-8.425670000">
        <ele>263.800000</ele>
        <time>2020-10-17T10:47:09Z</time>
      </trkpt>
      <trkpt lat="39.894509000" lon="-8.425671000">
        <ele>264.000000</ele>
        <time>2020-10-17T10:47:10Z</time>
      </trkpt>
      <trkpt lat="39.894509000" lon="-8.425671000">
        <ele>264.200000</ele>
        <time>2020-10-17T10:47:11Z</time>
      </trkpt>
      <trkpt lat="39.894484000" lon="-8.425671000">
        <ele>264.400000</ele>
        <time>2020-10-17T10:47:12Z</time>
      </trkpt>
      <trkpt lat="39.894458000" lon="-8.425674000">
        <ele>264.400000</ele>
        <time>2020-10-17T10:47:13Z</time>
      </trkpt>
      <trkpt lat="39.894408000" lon="-8.425678000">
        <ele>264.600000</ele>
        <time>2020-10-17T10:47:14Z</time>
      </trkpt>
      <trkpt lat="39.894384000" lon="-8.425679000">
        <ele>264.800000</ele>
        <time>2020-10-17T10:47:15Z</time>
      </trkpt>
      <trkpt lat="39.894384000" lon="-8.425679000">
        <ele>265.000000</ele>
        <time>2020-10-17T10:47:16Z</time>
      </trkpt>
      <trkpt lat="39.894360000" lon="-8.425679000">
        <ele>265.200000</ele>
        <time>2020-10-17T10:47:17Z</time>
      </trkpt>
      <trkpt lat="39.894310000" lon="-8.425675000">
        <ele>265.400000</ele>
        <time>2020-10-17T10:47:18Z</time>
      </trkpt>
      <trkpt lat="39.894285000" lon="-8.425672000">
        <ele>265.600000</ele>
        <time>2020-10-17T10:47:19Z</time>
      </trkpt>
      <trkpt lat="39.894259000" lon="-8.425670000">
        <ele>265.800000</ele>
        <time>2020-10-17T10:47:20Z</time>
      </trkpt>
      <trkpt lat="39.894236000" lon="-8.425668000">
        <ele>266.000000</ele>
        <time>2020-10-17T10:47:21Z</time>
      </trkpt>
      <trkpt lat="39.894213000" lon="-8.425666000">
        <ele>266.000000</ele>
        <time>2020-10-17T10:47:22Z</time>
      </trkpt>
      <trkpt lat="39.894192000" lon="-8.425664000">
        <ele>266.000000</ele>
        <time>2020-10-17T10:47:23Z</time>
      </trkpt>
      <trkpt lat="39.894171000" lon="-8.425663000">
        <ele>266.200000</ele>
        <time>2020-10-17T10:47:24Z</time>
      </trkpt>
      <trkpt lat="39.894147000" lon="-8.425662000">
        <ele>266.200000</ele>
        <time>2020-10-17T10:47:25Z</time>
      </trkpt>
      <trkpt lat="39.894125000" lon="-8.425661000">
        <ele>266.400000</ele>
        <time>2020-10-17T10:47:26Z</time>
      </trkpt>
      <trkpt lat="39.894102000" lon="-8.425659000">
        <ele>266.600000</ele>
        <time>2020-10-17T10:47:27Z</time>
      </trkpt>
      <trkpt lat="39.894083000" lon="-8.425656000">
        <ele>267.200000</ele>
        <time>2020-10-17T10:47:28Z</time>
      </trkpt>
      <trkpt lat="39.894083000" lon="-8.425656000">
        <ele>267.200000</ele>
        <time>2020-10-17T10:47:29Z</time>
      </trkpt>
      <trkpt lat="39.894064000" lon="-8.425653000">
        <ele>267.400000</ele>
        <time>2020-10-17T10:47:30Z</time>
      </trkpt>
      <trkpt lat="39.894043000" lon="-8.425650000">
        <ele>267.600000</ele>
        <time>2020-10-17T10:47:31Z</time>
      </trkpt>
      <trkpt lat="39.894009000" lon="-8.425639000">
        <ele>267.600000</ele>
        <time>2020-10-17T10:47:32Z</time>
      </trkpt>
      <trkpt lat="39.894009000" lon="-8.425639000">
        <ele>267.600000</ele>
        <time>2020-10-17T10:47:33Z</time>
      </trkpt>
      <trkpt lat="39.893992000" lon="-8.425630000">
        <ele>267.600000</ele>
        <time>2020-10-17T10:47:34Z</time>
      </trkpt>
      <trkpt lat="39.893970000" lon="-8.425606000">
        <ele>267.800000</ele>
        <time>2020-10-17T10:47:35Z</time>
      </trkpt>
      <trkpt lat="39.893970000" lon="-8.425606000">
        <ele>267.800000</ele>
        <time>2020-10-17T10:47:36Z</time>
      </trkpt>
      <trkpt lat="39.893961000" lon="-8.425593000">
        <ele>268.000000</ele>
        <time>2020-10-17T10:47:37Z</time>
      </trkpt>
      <trkpt lat="39.893952000" lon="-8.425561000">
        <ele>268.600000</ele>
        <time>2020-10-17T10:47:38Z</time>
      </trkpt>
      <trkpt lat="39.893949000" lon="-8.425543000">
        <ele>268.800000</ele>
        <time>2020-10-17T10:47:39Z</time>
      </trkpt>
      <trkpt lat="39.893949000" lon="-8.425543000">
        <ele>269.200000</ele>
        <time>2020-10-17T10:47:40Z</time>
      </trkpt>
      <trkpt lat="39.893948000" lon="-8.425505000">
        <ele>269.400000</ele>
        <time>2020-10-17T10:47:41Z</time>
      </trkpt>
      <trkpt lat="39.893951000" lon="-8.425487000">
        <ele>269.400000</ele>
        <time>2020-10-17T10:47:42Z</time>
      </trkpt>
      <trkpt lat="39.893953000" lon="-8.425467000">
        <ele>269.800000</ele>
        <time>2020-10-17T10:47:43Z</time>
      </trkpt>
      <trkpt lat="39.893953000" lon="-8.425453000">
        <ele>270.200000</ele>
        <time>2020-10-17T10:47:44Z</time>
      </trkpt>
      <trkpt lat="39.893949000" lon="-8.425437000">
        <ele>270.600000</ele>
        <time>2020-10-17T10:47:45Z</time>
      </trkpt>
      <trkpt lat="39.893946000" lon="-8.425421000">
        <ele>271.000000</ele>
        <time>2020-10-17T10:47:46Z</time>
      </trkpt>
      <trkpt lat="39.893943000" lon="-8.425404000">
        <ele>271.200000</ele>
        <time>2020-10-17T10:47:47Z</time>
      </trkpt>
      <trkpt lat="39.893943000" lon="-8.425387000">
        <ele>271.200000</ele>
        <time>2020-10-17T10:47:48Z</time>
      </trkpt>
      <trkpt lat="39.893942000" lon="-8.425369000">
        <ele>271.800000</ele>
        <time>2020-10-17T10:47:49Z</time>
      </trkpt>
      <trkpt lat="39.893939000" lon="-8.425353000">
        <ele>272.000000</ele>
        <time>2020-10-17T10:47:50Z</time>
      </trkpt>
      <trkpt lat="39.893938000" lon="-8.425335000">
        <ele>272.200000</ele>
        <time>2020-10-17T10:47:51Z</time>
      </trkpt>
      <trkpt lat="39.893937000" lon="-8.425317000">
        <ele>272.600000</ele>
        <time>2020-10-17T10:47:52Z</time>
      </trkpt>
      <trkpt lat="39.893938000" lon="-8.425300000">
        <ele>272.800000</ele>
        <time>2020-10-17T10:47:53Z</time>
      </trkpt>
      <trkpt lat="39.893939000" lon="-8.425283000">
        <ele>273.000000</ele>
        <time>2020-10-17T10:47:54Z</time>
      </trkpt>
      <trkpt lat="39.893939000" lon="-8.425266000">
        <ele>273.200000</ele>
        <time>2020-10-17T10:47:55Z</time>
      </trkpt>
      <trkpt lat="39.893939000" lon="-8.425249000">
        <ele>273.200000</ele>
        <time>2020-10-17T10:47:56Z</time>
      </trkpt>
      <trkpt lat="39.893939000" lon="-8.425235000">
        <ele>273.600000</ele>
        <time>2020-10-17T10:47:57Z</time>
      </trkpt>
      <trkpt lat="39.893940000" lon="-8.425223000">
        <ele>273.600000</ele>
        <time>2020-10-17T10:47:58Z</time>
      </trkpt>
      <trkpt lat="39.893938000" lon="-8.425209000">
        <ele>273.800000</ele>
        <time>2020-10-17T10:47:59Z</time>
      </trkpt>
      <trkpt lat="39.893934000" lon="-8.425194000">
        <ele>274.000000</ele>
        <time>2020-10-17T10:48:00Z</time>
      </trkpt>
      <trkpt lat="39.893932000" lon="-8.425179000">
        <ele>274.200000</ele>
        <time>2020-10-17T10:48:01Z</time>
      </trkpt>
      <trkpt lat="39.893928000" lon="-8.425164000">
        <ele>274.400000</ele>
        <time>2020-10-17T10:48:02Z</time>
      </trkpt>
      <trkpt lat="39.893925000" lon="-8.425148000">
        <ele>274.600000</ele>
        <time>2020-10-17T10:48:03Z</time>
      </trkpt>
      <trkpt lat="39.893923000" lon="-8.425131000">
        <ele>274.800000</ele>
        <time>2020-10-17T10:48:04Z</time>
      </trkpt>
      <trkpt lat="39.893920000" lon="-8.425111000">
        <ele>275.000000</ele>
        <time>2020-10-17T10:48:05Z</time>
      </trkpt>
      <trkpt lat="39.893918000" lon="-8.425091000">
        <ele>275.200000</ele>
        <time>2020-10-17T10:48:06Z</time>
      </trkpt>
      <trkpt lat="39.893915000" lon="-8.425072000">
        <ele>275.400000</ele>
        <time>2020-10-17T10:48:07Z</time>
      </trkpt>
      <trkpt lat="39.893913000" lon="-8.425055000">
        <ele>275.600000</ele>
        <time>2020-10-17T10:48:08Z</time>
      </trkpt>
      <trkpt lat="39.893911000" lon="-8.425036000">
        <ele>275.800000</ele>
        <time>2020-10-17T10:48:09Z</time>
      </trkpt>
      <trkpt lat="39.893909000" lon="-8.425018000">
        <ele>276.000000</ele>
        <time>2020-10-17T10:48:10Z</time>
      </trkpt>
      <trkpt lat="39.893907000" lon="-8.424996000">
        <ele>276.200000</ele>
        <time>2020-10-17T10:48:11Z</time>
      </trkpt>
      <trkpt lat="39.893903000" lon="-8.424976000">
        <ele>276.400000</ele>
        <time>2020-10-17T10:48:12Z</time>
      </trkpt>
      <trkpt lat="39.893898000" lon="-8.424960000">
        <ele>276.400000</ele>
        <time>2020-10-17T10:48:13Z</time>
      </trkpt>
      <trkpt lat="39.893893000" lon="-8.424946000">
        <ele>276.800000</ele>
        <time>2020-10-17T10:48:14Z</time>
      </trkpt>
      <trkpt lat="39.893888000" lon="-8.424931000">
        <ele>276.800000</ele>
        <time>2020-10-17T10:48:15Z</time>
      </trkpt>
      <trkpt lat="39.893883000" lon="-8.424915000">
        <ele>277.000000</ele>
        <time>2020-10-17T10:48:16Z</time>
      </trkpt>
      <trkpt lat="39.893877000" lon="-8.424897000">
        <ele>277.000000</ele>
        <time>2020-10-17T10:48:17Z</time>
      </trkpt>
      <trkpt lat="39.893872000" lon="-8.424879000">
        <ele>277.200000</ele>
        <time>2020-10-17T10:48:18Z</time>
      </trkpt>
      <trkpt lat="39.893868000" lon="-8.424864000">
        <ele>277.400000</ele>
        <time>2020-10-17T10:48:19Z</time>
      </trkpt>
      <trkpt lat="39.893865000" lon="-8.424846000">
        <ele>277.600000</ele>
        <time>2020-10-17T10:48:20Z</time>
      </trkpt>
      <trkpt lat="39.893863000" lon="-8.424825000">
        <ele>277.800000</ele>
        <time>2020-10-17T10:48:21Z</time>
      </trkpt>
      <trkpt lat="39.893862000" lon="-8.424805000">
        <ele>278.000000</ele>
        <time>2020-10-17T10:48:22Z</time>
      </trkpt>
      <trkpt lat="39.893861000" lon="-8.424784000">
        <ele>278.400000</ele>
        <time>2020-10-17T10:48:23Z</time>
      </trkpt>
      <trkpt lat="39.893859000" lon="-8.424764000">
        <ele>278.600000</ele>
        <time>2020-10-17T10:48:24Z</time>
      </trkpt>
      <trkpt lat="39.893855000" lon="-8.424743000">
        <ele>278.800000</ele>
        <time>2020-10-17T10:48:25Z</time>
      </trkpt>
      <trkpt lat="39.893851000" lon="-8.424721000">
        <ele>279.000000</ele>
        <time>2020-10-17T10:48:26Z</time>
      </trkpt>
      <trkpt lat="39.893846000" lon="-8.424699000">
        <ele>279.200000</ele>
        <time>2020-10-17T10:48:27Z</time>
      </trkpt>
      <trkpt lat="39.893841000" lon="-8.424676000">
        <ele>279.400000</ele>
        <time>2020-10-17T10:48:28Z</time>
      </trkpt>
      <trkpt lat="39.893837000" lon="-8.424654000">
        <ele>279.600000</ele>
        <time>2020-10-17T10:48:29Z</time>
      </trkpt>
      <trkpt lat="39.893835000" lon="-8.424631000">
        <ele>279.600000</ele>
        <time>2020-10-17T10:48:30Z</time>
      </trkpt>
      <trkpt lat="39.893835000" lon="-8.424606000">
        <ele>279.800000</ele>
        <time>2020-10-17T10:48:31Z</time>
      </trkpt>
      <trkpt lat="39.893835000" lon="-8.424585000">
        <ele>280.000000</ele>
        <time>2020-10-17T10:48:32Z</time>
      </trkpt>
      <trkpt lat="39.893833000" lon="-8.424563000">
        <ele>280.200000</ele>
        <time>2020-10-17T10:48:33Z</time>
      </trkpt>
      <trkpt lat="39.893832000" lon="-8.424545000">
        <ele>280.600000</ele>
        <time>2020-10-17T10:48:34Z</time>
      </trkpt>
      <trkpt lat="39.893830000" lon="-8.424524000">
        <ele>280.600000</ele>
        <time>2020-10-17T10:48:35Z</time>
      </trkpt>
      <trkpt lat="39.893828000" lon="-8.424502000">
        <ele>280.600000</ele>
        <time>2020-10-17T10:48:36Z</time>
      </trkpt>
      <trkpt lat="39.893826000" lon="-8.424477000">
        <ele>280.800000</ele>
        <time>2020-10-17T10:48:37Z</time>
      </trkpt>
      <trkpt lat="39.893825000" lon="-8.424455000">
        <ele>280.800000</ele>
        <time>2020-10-17T10:48:38Z</time>
      </trkpt>
      <trkpt lat="39.893825000" lon="-8.424455000">
        <ele>281.000000</ele>
        <time>2020-10-17T10:48:39Z</time>
      </trkpt>
      <trkpt lat="39.893819000" lon="-8.424413000">
        <ele>281.200000</ele>
        <time>2020-10-17T10:48:40Z</time>
      </trkpt>
      <trkpt lat="39.893815000" lon="-8.424393000">
        <ele>281.400000</ele>
        <time>2020-10-17T10:48:41Z</time>
      </trkpt>
      <trkpt lat="39.893812000" lon="-8.424373000">
        <ele>281.800000</ele>
        <time>2020-10-17T10:48:42Z</time>
      </trkpt>
      <trkpt lat="39.893807000" lon="-8.424353000">
        <ele>282.000000</ele>
        <time>2020-10-17T10:48:43Z</time>
      </trkpt>
      <trkpt lat="39.893807000" lon="-8.424353000">
        <ele>282.200000</ele>
        <time>2020-10-17T10:48:44Z</time>
      </trkpt>
      <trkpt lat="39.893789000" lon="-8.424317000">
        <ele>282.400000</ele>
        <time>2020-10-17T10:48:45Z</time>
      </trkpt>
      <trkpt lat="39.893780000" lon="-8.424299000">
        <ele>282.600000</ele>
        <time>2020-10-17T10:48:46Z</time>
      </trkpt>
      <trkpt lat="39.893771000" lon="-8.424282000">
        <ele>282.600000</ele>
        <time>2020-10-17T10:48:47Z</time>
      </trkpt>
      <trkpt lat="39.893761000" lon="-8.424267000">
        <ele>282.800000</ele>
        <time>2020-10-17T10:48:48Z</time>
      </trkpt>
      <trkpt lat="39.893751000" lon="-8.424255000">
        <ele>283.000000</ele>
        <time>2020-10-17T10:48:49Z</time>
      </trkpt>
      <trkpt lat="39.893739000" lon="-8.424243000">
        <ele>283.200000</ele>
        <time>2020-10-17T10:48:50Z</time>
      </trkpt>
      <trkpt lat="39.893727000" lon="-8.424235000">
        <ele>283.200000</ele>
        <time>2020-10-17T10:48:51Z</time>
      </trkpt>
      <trkpt lat="39.893727000" lon="-8.424235000">
        <ele>283.400000</ele>
        <time>2020-10-17T10:48:52Z</time>
      </trkpt>
      <trkpt lat="39.893703000" lon="-8.424227000">
        <ele>283.800000</ele>
        <time>2020-10-17T10:48:53Z</time>
      </trkpt>
      <trkpt lat="39.893690000" lon="-8.424221000">
        <ele>284.000000</ele>
        <time>2020-10-17T10:48:54Z</time>
      </trkpt>
      <trkpt lat="39.893690000" lon="-8.424221000">
        <ele>284.200000</ele>
        <time>2020-10-17T10:48:55Z</time>
      </trkpt>
      <trkpt lat="39.893665000" lon="-8.424209000">
        <ele>284.600000</ele>
        <time>2020-10-17T10:48:56Z</time>
      </trkpt>
      <trkpt lat="39.893665000" lon="-8.424209000">
        <ele>284.600000</ele>
        <time>2020-10-17T10:48:57Z</time>
      </trkpt>
      <trkpt lat="39.893655000" lon="-8.424204000">
        <ele>284.800000</ele>
        <time>2020-10-17T10:48:58Z</time>
      </trkpt>
      <trkpt lat="39.893628000" lon="-8.424198000">
        <ele>284.800000</ele>
        <time>2020-10-17T10:48:59Z</time>
      </trkpt>
      <trkpt lat="39.893628000" lon="-8.424198000">
        <ele>285.000000</ele>
        <time>2020-10-17T10:49:00Z</time>
      </trkpt>
      <trkpt lat="39.893616000" lon="-8.424192000">
        <ele>285.200000</ele>
        <time>2020-10-17T10:49:01Z</time>
      </trkpt>
      <trkpt lat="39.893593000" lon="-8.424185000">
        <ele>285.400000</ele>
        <time>2020-10-17T10:49:02Z</time>
      </trkpt>
      <trkpt lat="39.893582000" lon="-8.424182000">
        <ele>285.800000</ele>
        <time>2020-10-17T10:49:03Z</time>
      </trkpt>
      <trkpt lat="39.893566000" lon="-8.424180000">
        <ele>286.000000</ele>
        <time>2020-10-17T10:49:04Z</time>
      </trkpt>
      <trkpt lat="39.893566000" lon="-8.424180000">
        <ele>286.200000</ele>
        <time>2020-10-17T10:49:05Z</time>
      </trkpt>
      <trkpt lat="39.893536000" lon="-8.424169000">
        <ele>286.400000</ele>
        <time>2020-10-17T10:49:06Z</time>
      </trkpt>
      <trkpt lat="39.893536000" lon="-8.424169000">
        <ele>286.800000</ele>
        <time>2020-10-17T10:49:07Z</time>
      </trkpt>
      <trkpt lat="39.893521000" lon="-8.424167000">
        <ele>286.800000</ele>
        <time>2020-10-17T10:49:08Z</time>
      </trkpt>
      <trkpt lat="39.893484000" lon="-8.424156000">
        <ele>287.000000</ele>
        <time>2020-10-17T10:49:09Z</time>
      </trkpt>
      <trkpt lat="39.893464000" lon="-8.424150000">
        <ele>287.200000</ele>
        <time>2020-10-17T10:49:10Z</time>
      </trkpt>
      <trkpt lat="39.893448000" lon="-8.424145000">
        <ele>287.400000</ele>
        <time>2020-10-17T10:49:11Z</time>
      </trkpt>
      <trkpt lat="39.893427000" lon="-8.424143000">
        <ele>287.600000</ele>
        <time>2020-10-17T10:49:12Z</time>
      </trkpt>
      <trkpt lat="39.893403000" lon="-8.424142000">
        <ele>287.800000</ele>
        <time>2020-10-17T10:49:13Z</time>
      </trkpt>
      <trkpt lat="39.893379000" lon="-8.424145000">
        <ele>288.000000</ele>
        <time>2020-10-17T10:49:14Z</time>
      </trkpt>
      <trkpt lat="39.893357000" lon="-8.424151000">
        <ele>288.200000</ele>
        <time>2020-10-17T10:49:15Z</time>
      </trkpt>
      <trkpt lat="39.893331000" lon="-8.424159000">
        <ele>288.200000</ele>
        <time>2020-10-17T10:49:16Z</time>
      </trkpt>
      <trkpt lat="39.893304000" lon="-8.424164000">
        <ele>288.400000</ele>
        <time>2020-10-17T10:49:17Z</time>
      </trkpt>
      <trkpt lat="39.893273000" lon="-8.424166000">
        <ele>288.600000</ele>
        <time>2020-10-17T10:49:18Z</time>
      </trkpt>
      <trkpt lat="39.893246000" lon="-8.424173000">
        <ele>288.800000</ele>
        <time>2020-10-17T10:49:19Z</time>
      </trkpt>
      <trkpt lat="39.893219000" lon="-8.424183000">
        <ele>288.800000</ele>
        <time>2020-10-17T10:49:20Z</time>
      </trkpt>
      <trkpt lat="39.893186000" lon="-8.424197000">
        <ele>288.800000</ele>
        <time>2020-10-17T10:49:21Z</time>
      </trkpt>
      <trkpt lat="39.893145000" lon="-8.424214000">
        <ele>289.000000</ele>
        <time>2020-10-17T10:49:22Z</time>
      </trkpt>
      <trkpt lat="39.893095000" lon="-8.424227000">
        <ele>288.800000</ele>
        <time>2020-10-17T10:49:23Z</time>
      </trkpt>
      <trkpt lat="39.893043000" lon="-8.424229000">
        <ele>289.000000</ele>
        <time>2020-10-17T10:49:24Z</time>
      </trkpt>
      <trkpt lat="39.892998000" lon="-8.424214000">
        <ele>289.000000</ele>
        <time>2020-10-17T10:49:25Z</time>
      </trkpt>
      <trkpt lat="39.892958000" lon="-8.424192000">
        <ele>289.000000</ele>
        <time>2020-10-17T10:49:26Z</time>
      </trkpt>
      <trkpt lat="39.892927000" lon="-8.424169000">
        <ele>289.000000</ele>
        <time>2020-10-17T10:49:27Z</time>
      </trkpt>
      <trkpt lat="39.892903000" lon="-8.424137000">
        <ele>289.000000</ele>
        <time>2020-10-17T10:49:28Z</time>
      </trkpt>
      <trkpt lat="39.892888000" lon="-8.424094000">
        <ele>289.200000</ele>
        <time>2020-10-17T10:49:29Z</time>
      </trkpt>
      <trkpt lat="39.892875000" lon="-8.424049000">
        <ele>289.000000</ele>
        <time>2020-10-17T10:49:30Z</time>
      </trkpt>
      <trkpt lat="39.892840000" lon="-8.423967000">
        <ele>289.000000</ele>
        <time>2020-10-17T10:49:32Z</time>
      </trkpt>
      <trkpt lat="39.892820000" lon="-8.423932000">
        <ele>289.000000</ele>
        <time>2020-10-17T10:49:33Z</time>
      </trkpt>
      <trkpt lat="39.892778000" lon="-8.423859000">
        <ele>289.200000</ele>
        <time>2020-10-17T10:49:35Z</time>
      </trkpt>
      <trkpt lat="39.892757000" lon="-8.423833000">
        <ele>289.400000</ele>
        <time>2020-10-17T10:49:36Z</time>
      </trkpt>
      <trkpt lat="39.892738000" lon="-8.423815000">
        <ele>289.400000</ele>
        <time>2020-10-17T10:49:37Z</time>
      </trkpt>
      <trkpt lat="39.892711000" lon="-8.423800000">
        <ele>289.400000</ele>
        <time>2020-10-17T10:49:38Z</time>
      </trkpt>
      <trkpt lat="39.892689000" lon="-8.423801000">
        <ele>289.400000</ele>
        <time>2020-10-17T10:49:39Z</time>
      </trkpt>
      <trkpt lat="39.892660000" lon="-8.423796000">
        <ele>289.600000</ele>
        <time>2020-10-17T10:49:40Z</time>
      </trkpt>
      <trkpt lat="39.892645000" lon="-8.423796000">
        <ele>290.000000</ele>
        <time>2020-10-17T10:49:41Z</time>
      </trkpt>
      <trkpt lat="39.892615000" lon="-8.423786000">
        <ele>290.000000</ele>
        <time>2020-10-17T10:49:42Z</time>
      </trkpt>
      <trkpt lat="39.892592000" lon="-8.423785000">
        <ele>290.200000</ele>
        <time>2020-10-17T10:49:43Z</time>
      </trkpt>
      <trkpt lat="39.892561000" lon="-8.423783000">
        <ele>290.600000</ele>
        <time>2020-10-17T10:49:44Z</time>
      </trkpt>
      <trkpt lat="39.892533000" lon="-8.423787000">
        <ele>290.600000</ele>
        <time>2020-10-17T10:49:45Z</time>
      </trkpt>
      <trkpt lat="39.892501000" lon="-8.423790000">
        <ele>291.000000</ele>
        <time>2020-10-17T10:49:46Z</time>
      </trkpt>
      <trkpt lat="39.892470000" lon="-8.423795000">
        <ele>291.400000</ele>
        <time>2020-10-17T10:49:47Z</time>
      </trkpt>
      <trkpt lat="39.892441000" lon="-8.423800000">
        <ele>291.400000</ele>
        <time>2020-10-17T10:49:48Z</time>
      </trkpt>
      <trkpt lat="39.892412000" lon="-8.423806000">
        <ele>291.800000</ele>
        <time>2020-10-17T10:49:49Z</time>
      </trkpt>
      <trkpt lat="39.892383000" lon="-8.423805000">
        <ele>292.000000</ele>
        <time>2020-10-17T10:49:50Z</time>
      </trkpt>
      <trkpt lat="39.892352000" lon="-8.423802000">
        <ele>292.200000</ele>
        <time>2020-10-17T10:49:51Z</time>
      </trkpt>
      <trkpt lat="39.892317000" lon="-8.423802000">
        <ele>292.400000</ele>
        <time>2020-10-17T10:49:52Z</time>
      </trkpt>
      <trkpt lat="39.892286000" lon="-8.423797000">
        <ele>292.800000</ele>
        <time>2020-10-17T10:49:53Z</time>
      </trkpt>
      <trkpt lat="39.892258000" lon="-8.423788000">
        <ele>292.800000</ele>
        <time>2020-10-17T10:49:54Z</time>
      </trkpt>
      <trkpt lat="39.892226000" lon="-8.423781000">
        <ele>293.200000</ele>
        <time>2020-10-17T10:49:55Z</time>
      </trkpt>
      <trkpt lat="39.892198000" lon="-8.423776000">
        <ele>293.400000</ele>
        <time>2020-10-17T10:49:56Z</time>
      </trkpt>
      <trkpt lat="39.892166000" lon="-8.423766000">
        <ele>293.800000</ele>
        <time>2020-10-17T10:49:57Z</time>
      </trkpt>
      <trkpt lat="39.892139000" lon="-8.423753000">
        <ele>294.000000</ele>
        <time>2020-10-17T10:49:58Z</time>
      </trkpt>
      <trkpt lat="39.892115000" lon="-8.423746000">
        <ele>294.000000</ele>
        <time>2020-10-17T10:49:59Z</time>
      </trkpt>
      <trkpt lat="39.892091000" lon="-8.423738000">
        <ele>294.000000</ele>
        <time>2020-10-17T10:50:00Z</time>
      </trkpt>
      <trkpt lat="39.892069000" lon="-8.423732000">
        <ele>294.200000</ele>
        <time>2020-10-17T10:50:01Z</time>
      </trkpt>
      <trkpt lat="39.892038000" lon="-8.423715000">
        <ele>294.400000</ele>
        <time>2020-10-17T10:50:02Z</time>
      </trkpt>
      <trkpt lat="39.892023000" lon="-8.423700000">
        <ele>294.400000</ele>
        <time>2020-10-17T10:50:03Z</time>
      </trkpt>
      <trkpt lat="39.892003000" lon="-8.423689000">
        <ele>294.600000</ele>
        <time>2020-10-17T10:50:04Z</time>
      </trkpt>
      <trkpt lat="39.891994000" lon="-8.423679000">
        <ele>295.000000</ele>
        <time>2020-10-17T10:50:05Z</time>
      </trkpt>
      <trkpt lat="39.891992000" lon="-8.423663000">
        <ele>295.400000</ele>
        <time>2020-10-17T10:50:06Z</time>
      </trkpt>
      <trkpt lat="39.891981000" lon="-8.423650000">
        <ele>295.600000</ele>
        <time>2020-10-17T10:50:07Z</time>
      </trkpt>
      <trkpt lat="39.891972000" lon="-8.423639000">
        <ele>296.000000</ele>
        <time>2020-10-17T10:50:08Z</time>
      </trkpt>
      <trkpt lat="39.891966000" lon="-8.423627000">
        <ele>296.000000</ele>
        <time>2020-10-17T10:50:09Z</time>
      </trkpt>
      <trkpt lat="39.891960000" lon="-8.423618000">
        <ele>296.200000</ele>
        <time>2020-10-17T10:50:10Z</time>
      </trkpt>
      <trkpt lat="39.891957000" lon="-8.423610000">
        <ele>296.400000</ele>
        <time>2020-10-17T10:50:11Z</time>
      </trkpt>
      <trkpt lat="39.891961000" lon="-8.423597000">
        <ele>296.800000</ele>
        <time>2020-10-17T10:50:12Z</time>
      </trkpt>
      <trkpt lat="39.891954000" lon="-8.423584000">
        <ele>297.000000</ele>
        <time>2020-10-17T10:50:13Z</time>
      </trkpt>
      <trkpt lat="39.891946000" lon="-8.423575000">
        <ele>297.200000</ele>
        <time>2020-10-17T10:50:14Z</time>
      </trkpt>
      <trkpt lat="39.891938000" lon="-8.423565000">
        <ele>297.400000</ele>
        <time>2020-10-17T10:50:15Z</time>
      </trkpt>
      <trkpt lat="39.891927000" lon="-8.423555000">
        <ele>298.000000</ele>
        <time>2020-10-17T10:50:16Z</time>
      </trkpt>
      <trkpt lat="39.891918000" lon="-8.423547000">
        <ele>298.000000</ele>
        <time>2020-10-17T10:50:17Z</time>
      </trkpt>
      <trkpt lat="39.891910000" lon="-8.423538000">
        <ele>298.200000</ele>
        <time>2020-10-17T10:50:18Z</time>
      </trkpt>
      <trkpt lat="39.891907000" lon="-8.423523000">
        <ele>298.600000</ele>
        <time>2020-10-17T10:50:19Z</time>
      </trkpt>
      <trkpt lat="39.891900000" lon="-8.423506000">
        <ele>298.600000</ele>
        <time>2020-10-17T10:50:20Z</time>
      </trkpt>
      <trkpt lat="39.891894000" lon="-8.423490000">
        <ele>299.000000</ele>
        <time>2020-10-17T10:50:21Z</time>
      </trkpt>
      <trkpt lat="39.891888000" lon="-8.423475000">
        <ele>299.200000</ele>
        <time>2020-10-17T10:50:22Z</time>
      </trkpt>
      <trkpt lat="39.891887000" lon="-8.423460000">
        <ele>299.200000</ele>
        <time>2020-10-17T10:50:23Z</time>
      </trkpt>
      <trkpt lat="39.891881000" lon="-8.423447000">
        <ele>299.600000</ele>
        <time>2020-10-17T10:50:24Z</time>
      </trkpt>
      <trkpt lat="39.891876000" lon="-8.423432000">
        <ele>299.600000</ele>
        <time>2020-10-17T10:50:25Z</time>
      </trkpt>
      <trkpt lat="39.891871000" lon="-8.423419000">
        <ele>299.800000</ele>
        <time>2020-10-17T10:50:26Z</time>
      </trkpt>
      <trkpt lat="39.891868000" lon="-8.423406000">
        <ele>300.000000</ele>
        <time>2020-10-17T10:50:27Z</time>
      </trkpt>
      <trkpt lat="39.891865000" lon="-8.423394000">
        <ele>300.400000</ele>
        <time>2020-10-17T10:50:28Z</time>
      </trkpt>
      <trkpt lat="39.891861000" lon="-8.423379000">
        <ele>300.600000</ele>
        <time>2020-10-17T10:50:29Z</time>
      </trkpt>
      <trkpt lat="39.891855000" lon="-8.423364000">
        <ele>300.800000</ele>
        <time>2020-10-17T10:50:30Z</time>
      </trkpt>
      <trkpt lat="39.891853000" lon="-8.423348000">
        <ele>300.800000</ele>
        <time>2020-10-17T10:50:31Z</time>
      </trkpt>
      <trkpt lat="39.891853000" lon="-8.423335000">
        <ele>301.200000</ele>
        <time>2020-10-17T10:50:32Z</time>
      </trkpt>
      <trkpt lat="39.891852000" lon="-8.423320000">
        <ele>301.400000</ele>
        <time>2020-10-17T10:50:33Z</time>
      </trkpt>
      <trkpt lat="39.891849000" lon="-8.423305000">
        <ele>302.000000</ele>
        <time>2020-10-17T10:50:34Z</time>
      </trkpt>
      <trkpt lat="39.891846000" lon="-8.423289000">
        <ele>302.000000</ele>
        <time>2020-10-17T10:50:35Z</time>
      </trkpt>
      <trkpt lat="39.891847000" lon="-8.423276000">
        <ele>302.400000</ele>
        <time>2020-10-17T10:50:36Z</time>
      </trkpt>
      <trkpt lat="39.891846000" lon="-8.423260000">
        <ele>302.600000</ele>
        <time>2020-10-17T10:50:37Z</time>
      </trkpt>
      <trkpt lat="39.891848000" lon="-8.423246000">
        <ele>302.800000</ele>
        <time>2020-10-17T10:50:38Z</time>
      </trkpt>
      <trkpt lat="39.891849000" lon="-8.423233000">
        <ele>303.200000</ele>
        <time>2020-10-17T10:50:39Z</time>
      </trkpt>
      <trkpt lat="39.891850000" lon="-8.423219000">
        <ele>303.600000</ele>
        <time>2020-10-17T10:50:40Z</time>
      </trkpt>
      <trkpt lat="39.891850000" lon="-8.423206000">
        <ele>303.800000</ele>
        <time>2020-10-17T10:50:41Z</time>
      </trkpt>
      <trkpt lat="39.891850000" lon="-8.423195000">
        <ele>304.000000</ele>
        <time>2020-10-17T10:50:42Z</time>
      </trkpt>
      <trkpt lat="39.891849000" lon="-8.423184000">
        <ele>304.000000</ele>
        <time>2020-10-17T10:50:43Z</time>
      </trkpt>
      <trkpt lat="39.891848000" lon="-8.423172000">
        <ele>304.200000</ele>
        <time>2020-10-17T10:50:44Z</time>
      </trkpt>
      <trkpt lat="39.891848000" lon="-8.423159000">
        <ele>304.600000</ele>
        <time>2020-10-17T10:50:45Z</time>
      </trkpt>
      <trkpt lat="39.891847000" lon="-8.423144000">
        <ele>304.600000</ele>
        <time>2020-10-17T10:50:46Z</time>
      </trkpt>
      <trkpt lat="39.891846000" lon="-8.423127000">
        <ele>304.800000</ele>
        <time>2020-10-17T10:50:47Z</time>
      </trkpt>
      <trkpt lat="39.891844000" lon="-8.423110000">
        <ele>305.000000</ele>
        <time>2020-10-17T10:50:48Z</time>
      </trkpt>
      <trkpt lat="39.891842000" lon="-8.423090000">
        <ele>305.200000</ele>
        <time>2020-10-17T10:50:49Z</time>
      </trkpt>
      <trkpt lat="39.891841000" lon="-8.423071000">
        <ele>305.600000</ele>
        <time>2020-10-17T10:50:50Z</time>
      </trkpt>
      <trkpt lat="39.891841000" lon="-8.423052000">
        <ele>306.000000</ele>
        <time>2020-10-17T10:50:51Z</time>
      </trkpt>
      <trkpt lat="39.891842000" lon="-8.423034000">
        <ele>306.000000</ele>
        <time>2020-10-17T10:50:52Z</time>
      </trkpt>
      <trkpt lat="39.891843000" lon="-8.423018000">
        <ele>306.400000</ele>
        <time>2020-10-17T10:50:53Z</time>
      </trkpt>
      <trkpt lat="39.891845000" lon="-8.423003000">
        <ele>306.800000</ele>
        <time>2020-10-17T10:50:54Z</time>
      </trkpt>
      <trkpt lat="39.891844000" lon="-8.422986000">
        <ele>306.800000</ele>
        <time>2020-10-17T10:50:55Z</time>
      </trkpt>
      <trkpt lat="39.891844000" lon="-8.422970000">
        <ele>307.000000</ele>
        <time>2020-10-17T10:50:56Z</time>
      </trkpt>
      <trkpt lat="39.891842000" lon="-8.422952000">
        <ele>307.200000</ele>
        <time>2020-10-17T10:50:57Z</time>
      </trkpt>
      <trkpt lat="39.891841000" lon="-8.422933000">
        <ele>307.200000</ele>
        <time>2020-10-17T10:50:58Z</time>
      </trkpt>
      <trkpt lat="39.891843000" lon="-8.422913000">
        <ele>307.600000</ele>
        <time>2020-10-17T10:50:59Z</time>
      </trkpt>
      <trkpt lat="39.891845000" lon="-8.422894000">
        <ele>307.600000</ele>
        <time>2020-10-17T10:51:00Z</time>
      </trkpt>
      <trkpt lat="39.891848000" lon="-8.422874000">
        <ele>307.600000</ele>
        <time>2020-10-17T10:51:01Z</time>
      </trkpt>
      <trkpt lat="39.891852000" lon="-8.422856000">
        <ele>308.000000</ele>
        <time>2020-10-17T10:51:02Z</time>
      </trkpt>
      <trkpt lat="39.891861000" lon="-8.422836000">
        <ele>308.200000</ele>
        <time>2020-10-17T10:51:03Z</time>
      </trkpt>
      <trkpt lat="39.891868000" lon="-8.422819000">
        <ele>308.400000</ele>
        <time>2020-10-17T10:51:04Z</time>
      </trkpt>
      <trkpt lat="39.891872000" lon="-8.422801000">
        <ele>308.800000</ele>
        <time>2020-10-17T10:51:05Z</time>
      </trkpt>
      <trkpt lat="39.891873000" lon="-8.422780000">
        <ele>308.800000</ele>
        <time>2020-10-17T10:51:06Z</time>
      </trkpt>
      <trkpt lat="39.891875000" lon="-8.422765000">
        <ele>308.800000</ele>
        <time>2020-10-17T10:51:07Z</time>
      </trkpt>
      <trkpt lat="39.891874000" lon="-8.422749000">
        <ele>309.000000</ele>
        <time>2020-10-17T10:51:08Z</time>
      </trkpt>
      <trkpt lat="39.891873000" lon="-8.422732000">
        <ele>309.200000</ele>
        <time>2020-10-17T10:51:09Z</time>
      </trkpt>
      <trkpt lat="39.891872000" lon="-8.422714000">
        <ele>309.200000</ele>
        <time>2020-10-17T10:51:10Z</time>
      </trkpt>
      <trkpt lat="39.891872000" lon="-8.422693000">
        <ele>309.400000</ele>
        <time>2020-10-17T10:51:11Z</time>
      </trkpt>
      <trkpt lat="39.891872000" lon="-8.422673000">
        <ele>309.400000</ele>
        <time>2020-10-17T10:51:12Z</time>
      </trkpt>
      <trkpt lat="39.891872000" lon="-8.422653000">
        <ele>309.600000</ele>
        <time>2020-10-17T10:51:13Z</time>
      </trkpt>
      <trkpt lat="39.891871000" lon="-8.422636000">
        <ele>310.000000</ele>
        <time>2020-10-17T10:51:14Z</time>
      </trkpt>
      <trkpt lat="39.891869000" lon="-8.422617000">
        <ele>310.000000</ele>
        <time>2020-10-17T10:51:15Z</time>
      </trkpt>
      <trkpt lat="39.891868000" lon="-8.422598000">
        <ele>310.200000</ele>
        <time>2020-10-17T10:51:16Z</time>
      </trkpt>
      <trkpt lat="39.891869000" lon="-8.422581000">
        <ele>310.400000</ele>
        <time>2020-10-17T10:51:17Z</time>
      </trkpt>
      <trkpt lat="39.891870000" lon="-8.422565000">
        <ele>310.600000</ele>
        <time>2020-10-17T10:51:18Z</time>
      </trkpt>
      <trkpt lat="39.891872000" lon="-8.422548000">
        <ele>310.800000</ele>
        <time>2020-10-17T10:51:19Z</time>
      </trkpt>
      <trkpt lat="39.891876000" lon="-8.422530000">
        <ele>310.800000</ele>
        <time>2020-10-17T10:51:20Z</time>
      </trkpt>
      <trkpt lat="39.891879000" lon="-8.422511000">
        <ele>311.000000</ele>
        <time>2020-10-17T10:51:21Z</time>
      </trkpt>
      <trkpt lat="39.891881000" lon="-8.422493000">
        <ele>311.400000</ele>
        <time>2020-10-17T10:51:22Z</time>
      </trkpt>
      <trkpt lat="39.891882000" lon="-8.422475000">
        <ele>311.600000</ele>
        <time>2020-10-17T10:51:23Z</time>
      </trkpt>
      <trkpt lat="39.891884000" lon="-8.422456000">
        <ele>311.600000</ele>
        <time>2020-10-17T10:51:24Z</time>
      </trkpt>
      <trkpt lat="39.891885000" lon="-8.422436000">
        <ele>311.800000</ele>
        <time>2020-10-17T10:51:25Z</time>
      </trkpt>
      <trkpt lat="39.891887000" lon="-8.422420000">
        <ele>311.800000</ele>
        <time>2020-10-17T10:51:26Z</time>
      </trkpt>
      <trkpt lat="39.891888000" lon="-8.422403000">
        <ele>312.200000</ele>
        <time>2020-10-17T10:51:27Z</time>
      </trkpt>
      <trkpt lat="39.891887000" lon="-8.422387000">
        <ele>312.200000</ele>
        <time>2020-10-17T10:51:28Z</time>
      </trkpt>
      <trkpt lat="39.891886000" lon="-8.422371000">
        <ele>312.400000</ele>
        <time>2020-10-17T10:51:29Z</time>
      </trkpt>
      <trkpt lat="39.891886000" lon="-8.422356000">
        <ele>312.400000</ele>
        <time>2020-10-17T10:51:30Z</time>
      </trkpt>
      <trkpt lat="39.891887000" lon="-8.422340000">
        <ele>312.600000</ele>
        <time>2020-10-17T10:51:31Z</time>
      </trkpt>
      <trkpt lat="39.891888000" lon="-8.422323000">
        <ele>313.000000</ele>
        <time>2020-10-17T10:51:32Z</time>
      </trkpt>
      <trkpt lat="39.891892000" lon="-8.422304000">
        <ele>313.200000</ele>
        <time>2020-10-17T10:51:33Z</time>
      </trkpt>
      <trkpt lat="39.891895000" lon="-8.422284000">
        <ele>313.200000</ele>
        <time>2020-10-17T10:51:34Z</time>
      </trkpt>
      <trkpt lat="39.891896000" lon="-8.422266000">
        <ele>313.400000</ele>
        <time>2020-10-17T10:51:35Z</time>
      </trkpt>
      <trkpt lat="39.891896000" lon="-8.422248000">
        <ele>313.600000</ele>
        <time>2020-10-17T10:51:36Z</time>
      </trkpt>
      <trkpt lat="39.891898000" lon="-8.422229000">
        <ele>313.800000</ele>
        <time>2020-10-17T10:51:37Z</time>
      </trkpt>
      <trkpt lat="39.891899000" lon="-8.422210000">
        <ele>314.000000</ele>
        <time>2020-10-17T10:51:38Z</time>
      </trkpt>
      <trkpt lat="39.891898000" lon="-8.422191000">
        <ele>314.200000</ele>
        <time>2020-10-17T10:51:39Z</time>
      </trkpt>
      <trkpt lat="39.891895000" lon="-8.422175000">
        <ele>314.400000</ele>
        <time>2020-10-17T10:51:40Z</time>
      </trkpt>
      <trkpt lat="39.891893000" lon="-8.422159000">
        <ele>314.800000</ele>
        <time>2020-10-17T10:51:41Z</time>
      </trkpt>
      <trkpt lat="39.891894000" lon="-8.422143000">
        <ele>314.800000</ele>
        <time>2020-10-17T10:51:42Z</time>
      </trkpt>
      <trkpt lat="39.891892000" lon="-8.422128000">
        <ele>315.000000</ele>
        <time>2020-10-17T10:51:43Z</time>
      </trkpt>
      <trkpt lat="39.891890000" lon="-8.422114000">
        <ele>315.000000</ele>
        <time>2020-10-17T10:51:44Z</time>
      </trkpt>
      <trkpt lat="39.891887000" lon="-8.422098000">
        <ele>315.200000</ele>
        <time>2020-10-17T10:51:45Z</time>
      </trkpt>
      <trkpt lat="39.891885000" lon="-8.422083000">
        <ele>315.400000</ele>
        <time>2020-10-17T10:51:46Z</time>
      </trkpt>
      <trkpt lat="39.891881000" lon="-8.422068000">
        <ele>315.400000</ele>
        <time>2020-10-17T10:51:47Z</time>
      </trkpt>
      <trkpt lat="39.891875000" lon="-8.422051000">
        <ele>315.600000</ele>
        <time>2020-10-17T10:51:48Z</time>
      </trkpt>
      <trkpt lat="39.891870000" lon="-8.422034000">
        <ele>315.800000</ele>
        <time>2020-10-17T10:51:49Z</time>
      </trkpt>
      <trkpt lat="39.891863000" lon="-8.422020000">
        <ele>315.800000</ele>
        <time>2020-10-17T10:51:50Z</time>
      </trkpt>
      <trkpt lat="39.891858000" lon="-8.422008000">
        <ele>316.000000</ele>
        <time>2020-10-17T10:51:51Z</time>
      </trkpt>
      <trkpt lat="39.891854000" lon="-8.421995000">
        <ele>316.200000</ele>
        <time>2020-10-17T10:51:52Z</time>
      </trkpt>
      <trkpt lat="39.891850000" lon="-8.421982000">
        <ele>316.400000</ele>
        <time>2020-10-17T10:51:53Z</time>
      </trkpt>
      <trkpt lat="39.891845000" lon="-8.421968000">
        <ele>316.600000</ele>
        <time>2020-10-17T10:51:54Z</time>
      </trkpt>
      <trkpt lat="39.891839000" lon="-8.421954000">
        <ele>316.800000</ele>
        <time>2020-10-17T10:51:55Z</time>
      </trkpt>
      <trkpt lat="39.891833000" lon="-8.421937000">
        <ele>317.000000</ele>
        <time>2020-10-17T10:51:56Z</time>
      </trkpt>
      <trkpt lat="39.891827000" lon="-8.421921000">
        <ele>317.200000</ele>
        <time>2020-10-17T10:51:57Z</time>
      </trkpt>
      <trkpt lat="39.891821000" lon="-8.421904000">
        <ele>317.400000</ele>
        <time>2020-10-17T10:51:58Z</time>
      </trkpt>
      <trkpt lat="39.891814000" lon="-8.421888000">
        <ele>317.800000</ele>
        <time>2020-10-17T10:51:59Z</time>
      </trkpt>
      <trkpt lat="39.891808000" lon="-8.421874000">
        <ele>318.200000</ele>
        <time>2020-10-17T10:52:00Z</time>
      </trkpt>
      <trkpt lat="39.891800000" lon="-8.421863000">
        <ele>318.400000</ele>
        <time>2020-10-17T10:52:01Z</time>
      </trkpt>
      <trkpt lat="39.891794000" lon="-8.421850000">
        <ele>318.400000</ele>
        <time>2020-10-17T10:52:02Z</time>
      </trkpt>
      <trkpt lat="39.891787000" lon="-8.421835000">
        <ele>318.600000</ele>
        <time>2020-10-17T10:52:03Z</time>
      </trkpt>
      <trkpt lat="39.891780000" lon="-8.421821000">
        <ele>319.000000</ele>
        <time>2020-10-17T10:52:04Z</time>
      </trkpt>
      <trkpt lat="39.891772000" lon="-8.421806000">
        <ele>319.200000</ele>
        <time>2020-10-17T10:52:05Z</time>
      </trkpt>
      <trkpt lat="39.891764000" lon="-8.421792000">
        <ele>319.400000</ele>
        <time>2020-10-17T10:52:06Z</time>
      </trkpt>
      <trkpt lat="39.891757000" lon="-8.421779000">
        <ele>319.400000</ele>
        <time>2020-10-17T10:52:07Z</time>
      </trkpt>
      <trkpt lat="39.891749000" lon="-8.421769000">
        <ele>319.600000</ele>
        <time>2020-10-17T10:52:08Z</time>
      </trkpt>
      <trkpt lat="39.891739000" lon="-8.421758000">
        <ele>319.800000</ele>
        <time>2020-10-17T10:52:09Z</time>
      </trkpt>
      <trkpt lat="39.891727000" lon="-8.421750000">
        <ele>320.000000</ele>
        <time>2020-10-17T10:52:10Z</time>
      </trkpt>
      <trkpt lat="39.891715000" lon="-8.421739000">
        <ele>320.000000</ele>
        <time>2020-10-17T10:52:11Z</time>
      </trkpt>
      <trkpt lat="39.891706000" lon="-8.421729000">
        <ele>320.200000</ele>
        <time>2020-10-17T10:52:12Z</time>
      </trkpt>
      <trkpt lat="39.891695000" lon="-8.421717000">
        <ele>320.200000</ele>
        <time>2020-10-17T10:52:13Z</time>
      </trkpt>
      <trkpt lat="39.891684000" lon="-8.421710000">
        <ele>320.600000</ele>
        <time>2020-10-17T10:52:14Z</time>
      </trkpt>
      <trkpt lat="39.891674000" lon="-8.421703000">
        <ele>320.800000</ele>
        <time>2020-10-17T10:52:15Z</time>
      </trkpt>
      <trkpt lat="39.891663000" lon="-8.421696000">
        <ele>321.000000</ele>
        <time>2020-10-17T10:52:16Z</time>
      </trkpt>
      <trkpt lat="39.891654000" lon="-8.421690000">
        <ele>321.200000</ele>
        <time>2020-10-17T10:52:17Z</time>
      </trkpt>
      <trkpt lat="39.891643000" lon="-8.421684000">
        <ele>321.200000</ele>
        <time>2020-10-17T10:52:18Z</time>
      </trkpt>
      <trkpt lat="39.891629000" lon="-8.421675000">
        <ele>321.400000</ele>
        <time>2020-10-17T10:52:19Z</time>
      </trkpt>
      <trkpt lat="39.891616000" lon="-8.421667000">
        <ele>321.600000</ele>
        <time>2020-10-17T10:52:20Z</time>
      </trkpt>
      <trkpt lat="39.891603000" lon="-8.421659000">
        <ele>321.600000</ele>
        <time>2020-10-17T10:52:21Z</time>
      </trkpt>
      <trkpt lat="39.891591000" lon="-8.421651000">
        <ele>321.800000</ele>
        <time>2020-10-17T10:52:22Z</time>
      </trkpt>
      <trkpt lat="39.891579000" lon="-8.421638000">
        <ele>322.200000</ele>
        <time>2020-10-17T10:52:23Z</time>
      </trkpt>
      <trkpt lat="39.891569000" lon="-8.421631000">
        <ele>322.400000</ele>
        <time>2020-10-17T10:52:24Z</time>
      </trkpt>
      <trkpt lat="39.891558000" lon="-8.421624000">
        <ele>322.600000</ele>
        <time>2020-10-17T10:52:25Z</time>
      </trkpt>
      <trkpt lat="39.891543000" lon="-8.421614000">
        <ele>322.800000</ele>
        <time>2020-10-17T10:52:26Z</time>
      </trkpt>
      <trkpt lat="39.891532000" lon="-8.421603000">
        <ele>323.000000</ele>
        <time>2020-10-17T10:52:27Z</time>
      </trkpt>
      <trkpt lat="39.891532000" lon="-8.421603000">
        <ele>323.000000</ele>
        <time>2020-10-17T10:52:28Z</time>
      </trkpt>
      <trkpt lat="39.891520000" lon="-8.421592000">
        <ele>323.200000</ele>
        <time>2020-10-17T10:52:29Z</time>
      </trkpt>
      <trkpt lat="39.891496000" lon="-8.421568000">
        <ele>323.200000</ele>
        <time>2020-10-17T10:52:30Z</time>
      </trkpt>
      <trkpt lat="39.891496000" lon="-8.421568000">
        <ele>323.400000</ele>
        <time>2020-10-17T10:52:31Z</time>
      </trkpt>
      <trkpt lat="39.891474000" lon="-8.421538000">
        <ele>323.400000</ele>
        <time>2020-10-17T10:52:32Z</time>
      </trkpt>
      <trkpt lat="39.891463000" lon="-8.421525000">
        <ele>323.800000</ele>
        <time>2020-10-17T10:52:33Z</time>
      </trkpt>
      <trkpt lat="39.891452000" lon="-8.421512000">
        <ele>324.000000</ele>
        <time>2020-10-17T10:52:34Z</time>
      </trkpt>
      <trkpt lat="39.891439000" lon="-8.421501000">
        <ele>324.200000</ele>
        <time>2020-10-17T10:52:35Z</time>
      </trkpt>
      <trkpt lat="39.891431000" lon="-8.421491000">
        <ele>324.400000</ele>
        <time>2020-10-17T10:52:36Z</time>
      </trkpt>
      <trkpt lat="39.891417000" lon="-8.421472000">
        <ele>324.600000</ele>
        <time>2020-10-17T10:52:37Z</time>
      </trkpt>
      <trkpt lat="39.891405000" lon="-8.421461000">
        <ele>324.800000</ele>
        <time>2020-10-17T10:52:38Z</time>
      </trkpt>
      <trkpt lat="39.891392000" lon="-8.421452000">
        <ele>325.200000</ele>
        <time>2020-10-17T10:52:39Z</time>
      </trkpt>
      <trkpt lat="39.891382000" lon="-8.421445000">
        <ele>325.200000</ele>
        <time>2020-10-17T10:52:40Z</time>
      </trkpt>
      <trkpt lat="39.891371000" lon="-8.421438000">
        <ele>325.600000</ele>
        <time>2020-10-17T10:52:41Z</time>
      </trkpt>
      <trkpt lat="39.891360000" lon="-8.421433000">
        <ele>325.800000</ele>
        <time>2020-10-17T10:52:42Z</time>
      </trkpt>
      <trkpt lat="39.891351000" lon="-8.421427000">
        <ele>326.000000</ele>
        <time>2020-10-17T10:52:43Z</time>
      </trkpt>
      <trkpt lat="39.891340000" lon="-8.421419000">
        <ele>326.400000</ele>
        <time>2020-10-17T10:52:44Z</time>
      </trkpt>
      <trkpt lat="39.891329000" lon="-8.421411000">
        <ele>326.600000</ele>
        <time>2020-10-17T10:52:45Z</time>
      </trkpt>
      <trkpt lat="39.891314000" lon="-8.421395000">
        <ele>326.800000</ele>
        <time>2020-10-17T10:52:46Z</time>
      </trkpt>
      <trkpt lat="39.891301000" lon="-8.421382000">
        <ele>326.800000</ele>
        <time>2020-10-17T10:52:47Z</time>
      </trkpt>
      <trkpt lat="39.891291000" lon="-8.421370000">
        <ele>327.200000</ele>
        <time>2020-10-17T10:52:48Z</time>
      </trkpt>
      <trkpt lat="39.891280000" lon="-8.421359000">
        <ele>327.200000</ele>
        <time>2020-10-17T10:52:49Z</time>
      </trkpt>
      <trkpt lat="39.891268000" lon="-8.421347000">
        <ele>327.600000</ele>
        <time>2020-10-17T10:52:50Z</time>
      </trkpt>
      <trkpt lat="39.891260000" lon="-8.421338000">
        <ele>327.600000</ele>
        <time>2020-10-17T10:52:51Z</time>
      </trkpt>
      <trkpt lat="39.891252000" lon="-8.421329000">
        <ele>328.000000</ele>
        <time>2020-10-17T10:52:52Z</time>
      </trkpt>
      <trkpt lat="39.891243000" lon="-8.421320000">
        <ele>328.000000</ele>
        <time>2020-10-17T10:52:53Z</time>
      </trkpt>
      <trkpt lat="39.891232000" lon="-8.421313000">
        <ele>328.200000</ele>
        <time>2020-10-17T10:52:54Z</time>
      </trkpt>
      <trkpt lat="39.891220000" lon="-8.421303000">
        <ele>328.400000</ele>
        <time>2020-10-17T10:52:55Z</time>
      </trkpt>
      <trkpt lat="39.891213000" lon="-8.421292000">
        <ele>328.600000</ele>
        <time>2020-10-17T10:52:56Z</time>
      </trkpt>
      <trkpt lat="39.891206000" lon="-8.421279000">
        <ele>328.800000</ele>
        <time>2020-10-17T10:52:57Z</time>
      </trkpt>
      <trkpt lat="39.891206000" lon="-8.421279000">
        <ele>329.200000</ele>
        <time>2020-10-17T10:52:58Z</time>
      </trkpt>
      <trkpt lat="39.891190000" lon="-8.421248000">
        <ele>329.200000</ele>
        <time>2020-10-17T10:52:59Z</time>
      </trkpt>
      <trkpt lat="39.891184000" lon="-8.421235000">
        <ele>329.400000</ele>
        <time>2020-10-17T10:53:00Z</time>
      </trkpt>
      <trkpt lat="39.891177000" lon="-8.421220000">
        <ele>329.800000</ele>
        <time>2020-10-17T10:53:01Z</time>
      </trkpt>
      <trkpt lat="39.891171000" lon="-8.421203000">
        <ele>330.000000</ele>
        <time>2020-10-17T10:53:02Z</time>
      </trkpt>
      <trkpt lat="39.891164000" lon="-8.421189000">
        <ele>330.000000</ele>
        <time>2020-10-17T10:53:03Z</time>
      </trkpt>
      <trkpt lat="39.891164000" lon="-8.421189000">
        <ele>330.600000</ele>
        <time>2020-10-17T10:53:04Z</time>
      </trkpt>
      <trkpt lat="39.891147000" lon="-8.421165000">
        <ele>330.800000</ele>
        <time>2020-10-17T10:53:05Z</time>
      </trkpt>
      <trkpt lat="39.891136000" lon="-8.421152000">
        <ele>331.000000</ele>
        <time>2020-10-17T10:53:06Z</time>
      </trkpt>
      <trkpt lat="39.891136000" lon="-8.421152000">
        <ele>331.400000</ele>
        <time>2020-10-17T10:53:07Z</time>
      </trkpt>
      <trkpt lat="39.891121000" lon="-8.421127000">
        <ele>331.600000</ele>
        <time>2020-10-17T10:53:08Z</time>
      </trkpt>
      <trkpt lat="39.891116000" lon="-8.421114000">
        <ele>331.800000</ele>
        <time>2020-10-17T10:53:09Z</time>
      </trkpt>
      <trkpt lat="39.891110000" lon="-8.421101000">
        <ele>332.200000</ele>
        <time>2020-10-17T10:53:10Z</time>
      </trkpt>
      <trkpt lat="39.891100000" lon="-8.421089000">
        <ele>332.600000</ele>
        <time>2020-10-17T10:53:11Z</time>
      </trkpt>
      <trkpt lat="39.891090000" lon="-8.421077000">
        <ele>332.600000</ele>
        <time>2020-10-17T10:53:12Z</time>
      </trkpt>
      <trkpt lat="39.891081000" lon="-8.421067000">
        <ele>333.000000</ele>
        <time>2020-10-17T10:53:13Z</time>
      </trkpt>
      <trkpt lat="39.891072000" lon="-8.421054000">
        <ele>333.200000</ele>
        <time>2020-10-17T10:53:14Z</time>
      </trkpt>
      <trkpt lat="39.891062000" lon="-8.421042000">
        <ele>333.200000</ele>
        <time>2020-10-17T10:53:15Z</time>
      </trkpt>
      <trkpt lat="39.891052000" lon="-8.421030000">
        <ele>333.400000</ele>
        <time>2020-10-17T10:53:16Z</time>
      </trkpt>
      <trkpt lat="39.891045000" lon="-8.421017000">
        <ele>333.600000</ele>
        <time>2020-10-17T10:53:17Z</time>
      </trkpt>
      <trkpt lat="39.891037000" lon="-8.421005000">
        <ele>333.800000</ele>
        <time>2020-10-17T10:53:18Z</time>
      </trkpt>
      <trkpt lat="39.891027000" lon="-8.420994000">
        <ele>334.000000</ele>
        <time>2020-10-17T10:53:19Z</time>
      </trkpt>
      <trkpt lat="39.891017000" lon="-8.420983000">
        <ele>334.200000</ele>
        <time>2020-10-17T10:53:20Z</time>
      </trkpt>
      <trkpt lat="39.891008000" lon="-8.420972000">
        <ele>334.400000</ele>
        <time>2020-10-17T10:53:21Z</time>
      </trkpt>
      <trkpt lat="39.891000000" lon="-8.420960000">
        <ele>334.400000</ele>
        <time>2020-10-17T10:53:22Z</time>
      </trkpt>
      <trkpt lat="39.890995000" lon="-8.420945000">
        <ele>334.800000</ele>
        <time>2020-10-17T10:53:23Z</time>
      </trkpt>
      <trkpt lat="39.890986000" lon="-8.420930000">
        <ele>335.000000</ele>
        <time>2020-10-17T10:53:24Z</time>
      </trkpt>
      <trkpt lat="39.890975000" lon="-8.420919000">
        <ele>335.000000</ele>
        <time>2020-10-17T10:53:25Z</time>
      </trkpt>
      <trkpt lat="39.890966000" lon="-8.420913000">
        <ele>335.200000</ele>
        <time>2020-10-17T10:53:26Z</time>
      </trkpt>
      <trkpt lat="39.890957000" lon="-8.420906000">
        <ele>335.400000</ele>
        <time>2020-10-17T10:53:27Z</time>
      </trkpt>
      <trkpt lat="39.890948000" lon="-8.420900000">
        <ele>335.600000</ele>
        <time>2020-10-17T10:53:28Z</time>
      </trkpt>
      <trkpt lat="39.890937000" lon="-8.420892000">
        <ele>335.800000</ele>
        <time>2020-10-17T10:53:29Z</time>
      </trkpt>
      <trkpt lat="39.890921000" lon="-8.420881000">
        <ele>336.000000</ele>
        <time>2020-10-17T10:53:30Z</time>
      </trkpt>
      <trkpt lat="39.890907000" lon="-8.420875000">
        <ele>336.000000</ele>
        <time>2020-10-17T10:53:31Z</time>
      </trkpt>
      <trkpt lat="39.890894000" lon="-8.420868000">
        <ele>336.000000</ele>
        <time>2020-10-17T10:53:32Z</time>
      </trkpt>
      <trkpt lat="39.890894000" lon="-8.420868000">
        <ele>336.200000</ele>
        <time>2020-10-17T10:53:33Z</time>
      </trkpt>
      <trkpt lat="39.890883000" lon="-8.420862000">
        <ele>336.200000</ele>
        <time>2020-10-17T10:53:34Z</time>
      </trkpt>
      <trkpt lat="39.890862000" lon="-8.420860000">
        <ele>336.600000</ele>
        <time>2020-10-17T10:53:35Z</time>
      </trkpt>
      <trkpt lat="39.890853000" lon="-8.420862000">
        <ele>336.600000</ele>
        <time>2020-10-17T10:53:36Z</time>
      </trkpt>
      <trkpt lat="39.890843000" lon="-8.420866000">
        <ele>336.800000</ele>
        <time>2020-10-17T10:53:37Z</time>
      </trkpt>
      <trkpt lat="39.890831000" lon="-8.420869000">
        <ele>336.800000</ele>
        <time>2020-10-17T10:53:38Z</time>
      </trkpt>
      <trkpt lat="39.890820000" lon="-8.420871000">
        <ele>337.000000</ele>
        <time>2020-10-17T10:53:39Z</time>
      </trkpt>
      <trkpt lat="39.890810000" lon="-8.420873000">
        <ele>337.200000</ele>
        <time>2020-10-17T10:53:40Z</time>
      </trkpt>
      <trkpt lat="39.890801000" lon="-8.420877000">
        <ele>337.400000</ele>
        <time>2020-10-17T10:53:41Z</time>
      </trkpt>
      <trkpt lat="39.890791000" lon="-8.420882000">
        <ele>337.800000</ele>
        <time>2020-10-17T10:53:42Z</time>
      </trkpt>
      <trkpt lat="39.890780000" lon="-8.420885000">
        <ele>338.000000</ele>
        <time>2020-10-17T10:53:43Z</time>
      </trkpt>
      <trkpt lat="39.890770000" lon="-8.420887000">
        <ele>338.200000</ele>
        <time>2020-10-17T10:53:44Z</time>
      </trkpt>
      <trkpt lat="39.890765000" lon="-8.420889000">
        <ele>338.200000</ele>
        <time>2020-10-17T10:53:45Z</time>
      </trkpt>
      <trkpt lat="39.890770000" lon="-8.420890000">
        <ele>338.600000</ele>
        <time>2020-10-17T10:53:46Z</time>
      </trkpt>
      <trkpt lat="39.890516000" lon="-8.420748000">
        <ele>344.400000</ele>
        <time>2020-10-17T10:54:49Z</time>
      </trkpt>
      <trkpt lat="39.890473000" lon="-8.420699000">
        <ele>345.000000</ele>
        <time>2020-10-17T10:54:52Z</time>
      </trkpt>
      <trkpt lat="39.890335000" lon="-8.420574000">
        <ele>346.000000</ele>
        <time>2020-10-17T10:54:59Z</time>
      </trkpt>
      <trkpt lat="39.890298000" lon="-8.420529000">
        <ele>346.000000</ele>
        <time>2020-10-17T10:55:01Z</time>
      </trkpt>
      <trkpt lat="39.890280000" lon="-8.420501000">
        <ele>346.200000</ele>
        <time>2020-10-17T10:55:02Z</time>
      </trkpt>
      <trkpt lat="39.890226000" lon="-8.420391000">
        <ele>346.200000</ele>
        <time>2020-10-17T10:55:05Z</time>
      </trkpt>
      <trkpt lat="39.890138000" lon="-8.420134000">
        <ele>346.000000</ele>
        <time>2020-10-17T10:55:11Z</time>
      </trkpt>
      <trkpt lat="39.890131000" lon="-8.420082000">
        <ele>346.200000</ele>
        <time>2020-10-17T10:55:12Z</time>
      </trkpt>
      <trkpt lat="39.890123000" lon="-8.420031000">
        <ele>346.200000</ele>
        <time>2020-10-17T10:55:13Z</time>
      </trkpt>
      <trkpt lat="39.890118000" lon="-8.419978000">
        <ele>346.200000</ele>
        <time>2020-10-17T10:55:14Z</time>
      </trkpt>
      <trkpt lat="39.890113000" lon="-8.419927000">
        <ele>346.000000</ele>
        <time>2020-10-17T10:55:15Z</time>
      </trkpt>
      <trkpt lat="39.890110000" lon="-8.419876000">
        <ele>346.200000</ele>
        <time>2020-10-17T10:55:16Z</time>
      </trkpt>
      <trkpt lat="39.890103000" lon="-8.419830000">
        <ele>346.000000</ele>
        <time>2020-10-17T10:55:17Z</time>
      </trkpt>
      <trkpt lat="39.890092000" lon="-8.419791000">
        <ele>346.000000</ele>
        <time>2020-10-17T10:55:18Z</time>
      </trkpt>
      <trkpt lat="39.890075000" lon="-8.419760000">
        <ele>346.000000</ele>
        <time>2020-10-17T10:55:19Z</time>
      </trkpt>
      <trkpt lat="39.890044000" lon="-8.419728000">
        <ele>345.800000</ele>
        <time>2020-10-17T10:55:20Z</time>
      </trkpt>
      <trkpt lat="39.890011000" lon="-8.419716000">
        <ele>345.600000</ele>
        <time>2020-10-17T10:55:21Z</time>
      </trkpt>
      <trkpt lat="39.889976000" lon="-8.419711000">
        <ele>345.400000</ele>
        <time>2020-10-17T10:55:22Z</time>
      </trkpt>
      <trkpt lat="39.889914000" lon="-8.419717000">
        <ele>345.200000</ele>
        <time>2020-10-17T10:55:24Z</time>
      </trkpt>
      <trkpt lat="39.889888000" lon="-8.419725000">
        <ele>345.000000</ele>
        <time>2020-10-17T10:55:25Z</time>
      </trkpt>
      <trkpt lat="39.889864000" lon="-8.419734000">
        <ele>345.000000</ele>
        <time>2020-10-17T10:55:26Z</time>
      </trkpt>
      <trkpt lat="39.889844000" lon="-8.419739000">
        <ele>345.000000</ele>
        <time>2020-10-17T10:55:27Z</time>
      </trkpt>
      <trkpt lat="39.889830000" lon="-8.419737000">
        <ele>345.000000</ele>
        <time>2020-10-17T10:55:28Z</time>
      </trkpt>
      <trkpt lat="39.889822000" lon="-8.419733000">
        <ele>344.600000</ele>
        <time>2020-10-17T10:55:30Z</time>
      </trkpt>
      <trkpt lat="39.889746000" lon="-8.419712000">
        <ele>344.200000</ele>
        <time>2020-10-17T10:57:49Z</time>
      </trkpt>
      <trkpt lat="39.889724000" lon="-8.419707000">
        <ele>344.000000</ele>
        <time>2020-10-17T10:57:50Z</time>
      </trkpt>
      <trkpt lat="39.889610000" lon="-8.419658000">
        <ele>344.000000</ele>
        <time>2020-10-17T10:57:55Z</time>
      </trkpt>
      <trkpt lat="39.889591000" lon="-8.419649000">
        <ele>344.000000</ele>
        <time>2020-10-17T10:57:56Z</time>
      </trkpt>
      <trkpt lat="39.889576000" lon="-8.419640000">
        <ele>344.000000</ele>
        <time>2020-10-17T10:57:57Z</time>
      </trkpt>
      <trkpt lat="39.889543000" lon="-8.419624000">
        <ele>344.000000</ele>
        <time>2020-10-17T10:57:58Z</time>
      </trkpt>
      <trkpt lat="39.889475000" lon="-8.419593000">
        <ele>343.800000</ele>
        <time>2020-10-17T10:58:00Z</time>
      </trkpt>
      <trkpt lat="39.889326000" lon="-8.419529000">
        <ele>343.800000</ele>
        <time>2020-10-17T10:58:04Z</time>
      </trkpt>
      <trkpt lat="39.889252000" lon="-8.419497000">
        <ele>343.400000</ele>
        <time>2020-10-17T10:58:06Z</time>
      </trkpt>
      <trkpt lat="39.889212000" lon="-8.419494000">
        <ele>343.200000</ele>
        <time>2020-10-17T10:58:07Z</time>
      </trkpt>
      <trkpt lat="39.889168000" lon="-8.419502000">
        <ele>343.200000</ele>
        <time>2020-10-17T10:58:08Z</time>
      </trkpt>
      <trkpt lat="39.889116000" lon="-8.419516000">
        <ele>343.000000</ele>
        <time>2020-10-17T10:58:09Z</time>
      </trkpt>
      <trkpt lat="39.889063000" lon="-8.419535000">
        <ele>343.000000</ele>
        <time>2020-10-17T10:58:10Z</time>
      </trkpt>
      <trkpt lat="39.889012000" lon="-8.419563000">
        <ele>343.000000</ele>
        <time>2020-10-17T10:58:11Z</time>
      </trkpt>
      <trkpt lat="39.888931000" lon="-8.419645000">
        <ele>342.600000</ele>
        <time>2020-10-17T10:58:13Z</time>
      </trkpt>
      <trkpt lat="39.888885000" lon="-8.419702000">
        <ele>342.400000</ele>
        <time>2020-10-17T10:58:14Z</time>
      </trkpt>
      <trkpt lat="39.888779000" lon="-8.419821000">
        <ele>342.400000</ele>
        <time>2020-10-17T10:58:16Z</time>
      </trkpt>
      <trkpt lat="39.888587000" lon="-8.419986000">
        <ele>341.400000</ele>
        <time>2020-10-17T10:58:19Z</time>
      </trkpt>
      <trkpt lat="39.888535000" lon="-8.420047000">
        <ele>341.000000</ele>
        <time>2020-10-17T10:58:20Z</time>
      </trkpt>
      <trkpt lat="39.888488000" lon="-8.420112000">
        <ele>340.600000</ele>
        <time>2020-10-17T10:58:21Z</time>
      </trkpt>
      <trkpt lat="39.888439000" lon="-8.420173000">
        <ele>340.200000</ele>
        <time>2020-10-17T10:58:22Z</time>
      </trkpt>
      <trkpt lat="39.888383000" lon="-8.420224000">
        <ele>339.600000</ele>
        <time>2020-10-17T10:58:23Z</time>
      </trkpt>
      <trkpt lat="39.888325000" lon="-8.420272000">
        <ele>339.000000</ele>
        <time>2020-10-17T10:58:24Z</time>
      </trkpt>
      <trkpt lat="39.888213000" lon="-8.420370000">
        <ele>337.200000</ele>
        <time>2020-10-17T10:58:26Z</time>
      </trkpt>
      <trkpt lat="39.888157000" lon="-8.420428000">
        <ele>337.000000</ele>
        <time>2020-10-17T10:58:27Z</time>
      </trkpt>
      <trkpt lat="39.887972000" lon="-8.420701000">
        <ele>335.000000</ele>
        <time>2020-10-17T10:58:31Z</time>
      </trkpt>
      <trkpt lat="39.887929000" lon="-8.420741000">
        <ele>334.800000</ele>
        <time>2020-10-17T10:58:32Z</time>
      </trkpt>
      <trkpt lat="39.887886000" lon="-8.420775000">
        <ele>334.600000</ele>
        <time>2020-10-17T10:58:33Z</time>
      </trkpt>
      <trkpt lat="39.887845000" lon="-8.420814000">
        <ele>334.000000</ele>
        <time>2020-10-17T10:58:34Z</time>
      </trkpt>
      <trkpt lat="39.887658000" lon="-8.421024000">
        <ele>332.000000</ele>
        <time>2020-10-17T10:58:38Z</time>
      </trkpt>
      <trkpt lat="39.887438000" lon="-8.421383000">
        <ele>331.400000</ele>
        <time>2020-10-17T10:58:43Z</time>
      </trkpt>
      <trkpt lat="39.887400000" lon="-8.421454000">
        <ele>331.400000</ele>
        <time>2020-10-17T10:58:44Z</time>
      </trkpt>
      <trkpt lat="39.887366000" lon="-8.421519000">
        <ele>331.400000</ele>
        <time>2020-10-17T10:58:45Z</time>
      </trkpt>
      <trkpt lat="39.887327000" lon="-8.421568000">
        <ele>331.000000</ele>
        <time>2020-10-17T10:58:46Z</time>
      </trkpt>
      <trkpt lat="39.887281000" lon="-8.421600000">
        <ele>330.400000</ele>
        <time>2020-10-17T10:58:47Z</time>
      </trkpt>
      <trkpt lat="39.887232000" lon="-8.421626000">
        <ele>330.000000</ele>
        <time>2020-10-17T10:58:48Z</time>
      </trkpt>
      <trkpt lat="39.887181000" lon="-8.421652000">
        <ele>329.800000</ele>
        <time>2020-10-17T10:58:49Z</time>
      </trkpt>
      <trkpt lat="39.887126000" lon="-8.421681000">
        <ele>329.800000</ele>
        <time>2020-10-17T10:58:50Z</time>
      </trkpt>
      <trkpt lat="39.887014000" lon="-8.421755000">
        <ele>329.600000</ele>
        <time>2020-10-17T10:58:52Z</time>
      </trkpt>
      <trkpt lat="39.886956000" lon="-8.421796000">
        <ele>329.400000</ele>
        <time>2020-10-17T10:58:53Z</time>
      </trkpt>
      <trkpt lat="39.886899000" lon="-8.421841000">
        <ele>329.200000</ele>
        <time>2020-10-17T10:58:54Z</time>
      </trkpt>
      <trkpt lat="39.886800000" lon="-8.421960000">
        <ele>328.800000</ele>
        <time>2020-10-17T10:58:56Z</time>
      </trkpt>
      <trkpt lat="39.886757000" lon="-8.422021000">
        <ele>328.400000</ele>
        <time>2020-10-17T10:58:57Z</time>
      </trkpt>
      <trkpt lat="39.886713000" lon="-8.422081000">
        <ele>328.000000</ele>
        <time>2020-10-17T10:58:58Z</time>
      </trkpt>
      <trkpt lat="39.886682000" lon="-8.422140000">
        <ele>327.600000</ele>
        <time>2020-10-17T10:58:59Z</time>
      </trkpt>
      <trkpt lat="39.886668000" lon="-8.422203000">
        <ele>327.000000</ele>
        <time>2020-10-17T10:59:00Z</time>
      </trkpt>
      <trkpt lat="39.886663000" lon="-8.422270000">
        <ele>326.800000</ele>
        <time>2020-10-17T10:59:01Z</time>
      </trkpt>
      <trkpt lat="39.886661000" lon="-8.422339000">
        <ele>326.600000</ele>
        <time>2020-10-17T10:59:02Z</time>
      </trkpt>
      <trkpt lat="39.886661000" lon="-8.422417000">
        <ele>326.400000</ele>
        <time>2020-10-17T10:59:03Z</time>
      </trkpt>
      <trkpt lat="39.886665000" lon="-8.422491000">
        <ele>326.400000</ele>
        <time>2020-10-17T10:59:04Z</time>
      </trkpt>
      <trkpt lat="39.886663000" lon="-8.422565000">
        <ele>326.200000</ele>
        <time>2020-10-17T10:59:05Z</time>
      </trkpt>
      <trkpt lat="39.886657000" lon="-8.422638000">
        <ele>326.200000</ele>
        <time>2020-10-17T10:59:06Z</time>
      </trkpt>
      <trkpt lat="39.886637000" lon="-8.422694000">
        <ele>326.200000</ele>
        <time>2020-10-17T10:59:07Z</time>
      </trkpt>
      <trkpt lat="39.886603000" lon="-8.422730000">
        <ele>326.200000</ele>
        <time>2020-10-17T10:59:08Z</time>
      </trkpt>
      <trkpt lat="39.886566000" lon="-8.422761000">
        <ele>326.000000</ele>
        <time>2020-10-17T10:59:09Z</time>
      </trkpt>
      <trkpt lat="39.886531000" lon="-8.422800000">
        <ele>326.200000</ele>
        <time>2020-10-17T10:59:10Z</time>
      </trkpt>
      <trkpt lat="39.886499000" lon="-8.422851000">
        <ele>326.200000</ele>
        <time>2020-10-17T10:59:11Z</time>
      </trkpt>
      <trkpt lat="39.886442000" lon="-8.422969000">
        <ele>326.000000</ele>
        <time>2020-10-17T10:59:13Z</time>
      </trkpt>
      <trkpt lat="39.886363000" lon="-8.423164000">
        <ele>326.200000</ele>
        <time>2020-10-17T10:59:16Z</time>
      </trkpt>
      <trkpt lat="39.886352000" lon="-8.423226000">
        <ele>326.200000</ele>
        <time>2020-10-17T10:59:17Z</time>
      </trkpt>
      <trkpt lat="39.886349000" lon="-8.423296000">
        <ele>326.400000</ele>
        <time>2020-10-17T10:59:18Z</time>
      </trkpt>
      <trkpt lat="39.886355000" lon="-8.423369000">
        <ele>326.200000</ele>
        <time>2020-10-17T10:59:19Z</time>
      </trkpt>
      <trkpt lat="39.886357000" lon="-8.423439000">
        <ele>326.000000</ele>
        <time>2020-10-17T10:59:20Z</time>
      </trkpt>
      <trkpt lat="39.886347000" lon="-8.423505000">
        <ele>326.200000</ele>
        <time>2020-10-17T10:59:21Z</time>
      </trkpt>
      <trkpt lat="39.886319000" lon="-8.423559000">
        <ele>326.000000</ele>
        <time>2020-10-17T10:59:22Z</time>
      </trkpt>
      <trkpt lat="39.886287000" lon="-8.423601000">
        <ele>326.000000</ele>
        <time>2020-10-17T10:59:23Z</time>
      </trkpt>
      <trkpt lat="39.886239000" lon="-8.423630000">
        <ele>326.000000</ele>
        <time>2020-10-17T10:59:24Z</time>
      </trkpt>
      <trkpt lat="39.886188000" lon="-8.423649000">
        <ele>326.000000</ele>
        <time>2020-10-17T10:59:25Z</time>
      </trkpt>
      <trkpt lat="39.886125000" lon="-8.423672000">
        <ele>325.600000</ele>
        <time>2020-10-17T10:59:26Z</time>
      </trkpt>
      <trkpt lat="39.886059000" lon="-8.423696000">
        <ele>325.600000</ele>
        <time>2020-10-17T10:59:27Z</time>
      </trkpt>
      <trkpt lat="39.885989000" lon="-8.423725000">
        <ele>325.200000</ele>
        <time>2020-10-17T10:59:28Z</time>
      </trkpt>
      <trkpt lat="39.885916000" lon="-8.423758000">
        <ele>324.400000</ele>
        <time>2020-10-17T10:59:29Z</time>
      </trkpt>
      <trkpt lat="39.885772000" lon="-8.423832000">
        <ele>322.800000</ele>
        <time>2020-10-17T10:59:31Z</time>
      </trkpt>
      <trkpt lat="39.885711000" lon="-8.423865000">
        <ele>322.400000</ele>
        <time>2020-10-17T10:59:32Z</time>
      </trkpt>
      <trkpt lat="39.885671000" lon="-8.423895000">
        <ele>322.400000</ele>
        <time>2020-10-17T10:59:33Z</time>
      </trkpt>
      <trkpt lat="39.885639000" lon="-8.423920000">
        <ele>322.000000</ele>
        <time>2020-10-17T10:59:34Z</time>
      </trkpt>
      <trkpt lat="39.885618000" lon="-8.423928000">
        <ele>321.800000</ele>
        <time>2020-10-17T10:59:35Z</time>
      </trkpt>
      <trkpt lat="39.885606000" lon="-8.423918000">
        <ele>321.200000</ele>
        <time>2020-10-17T10:59:36Z</time>
      </trkpt>
      <trkpt lat="39.885596000" lon="-8.423902000">
        <ele>321.000000</ele>
        <time>2020-10-17T10:59:37Z</time>
      </trkpt>
      <trkpt lat="39.885585000" lon="-8.423885000">
        <ele>320.200000</ele>
        <time>2020-10-17T10:59:38Z</time>
      </trkpt>
      <trkpt lat="39.885577000" lon="-8.423868000">
        <ele>319.600000</ele>
        <time>2020-10-17T10:59:39Z</time>
      </trkpt>
      <trkpt lat="39.885573000" lon="-8.423853000">
        <ele>319.200000</ele>
        <time>2020-10-17T10:59:40Z</time>
      </trkpt>
      <trkpt lat="39.885569000" lon="-8.423837000">
        <ele>318.800000</ele>
        <time>2020-10-17T10:59:41Z</time>
      </trkpt>
      <trkpt lat="39.885563000" lon="-8.423818000">
        <ele>317.400000</ele>
        <time>2020-10-17T10:59:42Z</time>
      </trkpt>
      <trkpt lat="39.885515000" lon="-8.423712000">
        <ele>316.000000</ele>
        <time>2020-10-17T10:59:46Z</time>
      </trkpt>
      <trkpt lat="39.885496000" lon="-8.423688000">
        <ele>315.800000</ele>
        <time>2020-10-17T10:59:47Z</time>
      </trkpt>
      <trkpt lat="39.885454000" lon="-8.423638000">
        <ele>316.000000</ele>
        <time>2020-10-17T10:59:49Z</time>
      </trkpt>
      <trkpt lat="39.885411000" lon="-8.423596000">
        <ele>316.000000</ele>
        <time>2020-10-17T10:59:51Z</time>
      </trkpt>
      <trkpt lat="39.885394000" lon="-8.423582000">
        <ele>316.000000</ele>
        <time>2020-10-17T10:59:52Z</time>
      </trkpt>
      <trkpt lat="39.885380000" lon="-8.423567000">
        <ele>316.000000</ele>
        <time>2020-10-17T10:59:53Z</time>
      </trkpt>
      <trkpt lat="39.885368000" lon="-8.423553000">
        <ele>316.000000</ele>
        <time>2020-10-17T10:59:54Z</time>
      </trkpt>
      <trkpt lat="39.885357000" lon="-8.423535000">
        <ele>316.000000</ele>
        <time>2020-10-17T10:59:55Z</time>
      </trkpt>
      <trkpt lat="39.885338000" lon="-8.423489000">
        <ele>316.600000</ele>
        <time>2020-10-17T10:59:57Z</time>
      </trkpt>
      <trkpt lat="39.885302000" lon="-8.423393000">
        <ele>317.200000</ele>
        <time>2020-10-17T11:00:00Z</time>
      </trkpt>
      <trkpt lat="39.885287000" lon="-8.423371000">
        <ele>317.400000</ele>
        <time>2020-10-17T11:00:01Z</time>
      </trkpt>
      <trkpt lat="39.885267000" lon="-8.423354000">
        <ele>317.600000</ele>
        <time>2020-10-17T11:00:02Z</time>
      </trkpt>
      <trkpt lat="39.885249000" lon="-8.423337000">
        <ele>317.800000</ele>
        <time>2020-10-17T11:00:03Z</time>
      </trkpt>
      <trkpt lat="39.885231000" lon="-8.423324000">
        <ele>317.800000</ele>
        <time>2020-10-17T11:00:04Z</time>
      </trkpt>
      <trkpt lat="39.885212000" lon="-8.423312000">
        <ele>318.400000</ele>
        <time>2020-10-17T11:00:05Z</time>
      </trkpt>
      <trkpt lat="39.885192000" lon="-8.423300000">
        <ele>318.800000</ele>
        <time>2020-10-17T11:00:06Z</time>
      </trkpt>
      <trkpt lat="39.885164000" lon="-8.423283000">
        <ele>319.000000</ele>
        <time>2020-10-17T11:00:07Z</time>
      </trkpt>
      <trkpt lat="39.885135000" lon="-8.423274000">
        <ele>319.200000</ele>
        <time>2020-10-17T11:00:08Z</time>
      </trkpt>
      <trkpt lat="39.885108000" lon="-8.423267000">
        <ele>319.400000</ele>
        <time>2020-10-17T11:00:09Z</time>
      </trkpt>
      <trkpt lat="39.885080000" lon="-8.423258000">
        <ele>319.400000</ele>
        <time>2020-10-17T11:00:10Z</time>
      </trkpt>
      <trkpt lat="39.885055000" lon="-8.423252000">
        <ele>319.400000</ele>
        <time>2020-10-17T11:00:11Z</time>
      </trkpt>
      <trkpt lat="39.885031000" lon="-8.423242000">
        <ele>319.600000</ele>
        <time>2020-10-17T11:00:12Z</time>
      </trkpt>
      <trkpt lat="39.885008000" lon="-8.423231000">
        <ele>320.000000</ele>
        <time>2020-10-17T11:00:13Z</time>
      </trkpt>
      <trkpt lat="39.884981000" lon="-8.423210000">
        <ele>320.200000</ele>
        <time>2020-10-17T11:00:14Z</time>
      </trkpt>
      <trkpt lat="39.884958000" lon="-8.423192000">
        <ele>320.200000</ele>
        <time>2020-10-17T11:00:15Z</time>
      </trkpt>
      <trkpt lat="39.884939000" lon="-8.423173000">
        <ele>320.200000</ele>
        <time>2020-10-17T11:00:16Z</time>
      </trkpt>
      <trkpt lat="39.884913000" lon="-8.423145000">
        <ele>320.400000</ele>
        <time>2020-10-17T11:00:17Z</time>
      </trkpt>
      <trkpt lat="39.884888000" lon="-8.423123000">
        <ele>320.600000</ele>
        <time>2020-10-17T11:00:18Z</time>
      </trkpt>
      <trkpt lat="39.884859000" lon="-8.423107000">
        <ele>321.000000</ele>
        <time>2020-10-17T11:00:19Z</time>
      </trkpt>
      <trkpt lat="39.884826000" lon="-8.423085000">
        <ele>321.200000</ele>
        <time>2020-10-17T11:00:20Z</time>
      </trkpt>
      <trkpt lat="39.884791000" lon="-8.423061000">
        <ele>321.400000</ele>
        <time>2020-10-17T11:00:21Z</time>
      </trkpt>
      <trkpt lat="39.884757000" lon="-8.423046000">
        <ele>321.600000</ele>
        <time>2020-10-17T11:00:22Z</time>
      </trkpt>
      <trkpt lat="39.884720000" lon="-8.423015000">
        <ele>321.800000</ele>
        <time>2020-10-17T11:00:23Z</time>
      </trkpt>
      <trkpt lat="39.884683000" lon="-8.422986000">
        <ele>322.200000</ele>
        <time>2020-10-17T11:00:24Z</time>
      </trkpt>
      <trkpt lat="39.884656000" lon="-8.422977000">
        <ele>322.200000</ele>
        <time>2020-10-17T11:00:25Z</time>
      </trkpt>
      <trkpt lat="39.884627000" lon="-8.422960000">
        <ele>322.200000</ele>
        <time>2020-10-17T11:00:26Z</time>
      </trkpt>
      <trkpt lat="39.884596000" lon="-8.422950000">
        <ele>322.400000</ele>
        <time>2020-10-17T11:00:27Z</time>
      </trkpt>
      <trkpt lat="39.884566000" lon="-8.422941000">
        <ele>322.400000</ele>
        <time>2020-10-17T11:00:28Z</time>
      </trkpt>
      <trkpt lat="39.884540000" lon="-8.422934000">
        <ele>322.400000</ele>
        <time>2020-10-17T11:00:29Z</time>
      </trkpt>
      <trkpt lat="39.884516000" lon="-8.422928000">
        <ele>322.400000</ele>
        <time>2020-10-17T11:00:30Z</time>
      </trkpt>
      <trkpt lat="39.884482000" lon="-8.422920000">
        <ele>322.600000</ele>
        <time>2020-10-17T11:00:31Z</time>
      </trkpt>
      <trkpt lat="39.884452000" lon="-8.422912000">
        <ele>322.600000</ele>
        <time>2020-10-17T11:00:32Z</time>
      </trkpt>
      <trkpt lat="39.884419000" lon="-8.422897000">
        <ele>322.800000</ele>
        <time>2020-10-17T11:00:33Z</time>
      </trkpt>
      <trkpt lat="39.884384000" lon="-8.422884000">
        <ele>322.600000</ele>
        <time>2020-10-17T11:00:34Z</time>
      </trkpt>
      <trkpt lat="39.884350000" lon="-8.422873000">
        <ele>322.600000</ele>
        <time>2020-10-17T11:00:35Z</time>
      </trkpt>
      <trkpt lat="39.884322000" lon="-8.422867000">
        <ele>322.800000</ele>
        <time>2020-10-17T11:00:36Z</time>
      </trkpt>
      <trkpt lat="39.884295000" lon="-8.422861000">
        <ele>322.800000</ele>
        <time>2020-10-17T11:00:37Z</time>
      </trkpt>
      <trkpt lat="39.884272000" lon="-8.422853000">
        <ele>322.800000</ele>
        <time>2020-10-17T11:00:38Z</time>
      </trkpt>
      <trkpt lat="39.884247000" lon="-8.422845000">
        <ele>323.000000</ele>
        <time>2020-10-17T11:00:39Z</time>
      </trkpt>
      <trkpt lat="39.884214000" lon="-8.422833000">
        <ele>323.000000</ele>
        <time>2020-10-17T11:00:40Z</time>
      </trkpt>
      <trkpt lat="39.884183000" lon="-8.422823000">
        <ele>323.400000</ele>
        <time>2020-10-17T11:00:41Z</time>
      </trkpt>
      <trkpt lat="39.884149000" lon="-8.422809000">
        <ele>323.600000</ele>
        <time>2020-10-17T11:00:42Z</time>
      </trkpt>
      <trkpt lat="39.884120000" lon="-8.422800000">
        <ele>323.400000</ele>
        <time>2020-10-17T11:00:43Z</time>
      </trkpt>
      <trkpt lat="39.884091000" lon="-8.422792000">
        <ele>323.600000</ele>
        <time>2020-10-17T11:00:44Z</time>
      </trkpt>
      <trkpt lat="39.884065000" lon="-8.422785000">
        <ele>323.800000</ele>
        <time>2020-10-17T11:00:45Z</time>
      </trkpt>
      <trkpt lat="39.884041000" lon="-8.422777000">
        <ele>324.000000</ele>
        <time>2020-10-17T11:00:46Z</time>
      </trkpt>
      <trkpt lat="39.884017000" lon="-8.422768000">
        <ele>324.200000</ele>
        <time>2020-10-17T11:00:47Z</time>
      </trkpt>
      <trkpt lat="39.883997000" lon="-8.422760000">
        <ele>324.400000</ele>
        <time>2020-10-17T11:00:48Z</time>
      </trkpt>
      <trkpt lat="39.883975000" lon="-8.422753000">
        <ele>324.600000</ele>
        <time>2020-10-17T11:00:49Z</time>
      </trkpt>
      <trkpt lat="39.883954000" lon="-8.422741000">
        <ele>325.000000</ele>
        <time>2020-10-17T11:00:50Z</time>
      </trkpt>
      <trkpt lat="39.883933000" lon="-8.422732000">
        <ele>325.000000</ele>
        <time>2020-10-17T11:00:51Z</time>
      </trkpt>
      <trkpt lat="39.883910000" lon="-8.422719000">
        <ele>325.200000</ele>
        <time>2020-10-17T11:00:52Z</time>
      </trkpt>
      <trkpt lat="39.883888000" lon="-8.422708000">
        <ele>325.600000</ele>
        <time>2020-10-17T11:00:53Z</time>
      </trkpt>
      <trkpt lat="39.883867000" lon="-8.422700000">
        <ele>325.600000</ele>
        <time>2020-10-17T11:00:54Z</time>
      </trkpt>
      <trkpt lat="39.883847000" lon="-8.422692000">
        <ele>325.800000</ele>
        <time>2020-10-17T11:00:55Z</time>
      </trkpt>
      <trkpt lat="39.883825000" lon="-8.422682000">
        <ele>326.200000</ele>
        <time>2020-10-17T11:00:56Z</time>
      </trkpt>
      <trkpt lat="39.883802000" lon="-8.422668000">
        <ele>326.400000</ele>
        <time>2020-10-17T11:00:57Z</time>
      </trkpt>
      <trkpt lat="39.883779000" lon="-8.422654000">
        <ele>326.400000</ele>
        <time>2020-10-17T11:00:58Z</time>
      </trkpt>
      <trkpt lat="39.883764000" lon="-8.422643000">
        <ele>326.400000</ele>
        <time>2020-10-17T11:00:59Z</time>
      </trkpt>
      <trkpt lat="39.883751000" lon="-8.422632000">
        <ele>326.600000</ele>
        <time>2020-10-17T11:01:00Z</time>
      </trkpt>
      <trkpt lat="39.883733000" lon="-8.422613000">
        <ele>326.800000</ele>
        <time>2020-10-17T11:01:01Z</time>
      </trkpt>
      <trkpt lat="39.883717000" lon="-8.422599000">
        <ele>327.000000</ele>
        <time>2020-10-17T11:01:02Z</time>
      </trkpt>
      <trkpt lat="39.883695000" lon="-8.422577000">
        <ele>327.200000</ele>
        <time>2020-10-17T11:01:03Z</time>
      </trkpt>
      <trkpt lat="39.883679000" lon="-8.422563000">
        <ele>327.200000</ele>
        <time>2020-10-17T11:01:04Z</time>
      </trkpt>
      <trkpt lat="39.883666000" lon="-8.422553000">
        <ele>327.400000</ele>
        <time>2020-10-17T11:01:05Z</time>
      </trkpt>
      <trkpt lat="39.883652000" lon="-8.422540000">
        <ele>327.600000</ele>
        <time>2020-10-17T11:01:06Z</time>
      </trkpt>
      <trkpt lat="39.883639000" lon="-8.422531000">
        <ele>328.000000</ele>
        <time>2020-10-17T11:01:07Z</time>
      </trkpt>
      <trkpt lat="39.883624000" lon="-8.422524000">
        <ele>328.000000</ele>
        <time>2020-10-17T11:01:08Z</time>
      </trkpt>
      <trkpt lat="39.883610000" lon="-8.422518000">
        <ele>328.600000</ele>
        <time>2020-10-17T11:01:09Z</time>
      </trkpt>
      <trkpt lat="39.883596000" lon="-8.422508000">
        <ele>328.800000</ele>
        <time>2020-10-17T11:01:10Z</time>
      </trkpt>
      <trkpt lat="39.883584000" lon="-8.422500000">
        <ele>328.800000</ele>
        <time>2020-10-17T11:01:11Z</time>
      </trkpt>
      <trkpt lat="39.883572000" lon="-8.422493000">
        <ele>328.800000</ele>
        <time>2020-10-17T11:01:12Z</time>
      </trkpt>
      <trkpt lat="39.883559000" lon="-8.422482000">
        <ele>329.200000</ele>
        <time>2020-10-17T11:01:13Z</time>
      </trkpt>
      <trkpt lat="39.883550000" lon="-8.422478000">
        <ele>329.400000</ele>
        <time>2020-10-17T11:01:14Z</time>
      </trkpt>
      <trkpt lat="39.883537000" lon="-8.422468000">
        <ele>329.600000</ele>
        <time>2020-10-17T11:01:15Z</time>
      </trkpt>
      <trkpt lat="39.883524000" lon="-8.422455000">
        <ele>330.000000</ele>
        <time>2020-10-17T11:01:16Z</time>
      </trkpt>
      <trkpt lat="39.883512000" lon="-8.422443000">
        <ele>330.200000</ele>
        <time>2020-10-17T11:01:17Z</time>
      </trkpt>
      <trkpt lat="39.883501000" lon="-8.422431000">
        <ele>330.200000</ele>
        <time>2020-10-17T11:01:18Z</time>
      </trkpt>
      <trkpt lat="39.883488000" lon="-8.422417000">
        <ele>330.200000</ele>
        <time>2020-10-17T11:01:19Z</time>
      </trkpt>
      <trkpt lat="39.883476000" lon="-8.422405000">
        <ele>330.400000</ele>
        <time>2020-10-17T11:01:20Z</time>
      </trkpt>
      <trkpt lat="39.883463000" lon="-8.422391000">
        <ele>330.400000</ele>
        <time>2020-10-17T11:01:21Z</time>
      </trkpt>
      <trkpt lat="39.883447000" lon="-8.422375000">
        <ele>330.600000</ele>
        <time>2020-10-17T11:01:22Z</time>
      </trkpt>
      <trkpt lat="39.883429000" lon="-8.422362000">
        <ele>330.800000</ele>
        <time>2020-10-17T11:01:23Z</time>
      </trkpt>
      <trkpt lat="39.883412000" lon="-8.422351000">
        <ele>331.200000</ele>
        <time>2020-10-17T11:01:24Z</time>
      </trkpt>
      <trkpt lat="39.883393000" lon="-8.422334000">
        <ele>331.200000</ele>
        <time>2020-10-17T11:01:25Z</time>
      </trkpt>
      <trkpt lat="39.883377000" lon="-8.422322000">
        <ele>331.400000</ele>
        <time>2020-10-17T11:01:26Z</time>
      </trkpt>
      <trkpt lat="39.883362000" lon="-8.422311000">
        <ele>331.400000</ele>
        <time>2020-10-17T11:01:27Z</time>
      </trkpt>
      <trkpt lat="39.883348000" lon="-8.422302000">
        <ele>331.800000</ele>
        <time>2020-10-17T11:01:28Z</time>
      </trkpt>
      <trkpt lat="39.883330000" lon="-8.422290000">
        <ele>331.800000</ele>
        <time>2020-10-17T11:01:29Z</time>
      </trkpt>
      <trkpt lat="39.883315000" lon="-8.422279000">
        <ele>331.800000</ele>
        <time>2020-10-17T11:01:30Z</time>
      </trkpt>
      <trkpt lat="39.883298000" lon="-8.422268000">
        <ele>332.000000</ele>
        <time>2020-10-17T11:01:31Z</time>
      </trkpt>
      <trkpt lat="39.883281000" lon="-8.422255000">
        <ele>332.000000</ele>
        <time>2020-10-17T11:01:32Z</time>
      </trkpt>
      <trkpt lat="39.883263000" lon="-8.422243000">
        <ele>332.000000</ele>
        <time>2020-10-17T11:01:33Z</time>
      </trkpt>
      <trkpt lat="39.883241000" lon="-8.422231000">
        <ele>332.000000</ele>
        <time>2020-10-17T11:01:34Z</time>
      </trkpt>
      <trkpt lat="39.883222000" lon="-8.422221000">
        <ele>332.400000</ele>
        <time>2020-10-17T11:01:35Z</time>
      </trkpt>
      <trkpt lat="39.883203000" lon="-8.422210000">
        <ele>332.600000</ele>
        <time>2020-10-17T11:01:36Z</time>
      </trkpt>
      <trkpt lat="39.883184000" lon="-8.422200000">
        <ele>332.600000</ele>
        <time>2020-10-17T11:01:37Z</time>
      </trkpt>
      <trkpt lat="39.883164000" lon="-8.422188000">
        <ele>332.800000</ele>
        <time>2020-10-17T11:01:38Z</time>
      </trkpt>
      <trkpt lat="39.883141000" lon="-8.422181000">
        <ele>333.000000</ele>
        <time>2020-10-17T11:01:39Z</time>
      </trkpt>
      <trkpt lat="39.883118000" lon="-8.422173000">
        <ele>333.000000</ele>
        <time>2020-10-17T11:01:40Z</time>
      </trkpt>
      <trkpt lat="39.883091000" lon="-8.422164000">
        <ele>333.000000</ele>
        <time>2020-10-17T11:01:41Z</time>
      </trkpt>
      <trkpt lat="39.883063000" lon="-8.422154000">
        <ele>333.200000</ele>
        <time>2020-10-17T11:01:42Z</time>
      </trkpt>
      <trkpt lat="39.883035000" lon="-8.422148000">
        <ele>333.400000</ele>
        <time>2020-10-17T11:01:43Z</time>
      </trkpt>
      <trkpt lat="39.883009000" lon="-8.422144000">
        <ele>333.600000</ele>
        <time>2020-10-17T11:01:44Z</time>
      </trkpt>
      <trkpt lat="39.882977000" lon="-8.422138000">
        <ele>333.800000</ele>
        <time>2020-10-17T11:01:45Z</time>
      </trkpt>
      <trkpt lat="39.882946000" lon="-8.422134000">
        <ele>333.800000</ele>
        <time>2020-10-17T11:01:46Z</time>
      </trkpt>
      <trkpt lat="39.882913000" lon="-8.422127000">
        <ele>333.800000</ele>
        <time>2020-10-17T11:01:47Z</time>
      </trkpt>
      <trkpt lat="39.882880000" lon="-8.422124000">
        <ele>334.000000</ele>
        <time>2020-10-17T11:01:48Z</time>
      </trkpt>
      <trkpt lat="39.882712000" lon="-8.422127000">
        <ele>334.000000</ele>
        <time>2020-10-17T11:01:53Z</time>
      </trkpt>
      <trkpt lat="39.882644000" lon="-8.422119000">
        <ele>334.000000</ele>
        <time>2020-10-17T11:01:55Z</time>
      </trkpt>
      <trkpt lat="39.882609000" lon="-8.422110000">
        <ele>334.200000</ele>
        <time>2020-10-17T11:01:56Z</time>
      </trkpt>
      <trkpt lat="39.882575000" lon="-8.422103000">
        <ele>334.000000</ele>
        <time>2020-10-17T11:01:57Z</time>
      </trkpt>
      <trkpt lat="39.882545000" lon="-8.422104000">
        <ele>334.000000</ele>
        <time>2020-10-17T11:01:58Z</time>
      </trkpt>
      <trkpt lat="39.882517000" lon="-8.422104000">
        <ele>334.200000</ele>
        <time>2020-10-17T11:01:59Z</time>
      </trkpt>
      <trkpt lat="39.882460000" lon="-8.422105000">
        <ele>334.200000</ele>
        <time>2020-10-17T11:02:01Z</time>
      </trkpt>
      <trkpt lat="39.882325000" lon="-8.422136000">
        <ele>334.000000</ele>
        <time>2020-10-17T11:02:05Z</time>
      </trkpt>
      <trkpt lat="39.882290000" lon="-8.422144000">
        <ele>334.000000</ele>
        <time>2020-10-17T11:02:06Z</time>
      </trkpt>
      <trkpt lat="39.882258000" lon="-8.422149000">
        <ele>334.000000</ele>
        <time>2020-10-17T11:02:07Z</time>
      </trkpt>
      <trkpt lat="39.882226000" lon="-8.422153000">
        <ele>333.800000</ele>
        <time>2020-10-17T11:02:08Z</time>
      </trkpt>
      <trkpt lat="39.882198000" lon="-8.422155000">
        <ele>334.000000</ele>
        <time>2020-10-17T11:02:09Z</time>
      </trkpt>
      <trkpt lat="39.882091000" lon="-8.422156000">
        <ele>333.800000</ele>
        <time>2020-10-17T11:02:12Z</time>
      </trkpt>
      <trkpt lat="39.882021000" lon="-8.422140000">
        <ele>333.600000</ele>
        <time>2020-10-17T11:02:14Z</time>
      </trkpt>
      <trkpt lat="39.881989000" lon="-8.422127000">
        <ele>333.600000</ele>
        <time>2020-10-17T11:02:15Z</time>
      </trkpt>
      <trkpt lat="39.881964000" lon="-8.422108000">
        <ele>333.600000</ele>
        <time>2020-10-17T11:02:16Z</time>
      </trkpt>
      <trkpt lat="39.881947000" lon="-8.422078000">
        <ele>333.400000</ele>
        <time>2020-10-17T11:02:17Z</time>
      </trkpt>
      <trkpt lat="39.881934000" lon="-8.422046000">
        <ele>333.400000</ele>
        <time>2020-10-17T11:02:18Z</time>
      </trkpt>
      <trkpt lat="39.881922000" lon="-8.422012000">
        <ele>333.200000</ele>
        <time>2020-10-17T11:02:19Z</time>
      </trkpt>
      <trkpt lat="39.881909000" lon="-8.421978000">
        <ele>333.400000</ele>
        <time>2020-10-17T11:02:20Z</time>
      </trkpt>
      <trkpt lat="39.881894000" lon="-8.421945000">
        <ele>333.400000</ele>
        <time>2020-10-17T11:02:21Z</time>
      </trkpt>
      <trkpt lat="39.881875000" lon="-8.421923000">
        <ele>333.200000</ele>
        <time>2020-10-17T11:02:22Z</time>
      </trkpt>
      <trkpt lat="39.881847000" lon="-8.421909000">
        <ele>333.200000</ele>
        <time>2020-10-17T11:02:23Z</time>
      </trkpt>
      <trkpt lat="39.881815000" lon="-8.421898000">
        <ele>333.200000</ele>
        <time>2020-10-17T11:02:24Z</time>
      </trkpt>
      <trkpt lat="39.881779000" lon="-8.421888000">
        <ele>333.200000</ele>
        <time>2020-10-17T11:02:25Z</time>
      </trkpt>
      <trkpt lat="39.881740000" lon="-8.421879000">
        <ele>333.400000</ele>
        <time>2020-10-17T11:02:26Z</time>
      </trkpt>
      <trkpt lat="39.881695000" lon="-8.421869000">
        <ele>333.400000</ele>
        <time>2020-10-17T11:02:27Z</time>
      </trkpt>
      <trkpt lat="39.881650000" lon="-8.421862000">
        <ele>333.600000</ele>
        <time>2020-10-17T11:02:28Z</time>
      </trkpt>
      <trkpt lat="39.881505000" lon="-8.421840000">
        <ele>333.800000</ele>
        <time>2020-10-17T11:02:31Z</time>
      </trkpt>
      <trkpt lat="39.881284000" lon="-8.421805000">
        <ele>334.000000</ele>
        <time>2020-10-17T11:02:35Z</time>
      </trkpt>
      <trkpt lat="39.881034000" lon="-8.421793000">
        <ele>333.800000</ele>
        <time>2020-10-17T11:02:39Z</time>
      </trkpt>
      <trkpt lat="39.880902000" lon="-8.421783000">
        <ele>334.000000</ele>
        <time>2020-10-17T11:02:41Z</time>
      </trkpt>
      <trkpt lat="39.880772000" lon="-8.421767000">
        <ele>333.600000</ele>
        <time>2020-10-17T11:02:43Z</time>
      </trkpt>
      <trkpt lat="39.880510000" lon="-8.421705000">
        <ele>333.400000</ele>
        <time>2020-10-17T11:02:47Z</time>
      </trkpt>
      <trkpt lat="39.880441000" lon="-8.421690000">
        <ele>333.400000</ele>
        <time>2020-10-17T11:02:48Z</time>
      </trkpt>
      <trkpt lat="39.880288000" lon="-8.421668000">
        <ele>333.200000</ele>
        <time>2020-10-17T11:02:50Z</time>
      </trkpt>
      <trkpt lat="39.880129000" lon="-8.421660000">
        <ele>332.600000</ele>
        <time>2020-10-17T11:02:52Z</time>
      </trkpt>
      <trkpt lat="39.880054000" lon="-8.421676000">
        <ele>332.400000</ele>
        <time>2020-10-17T11:02:53Z</time>
      </trkpt>
      <trkpt lat="39.879986000" lon="-8.421702000">
        <ele>332.400000</ele>
        <time>2020-10-17T11:02:54Z</time>
      </trkpt>
      <trkpt lat="39.879938000" lon="-8.421735000">
        <ele>332.200000</ele>
        <time>2020-10-17T11:02:55Z</time>
      </trkpt>
      <trkpt lat="39.879908000" lon="-8.421766000">
        <ele>332.200000</ele>
        <time>2020-10-17T11:02:56Z</time>
      </trkpt>
      <trkpt lat="39.879885000" lon="-8.421791000">
        <ele>331.600000</ele>
        <time>2020-10-17T11:02:57Z</time>
      </trkpt>
      <trkpt lat="39.879868000" lon="-8.421804000">
        <ele>331.200000</ele>
        <time>2020-10-17T11:02:58Z</time>
      </trkpt>
      <trkpt lat="39.879859000" lon="-8.421801000">
        <ele>330.600000</ele>
        <time>2020-10-17T11:02:59Z</time>
      </trkpt>
      <trkpt lat="39.879854000" lon="-8.421790000">
        <ele>329.800000</ele>
        <time>2020-10-17T11:03:00Z</time>
      </trkpt>
      <trkpt lat="39.879853000" lon="-8.421779000">
        <ele>329.200000</ele>
        <time>2020-10-17T11:03:01Z</time>
      </trkpt>
      <trkpt lat="39.879858000" lon="-8.421769000">
        <ele>328.600000</ele>
        <time>2020-10-17T11:03:02Z</time>
      </trkpt>
      <trkpt lat="39.879870000" lon="-8.421758000">
        <ele>328.000000</ele>
        <time>2020-10-17T11:03:03Z</time>
      </trkpt>
      <trkpt lat="39.879891000" lon="-8.421736000">
        <ele>327.600000</ele>
        <time>2020-10-17T11:03:05Z</time>
      </trkpt>
      <trkpt lat="39.879902000" lon="-8.421731000">
        <ele>327.200000</ele>
        <time>2020-10-17T11:03:06Z</time>
      </trkpt>
      <trkpt lat="39.879917000" lon="-8.421721000">
        <ele>327.200000</ele>
        <time>2020-10-17T11:03:07Z</time>
      </trkpt>
      <trkpt lat="39.879934000" lon="-8.421706000">
        <ele>327.000000</ele>
        <time>2020-10-17T11:03:08Z</time>
      </trkpt>
      <trkpt lat="39.879982000" lon="-8.421636000">
        <ele>326.800000</ele>
        <time>2020-10-17T11:03:11Z</time>
      </trkpt>
      <trkpt lat="39.879979000" lon="-8.421612000">
        <ele>326.800000</ele>
        <time>2020-10-17T11:03:12Z</time>
      </trkpt>
      <trkpt lat="39.879969000" lon="-8.421599000">
        <ele>326.800000</ele>
        <time>2020-10-17T11:03:13Z</time>
      </trkpt>
      <trkpt lat="39.879954000" lon="-8.421591000">
        <ele>326.800000</ele>
        <time>2020-10-17T11:03:14Z</time>
      </trkpt>
      <trkpt lat="39.879940000" lon="-8.421585000">
        <ele>326.800000</ele>
        <time>2020-10-17T11:03:15Z</time>
      </trkpt>
      <trkpt lat="39.879925000" lon="-8.421580000">
        <ele>326.800000</ele>
        <time>2020-10-17T11:03:16Z</time>
      </trkpt>
      <trkpt lat="39.879905000" lon="-8.421576000">
        <ele>326.800000</ele>
        <time>2020-10-17T11:03:17Z</time>
      </trkpt>
      <trkpt lat="39.879880000" lon="-8.421567000">
        <ele>326.800000</ele>
        <time>2020-10-17T11:03:18Z</time>
      </trkpt>
      <trkpt lat="39.879849000" lon="-8.421560000">
        <ele>326.600000</ele>
        <time>2020-10-17T11:03:19Z</time>
      </trkpt>
      <trkpt lat="39.879645000" lon="-8.421541000">
        <ele>326.400000</ele>
        <time>2020-10-17T11:03:25Z</time>
      </trkpt>
      <trkpt lat="39.879603000" lon="-8.421540000">
        <ele>326.200000</ele>
        <time>2020-10-17T11:03:26Z</time>
      </trkpt>
      <trkpt lat="39.879467000" lon="-8.421536000">
        <ele>326.000000</ele>
        <time>2020-10-17T11:03:29Z</time>
      </trkpt>
      <trkpt lat="39.879376000" lon="-8.421521000">
        <ele>325.800000</ele>
        <time>2020-10-17T11:03:31Z</time>
      </trkpt>
      <trkpt lat="39.879330000" lon="-8.421511000">
        <ele>325.600000</ele>
        <time>2020-10-17T11:03:32Z</time>
      </trkpt>
      <trkpt lat="39.879282000" lon="-8.421507000">
        <ele>325.600000</ele>
        <time>2020-10-17T11:03:33Z</time>
      </trkpt>
      <trkpt lat="39.879090000" lon="-8.421494000">
        <ele>325.200000</ele>
        <time>2020-10-17T11:03:37Z</time>
      </trkpt>
      <trkpt lat="39.879042000" lon="-8.421487000">
        <ele>325.000000</ele>
        <time>2020-10-17T11:03:38Z</time>
      </trkpt>
      <trkpt lat="39.878942000" lon="-8.421475000">
        <ele>324.600000</ele>
        <time>2020-10-17T11:03:40Z</time>
      </trkpt>
      <trkpt lat="39.878896000" lon="-8.421472000">
        <ele>324.600000</ele>
        <time>2020-10-17T11:03:41Z</time>
      </trkpt>
      <trkpt lat="39.878800000" lon="-8.421462000">
        <ele>324.200000</ele>
        <time>2020-10-17T11:03:43Z</time>
      </trkpt>
      <trkpt lat="39.878637000" lon="-8.421429000">
        <ele>323.400000</ele>
        <time>2020-10-17T11:03:46Z</time>
      </trkpt>
      <trkpt lat="39.878585000" lon="-8.421424000">
        <ele>323.200000</ele>
        <time>2020-10-17T11:03:47Z</time>
      </trkpt>
      <trkpt lat="39.878475000" lon="-8.421426000">
        <ele>322.800000</ele>
        <time>2020-10-17T11:03:49Z</time>
      </trkpt>
      <trkpt lat="39.878429000" lon="-8.421425000">
        <ele>322.800000</ele>
        <time>2020-10-17T11:03:50Z</time>
      </trkpt>
      <trkpt lat="39.878320000" lon="-8.421431000">
        <ele>322.800000</ele>
        <time>2020-10-17T11:03:52Z</time>
      </trkpt>
      <trkpt lat="39.878268000" lon="-8.421434000">
        <ele>322.800000</ele>
        <time>2020-10-17T11:03:53Z</time>
      </trkpt>
      <trkpt lat="39.878219000" lon="-8.421439000">
        <ele>322.800000</ele>
        <time>2020-10-17T11:03:54Z</time>
      </trkpt>
      <trkpt lat="39.878174000" lon="-8.421439000">
        <ele>322.800000</ele>
        <time>2020-10-17T11:03:55Z</time>
      </trkpt>
      <trkpt lat="39.878128000" lon="-8.421429000">
        <ele>322.600000</ele>
        <time>2020-10-17T11:03:56Z</time>
      </trkpt>
      <trkpt lat="39.878031000" lon="-8.421413000">
        <ele>322.600000</ele>
        <time>2020-10-17T11:03:58Z</time>
      </trkpt>
      <trkpt lat="39.877983000" lon="-8.421403000">
        <ele>322.600000</ele>
        <time>2020-10-17T11:03:59Z</time>
      </trkpt>
      <trkpt lat="39.877799000" lon="-8.421365000">
        <ele>322.600000</ele>
        <time>2020-10-17T11:04:03Z</time>
      </trkpt>
      <trkpt lat="39.877758000" lon="-8.421360000">
        <ele>322.600000</ele>
        <time>2020-10-17T11:04:04Z</time>
      </trkpt>
      <trkpt lat="39.877715000" lon="-8.421358000">
        <ele>322.600000</ele>
        <time>2020-10-17T11:04:05Z</time>
      </trkpt>
      <trkpt lat="39.877631000" lon="-8.421358000">
        <ele>322.400000</ele>
        <time>2020-10-17T11:04:07Z</time>
      </trkpt>
      <trkpt lat="39.877600000" lon="-8.421358000">
        <ele>322.200000</ele>
        <time>2020-10-17T11:04:08Z</time>
      </trkpt>
      <trkpt lat="39.877573000" lon="-8.421357000">
        <ele>322.200000</ele>
        <time>2020-10-17T11:04:09Z</time>
      </trkpt>
      <trkpt lat="39.877544000" lon="-8.421358000">
        <ele>322.200000</ele>
        <time>2020-10-17T11:04:10Z</time>
      </trkpt>
      <trkpt lat="39.877521000" lon="-8.421365000">
        <ele>322.200000</ele>
        <time>2020-10-17T11:04:11Z</time>
      </trkpt>
      <trkpt lat="39.877500000" lon="-8.421372000">
        <ele>321.800000</ele>
        <time>2020-10-17T11:04:12Z</time>
      </trkpt>
      <trkpt lat="39.877408000" lon="-8.421386000">
        <ele>321.400000</ele>
        <time>2020-10-17T11:04:15Z</time>
      </trkpt>
      <trkpt lat="39.877335000" lon="-8.421398000">
        <ele>320.800000</ele>
        <time>2020-10-17T11:04:17Z</time>
      </trkpt>
      <trkpt lat="39.877301000" lon="-8.421399000">
        <ele>320.600000</ele>
        <time>2020-10-17T11:04:18Z</time>
      </trkpt>
      <trkpt lat="39.877269000" lon="-8.421400000">
        <ele>320.600000</ele>
        <time>2020-10-17T11:04:19Z</time>
      </trkpt>
      <trkpt lat="39.877240000" lon="-8.421398000">
        <ele>320.400000</ele>
        <time>2020-10-17T11:04:20Z</time>
      </trkpt>
      <trkpt lat="39.877209000" lon="-8.421395000">
        <ele>320.400000</ele>
        <time>2020-10-17T11:04:21Z</time>
      </trkpt>
      <trkpt lat="39.877178000" lon="-8.421390000">
        <ele>320.200000</ele>
        <time>2020-10-17T11:04:22Z</time>
      </trkpt>
      <trkpt lat="39.877008000" lon="-8.421410000">
        <ele>319.800000</ele>
        <time>2020-10-17T11:04:27Z</time>
      </trkpt>
      <trkpt lat="39.876967000" lon="-8.421419000">
        <ele>319.600000</ele>
        <time>2020-10-17T11:04:28Z</time>
      </trkpt>
      <trkpt lat="39.876883000" lon="-8.421431000">
        <ele>319.600000</ele>
        <time>2020-10-17T11:04:30Z</time>
      </trkpt>
      <trkpt lat="39.876803000" lon="-8.421439000">
        <ele>318.800000</ele>
        <time>2020-10-17T11:04:32Z</time>
      </trkpt>
      <trkpt lat="39.876765000" lon="-8.421446000">
        <ele>318.800000</ele>
        <time>2020-10-17T11:04:33Z</time>
      </trkpt>
      <trkpt lat="39.876687000" lon="-8.421471000">
        <ele>318.600000</ele>
        <time>2020-10-17T11:04:35Z</time>
      </trkpt>
      <trkpt lat="39.876604000" lon="-8.421487000">
        <ele>318.200000</ele>
        <time>2020-10-17T11:04:37Z</time>
      </trkpt>
      <trkpt lat="39.876566000" lon="-8.421491000">
        <ele>318.400000</ele>
        <time>2020-10-17T11:04:38Z</time>
      </trkpt>
      <trkpt lat="39.876528000" lon="-8.421490000">
        <ele>318.200000</ele>
        <time>2020-10-17T11:04:39Z</time>
      </trkpt>
      <trkpt lat="39.876490000" lon="-8.421486000">
        <ele>318.200000</ele>
        <time>2020-10-17T11:04:40Z</time>
      </trkpt>
      <trkpt lat="39.876414000" lon="-8.421472000">
        <ele>318.000000</ele>
        <time>2020-10-17T11:04:42Z</time>
      </trkpt>
      <trkpt lat="39.876381000" lon="-8.421468000">
        <ele>318.000000</ele>
        <time>2020-10-17T11:04:43Z</time>
      </trkpt>
      <trkpt lat="39.876229000" lon="-8.421465000">
        <ele>317.800000</ele>
        <time>2020-10-17T11:04:46Z</time>
      </trkpt>
      <trkpt lat="39.875896000" lon="-8.421421000">
        <ele>317.800000</ele>
        <time>2020-10-17T11:04:52Z</time>
      </trkpt>
      <trkpt lat="39.875487000" lon="-8.421346000">
        <ele>317.200000</ele>
        <time>2020-10-17T11:04:59Z</time>
      </trkpt>
      <trkpt lat="39.875430000" lon="-8.421335000">
        <ele>317.200000</ele>
        <time>2020-10-17T11:05:00Z</time>
      </trkpt>
      <trkpt lat="39.875380000" lon="-8.421330000">
        <ele>317.200000</ele>
        <time>2020-10-17T11:05:01Z</time>
      </trkpt>
      <trkpt lat="39.875326000" lon="-8.421325000">
        <ele>317.200000</ele>
        <time>2020-10-17T11:05:02Z</time>
      </trkpt>
      <trkpt lat="39.875092000" lon="-8.421302000">
        <ele>317.200000</ele>
        <time>2020-10-17T11:05:06Z</time>
      </trkpt>
      <trkpt lat="39.874971000" lon="-8.421304000">
        <ele>317.400000</ele>
        <time>2020-10-17T11:05:08Z</time>
      </trkpt>
      <trkpt lat="39.874913000" lon="-8.421311000">
        <ele>317.200000</ele>
        <time>2020-10-17T11:05:09Z</time>
      </trkpt>
      <trkpt lat="39.874858000" lon="-8.421314000">
        <ele>317.400000</ele>
        <time>2020-10-17T11:05:10Z</time>
      </trkpt>
      <trkpt lat="39.874808000" lon="-8.421322000">
        <ele>317.400000</ele>
        <time>2020-10-17T11:05:11Z</time>
      </trkpt>
      <trkpt lat="39.874756000" lon="-8.421331000">
        <ele>317.600000</ele>
        <time>2020-10-17T11:05:12Z</time>
      </trkpt>
      <trkpt lat="39.874703000" lon="-8.421339000">
        <ele>317.800000</ele>
        <time>2020-10-17T11:05:13Z</time>
      </trkpt>
      <trkpt lat="39.874646000" lon="-8.421342000">
        <ele>318.000000</ele>
        <time>2020-10-17T11:05:14Z</time>
      </trkpt>
      <trkpt lat="39.874579000" lon="-8.421337000">
        <ele>318.000000</ele>
        <time>2020-10-17T11:05:15Z</time>
      </trkpt>
      <trkpt lat="39.874511000" lon="-8.421332000">
        <ele>318.400000</ele>
        <time>2020-10-17T11:05:16Z</time>
      </trkpt>
      <trkpt lat="39.874437000" lon="-8.421323000">
        <ele>318.600000</ele>
        <time>2020-10-17T11:05:17Z</time>
      </trkpt>
      <trkpt lat="39.874360000" lon="-8.421315000">
        <ele>318.400000</ele>
        <time>2020-10-17T11:05:18Z</time>
      </trkpt>
      <trkpt lat="39.874283000" lon="-8.421313000">
        <ele>318.800000</ele>
        <time>2020-10-17T11:05:19Z</time>
      </trkpt>
      <trkpt lat="39.874214000" lon="-8.421310000">
        <ele>318.800000</ele>
        <time>2020-10-17T11:05:20Z</time>
      </trkpt>
      <trkpt lat="39.874005000" lon="-8.421320000">
        <ele>318.800000</ele>
        <time>2020-10-17T11:05:23Z</time>
      </trkpt>
      <trkpt lat="39.873938000" lon="-8.421320000">
        <ele>318.800000</ele>
        <time>2020-10-17T11:05:24Z</time>
      </trkpt>
      <trkpt lat="39.873871000" lon="-8.421324000">
        <ele>318.800000</ele>
        <time>2020-10-17T11:05:25Z</time>
      </trkpt>
      <trkpt lat="39.873577000" lon="-8.421354000">
        <ele>318.800000</ele>
        <time>2020-10-17T11:05:29Z</time>
      </trkpt>
      <trkpt lat="39.873436000" lon="-8.421366000">
        <ele>318.600000</ele>
        <time>2020-10-17T11:05:31Z</time>
      </trkpt>
      <trkpt lat="39.873371000" lon="-8.421375000">
        <ele>318.400000</ele>
        <time>2020-10-17T11:05:32Z</time>
      </trkpt>
      <trkpt lat="39.873307000" lon="-8.421376000">
        <ele>318.400000</ele>
        <time>2020-10-17T11:05:33Z</time>
      </trkpt>
      <trkpt lat="39.873244000" lon="-8.421371000">
        <ele>318.200000</ele>
        <time>2020-10-17T11:05:34Z</time>
      </trkpt>
      <trkpt lat="39.873181000" lon="-8.421365000">
        <ele>318.200000</ele>
        <time>2020-10-17T11:05:35Z</time>
      </trkpt>
      <trkpt lat="39.873119000" lon="-8.421357000">
        <ele>318.200000</ele>
        <time>2020-10-17T11:05:36Z</time>
      </trkpt>
      <trkpt lat="39.873061000" lon="-8.421350000">
        <ele>318.200000</ele>
        <time>2020-10-17T11:05:37Z</time>
      </trkpt>
      <trkpt lat="39.873005000" lon="-8.421345000">
        <ele>318.000000</ele>
        <time>2020-10-17T11:05:38Z</time>
      </trkpt>
      <trkpt lat="39.872948000" lon="-8.421340000">
        <ele>318.000000</ele>
        <time>2020-10-17T11:05:39Z</time>
      </trkpt>
      <trkpt lat="39.872888000" lon="-8.421334000">
        <ele>317.800000</ele>
        <time>2020-10-17T11:05:40Z</time>
      </trkpt>
      <trkpt lat="39.872833000" lon="-8.421327000">
        <ele>318.000000</ele>
        <time>2020-10-17T11:05:41Z</time>
      </trkpt>
      <trkpt lat="39.872778000" lon="-8.421323000">
        <ele>317.800000</ele>
        <time>2020-10-17T11:05:42Z</time>
      </trkpt>
      <trkpt lat="39.872725000" lon="-8.421322000">
        <ele>318.000000</ele>
        <time>2020-10-17T11:05:43Z</time>
      </trkpt>
      <trkpt lat="39.872675000" lon="-8.421323000">
        <ele>318.000000</ele>
        <time>2020-10-17T11:05:44Z</time>
      </trkpt>
      <trkpt lat="39.872643000" lon="-8.421329000">
        <ele>318.200000</ele>
        <time>2020-10-17T11:05:45Z</time>
      </trkpt>
      <trkpt lat="39.872601000" lon="-8.421329000">
        <ele>318.000000</ele>
        <time>2020-10-17T11:05:46Z</time>
      </trkpt>
      <trkpt lat="39.872558000" lon="-8.421341000">
        <ele>318.200000</ele>
        <time>2020-10-17T11:05:47Z</time>
      </trkpt>
      <trkpt lat="39.872504000" lon="-8.421353000">
        <ele>318.200000</ele>
        <time>2020-10-17T11:05:48Z</time>
      </trkpt>
      <trkpt lat="39.872393000" lon="-8.421368000">
        <ele>318.600000</ele>
        <time>2020-10-17T11:05:50Z</time>
      </trkpt>
      <trkpt lat="39.872205000" lon="-8.421415000">
        <ele>319.000000</ele>
        <time>2020-10-17T11:05:53Z</time>
      </trkpt>
      <trkpt lat="39.872144000" lon="-8.421416000">
        <ele>319.400000</ele>
        <time>2020-10-17T11:05:54Z</time>
      </trkpt>
      <trkpt lat="39.872096000" lon="-8.421423000">
        <ele>319.600000</ele>
        <time>2020-10-17T11:05:55Z</time>
      </trkpt>
      <trkpt lat="39.872043000" lon="-8.421433000">
        <ele>319.600000</ele>
        <time>2020-10-17T11:05:56Z</time>
      </trkpt>
      <trkpt lat="39.871996000" lon="-8.421443000">
        <ele>319.800000</ele>
        <time>2020-10-17T11:05:57Z</time>
      </trkpt>
      <trkpt lat="39.871959000" lon="-8.421451000">
        <ele>319.800000</ele>
        <time>2020-10-17T11:05:58Z</time>
      </trkpt>
      <trkpt lat="39.871919000" lon="-8.421457000">
        <ele>320.400000</ele>
        <time>2020-10-17T11:05:59Z</time>
      </trkpt>
      <trkpt lat="39.871880000" lon="-8.421463000">
        <ele>320.600000</ele>
        <time>2020-10-17T11:06:00Z</time>
      </trkpt>
      <trkpt lat="39.871829000" lon="-8.421472000">
        <ele>320.800000</ele>
        <time>2020-10-17T11:06:01Z</time>
      </trkpt>
      <trkpt lat="39.871775000" lon="-8.421480000">
        <ele>321.000000</ele>
        <time>2020-10-17T11:06:02Z</time>
      </trkpt>
      <trkpt lat="39.871723000" lon="-8.421486000">
        <ele>321.200000</ele>
        <time>2020-10-17T11:06:03Z</time>
      </trkpt>
      <trkpt lat="39.871677000" lon="-8.421486000">
        <ele>321.600000</ele>
        <time>2020-10-17T11:06:04Z</time>
      </trkpt>
      <trkpt lat="39.871631000" lon="-8.421481000">
        <ele>321.800000</ele>
        <time>2020-10-17T11:06:05Z</time>
      </trkpt>
      <trkpt lat="39.871586000" lon="-8.421471000">
        <ele>322.000000</ele>
        <time>2020-10-17T11:06:06Z</time>
      </trkpt>
      <trkpt lat="39.871535000" lon="-8.421459000">
        <ele>322.200000</ele>
        <time>2020-10-17T11:06:07Z</time>
      </trkpt>
      <trkpt lat="39.871500000" lon="-8.421449000">
        <ele>322.600000</ele>
        <time>2020-10-17T11:06:08Z</time>
      </trkpt>
      <trkpt lat="39.871469000" lon="-8.421436000">
        <ele>322.800000</ele>
        <time>2020-10-17T11:06:09Z</time>
      </trkpt>
      <trkpt lat="39.871433000" lon="-8.421423000">
        <ele>323.200000</ele>
        <time>2020-10-17T11:06:10Z</time>
      </trkpt>
      <trkpt lat="39.871403000" lon="-8.421408000">
        <ele>323.200000</ele>
        <time>2020-10-17T11:06:11Z</time>
      </trkpt>
      <trkpt lat="39.871367000" lon="-8.421398000">
        <ele>323.400000</ele>
        <time>2020-10-17T11:06:12Z</time>
      </trkpt>
      <trkpt lat="39.871331000" lon="-8.421393000">
        <ele>323.400000</ele>
        <time>2020-10-17T11:06:13Z</time>
      </trkpt>
      <trkpt lat="39.871279000" lon="-8.421395000">
        <ele>323.600000</ele>
        <time>2020-10-17T11:06:14Z</time>
      </trkpt>
      <trkpt lat="39.871234000" lon="-8.421401000">
        <ele>323.800000</ele>
        <time>2020-10-17T11:06:15Z</time>
      </trkpt>
      <trkpt lat="39.871198000" lon="-8.421399000">
        <ele>323.800000</ele>
        <time>2020-10-17T11:06:16Z</time>
      </trkpt>
      <trkpt lat="39.871156000" lon="-8.421395000">
        <ele>324.000000</ele>
        <time>2020-10-17T11:06:17Z</time>
      </trkpt>
      <trkpt lat="39.871130000" lon="-8.421398000">
        <ele>324.200000</ele>
        <time>2020-10-17T11:06:18Z</time>
      </trkpt>
      <trkpt lat="39.871091000" lon="-8.421397000">
        <ele>324.200000</ele>
        <time>2020-10-17T11:06:19Z</time>
      </trkpt>
      <trkpt lat="39.871052000" lon="-8.421399000">
        <ele>324.400000</ele>
        <time>2020-10-17T11:06:20Z</time>
      </trkpt>
      <trkpt lat="39.871003000" lon="-8.421409000">
        <ele>324.600000</ele>
        <time>2020-10-17T11:06:21Z</time>
      </trkpt>
      <trkpt lat="39.870955000" lon="-8.421421000">
        <ele>325.000000</ele>
        <time>2020-10-17T11:06:22Z</time>
      </trkpt>
      <trkpt lat="39.870909000" lon="-8.421432000">
        <ele>325.400000</ele>
        <time>2020-10-17T11:06:23Z</time>
      </trkpt>
      <trkpt lat="39.870870000" lon="-8.421436000">
        <ele>325.800000</ele>
        <time>2020-10-17T11:06:24Z</time>
      </trkpt>
      <trkpt lat="39.870834000" lon="-8.421438000">
        <ele>325.800000</ele>
        <time>2020-10-17T11:06:25Z</time>
      </trkpt>
      <trkpt lat="39.870799000" lon="-8.421440000">
        <ele>326.200000</ele>
        <time>2020-10-17T11:06:26Z</time>
      </trkpt>
      <trkpt lat="39.870767000" lon="-8.421436000">
        <ele>326.400000</ele>
        <time>2020-10-17T11:06:27Z</time>
      </trkpt>
      <trkpt lat="39.870731000" lon="-8.421436000">
        <ele>326.600000</ele>
        <time>2020-10-17T11:06:28Z</time>
      </trkpt>
      <trkpt lat="39.870690000" lon="-8.421440000">
        <ele>327.000000</ele>
        <time>2020-10-17T11:06:29Z</time>
      </trkpt>
      <trkpt lat="39.870646000" lon="-8.421441000">
        <ele>327.000000</ele>
        <time>2020-10-17T11:06:30Z</time>
      </trkpt>
      <trkpt lat="39.870601000" lon="-8.421439000">
        <ele>327.000000</ele>
        <time>2020-10-17T11:06:31Z</time>
      </trkpt>
      <trkpt lat="39.870560000" lon="-8.421437000">
        <ele>327.000000</ele>
        <time>2020-10-17T11:06:32Z</time>
      </trkpt>
      <trkpt lat="39.870515000" lon="-8.421433000">
        <ele>327.200000</ele>
        <time>2020-10-17T11:06:33Z</time>
      </trkpt>
      <trkpt lat="39.870469000" lon="-8.421425000">
        <ele>327.000000</ele>
        <time>2020-10-17T11:06:34Z</time>
      </trkpt>
      <trkpt lat="39.870428000" lon="-8.421411000">
        <ele>327.200000</ele>
        <time>2020-10-17T11:06:35Z</time>
      </trkpt>
      <trkpt lat="39.870381000" lon="-8.421398000">
        <ele>327.200000</ele>
        <time>2020-10-17T11:06:36Z</time>
      </trkpt>
      <trkpt lat="39.870339000" lon="-8.421383000">
        <ele>327.200000</ele>
        <time>2020-10-17T11:06:37Z</time>
      </trkpt>
      <trkpt lat="39.870303000" lon="-8.421372000">
        <ele>327.200000</ele>
        <time>2020-10-17T11:06:38Z</time>
      </trkpt>
      <trkpt lat="39.870271000" lon="-8.421360000">
        <ele>327.200000</ele>
        <time>2020-10-17T11:06:39Z</time>
      </trkpt>
      <trkpt lat="39.870242000" lon="-8.421349000">
        <ele>327.200000</ele>
        <time>2020-10-17T11:06:40Z</time>
      </trkpt>
      <trkpt lat="39.870205000" lon="-8.421340000">
        <ele>327.400000</ele>
        <time>2020-10-17T11:06:41Z</time>
      </trkpt>
      <trkpt lat="39.870116000" lon="-8.421324000">
        <ele>327.400000</ele>
        <time>2020-10-17T11:06:43Z</time>
      </trkpt>
      <trkpt lat="39.870000000" lon="-8.421308000">
        <ele>327.600000</ele>
        <time>2020-10-17T11:06:46Z</time>
      </trkpt>
      <trkpt lat="39.869974000" lon="-8.421306000">
        <ele>327.800000</ele>
        <time>2020-10-17T11:06:47Z</time>
      </trkpt>
      <trkpt lat="39.869894000" lon="-8.421309000">
        <ele>327.800000</ele>
        <time>2020-10-17T11:06:49Z</time>
      </trkpt>
      <trkpt lat="39.869818000" lon="-8.421309000">
        <ele>327.800000</ele>
        <time>2020-10-17T11:06:51Z</time>
      </trkpt>
      <trkpt lat="39.869781000" lon="-8.421309000">
        <ele>328.000000</ele>
        <time>2020-10-17T11:06:52Z</time>
      </trkpt>
      <trkpt lat="39.869741000" lon="-8.421301000">
        <ele>328.200000</ele>
        <time>2020-10-17T11:06:53Z</time>
      </trkpt>
      <trkpt lat="39.869705000" lon="-8.421292000">
        <ele>328.000000</ele>
        <time>2020-10-17T11:06:54Z</time>
      </trkpt>
      <trkpt lat="39.869676000" lon="-8.421278000">
        <ele>328.400000</ele>
        <time>2020-10-17T11:06:55Z</time>
      </trkpt>
      <trkpt lat="39.869642000" lon="-8.421261000">
        <ele>328.400000</ele>
        <time>2020-10-17T11:06:56Z</time>
      </trkpt>
      <trkpt lat="39.869619000" lon="-8.421245000">
        <ele>328.800000</ele>
        <time>2020-10-17T11:06:57Z</time>
      </trkpt>
      <trkpt lat="39.869596000" lon="-8.421223000">
        <ele>329.000000</ele>
        <time>2020-10-17T11:06:58Z</time>
      </trkpt>
      <trkpt lat="39.869576000" lon="-8.421203000">
        <ele>329.200000</ele>
        <time>2020-10-17T11:06:59Z</time>
      </trkpt>
      <trkpt lat="39.869559000" lon="-8.421181000">
        <ele>329.400000</ele>
        <time>2020-10-17T11:07:00Z</time>
      </trkpt>
      <trkpt lat="39.869545000" lon="-8.421153000">
        <ele>329.600000</ele>
        <time>2020-10-17T11:07:01Z</time>
      </trkpt>
      <trkpt lat="39.869528000" lon="-8.421129000">
        <ele>329.600000</ele>
        <time>2020-10-17T11:07:02Z</time>
      </trkpt>
      <trkpt lat="39.869513000" lon="-8.421109000">
        <ele>329.600000</ele>
        <time>2020-10-17T11:07:03Z</time>
      </trkpt>
      <trkpt lat="39.869495000" lon="-8.421093000">
        <ele>329.600000</ele>
        <time>2020-10-17T11:07:04Z</time>
      </trkpt>
      <trkpt lat="39.869494000" lon="-8.421086000">
        <ele>330.000000</ele>
        <time>2020-10-17T11:07:05Z</time>
      </trkpt>
      <trkpt lat="39.869492000" lon="-8.421079000">
        <ele>330.200000</ele>
        <time>2020-10-17T11:07:06Z</time>
      </trkpt>
      <trkpt lat="39.869482000" lon="-8.421072000">
        <ele>330.400000</ele>
        <time>2020-10-17T11:07:07Z</time>
      </trkpt>
      <trkpt lat="39.869469000" lon="-8.421058000">
        <ele>330.600000</ele>
        <time>2020-10-17T11:07:08Z</time>
      </trkpt>
      <trkpt lat="39.869455000" lon="-8.421042000">
        <ele>330.800000</ele>
        <time>2020-10-17T11:07:09Z</time>
      </trkpt>
      <trkpt lat="39.869444000" lon="-8.421020000">
        <ele>331.000000</ele>
        <time>2020-10-17T11:07:10Z</time>
      </trkpt>
      <trkpt lat="39.869434000" lon="-8.421008000">
        <ele>331.200000</ele>
        <time>2020-10-17T11:07:11Z</time>
      </trkpt>
      <trkpt lat="39.869404000" lon="-8.420971000">
        <ele>331.400000</ele>
        <time>2020-10-17T11:07:12Z</time>
      </trkpt>
      <trkpt lat="39.869377000" lon="-8.420940000">
        <ele>331.600000</ele>
        <time>2020-10-17T11:07:13Z</time>
      </trkpt>
      <trkpt lat="39.869340000" lon="-8.420904000">
        <ele>331.800000</ele>
        <time>2020-10-17T11:07:14Z</time>
      </trkpt>
      <trkpt lat="39.869300000" lon="-8.420864000">
        <ele>332.000000</ele>
        <time>2020-10-17T11:07:15Z</time>
      </trkpt>
      <trkpt lat="39.869277000" lon="-8.420833000">
        <ele>332.200000</ele>
        <time>2020-10-17T11:07:16Z</time>
      </trkpt>
      <trkpt lat="39.869256000" lon="-8.420806000">
        <ele>332.600000</ele>
        <time>2020-10-17T11:07:17Z</time>
      </trkpt>
      <trkpt lat="39.869228000" lon="-8.420786000">
        <ele>332.800000</ele>
        <time>2020-10-17T11:07:18Z</time>
      </trkpt>
      <trkpt lat="39.869202000" lon="-8.420759000">
        <ele>332.800000</ele>
        <time>2020-10-17T11:07:19Z</time>
      </trkpt>
      <trkpt lat="39.869169000" lon="-8.420723000">
        <ele>333.200000</ele>
        <time>2020-10-17T11:07:20Z</time>
      </trkpt>
      <trkpt lat="39.869154000" lon="-8.420691000">
        <ele>333.400000</ele>
        <time>2020-10-17T11:07:21Z</time>
      </trkpt>
      <trkpt lat="39.869144000" lon="-8.420670000">
        <ele>333.600000</ele>
        <time>2020-10-17T11:07:22Z</time>
      </trkpt>
      <trkpt lat="39.869132000" lon="-8.420638000">
        <ele>333.600000</ele>
        <time>2020-10-17T11:07:23Z</time>
      </trkpt>
      <trkpt lat="39.869112000" lon="-8.420598000">
        <ele>333.800000</ele>
        <time>2020-10-17T11:07:24Z</time>
      </trkpt>
      <trkpt lat="39.869094000" lon="-8.420560000">
        <ele>333.800000</ele>
        <time>2020-10-17T11:07:25Z</time>
      </trkpt>
      <trkpt lat="39.869071000" lon="-8.420529000">
        <ele>334.000000</ele>
        <time>2020-10-17T11:07:26Z</time>
      </trkpt>
      <trkpt lat="39.869055000" lon="-8.420499000">
        <ele>334.000000</ele>
        <time>2020-10-17T11:07:27Z</time>
      </trkpt>
      <trkpt lat="39.869036000" lon="-8.420479000">
        <ele>334.400000</ele>
        <time>2020-10-17T11:07:28Z</time>
      </trkpt>
      <trkpt lat="39.869014000" lon="-8.420460000">
        <ele>334.800000</ele>
        <time>2020-10-17T11:07:29Z</time>
      </trkpt>
      <trkpt lat="39.868988000" lon="-8.420434000">
        <ele>335.000000</ele>
        <time>2020-10-17T11:07:30Z</time>
      </trkpt>
      <trkpt lat="39.868958000" lon="-8.420414000">
        <ele>335.000000</ele>
        <time>2020-10-17T11:07:31Z</time>
      </trkpt>
      <trkpt lat="39.868923000" lon="-8.420399000">
        <ele>335.200000</ele>
        <time>2020-10-17T11:07:32Z</time>
      </trkpt>
      <trkpt lat="39.868877000" lon="-8.420384000">
        <ele>335.200000</ele>
        <time>2020-10-17T11:07:33Z</time>
      </trkpt>
      <trkpt lat="39.868822000" lon="-8.420369000">
        <ele>335.600000</ele>
        <time>2020-10-17T11:07:34Z</time>
      </trkpt>
      <trkpt lat="39.868772000" lon="-8.420355000">
        <ele>335.400000</ele>
        <time>2020-10-17T11:07:35Z</time>
      </trkpt>
      <trkpt lat="39.868708000" lon="-8.420333000">
        <ele>335.400000</ele>
        <time>2020-10-17T11:07:36Z</time>
      </trkpt>
      <trkpt lat="39.868657000" lon="-8.420314000">
        <ele>335.600000</ele>
        <time>2020-10-17T11:07:37Z</time>
      </trkpt>
      <trkpt lat="39.868589000" lon="-8.420297000">
        <ele>335.600000</ele>
        <time>2020-10-17T11:07:38Z</time>
      </trkpt>
      <trkpt lat="39.868529000" lon="-8.420283000">
        <ele>335.800000</ele>
        <time>2020-10-17T11:07:39Z</time>
      </trkpt>
      <trkpt lat="39.868479000" lon="-8.420270000">
        <ele>335.800000</ele>
        <time>2020-10-17T11:07:40Z</time>
      </trkpt>
      <trkpt lat="39.868429000" lon="-8.420254000">
        <ele>336.000000</ele>
        <time>2020-10-17T11:07:41Z</time>
      </trkpt>
      <trkpt lat="39.868376000" lon="-8.420237000">
        <ele>336.000000</ele>
        <time>2020-10-17T11:07:42Z</time>
      </trkpt>
      <trkpt lat="39.868326000" lon="-8.420221000">
        <ele>335.800000</ele>
        <time>2020-10-17T11:07:43Z</time>
      </trkpt>
      <trkpt lat="39.868102000" lon="-8.420146000">
        <ele>335.800000</ele>
        <time>2020-10-17T11:07:47Z</time>
      </trkpt>
      <trkpt lat="39.868042000" lon="-8.420126000">
        <ele>335.800000</ele>
        <time>2020-10-17T11:07:48Z</time>
      </trkpt>
      <trkpt lat="39.867988000" lon="-8.420110000">
        <ele>335.800000</ele>
        <time>2020-10-17T11:07:49Z</time>
      </trkpt>
      <trkpt lat="39.867937000" lon="-8.420092000">
        <ele>335.600000</ele>
        <time>2020-10-17T11:07:50Z</time>
      </trkpt>
      <trkpt lat="39.867885000" lon="-8.420074000">
        <ele>335.600000</ele>
        <time>2020-10-17T11:07:51Z</time>
      </trkpt>
      <trkpt lat="39.867778000" lon="-8.420029000">
        <ele>335.600000</ele>
        <time>2020-10-17T11:07:53Z</time>
      </trkpt>
      <trkpt lat="39.867664000" lon="-8.420001000">
        <ele>335.600000</ele>
        <time>2020-10-17T11:07:55Z</time>
      </trkpt>
      <trkpt lat="39.867616000" lon="-8.419985000">
        <ele>335.800000</ele>
        <time>2020-10-17T11:07:56Z</time>
      </trkpt>
      <trkpt lat="39.867563000" lon="-8.419969000">
        <ele>335.800000</ele>
        <time>2020-10-17T11:07:57Z</time>
      </trkpt>
      <trkpt lat="39.867512000" lon="-8.419954000">
        <ele>335.600000</ele>
        <time>2020-10-17T11:07:58Z</time>
      </trkpt>
      <trkpt lat="39.867445000" lon="-8.419936000">
        <ele>335.800000</ele>
        <time>2020-10-17T11:07:59Z</time>
      </trkpt>
      <trkpt lat="39.867275000" lon="-8.419884000">
        <ele>335.800000</ele>
        <time>2020-10-17T11:08:02Z</time>
      </trkpt>
      <trkpt lat="39.866907000" lon="-8.419758000">
        <ele>336.000000</ele>
        <time>2020-10-17T11:08:08Z</time>
      </trkpt>
      <trkpt lat="39.866851000" lon="-8.419738000">
        <ele>336.000000</ele>
        <time>2020-10-17T11:08:09Z</time>
      </trkpt>
      <trkpt lat="39.866804000" lon="-8.419722000">
        <ele>335.800000</ele>
        <time>2020-10-17T11:08:10Z</time>
      </trkpt>
      <trkpt lat="39.866755000" lon="-8.419702000">
        <ele>335.800000</ele>
        <time>2020-10-17T11:08:11Z</time>
      </trkpt>
      <trkpt lat="39.866717000" lon="-8.419678000">
        <ele>336.000000</ele>
        <time>2020-10-17T11:08:12Z</time>
      </trkpt>
      <trkpt lat="39.866673000" lon="-8.419653000">
        <ele>336.000000</ele>
        <time>2020-10-17T11:08:13Z</time>
      </trkpt>
      <trkpt lat="39.866653000" lon="-8.419655000">
        <ele>336.000000</ele>
        <time>2020-10-17T11:08:14Z</time>
      </trkpt>
      <trkpt lat="39.866613000" lon="-8.419670000">
        <ele>336.000000</ele>
        <time>2020-10-17T11:08:15Z</time>
      </trkpt>
      <trkpt lat="39.866574000" lon="-8.419695000">
        <ele>336.200000</ele>
        <time>2020-10-17T11:08:16Z</time>
      </trkpt>
      <trkpt lat="39.866551000" lon="-8.419745000">
        <ele>336.200000</ele>
        <time>2020-10-17T11:08:17Z</time>
      </trkpt>
      <trkpt lat="39.866522000" lon="-8.419805000">
        <ele>336.200000</ele>
        <time>2020-10-17T11:08:18Z</time>
      </trkpt>
      <trkpt lat="39.866491000" lon="-8.419873000">
        <ele>336.200000</ele>
        <time>2020-10-17T11:08:19Z</time>
      </trkpt>
      <trkpt lat="39.866444000" lon="-8.419937000">
        <ele>336.200000</ele>
        <time>2020-10-17T11:08:20Z</time>
      </trkpt>
      <trkpt lat="39.866338000" lon="-8.420056000">
        <ele>336.000000</ele>
        <time>2020-10-17T11:08:22Z</time>
      </trkpt>
      <trkpt lat="39.866286000" lon="-8.420128000">
        <ele>336.200000</ele>
        <time>2020-10-17T11:08:23Z</time>
      </trkpt>
      <trkpt lat="39.866238000" lon="-8.420222000">
        <ele>336.000000</ele>
        <time>2020-10-17T11:08:24Z</time>
      </trkpt>
      <trkpt lat="39.866196000" lon="-8.420317000">
        <ele>336.000000</ele>
        <time>2020-10-17T11:08:25Z</time>
      </trkpt>
      <trkpt lat="39.866151000" lon="-8.420408000">
        <ele>335.800000</ele>
        <time>2020-10-17T11:08:26Z</time>
      </trkpt>
      <trkpt lat="39.866039000" lon="-8.420576000">
        <ele>335.800000</ele>
        <time>2020-10-17T11:08:28Z</time>
      </trkpt>
      <trkpt lat="39.865977000" lon="-8.420659000">
        <ele>335.400000</ele>
        <time>2020-10-17T11:08:29Z</time>
      </trkpt>
      <trkpt lat="39.865913000" lon="-8.420742000">
        <ele>335.000000</ele>
        <time>2020-10-17T11:08:30Z</time>
      </trkpt>
      <trkpt lat="39.865847000" lon="-8.420832000">
        <ele>334.800000</ele>
        <time>2020-10-17T11:08:31Z</time>
      </trkpt>
      <trkpt lat="39.865771000" lon="-8.420924000">
        <ele>333.800000</ele>
        <time>2020-10-17T11:08:32Z</time>
      </trkpt>
      <trkpt lat="39.865562000" lon="-8.421208000">
        <ele>332.200000</ele>
        <time>2020-10-17T11:08:35Z</time>
      </trkpt>
      <trkpt lat="39.865500000" lon="-8.421313000">
        <ele>331.600000</ele>
        <time>2020-10-17T11:08:36Z</time>
      </trkpt>
      <trkpt lat="39.865352000" lon="-8.421518000">
        <ele>330.400000</ele>
        <time>2020-10-17T11:08:38Z</time>
      </trkpt>
      <trkpt lat="39.865279000" lon="-8.421611000">
        <ele>329.400000</ele>
        <time>2020-10-17T11:08:39Z</time>
      </trkpt>
      <trkpt lat="39.865217000" lon="-8.421693000">
        <ele>328.800000</ele>
        <time>2020-10-17T11:08:40Z</time>
      </trkpt>
      <trkpt lat="39.865145000" lon="-8.421761000">
        <ele>327.400000</ele>
        <time>2020-10-17T11:08:41Z</time>
      </trkpt>
      <trkpt lat="39.865056000" lon="-8.421811000">
        <ele>326.400000</ele>
        <time>2020-10-17T11:08:42Z</time>
      </trkpt>
      <trkpt lat="39.864964000" lon="-8.421848000">
        <ele>325.800000</ele>
        <time>2020-10-17T11:08:43Z</time>
      </trkpt>
      <trkpt lat="39.864882000" lon="-8.421882000">
        <ele>324.800000</ele>
        <time>2020-10-17T11:08:44Z</time>
      </trkpt>
      <trkpt lat="39.864801000" lon="-8.421922000">
        <ele>324.200000</ele>
        <time>2020-10-17T11:08:45Z</time>
      </trkpt>
      <trkpt lat="39.864724000" lon="-8.421960000">
        <ele>323.600000</ele>
        <time>2020-10-17T11:08:46Z</time>
      </trkpt>
      <trkpt lat="39.864648000" lon="-8.422010000">
        <ele>322.800000</ele>
        <time>2020-10-17T11:08:47Z</time>
      </trkpt>
      <trkpt lat="39.864583000" lon="-8.422068000">
        <ele>322.800000</ele>
        <time>2020-10-17T11:08:48Z</time>
      </trkpt>
      <trkpt lat="39.864528000" lon="-8.422132000">
        <ele>322.000000</ele>
        <time>2020-10-17T11:08:49Z</time>
      </trkpt>
      <trkpt lat="39.864384000" lon="-8.422291000">
        <ele>321.000000</ele>
        <time>2020-10-17T11:08:51Z</time>
      </trkpt>
      <trkpt lat="39.864157000" lon="-8.422508000">
        <ele>318.600000</ele>
        <time>2020-10-17T11:08:54Z</time>
      </trkpt>
      <trkpt lat="39.864084000" lon="-8.422567000">
        <ele>317.800000</ele>
        <time>2020-10-17T11:08:55Z</time>
      </trkpt>
      <trkpt lat="39.863991000" lon="-8.422634000">
        <ele>317.600000</ele>
        <time>2020-10-17T11:08:56Z</time>
      </trkpt>
      <trkpt lat="39.863747000" lon="-8.422840000">
        <ele>315.600000</ele>
        <time>2020-10-17T11:08:59Z</time>
      </trkpt>
      <trkpt lat="39.863674000" lon="-8.422917000">
        <ele>315.000000</ele>
        <time>2020-10-17T11:09:00Z</time>
      </trkpt>
      <trkpt lat="39.863605000" lon="-8.422998000">
        <ele>314.400000</ele>
        <time>2020-10-17T11:09:01Z</time>
      </trkpt>
      <trkpt lat="39.863538000" lon="-8.423072000">
        <ele>314.000000</ele>
        <time>2020-10-17T11:09:02Z</time>
      </trkpt>
      <trkpt lat="39.863368000" lon="-8.423196000">
        <ele>313.200000</ele>
        <time>2020-10-17T11:09:04Z</time>
      </trkpt>
      <trkpt lat="39.863275000" lon="-8.423252000">
        <ele>312.600000</ele>
        <time>2020-10-17T11:09:05Z</time>
      </trkpt>
      <trkpt lat="39.863187000" lon="-8.423309000">
        <ele>312.000000</ele>
        <time>2020-10-17T11:09:06Z</time>
      </trkpt>
      <trkpt lat="39.863103000" lon="-8.423368000">
        <ele>311.800000</ele>
        <time>2020-10-17T11:09:07Z</time>
      </trkpt>
      <trkpt lat="39.862934000" lon="-8.423482000">
        <ele>310.200000</ele>
        <time>2020-10-17T11:09:09Z</time>
      </trkpt>
      <trkpt lat="39.862762000" lon="-8.423588000">
        <ele>309.600000</ele>
        <time>2020-10-17T11:09:11Z</time>
      </trkpt>
      <trkpt lat="39.862680000" lon="-8.423626000">
        <ele>309.200000</ele>
        <time>2020-10-17T11:09:12Z</time>
      </trkpt>
      <trkpt lat="39.862606000" lon="-8.423647000">
        <ele>308.800000</ele>
        <time>2020-10-17T11:09:13Z</time>
      </trkpt>
      <trkpt lat="39.862529000" lon="-8.423667000">
        <ele>308.000000</ele>
        <time>2020-10-17T11:09:14Z</time>
      </trkpt>
      <trkpt lat="39.862452000" lon="-8.423683000">
        <ele>307.200000</ele>
        <time>2020-10-17T11:09:15Z</time>
      </trkpt>
      <trkpt lat="39.862376000" lon="-8.423701000">
        <ele>306.600000</ele>
        <time>2020-10-17T11:09:16Z</time>
      </trkpt>
      <trkpt lat="39.862303000" lon="-8.423718000">
        <ele>306.000000</ele>
        <time>2020-10-17T11:09:17Z</time>
      </trkpt>
      <trkpt lat="39.862228000" lon="-8.423734000">
        <ele>305.600000</ele>
        <time>2020-10-17T11:09:18Z</time>
      </trkpt>
      <trkpt lat="39.861904000" lon="-8.423810000">
        <ele>304.800000</ele>
        <time>2020-10-17T11:09:22Z</time>
      </trkpt>
      <trkpt lat="39.861503000" lon="-8.424009000">
        <ele>303.400000</ele>
        <time>2020-10-17T11:09:27Z</time>
      </trkpt>
      <trkpt lat="39.861424000" lon="-8.424062000">
        <ele>303.400000</ele>
        <time>2020-10-17T11:09:28Z</time>
      </trkpt>
      <trkpt lat="39.861037000" lon="-8.424358000">
        <ele>301.800000</ele>
        <time>2020-10-17T11:09:33Z</time>
      </trkpt>
      <trkpt lat="39.860886000" lon="-8.424491000">
        <ele>301.200000</ele>
        <time>2020-10-17T11:09:35Z</time>
      </trkpt>
      <trkpt lat="39.860679000" lon="-8.424708000">
        <ele>300.000000</ele>
        <time>2020-10-17T11:09:38Z</time>
      </trkpt>
      <trkpt lat="39.860611000" lon="-8.424784000">
        <ele>300.000000</ele>
        <time>2020-10-17T11:09:39Z</time>
      </trkpt>
      <trkpt lat="39.860505000" lon="-8.424962000">
        <ele>299.400000</ele>
        <time>2020-10-17T11:09:41Z</time>
      </trkpt>
      <trkpt lat="39.860457000" lon="-8.425047000">
        <ele>299.000000</ele>
        <time>2020-10-17T11:09:42Z</time>
      </trkpt>
      <trkpt lat="39.860411000" lon="-8.425125000">
        <ele>298.400000</ele>
        <time>2020-10-17T11:09:43Z</time>
      </trkpt>
      <trkpt lat="39.860362000" lon="-8.425205000">
        <ele>298.200000</ele>
        <time>2020-10-17T11:09:44Z</time>
      </trkpt>
      <trkpt lat="39.860306000" lon="-8.425270000">
        <ele>298.000000</ele>
        <time>2020-10-17T11:09:45Z</time>
      </trkpt>
      <trkpt lat="39.860248000" lon="-8.425331000">
        <ele>297.800000</ele>
        <time>2020-10-17T11:09:46Z</time>
      </trkpt>
      <trkpt lat="39.860187000" lon="-8.425368000">
        <ele>297.600000</ele>
        <time>2020-10-17T11:09:47Z</time>
      </trkpt>
      <trkpt lat="39.860140000" lon="-8.425393000">
        <ele>297.000000</ele>
        <time>2020-10-17T11:09:48Z</time>
      </trkpt>
      <trkpt lat="39.860084000" lon="-8.425423000">
        <ele>296.800000</ele>
        <time>2020-10-17T11:09:49Z</time>
      </trkpt>
      <trkpt lat="39.860019000" lon="-8.425444000">
        <ele>296.400000</ele>
        <time>2020-10-17T11:09:50Z</time>
      </trkpt>
      <trkpt lat="39.859953000" lon="-8.425463000">
        <ele>296.400000</ele>
        <time>2020-10-17T11:09:51Z</time>
      </trkpt>
      <trkpt lat="39.859890000" lon="-8.425476000">
        <ele>296.400000</ele>
        <time>2020-10-17T11:09:52Z</time>
      </trkpt>
      <trkpt lat="39.859849000" lon="-8.425495000">
        <ele>296.400000</ele>
        <time>2020-10-17T11:09:53Z</time>
      </trkpt>
      <trkpt lat="39.859834000" lon="-8.425508000">
        <ele>296.200000</ele>
        <time>2020-10-17T11:09:54Z</time>
      </trkpt>
      <trkpt lat="39.859819000" lon="-8.425536000">
        <ele>296.000000</ele>
        <time>2020-10-17T11:09:55Z</time>
      </trkpt>
      <trkpt lat="39.859818000" lon="-8.425535000">
        <ele>296.000000</ele>
        <time>2020-10-17T11:09:56Z</time>
      </trkpt>
      <trkpt lat="39.859818000" lon="-8.425528000">
        <ele>296.000000</ele>
        <time>2020-10-17T11:09:57Z</time>
      </trkpt>
      <trkpt lat="39.859819000" lon="-8.425526000">
        <ele>295.800000</ele>
        <time>2020-10-17T11:09:58Z</time>
      </trkpt>
      <trkpt lat="39.859831000" lon="-8.425525000">
        <ele>295.800000</ele>
        <time>2020-10-17T11:10:00Z</time>
      </trkpt>
      <trkpt lat="39.859789000" lon="-8.425682000">
        <ele>295.600000</ele>
        <time>2020-10-17T11:10:30Z</time>
      </trkpt>
      <trkpt lat="39.859782000" lon="-8.425722000">
        <ele>295.600000</ele>
        <time>2020-10-17T11:10:31Z</time>
      </trkpt>
      <trkpt lat="39.859725000" lon="-8.425979000">
        <ele>295.600000</ele>
        <time>2020-10-17T11:10:36Z</time>
      </trkpt>
      <trkpt lat="39.859712000" lon="-8.426028000">
        <ele>295.600000</ele>
        <time>2020-10-17T11:10:37Z</time>
      </trkpt>
      <trkpt lat="39.859703000" lon="-8.426075000">
        <ele>295.600000</ele>
        <time>2020-10-17T11:10:38Z</time>
      </trkpt>
      <trkpt lat="39.859693000" lon="-8.426122000">
        <ele>295.600000</ele>
        <time>2020-10-17T11:10:39Z</time>
      </trkpt>
      <trkpt lat="39.859683000" lon="-8.426168000">
        <ele>295.800000</ele>
        <time>2020-10-17T11:10:40Z</time>
      </trkpt>
      <trkpt lat="39.859672000" lon="-8.426215000">
        <ele>295.800000</ele>
        <time>2020-10-17T11:10:41Z</time>
      </trkpt>
      <trkpt lat="39.859662000" lon="-8.426261000">
        <ele>295.800000</ele>
        <time>2020-10-17T11:10:42Z</time>
      </trkpt>
      <trkpt lat="39.859658000" lon="-8.426310000">
        <ele>295.800000</ele>
        <time>2020-10-17T11:10:43Z</time>
      </trkpt>
      <trkpt lat="39.859673000" lon="-8.426592000">
        <ele>296.600000</ele>
        <time>2020-10-17T11:10:48Z</time>
      </trkpt>
      <trkpt lat="39.859678000" lon="-8.426666000">
        <ele>296.600000</ele>
        <time>2020-10-17T11:10:49Z</time>
      </trkpt>
      <trkpt lat="39.859681000" lon="-8.426752000">
        <ele>296.800000</ele>
        <time>2020-10-17T11:10:50Z</time>
      </trkpt>
      <trkpt lat="39.859679000" lon="-8.426844000">
        <ele>297.000000</ele>
        <time>2020-10-17T11:10:51Z</time>
      </trkpt>
      <trkpt lat="39.859669000" lon="-8.426943000">
        <ele>296.800000</ele>
        <time>2020-10-17T11:10:52Z</time>
      </trkpt>
      <trkpt lat="39.859644000" lon="-8.427044000">
        <ele>297.000000</ele>
        <time>2020-10-17T11:10:53Z</time>
      </trkpt>
      <trkpt lat="39.859599000" lon="-8.427142000">
        <ele>297.000000</ele>
        <time>2020-10-17T11:10:54Z</time>
      </trkpt>
      <trkpt lat="39.859547000" lon="-8.427230000">
        <ele>297.000000</ele>
        <time>2020-10-17T11:10:55Z</time>
      </trkpt>
      <trkpt lat="39.859492000" lon="-8.427307000">
        <ele>297.000000</ele>
        <time>2020-10-17T11:10:56Z</time>
      </trkpt>
      <trkpt lat="39.859441000" lon="-8.427384000">
        <ele>297.000000</ele>
        <time>2020-10-17T11:10:57Z</time>
      </trkpt>
      <trkpt lat="39.859408000" lon="-8.427464000">
        <ele>297.000000</ele>
        <time>2020-10-17T11:10:58Z</time>
      </trkpt>
      <trkpt lat="39.859391000" lon="-8.427552000">
        <ele>297.200000</ele>
        <time>2020-10-17T11:10:59Z</time>
      </trkpt>
      <trkpt lat="39.859401000" lon="-8.427641000">
        <ele>296.000000</ele>
        <time>2020-10-17T11:11:00Z</time>
      </trkpt>
      <trkpt lat="39.859459000" lon="-8.427732000">
        <ele>295.000000</ele>
        <time>2020-10-17T11:11:01Z</time>
      </trkpt>
      <trkpt lat="39.859519000" lon="-8.427815000">
        <ele>294.200000</ele>
        <time>2020-10-17T11:11:02Z</time>
      </trkpt>
      <trkpt lat="39.859676000" lon="-8.427991000">
        <ele>293.200000</ele>
        <time>2020-10-17T11:11:04Z</time>
      </trkpt>
      <trkpt lat="39.859759000" lon="-8.428082000">
        <ele>292.000000</ele>
        <time>2020-10-17T11:11:05Z</time>
      </trkpt>
      <trkpt lat="39.859837000" lon="-8.428187000">
        <ele>290.800000</ele>
        <time>2020-10-17T11:11:06Z</time>
      </trkpt>
      <trkpt lat="39.859951000" lon="-8.428416000">
        <ele>288.800000</ele>
        <time>2020-10-17T11:11:08Z</time>
      </trkpt>
      <trkpt lat="39.859984000" lon="-8.428508000">
        <ele>287.800000</ele>
        <time>2020-10-17T11:11:09Z</time>
      </trkpt>
      <trkpt lat="39.860005000" lon="-8.428584000">
        <ele>286.600000</ele>
        <time>2020-10-17T11:11:10Z</time>
      </trkpt>
      <trkpt lat="39.860020000" lon="-8.428646000">
        <ele>285.200000</ele>
        <time>2020-10-17T11:11:11Z</time>
      </trkpt>
      <trkpt lat="39.860032000" lon="-8.428695000">
        <ele>284.200000</ele>
        <time>2020-10-17T11:11:12Z</time>
      </trkpt>
      <trkpt lat="39.860042000" lon="-8.428735000">
        <ele>282.800000</ele>
        <time>2020-10-17T11:11:13Z</time>
      </trkpt>
      <trkpt lat="39.860049000" lon="-8.428766000">
        <ele>281.400000</ele>
        <time>2020-10-17T11:11:14Z</time>
      </trkpt>
      <trkpt lat="39.860055000" lon="-8.428793000">
        <ele>280.800000</ele>
        <time>2020-10-17T11:11:15Z</time>
      </trkpt>
      <trkpt lat="39.860059000" lon="-8.428816000">
        <ele>280.800000</ele>
        <time>2020-10-17T11:11:16Z</time>
      </trkpt>
      <trkpt lat="39.860064000" lon="-8.428838000">
        <ele>280.600000</ele>
        <time>2020-10-17T11:11:17Z</time>
      </trkpt>
      <trkpt lat="39.860066000" lon="-8.428857000">
        <ele>280.400000</ele>
        <time>2020-10-17T11:11:18Z</time>
      </trkpt>
      <trkpt lat="39.860086000" lon="-8.428974000">
        <ele>280.200000</ele>
        <time>2020-10-17T11:11:22Z</time>
      </trkpt>
      <trkpt lat="39.860111000" lon="-8.429157000">
        <ele>280.200000</ele>
        <time>2020-10-17T11:11:27Z</time>
      </trkpt>
      <trkpt lat="39.860113000" lon="-8.429229000">
        <ele>280.600000</ele>
        <time>2020-10-17T11:11:29Z</time>
      </trkpt>
      <trkpt lat="39.860102000" lon="-8.429264000">
        <ele>281.000000</ele>
        <time>2020-10-17T11:11:30Z</time>
      </trkpt>
      <trkpt lat="39.860081000" lon="-8.429293000">
        <ele>281.200000</ele>
        <time>2020-10-17T11:11:31Z</time>
      </trkpt>
      <trkpt lat="39.860010000" lon="-8.429353000">
        <ele>281.600000</ele>
        <time>2020-10-17T11:11:33Z</time>
      </trkpt>
      <trkpt lat="39.859965000" lon="-8.429383000">
        <ele>281.600000</ele>
        <time>2020-10-17T11:11:34Z</time>
      </trkpt>
      <trkpt lat="39.859918000" lon="-8.429418000">
        <ele>281.600000</ele>
        <time>2020-10-17T11:11:35Z</time>
      </trkpt>
      <trkpt lat="39.859749000" lon="-8.429537000">
        <ele>281.800000</ele>
        <time>2020-10-17T11:11:38Z</time>
      </trkpt>
      <trkpt lat="39.859612000" lon="-8.429630000">
        <ele>281.600000</ele>
        <time>2020-10-17T11:11:40Z</time>
      </trkpt>
      <trkpt lat="39.859539000" lon="-8.429685000">
        <ele>281.600000</ele>
        <time>2020-10-17T11:11:41Z</time>
      </trkpt>
      <trkpt lat="39.859466000" lon="-8.429743000">
        <ele>281.800000</ele>
        <time>2020-10-17T11:11:42Z</time>
      </trkpt>
      <trkpt lat="39.859395000" lon="-8.429801000">
        <ele>281.400000</ele>
        <time>2020-10-17T11:11:43Z</time>
      </trkpt>
      <trkpt lat="39.859329000" lon="-8.429856000">
        <ele>281.200000</ele>
        <time>2020-10-17T11:11:44Z</time>
      </trkpt>
      <trkpt lat="39.859267000" lon="-8.429905000">
        <ele>281.000000</ele>
        <time>2020-10-17T11:11:45Z</time>
      </trkpt>
      <trkpt lat="39.859215000" lon="-8.429956000">
        <ele>280.600000</ele>
        <time>2020-10-17T11:11:46Z</time>
      </trkpt>
      <trkpt lat="39.859166000" lon="-8.430001000">
        <ele>280.400000</ele>
        <time>2020-10-17T11:11:47Z</time>
      </trkpt>
      <trkpt lat="39.859119000" lon="-8.430036000">
        <ele>279.800000</ele>
        <time>2020-10-17T11:11:48Z</time>
      </trkpt>
      <trkpt lat="39.859075000" lon="-8.430059000">
        <ele>279.600000</ele>
        <time>2020-10-17T11:11:49Z</time>
      </trkpt>
      <trkpt lat="39.859030000" lon="-8.430085000">
        <ele>279.400000</ele>
        <time>2020-10-17T11:11:50Z</time>
      </trkpt>
      <trkpt lat="39.858987000" lon="-8.430111000">
        <ele>279.200000</ele>
        <time>2020-10-17T11:11:51Z</time>
      </trkpt>
      <trkpt lat="39.858948000" lon="-8.430134000">
        <ele>279.200000</ele>
        <time>2020-10-17T11:11:52Z</time>
      </trkpt>
      <trkpt lat="39.858915000" lon="-8.430152000">
        <ele>279.200000</ele>
        <time>2020-10-17T11:11:53Z</time>
      </trkpt>
      <trkpt lat="39.858883000" lon="-8.430168000">
        <ele>279.200000</ele>
        <time>2020-10-17T11:11:54Z</time>
      </trkpt>
      <trkpt lat="39.858849000" lon="-8.430184000">
        <ele>279.200000</ele>
        <time>2020-10-17T11:11:55Z</time>
      </trkpt>
      <trkpt lat="39.858815000" lon="-8.430200000">
        <ele>279.000000</ele>
        <time>2020-10-17T11:11:56Z</time>
      </trkpt>
      <trkpt lat="39.858782000" lon="-8.430216000">
        <ele>279.000000</ele>
        <time>2020-10-17T11:11:57Z</time>
      </trkpt>
      <trkpt lat="39.858750000" lon="-8.430232000">
        <ele>279.000000</ele>
        <time>2020-10-17T11:11:58Z</time>
      </trkpt>
      <trkpt lat="39.858718000" lon="-8.430245000">
        <ele>279.200000</ele>
        <time>2020-10-17T11:11:59Z</time>
      </trkpt>
      <trkpt lat="39.858686000" lon="-8.430259000">
        <ele>279.200000</ele>
        <time>2020-10-17T11:12:00Z</time>
      </trkpt>
      <trkpt lat="39.858657000" lon="-8.430272000">
        <ele>279.200000</ele>
        <time>2020-10-17T11:12:01Z</time>
      </trkpt>
      <trkpt lat="39.858624000" lon="-8.430287000">
        <ele>279.200000</ele>
        <time>2020-10-17T11:12:02Z</time>
      </trkpt>
      <trkpt lat="39.858593000" lon="-8.430305000">
        <ele>279.400000</ele>
        <time>2020-10-17T11:12:03Z</time>
      </trkpt>
      <trkpt lat="39.858563000" lon="-8.430325000">
        <ele>280.000000</ele>
        <time>2020-10-17T11:12:04Z</time>
      </trkpt>
      <trkpt lat="39.858535000" lon="-8.430346000">
        <ele>280.600000</ele>
        <time>2020-10-17T11:12:05Z</time>
      </trkpt>
      <trkpt lat="39.858511000" lon="-8.430368000">
        <ele>281.000000</ele>
        <time>2020-10-17T11:12:06Z</time>
      </trkpt>
      <trkpt lat="39.858485000" lon="-8.430390000">
        <ele>281.600000</ele>
        <time>2020-10-17T11:12:07Z</time>
      </trkpt>
      <trkpt lat="39.858462000" lon="-8.430413000">
        <ele>282.000000</ele>
        <time>2020-10-17T11:12:08Z</time>
      </trkpt>
      <trkpt lat="39.858437000" lon="-8.430432000">
        <ele>282.200000</ele>
        <time>2020-10-17T11:12:09Z</time>
      </trkpt>
      <trkpt lat="39.858415000" lon="-8.430451000">
        <ele>282.400000</ele>
        <time>2020-10-17T11:12:10Z</time>
      </trkpt>
      <trkpt lat="39.858395000" lon="-8.430470000">
        <ele>282.600000</ele>
        <time>2020-10-17T11:12:11Z</time>
      </trkpt>
      <trkpt lat="39.858375000" lon="-8.430488000">
        <ele>283.000000</ele>
        <time>2020-10-17T11:12:12Z</time>
      </trkpt>
      <trkpt lat="39.858358000" lon="-8.430509000">
        <ele>283.400000</ele>
        <time>2020-10-17T11:12:13Z</time>
      </trkpt>
      <trkpt lat="39.858341000" lon="-8.430532000">
        <ele>283.800000</ele>
        <time>2020-10-17T11:12:14Z</time>
      </trkpt>
      <trkpt lat="39.858322000" lon="-8.430551000">
        <ele>284.200000</ele>
        <time>2020-10-17T11:12:15Z</time>
      </trkpt>
      <trkpt lat="39.858305000" lon="-8.430566000">
        <ele>285.000000</ele>
        <time>2020-10-17T11:12:16Z</time>
      </trkpt>
      <trkpt lat="39.858278000" lon="-8.430582000">
        <ele>285.200000</ele>
        <time>2020-10-17T11:12:17Z</time>
      </trkpt>
      <trkpt lat="39.858247000" lon="-8.430594000">
        <ele>285.600000</ele>
        <time>2020-10-17T11:12:18Z</time>
      </trkpt>
      <trkpt lat="39.858211000" lon="-8.430601000">
        <ele>285.600000</ele>
        <time>2020-10-17T11:12:19Z</time>
      </trkpt>
      <trkpt lat="39.858173000" lon="-8.430599000">
        <ele>285.800000</ele>
        <time>2020-10-17T11:12:20Z</time>
      </trkpt>
      <trkpt lat="39.858136000" lon="-8.430592000">
        <ele>286.000000</ele>
        <time>2020-10-17T11:12:21Z</time>
      </trkpt>
      <trkpt lat="39.858097000" lon="-8.430582000">
        <ele>286.400000</ele>
        <time>2020-10-17T11:12:22Z</time>
      </trkpt>
      <trkpt lat="39.858054000" lon="-8.430581000">
        <ele>286.400000</ele>
        <time>2020-10-17T11:12:23Z</time>
      </trkpt>
      <trkpt lat="39.858005000" lon="-8.430586000">
        <ele>286.600000</ele>
        <time>2020-10-17T11:12:24Z</time>
      </trkpt>
      <trkpt lat="39.857951000" lon="-8.430593000">
        <ele>286.400000</ele>
        <time>2020-10-17T11:12:25Z</time>
      </trkpt>
      <trkpt lat="39.857898000" lon="-8.430602000">
        <ele>286.600000</ele>
        <time>2020-10-17T11:12:26Z</time>
      </trkpt>
      <trkpt lat="39.857843000" lon="-8.430607000">
        <ele>286.600000</ele>
        <time>2020-10-17T11:12:27Z</time>
      </trkpt>
      <trkpt lat="39.857786000" lon="-8.430600000">
        <ele>286.400000</ele>
        <time>2020-10-17T11:12:28Z</time>
      </trkpt>
      <trkpt lat="39.857731000" lon="-8.430575000">
        <ele>286.400000</ele>
        <time>2020-10-17T11:12:29Z</time>
      </trkpt>
      <trkpt lat="39.857681000" lon="-8.430542000">
        <ele>286.600000</ele>
        <time>2020-10-17T11:12:30Z</time>
      </trkpt>
      <trkpt lat="39.857634000" lon="-8.430506000">
        <ele>286.600000</ele>
        <time>2020-10-17T11:12:31Z</time>
      </trkpt>
      <trkpt lat="39.857588000" lon="-8.430470000">
        <ele>286.200000</ele>
        <time>2020-10-17T11:12:32Z</time>
      </trkpt>
      <trkpt lat="39.857436000" lon="-8.430355000">
        <ele>285.800000</ele>
        <time>2020-10-17T11:12:35Z</time>
      </trkpt>
      <trkpt lat="39.857385000" lon="-8.430310000">
        <ele>285.600000</ele>
        <time>2020-10-17T11:12:36Z</time>
      </trkpt>
      <trkpt lat="39.857336000" lon="-8.430259000">
        <ele>285.400000</ele>
        <time>2020-10-17T11:12:37Z</time>
      </trkpt>
      <trkpt lat="39.857290000" lon="-8.430201000">
        <ele>284.600000</ele>
        <time>2020-10-17T11:12:38Z</time>
      </trkpt>
      <trkpt lat="39.857246000" lon="-8.430140000">
        <ele>284.200000</ele>
        <time>2020-10-17T11:12:39Z</time>
      </trkpt>
      <trkpt lat="39.857198000" lon="-8.430081000">
        <ele>284.000000</ele>
        <time>2020-10-17T11:12:40Z</time>
      </trkpt>
      <trkpt lat="39.856957000" lon="-8.429873000">
        <ele>282.200000</ele>
        <time>2020-10-17T11:12:44Z</time>
      </trkpt>
      <trkpt lat="39.856904000" lon="-8.429824000">
        <ele>282.000000</ele>
        <time>2020-10-17T11:12:45Z</time>
      </trkpt>
      <trkpt lat="39.856856000" lon="-8.429783000">
        <ele>281.400000</ele>
        <time>2020-10-17T11:12:46Z</time>
      </trkpt>
      <trkpt lat="39.856813000" lon="-8.429748000">
        <ele>280.800000</ele>
        <time>2020-10-17T11:12:47Z</time>
      </trkpt>
      <trkpt lat="39.856771000" lon="-8.429717000">
        <ele>280.200000</ele>
        <time>2020-10-17T11:12:48Z</time>
      </trkpt>
      <trkpt lat="39.856726000" lon="-8.429695000">
        <ele>279.600000</ele>
        <time>2020-10-17T11:12:49Z</time>
      </trkpt>
      <trkpt lat="39.856615000" lon="-8.429668000">
        <ele>278.600000</ele>
        <time>2020-10-17T11:12:51Z</time>
      </trkpt>
      <trkpt lat="39.856495000" lon="-8.429651000">
        <ele>277.400000</ele>
        <time>2020-10-17T11:12:53Z</time>
      </trkpt>
      <trkpt lat="39.856367000" lon="-8.429627000">
        <ele>275.800000</ele>
        <time>2020-10-17T11:12:55Z</time>
      </trkpt>
      <trkpt lat="39.856266000" lon="-8.429551000">
        <ele>275.000000</ele>
        <time>2020-10-17T11:12:57Z</time>
      </trkpt>
      <trkpt lat="39.856235000" lon="-8.429487000">
        <ele>274.800000</ele>
        <time>2020-10-17T11:12:58Z</time>
      </trkpt>
      <trkpt lat="39.856177000" lon="-8.429347000">
        <ele>274.200000</ele>
        <time>2020-10-17T11:13:00Z</time>
      </trkpt>
      <trkpt lat="39.856135000" lon="-8.429302000">
        <ele>274.200000</ele>
        <time>2020-10-17T11:13:01Z</time>
      </trkpt>
      <trkpt lat="39.856083000" lon="-8.429273000">
        <ele>273.800000</ele>
        <time>2020-10-17T11:13:02Z</time>
      </trkpt>
      <trkpt lat="39.856031000" lon="-8.429259000">
        <ele>273.200000</ele>
        <time>2020-10-17T11:13:03Z</time>
      </trkpt>
      <trkpt lat="39.855978000" lon="-8.429242000">
        <ele>272.800000</ele>
        <time>2020-10-17T11:13:04Z</time>
      </trkpt>
      <trkpt lat="39.855926000" lon="-8.429225000">
        <ele>272.400000</ele>
        <time>2020-10-17T11:13:05Z</time>
      </trkpt>
      <trkpt lat="39.855810000" lon="-8.429212000">
        <ele>271.600000</ele>
        <time>2020-10-17T11:13:07Z</time>
      </trkpt>
      <trkpt lat="39.855687000" lon="-8.429220000">
        <ele>270.600000</ele>
        <time>2020-10-17T11:13:09Z</time>
      </trkpt>
      <trkpt lat="39.855435000" lon="-8.429256000">
        <ele>270.000000</ele>
        <time>2020-10-17T11:13:13Z</time>
      </trkpt>
      <trkpt lat="39.855317000" lon="-8.429264000">
        <ele>270.000000</ele>
        <time>2020-10-17T11:13:15Z</time>
      </trkpt>
      <trkpt lat="39.855268000" lon="-8.429252000">
        <ele>270.000000</ele>
        <time>2020-10-17T11:13:16Z</time>
      </trkpt>
      <trkpt lat="39.855228000" lon="-8.429227000">
        <ele>270.000000</ele>
        <time>2020-10-17T11:13:17Z</time>
      </trkpt>
      <trkpt lat="39.855207000" lon="-8.429193000">
        <ele>269.800000</ele>
        <time>2020-10-17T11:13:18Z</time>
      </trkpt>
      <trkpt lat="39.855188000" lon="-8.429159000">
        <ele>269.800000</ele>
        <time>2020-10-17T11:13:19Z</time>
      </trkpt>
      <trkpt lat="39.855173000" lon="-8.429127000">
        <ele>270.000000</ele>
        <time>2020-10-17T11:13:20Z</time>
      </trkpt>
      <trkpt lat="39.855158000" lon="-8.429094000">
        <ele>270.000000</ele>
        <time>2020-10-17T11:13:21Z</time>
      </trkpt>
      <trkpt lat="39.855143000" lon="-8.429061000">
        <ele>270.000000</ele>
        <time>2020-10-17T11:13:22Z</time>
      </trkpt>
      <trkpt lat="39.855129000" lon="-8.429031000">
        <ele>270.200000</ele>
        <time>2020-10-17T11:13:23Z</time>
      </trkpt>
      <trkpt lat="39.855104000" lon="-8.428964000">
        <ele>270.400000</ele>
        <time>2020-10-17T11:13:25Z</time>
      </trkpt>
      <trkpt lat="39.855065000" lon="-8.428878000">
        <ele>271.000000</ele>
        <time>2020-10-17T11:13:27Z</time>
      </trkpt>
      <trkpt lat="39.855004000" lon="-8.428768000">
        <ele>272.000000</ele>
        <time>2020-10-17T11:13:30Z</time>
      </trkpt>
      <trkpt lat="39.854981000" lon="-8.428740000">
        <ele>272.200000</ele>
        <time>2020-10-17T11:13:31Z</time>
      </trkpt>
      <trkpt lat="39.854957000" lon="-8.428714000">
        <ele>272.400000</ele>
        <time>2020-10-17T11:13:32Z</time>
      </trkpt>
      <trkpt lat="39.854926000" lon="-8.428686000">
        <ele>272.800000</ele>
        <time>2020-10-17T11:13:33Z</time>
      </trkpt>
      <trkpt lat="39.854889000" lon="-8.428652000">
        <ele>273.000000</ele>
        <time>2020-10-17T11:13:34Z</time>
      </trkpt>
      <trkpt lat="39.854850000" lon="-8.428615000">
        <ele>273.000000</ele>
        <time>2020-10-17T11:13:35Z</time>
      </trkpt>
      <trkpt lat="39.854817000" lon="-8.428581000">
        <ele>273.400000</ele>
        <time>2020-10-17T11:13:36Z</time>
      </trkpt>
      <trkpt lat="39.854784000" lon="-8.428542000">
        <ele>273.600000</ele>
        <time>2020-10-17T11:13:37Z</time>
      </trkpt>
      <trkpt lat="39.854750000" lon="-8.428510000">
        <ele>273.800000</ele>
        <time>2020-10-17T11:13:38Z</time>
      </trkpt>
      <trkpt lat="39.854709000" lon="-8.428475000">
        <ele>273.800000</ele>
        <time>2020-10-17T11:13:39Z</time>
      </trkpt>
      <trkpt lat="39.854662000" lon="-8.428449000">
        <ele>274.000000</ele>
        <time>2020-10-17T11:13:40Z</time>
      </trkpt>
      <trkpt lat="39.854616000" lon="-8.428441000">
        <ele>274.000000</ele>
        <time>2020-10-17T11:13:41Z</time>
      </trkpt>
      <trkpt lat="39.854574000" lon="-8.428437000">
        <ele>274.200000</ele>
        <time>2020-10-17T11:13:42Z</time>
      </trkpt>
      <trkpt lat="39.854536000" lon="-8.428426000">
        <ele>274.200000</ele>
        <time>2020-10-17T11:13:43Z</time>
      </trkpt>
      <trkpt lat="39.854501000" lon="-8.428410000">
        <ele>274.200000</ele>
        <time>2020-10-17T11:13:44Z</time>
      </trkpt>
      <trkpt lat="39.854467000" lon="-8.428393000">
        <ele>274.200000</ele>
        <time>2020-10-17T11:13:45Z</time>
      </trkpt>
      <trkpt lat="39.854433000" lon="-8.428379000">
        <ele>274.200000</ele>
        <time>2020-10-17T11:13:46Z</time>
      </trkpt>
      <trkpt lat="39.854399000" lon="-8.428371000">
        <ele>274.200000</ele>
        <time>2020-10-17T11:13:47Z</time>
      </trkpt>
      <trkpt lat="39.854360000" lon="-8.428369000">
        <ele>274.200000</ele>
        <time>2020-10-17T11:13:48Z</time>
      </trkpt>
      <trkpt lat="39.854318000" lon="-8.428365000">
        <ele>274.400000</ele>
        <time>2020-10-17T11:13:49Z</time>
      </trkpt>
      <trkpt lat="39.854278000" lon="-8.428358000">
        <ele>274.200000</ele>
        <time>2020-10-17T11:13:50Z</time>
      </trkpt>
      <trkpt lat="39.854240000" lon="-8.428344000">
        <ele>274.400000</ele>
        <time>2020-10-17T11:13:51Z</time>
      </trkpt>
      <trkpt lat="39.854203000" lon="-8.428327000">
        <ele>274.600000</ele>
        <time>2020-10-17T11:13:52Z</time>
      </trkpt>
      <trkpt lat="39.854171000" lon="-8.428305000">
        <ele>274.600000</ele>
        <time>2020-10-17T11:13:53Z</time>
      </trkpt>
      <trkpt lat="39.854140000" lon="-8.428279000">
        <ele>275.000000</ele>
        <time>2020-10-17T11:13:54Z</time>
      </trkpt>
      <trkpt lat="39.854112000" lon="-8.428251000">
        <ele>275.200000</ele>
        <time>2020-10-17T11:13:55Z</time>
      </trkpt>
      <trkpt lat="39.854092000" lon="-8.428219000">
        <ele>275.200000</ele>
        <time>2020-10-17T11:13:56Z</time>
      </trkpt>
      <trkpt lat="39.854079000" lon="-8.428183000">
        <ele>275.400000</ele>
        <time>2020-10-17T11:13:57Z</time>
      </trkpt>
      <trkpt lat="39.854068000" lon="-8.428144000">
        <ele>275.800000</ele>
        <time>2020-10-17T11:13:58Z</time>
      </trkpt>
      <trkpt lat="39.854059000" lon="-8.428106000">
        <ele>275.800000</ele>
        <time>2020-10-17T11:13:59Z</time>
      </trkpt>
      <trkpt lat="39.854046000" lon="-8.428066000">
        <ele>276.000000</ele>
        <time>2020-10-17T11:14:00Z</time>
      </trkpt>
      <trkpt lat="39.854038000" lon="-8.428032000">
        <ele>276.000000</ele>
        <time>2020-10-17T11:14:01Z</time>
      </trkpt>
      <trkpt lat="39.854025000" lon="-8.428003000">
        <ele>276.200000</ele>
        <time>2020-10-17T11:14:02Z</time>
      </trkpt>
      <trkpt lat="39.854010000" lon="-8.427976000">
        <ele>276.200000</ele>
        <time>2020-10-17T11:14:03Z</time>
      </trkpt>
      <trkpt lat="39.853987000" lon="-8.427945000">
        <ele>276.200000</ele>
        <time>2020-10-17T11:14:04Z</time>
      </trkpt>
      <trkpt lat="39.853964000" lon="-8.427922000">
        <ele>276.200000</ele>
        <time>2020-10-17T11:14:05Z</time>
      </trkpt>
      <trkpt lat="39.853941000" lon="-8.427900000">
        <ele>276.200000</ele>
        <time>2020-10-17T11:14:06Z</time>
      </trkpt>
      <trkpt lat="39.853917000" lon="-8.427878000">
        <ele>276.600000</ele>
        <time>2020-10-17T11:14:07Z</time>
      </trkpt>
      <trkpt lat="39.853891000" lon="-8.427858000">
        <ele>276.800000</ele>
        <time>2020-10-17T11:14:08Z</time>
      </trkpt>
      <trkpt lat="39.853858000" lon="-8.427842000">
        <ele>277.000000</ele>
        <time>2020-10-17T11:14:09Z</time>
      </trkpt>
      <trkpt lat="39.853817000" lon="-8.427830000">
        <ele>277.400000</ele>
        <time>2020-10-17T11:14:10Z</time>
      </trkpt>
      <trkpt lat="39.853778000" lon="-8.427827000">
        <ele>277.800000</ele>
        <time>2020-10-17T11:14:11Z</time>
      </trkpt>
      <trkpt lat="39.853738000" lon="-8.427827000">
        <ele>278.000000</ele>
        <time>2020-10-17T11:14:12Z</time>
      </trkpt>
      <trkpt lat="39.853690000" lon="-8.427820000">
        <ele>278.200000</ele>
        <time>2020-10-17T11:14:13Z</time>
      </trkpt>
      <trkpt lat="39.853642000" lon="-8.427815000">
        <ele>278.400000</ele>
        <time>2020-10-17T11:14:14Z</time>
      </trkpt>
      <trkpt lat="39.853592000" lon="-8.427809000">
        <ele>279.000000</ele>
        <time>2020-10-17T11:14:15Z</time>
      </trkpt>
      <trkpt lat="39.853540000" lon="-8.427801000">
        <ele>279.200000</ele>
        <time>2020-10-17T11:14:16Z</time>
      </trkpt>
      <trkpt lat="39.853486000" lon="-8.427792000">
        <ele>279.200000</ele>
        <time>2020-10-17T11:14:17Z</time>
      </trkpt>
      <trkpt lat="39.853434000" lon="-8.427783000">
        <ele>279.200000</ele>
        <time>2020-10-17T11:14:18Z</time>
      </trkpt>
      <trkpt lat="39.853383000" lon="-8.427775000">
        <ele>279.200000</ele>
        <time>2020-10-17T11:14:19Z</time>
      </trkpt>
      <trkpt lat="39.853331000" lon="-8.427766000">
        <ele>279.400000</ele>
        <time>2020-10-17T11:14:20Z</time>
      </trkpt>
      <trkpt lat="39.853280000" lon="-8.427759000">
        <ele>279.200000</ele>
        <time>2020-10-17T11:14:21Z</time>
      </trkpt>
      <trkpt lat="39.853227000" lon="-8.427752000">
        <ele>279.200000</ele>
        <time>2020-10-17T11:14:22Z</time>
      </trkpt>
      <trkpt lat="39.853077000" lon="-8.427751000">
        <ele>279.200000</ele>
        <time>2020-10-17T11:14:25Z</time>
      </trkpt>
      <trkpt lat="39.853028000" lon="-8.427754000">
        <ele>279.200000</ele>
        <time>2020-10-17T11:14:26Z</time>
      </trkpt>
      <trkpt lat="39.852983000" lon="-8.427763000">
        <ele>279.200000</ele>
        <time>2020-10-17T11:14:27Z</time>
      </trkpt>
      <trkpt lat="39.852895000" lon="-8.427798000">
        <ele>279.200000</ele>
        <time>2020-10-17T11:14:29Z</time>
      </trkpt>
      <trkpt lat="39.852853000" lon="-8.427818000">
        <ele>279.200000</ele>
        <time>2020-10-17T11:14:30Z</time>
      </trkpt>
      <trkpt lat="39.852639000" lon="-8.427940000">
        <ele>279.400000</ele>
        <time>2020-10-17T11:14:35Z</time>
      </trkpt>
      <trkpt lat="39.852596000" lon="-8.427957000">
        <ele>279.400000</ele>
        <time>2020-10-17T11:14:36Z</time>
      </trkpt>
      <trkpt lat="39.852552000" lon="-8.427971000">
        <ele>279.600000</ele>
        <time>2020-10-17T11:14:37Z</time>
      </trkpt>
      <trkpt lat="39.852507000" lon="-8.427980000">
        <ele>279.400000</ele>
        <time>2020-10-17T11:14:38Z</time>
      </trkpt>
      <trkpt lat="39.852464000" lon="-8.427985000">
        <ele>279.600000</ele>
        <time>2020-10-17T11:14:39Z</time>
      </trkpt>
      <trkpt lat="39.852421000" lon="-8.427989000">
        <ele>279.600000</ele>
        <time>2020-10-17T11:14:40Z</time>
      </trkpt>
      <trkpt lat="39.852381000" lon="-8.427991000">
        <ele>279.800000</ele>
        <time>2020-10-17T11:14:41Z</time>
      </trkpt>
      <trkpt lat="39.852340000" lon="-8.427990000">
        <ele>280.000000</ele>
        <time>2020-10-17T11:14:42Z</time>
      </trkpt>
      <trkpt lat="39.852301000" lon="-8.427988000">
        <ele>280.200000</ele>
        <time>2020-10-17T11:14:43Z</time>
      </trkpt>
      <trkpt lat="39.852264000" lon="-8.427985000">
        <ele>280.200000</ele>
        <time>2020-10-17T11:14:44Z</time>
      </trkpt>
      <trkpt lat="39.852227000" lon="-8.427982000">
        <ele>280.200000</ele>
        <time>2020-10-17T11:14:45Z</time>
      </trkpt>
      <trkpt lat="39.852191000" lon="-8.427975000">
        <ele>280.600000</ele>
        <time>2020-10-17T11:14:46Z</time>
      </trkpt>
      <trkpt lat="39.852159000" lon="-8.427968000">
        <ele>280.600000</ele>
        <time>2020-10-17T11:14:47Z</time>
      </trkpt>
      <trkpt lat="39.852125000" lon="-8.427959000">
        <ele>280.600000</ele>
        <time>2020-10-17T11:14:48Z</time>
      </trkpt>
      <trkpt lat="39.852091000" lon="-8.427950000">
        <ele>280.800000</ele>
        <time>2020-10-17T11:14:49Z</time>
      </trkpt>
      <trkpt lat="39.852055000" lon="-8.427941000">
        <ele>281.200000</ele>
        <time>2020-10-17T11:14:50Z</time>
      </trkpt>
      <trkpt lat="39.852019000" lon="-8.427932000">
        <ele>281.400000</ele>
        <time>2020-10-17T11:14:51Z</time>
      </trkpt>
      <trkpt lat="39.851983000" lon="-8.427924000">
        <ele>281.600000</ele>
        <time>2020-10-17T11:14:52Z</time>
      </trkpt>
      <trkpt lat="39.851947000" lon="-8.427916000">
        <ele>281.800000</ele>
        <time>2020-10-17T11:14:53Z</time>
      </trkpt>
      <trkpt lat="39.851911000" lon="-8.427911000">
        <ele>282.400000</ele>
        <time>2020-10-17T11:14:54Z</time>
      </trkpt>
      <trkpt lat="39.851873000" lon="-8.427909000">
        <ele>282.600000</ele>
        <time>2020-10-17T11:14:55Z</time>
      </trkpt>
      <trkpt lat="39.851833000" lon="-8.427912000">
        <ele>282.800000</ele>
        <time>2020-10-17T11:14:56Z</time>
      </trkpt>
      <trkpt lat="39.851793000" lon="-8.427918000">
        <ele>283.000000</ele>
        <time>2020-10-17T11:14:57Z</time>
      </trkpt>
      <trkpt lat="39.851756000" lon="-8.427925000">
        <ele>283.400000</ele>
        <time>2020-10-17T11:14:58Z</time>
      </trkpt>
      <trkpt lat="39.851716000" lon="-8.427932000">
        <ele>283.800000</ele>
        <time>2020-10-17T11:14:59Z</time>
      </trkpt>
      <trkpt lat="39.851674000" lon="-8.427941000">
        <ele>283.800000</ele>
        <time>2020-10-17T11:15:00Z</time>
      </trkpt>
      <trkpt lat="39.851630000" lon="-8.427952000">
        <ele>284.000000</ele>
        <time>2020-10-17T11:15:01Z</time>
      </trkpt>
      <trkpt lat="39.851587000" lon="-8.427966000">
        <ele>284.200000</ele>
        <time>2020-10-17T11:15:02Z</time>
      </trkpt>
      <trkpt lat="39.851545000" lon="-8.427986000">
        <ele>284.600000</ele>
        <time>2020-10-17T11:15:03Z</time>
      </trkpt>
      <trkpt lat="39.851504000" lon="-8.428014000">
        <ele>284.800000</ele>
        <time>2020-10-17T11:15:04Z</time>
      </trkpt>
      <trkpt lat="39.851471000" lon="-8.428053000">
        <ele>284.800000</ele>
        <time>2020-10-17T11:15:05Z</time>
      </trkpt>
      <trkpt lat="39.851442000" lon="-8.428100000">
        <ele>285.000000</ele>
        <time>2020-10-17T11:15:06Z</time>
      </trkpt>
      <trkpt lat="39.851414000" lon="-8.428153000">
        <ele>285.200000</ele>
        <time>2020-10-17T11:15:07Z</time>
      </trkpt>
      <trkpt lat="39.851389000" lon="-8.428209000">
        <ele>285.200000</ele>
        <time>2020-10-17T11:15:08Z</time>
      </trkpt>
      <trkpt lat="39.851363000" lon="-8.428263000">
        <ele>285.200000</ele>
        <time>2020-10-17T11:15:09Z</time>
      </trkpt>
      <trkpt lat="39.851335000" lon="-8.428317000">
        <ele>285.200000</ele>
        <time>2020-10-17T11:15:10Z</time>
      </trkpt>
      <trkpt lat="39.851303000" lon="-8.428371000">
        <ele>285.200000</ele>
        <time>2020-10-17T11:15:11Z</time>
      </trkpt>
      <trkpt lat="39.851267000" lon="-8.428425000">
        <ele>285.200000</ele>
        <time>2020-10-17T11:15:12Z</time>
      </trkpt>
      <trkpt lat="39.851230000" lon="-8.428481000">
        <ele>285.200000</ele>
        <time>2020-10-17T11:15:13Z</time>
      </trkpt>
      <trkpt lat="39.851071000" lon="-8.428701000">
        <ele>285.400000</ele>
        <time>2020-10-17T11:15:17Z</time>
      </trkpt>
      <trkpt lat="39.850808000" lon="-8.429071000">
        <ele>285.000000</ele>
        <time>2020-10-17T11:15:23Z</time>
      </trkpt>
      <trkpt lat="39.850708000" lon="-8.429184000">
        <ele>285.000000</ele>
        <time>2020-10-17T11:15:25Z</time>
      </trkpt>
      <trkpt lat="39.850658000" lon="-8.429232000">
        <ele>284.800000</ele>
        <time>2020-10-17T11:15:26Z</time>
      </trkpt>
      <trkpt lat="39.850605000" lon="-8.429275000">
        <ele>284.800000</ele>
        <time>2020-10-17T11:15:27Z</time>
      </trkpt>
      <trkpt lat="39.850551000" lon="-8.429314000">
        <ele>285.000000</ele>
        <time>2020-10-17T11:15:28Z</time>
      </trkpt>
      <trkpt lat="39.850498000" lon="-8.429345000">
        <ele>284.800000</ele>
        <time>2020-10-17T11:15:29Z</time>
      </trkpt>
      <trkpt lat="39.850443000" lon="-8.429371000">
        <ele>284.800000</ele>
        <time>2020-10-17T11:15:30Z</time>
      </trkpt>
      <trkpt lat="39.850135000" lon="-8.429459000">
        <ele>284.800000</ele>
        <time>2020-10-17T11:15:35Z</time>
      </trkpt>
      <trkpt lat="39.849823000" lon="-8.429605000">
        <ele>284.800000</ele>
        <time>2020-10-17T11:15:40Z</time>
      </trkpt>
      <trkpt lat="39.849609000" lon="-8.429803000">
        <ele>284.800000</ele>
        <time>2020-10-17T11:15:44Z</time>
      </trkpt>
      <trkpt lat="39.849561000" lon="-8.429860000">
        <ele>284.800000</ele>
        <time>2020-10-17T11:15:45Z</time>
      </trkpt>
      <trkpt lat="39.849514000" lon="-8.429918000">
        <ele>284.800000</ele>
        <time>2020-10-17T11:15:46Z</time>
      </trkpt>
      <trkpt lat="39.849420000" lon="-8.430037000">
        <ele>285.000000</ele>
        <time>2020-10-17T11:15:48Z</time>
      </trkpt>
      <trkpt lat="39.849375000" lon="-8.430093000">
        <ele>284.800000</ele>
        <time>2020-10-17T11:15:49Z</time>
      </trkpt>
      <trkpt lat="39.849327000" lon="-8.430147000">
        <ele>284.800000</ele>
        <time>2020-10-17T11:15:50Z</time>
      </trkpt>
      <trkpt lat="39.849277000" lon="-8.430193000">
        <ele>285.000000</ele>
        <time>2020-10-17T11:15:51Z</time>
      </trkpt>
      <trkpt lat="39.849222000" lon="-8.430233000">
        <ele>285.000000</ele>
        <time>2020-10-17T11:15:52Z</time>
      </trkpt>
      <trkpt lat="39.849160000" lon="-8.430265000">
        <ele>284.800000</ele>
        <time>2020-10-17T11:15:53Z</time>
      </trkpt>
      <trkpt lat="39.848971000" lon="-8.430354000">
        <ele>284.800000</ele>
        <time>2020-10-17T11:15:56Z</time>
      </trkpt>
      <trkpt lat="39.848853000" lon="-8.430441000">
        <ele>284.600000</ele>
        <time>2020-10-17T11:15:58Z</time>
      </trkpt>
      <trkpt lat="39.848680000" lon="-8.430594000">
        <ele>284.600000</ele>
        <time>2020-10-17T11:16:01Z</time>
      </trkpt>
      <trkpt lat="39.848552000" lon="-8.430687000">
        <ele>284.400000</ele>
        <time>2020-10-17T11:16:03Z</time>
      </trkpt>
      <trkpt lat="39.848426000" lon="-8.430789000">
        <ele>284.200000</ele>
        <time>2020-10-17T11:16:05Z</time>
      </trkpt>
      <trkpt lat="39.848375000" lon="-8.430856000">
        <ele>284.200000</ele>
        <time>2020-10-17T11:16:06Z</time>
      </trkpt>
      <trkpt lat="39.848335000" lon="-8.430934000">
        <ele>284.200000</ele>
        <time>2020-10-17T11:16:07Z</time>
      </trkpt>
      <trkpt lat="39.848303000" lon="-8.431020000">
        <ele>284.000000</ele>
        <time>2020-10-17T11:16:08Z</time>
      </trkpt>
      <trkpt lat="39.848275000" lon="-8.431111000">
        <ele>284.000000</ele>
        <time>2020-10-17T11:16:09Z</time>
      </trkpt>
      <trkpt lat="39.848246000" lon="-8.431202000">
        <ele>284.000000</ele>
        <time>2020-10-17T11:16:10Z</time>
      </trkpt>
      <trkpt lat="39.848170000" lon="-8.431372000">
        <ele>283.600000</ele>
        <time>2020-10-17T11:16:12Z</time>
      </trkpt>
      <trkpt lat="39.848060000" lon="-8.431522000">
        <ele>283.400000</ele>
        <time>2020-10-17T11:16:14Z</time>
      </trkpt>
      <trkpt lat="39.847927000" lon="-8.431663000">
        <ele>283.000000</ele>
        <time>2020-10-17T11:16:16Z</time>
      </trkpt>
      <trkpt lat="39.847784000" lon="-8.431809000">
        <ele>282.800000</ele>
        <time>2020-10-17T11:16:18Z</time>
      </trkpt>
      <trkpt lat="39.847711000" lon="-8.431888000">
        <ele>282.600000</ele>
        <time>2020-10-17T11:16:19Z</time>
      </trkpt>
      <trkpt lat="39.847624000" lon="-8.431954000">
        <ele>282.200000</ele>
        <time>2020-10-17T11:16:20Z</time>
      </trkpt>
      <trkpt lat="39.847540000" lon="-8.432012000">
        <ele>282.000000</ele>
        <time>2020-10-17T11:16:21Z</time>
      </trkpt>
      <trkpt lat="39.847447000" lon="-8.432051000">
        <ele>281.800000</ele>
        <time>2020-10-17T11:16:22Z</time>
      </trkpt>
      <trkpt lat="39.847169000" lon="-8.432169000">
        <ele>280.400000</ele>
        <time>2020-10-17T11:16:25Z</time>
      </trkpt>
      <trkpt lat="39.847087000" lon="-8.432229000">
        <ele>279.600000</ele>
        <time>2020-10-17T11:16:26Z</time>
      </trkpt>
      <trkpt lat="39.847006000" lon="-8.432300000">
        <ele>279.000000</ele>
        <time>2020-10-17T11:16:27Z</time>
      </trkpt>
      <trkpt lat="39.846784000" lon="-8.432558000">
        <ele>276.400000</ele>
        <time>2020-10-17T11:16:30Z</time>
      </trkpt>
      <trkpt lat="39.846708000" lon="-8.432636000">
        <ele>275.600000</ele>
        <time>2020-10-17T11:16:31Z</time>
      </trkpt>
      <trkpt lat="39.846634000" lon="-8.432708000">
        <ele>275.200000</ele>
        <time>2020-10-17T11:16:32Z</time>
      </trkpt>
      <trkpt lat="39.846559000" lon="-8.432776000">
        <ele>275.000000</ele>
        <time>2020-10-17T11:16:33Z</time>
      </trkpt>
      <trkpt lat="39.846485000" lon="-8.432843000">
        <ele>274.200000</ele>
        <time>2020-10-17T11:16:34Z</time>
      </trkpt>
      <trkpt lat="39.846414000" lon="-8.432909000">
        <ele>274.200000</ele>
        <time>2020-10-17T11:16:35Z</time>
      </trkpt>
      <trkpt lat="39.846346000" lon="-8.432974000">
        <ele>273.600000</ele>
        <time>2020-10-17T11:16:36Z</time>
      </trkpt>
      <trkpt lat="39.846284000" lon="-8.433036000">
        <ele>273.200000</ele>
        <time>2020-10-17T11:16:37Z</time>
      </trkpt>
      <trkpt lat="39.846221000" lon="-8.433089000">
        <ele>272.400000</ele>
        <time>2020-10-17T11:16:38Z</time>
      </trkpt>
      <trkpt lat="39.846155000" lon="-8.433126000">
        <ele>272.200000</ele>
        <time>2020-10-17T11:16:39Z</time>
      </trkpt>
      <trkpt lat="39.846083000" lon="-8.433149000">
        <ele>272.000000</ele>
        <time>2020-10-17T11:16:40Z</time>
      </trkpt>
      <trkpt lat="39.846012000" lon="-8.433165000">
        <ele>272.000000</ele>
        <time>2020-10-17T11:16:41Z</time>
      </trkpt>
      <trkpt lat="39.845781000" lon="-8.433164000">
        <ele>271.800000</ele>
        <time>2020-10-17T11:16:44Z</time>
      </trkpt>
      <trkpt lat="39.845702000" lon="-8.433155000">
        <ele>271.600000</ele>
        <time>2020-10-17T11:16:45Z</time>
      </trkpt>
      <trkpt lat="39.845533000" lon="-8.433142000">
        <ele>271.400000</ele>
        <time>2020-10-17T11:16:47Z</time>
      </trkpt>
      <trkpt lat="39.845362000" lon="-8.433161000">
        <ele>271.200000</ele>
        <time>2020-10-17T11:16:49Z</time>
      </trkpt>
      <trkpt lat="39.845274000" lon="-8.433172000">
        <ele>271.000000</ele>
        <time>2020-10-17T11:16:50Z</time>
      </trkpt>
      <trkpt lat="39.845091000" lon="-8.433192000">
        <ele>271.000000</ele>
        <time>2020-10-17T11:16:52Z</time>
      </trkpt>
      <trkpt lat="39.844904000" lon="-8.433210000">
        <ele>271.000000</ele>
        <time>2020-10-17T11:16:54Z</time>
      </trkpt>
      <trkpt lat="39.844809000" lon="-8.433221000">
        <ele>270.600000</ele>
        <time>2020-10-17T11:16:55Z</time>
      </trkpt>
      <trkpt lat="39.844521000" lon="-8.433283000">
        <ele>270.000000</ele>
        <time>2020-10-17T11:16:58Z</time>
      </trkpt>
      <trkpt lat="39.844331000" lon="-8.433344000">
        <ele>269.200000</ele>
        <time>2020-10-17T11:17:00Z</time>
      </trkpt>
      <trkpt lat="39.844241000" lon="-8.433381000">
        <ele>268.600000</ele>
        <time>2020-10-17T11:17:01Z</time>
      </trkpt>
      <trkpt lat="39.844157000" lon="-8.433429000">
        <ele>268.000000</ele>
        <time>2020-10-17T11:17:02Z</time>
      </trkpt>
      <trkpt lat="39.844081000" lon="-8.433491000">
        <ele>267.400000</ele>
        <time>2020-10-17T11:17:03Z</time>
      </trkpt>
      <trkpt lat="39.844011000" lon="-8.433557000">
        <ele>266.800000</ele>
        <time>2020-10-17T11:17:04Z</time>
      </trkpt>
      <trkpt lat="39.843939000" lon="-8.433611000">
        <ele>266.200000</ele>
        <time>2020-10-17T11:17:05Z</time>
      </trkpt>
      <trkpt lat="39.843862000" lon="-8.433648000">
        <ele>266.000000</ele>
        <time>2020-10-17T11:17:06Z</time>
      </trkpt>
      <trkpt lat="39.843774000" lon="-8.433679000">
        <ele>265.400000</ele>
        <time>2020-10-17T11:17:07Z</time>
      </trkpt>
      <trkpt lat="39.843604000" lon="-8.433743000">
        <ele>264.000000</ele>
        <time>2020-10-17T11:17:09Z</time>
      </trkpt>
      <trkpt lat="39.843522000" lon="-8.433780000">
        <ele>263.400000</ele>
        <time>2020-10-17T11:17:10Z</time>
      </trkpt>
      <trkpt lat="39.843442000" lon="-8.433821000">
        <ele>263.000000</ele>
        <time>2020-10-17T11:17:11Z</time>
      </trkpt>
      <trkpt lat="39.843282000" lon="-8.433907000">
        <ele>262.400000</ele>
        <time>2020-10-17T11:17:13Z</time>
      </trkpt>
      <trkpt lat="39.843047000" lon="-8.434043000">
        <ele>261.600000</ele>
        <time>2020-10-17T11:17:16Z</time>
      </trkpt>
      <trkpt lat="39.842976000" lon="-8.434084000">
        <ele>261.600000</ele>
        <time>2020-10-17T11:17:17Z</time>
      </trkpt>
      <trkpt lat="39.842905000" lon="-8.434117000">
        <ele>261.000000</ele>
        <time>2020-10-17T11:17:18Z</time>
      </trkpt>
      <trkpt lat="39.842833000" lon="-8.434140000">
        <ele>260.600000</ele>
        <time>2020-10-17T11:17:19Z</time>
      </trkpt>
      <trkpt lat="39.842765000" lon="-8.434163000">
        <ele>259.800000</ele>
        <time>2020-10-17T11:17:20Z</time>
      </trkpt>
      <trkpt lat="39.842701000" lon="-8.434195000">
        <ele>259.000000</ele>
        <time>2020-10-17T11:17:21Z</time>
      </trkpt>
      <trkpt lat="39.842639000" lon="-8.434235000">
        <ele>258.400000</ele>
        <time>2020-10-17T11:17:22Z</time>
      </trkpt>
      <trkpt lat="39.842578000" lon="-8.434282000">
        <ele>258.000000</ele>
        <time>2020-10-17T11:17:23Z</time>
      </trkpt>
      <trkpt lat="39.842519000" lon="-8.434335000">
        <ele>257.800000</ele>
        <time>2020-10-17T11:17:24Z</time>
      </trkpt>
      <trkpt lat="39.842468000" lon="-8.434395000">
        <ele>257.600000</ele>
        <time>2020-10-17T11:17:25Z</time>
      </trkpt>
      <trkpt lat="39.842424000" lon="-8.434461000">
        <ele>257.600000</ele>
        <time>2020-10-17T11:17:26Z</time>
      </trkpt>
      <trkpt lat="39.842379000" lon="-8.434523000">
        <ele>257.400000</ele>
        <time>2020-10-17T11:17:27Z</time>
      </trkpt>
      <trkpt lat="39.842332000" lon="-8.434577000">
        <ele>257.400000</ele>
        <time>2020-10-17T11:17:28Z</time>
      </trkpt>
      <trkpt lat="39.842216000" lon="-8.434645000">
        <ele>257.400000</ele>
        <time>2020-10-17T11:17:30Z</time>
      </trkpt>
      <trkpt lat="39.842152000" lon="-8.434664000">
        <ele>257.200000</ele>
        <time>2020-10-17T11:17:31Z</time>
      </trkpt>
      <trkpt lat="39.842089000" lon="-8.434678000">
        <ele>256.600000</ele>
        <time>2020-10-17T11:17:32Z</time>
      </trkpt>
      <trkpt lat="39.842027000" lon="-8.434690000">
        <ele>256.600000</ele>
        <time>2020-10-17T11:17:33Z</time>
      </trkpt>
      <trkpt lat="39.841966000" lon="-8.434699000">
        <ele>256.400000</ele>
        <time>2020-10-17T11:17:34Z</time>
      </trkpt>
      <trkpt lat="39.841901000" lon="-8.434712000">
        <ele>256.200000</ele>
        <time>2020-10-17T11:17:35Z</time>
      </trkpt>
      <trkpt lat="39.841710000" lon="-8.434780000">
        <ele>256.000000</ele>
        <time>2020-10-17T11:17:38Z</time>
      </trkpt>
      <trkpt lat="39.841654000" lon="-8.434823000">
        <ele>256.000000</ele>
        <time>2020-10-17T11:17:39Z</time>
      </trkpt>
      <trkpt lat="39.841607000" lon="-8.434875000">
        <ele>256.000000</ele>
        <time>2020-10-17T11:17:40Z</time>
      </trkpt>
      <trkpt lat="39.841566000" lon="-8.434931000">
        <ele>255.800000</ele>
        <time>2020-10-17T11:17:41Z</time>
      </trkpt>
      <trkpt lat="39.841523000" lon="-8.434975000">
        <ele>255.600000</ele>
        <time>2020-10-17T11:17:42Z</time>
      </trkpt>
      <trkpt lat="39.841477000" lon="-8.435006000">
        <ele>255.600000</ele>
        <time>2020-10-17T11:17:43Z</time>
      </trkpt>
      <trkpt lat="39.841421000" lon="-8.435014000">
        <ele>255.600000</ele>
        <time>2020-10-17T11:17:44Z</time>
      </trkpt>
      <trkpt lat="39.841373000" lon="-8.435013000">
        <ele>255.000000</ele>
        <time>2020-10-17T11:17:45Z</time>
      </trkpt>
      <trkpt lat="39.841335000" lon="-8.435008000">
        <ele>254.600000</ele>
        <time>2020-10-17T11:17:46Z</time>
      </trkpt>
      <trkpt lat="39.841302000" lon="-8.435004000">
        <ele>254.600000</ele>
        <time>2020-10-17T11:17:47Z</time>
      </trkpt>
      <trkpt lat="39.841279000" lon="-8.435002000">
        <ele>254.400000</ele>
        <time>2020-10-17T11:17:48Z</time>
      </trkpt>
      <trkpt lat="39.841256000" lon="-8.435001000">
        <ele>254.400000</ele>
        <time>2020-10-17T11:17:49Z</time>
      </trkpt>
      <trkpt lat="39.841231000" lon="-8.435001000">
        <ele>254.200000</ele>
        <time>2020-10-17T11:17:50Z</time>
      </trkpt>
      <trkpt lat="39.841176000" lon="-8.434995000">
        <ele>253.800000</ele>
        <time>2020-10-17T11:17:52Z</time>
      </trkpt>
      <trkpt lat="39.841119000" lon="-8.435000000">
        <ele>253.800000</ele>
        <time>2020-10-17T11:17:54Z</time>
      </trkpt>
      <trkpt lat="39.841093000" lon="-8.435005000">
        <ele>253.600000</ele>
        <time>2020-10-17T11:17:55Z</time>
      </trkpt>
      <trkpt lat="39.841065000" lon="-8.435008000">
        <ele>253.600000</ele>
        <time>2020-10-17T11:17:56Z</time>
      </trkpt>
      <trkpt lat="39.841032000" lon="-8.435007000">
        <ele>253.400000</ele>
        <time>2020-10-17T11:17:57Z</time>
      </trkpt>
      <trkpt lat="39.840862000" lon="-8.435018000">
        <ele>253.600000</ele>
        <time>2020-10-17T11:18:02Z</time>
      </trkpt>
      <trkpt lat="39.840759000" lon="-8.435031000">
        <ele>253.600000</ele>
        <time>2020-10-17T11:18:05Z</time>
      </trkpt>
      <trkpt lat="39.840614000" lon="-8.435082000">
        <ele>253.800000</ele>
        <time>2020-10-17T11:18:09Z</time>
      </trkpt>
      <trkpt lat="39.840579000" lon="-8.435095000">
        <ele>253.600000</ele>
        <time>2020-10-17T11:18:10Z</time>
      </trkpt>
      <trkpt lat="39.840542000" lon="-8.435108000">
        <ele>254.000000</ele>
        <time>2020-10-17T11:18:11Z</time>
      </trkpt>
      <trkpt lat="39.840420000" lon="-8.435135000">
        <ele>254.000000</ele>
        <time>2020-10-17T11:18:14Z</time>
      </trkpt>
      <trkpt lat="39.840342000" lon="-8.435146000">
        <ele>254.000000</ele>
        <time>2020-10-17T11:18:16Z</time>
      </trkpt>
      <trkpt lat="39.840178000" lon="-8.435157000">
        <ele>254.200000</ele>
        <time>2020-10-17T11:18:20Z</time>
      </trkpt>
      <trkpt lat="39.840139000" lon="-8.435158000">
        <ele>254.200000</ele>
        <time>2020-10-17T11:18:21Z</time>
      </trkpt>
      <trkpt lat="39.840047000" lon="-8.435153000">
        <ele>254.600000</ele>
        <time>2020-10-17T11:18:23Z</time>
      </trkpt>
      <trkpt lat="39.839712000" lon="-8.435112000">
        <ele>255.200000</ele>
        <time>2020-10-17T11:18:29Z</time>
      </trkpt>
      <trkpt lat="39.839654000" lon="-8.435109000">
        <ele>255.200000</ele>
        <time>2020-10-17T11:18:30Z</time>
      </trkpt>
      <trkpt lat="39.839595000" lon="-8.435115000">
        <ele>255.200000</ele>
        <time>2020-10-17T11:18:31Z</time>
      </trkpt>
      <trkpt lat="39.839475000" lon="-8.435160000">
        <ele>255.200000</ele>
        <time>2020-10-17T11:18:33Z</time>
      </trkpt>
      <trkpt lat="39.839416000" lon="-8.435193000">
        <ele>255.400000</ele>
        <time>2020-10-17T11:18:34Z</time>
      </trkpt>
      <trkpt lat="39.839295000" lon="-8.435271000">
        <ele>255.000000</ele>
        <time>2020-10-17T11:18:36Z</time>
      </trkpt>
      <trkpt lat="39.839174000" lon="-8.435355000">
        <ele>254.800000</ele>
        <time>2020-10-17T11:18:38Z</time>
      </trkpt>
      <trkpt lat="39.839114000" lon="-8.435409000">
        <ele>254.600000</ele>
        <time>2020-10-17T11:18:39Z</time>
      </trkpt>
      <trkpt lat="39.839053000" lon="-8.435468000">
        <ele>254.200000</ele>
        <time>2020-10-17T11:18:40Z</time>
      </trkpt>
      <trkpt lat="39.838914000" lon="-8.435571000">
        <ele>253.600000</ele>
        <time>2020-10-17T11:18:42Z</time>
      </trkpt>
      <trkpt lat="39.838740000" lon="-8.435630000">
        <ele>253.200000</ele>
        <time>2020-10-17T11:18:44Z</time>
      </trkpt>
      <trkpt lat="39.838474000" lon="-8.435699000">
        <ele>251.800000</ele>
        <time>2020-10-17T11:18:47Z</time>
      </trkpt>
      <trkpt lat="39.838399000" lon="-8.435733000">
        <ele>251.600000</ele>
        <time>2020-10-17T11:18:48Z</time>
      </trkpt>
      <trkpt lat="39.838331000" lon="-8.435769000">
        <ele>251.200000</ele>
        <time>2020-10-17T11:18:49Z</time>
      </trkpt>
      <trkpt lat="39.838268000" lon="-8.435802000">
        <ele>250.800000</ele>
        <time>2020-10-17T11:18:50Z</time>
      </trkpt>
      <trkpt lat="39.838201000" lon="-8.435827000">
        <ele>250.600000</ele>
        <time>2020-10-17T11:18:51Z</time>
      </trkpt>
      <trkpt lat="39.838136000" lon="-8.435853000">
        <ele>249.200000</ele>
        <time>2020-10-17T11:18:52Z</time>
      </trkpt>
      <trkpt lat="39.838071000" lon="-8.435874000">
        <ele>248.000000</ele>
        <time>2020-10-17T11:18:53Z</time>
      </trkpt>
      <trkpt lat="39.837936000" lon="-8.435878000">
        <ele>246.800000</ele>
        <time>2020-10-17T11:18:55Z</time>
      </trkpt>
      <trkpt lat="39.837870000" lon="-8.435850000">
        <ele>246.200000</ele>
        <time>2020-10-17T11:18:56Z</time>
      </trkpt>
      <trkpt lat="39.837804000" lon="-8.435808000">
        <ele>245.200000</ele>
        <time>2020-10-17T11:18:57Z</time>
      </trkpt>
      <trkpt lat="39.837736000" lon="-8.435765000">
        <ele>244.200000</ele>
        <time>2020-10-17T11:18:58Z</time>
      </trkpt>
      <trkpt lat="39.837664000" lon="-8.435726000">
        <ele>243.800000</ele>
        <time>2020-10-17T11:18:59Z</time>
      </trkpt>
      <trkpt lat="39.837594000" lon="-8.435687000">
        <ele>243.600000</ele>
        <time>2020-10-17T11:19:00Z</time>
      </trkpt>
      <trkpt lat="39.837457000" lon="-8.435603000">
        <ele>241.000000</ele>
        <time>2020-10-17T11:19:02Z</time>
      </trkpt>
      <trkpt lat="39.837385000" lon="-8.435567000">
        <ele>240.600000</ele>
        <time>2020-10-17T11:19:03Z</time>
      </trkpt>
      <trkpt lat="39.837315000" lon="-8.435537000">
        <ele>240.600000</ele>
        <time>2020-10-17T11:19:04Z</time>
      </trkpt>
      <trkpt lat="39.837252000" lon="-8.435506000">
        <ele>240.200000</ele>
        <time>2020-10-17T11:19:05Z</time>
      </trkpt>
      <trkpt lat="39.837189000" lon="-8.435459000">
        <ele>239.600000</ele>
        <time>2020-10-17T11:19:06Z</time>
      </trkpt>
      <trkpt lat="39.837131000" lon="-8.435407000">
        <ele>239.000000</ele>
        <time>2020-10-17T11:19:07Z</time>
      </trkpt>
      <trkpt lat="39.837019000" lon="-8.435302000">
        <ele>238.000000</ele>
        <time>2020-10-17T11:19:09Z</time>
      </trkpt>
      <trkpt lat="39.836966000" lon="-8.435246000">
        <ele>237.600000</ele>
        <time>2020-10-17T11:19:10Z</time>
      </trkpt>
      <trkpt lat="39.836918000" lon="-8.435190000">
        <ele>237.200000</ele>
        <time>2020-10-17T11:19:11Z</time>
      </trkpt>
      <trkpt lat="39.836870000" lon="-8.435134000">
        <ele>236.800000</ele>
        <time>2020-10-17T11:19:12Z</time>
      </trkpt>
      <trkpt lat="39.836822000" lon="-8.435081000">
        <ele>236.400000</ele>
        <time>2020-10-17T11:19:13Z</time>
      </trkpt>
      <trkpt lat="39.836781000" lon="-8.435037000">
        <ele>235.800000</ele>
        <time>2020-10-17T11:19:14Z</time>
      </trkpt>
      <trkpt lat="39.836740000" lon="-8.435001000">
        <ele>234.600000</ele>
        <time>2020-10-17T11:19:15Z</time>
      </trkpt>
      <trkpt lat="39.836704000" lon="-8.434965000">
        <ele>233.800000</ele>
        <time>2020-10-17T11:19:16Z</time>
      </trkpt>
      <trkpt lat="39.836677000" lon="-8.434929000">
        <ele>233.600000</ele>
        <time>2020-10-17T11:19:17Z</time>
      </trkpt>
      <trkpt lat="39.836647000" lon="-8.434893000">
        <ele>233.000000</ele>
        <time>2020-10-17T11:19:18Z</time>
      </trkpt>
      <trkpt lat="39.836618000" lon="-8.434864000">
        <ele>232.400000</ele>
        <time>2020-10-17T11:19:19Z</time>
      </trkpt>
      <trkpt lat="39.836590000" lon="-8.434842000">
        <ele>232.200000</ele>
        <time>2020-10-17T11:19:20Z</time>
      </trkpt>
      <trkpt lat="39.836563000" lon="-8.434826000">
        <ele>231.800000</ele>
        <time>2020-10-17T11:19:21Z</time>
      </trkpt>
      <trkpt lat="39.836540000" lon="-8.434809000">
        <ele>231.600000</ele>
        <time>2020-10-17T11:19:22Z</time>
      </trkpt>
      <trkpt lat="39.836519000" lon="-8.434786000">
        <ele>231.000000</ele>
        <time>2020-10-17T11:19:23Z</time>
      </trkpt>
      <trkpt lat="39.836507000" lon="-8.434760000">
        <ele>230.400000</ele>
        <time>2020-10-17T11:19:24Z</time>
      </trkpt>
      <trkpt lat="39.836501000" lon="-8.434729000">
        <ele>230.400000</ele>
        <time>2020-10-17T11:19:25Z</time>
      </trkpt>
      <trkpt lat="39.836499000" lon="-8.434697000">
        <ele>230.000000</ele>
        <time>2020-10-17T11:19:26Z</time>
      </trkpt>
      <trkpt lat="39.836497000" lon="-8.434667000">
        <ele>229.600000</ele>
        <time>2020-10-17T11:19:27Z</time>
      </trkpt>
      <trkpt lat="39.836489000" lon="-8.434644000">
        <ele>229.200000</ele>
        <time>2020-10-17T11:19:28Z</time>
      </trkpt>
      <trkpt lat="39.836474000" lon="-8.434629000">
        <ele>228.800000</ele>
        <time>2020-10-17T11:19:29Z</time>
      </trkpt>
      <trkpt lat="39.836456000" lon="-8.434622000">
        <ele>228.200000</ele>
        <time>2020-10-17T11:19:30Z</time>
      </trkpt>
      <trkpt lat="39.836377000" lon="-8.434600000">
        <ele>226.200000</ele>
        <time>2020-10-17T11:19:33Z</time>
      </trkpt>
      <trkpt lat="39.836345000" lon="-8.434586000">
        <ele>225.600000</ele>
        <time>2020-10-17T11:19:34Z</time>
      </trkpt>
      <trkpt lat="39.836313000" lon="-8.434573000">
        <ele>225.200000</ele>
        <time>2020-10-17T11:19:35Z</time>
      </trkpt>
      <trkpt lat="39.836253000" lon="-8.434533000">
        <ele>223.800000</ele>
        <time>2020-10-17T11:19:37Z</time>
      </trkpt>
      <trkpt lat="39.836226000" lon="-8.434502000">
        <ele>223.000000</ele>
        <time>2020-10-17T11:19:38Z</time>
      </trkpt>
      <trkpt lat="39.836190000" lon="-8.434461000">
        <ele>222.600000</ele>
        <time>2020-10-17T11:19:39Z</time>
      </trkpt>
      <trkpt lat="39.836158000" lon="-8.434423000">
        <ele>222.000000</ele>
        <time>2020-10-17T11:19:40Z</time>
      </trkpt>
      <trkpt lat="39.836046000" lon="-8.434331000">
        <ele>220.200000</ele>
        <time>2020-10-17T11:19:43Z</time>
      </trkpt>
      <trkpt lat="39.836015000" lon="-8.434315000">
        <ele>219.800000</ele>
        <time>2020-10-17T11:19:44Z</time>
      </trkpt>
      <trkpt lat="39.835993000" lon="-8.434310000">
        <ele>219.200000</ele>
        <time>2020-10-17T11:19:45Z</time>
      </trkpt>
      <trkpt lat="39.835978000" lon="-8.434305000">
        <ele>219.200000</ele>
        <time>2020-10-17T11:19:46Z</time>
      </trkpt>
      <trkpt lat="39.835964000" lon="-8.434298000">
        <ele>219.000000</ele>
        <time>2020-10-17T11:19:47Z</time>
      </trkpt>
      <trkpt lat="39.835950000" lon="-8.434288000">
        <ele>218.800000</ele>
        <time>2020-10-17T11:19:48Z</time>
      </trkpt>
      <trkpt lat="39.835935000" lon="-8.434279000">
        <ele>218.800000</ele>
        <time>2020-10-17T11:19:49Z</time>
      </trkpt>
      <trkpt lat="39.835888000" lon="-8.434239000">
        <ele>218.600000</ele>
        <time>2020-10-17T11:19:52Z</time>
      </trkpt>
      <trkpt lat="39.835855000" lon="-8.434213000">
        <ele>218.800000</ele>
        <time>2020-10-17T11:19:54Z</time>
      </trkpt>
      <trkpt lat="39.835842000" lon="-8.434203000">
        <ele>218.800000</ele>
        <time>2020-10-17T11:19:55Z</time>
      </trkpt>
      <trkpt lat="39.835832000" lon="-8.434194000">
        <ele>219.200000</ele>
        <time>2020-10-17T11:19:56Z</time>
      </trkpt>
      <trkpt lat="39.835812000" lon="-8.434175000">
        <ele>219.200000</ele>
        <time>2020-10-17T11:19:57Z</time>
      </trkpt>
      <trkpt lat="39.835774000" lon="-8.434125000">
        <ele>219.800000</ele>
        <time>2020-10-17T11:20:00Z</time>
      </trkpt>
      <trkpt lat="39.835762000" lon="-8.434116000">
        <ele>220.000000</ele>
        <time>2020-10-17T11:20:01Z</time>
      </trkpt>
      <trkpt lat="39.835750000" lon="-8.434108000">
        <ele>220.200000</ele>
        <time>2020-10-17T11:20:02Z</time>
      </trkpt>
      <trkpt lat="39.835702000" lon="-8.434054000">
        <ele>221.400000</ele>
        <time>2020-10-17T11:20:06Z</time>
      </trkpt>
      <trkpt lat="39.835692000" lon="-8.434041000">
        <ele>221.400000</ele>
        <time>2020-10-17T11:20:07Z</time>
      </trkpt>
      <trkpt lat="39.835679000" lon="-8.434028000">
        <ele>221.400000</ele>
        <time>2020-10-17T11:20:08Z</time>
      </trkpt>
      <trkpt lat="39.835659000" lon="-8.434011000">
        <ele>221.600000</ele>
        <time>2020-10-17T11:20:09Z</time>
      </trkpt>
      <trkpt lat="39.835646000" lon="-8.434001000">
        <ele>222.000000</ele>
        <time>2020-10-17T11:20:10Z</time>
      </trkpt>
      <trkpt lat="39.835636000" lon="-8.433990000">
        <ele>222.400000</ele>
        <time>2020-10-17T11:20:11Z</time>
      </trkpt>
      <trkpt lat="39.835621000" lon="-8.433973000">
        <ele>222.600000</ele>
        <time>2020-10-17T11:20:12Z</time>
      </trkpt>
      <trkpt lat="39.835612000" lon="-8.433957000">
        <ele>222.800000</ele>
        <time>2020-10-17T11:20:13Z</time>
      </trkpt>
      <trkpt lat="39.835600000" lon="-8.433942000">
        <ele>222.800000</ele>
        <time>2020-10-17T11:20:14Z</time>
      </trkpt>
      <trkpt lat="39.835581000" lon="-8.433918000">
        <ele>223.200000</ele>
        <time>2020-10-17T11:20:15Z</time>
      </trkpt>
      <trkpt lat="39.835560000" lon="-8.433900000">
        <ele>223.200000</ele>
        <time>2020-10-17T11:20:16Z</time>
      </trkpt>
      <trkpt lat="39.835539000" lon="-8.433889000">
        <ele>223.400000</ele>
        <time>2020-10-17T11:20:17Z</time>
      </trkpt>
      <trkpt lat="39.835519000" lon="-8.433875000">
        <ele>223.600000</ele>
        <time>2020-10-17T11:20:18Z</time>
      </trkpt>
      <trkpt lat="39.835497000" lon="-8.433855000">
        <ele>223.800000</ele>
        <time>2020-10-17T11:20:19Z</time>
      </trkpt>
      <trkpt lat="39.835476000" lon="-8.433836000">
        <ele>224.200000</ele>
        <time>2020-10-17T11:20:20Z</time>
      </trkpt>
      <trkpt lat="39.835448000" lon="-8.433813000">
        <ele>224.400000</ele>
        <time>2020-10-17T11:20:21Z</time>
      </trkpt>
      <trkpt lat="39.835424000" lon="-8.433791000">
        <ele>224.600000</ele>
        <time>2020-10-17T11:20:22Z</time>
      </trkpt>
      <trkpt lat="39.835396000" lon="-8.433768000">
        <ele>224.600000</ele>
        <time>2020-10-17T11:20:23Z</time>
      </trkpt>
      <trkpt lat="39.835367000" lon="-8.433744000">
        <ele>224.600000</ele>
        <time>2020-10-17T11:20:24Z</time>
      </trkpt>
      <trkpt lat="39.835337000" lon="-8.433716000">
        <ele>224.800000</ele>
        <time>2020-10-17T11:20:25Z</time>
      </trkpt>
      <trkpt lat="39.835305000" lon="-8.433685000">
        <ele>224.800000</ele>
        <time>2020-10-17T11:20:26Z</time>
      </trkpt>
      <trkpt lat="39.835276000" lon="-8.433658000">
        <ele>225.000000</ele>
        <time>2020-10-17T11:20:27Z</time>
      </trkpt>
      <trkpt lat="39.835250000" lon="-8.433636000">
        <ele>225.000000</ele>
        <time>2020-10-17T11:20:28Z</time>
      </trkpt>
      <trkpt lat="39.835230000" lon="-8.433615000">
        <ele>225.000000</ele>
        <time>2020-10-17T11:20:29Z</time>
      </trkpt>
      <trkpt lat="39.835208000" lon="-8.433594000">
        <ele>225.000000</ele>
        <time>2020-10-17T11:20:30Z</time>
      </trkpt>
      <trkpt lat="39.835189000" lon="-8.433573000">
        <ele>225.200000</ele>
        <time>2020-10-17T11:20:31Z</time>
      </trkpt>
      <trkpt lat="39.835172000" lon="-8.433552000">
        <ele>225.200000</ele>
        <time>2020-10-17T11:20:32Z</time>
      </trkpt>
      <trkpt lat="39.835152000" lon="-8.433534000">
        <ele>225.200000</ele>
        <time>2020-10-17T11:20:33Z</time>
      </trkpt>
      <trkpt lat="39.835130000" lon="-8.433512000">
        <ele>225.400000</ele>
        <time>2020-10-17T11:20:34Z</time>
      </trkpt>
      <trkpt lat="39.835110000" lon="-8.433495000">
        <ele>225.400000</ele>
        <time>2020-10-17T11:20:35Z</time>
      </trkpt>
      <trkpt lat="39.835101000" lon="-8.433489000">
        <ele>225.400000</ele>
        <time>2020-10-17T11:20:36Z</time>
      </trkpt>
      <trkpt lat="39.835096000" lon="-8.433486000">
        <ele>225.400000</ele>
        <time>2020-10-17T11:20:37Z</time>
      </trkpt>
      <trkpt lat="39.835095000" lon="-8.433486000">
        <ele>225.600000</ele>
        <time>2020-10-17T11:20:39Z</time>
      </trkpt>
      <trkpt lat="39.834955000" lon="-8.433434000">
        <ele>225.800000</ele>
        <time>2020-10-17T11:21:40Z</time>
      </trkpt>
      <trkpt lat="39.834925000" lon="-8.433433000">
        <ele>225.600000</ele>
        <time>2020-10-17T11:21:41Z</time>
      </trkpt>
      <trkpt lat="39.834821000" lon="-8.433417000">
        <ele>225.400000</ele>
        <time>2020-10-17T11:21:44Z</time>
      </trkpt>
      <trkpt lat="39.834700000" lon="-8.433404000">
        <ele>225.600000</ele>
        <time>2020-10-17T11:21:47Z</time>
      </trkpt>
      <trkpt lat="39.834364000" lon="-8.433356000">
        <ele>225.200000</ele>
        <time>2020-10-17T11:21:54Z</time>
      </trkpt>
      <trkpt lat="39.834318000" lon="-8.433351000">
        <ele>225.200000</ele>
        <time>2020-10-17T11:21:55Z</time>
      </trkpt>
      <trkpt lat="39.834271000" lon="-8.433344000">
        <ele>224.800000</ele>
        <time>2020-10-17T11:21:56Z</time>
      </trkpt>
      <trkpt lat="39.833943000" lon="-8.433304000">
        <ele>224.200000</ele>
        <time>2020-10-17T11:22:02Z</time>
      </trkpt>
      <trkpt lat="39.833886000" lon="-8.433298000">
        <ele>224.200000</ele>
        <time>2020-10-17T11:22:03Z</time>
      </trkpt>
      <trkpt lat="39.833660000" lon="-8.433266000">
        <ele>224.000000</ele>
        <time>2020-10-17T11:22:07Z</time>
      </trkpt>
      <trkpt lat="39.833474000" lon="-8.433268000">
        <ele>224.000000</ele>
        <time>2020-10-17T11:22:10Z</time>
      </trkpt>
      <trkpt lat="39.833415000" lon="-8.433283000">
        <ele>223.800000</ele>
        <time>2020-10-17T11:22:11Z</time>
      </trkpt>
      <trkpt lat="39.833303000" lon="-8.433346000">
        <ele>223.800000</ele>
        <time>2020-10-17T11:22:13Z</time>
      </trkpt>
      <trkpt lat="39.833250000" lon="-8.433394000">
        <ele>223.800000</ele>
        <time>2020-10-17T11:22:14Z</time>
      </trkpt>
      <trkpt lat="39.833195000" lon="-8.433449000">
        <ele>223.800000</ele>
        <time>2020-10-17T11:22:15Z</time>
      </trkpt>
      <trkpt lat="39.833023000" lon="-8.433645000">
        <ele>223.800000</ele>
        <time>2020-10-17T11:22:18Z</time>
      </trkpt>
      <trkpt lat="39.832959000" lon="-8.433715000">
        <ele>224.000000</ele>
        <time>2020-10-17T11:22:19Z</time>
      </trkpt>
      <trkpt lat="39.832820000" lon="-8.433868000">
        <ele>223.600000</ele>
        <time>2020-10-17T11:22:21Z</time>
      </trkpt>
      <trkpt lat="39.832683000" lon="-8.434020000">
        <ele>223.200000</ele>
        <time>2020-10-17T11:22:23Z</time>
      </trkpt>
      <trkpt lat="39.832532000" lon="-8.434177000">
        <ele>222.800000</ele>
        <time>2020-10-17T11:22:25Z</time>
      </trkpt>
      <trkpt lat="39.832311000" lon="-8.434419000">
        <ele>221.200000</ele>
        <time>2020-10-17T11:22:28Z</time>
      </trkpt>
      <trkpt lat="39.832242000" lon="-8.434498000">
        <ele>220.800000</ele>
        <time>2020-10-17T11:22:29Z</time>
      </trkpt>
      <trkpt lat="39.832086000" lon="-8.434646000">
        <ele>220.200000</ele>
        <time>2020-10-17T11:22:31Z</time>
      </trkpt>
      <trkpt lat="39.832001000" lon="-8.434705000">
        <ele>219.800000</ele>
        <time>2020-10-17T11:22:32Z</time>
      </trkpt>
      <trkpt lat="39.831909000" lon="-8.434749000">
        <ele>219.000000</ele>
        <time>2020-10-17T11:22:33Z</time>
      </trkpt>
      <trkpt lat="39.831722000" lon="-8.434816000">
        <ele>217.600000</ele>
        <time>2020-10-17T11:22:35Z</time>
      </trkpt>
      <trkpt lat="39.831630000" lon="-8.434844000">
        <ele>217.000000</ele>
        <time>2020-10-17T11:22:36Z</time>
      </trkpt>
      <trkpt lat="39.831534000" lon="-8.434873000">
        <ele>216.600000</ele>
        <time>2020-10-17T11:22:37Z</time>
      </trkpt>
      <trkpt lat="39.831443000" lon="-8.434903000">
        <ele>216.000000</ele>
        <time>2020-10-17T11:22:38Z</time>
      </trkpt>
      <trkpt lat="39.831356000" lon="-8.434933000">
        <ele>215.600000</ele>
        <time>2020-10-17T11:22:39Z</time>
      </trkpt>
      <trkpt lat="39.831270000" lon="-8.434964000">
        <ele>215.200000</ele>
        <time>2020-10-17T11:22:40Z</time>
      </trkpt>
      <trkpt lat="39.831182000" lon="-8.434992000">
        <ele>214.800000</ele>
        <time>2020-10-17T11:22:41Z</time>
      </trkpt>
      <trkpt lat="39.831098000" lon="-8.435016000">
        <ele>214.600000</ele>
        <time>2020-10-17T11:22:42Z</time>
      </trkpt>
      <trkpt lat="39.831016000" lon="-8.435039000">
        <ele>214.000000</ele>
        <time>2020-10-17T11:22:43Z</time>
      </trkpt>
      <trkpt lat="39.830765000" lon="-8.435117000">
        <ele>213.400000</ele>
        <time>2020-10-17T11:22:46Z</time>
      </trkpt>
      <trkpt lat="39.830594000" lon="-8.435166000">
        <ele>213.000000</ele>
        <time>2020-10-17T11:22:48Z</time>
      </trkpt>
      <trkpt lat="39.830327000" lon="-8.435254000">
        <ele>211.800000</ele>
        <time>2020-10-17T11:22:51Z</time>
      </trkpt>
      <trkpt lat="39.830044000" lon="-8.435352000">
        <ele>211.400000</ele>
        <time>2020-10-17T11:22:54Z</time>
      </trkpt>
      <trkpt lat="39.829746000" lon="-8.435442000">
        <ele>210.200000</ele>
        <time>2020-10-17T11:22:57Z</time>
      </trkpt>
      <trkpt lat="39.829550000" lon="-8.435508000">
        <ele>209.000000</ele>
        <time>2020-10-17T11:22:59Z</time>
      </trkpt>
      <trkpt lat="39.829452000" lon="-8.435542000">
        <ele>208.400000</ele>
        <time>2020-10-17T11:23:00Z</time>
      </trkpt>
      <trkpt lat="39.829143000" lon="-8.435644000">
        <ele>206.000000</ele>
        <time>2020-10-17T11:23:03Z</time>
      </trkpt>
      <trkpt lat="39.829036000" lon="-8.435669000">
        <ele>205.200000</ele>
        <time>2020-10-17T11:23:04Z</time>
      </trkpt>
      <trkpt lat="39.828927000" lon="-8.435684000">
        <ele>204.600000</ele>
        <time>2020-10-17T11:23:05Z</time>
      </trkpt>
      <trkpt lat="39.828707000" lon="-8.435673000">
        <ele>203.600000</ele>
        <time>2020-10-17T11:23:07Z</time>
      </trkpt>
      <trkpt lat="39.828598000" lon="-8.435656000">
        <ele>203.000000</ele>
        <time>2020-10-17T11:23:08Z</time>
      </trkpt>
      <trkpt lat="39.828489000" lon="-8.435636000">
        <ele>202.000000</ele>
        <time>2020-10-17T11:23:09Z</time>
      </trkpt>
      <trkpt lat="39.828273000" lon="-8.435590000">
        <ele>200.600000</ele>
        <time>2020-10-17T11:23:11Z</time>
      </trkpt>
      <trkpt lat="39.827838000" lon="-8.435508000">
        <ele>198.400000</ele>
        <time>2020-10-17T11:23:15Z</time>
      </trkpt>
      <trkpt lat="39.827732000" lon="-8.435490000">
        <ele>197.600000</ele>
        <time>2020-10-17T11:23:16Z</time>
      </trkpt>
      <trkpt lat="39.827629000" lon="-8.435474000">
        <ele>197.000000</ele>
        <time>2020-10-17T11:23:17Z</time>
      </trkpt>
      <trkpt lat="39.827526000" lon="-8.435460000">
        <ele>196.400000</ele>
        <time>2020-10-17T11:23:18Z</time>
      </trkpt>
      <trkpt lat="39.827425000" lon="-8.435449000">
        <ele>195.600000</ele>
        <time>2020-10-17T11:23:19Z</time>
      </trkpt>
      <trkpt lat="39.827327000" lon="-8.435440000">
        <ele>195.200000</ele>
        <time>2020-10-17T11:23:20Z</time>
      </trkpt>
      <trkpt lat="39.827234000" lon="-8.435439000">
        <ele>194.600000</ele>
        <time>2020-10-17T11:23:21Z</time>
      </trkpt>
      <trkpt lat="39.827141000" lon="-8.435450000">
        <ele>193.800000</ele>
        <time>2020-10-17T11:23:22Z</time>
      </trkpt>
      <trkpt lat="39.827050000" lon="-8.435473000">
        <ele>193.400000</ele>
        <time>2020-10-17T11:23:23Z</time>
      </trkpt>
      <trkpt lat="39.826961000" lon="-8.435503000">
        <ele>192.800000</ele>
        <time>2020-10-17T11:23:24Z</time>
      </trkpt>
      <trkpt lat="39.826874000" lon="-8.435540000">
        <ele>192.400000</ele>
        <time>2020-10-17T11:23:25Z</time>
      </trkpt>
      <trkpt lat="39.826789000" lon="-8.435581000">
        <ele>192.000000</ele>
        <time>2020-10-17T11:23:26Z</time>
      </trkpt>
      <trkpt lat="39.826619000" lon="-8.435670000">
        <ele>191.600000</ele>
        <time>2020-10-17T11:23:28Z</time>
      </trkpt>
      <trkpt lat="39.826443000" lon="-8.435764000">
        <ele>191.200000</ele>
        <time>2020-10-17T11:23:30Z</time>
      </trkpt>
      <trkpt lat="39.826264000" lon="-8.435857000">
        <ele>190.200000</ele>
        <time>2020-10-17T11:23:32Z</time>
      </trkpt>
      <trkpt lat="39.825910000" lon="-8.436061000">
        <ele>189.200000</ele>
        <time>2020-10-17T11:23:36Z</time>
      </trkpt>
      <trkpt lat="39.825636000" lon="-8.436212000">
        <ele>188.400000</ele>
        <time>2020-10-17T11:23:39Z</time>
      </trkpt>
      <trkpt lat="39.825550000" lon="-8.436266000">
        <ele>188.000000</ele>
        <time>2020-10-17T11:23:40Z</time>
      </trkpt>
      <trkpt lat="39.825465000" lon="-8.436326000">
        <ele>187.600000</ele>
        <time>2020-10-17T11:23:41Z</time>
      </trkpt>
      <trkpt lat="39.825390000" lon="-8.436390000">
        <ele>187.400000</ele>
        <time>2020-10-17T11:23:42Z</time>
      </trkpt>
      <trkpt lat="39.825326000" lon="-8.436453000">
        <ele>187.000000</ele>
        <time>2020-10-17T11:23:43Z</time>
      </trkpt>
      <trkpt lat="39.825267000" lon="-8.436503000">
        <ele>186.800000</ele>
        <time>2020-10-17T11:23:44Z</time>
      </trkpt>
      <trkpt lat="39.825216000" lon="-8.436522000">
        <ele>186.600000</ele>
        <time>2020-10-17T11:23:45Z</time>
      </trkpt>
      <trkpt lat="39.825165000" lon="-8.436516000">
        <ele>186.000000</ele>
        <time>2020-10-17T11:23:46Z</time>
      </trkpt>
      <trkpt lat="39.825122000" lon="-8.436493000">
        <ele>185.400000</ele>
        <time>2020-10-17T11:23:47Z</time>
      </trkpt>
      <trkpt lat="39.825087000" lon="-8.436463000">
        <ele>185.000000</ele>
        <time>2020-10-17T11:23:48Z</time>
      </trkpt>
      <trkpt lat="39.825056000" lon="-8.436429000">
        <ele>184.200000</ele>
        <time>2020-10-17T11:23:49Z</time>
      </trkpt>
      <trkpt lat="39.825027000" lon="-8.436400000">
        <ele>183.800000</ele>
        <time>2020-10-17T11:23:50Z</time>
      </trkpt>
      <trkpt lat="39.825002000" lon="-8.436375000">
        <ele>183.400000</ele>
        <time>2020-10-17T11:23:51Z</time>
      </trkpt>
      <trkpt lat="39.824981000" lon="-8.436357000">
        <ele>182.800000</ele>
        <time>2020-10-17T11:23:52Z</time>
      </trkpt>
      <trkpt lat="39.824962000" lon="-8.436345000">
        <ele>182.600000</ele>
        <time>2020-10-17T11:23:53Z</time>
      </trkpt>
      <trkpt lat="39.824936000" lon="-8.436331000">
        <ele>182.600000</ele>
        <time>2020-10-17T11:23:54Z</time>
      </trkpt>
      <trkpt lat="39.824912000" lon="-8.436320000">
        <ele>182.400000</ele>
        <time>2020-10-17T11:23:55Z</time>
      </trkpt>
      <trkpt lat="39.824886000" lon="-8.436309000">
        <ele>182.400000</ele>
        <time>2020-10-17T11:23:56Z</time>
      </trkpt>
      <trkpt lat="39.824859000" lon="-8.436299000">
        <ele>182.400000</ele>
        <time>2020-10-17T11:23:57Z</time>
      </trkpt>
      <trkpt lat="39.824743000" lon="-8.436250000">
        <ele>182.400000</ele>
        <time>2020-10-17T11:24:01Z</time>
      </trkpt>
      <trkpt lat="39.824693000" lon="-8.436218000">
        <ele>183.000000</ele>
        <time>2020-10-17T11:24:03Z</time>
      </trkpt>
      <trkpt lat="39.824670000" lon="-8.436205000">
        <ele>183.000000</ele>
        <time>2020-10-17T11:24:04Z</time>
      </trkpt>
      <trkpt lat="39.824646000" lon="-8.436191000">
        <ele>183.000000</ele>
        <time>2020-10-17T11:24:05Z</time>
      </trkpt>
      <trkpt lat="39.824562000" lon="-8.436141000">
        <ele>184.200000</ele>
        <time>2020-10-17T11:24:08Z</time>
      </trkpt>
      <trkpt lat="39.824532000" lon="-8.436121000">
        <ele>184.400000</ele>
        <time>2020-10-17T11:24:09Z</time>
      </trkpt>
      <trkpt lat="39.824501000" lon="-8.436104000">
        <ele>184.600000</ele>
        <time>2020-10-17T11:24:10Z</time>
      </trkpt>
      <trkpt lat="39.824473000" lon="-8.436087000">
        <ele>184.800000</ele>
        <time>2020-10-17T11:24:11Z</time>
      </trkpt>
      <trkpt lat="39.824450000" lon="-8.436074000">
        <ele>184.800000</ele>
        <time>2020-10-17T11:24:12Z</time>
      </trkpt>
      <trkpt lat="39.824430000" lon="-8.436062000">
        <ele>185.200000</ele>
        <time>2020-10-17T11:24:13Z</time>
      </trkpt>
      <trkpt lat="39.824409000" lon="-8.436052000">
        <ele>185.400000</ele>
        <time>2020-10-17T11:24:14Z</time>
      </trkpt>
      <trkpt lat="39.824387000" lon="-8.436044000">
        <ele>185.400000</ele>
        <time>2020-10-17T11:24:15Z</time>
      </trkpt>
      <trkpt lat="39.824366000" lon="-8.436037000">
        <ele>185.600000</ele>
        <time>2020-10-17T11:24:16Z</time>
      </trkpt>
      <trkpt lat="39.824346000" lon="-8.436031000">
        <ele>185.600000</ele>
        <time>2020-10-17T11:24:17Z</time>
      </trkpt>
      <trkpt lat="39.824329000" lon="-8.436024000">
        <ele>185.800000</ele>
        <time>2020-10-17T11:24:18Z</time>
      </trkpt>
      <trkpt lat="39.824310000" lon="-8.436013000">
        <ele>185.600000</ele>
        <time>2020-10-17T11:24:19Z</time>
      </trkpt>
      <trkpt lat="39.824300000" lon="-8.436006000">
        <ele>185.800000</ele>
        <time>2020-10-17T11:24:20Z</time>
      </trkpt>
      <trkpt lat="39.824282000" lon="-8.435996000">
        <ele>186.000000</ele>
        <time>2020-10-17T11:24:21Z</time>
      </trkpt>
      <trkpt lat="39.824264000" lon="-8.435989000">
        <ele>186.600000</ele>
        <time>2020-10-17T11:24:22Z</time>
      </trkpt>
      <trkpt lat="39.824245000" lon="-8.435978000">
        <ele>186.800000</ele>
        <time>2020-10-17T11:24:23Z</time>
      </trkpt>
      <trkpt lat="39.824227000" lon="-8.435964000">
        <ele>187.200000</ele>
        <time>2020-10-17T11:24:24Z</time>
      </trkpt>
      <trkpt lat="39.824208000" lon="-8.435954000">
        <ele>187.400000</ele>
        <time>2020-10-17T11:24:25Z</time>
      </trkpt>
      <trkpt lat="39.824190000" lon="-8.435943000">
        <ele>187.400000</ele>
        <time>2020-10-17T11:24:26Z</time>
      </trkpt>
      <trkpt lat="39.824169000" lon="-8.435934000">
        <ele>187.600000</ele>
        <time>2020-10-17T11:24:27Z</time>
      </trkpt>
      <trkpt lat="39.824149000" lon="-8.435927000">
        <ele>188.000000</ele>
        <time>2020-10-17T11:24:28Z</time>
      </trkpt>
      <trkpt lat="39.824130000" lon="-8.435920000">
        <ele>188.200000</ele>
        <time>2020-10-17T11:24:29Z</time>
      </trkpt>
      <trkpt lat="39.824112000" lon="-8.435911000">
        <ele>188.400000</ele>
        <time>2020-10-17T11:24:30Z</time>
      </trkpt>
      <trkpt lat="39.824093000" lon="-8.435902000">
        <ele>188.800000</ele>
        <time>2020-10-17T11:24:31Z</time>
      </trkpt>
      <trkpt lat="39.824072000" lon="-8.435894000">
        <ele>188.800000</ele>
        <time>2020-10-17T11:24:32Z</time>
      </trkpt>
      <trkpt lat="39.824050000" lon="-8.435887000">
        <ele>189.200000</ele>
        <time>2020-10-17T11:24:33Z</time>
      </trkpt>
      <trkpt lat="39.824030000" lon="-8.435877000">
        <ele>189.200000</ele>
        <time>2020-10-17T11:24:34Z</time>
      </trkpt>
      <trkpt lat="39.824009000" lon="-8.435870000">
        <ele>189.600000</ele>
        <time>2020-10-17T11:24:35Z</time>
      </trkpt>
      <trkpt lat="39.823988000" lon="-8.435864000">
        <ele>189.800000</ele>
        <time>2020-10-17T11:24:36Z</time>
      </trkpt>
      <trkpt lat="39.823968000" lon="-8.435858000">
        <ele>189.600000</ele>
        <time>2020-10-17T11:24:37Z</time>
      </trkpt>
      <trkpt lat="39.823948000" lon="-8.435851000">
        <ele>189.600000</ele>
        <time>2020-10-17T11:24:38Z</time>
      </trkpt>
      <trkpt lat="39.823930000" lon="-8.435845000">
        <ele>190.000000</ele>
        <time>2020-10-17T11:24:39Z</time>
      </trkpt>
      <trkpt lat="39.823912000" lon="-8.435839000">
        <ele>190.400000</ele>
        <time>2020-10-17T11:24:40Z</time>
      </trkpt>
      <trkpt lat="39.823892000" lon="-8.435834000">
        <ele>190.400000</ele>
        <time>2020-10-17T11:24:41Z</time>
      </trkpt>
      <trkpt lat="39.823875000" lon="-8.435828000">
        <ele>190.600000</ele>
        <time>2020-10-17T11:24:42Z</time>
      </trkpt>
      <trkpt lat="39.823858000" lon="-8.435821000">
        <ele>190.600000</ele>
        <time>2020-10-17T11:24:43Z</time>
      </trkpt>
      <trkpt lat="39.823837000" lon="-8.435816000">
        <ele>190.800000</ele>
        <time>2020-10-17T11:24:44Z</time>
      </trkpt>
      <trkpt lat="39.823816000" lon="-8.435808000">
        <ele>191.000000</ele>
        <time>2020-10-17T11:24:45Z</time>
      </trkpt>
      <trkpt lat="39.823797000" lon="-8.435802000">
        <ele>191.000000</ele>
        <time>2020-10-17T11:24:46Z</time>
      </trkpt>
      <trkpt lat="39.823779000" lon="-8.435799000">
        <ele>191.400000</ele>
        <time>2020-10-17T11:24:47Z</time>
      </trkpt>
      <trkpt lat="39.823761000" lon="-8.435795000">
        <ele>191.800000</ele>
        <time>2020-10-17T11:24:48Z</time>
      </trkpt>
      <trkpt lat="39.823742000" lon="-8.435793000">
        <ele>192.000000</ele>
        <time>2020-10-17T11:24:49Z</time>
      </trkpt>
      <trkpt lat="39.823720000" lon="-8.435792000">
        <ele>192.200000</ele>
        <time>2020-10-17T11:24:50Z</time>
      </trkpt>
      <trkpt lat="39.823698000" lon="-8.435790000">
        <ele>192.400000</ele>
        <time>2020-10-17T11:24:51Z</time>
      </trkpt>
      <trkpt lat="39.823678000" lon="-8.435787000">
        <ele>192.600000</ele>
        <time>2020-10-17T11:24:52Z</time>
      </trkpt>
      <trkpt lat="39.823658000" lon="-8.435785000">
        <ele>192.800000</ele>
        <time>2020-10-17T11:24:53Z</time>
      </trkpt>
      <trkpt lat="39.823640000" lon="-8.435785000">
        <ele>193.200000</ele>
        <time>2020-10-17T11:24:54Z</time>
      </trkpt>
      <trkpt lat="39.823619000" lon="-8.435785000">
        <ele>193.200000</ele>
        <time>2020-10-17T11:24:55Z</time>
      </trkpt>
      <trkpt lat="39.823600000" lon="-8.435786000">
        <ele>193.400000</ele>
        <time>2020-10-17T11:24:56Z</time>
      </trkpt>
      <trkpt lat="39.823578000" lon="-8.435785000">
        <ele>193.800000</ele>
        <time>2020-10-17T11:24:57Z</time>
      </trkpt>
      <trkpt lat="39.823555000" lon="-8.435785000">
        <ele>194.200000</ele>
        <time>2020-10-17T11:24:58Z</time>
      </trkpt>
      <trkpt lat="39.823532000" lon="-8.435786000">
        <ele>194.200000</ele>
        <time>2020-10-17T11:24:59Z</time>
      </trkpt>
      <trkpt lat="39.823509000" lon="-8.435786000">
        <ele>194.600000</ele>
        <time>2020-10-17T11:25:00Z</time>
      </trkpt>
      <trkpt lat="39.823486000" lon="-8.435786000">
        <ele>194.600000</ele>
        <time>2020-10-17T11:25:01Z</time>
      </trkpt>
      <trkpt lat="39.823465000" lon="-8.435786000">
        <ele>194.800000</ele>
        <time>2020-10-17T11:25:02Z</time>
      </trkpt>
      <trkpt lat="39.823442000" lon="-8.435786000">
        <ele>195.000000</ele>
        <time>2020-10-17T11:25:03Z</time>
      </trkpt>
      <trkpt lat="39.823422000" lon="-8.435785000">
        <ele>195.400000</ele>
        <time>2020-10-17T11:25:04Z</time>
      </trkpt>
      <trkpt lat="39.823403000" lon="-8.435786000">
        <ele>195.600000</ele>
        <time>2020-10-17T11:25:05Z</time>
      </trkpt>
      <trkpt lat="39.823382000" lon="-8.435787000">
        <ele>196.000000</ele>
        <time>2020-10-17T11:25:06Z</time>
      </trkpt>
      <trkpt lat="39.823366000" lon="-8.435788000">
        <ele>196.000000</ele>
        <time>2020-10-17T11:25:07Z</time>
      </trkpt>
      <trkpt lat="39.823347000" lon="-8.435791000">
        <ele>196.200000</ele>
        <time>2020-10-17T11:25:08Z</time>
      </trkpt>
      <trkpt lat="39.823329000" lon="-8.435794000">
        <ele>196.400000</ele>
        <time>2020-10-17T11:25:09Z</time>
      </trkpt>
      <trkpt lat="39.823314000" lon="-8.435797000">
        <ele>196.800000</ele>
        <time>2020-10-17T11:25:10Z</time>
      </trkpt>
      <trkpt lat="39.823296000" lon="-8.435802000">
        <ele>197.200000</ele>
        <time>2020-10-17T11:25:11Z</time>
      </trkpt>
      <trkpt lat="39.823279000" lon="-8.435808000">
        <ele>197.200000</ele>
        <time>2020-10-17T11:25:12Z</time>
      </trkpt>
      <trkpt lat="39.823262000" lon="-8.435813000">
        <ele>197.600000</ele>
        <time>2020-10-17T11:25:13Z</time>
      </trkpt>
      <trkpt lat="39.823244000" lon="-8.435818000">
        <ele>197.800000</ele>
        <time>2020-10-17T11:25:14Z</time>
      </trkpt>
      <trkpt lat="39.823228000" lon="-8.435821000">
        <ele>197.800000</ele>
        <time>2020-10-17T11:25:15Z</time>
      </trkpt>
      <trkpt lat="39.823209000" lon="-8.435825000">
        <ele>198.200000</ele>
        <time>2020-10-17T11:25:16Z</time>
      </trkpt>
      <trkpt lat="39.823189000" lon="-8.435830000">
        <ele>198.400000</ele>
        <time>2020-10-17T11:25:17Z</time>
      </trkpt>
      <trkpt lat="39.823171000" lon="-8.435835000">
        <ele>198.600000</ele>
        <time>2020-10-17T11:25:18Z</time>
      </trkpt>
      <trkpt lat="39.823153000" lon="-8.435839000">
        <ele>198.800000</ele>
        <time>2020-10-17T11:25:19Z</time>
      </trkpt>
      <trkpt lat="39.823133000" lon="-8.435842000">
        <ele>198.800000</ele>
        <time>2020-10-17T11:25:20Z</time>
      </trkpt>
      <trkpt lat="39.823115000" lon="-8.435846000">
        <ele>199.000000</ele>
        <time>2020-10-17T11:25:21Z</time>
      </trkpt>
      <trkpt lat="39.823098000" lon="-8.435849000">
        <ele>199.200000</ele>
        <time>2020-10-17T11:25:22Z</time>
      </trkpt>
      <trkpt lat="39.823080000" lon="-8.435852000">
        <ele>199.400000</ele>
        <time>2020-10-17T11:25:23Z</time>
      </trkpt>
      <trkpt lat="39.823059000" lon="-8.435855000">
        <ele>199.600000</ele>
        <time>2020-10-17T11:25:24Z</time>
      </trkpt>
      <trkpt lat="39.823040000" lon="-8.435856000">
        <ele>199.800000</ele>
        <time>2020-10-17T11:25:25Z</time>
      </trkpt>
      <trkpt lat="39.823022000" lon="-8.435855000">
        <ele>200.000000</ele>
        <time>2020-10-17T11:25:26Z</time>
      </trkpt>
      <trkpt lat="39.823006000" lon="-8.435856000">
        <ele>200.400000</ele>
        <time>2020-10-17T11:25:27Z</time>
      </trkpt>
      <trkpt lat="39.822990000" lon="-8.435857000">
        <ele>200.600000</ele>
        <time>2020-10-17T11:25:28Z</time>
      </trkpt>
      <trkpt lat="39.822974000" lon="-8.435858000">
        <ele>200.800000</ele>
        <time>2020-10-17T11:25:29Z</time>
      </trkpt>
      <trkpt lat="39.822958000" lon="-8.435857000">
        <ele>201.000000</ele>
        <time>2020-10-17T11:25:30Z</time>
      </trkpt>
      <trkpt lat="39.822943000" lon="-8.435858000">
        <ele>201.400000</ele>
        <time>2020-10-17T11:25:31Z</time>
      </trkpt>
      <trkpt lat="39.822928000" lon="-8.435858000">
        <ele>201.400000</ele>
        <time>2020-10-17T11:25:32Z</time>
      </trkpt>
      <trkpt lat="39.822913000" lon="-8.435857000">
        <ele>201.600000</ele>
        <time>2020-10-17T11:25:33Z</time>
      </trkpt>
      <trkpt lat="39.822896000" lon="-8.435858000">
        <ele>201.800000</ele>
        <time>2020-10-17T11:25:34Z</time>
      </trkpt>
      <trkpt lat="39.822879000" lon="-8.435859000">
        <ele>202.000000</ele>
        <time>2020-10-17T11:25:35Z</time>
      </trkpt>
      <trkpt lat="39.822864000" lon="-8.435857000">
        <ele>202.200000</ele>
        <time>2020-10-17T11:25:36Z</time>
      </trkpt>
      <trkpt lat="39.822849000" lon="-8.435856000">
        <ele>202.400000</ele>
        <time>2020-10-17T11:25:37Z</time>
      </trkpt>
      <trkpt lat="39.822832000" lon="-8.435857000">
        <ele>202.400000</ele>
        <time>2020-10-17T11:25:38Z</time>
      </trkpt>
      <trkpt lat="39.822815000" lon="-8.435859000">
        <ele>202.800000</ele>
        <time>2020-10-17T11:25:39Z</time>
      </trkpt>
      <trkpt lat="39.822800000" lon="-8.435860000">
        <ele>202.800000</ele>
        <time>2020-10-17T11:25:40Z</time>
      </trkpt>
      <trkpt lat="39.822781000" lon="-8.435861000">
        <ele>203.000000</ele>
        <time>2020-10-17T11:25:41Z</time>
      </trkpt>
      <trkpt lat="39.822762000" lon="-8.435862000">
        <ele>203.000000</ele>
        <time>2020-10-17T11:25:42Z</time>
      </trkpt>
      <trkpt lat="39.822742000" lon="-8.435865000">
        <ele>203.200000</ele>
        <time>2020-10-17T11:25:43Z</time>
      </trkpt>
      <trkpt lat="39.822721000" lon="-8.435870000">
        <ele>203.400000</ele>
        <time>2020-10-17T11:25:44Z</time>
      </trkpt>
      <trkpt lat="39.822702000" lon="-8.435873000">
        <ele>203.800000</ele>
        <time>2020-10-17T11:25:45Z</time>
      </trkpt>
      <trkpt lat="39.822682000" lon="-8.435873000">
        <ele>204.200000</ele>
        <time>2020-10-17T11:25:46Z</time>
      </trkpt>
      <trkpt lat="39.822663000" lon="-8.435875000">
        <ele>204.600000</ele>
        <time>2020-10-17T11:25:47Z</time>
      </trkpt>
      <trkpt lat="39.822651000" lon="-8.435878000">
        <ele>204.600000</ele>
        <time>2020-10-17T11:25:48Z</time>
      </trkpt>
      <trkpt lat="39.822639000" lon="-8.435879000">
        <ele>205.000000</ele>
        <time>2020-10-17T11:25:49Z</time>
      </trkpt>
      <trkpt lat="39.822624000" lon="-8.435877000">
        <ele>205.200000</ele>
        <time>2020-10-17T11:25:50Z</time>
      </trkpt>
      <trkpt lat="39.822606000" lon="-8.435875000">
        <ele>205.200000</ele>
        <time>2020-10-17T11:25:51Z</time>
      </trkpt>
      <trkpt lat="39.822590000" lon="-8.435872000">
        <ele>205.200000</ele>
        <time>2020-10-17T11:25:52Z</time>
      </trkpt>
      <trkpt lat="39.822572000" lon="-8.435865000">
        <ele>205.400000</ele>
        <time>2020-10-17T11:25:53Z</time>
      </trkpt>
      <trkpt lat="39.822553000" lon="-8.435857000">
        <ele>205.600000</ele>
        <time>2020-10-17T11:25:54Z</time>
      </trkpt>
      <trkpt lat="39.822536000" lon="-8.435851000">
        <ele>205.800000</ele>
        <time>2020-10-17T11:25:55Z</time>
      </trkpt>
      <trkpt lat="39.822518000" lon="-8.435845000">
        <ele>206.200000</ele>
        <time>2020-10-17T11:25:56Z</time>
      </trkpt>
      <trkpt lat="39.822498000" lon="-8.435837000">
        <ele>206.200000</ele>
        <time>2020-10-17T11:25:57Z</time>
      </trkpt>
      <trkpt lat="39.822479000" lon="-8.435831000">
        <ele>206.400000</ele>
        <time>2020-10-17T11:25:58Z</time>
      </trkpt>
      <trkpt lat="39.822459000" lon="-8.435822000">
        <ele>206.600000</ele>
        <time>2020-10-17T11:25:59Z</time>
      </trkpt>
      <trkpt lat="39.822439000" lon="-8.435814000">
        <ele>206.800000</ele>
        <time>2020-10-17T11:26:00Z</time>
      </trkpt>
      <trkpt lat="39.822419000" lon="-8.435803000">
        <ele>207.000000</ele>
        <time>2020-10-17T11:26:01Z</time>
      </trkpt>
      <trkpt lat="39.822401000" lon="-8.435788000">
        <ele>207.400000</ele>
        <time>2020-10-17T11:26:02Z</time>
      </trkpt>
      <trkpt lat="39.822380000" lon="-8.435771000">
        <ele>207.400000</ele>
        <time>2020-10-17T11:26:03Z</time>
      </trkpt>
      <trkpt lat="39.822355000" lon="-8.435750000">
        <ele>207.600000</ele>
        <time>2020-10-17T11:26:04Z</time>
      </trkpt>
      <trkpt lat="39.822335000" lon="-8.435730000">
        <ele>207.800000</ele>
        <time>2020-10-17T11:26:05Z</time>
      </trkpt>
      <trkpt lat="39.822316000" lon="-8.435708000">
        <ele>208.000000</ele>
        <time>2020-10-17T11:26:06Z</time>
      </trkpt>
      <trkpt lat="39.822295000" lon="-8.435686000">
        <ele>208.200000</ele>
        <time>2020-10-17T11:26:07Z</time>
      </trkpt>
      <trkpt lat="39.822273000" lon="-8.435661000">
        <ele>208.200000</ele>
        <time>2020-10-17T11:26:08Z</time>
      </trkpt>
      <trkpt lat="39.822248000" lon="-8.435638000">
        <ele>208.400000</ele>
        <time>2020-10-17T11:26:09Z</time>
      </trkpt>
      <trkpt lat="39.822224000" lon="-8.435617000">
        <ele>208.600000</ele>
        <time>2020-10-17T11:26:10Z</time>
      </trkpt>
      <trkpt lat="39.822199000" lon="-8.435598000">
        <ele>208.600000</ele>
        <time>2020-10-17T11:26:11Z</time>
      </trkpt>
      <trkpt lat="39.822170000" lon="-8.435574000">
        <ele>209.000000</ele>
        <time>2020-10-17T11:26:12Z</time>
      </trkpt>
      <trkpt lat="39.822145000" lon="-8.435547000">
        <ele>209.000000</ele>
        <time>2020-10-17T11:26:13Z</time>
      </trkpt>
      <trkpt lat="39.822121000" lon="-8.435517000">
        <ele>209.000000</ele>
        <time>2020-10-17T11:26:14Z</time>
      </trkpt>
      <trkpt lat="39.822096000" lon="-8.435487000">
        <ele>209.000000</ele>
        <time>2020-10-17T11:26:15Z</time>
      </trkpt>
      <trkpt lat="39.822070000" lon="-8.435456000">
        <ele>209.400000</ele>
        <time>2020-10-17T11:26:16Z</time>
      </trkpt>
      <trkpt lat="39.822045000" lon="-8.435422000">
        <ele>209.400000</ele>
        <time>2020-10-17T11:26:17Z</time>
      </trkpt>
      <trkpt lat="39.822024000" lon="-8.435384000">
        <ele>209.400000</ele>
        <time>2020-10-17T11:26:18Z</time>
      </trkpt>
      <trkpt lat="39.822006000" lon="-8.435343000">
        <ele>209.600000</ele>
        <time>2020-10-17T11:26:19Z</time>
      </trkpt>
      <trkpt lat="39.821990000" lon="-8.435301000">
        <ele>209.800000</ele>
        <time>2020-10-17T11:26:20Z</time>
      </trkpt>
      <trkpt lat="39.821975000" lon="-8.435257000">
        <ele>209.800000</ele>
        <time>2020-10-17T11:26:21Z</time>
      </trkpt>
      <trkpt lat="39.821958000" lon="-8.435212000">
        <ele>209.800000</ele>
        <time>2020-10-17T11:26:22Z</time>
      </trkpt>
      <trkpt lat="39.821941000" lon="-8.435163000">
        <ele>210.000000</ele>
        <time>2020-10-17T11:26:23Z</time>
      </trkpt>
      <trkpt lat="39.821902000" lon="-8.435073000">
        <ele>210.000000</ele>
        <time>2020-10-17T11:26:25Z</time>
      </trkpt>
      <trkpt lat="39.821876000" lon="-8.435042000">
        <ele>210.000000</ele>
        <time>2020-10-17T11:26:26Z</time>
      </trkpt>
      <trkpt lat="39.821843000" lon="-8.435020000">
        <ele>210.200000</ele>
        <time>2020-10-17T11:26:27Z</time>
      </trkpt>
      <trkpt lat="39.821804000" lon="-8.435001000">
        <ele>210.000000</ele>
        <time>2020-10-17T11:26:28Z</time>
      </trkpt>
      <trkpt lat="39.821761000" lon="-8.434985000">
        <ele>210.200000</ele>
        <time>2020-10-17T11:26:29Z</time>
      </trkpt>
      <trkpt lat="39.821710000" lon="-8.434965000">
        <ele>210.000000</ele>
        <time>2020-10-17T11:26:30Z</time>
      </trkpt>
      <trkpt lat="39.821660000" lon="-8.434942000">
        <ele>210.000000</ele>
        <time>2020-10-17T11:26:31Z</time>
      </trkpt>
      <trkpt lat="39.821391000" lon="-8.434783000">
        <ele>210.000000</ele>
        <time>2020-10-17T11:26:36Z</time>
      </trkpt>
      <trkpt lat="39.821338000" lon="-8.434759000">
        <ele>209.800000</ele>
        <time>2020-10-17T11:26:37Z</time>
      </trkpt>
      <trkpt lat="39.821282000" lon="-8.434729000">
        <ele>209.400000</ele>
        <time>2020-10-17T11:26:38Z</time>
      </trkpt>
      <trkpt lat="39.821192000" lon="-8.434639000">
        <ele>208.800000</ele>
        <time>2020-10-17T11:26:40Z</time>
      </trkpt>
      <trkpt lat="39.821160000" lon="-8.434582000">
        <ele>208.600000</ele>
        <time>2020-10-17T11:26:41Z</time>
      </trkpt>
      <trkpt lat="39.821129000" lon="-8.434528000">
        <ele>208.400000</ele>
        <time>2020-10-17T11:26:42Z</time>
      </trkpt>
      <trkpt lat="39.821098000" lon="-8.434479000">
        <ele>208.000000</ele>
        <time>2020-10-17T11:26:43Z</time>
      </trkpt>
      <trkpt lat="39.821066000" lon="-8.434433000">
        <ele>208.000000</ele>
        <time>2020-10-17T11:26:44Z</time>
      </trkpt>
      <trkpt lat="39.821037000" lon="-8.434388000">
        <ele>208.000000</ele>
        <time>2020-10-17T11:26:45Z</time>
      </trkpt>
      <trkpt lat="39.821007000" lon="-8.434340000">
        <ele>207.600000</ele>
        <time>2020-10-17T11:26:46Z</time>
      </trkpt>
      <trkpt lat="39.820975000" lon="-8.434294000">
        <ele>207.600000</ele>
        <time>2020-10-17T11:26:47Z</time>
      </trkpt>
      <trkpt lat="39.820851000" lon="-8.434096000">
        <ele>206.600000</ele>
        <time>2020-10-17T11:26:51Z</time>
      </trkpt>
      <trkpt lat="39.820824000" lon="-8.434040000">
        <ele>206.800000</ele>
        <time>2020-10-17T11:26:52Z</time>
      </trkpt>
      <trkpt lat="39.820797000" lon="-8.433984000">
        <ele>206.600000</ele>
        <time>2020-10-17T11:26:53Z</time>
      </trkpt>
      <trkpt lat="39.820772000" lon="-8.433934000">
        <ele>206.600000</ele>
        <time>2020-10-17T11:26:54Z</time>
      </trkpt>
      <trkpt lat="39.820741000" lon="-8.433887000">
        <ele>206.400000</ele>
        <time>2020-10-17T11:26:55Z</time>
      </trkpt>
      <trkpt lat="39.820633000" lon="-8.433758000">
        <ele>206.400000</ele>
        <time>2020-10-17T11:26:58Z</time>
      </trkpt>
      <trkpt lat="39.820598000" lon="-8.433711000">
        <ele>206.400000</ele>
        <time>2020-10-17T11:26:59Z</time>
      </trkpt>
      <trkpt lat="39.820547000" lon="-8.433599000">
        <ele>206.600000</ele>
        <time>2020-10-17T11:27:01Z</time>
      </trkpt>
      <trkpt lat="39.820536000" lon="-8.433530000">
        <ele>206.600000</ele>
        <time>2020-10-17T11:27:02Z</time>
      </trkpt>
      <trkpt lat="39.820529000" lon="-8.433464000">
        <ele>206.600000</ele>
        <time>2020-10-17T11:27:03Z</time>
      </trkpt>
      <trkpt lat="39.820528000" lon="-8.433400000">
        <ele>206.800000</ele>
        <time>2020-10-17T11:27:04Z</time>
      </trkpt>
      <trkpt lat="39.820529000" lon="-8.433336000">
        <ele>206.800000</ele>
        <time>2020-10-17T11:27:05Z</time>
      </trkpt>
      <trkpt lat="39.820535000" lon="-8.433207000">
        <ele>206.800000</ele>
        <time>2020-10-17T11:27:07Z</time>
      </trkpt>
      <trkpt lat="39.820544000" lon="-8.433153000">
        <ele>206.800000</ele>
        <time>2020-10-17T11:27:08Z</time>
      </trkpt>
      <trkpt lat="39.820558000" lon="-8.433104000">
        <ele>206.800000</ele>
        <time>2020-10-17T11:27:09Z</time>
      </trkpt>
      <trkpt lat="39.820576000" lon="-8.433056000">
        <ele>207.200000</ele>
        <time>2020-10-17T11:27:10Z</time>
      </trkpt>
      <trkpt lat="39.820590000" lon="-8.433010000">
        <ele>207.200000</ele>
        <time>2020-10-17T11:27:11Z</time>
      </trkpt>
      <trkpt lat="39.820595000" lon="-8.432962000">
        <ele>207.200000</ele>
        <time>2020-10-17T11:27:12Z</time>
      </trkpt>
      <trkpt lat="39.820594000" lon="-8.432916000">
        <ele>207.400000</ele>
        <time>2020-10-17T11:27:13Z</time>
      </trkpt>
      <trkpt lat="39.820583000" lon="-8.432871000">
        <ele>207.600000</ele>
        <time>2020-10-17T11:27:14Z</time>
      </trkpt>
      <trkpt lat="39.820566000" lon="-8.432826000">
        <ele>207.800000</ele>
        <time>2020-10-17T11:27:15Z</time>
      </trkpt>
      <trkpt lat="39.820540000" lon="-8.432771000">
        <ele>208.000000</ele>
        <time>2020-10-17T11:27:16Z</time>
      </trkpt>
      <trkpt lat="39.820508000" lon="-8.432713000">
        <ele>208.000000</ele>
        <time>2020-10-17T11:27:17Z</time>
      </trkpt>
      <trkpt lat="39.820478000" lon="-8.432648000">
        <ele>208.000000</ele>
        <time>2020-10-17T11:27:18Z</time>
      </trkpt>
      <trkpt lat="39.820447000" lon="-8.432584000">
        <ele>208.000000</ele>
        <time>2020-10-17T11:27:19Z</time>
      </trkpt>
      <trkpt lat="39.820414000" lon="-8.432516000">
        <ele>208.000000</ele>
        <time>2020-10-17T11:27:20Z</time>
      </trkpt>
      <trkpt lat="39.820339000" lon="-8.432389000">
        <ele>208.000000</ele>
        <time>2020-10-17T11:27:22Z</time>
      </trkpt>
      <trkpt lat="39.820298000" lon="-8.432325000">
        <ele>208.000000</ele>
        <time>2020-10-17T11:27:23Z</time>
      </trkpt>
      <trkpt lat="39.820094000" lon="-8.431949000">
        <ele>207.800000</ele>
        <time>2020-10-17T11:27:28Z</time>
      </trkpt>
      <trkpt lat="39.820059000" lon="-8.431881000">
        <ele>207.600000</ele>
        <time>2020-10-17T11:27:29Z</time>
      </trkpt>
      <trkpt lat="39.820023000" lon="-8.431823000">
        <ele>207.200000</ele>
        <time>2020-10-17T11:27:30Z</time>
      </trkpt>
      <trkpt lat="39.819983000" lon="-8.431772000">
        <ele>206.800000</ele>
        <time>2020-10-17T11:27:31Z</time>
      </trkpt>
      <trkpt lat="39.819935000" lon="-8.431726000">
        <ele>206.400000</ele>
        <time>2020-10-17T11:27:32Z</time>
      </trkpt>
      <trkpt lat="39.819829000" lon="-8.431647000">
        <ele>206.400000</ele>
        <time>2020-10-17T11:27:34Z</time>
      </trkpt>
      <trkpt lat="39.819653000" lon="-8.431545000">
        <ele>205.800000</ele>
        <time>2020-10-17T11:27:37Z</time>
      </trkpt>
      <trkpt lat="39.819599000" lon="-8.431513000">
        <ele>205.600000</ele>
        <time>2020-10-17T11:27:38Z</time>
      </trkpt>
      <trkpt lat="39.819486000" lon="-8.431432000">
        <ele>205.400000</ele>
        <time>2020-10-17T11:27:40Z</time>
      </trkpt>
      <trkpt lat="39.819375000" lon="-8.431349000">
        <ele>205.000000</ele>
        <time>2020-10-17T11:27:42Z</time>
      </trkpt>
      <trkpt lat="39.819318000" lon="-8.431319000">
        <ele>204.800000</ele>
        <time>2020-10-17T11:27:43Z</time>
      </trkpt>
      <trkpt lat="39.819076000" lon="-8.431222000">
        <ele>203.800000</ele>
        <time>2020-10-17T11:27:47Z</time>
      </trkpt>
      <trkpt lat="39.819022000" lon="-8.431201000">
        <ele>203.800000</ele>
        <time>2020-10-17T11:27:48Z</time>
      </trkpt>
      <trkpt lat="39.818965000" lon="-8.431182000">
        <ele>203.800000</ele>
        <time>2020-10-17T11:27:49Z</time>
      </trkpt>
      <trkpt lat="39.818907000" lon="-8.431167000">
        <ele>203.600000</ele>
        <time>2020-10-17T11:27:50Z</time>
      </trkpt>
      <trkpt lat="39.818734000" lon="-8.431118000">
        <ele>203.400000</ele>
        <time>2020-10-17T11:27:53Z</time>
      </trkpt>
      <trkpt lat="39.818680000" lon="-8.431101000">
        <ele>203.400000</ele>
        <time>2020-10-17T11:27:54Z</time>
      </trkpt>
      <trkpt lat="39.818629000" lon="-8.431086000">
        <ele>203.200000</ele>
        <time>2020-10-17T11:27:55Z</time>
      </trkpt>
      <trkpt lat="39.818579000" lon="-8.431070000">
        <ele>203.400000</ele>
        <time>2020-10-17T11:27:56Z</time>
      </trkpt>
      <trkpt lat="39.818528000" lon="-8.431054000">
        <ele>203.200000</ele>
        <time>2020-10-17T11:27:57Z</time>
      </trkpt>
      <trkpt lat="39.818358000" lon="-8.430997000">
        <ele>203.400000</ele>
        <time>2020-10-17T11:28:00Z</time>
      </trkpt>
      <trkpt lat="39.818171000" lon="-8.430944000">
        <ele>203.600000</ele>
        <time>2020-10-17T11:28:03Z</time>
      </trkpt>
      <trkpt lat="39.818044000" lon="-8.430975000">
        <ele>203.600000</ele>
        <time>2020-10-17T11:28:05Z</time>
      </trkpt>
      <trkpt lat="39.817982000" lon="-8.430989000">
        <ele>203.600000</ele>
        <time>2020-10-17T11:28:06Z</time>
      </trkpt>
      <trkpt lat="39.817923000" lon="-8.430984000">
        <ele>203.600000</ele>
        <time>2020-10-17T11:28:07Z</time>
      </trkpt>
      <trkpt lat="39.817865000" lon="-8.430963000">
        <ele>203.800000</ele>
        <time>2020-10-17T11:28:08Z</time>
      </trkpt>
      <trkpt lat="39.817810000" lon="-8.430929000">
        <ele>203.600000</ele>
        <time>2020-10-17T11:28:09Z</time>
      </trkpt>
      <trkpt lat="39.817754000" lon="-8.430894000">
        <ele>203.600000</ele>
        <time>2020-10-17T11:28:10Z</time>
      </trkpt>
      <trkpt lat="39.817695000" lon="-8.430867000">
        <ele>203.800000</ele>
        <time>2020-10-17T11:28:11Z</time>
      </trkpt>
      <trkpt lat="39.817631000" lon="-8.430844000">
        <ele>203.600000</ele>
        <time>2020-10-17T11:28:12Z</time>
      </trkpt>
      <trkpt lat="39.817565000" lon="-8.430820000">
        <ele>203.600000</ele>
        <time>2020-10-17T11:28:13Z</time>
      </trkpt>
      <trkpt lat="39.817500000" lon="-8.430791000">
        <ele>203.600000</ele>
        <time>2020-10-17T11:28:14Z</time>
      </trkpt>
      <trkpt lat="39.817315000" lon="-8.430661000">
        <ele>202.800000</ele>
        <time>2020-10-17T11:28:17Z</time>
      </trkpt>
      <trkpt lat="39.817260000" lon="-8.430610000">
        <ele>202.400000</ele>
        <time>2020-10-17T11:28:18Z</time>
      </trkpt>
      <trkpt lat="39.817209000" lon="-8.430559000">
        <ele>202.400000</ele>
        <time>2020-10-17T11:28:19Z</time>
      </trkpt>
      <trkpt lat="39.817159000" lon="-8.430508000">
        <ele>202.000000</ele>
        <time>2020-10-17T11:28:20Z</time>
      </trkpt>
      <trkpt lat="39.817111000" lon="-8.430461000">
        <ele>202.200000</ele>
        <time>2020-10-17T11:28:21Z</time>
      </trkpt>
      <trkpt lat="39.817062000" lon="-8.430420000">
        <ele>201.800000</ele>
        <time>2020-10-17T11:28:22Z</time>
      </trkpt>
      <trkpt lat="39.817010000" lon="-8.430392000">
        <ele>201.800000</ele>
        <time>2020-10-17T11:28:23Z</time>
      </trkpt>
      <trkpt lat="39.816951000" lon="-8.430379000">
        <ele>201.800000</ele>
        <time>2020-10-17T11:28:24Z</time>
      </trkpt>
      <trkpt lat="39.816888000" lon="-8.430380000">
        <ele>201.600000</ele>
        <time>2020-10-17T11:28:25Z</time>
      </trkpt>
      <trkpt lat="39.816819000" lon="-8.430391000">
        <ele>201.600000</ele>
        <time>2020-10-17T11:28:26Z</time>
      </trkpt>
      <trkpt lat="39.816747000" lon="-8.430404000">
        <ele>201.400000</ele>
        <time>2020-10-17T11:28:27Z</time>
      </trkpt>
      <trkpt lat="39.816519000" lon="-8.430447000">
        <ele>201.200000</ele>
        <time>2020-10-17T11:28:30Z</time>
      </trkpt>
      <trkpt lat="39.816450000" lon="-8.430450000">
        <ele>201.200000</ele>
        <time>2020-10-17T11:28:31Z</time>
      </trkpt>
      <trkpt lat="39.816388000" lon="-8.430431000">
        <ele>201.200000</ele>
        <time>2020-10-17T11:28:32Z</time>
      </trkpt>
      <trkpt lat="39.816348000" lon="-8.430382000">
        <ele>201.000000</ele>
        <time>2020-10-17T11:28:33Z</time>
      </trkpt>
      <trkpt lat="39.816314000" lon="-8.430324000">
        <ele>201.000000</ele>
        <time>2020-10-17T11:28:34Z</time>
      </trkpt>
      <trkpt lat="39.816280000" lon="-8.430267000">
        <ele>200.800000</ele>
        <time>2020-10-17T11:28:35Z</time>
      </trkpt>
      <trkpt lat="39.816246000" lon="-8.430211000">
        <ele>200.600000</ele>
        <time>2020-10-17T11:28:36Z</time>
      </trkpt>
      <trkpt lat="39.816213000" lon="-8.430158000">
        <ele>200.600000</ele>
        <time>2020-10-17T11:28:37Z</time>
      </trkpt>
      <trkpt lat="39.816179000" lon="-8.430109000">
        <ele>200.600000</ele>
        <time>2020-10-17T11:28:38Z</time>
      </trkpt>
      <trkpt lat="39.816148000" lon="-8.430059000">
        <ele>200.600000</ele>
        <time>2020-10-17T11:28:39Z</time>
      </trkpt>
      <trkpt lat="39.816117000" lon="-8.430008000">
        <ele>200.600000</ele>
        <time>2020-10-17T11:28:40Z</time>
      </trkpt>
      <trkpt lat="39.816085000" lon="-8.429960000">
        <ele>200.800000</ele>
        <time>2020-10-17T11:28:41Z</time>
      </trkpt>
      <trkpt lat="39.816062000" lon="-8.429915000">
        <ele>200.800000</ele>
        <time>2020-10-17T11:28:42Z</time>
      </trkpt>
      <trkpt lat="39.816034000" lon="-8.429869000">
        <ele>200.800000</ele>
        <time>2020-10-17T11:28:43Z</time>
      </trkpt>
      <trkpt lat="39.816008000" lon="-8.429819000">
        <ele>200.800000</ele>
        <time>2020-10-17T11:28:44Z</time>
      </trkpt>
      <trkpt lat="39.815984000" lon="-8.429771000">
        <ele>201.000000</ele>
        <time>2020-10-17T11:28:45Z</time>
      </trkpt>
      <trkpt lat="39.815954000" lon="-8.429717000">
        <ele>200.800000</ele>
        <time>2020-10-17T11:28:46Z</time>
      </trkpt>
      <trkpt lat="39.815866000" lon="-8.429569000">
        <ele>201.200000</ele>
        <time>2020-10-17T11:28:49Z</time>
      </trkpt>
      <trkpt lat="39.815825000" lon="-8.429523000">
        <ele>201.400000</ele>
        <time>2020-10-17T11:28:50Z</time>
      </trkpt>
      <trkpt lat="39.815783000" lon="-8.429490000">
        <ele>201.600000</ele>
        <time>2020-10-17T11:28:51Z</time>
      </trkpt>
      <trkpt lat="39.815737000" lon="-8.429476000">
        <ele>201.600000</ele>
        <time>2020-10-17T11:28:52Z</time>
      </trkpt>
      <trkpt lat="39.815687000" lon="-8.429478000">
        <ele>201.600000</ele>
        <time>2020-10-17T11:28:53Z</time>
      </trkpt>
      <trkpt lat="39.815578000" lon="-8.429511000">
        <ele>201.600000</ele>
        <time>2020-10-17T11:28:55Z</time>
      </trkpt>
      <trkpt lat="39.815523000" lon="-8.429532000">
        <ele>201.800000</ele>
        <time>2020-10-17T11:28:56Z</time>
      </trkpt>
      <trkpt lat="39.815476000" lon="-8.429554000">
        <ele>201.800000</ele>
        <time>2020-10-17T11:28:57Z</time>
      </trkpt>
      <trkpt lat="39.815439000" lon="-8.429574000">
        <ele>201.600000</ele>
        <time>2020-10-17T11:28:58Z</time>
      </trkpt>
      <trkpt lat="39.815418000" lon="-8.429604000">
        <ele>201.800000</ele>
        <time>2020-10-17T11:28:59Z</time>
      </trkpt>
      <trkpt lat="39.815402000" lon="-8.429636000">
        <ele>201.800000</ele>
        <time>2020-10-17T11:29:00Z</time>
      </trkpt>
      <trkpt lat="39.815392000" lon="-8.429672000">
        <ele>201.800000</ele>
        <time>2020-10-17T11:29:01Z</time>
      </trkpt>
      <trkpt lat="39.815385000" lon="-8.429714000">
        <ele>201.600000</ele>
        <time>2020-10-17T11:29:02Z</time>
      </trkpt>
      <trkpt lat="39.815371000" lon="-8.429811000">
        <ele>201.400000</ele>
        <time>2020-10-17T11:29:04Z</time>
      </trkpt>
      <trkpt lat="39.815332000" lon="-8.430012000">
        <ele>201.200000</ele>
        <time>2020-10-17T11:29:07Z</time>
      </trkpt>
      <trkpt lat="39.815307000" lon="-8.430083000">
        <ele>200.800000</ele>
        <time>2020-10-17T11:29:08Z</time>
      </trkpt>
      <trkpt lat="39.815272000" lon="-8.430153000">
        <ele>200.400000</ele>
        <time>2020-10-17T11:29:09Z</time>
      </trkpt>
      <trkpt lat="39.815203000" lon="-8.430286000">
        <ele>200.200000</ele>
        <time>2020-10-17T11:29:11Z</time>
      </trkpt>
      <trkpt lat="39.815173000" lon="-8.430364000">
        <ele>199.800000</ele>
        <time>2020-10-17T11:29:12Z</time>
      </trkpt>
      <trkpt lat="39.815151000" lon="-8.430443000">
        <ele>199.600000</ele>
        <time>2020-10-17T11:29:13Z</time>
      </trkpt>
      <trkpt lat="39.815130000" lon="-8.430523000">
        <ele>199.600000</ele>
        <time>2020-10-17T11:29:14Z</time>
      </trkpt>
      <trkpt lat="39.815099000" lon="-8.430589000">
        <ele>199.800000</ele>
        <time>2020-10-17T11:29:15Z</time>
      </trkpt>
      <trkpt lat="39.815052000" lon="-8.430644000">
        <ele>199.600000</ele>
        <time>2020-10-17T11:29:16Z</time>
      </trkpt>
      <trkpt lat="39.815001000" lon="-8.430690000">
        <ele>199.400000</ele>
        <time>2020-10-17T11:29:17Z</time>
      </trkpt>
      <trkpt lat="39.814941000" lon="-8.430731000">
        <ele>199.000000</ele>
        <time>2020-10-17T11:29:18Z</time>
      </trkpt>
      <trkpt lat="39.814876000" lon="-8.430765000">
        <ele>198.600000</ele>
        <time>2020-10-17T11:29:19Z</time>
      </trkpt>
      <trkpt lat="39.814812000" lon="-8.430787000">
        <ele>198.400000</ele>
        <time>2020-10-17T11:29:20Z</time>
      </trkpt>
      <trkpt lat="39.814751000" lon="-8.430794000">
        <ele>198.000000</ele>
        <time>2020-10-17T11:29:21Z</time>
      </trkpt>
      <trkpt lat="39.814689000" lon="-8.430787000">
        <ele>197.600000</ele>
        <time>2020-10-17T11:29:22Z</time>
      </trkpt>
      <trkpt lat="39.814628000" lon="-8.430773000">
        <ele>197.200000</ele>
        <time>2020-10-17T11:29:23Z</time>
      </trkpt>
      <trkpt lat="39.814566000" lon="-8.430754000">
        <ele>196.800000</ele>
        <time>2020-10-17T11:29:24Z</time>
      </trkpt>
      <trkpt lat="39.814196000" lon="-8.430658000">
        <ele>194.800000</ele>
        <time>2020-10-17T11:29:30Z</time>
      </trkpt>
      <trkpt lat="39.814133000" lon="-8.430663000">
        <ele>194.600000</ele>
        <time>2020-10-17T11:29:31Z</time>
      </trkpt>
      <trkpt lat="39.814071000" lon="-8.430675000">
        <ele>194.400000</ele>
        <time>2020-10-17T11:29:32Z</time>
      </trkpt>
      <trkpt lat="39.814012000" lon="-8.430696000">
        <ele>194.200000</ele>
        <time>2020-10-17T11:29:33Z</time>
      </trkpt>
      <trkpt lat="39.813958000" lon="-8.430722000">
        <ele>194.200000</ele>
        <time>2020-10-17T11:29:34Z</time>
      </trkpt>
      <trkpt lat="39.813914000" lon="-8.430749000">
        <ele>194.200000</ele>
        <time>2020-10-17T11:29:35Z</time>
      </trkpt>
      <trkpt lat="39.813877000" lon="-8.430774000">
        <ele>194.200000</ele>
        <time>2020-10-17T11:29:36Z</time>
      </trkpt>
      <trkpt lat="39.813845000" lon="-8.430795000">
        <ele>194.000000</ele>
        <time>2020-10-17T11:29:37Z</time>
      </trkpt>
      <trkpt lat="39.813822000" lon="-8.430810000">
        <ele>194.000000</ele>
        <time>2020-10-17T11:29:38Z</time>
      </trkpt>
      <trkpt lat="39.813803000" lon="-8.430821000">
        <ele>193.600000</ele>
        <time>2020-10-17T11:29:39Z</time>
      </trkpt>
      <trkpt lat="39.813789000" lon="-8.430828000">
        <ele>193.600000</ele>
        <time>2020-10-17T11:29:40Z</time>
      </trkpt>
      <trkpt lat="39.813776000" lon="-8.430843000">
        <ele>193.400000</ele>
        <time>2020-10-17T11:29:41Z</time>
      </trkpt>
      <trkpt lat="39.813765000" lon="-8.430866000">
        <ele>193.400000</ele>
        <time>2020-10-17T11:29:42Z</time>
      </trkpt>
      <trkpt lat="39.813759000" lon="-8.430896000">
        <ele>193.400000</ele>
        <time>2020-10-17T11:29:43Z</time>
      </trkpt>
      <trkpt lat="39.813739000" lon="-8.430976000">
        <ele>193.200000</ele>
        <time>2020-10-17T11:29:45Z</time>
      </trkpt>
      <trkpt lat="39.813667000" lon="-8.431125000">
        <ele>193.000000</ele>
        <time>2020-10-17T11:29:48Z</time>
      </trkpt>
      <trkpt lat="39.813639000" lon="-8.431186000">
        <ele>193.200000</ele>
        <time>2020-10-17T11:29:49Z</time>
      </trkpt>
      <trkpt lat="39.813609000" lon="-8.431250000">
        <ele>193.000000</ele>
        <time>2020-10-17T11:29:50Z</time>
      </trkpt>
      <trkpt lat="39.813580000" lon="-8.431316000">
        <ele>193.000000</ele>
        <time>2020-10-17T11:29:51Z</time>
      </trkpt>
      <trkpt lat="39.813536000" lon="-8.431463000">
        <ele>193.000000</ele>
        <time>2020-10-17T11:29:53Z</time>
      </trkpt>
      <trkpt lat="39.813519000" lon="-8.431537000">
        <ele>193.000000</ele>
        <time>2020-10-17T11:29:54Z</time>
      </trkpt>
      <trkpt lat="39.813503000" lon="-8.431610000">
        <ele>193.000000</ele>
        <time>2020-10-17T11:29:55Z</time>
      </trkpt>
      <trkpt lat="39.813485000" lon="-8.431682000">
        <ele>192.400000</ele>
        <time>2020-10-17T11:29:56Z</time>
      </trkpt>
      <trkpt lat="39.813458000" lon="-8.431749000">
        <ele>192.400000</ele>
        <time>2020-10-17T11:29:57Z</time>
      </trkpt>
      <trkpt lat="39.813419000" lon="-8.431813000">
        <ele>192.000000</ele>
        <time>2020-10-17T11:29:58Z</time>
      </trkpt>
      <trkpt lat="39.813383000" lon="-8.431872000">
        <ele>191.400000</ele>
        <time>2020-10-17T11:29:59Z</time>
      </trkpt>
      <trkpt lat="39.813346000" lon="-8.431929000">
        <ele>191.000000</ele>
        <time>2020-10-17T11:30:00Z</time>
      </trkpt>
      <trkpt lat="39.813309000" lon="-8.431985000">
        <ele>190.800000</ele>
        <time>2020-10-17T11:30:01Z</time>
      </trkpt>
      <trkpt lat="39.813272000" lon="-8.432048000">
        <ele>190.200000</ele>
        <time>2020-10-17T11:30:02Z</time>
      </trkpt>
      <trkpt lat="39.813177000" lon="-8.432251000">
        <ele>189.600000</ele>
        <time>2020-10-17T11:30:05Z</time>
      </trkpt>
      <trkpt lat="39.813146000" lon="-8.432311000">
        <ele>189.200000</ele>
        <time>2020-10-17T11:30:06Z</time>
      </trkpt>
      <trkpt lat="39.813110000" lon="-8.432367000">
        <ele>189.000000</ele>
        <time>2020-10-17T11:30:07Z</time>
      </trkpt>
      <trkpt lat="39.813065000" lon="-8.432413000">
        <ele>188.800000</ele>
        <time>2020-10-17T11:30:08Z</time>
      </trkpt>
      <trkpt lat="39.813015000" lon="-8.432441000">
        <ele>188.600000</ele>
        <time>2020-10-17T11:30:09Z</time>
      </trkpt>
      <trkpt lat="39.812960000" lon="-8.432463000">
        <ele>188.200000</ele>
        <time>2020-10-17T11:30:10Z</time>
      </trkpt>
      <trkpt lat="39.812910000" lon="-8.432482000">
        <ele>188.000000</ele>
        <time>2020-10-17T11:30:11Z</time>
      </trkpt>
      <trkpt lat="39.812864000" lon="-8.432509000">
        <ele>187.800000</ele>
        <time>2020-10-17T11:30:12Z</time>
      </trkpt>
      <trkpt lat="39.812824000" lon="-8.432547000">
        <ele>187.600000</ele>
        <time>2020-10-17T11:30:13Z</time>
      </trkpt>
      <trkpt lat="39.812795000" lon="-8.432602000">
        <ele>187.400000</ele>
        <time>2020-10-17T11:30:14Z</time>
      </trkpt>
      <trkpt lat="39.812774000" lon="-8.432664000">
        <ele>186.800000</ele>
        <time>2020-10-17T11:30:15Z</time>
      </trkpt>
      <trkpt lat="39.812761000" lon="-8.432733000">
        <ele>186.400000</ele>
        <time>2020-10-17T11:30:16Z</time>
      </trkpt>
      <trkpt lat="39.812744000" lon="-8.432805000">
        <ele>186.200000</ele>
        <time>2020-10-17T11:30:17Z</time>
      </trkpt>
      <trkpt lat="39.812729000" lon="-8.432879000">
        <ele>186.200000</ele>
        <time>2020-10-17T11:30:18Z</time>
      </trkpt>
      <trkpt lat="39.812671000" lon="-8.433100000">
        <ele>185.800000</ele>
        <time>2020-10-17T11:30:21Z</time>
      </trkpt>
      <trkpt lat="39.812648000" lon="-8.433170000">
        <ele>185.600000</ele>
        <time>2020-10-17T11:30:22Z</time>
      </trkpt>
      <trkpt lat="39.812623000" lon="-8.433239000">
        <ele>185.600000</ele>
        <time>2020-10-17T11:30:23Z</time>
      </trkpt>
      <trkpt lat="39.812581000" lon="-8.433377000">
        <ele>185.600000</ele>
        <time>2020-10-17T11:30:25Z</time>
      </trkpt>
      <trkpt lat="39.812523000" lon="-8.433592000">
        <ele>185.400000</ele>
        <time>2020-10-17T11:30:28Z</time>
      </trkpt>
      <trkpt lat="39.812508000" lon="-8.433657000">
        <ele>185.400000</ele>
        <time>2020-10-17T11:30:29Z</time>
      </trkpt>
      <trkpt lat="39.812492000" lon="-8.433719000">
        <ele>185.200000</ele>
        <time>2020-10-17T11:30:30Z</time>
      </trkpt>
      <trkpt lat="39.812478000" lon="-8.433780000">
        <ele>185.400000</ele>
        <time>2020-10-17T11:30:31Z</time>
      </trkpt>
      <trkpt lat="39.812464000" lon="-8.433839000">
        <ele>185.400000</ele>
        <time>2020-10-17T11:30:32Z</time>
      </trkpt>
      <trkpt lat="39.812448000" lon="-8.433898000">
        <ele>185.600000</ele>
        <time>2020-10-17T11:30:33Z</time>
      </trkpt>
      <trkpt lat="39.812434000" lon="-8.433952000">
        <ele>185.400000</ele>
        <time>2020-10-17T11:30:34Z</time>
      </trkpt>
      <trkpt lat="39.812420000" lon="-8.434003000">
        <ele>185.600000</ele>
        <time>2020-10-17T11:30:35Z</time>
      </trkpt>
      <trkpt lat="39.812417000" lon="-8.434056000">
        <ele>185.800000</ele>
        <time>2020-10-17T11:30:36Z</time>
      </trkpt>
      <trkpt lat="39.812406000" lon="-8.434102000">
        <ele>185.800000</ele>
        <time>2020-10-17T11:30:37Z</time>
      </trkpt>
      <trkpt lat="39.812392000" lon="-8.434149000">
        <ele>186.000000</ele>
        <time>2020-10-17T11:30:38Z</time>
      </trkpt>
      <trkpt lat="39.812370000" lon="-8.434243000">
        <ele>186.000000</ele>
        <time>2020-10-17T11:30:40Z</time>
      </trkpt>
      <trkpt lat="39.812367000" lon="-8.434289000">
        <ele>186.000000</ele>
        <time>2020-10-17T11:30:41Z</time>
      </trkpt>
      <trkpt lat="39.812356000" lon="-8.434333000">
        <ele>186.400000</ele>
        <time>2020-10-17T11:30:42Z</time>
      </trkpt>
      <trkpt lat="39.812350000" lon="-8.434371000">
        <ele>186.600000</ele>
        <time>2020-10-17T11:30:43Z</time>
      </trkpt>
      <trkpt lat="39.812350000" lon="-8.434410000">
        <ele>186.800000</ele>
        <time>2020-10-17T11:30:44Z</time>
      </trkpt>
      <trkpt lat="39.812352000" lon="-8.434448000">
        <ele>187.000000</ele>
        <time>2020-10-17T11:30:45Z</time>
      </trkpt>
      <trkpt lat="39.812358000" lon="-8.434485000">
        <ele>187.200000</ele>
        <time>2020-10-17T11:30:46Z</time>
      </trkpt>
      <trkpt lat="39.812369000" lon="-8.434521000">
        <ele>187.600000</ele>
        <time>2020-10-17T11:30:47Z</time>
      </trkpt>
      <trkpt lat="39.812383000" lon="-8.434561000">
        <ele>187.800000</ele>
        <time>2020-10-17T11:30:48Z</time>
      </trkpt>
      <trkpt lat="39.812398000" lon="-8.434604000">
        <ele>188.200000</ele>
        <time>2020-10-17T11:30:49Z</time>
      </trkpt>
      <trkpt lat="39.812413000" lon="-8.434645000">
        <ele>188.400000</ele>
        <time>2020-10-17T11:30:50Z</time>
      </trkpt>
      <trkpt lat="39.812430000" lon="-8.434690000">
        <ele>188.600000</ele>
        <time>2020-10-17T11:30:51Z</time>
      </trkpt>
      <trkpt lat="39.812449000" lon="-8.434736000">
        <ele>189.000000</ele>
        <time>2020-10-17T11:30:52Z</time>
      </trkpt>
      <trkpt lat="39.812471000" lon="-8.434782000">
        <ele>189.000000</ele>
        <time>2020-10-17T11:30:53Z</time>
      </trkpt>
      <trkpt lat="39.812492000" lon="-8.434823000">
        <ele>189.200000</ele>
        <time>2020-10-17T11:30:54Z</time>
      </trkpt>
      <trkpt lat="39.812511000" lon="-8.434868000">
        <ele>189.400000</ele>
        <time>2020-10-17T11:30:55Z</time>
      </trkpt>
      <trkpt lat="39.812529000" lon="-8.434913000">
        <ele>189.600000</ele>
        <time>2020-10-17T11:30:56Z</time>
      </trkpt>
      <trkpt lat="39.812545000" lon="-8.434957000">
        <ele>189.600000</ele>
        <time>2020-10-17T11:30:57Z</time>
      </trkpt>
      <trkpt lat="39.812564000" lon="-8.435000000">
        <ele>189.800000</ele>
        <time>2020-10-17T11:30:58Z</time>
      </trkpt>
      <trkpt lat="39.812583000" lon="-8.435041000">
        <ele>190.000000</ele>
        <time>2020-10-17T11:30:59Z</time>
      </trkpt>
      <trkpt lat="39.812604000" lon="-8.435080000">
        <ele>190.000000</ele>
        <time>2020-10-17T11:31:00Z</time>
      </trkpt>
      <trkpt lat="39.812627000" lon="-8.435121000">
        <ele>190.200000</ele>
        <time>2020-10-17T11:31:01Z</time>
      </trkpt>
      <trkpt lat="39.812644000" lon="-8.435160000">
        <ele>190.400000</ele>
        <time>2020-10-17T11:31:02Z</time>
      </trkpt>
      <trkpt lat="39.812665000" lon="-8.435198000">
        <ele>190.400000</ele>
        <time>2020-10-17T11:31:03Z</time>
      </trkpt>
      <trkpt lat="39.812689000" lon="-8.435234000">
        <ele>190.400000</ele>
        <time>2020-10-17T11:31:04Z</time>
      </trkpt>
      <trkpt lat="39.812714000" lon="-8.435272000">
        <ele>190.400000</ele>
        <time>2020-10-17T11:31:05Z</time>
      </trkpt>
      <trkpt lat="39.812737000" lon="-8.435310000">
        <ele>190.400000</ele>
        <time>2020-10-17T11:31:06Z</time>
      </trkpt>
      <trkpt lat="39.812761000" lon="-8.435350000">
        <ele>190.400000</ele>
        <time>2020-10-17T11:31:07Z</time>
      </trkpt>
      <trkpt lat="39.812784000" lon="-8.435392000">
        <ele>190.600000</ele>
        <time>2020-10-17T11:31:08Z</time>
      </trkpt>
      <trkpt lat="39.812808000" lon="-8.435432000">
        <ele>191.200000</ele>
        <time>2020-10-17T11:31:09Z</time>
      </trkpt>
      <trkpt lat="39.812829000" lon="-8.435469000">
        <ele>191.400000</ele>
        <time>2020-10-17T11:31:10Z</time>
      </trkpt>
      <trkpt lat="39.812852000" lon="-8.435506000">
        <ele>191.800000</ele>
        <time>2020-10-17T11:31:11Z</time>
      </trkpt>
      <trkpt lat="39.812876000" lon="-8.435543000">
        <ele>191.800000</ele>
        <time>2020-10-17T11:31:12Z</time>
      </trkpt>
      <trkpt lat="39.812903000" lon="-8.435581000">
        <ele>192.000000</ele>
        <time>2020-10-17T11:31:13Z</time>
      </trkpt>
      <trkpt lat="39.812931000" lon="-8.435618000">
        <ele>192.000000</ele>
        <time>2020-10-17T11:31:14Z</time>
      </trkpt>
      <trkpt lat="39.812959000" lon="-8.435655000">
        <ele>192.000000</ele>
        <time>2020-10-17T11:31:15Z</time>
      </trkpt>
      <trkpt lat="39.812990000" lon="-8.435692000">
        <ele>192.000000</ele>
        <time>2020-10-17T11:31:16Z</time>
      </trkpt>
      <trkpt lat="39.813019000" lon="-8.435729000">
        <ele>192.200000</ele>
        <time>2020-10-17T11:31:17Z</time>
      </trkpt>
      <trkpt lat="39.813046000" lon="-8.435769000">
        <ele>192.400000</ele>
        <time>2020-10-17T11:31:18Z</time>
      </trkpt>
      <trkpt lat="39.813070000" lon="-8.435810000">
        <ele>192.800000</ele>
        <time>2020-10-17T11:31:19Z</time>
      </trkpt>
      <trkpt lat="39.813096000" lon="-8.435854000">
        <ele>192.800000</ele>
        <time>2020-10-17T11:31:20Z</time>
      </trkpt>
      <trkpt lat="39.813119000" lon="-8.435905000">
        <ele>192.800000</ele>
        <time>2020-10-17T11:31:21Z</time>
      </trkpt>
      <trkpt lat="39.813140000" lon="-8.435958000">
        <ele>192.800000</ele>
        <time>2020-10-17T11:31:22Z</time>
      </trkpt>
      <trkpt lat="39.813156000" lon="-8.436015000">
        <ele>192.800000</ele>
        <time>2020-10-17T11:31:23Z</time>
      </trkpt>
      <trkpt lat="39.813167000" lon="-8.436075000">
        <ele>193.000000</ele>
        <time>2020-10-17T11:31:24Z</time>
      </trkpt>
      <trkpt lat="39.813177000" lon="-8.436136000">
        <ele>193.000000</ele>
        <time>2020-10-17T11:31:25Z</time>
      </trkpt>
      <trkpt lat="39.813187000" lon="-8.436198000">
        <ele>193.200000</ele>
        <time>2020-10-17T11:31:26Z</time>
      </trkpt>
      <trkpt lat="39.813196000" lon="-8.436263000">
        <ele>193.400000</ele>
        <time>2020-10-17T11:31:27Z</time>
      </trkpt>
      <trkpt lat="39.813212000" lon="-8.436332000">
        <ele>193.400000</ele>
        <time>2020-10-17T11:31:28Z</time>
      </trkpt>
      <trkpt lat="39.813230000" lon="-8.436402000">
        <ele>193.400000</ele>
        <time>2020-10-17T11:31:29Z</time>
      </trkpt>
      <trkpt lat="39.813261000" lon="-8.436476000">
        <ele>193.600000</ele>
        <time>2020-10-17T11:31:30Z</time>
      </trkpt>
      <trkpt lat="39.813298000" lon="-8.436542000">
        <ele>193.600000</ele>
        <time>2020-10-17T11:31:31Z</time>
      </trkpt>
      <trkpt lat="39.813339000" lon="-8.436608000">
        <ele>193.600000</ele>
        <time>2020-10-17T11:31:32Z</time>
      </trkpt>
      <trkpt lat="39.813413000" lon="-8.436762000">
        <ele>193.600000</ele>
        <time>2020-10-17T11:31:34Z</time>
      </trkpt>
      <trkpt lat="39.813442000" lon="-8.436857000">
        <ele>193.800000</ele>
        <time>2020-10-17T11:31:35Z</time>
      </trkpt>
      <trkpt lat="39.813472000" lon="-8.436960000">
        <ele>193.600000</ele>
        <time>2020-10-17T11:31:36Z</time>
      </trkpt>
      <trkpt lat="39.813511000" lon="-8.437058000">
        <ele>193.600000</ele>
        <time>2020-10-17T11:31:37Z</time>
      </trkpt>
      <trkpt lat="39.813562000" lon="-8.437150000">
        <ele>193.600000</ele>
        <time>2020-10-17T11:31:38Z</time>
      </trkpt>
      <trkpt lat="39.813618000" lon="-8.437237000">
        <ele>192.800000</ele>
        <time>2020-10-17T11:31:39Z</time>
      </trkpt>
      <trkpt lat="39.813678000" lon="-8.437318000">
        <ele>192.200000</ele>
        <time>2020-10-17T11:31:40Z</time>
      </trkpt>
      <trkpt lat="39.813876000" lon="-8.437546000">
        <ele>191.800000</ele>
        <time>2020-10-17T11:31:43Z</time>
      </trkpt>
      <trkpt lat="39.813925000" lon="-8.437614000">
        <ele>191.400000</ele>
        <time>2020-10-17T11:31:44Z</time>
      </trkpt>
      <trkpt lat="39.813972000" lon="-8.437683000">
        <ele>190.600000</ele>
        <time>2020-10-17T11:31:45Z</time>
      </trkpt>
      <trkpt lat="39.814010000" lon="-8.437751000">
        <ele>189.800000</ele>
        <time>2020-10-17T11:31:46Z</time>
      </trkpt>
      <trkpt lat="39.814046000" lon="-8.437811000">
        <ele>189.200000</ele>
        <time>2020-10-17T11:31:47Z</time>
      </trkpt>
      <trkpt lat="39.814076000" lon="-8.437856000">
        <ele>188.200000</ele>
        <time>2020-10-17T11:31:48Z</time>
      </trkpt>
      <trkpt lat="39.814103000" lon="-8.437896000">
        <ele>187.800000</ele>
        <time>2020-10-17T11:31:49Z</time>
      </trkpt>
      <trkpt lat="39.814115000" lon="-8.437930000">
        <ele>187.200000</ele>
        <time>2020-10-17T11:31:50Z</time>
      </trkpt>
      <trkpt lat="39.814120000" lon="-8.437956000">
        <ele>186.400000</ele>
        <time>2020-10-17T11:31:51Z</time>
      </trkpt>
      <trkpt lat="39.814113000" lon="-8.437973000">
        <ele>185.800000</ele>
        <time>2020-10-17T11:31:52Z</time>
      </trkpt>
      <trkpt lat="39.814093000" lon="-8.437981000">
        <ele>184.800000</ele>
        <time>2020-10-17T11:31:53Z</time>
      </trkpt>
      <trkpt lat="39.814065000" lon="-8.437980000">
        <ele>184.200000</ele>
        <time>2020-10-17T11:31:54Z</time>
      </trkpt>
      <trkpt lat="39.814037000" lon="-8.437971000">
        <ele>183.600000</ele>
        <time>2020-10-17T11:31:55Z</time>
      </trkpt>
      <trkpt lat="39.813973000" lon="-8.437944000">
        <ele>183.000000</ele>
        <time>2020-10-17T11:31:57Z</time>
      </trkpt>
      <trkpt lat="39.813935000" lon="-8.437932000">
        <ele>182.400000</ele>
        <time>2020-10-17T11:31:58Z</time>
      </trkpt>
      <trkpt lat="39.813829000" lon="-8.437909000">
        <ele>181.600000</ele>
        <time>2020-10-17T11:32:00Z</time>
      </trkpt>
      <trkpt lat="39.813710000" lon="-8.437895000">
        <ele>180.600000</ele>
        <time>2020-10-17T11:32:02Z</time>
      </trkpt>
      <trkpt lat="39.813564000" lon="-8.437884000">
        <ele>179.600000</ele>
        <time>2020-10-17T11:32:04Z</time>
      </trkpt>
      <trkpt lat="39.813486000" lon="-8.437884000">
        <ele>179.600000</ele>
        <time>2020-10-17T11:32:05Z</time>
      </trkpt>
      <trkpt lat="39.813415000" lon="-8.437888000">
        <ele>179.200000</ele>
        <time>2020-10-17T11:32:06Z</time>
      </trkpt>
      <trkpt lat="39.813354000" lon="-8.437894000">
        <ele>179.000000</ele>
        <time>2020-10-17T11:32:07Z</time>
      </trkpt>
      <trkpt lat="39.813298000" lon="-8.437903000">
        <ele>178.400000</ele>
        <time>2020-10-17T11:32:08Z</time>
      </trkpt>
      <trkpt lat="39.813170000" lon="-8.437950000">
        <ele>177.400000</ele>
        <time>2020-10-17T11:32:10Z</time>
      </trkpt>
      <trkpt lat="39.813096000" lon="-8.437973000">
        <ele>177.000000</ele>
        <time>2020-10-17T11:32:11Z</time>
      </trkpt>
      <trkpt lat="39.813021000" lon="-8.437984000">
        <ele>176.600000</ele>
        <time>2020-10-17T11:32:12Z</time>
      </trkpt>
      <trkpt lat="39.812948000" lon="-8.437983000">
        <ele>176.000000</ele>
        <time>2020-10-17T11:32:13Z</time>
      </trkpt>
      <trkpt lat="39.812880000" lon="-8.437975000">
        <ele>175.400000</ele>
        <time>2020-10-17T11:32:14Z</time>
      </trkpt>
      <trkpt lat="39.812738000" lon="-8.437947000">
        <ele>173.800000</ele>
        <time>2020-10-17T11:32:16Z</time>
      </trkpt>
      <trkpt lat="39.812669000" lon="-8.437936000">
        <ele>173.000000</ele>
        <time>2020-10-17T11:32:17Z</time>
      </trkpt>
      <trkpt lat="39.812605000" lon="-8.437925000">
        <ele>172.600000</ele>
        <time>2020-10-17T11:32:18Z</time>
      </trkpt>
      <trkpt lat="39.812546000" lon="-8.437914000">
        <ele>171.400000</ele>
        <time>2020-10-17T11:32:19Z</time>
      </trkpt>
      <trkpt lat="39.812495000" lon="-8.437897000">
        <ele>170.200000</ele>
        <time>2020-10-17T11:32:20Z</time>
      </trkpt>
      <trkpt lat="39.812449000" lon="-8.437876000">
        <ele>169.200000</ele>
        <time>2020-10-17T11:32:21Z</time>
      </trkpt>
      <trkpt lat="39.812408000" lon="-8.437853000">
        <ele>168.400000</ele>
        <time>2020-10-17T11:32:22Z</time>
      </trkpt>
      <trkpt lat="39.812374000" lon="-8.437832000">
        <ele>168.000000</ele>
        <time>2020-10-17T11:32:23Z</time>
      </trkpt>
      <trkpt lat="39.812344000" lon="-8.437814000">
        <ele>167.400000</ele>
        <time>2020-10-17T11:32:24Z</time>
      </trkpt>
      <trkpt lat="39.812322000" lon="-8.437806000">
        <ele>166.400000</ele>
        <time>2020-10-17T11:32:25Z</time>
      </trkpt>
      <trkpt lat="39.812307000" lon="-8.437808000">
        <ele>166.400000</ele>
        <time>2020-10-17T11:32:26Z</time>
      </trkpt>
      <trkpt lat="39.812297000" lon="-8.437819000">
        <ele>165.600000</ele>
        <time>2020-10-17T11:32:27Z</time>
      </trkpt>
      <trkpt lat="39.812289000" lon="-8.437833000">
        <ele>164.400000</ele>
        <time>2020-10-17T11:32:28Z</time>
      </trkpt>
      <trkpt lat="39.812283000" lon="-8.437853000">
        <ele>163.200000</ele>
        <time>2020-10-17T11:32:29Z</time>
      </trkpt>
      <trkpt lat="39.812274000" lon="-8.437879000">
        <ele>161.800000</ele>
        <time>2020-10-17T11:32:30Z</time>
      </trkpt>
      <trkpt lat="39.812189000" lon="-8.437976000">
        <ele>158.400000</ele>
        <time>2020-10-17T11:32:33Z</time>
      </trkpt>
      <trkpt lat="39.812150000" lon="-8.438002000">
        <ele>157.600000</ele>
        <time>2020-10-17T11:32:34Z</time>
      </trkpt>
      <trkpt lat="39.812114000" lon="-8.438022000">
        <ele>157.000000</ele>
        <time>2020-10-17T11:32:35Z</time>
      </trkpt>
      <trkpt lat="39.812091000" lon="-8.438044000">
        <ele>156.400000</ele>
        <time>2020-10-17T11:32:36Z</time>
      </trkpt>
      <trkpt lat="39.812075000" lon="-8.438069000">
        <ele>156.000000</ele>
        <time>2020-10-17T11:32:37Z</time>
      </trkpt>
      <trkpt lat="39.812061000" lon="-8.438099000">
        <ele>155.400000</ele>
        <time>2020-10-17T11:32:38Z</time>
      </trkpt>
      <trkpt lat="39.812048000" lon="-8.438127000">
        <ele>154.800000</ele>
        <time>2020-10-17T11:32:39Z</time>
      </trkpt>
      <trkpt lat="39.812037000" lon="-8.438156000">
        <ele>154.600000</ele>
        <time>2020-10-17T11:32:40Z</time>
      </trkpt>
      <trkpt lat="39.812027000" lon="-8.438184000">
        <ele>154.200000</ele>
        <time>2020-10-17T11:32:41Z</time>
      </trkpt>
      <trkpt lat="39.812016000" lon="-8.438212000">
        <ele>153.400000</ele>
        <time>2020-10-17T11:32:42Z</time>
      </trkpt>
      <trkpt lat="39.811997000" lon="-8.438281000">
        <ele>152.400000</ele>
        <time>2020-10-17T11:32:44Z</time>
      </trkpt>
      <trkpt lat="39.811962000" lon="-8.438403000">
        <ele>151.800000</ele>
        <time>2020-10-17T11:32:47Z</time>
      </trkpt>
      <trkpt lat="39.811952000" lon="-8.438442000">
        <ele>151.800000</ele>
        <time>2020-10-17T11:32:48Z</time>
      </trkpt>
      <trkpt lat="39.811941000" lon="-8.438475000">
        <ele>152.000000</ele>
        <time>2020-10-17T11:32:49Z</time>
      </trkpt>
      <trkpt lat="39.811935000" lon="-8.438499000">
        <ele>151.800000</ele>
        <time>2020-10-17T11:32:50Z</time>
      </trkpt>
      <trkpt lat="39.811932000" lon="-8.438516000">
        <ele>151.800000</ele>
        <time>2020-10-17T11:32:51Z</time>
      </trkpt>
      <trkpt lat="39.811926000" lon="-8.438523000">
        <ele>151.600000</ele>
        <time>2020-10-17T11:32:52Z</time>
      </trkpt>
      <trkpt lat="39.811920000" lon="-8.438534000">
        <ele>151.600000</ele>
        <time>2020-10-17T11:32:53Z</time>
      </trkpt>
      <trkpt lat="39.811922000" lon="-8.438542000">
        <ele>151.800000</ele>
        <time>2020-10-17T11:32:55Z</time>
      </trkpt>
      <trkpt lat="39.811798000" lon="-8.438672000">
        <ele>152.000000</ele>
        <time>2020-10-17T11:33:25Z</time>
      </trkpt>
      <trkpt lat="39.811771000" lon="-8.438691000">
        <ele>152.000000</ele>
        <time>2020-10-17T11:33:26Z</time>
      </trkpt>
      <trkpt lat="39.811741000" lon="-8.438711000">
        <ele>152.200000</ele>
        <time>2020-10-17T11:33:27Z</time>
      </trkpt>
      <trkpt lat="39.811681000" lon="-8.438799000">
        <ele>152.000000</ele>
        <time>2020-10-17T11:33:30Z</time>
      </trkpt>
      <trkpt lat="39.811667000" lon="-8.438828000">
        <ele>152.000000</ele>
        <time>2020-10-17T11:33:31Z</time>
      </trkpt>
      <trkpt lat="39.811577000" lon="-8.438966000">
        <ele>151.400000</ele>
        <time>2020-10-17T11:33:35Z</time>
      </trkpt>
      <trkpt lat="39.811532000" lon="-8.439044000">
        <ele>151.000000</ele>
        <time>2020-10-17T11:33:37Z</time>
      </trkpt>
      <trkpt lat="39.811509000" lon="-8.439075000">
        <ele>151.000000</ele>
        <time>2020-10-17T11:33:38Z</time>
      </trkpt>
      <trkpt lat="39.811425000" lon="-8.439180000">
        <ele>150.800000</ele>
        <time>2020-10-17T11:33:41Z</time>
      </trkpt>
      <trkpt lat="39.811389000" lon="-8.439210000">
        <ele>150.600000</ele>
        <time>2020-10-17T11:33:42Z</time>
      </trkpt>
      <trkpt lat="39.811297000" lon="-8.439302000">
        <ele>150.200000</ele>
        <time>2020-10-17T11:33:45Z</time>
      </trkpt>
      <trkpt lat="39.811276000" lon="-8.439340000">
        <ele>150.200000</ele>
        <time>2020-10-17T11:33:46Z</time>
      </trkpt>
      <trkpt lat="39.811266000" lon="-8.439381000">
        <ele>150.000000</ele>
        <time>2020-10-17T11:33:47Z</time>
      </trkpt>
      <trkpt lat="39.811257000" lon="-8.439418000">
        <ele>150.200000</ele>
        <time>2020-10-17T11:33:48Z</time>
      </trkpt>
      <trkpt lat="39.811249000" lon="-8.439461000">
        <ele>149.800000</ele>
        <time>2020-10-17T11:33:49Z</time>
      </trkpt>
      <trkpt lat="39.811239000" lon="-8.439501000">
        <ele>149.800000</ele>
        <time>2020-10-17T11:33:50Z</time>
      </trkpt>
      <trkpt lat="39.811232000" lon="-8.439543000">
        <ele>149.800000</ele>
        <time>2020-10-17T11:33:51Z</time>
      </trkpt>
      <trkpt lat="39.811219000" lon="-8.439579000">
        <ele>149.600000</ele>
        <time>2020-10-17T11:33:52Z</time>
      </trkpt>
      <trkpt lat="39.811211000" lon="-8.439610000">
        <ele>149.400000</ele>
        <time>2020-10-17T11:33:53Z</time>
      </trkpt>
      <trkpt lat="39.811203000" lon="-8.439636000">
        <ele>149.400000</ele>
        <time>2020-10-17T11:33:54Z</time>
      </trkpt>
      <trkpt lat="39.811198000" lon="-8.439656000">
        <ele>149.200000</ele>
        <time>2020-10-17T11:33:55Z</time>
      </trkpt>
      <trkpt lat="39.811193000" lon="-8.439677000">
        <ele>149.200000</ele>
        <time>2020-10-17T11:33:56Z</time>
      </trkpt>
      <trkpt lat="39.811190000" lon="-8.439699000">
        <ele>149.000000</ele>
        <time>2020-10-17T11:33:57Z</time>
      </trkpt>
      <trkpt lat="39.811187000" lon="-8.439715000">
        <ele>149.000000</ele>
        <time>2020-10-17T11:33:58Z</time>
      </trkpt>
      <trkpt lat="39.811188000" lon="-8.439738000">
        <ele>148.800000</ele>
        <time>2020-10-17T11:33:59Z</time>
      </trkpt>
      <trkpt lat="39.811186000" lon="-8.439756000">
        <ele>148.800000</ele>
        <time>2020-10-17T11:34:00Z</time>
      </trkpt>
      <trkpt lat="39.811178000" lon="-8.439779000">
        <ele>148.600000</ele>
        <time>2020-10-17T11:34:01Z</time>
      </trkpt>
      <trkpt lat="39.811171000" lon="-8.439798000">
        <ele>148.400000</ele>
        <time>2020-10-17T11:34:02Z</time>
      </trkpt>
      <trkpt lat="39.811163000" lon="-8.439808000">
        <ele>148.400000</ele>
        <time>2020-10-17T11:34:03Z</time>
      </trkpt>
      <trkpt lat="39.811147000" lon="-8.439822000">
        <ele>148.200000</ele>
        <time>2020-10-17T11:34:05Z</time>
      </trkpt>
      <trkpt lat="39.811147000" lon="-8.439839000">
        <ele>148.200000</ele>
        <time>2020-10-17T11:34:07Z</time>
      </trkpt>
      <trkpt lat="39.811147000" lon="-8.439851000">
        <ele>147.800000</ele>
        <time>2020-10-17T11:34:08Z</time>
      </trkpt>
      <trkpt lat="39.811146000" lon="-8.439858000">
        <ele>148.000000</ele>
        <time>2020-10-17T11:34:09Z</time>
      </trkpt>
      <trkpt lat="39.811157000" lon="-8.439883000">
        <ele>148.000000</ele>
        <time>2020-10-17T11:34:10Z</time>
      </trkpt>
      <trkpt lat="39.811157000" lon="-8.439941000">
        <ele>148.200000</ele>
        <time>2020-10-17T11:34:14Z</time>
      </trkpt>
      <trkpt lat="39.811156000" lon="-8.439953000">
        <ele>148.000000</ele>
        <time>2020-10-17T11:34:15Z</time>
      </trkpt>
      <trkpt lat="39.811156000" lon="-8.439970000">
        <ele>148.200000</ele>
        <time>2020-10-17T11:34:16Z</time>
      </trkpt>
      <trkpt lat="39.811155000" lon="-8.440049000">
        <ele>148.200000</ele>
        <time>2020-10-17T11:34:20Z</time>
      </trkpt>
      <trkpt lat="39.811154000" lon="-8.440064000">
        <ele>148.000000</ele>
        <time>2020-10-17T11:34:21Z</time>
      </trkpt>
      <trkpt lat="39.811151000" lon="-8.440079000">
        <ele>148.200000</ele>
        <time>2020-10-17T11:34:22Z</time>
      </trkpt>
      <trkpt lat="39.811144000" lon="-8.440089000">
        <ele>148.200000</ele>
        <time>2020-10-17T11:34:23Z</time>
      </trkpt>
      <trkpt lat="39.811136000" lon="-8.440097000">
        <ele>148.200000</ele>
        <time>2020-10-17T11:34:24Z</time>
      </trkpt>
      <trkpt lat="39.811125000" lon="-8.440116000">
        <ele>148.000000</ele>
        <time>2020-10-17T11:34:25Z</time>
      </trkpt>
      <trkpt lat="39.811111000" lon="-8.440162000">
        <ele>148.000000</ele>
        <time>2020-10-17T11:34:27Z</time>
      </trkpt>
      <trkpt lat="39.811081000" lon="-8.440267000">
        <ele>148.200000</ele>
        <time>2020-10-17T11:34:31Z</time>
      </trkpt>
      <trkpt lat="39.811074000" lon="-8.440285000">
        <ele>148.200000</ele>
        <time>2020-10-17T11:34:32Z</time>
      </trkpt>
      <trkpt lat="39.811066000" lon="-8.440298000">
        <ele>148.000000</ele>
        <time>2020-10-17T11:34:33Z</time>
      </trkpt>
      <trkpt lat="39.811057000" lon="-8.440314000">
        <ele>148.000000</ele>
        <time>2020-10-17T11:34:34Z</time>
      </trkpt>
      <trkpt lat="39.811038000" lon="-8.440331000">
        <ele>148.000000</ele>
        <time>2020-10-17T11:34:35Z</time>
      </trkpt>
      <trkpt lat="39.811023000" lon="-8.440354000">
        <ele>148.000000</ele>
        <time>2020-10-17T11:34:36Z</time>
      </trkpt>
      <trkpt lat="39.810994000" lon="-8.440439000">
        <ele>147.800000</ele>
        <time>2020-10-17T11:34:39Z</time>
      </trkpt>
      <trkpt lat="39.810987000" lon="-8.440468000">
        <ele>147.800000</ele>
        <time>2020-10-17T11:34:40Z</time>
      </trkpt>
      <trkpt lat="39.810978000" lon="-8.440499000">
        <ele>147.800000</ele>
        <time>2020-10-17T11:34:41Z</time>
      </trkpt>
      <trkpt lat="39.810953000" lon="-8.440534000">
        <ele>148.000000</ele>
        <time>2020-10-17T11:34:42Z</time>
      </trkpt>
      <trkpt lat="39.810902000" lon="-8.440585000">
        <ele>147.800000</ele>
        <time>2020-10-17T11:34:44Z</time>
      </trkpt>
      <trkpt lat="39.810881000" lon="-8.440605000">
        <ele>147.800000</ele>
        <time>2020-10-17T11:34:45Z</time>
      </trkpt>
      <trkpt lat="39.810867000" lon="-8.440627000">
        <ele>147.800000</ele>
        <time>2020-10-17T11:34:46Z</time>
      </trkpt>
      <trkpt lat="39.810846000" lon="-8.440649000">
        <ele>147.800000</ele>
        <time>2020-10-17T11:34:47Z</time>
      </trkpt>
      <trkpt lat="39.810830000" lon="-8.440674000">
        <ele>147.800000</ele>
        <time>2020-10-17T11:34:48Z</time>
      </trkpt>
      <trkpt lat="39.810795000" lon="-8.440727000">
        <ele>147.600000</ele>
        <time>2020-10-17T11:34:50Z</time>
      </trkpt>
      <trkpt lat="39.810776000" lon="-8.440746000">
        <ele>147.800000</ele>
        <time>2020-10-17T11:34:51Z</time>
      </trkpt>
      <trkpt lat="39.810761000" lon="-8.440757000">
        <ele>147.800000</ele>
        <time>2020-10-17T11:34:52Z</time>
      </trkpt>
      <trkpt lat="39.810753000" lon="-8.440769000">
        <ele>147.600000</ele>
        <time>2020-10-17T11:34:53Z</time>
      </trkpt>
      <trkpt lat="39.810747000" lon="-8.440782000">
        <ele>147.600000</ele>
        <time>2020-10-17T11:34:54Z</time>
      </trkpt>
      <trkpt lat="39.810740000" lon="-8.440805000">
        <ele>147.600000</ele>
        <time>2020-10-17T11:34:55Z</time>
      </trkpt>
      <trkpt lat="39.810731000" lon="-8.440833000">
        <ele>147.600000</ele>
        <time>2020-10-17T11:34:56Z</time>
      </trkpt>
      <trkpt lat="39.810712000" lon="-8.440857000">
        <ele>147.600000</ele>
        <time>2020-10-17T11:34:57Z</time>
      </trkpt>
      <trkpt lat="39.810685000" lon="-8.440916000">
        <ele>147.600000</ele>
        <time>2020-10-17T11:34:59Z</time>
      </trkpt>
      <trkpt lat="39.810686000" lon="-8.440943000">
        <ele>147.400000</ele>
        <time>2020-10-17T11:35:00Z</time>
      </trkpt>
      <trkpt lat="39.810690000" lon="-8.440974000">
        <ele>147.400000</ele>
        <time>2020-10-17T11:35:01Z</time>
      </trkpt>
      <trkpt lat="39.810694000" lon="-8.441006000">
        <ele>147.400000</ele>
        <time>2020-10-17T11:35:02Z</time>
      </trkpt>
      <trkpt lat="39.810692000" lon="-8.441046000">
        <ele>147.600000</ele>
        <time>2020-10-17T11:35:03Z</time>
      </trkpt>
      <trkpt lat="39.810697000" lon="-8.441179000">
        <ele>147.400000</ele>
        <time>2020-10-17T11:35:06Z</time>
      </trkpt>
      <trkpt lat="39.810700000" lon="-8.441221000">
        <ele>147.400000</ele>
        <time>2020-10-17T11:35:07Z</time>
      </trkpt>
      <trkpt lat="39.810712000" lon="-8.441345000">
        <ele>147.200000</ele>
        <time>2020-10-17T11:35:10Z</time>
      </trkpt>
      <trkpt lat="39.810711000" lon="-8.441377000">
        <ele>147.200000</ele>
        <time>2020-10-17T11:35:11Z</time>
      </trkpt>
      <trkpt lat="39.810713000" lon="-8.441409000">
        <ele>147.200000</ele>
        <time>2020-10-17T11:35:12Z</time>
      </trkpt>
      <trkpt lat="39.810714000" lon="-8.441446000">
        <ele>147.000000</ele>
        <time>2020-10-17T11:35:13Z</time>
      </trkpt>
      <trkpt lat="39.810718000" lon="-8.441473000">
        <ele>146.800000</ele>
        <time>2020-10-17T11:35:14Z</time>
      </trkpt>
      <trkpt lat="39.810719000" lon="-8.441501000">
        <ele>146.800000</ele>
        <time>2020-10-17T11:35:15Z</time>
      </trkpt>
      <trkpt lat="39.810697000" lon="-8.441558000">
        <ele>146.600000</ele>
        <time>2020-10-17T11:35:17Z</time>
      </trkpt>
      <trkpt lat="39.810690000" lon="-8.441597000">
        <ele>146.800000</ele>
        <time>2020-10-17T11:35:18Z</time>
      </trkpt>
      <trkpt lat="39.810685000" lon="-8.441637000">
        <ele>146.800000</ele>
        <time>2020-10-17T11:35:19Z</time>
      </trkpt>
      <trkpt lat="39.810672000" lon="-8.441714000">
        <ele>146.600000</ele>
        <time>2020-10-17T11:35:21Z</time>
      </trkpt>
      <trkpt lat="39.810667000" lon="-8.441745000">
        <ele>146.800000</ele>
        <time>2020-10-17T11:35:22Z</time>
      </trkpt>
      <trkpt lat="39.810665000" lon="-8.441767000">
        <ele>146.600000</ele>
        <time>2020-10-17T11:35:23Z</time>
      </trkpt>
      <trkpt lat="39.810668000" lon="-8.441779000">
        <ele>146.600000</ele>
        <time>2020-10-17T11:35:24Z</time>
      </trkpt>
      <trkpt lat="39.810670000" lon="-8.441789000">
        <ele>146.400000</ele>
        <time>2020-10-17T11:35:25Z</time>
      </trkpt>
      <trkpt lat="39.810674000" lon="-8.441805000">
        <ele>146.600000</ele>
        <time>2020-10-17T11:35:26Z</time>
      </trkpt>
      <trkpt lat="39.810675000" lon="-8.441825000">
        <ele>146.400000</ele>
        <time>2020-10-17T11:35:27Z</time>
      </trkpt>
      <trkpt lat="39.810675000" lon="-8.441860000">
        <ele>146.400000</ele>
        <time>2020-10-17T11:35:29Z</time>
      </trkpt>
      <trkpt lat="39.810673000" lon="-8.441879000">
        <ele>146.400000</ele>
        <time>2020-10-17T11:35:30Z</time>
      </trkpt>
      <trkpt lat="39.810667000" lon="-8.441892000">
        <ele>146.400000</ele>
        <time>2020-10-17T11:35:31Z</time>
      </trkpt>
      <trkpt lat="39.810661000" lon="-8.441916000">
        <ele>146.400000</ele>
        <time>2020-10-17T11:35:32Z</time>
      </trkpt>
      <trkpt lat="39.810637000" lon="-8.442039000">
        <ele>146.400000</ele>
        <time>2020-10-17T11:35:36Z</time>
      </trkpt>
      <trkpt lat="39.810592000" lon="-8.442149000">
        <ele>146.400000</ele>
        <time>2020-10-17T11:35:39Z</time>
      </trkpt>
      <trkpt lat="39.810578000" lon="-8.442183000">
        <ele>146.400000</ele>
        <time>2020-10-17T11:35:40Z</time>
      </trkpt>
      <trkpt lat="39.810565000" lon="-8.442224000">
        <ele>146.200000</ele>
        <time>2020-10-17T11:35:41Z</time>
      </trkpt>
      <trkpt lat="39.810554000" lon="-8.442266000">
        <ele>146.200000</ele>
        <time>2020-10-17T11:35:42Z</time>
      </trkpt>
      <trkpt lat="39.810485000" lon="-8.442585000">
        <ele>146.200000</ele>
        <time>2020-10-17T11:35:48Z</time>
      </trkpt>
      <trkpt lat="39.810482000" lon="-8.442641000">
        <ele>146.200000</ele>
        <time>2020-10-17T11:35:49Z</time>
      </trkpt>
      <trkpt lat="39.810485000" lon="-8.442685000">
        <ele>146.200000</ele>
        <time>2020-10-17T11:35:50Z</time>
      </trkpt>
      <trkpt lat="39.810496000" lon="-8.442719000">
        <ele>146.000000</ele>
        <time>2020-10-17T11:35:51Z</time>
      </trkpt>
      <trkpt lat="39.810516000" lon="-8.442753000">
        <ele>145.800000</ele>
        <time>2020-10-17T11:35:52Z</time>
      </trkpt>
      <trkpt lat="39.810546000" lon="-8.442779000">
        <ele>146.000000</ele>
        <time>2020-10-17T11:35:53Z</time>
      </trkpt>
      <trkpt lat="39.810578000" lon="-8.442806000">
        <ele>145.800000</ele>
        <time>2020-10-17T11:35:54Z</time>
      </trkpt>
      <trkpt lat="39.810666000" lon="-8.442932000">
        <ele>145.600000</ele>
        <time>2020-10-17T11:35:57Z</time>
      </trkpt>
      <trkpt lat="39.810692000" lon="-8.442981000">
        <ele>145.600000</ele>
        <time>2020-10-17T11:35:58Z</time>
      </trkpt>
      <trkpt lat="39.810733000" lon="-8.443083000">
        <ele>145.600000</ele>
        <time>2020-10-17T11:36:00Z</time>
      </trkpt>
      <trkpt lat="39.810753000" lon="-8.443136000">
        <ele>145.600000</ele>
        <time>2020-10-17T11:36:01Z</time>
      </trkpt>
      <trkpt lat="39.810795000" lon="-8.443240000">
        <ele>145.600000</ele>
        <time>2020-10-17T11:36:03Z</time>
      </trkpt>
      <trkpt lat="39.810820000" lon="-8.443295000">
        <ele>145.800000</ele>
        <time>2020-10-17T11:36:04Z</time>
      </trkpt>
      <trkpt lat="39.810862000" lon="-8.443426000">
        <ele>145.600000</ele>
        <time>2020-10-17T11:36:06Z</time>
      </trkpt>
      <trkpt lat="39.810929000" lon="-8.443625000">
        <ele>145.800000</ele>
        <time>2020-10-17T11:36:09Z</time>
      </trkpt>
      <trkpt lat="39.810941000" lon="-8.443683000">
        <ele>145.800000</ele>
        <time>2020-10-17T11:36:10Z</time>
      </trkpt>
      <trkpt lat="39.810955000" lon="-8.443741000">
        <ele>145.600000</ele>
        <time>2020-10-17T11:36:11Z</time>
      </trkpt>
      <trkpt lat="39.810971000" lon="-8.443794000">
        <ele>145.600000</ele>
        <time>2020-10-17T11:36:12Z</time>
      </trkpt>
      <trkpt lat="39.810991000" lon="-8.443848000">
        <ele>145.200000</ele>
        <time>2020-10-17T11:36:13Z</time>
      </trkpt>
      <trkpt lat="39.811018000" lon="-8.443897000">
        <ele>145.200000</ele>
        <time>2020-10-17T11:36:14Z</time>
      </trkpt>
      <trkpt lat="39.811043000" lon="-8.443939000">
        <ele>145.000000</ele>
        <time>2020-10-17T11:36:15Z</time>
      </trkpt>
      <trkpt lat="39.811065000" lon="-8.443976000">
        <ele>145.000000</ele>
        <time>2020-10-17T11:36:16Z</time>
      </trkpt>
      <trkpt lat="39.811078000" lon="-8.444010000">
        <ele>144.600000</ele>
        <time>2020-10-17T11:36:17Z</time>
      </trkpt>
      <trkpt lat="39.811083000" lon="-8.444038000">
        <ele>144.600000</ele>
        <time>2020-10-17T11:36:18Z</time>
      </trkpt>
      <trkpt lat="39.811091000" lon="-8.444062000">
        <ele>144.400000</ele>
        <time>2020-10-17T11:36:19Z</time>
      </trkpt>
      <trkpt lat="39.811070000" lon="-8.444085000">
        <ele>144.400000</ele>
        <time>2020-10-17T11:36:20Z</time>
      </trkpt>
      <trkpt lat="39.810957000" lon="-8.444222000">
        <ele>144.200000</ele>
        <time>2020-10-17T11:36:24Z</time>
      </trkpt>
      <trkpt lat="39.810929000" lon="-8.444261000">
        <ele>144.200000</ele>
        <time>2020-10-17T11:36:25Z</time>
      </trkpt>
      <trkpt lat="39.810910000" lon="-8.444286000">
        <ele>144.000000</ele>
        <time>2020-10-17T11:36:26Z</time>
      </trkpt>
      <trkpt lat="39.810888000" lon="-8.444328000">
        <ele>144.200000</ele>
        <time>2020-10-17T11:36:27Z</time>
      </trkpt>
      <trkpt lat="39.810877000" lon="-8.444358000">
        <ele>144.000000</ele>
        <time>2020-10-17T11:36:28Z</time>
      </trkpt>
      <trkpt lat="39.810866000" lon="-8.444388000">
        <ele>144.000000</ele>
        <time>2020-10-17T11:36:29Z</time>
      </trkpt>
      <trkpt lat="39.810854000" lon="-8.444417000">
        <ele>144.000000</ele>
        <time>2020-10-17T11:36:31Z</time>
      </trkpt>
      <trkpt lat="39.810843000" lon="-8.444447000">
        <ele>144.000000</ele>
        <time>2020-10-17T11:38:38Z</time>
      </trkpt>
      <trkpt lat="39.810832000" lon="-8.444477000">
        <ele>144.000000</ele>
        <time>2020-10-17T11:38:39Z</time>
      </trkpt>
      <trkpt lat="39.810757000" lon="-8.444704000">
        <ele>143.800000</ele>
        <time>2020-10-17T11:38:43Z</time>
      </trkpt>
      <trkpt lat="39.810682000" lon="-8.444895000">
        <ele>143.800000</ele>
        <time>2020-10-17T11:38:46Z</time>
      </trkpt>
      <trkpt lat="39.810601000" lon="-8.445013000">
        <ele>143.800000</ele>
        <time>2020-10-17T11:38:48Z</time>
      </trkpt>
      <trkpt lat="39.810548000" lon="-8.445058000">
        <ele>143.600000</ele>
        <time>2020-10-17T11:38:49Z</time>
      </trkpt>
      <trkpt lat="39.810494000" lon="-8.445091000">
        <ele>143.600000</ele>
        <time>2020-10-17T11:38:50Z</time>
      </trkpt>
      <trkpt lat="39.810435000" lon="-8.445111000">
        <ele>143.800000</ele>
        <time>2020-10-17T11:38:51Z</time>
      </trkpt>
      <trkpt lat="39.810371000" lon="-8.445131000">
        <ele>143.600000</ele>
        <time>2020-10-17T11:38:52Z</time>
      </trkpt>
      <trkpt lat="39.810312000" lon="-8.445149000">
        <ele>143.800000</ele>
        <time>2020-10-17T11:38:53Z</time>
      </trkpt>
      <trkpt lat="39.810064000" lon="-8.445173000">
        <ele>143.600000</ele>
        <time>2020-10-17T11:38:57Z</time>
      </trkpt>
      <trkpt lat="39.810000000" lon="-8.445180000">
        <ele>143.600000</ele>
        <time>2020-10-17T11:38:58Z</time>
      </trkpt>
      <trkpt lat="39.809872000" lon="-8.445204000">
        <ele>143.400000</ele>
        <time>2020-10-17T11:39:00Z</time>
      </trkpt>
      <trkpt lat="39.809808000" lon="-8.445210000">
        <ele>143.400000</ele>
        <time>2020-10-17T11:39:01Z</time>
      </trkpt>
      <trkpt lat="39.809743000" lon="-8.445212000">
        <ele>143.400000</ele>
        <time>2020-10-17T11:39:02Z</time>
      </trkpt>
      <trkpt lat="39.809685000" lon="-8.445212000">
        <ele>143.400000</ele>
        <time>2020-10-17T11:39:03Z</time>
      </trkpt>
      <trkpt lat="39.809631000" lon="-8.445208000">
        <ele>143.400000</ele>
        <time>2020-10-17T11:39:04Z</time>
      </trkpt>
      <trkpt lat="39.809498000" lon="-8.445194000">
        <ele>143.200000</ele>
        <time>2020-10-17T11:39:06Z</time>
      </trkpt>
      <trkpt lat="39.809431000" lon="-8.445204000">
        <ele>143.200000</ele>
        <time>2020-10-17T11:39:07Z</time>
      </trkpt>
      <trkpt lat="39.809368000" lon="-8.445230000">
        <ele>143.200000</ele>
        <time>2020-10-17T11:39:08Z</time>
      </trkpt>
      <trkpt lat="39.809316000" lon="-8.445274000">
        <ele>143.000000</ele>
        <time>2020-10-17T11:39:09Z</time>
      </trkpt>
      <trkpt lat="39.809274000" lon="-8.445331000">
        <ele>142.800000</ele>
        <time>2020-10-17T11:39:10Z</time>
      </trkpt>
      <trkpt lat="39.809241000" lon="-8.445393000">
        <ele>142.600000</ele>
        <time>2020-10-17T11:39:11Z</time>
      </trkpt>
      <trkpt lat="39.809212000" lon="-8.445462000">
        <ele>142.200000</ele>
        <time>2020-10-17T11:39:12Z</time>
      </trkpt>
      <trkpt lat="39.809186000" lon="-8.445531000">
        <ele>141.800000</ele>
        <time>2020-10-17T11:39:13Z</time>
      </trkpt>
      <trkpt lat="39.809156000" lon="-8.445592000">
        <ele>141.800000</ele>
        <time>2020-10-17T11:39:14Z</time>
      </trkpt>
      <trkpt lat="39.809117000" lon="-8.445648000">
        <ele>141.800000</ele>
        <time>2020-10-17T11:39:15Z</time>
      </trkpt>
      <trkpt lat="39.809080000" lon="-8.445704000">
        <ele>141.600000</ele>
        <time>2020-10-17T11:39:16Z</time>
      </trkpt>
      <trkpt lat="39.809042000" lon="-8.445756000">
        <ele>141.600000</ele>
        <time>2020-10-17T11:39:17Z</time>
      </trkpt>
      <trkpt lat="39.809000000" lon="-8.445804000">
        <ele>141.600000</ele>
        <time>2020-10-17T11:39:18Z</time>
      </trkpt>
      <trkpt lat="39.808959000" lon="-8.445843000">
        <ele>141.600000</ele>
        <time>2020-10-17T11:39:19Z</time>
      </trkpt>
      <trkpt lat="39.808911000" lon="-8.445871000">
        <ele>141.600000</ele>
        <time>2020-10-17T11:39:20Z</time>
      </trkpt>
      <trkpt lat="39.808863000" lon="-8.445887000">
        <ele>141.600000</ele>
        <time>2020-10-17T11:39:21Z</time>
      </trkpt>
      <trkpt lat="39.808819000" lon="-8.445897000">
        <ele>141.800000</ele>
        <time>2020-10-17T11:39:22Z</time>
      </trkpt>
      <trkpt lat="39.808777000" lon="-8.445907000">
        <ele>141.600000</ele>
        <time>2020-10-17T11:39:23Z</time>
      </trkpt>
      <trkpt lat="39.808739000" lon="-8.445914000">
        <ele>141.800000</ele>
        <time>2020-10-17T11:39:24Z</time>
      </trkpt>
      <trkpt lat="39.808701000" lon="-8.445922000">
        <ele>142.000000</ele>
        <time>2020-10-17T11:39:25Z</time>
      </trkpt>
      <trkpt lat="39.808667000" lon="-8.445924000">
        <ele>142.000000</ele>
        <time>2020-10-17T11:39:26Z</time>
      </trkpt>
      <trkpt lat="39.808635000" lon="-8.445926000">
        <ele>142.000000</ele>
        <time>2020-10-17T11:39:27Z</time>
      </trkpt>
      <trkpt lat="39.808603000" lon="-8.445928000">
        <ele>142.000000</ele>
        <time>2020-10-17T11:39:28Z</time>
      </trkpt>
      <trkpt lat="39.808571000" lon="-8.445929000">
        <ele>142.000000</ele>
        <time>2020-10-17T11:39:29Z</time>
      </trkpt>
      <trkpt lat="39.808537000" lon="-8.445931000">
        <ele>142.200000</ele>
        <time>2020-10-17T11:39:30Z</time>
      </trkpt>
      <trkpt lat="39.808465000" lon="-8.445932000">
        <ele>142.800000</ele>
        <time>2020-10-17T11:39:32Z</time>
      </trkpt>
      <trkpt lat="39.808428000" lon="-8.445932000">
        <ele>143.000000</ele>
        <time>2020-10-17T11:39:33Z</time>
      </trkpt>
      <trkpt lat="39.808389000" lon="-8.445933000">
        <ele>143.000000</ele>
        <time>2020-10-17T11:39:34Z</time>
      </trkpt>
      <trkpt lat="39.808342000" lon="-8.445939000">
        <ele>143.400000</ele>
        <time>2020-10-17T11:39:35Z</time>
      </trkpt>
      <trkpt lat="39.808292000" lon="-8.445945000">
        <ele>143.800000</ele>
        <time>2020-10-17T11:39:36Z</time>
      </trkpt>
      <trkpt lat="39.808241000" lon="-8.445951000">
        <ele>144.200000</ele>
        <time>2020-10-17T11:39:37Z</time>
      </trkpt>
      <trkpt lat="39.808187000" lon="-8.445957000">
        <ele>144.200000</ele>
        <time>2020-10-17T11:39:38Z</time>
      </trkpt>
      <trkpt lat="39.808132000" lon="-8.445964000">
        <ele>144.400000</ele>
        <time>2020-10-17T11:39:39Z</time>
      </trkpt>
      <trkpt lat="39.808074000" lon="-8.445972000">
        <ele>144.600000</ele>
        <time>2020-10-17T11:39:40Z</time>
      </trkpt>
      <trkpt lat="39.808014000" lon="-8.445980000">
        <ele>144.400000</ele>
        <time>2020-10-17T11:39:41Z</time>
      </trkpt>
      <trkpt lat="39.807893000" lon="-8.445985000">
        <ele>144.600000</ele>
        <time>2020-10-17T11:39:43Z</time>
      </trkpt>
      <trkpt lat="39.807715000" lon="-8.445974000">
        <ele>144.400000</ele>
        <time>2020-10-17T11:39:46Z</time>
      </trkpt>
      <trkpt lat="39.807658000" lon="-8.445961000">
        <ele>144.600000</ele>
        <time>2020-10-17T11:39:47Z</time>
      </trkpt>
      <trkpt lat="39.807549000" lon="-8.445899000">
        <ele>144.600000</ele>
        <time>2020-10-17T11:39:49Z</time>
      </trkpt>
      <trkpt lat="39.807499000" lon="-8.445849000">
        <ele>144.600000</ele>
        <time>2020-10-17T11:39:50Z</time>
      </trkpt>
      <trkpt lat="39.807451000" lon="-8.445789000">
        <ele>144.400000</ele>
        <time>2020-10-17T11:39:51Z</time>
      </trkpt>
      <trkpt lat="39.807400000" lon="-8.445738000">
        <ele>144.400000</ele>
        <time>2020-10-17T11:39:52Z</time>
      </trkpt>
      <trkpt lat="39.807345000" lon="-8.445706000">
        <ele>144.200000</ele>
        <time>2020-10-17T11:39:53Z</time>
      </trkpt>
      <trkpt lat="39.807287000" lon="-8.445698000">
        <ele>143.800000</ele>
        <time>2020-10-17T11:39:54Z</time>
      </trkpt>
      <trkpt lat="39.807237000" lon="-8.445709000">
        <ele>143.600000</ele>
        <time>2020-10-17T11:39:55Z</time>
      </trkpt>
      <trkpt lat="39.807189000" lon="-8.445734000">
        <ele>143.400000</ele>
        <time>2020-10-17T11:39:56Z</time>
      </trkpt>
      <trkpt lat="39.807157000" lon="-8.445772000">
        <ele>143.200000</ele>
        <time>2020-10-17T11:39:57Z</time>
      </trkpt>
      <trkpt lat="39.807131000" lon="-8.445808000">
        <ele>143.000000</ele>
        <time>2020-10-17T11:39:58Z</time>
      </trkpt>
      <trkpt lat="39.807100000" lon="-8.445847000">
        <ele>142.800000</ele>
        <time>2020-10-17T11:39:59Z</time>
      </trkpt>
      <trkpt lat="39.807065000" lon="-8.445894000">
        <ele>142.600000</ele>
        <time>2020-10-17T11:40:00Z</time>
      </trkpt>
      <trkpt lat="39.806946000" lon="-8.446099000">
        <ele>142.000000</ele>
        <time>2020-10-17T11:40:03Z</time>
      </trkpt>
      <trkpt lat="39.806830000" lon="-8.446315000">
        <ele>141.200000</ele>
        <time>2020-10-17T11:40:06Z</time>
      </trkpt>
      <trkpt lat="39.806784000" lon="-8.446368000">
        <ele>141.200000</ele>
        <time>2020-10-17T11:40:07Z</time>
      </trkpt>
      <trkpt lat="39.806727000" lon="-8.446412000">
        <ele>140.800000</ele>
        <time>2020-10-17T11:40:08Z</time>
      </trkpt>
      <trkpt lat="39.806660000" lon="-8.446441000">
        <ele>140.800000</ele>
        <time>2020-10-17T11:40:09Z</time>
      </trkpt>
      <trkpt lat="39.806593000" lon="-8.446465000">
        <ele>140.800000</ele>
        <time>2020-10-17T11:40:10Z</time>
      </trkpt>
      <trkpt lat="39.806523000" lon="-8.446486000">
        <ele>140.800000</ele>
        <time>2020-10-17T11:40:11Z</time>
      </trkpt>
      <trkpt lat="39.806320000" lon="-8.446531000">
        <ele>140.400000</ele>
        <time>2020-10-17T11:40:14Z</time>
      </trkpt>
      <trkpt lat="39.806248000" lon="-8.446546000">
        <ele>140.400000</ele>
        <time>2020-10-17T11:40:15Z</time>
      </trkpt>
      <trkpt lat="39.806113000" lon="-8.446594000">
        <ele>140.200000</ele>
        <time>2020-10-17T11:40:17Z</time>
      </trkpt>
      <trkpt lat="39.805991000" lon="-8.446668000">
        <ele>140.000000</ele>
        <time>2020-10-17T11:40:19Z</time>
      </trkpt>
      <trkpt lat="39.805937000" lon="-8.446713000">
        <ele>140.000000</ele>
        <time>2020-10-17T11:40:20Z</time>
      </trkpt>
      <trkpt lat="39.805891000" lon="-8.446768000">
        <ele>140.000000</ele>
        <time>2020-10-17T11:40:21Z</time>
      </trkpt>
      <trkpt lat="39.805856000" lon="-8.446830000">
        <ele>139.800000</ele>
        <time>2020-10-17T11:40:22Z</time>
      </trkpt>
      <trkpt lat="39.805833000" lon="-8.446895000">
        <ele>139.800000</ele>
        <time>2020-10-17T11:40:23Z</time>
      </trkpt>
      <trkpt lat="39.805823000" lon="-8.446965000">
        <ele>139.800000</ele>
        <time>2020-10-17T11:40:24Z</time>
      </trkpt>
      <trkpt lat="39.805821000" lon="-8.447035000">
        <ele>139.600000</ele>
        <time>2020-10-17T11:40:25Z</time>
      </trkpt>
      <trkpt lat="39.805823000" lon="-8.447106000">
        <ele>139.800000</ele>
        <time>2020-10-17T11:40:26Z</time>
      </trkpt>
      <trkpt lat="39.805824000" lon="-8.447178000">
        <ele>139.800000</ele>
        <time>2020-10-17T11:40:27Z</time>
      </trkpt>
      <trkpt lat="39.805827000" lon="-8.447248000">
        <ele>139.600000</ele>
        <time>2020-10-17T11:40:28Z</time>
      </trkpt>
      <trkpt lat="39.805840000" lon="-8.447323000">
        <ele>139.800000</ele>
        <time>2020-10-17T11:40:29Z</time>
      </trkpt>
      <trkpt lat="39.805843000" lon="-8.447396000">
        <ele>139.800000</ele>
        <time>2020-10-17T11:40:30Z</time>
      </trkpt>
      <trkpt lat="39.805835000" lon="-8.447463000">
        <ele>139.600000</ele>
        <time>2020-10-17T11:40:31Z</time>
      </trkpt>
      <trkpt lat="39.805820000" lon="-8.447526000">
        <ele>139.600000</ele>
        <time>2020-10-17T11:40:32Z</time>
      </trkpt>
      <trkpt lat="39.805795000" lon="-8.447577000">
        <ele>139.600000</ele>
        <time>2020-10-17T11:40:33Z</time>
      </trkpt>
      <trkpt lat="39.805764000" lon="-8.447610000">
        <ele>139.600000</ele>
        <time>2020-10-17T11:40:34Z</time>
      </trkpt>
      <trkpt lat="39.805725000" lon="-8.447637000">
        <ele>139.600000</ele>
        <time>2020-10-17T11:40:35Z</time>
      </trkpt>
      <trkpt lat="39.805683000" lon="-8.447653000">
        <ele>139.600000</ele>
        <time>2020-10-17T11:40:36Z</time>
      </trkpt>
      <trkpt lat="39.805640000" lon="-8.447668000">
        <ele>139.800000</ele>
        <time>2020-10-17T11:40:37Z</time>
      </trkpt>
      <trkpt lat="39.805594000" lon="-8.447685000">
        <ele>139.800000</ele>
        <time>2020-10-17T11:40:38Z</time>
      </trkpt>
      <trkpt lat="39.805404000" lon="-8.447757000">
        <ele>140.000000</ele>
        <time>2020-10-17T11:40:41Z</time>
      </trkpt>
      <trkpt lat="39.805167000" lon="-8.447803000">
        <ele>140.200000</ele>
        <time>2020-10-17T11:40:44Z</time>
      </trkpt>
      <trkpt lat="39.805000000" lon="-8.447836000">
        <ele>140.000000</ele>
        <time>2020-10-17T11:40:46Z</time>
      </trkpt>
      <trkpt lat="39.804924000" lon="-8.447867000">
        <ele>140.000000</ele>
        <time>2020-10-17T11:40:47Z</time>
      </trkpt>
      <trkpt lat="39.804852000" lon="-8.447911000">
        <ele>140.000000</ele>
        <time>2020-10-17T11:40:48Z</time>
      </trkpt>
      <trkpt lat="39.804795000" lon="-8.447973000">
        <ele>139.800000</ele>
        <time>2020-10-17T11:40:49Z</time>
      </trkpt>
      <trkpt lat="39.804756000" lon="-8.448057000">
        <ele>139.800000</ele>
        <time>2020-10-17T11:40:50Z</time>
      </trkpt>
      <trkpt lat="39.804725000" lon="-8.448151000">
        <ele>139.600000</ele>
        <time>2020-10-17T11:40:51Z</time>
      </trkpt>
      <trkpt lat="39.804713000" lon="-8.448248000">
        <ele>139.000000</ele>
        <time>2020-10-17T11:40:52Z</time>
      </trkpt>
      <trkpt lat="39.804717000" lon="-8.448345000">
        <ele>138.600000</ele>
        <time>2020-10-17T11:40:53Z</time>
      </trkpt>
      <trkpt lat="39.804741000" lon="-8.448446000">
        <ele>138.600000</ele>
        <time>2020-10-17T11:40:54Z</time>
      </trkpt>
      <trkpt lat="39.804770000" lon="-8.448547000">
        <ele>138.400000</ele>
        <time>2020-10-17T11:40:55Z</time>
      </trkpt>
      <trkpt lat="39.804791000" lon="-8.448645000">
        <ele>137.800000</ele>
        <time>2020-10-17T11:40:56Z</time>
      </trkpt>
      <trkpt lat="39.804803000" lon="-8.448749000">
        <ele>137.600000</ele>
        <time>2020-10-17T11:40:57Z</time>
      </trkpt>
      <trkpt lat="39.804784000" lon="-8.448945000">
        <ele>137.200000</ele>
        <time>2020-10-17T11:40:59Z</time>
      </trkpt>
      <trkpt lat="39.804755000" lon="-8.449035000">
        <ele>136.800000</ele>
        <time>2020-10-17T11:41:00Z</time>
      </trkpt>
      <trkpt lat="39.804719000" lon="-8.449121000">
        <ele>136.800000</ele>
        <time>2020-10-17T11:41:01Z</time>
      </trkpt>
      <trkpt lat="39.804677000" lon="-8.449203000">
        <ele>136.600000</ele>
        <time>2020-10-17T11:41:02Z</time>
      </trkpt>
      <trkpt lat="39.804633000" lon="-8.449284000">
        <ele>136.200000</ele>
        <time>2020-10-17T11:41:03Z</time>
      </trkpt>
      <trkpt lat="39.804586000" lon="-8.449360000">
        <ele>136.200000</ele>
        <time>2020-10-17T11:41:04Z</time>
      </trkpt>
      <trkpt lat="39.804492000" lon="-8.449512000">
        <ele>135.800000</ele>
        <time>2020-10-17T11:41:06Z</time>
      </trkpt>
      <trkpt lat="39.804399000" lon="-8.449664000">
        <ele>135.200000</ele>
        <time>2020-10-17T11:41:08Z</time>
      </trkpt>
      <trkpt lat="39.804350000" lon="-8.449734000">
        <ele>135.000000</ele>
        <time>2020-10-17T11:41:09Z</time>
      </trkpt>
      <trkpt lat="39.804302000" lon="-8.449799000">
        <ele>135.000000</ele>
        <time>2020-10-17T11:41:10Z</time>
      </trkpt>
      <trkpt lat="39.804030000" lon="-8.450098000">
        <ele>134.400000</ele>
        <time>2020-10-17T11:41:15Z</time>
      </trkpt>
      <trkpt lat="39.803972000" lon="-8.450153000">
        <ele>134.400000</ele>
        <time>2020-10-17T11:41:16Z</time>
      </trkpt>
      <trkpt lat="39.803914000" lon="-8.450203000">
        <ele>134.000000</ele>
        <time>2020-10-17T11:41:17Z</time>
      </trkpt>
      <trkpt lat="39.803858000" lon="-8.450254000">
        <ele>134.000000</ele>
        <time>2020-10-17T11:41:18Z</time>
      </trkpt>
      <trkpt lat="39.803501000" lon="-8.450568000">
        <ele>133.600000</ele>
        <time>2020-10-17T11:41:24Z</time>
      </trkpt>
      <trkpt lat="39.803378000" lon="-8.450663000">
        <ele>133.600000</ele>
        <time>2020-10-17T11:41:26Z</time>
      </trkpt>
      <trkpt lat="39.803330000" lon="-8.450724000">
        <ele>133.600000</ele>
        <time>2020-10-17T11:41:27Z</time>
      </trkpt>
      <trkpt lat="39.803288000" lon="-8.450793000">
        <ele>133.600000</ele>
        <time>2020-10-17T11:41:28Z</time>
      </trkpt>
      <trkpt lat="39.803250000" lon="-8.450864000">
        <ele>133.600000</ele>
        <time>2020-10-17T11:41:29Z</time>
      </trkpt>
      <trkpt lat="39.803210000" lon="-8.450935000">
        <ele>133.600000</ele>
        <time>2020-10-17T11:41:30Z</time>
      </trkpt>
      <trkpt lat="39.803169000" lon="-8.451004000">
        <ele>133.600000</ele>
        <time>2020-10-17T11:41:31Z</time>
      </trkpt>
      <trkpt lat="39.803090000" lon="-8.451144000">
        <ele>133.400000</ele>
        <time>2020-10-17T11:41:33Z</time>
      </trkpt>
      <trkpt lat="39.803007000" lon="-8.451283000">
        <ele>133.400000</ele>
        <time>2020-10-17T11:41:35Z</time>
      </trkpt>
      <trkpt lat="39.802968000" lon="-8.451351000">
        <ele>133.400000</ele>
        <time>2020-10-17T11:41:36Z</time>
      </trkpt>
      <trkpt lat="39.802929000" lon="-8.451418000">
        <ele>133.400000</ele>
        <time>2020-10-17T11:41:37Z</time>
      </trkpt>
      <trkpt lat="39.802885000" lon="-8.451487000">
        <ele>133.400000</ele>
        <time>2020-10-17T11:41:38Z</time>
      </trkpt>
      <trkpt lat="39.802843000" lon="-8.451549000">
        <ele>133.400000</ele>
        <time>2020-10-17T11:41:39Z</time>
      </trkpt>
      <trkpt lat="39.802806000" lon="-8.451614000">
        <ele>133.400000</ele>
        <time>2020-10-17T11:41:40Z</time>
      </trkpt>
      <trkpt lat="39.802732000" lon="-8.451747000">
        <ele>133.400000</ele>
        <time>2020-10-17T11:41:42Z</time>
      </trkpt>
      <trkpt lat="39.802580000" lon="-8.452016000">
        <ele>133.400000</ele>
        <time>2020-10-17T11:41:46Z</time>
      </trkpt>
      <trkpt lat="39.802544000" lon="-8.452082000">
        <ele>133.400000</ele>
        <time>2020-10-17T11:41:47Z</time>
      </trkpt>
      <trkpt lat="39.802509000" lon="-8.452147000">
        <ele>133.400000</ele>
        <time>2020-10-17T11:41:48Z</time>
      </trkpt>
      <trkpt lat="39.802475000" lon="-8.452210000">
        <ele>133.400000</ele>
        <time>2020-10-17T11:41:49Z</time>
      </trkpt>
      <trkpt lat="39.802444000" lon="-8.452268000">
        <ele>133.400000</ele>
        <time>2020-10-17T11:41:50Z</time>
      </trkpt>
      <trkpt lat="39.802415000" lon="-8.452320000">
        <ele>133.400000</ele>
        <time>2020-10-17T11:41:51Z</time>
      </trkpt>
      <trkpt lat="39.802387000" lon="-8.452372000">
        <ele>133.400000</ele>
        <time>2020-10-17T11:41:52Z</time>
      </trkpt>
      <trkpt lat="39.802360000" lon="-8.452420000">
        <ele>133.400000</ele>
        <time>2020-10-17T11:41:53Z</time>
      </trkpt>
      <trkpt lat="39.802335000" lon="-8.452466000">
        <ele>133.600000</ele>
        <time>2020-10-17T11:41:54Z</time>
      </trkpt>
      <trkpt lat="39.802313000" lon="-8.452509000">
        <ele>133.600000</ele>
        <time>2020-10-17T11:41:55Z</time>
      </trkpt>
      <trkpt lat="39.802295000" lon="-8.452551000">
        <ele>133.800000</ele>
        <time>2020-10-17T11:41:56Z</time>
      </trkpt>
      <trkpt lat="39.802281000" lon="-8.452595000">
        <ele>133.800000</ele>
        <time>2020-10-17T11:41:57Z</time>
      </trkpt>
      <trkpt lat="39.802270000" lon="-8.452641000">
        <ele>133.800000</ele>
        <time>2020-10-17T11:41:58Z</time>
      </trkpt>
      <trkpt lat="39.802260000" lon="-8.452687000">
        <ele>133.800000</ele>
        <time>2020-10-17T11:41:59Z</time>
      </trkpt>
      <trkpt lat="39.802251000" lon="-8.452735000">
        <ele>134.000000</ele>
        <time>2020-10-17T11:42:00Z</time>
      </trkpt>
      <trkpt lat="39.802244000" lon="-8.452784000">
        <ele>134.400000</ele>
        <time>2020-10-17T11:42:01Z</time>
      </trkpt>
      <trkpt lat="39.802238000" lon="-8.452836000">
        <ele>135.200000</ele>
        <time>2020-10-17T11:42:02Z</time>
      </trkpt>
      <trkpt lat="39.802234000" lon="-8.452890000">
        <ele>135.600000</ele>
        <time>2020-10-17T11:42:03Z</time>
      </trkpt>
      <trkpt lat="39.802227000" lon="-8.452946000">
        <ele>136.200000</ele>
        <time>2020-10-17T11:42:04Z</time>
      </trkpt>
      <trkpt lat="39.802217000" lon="-8.452999000">
        <ele>136.800000</ele>
        <time>2020-10-17T11:42:05Z</time>
      </trkpt>
      <trkpt lat="39.802205000" lon="-8.453051000">
        <ele>137.000000</ele>
        <time>2020-10-17T11:42:06Z</time>
      </trkpt>
      <trkpt lat="39.802197000" lon="-8.453108000">
        <ele>137.600000</ele>
        <time>2020-10-17T11:42:07Z</time>
      </trkpt>
      <trkpt lat="39.802188000" lon="-8.453162000">
        <ele>137.800000</ele>
        <time>2020-10-17T11:42:08Z</time>
      </trkpt>
      <trkpt lat="39.802179000" lon="-8.453216000">
        <ele>138.400000</ele>
        <time>2020-10-17T11:42:09Z</time>
      </trkpt>
      <trkpt lat="39.802167000" lon="-8.453272000">
        <ele>138.600000</ele>
        <time>2020-10-17T11:42:10Z</time>
      </trkpt>
      <trkpt lat="39.802158000" lon="-8.453330000">
        <ele>138.800000</ele>
        <time>2020-10-17T11:42:11Z</time>
      </trkpt>
      <trkpt lat="39.802151000" lon="-8.453392000">
        <ele>139.000000</ele>
        <time>2020-10-17T11:42:12Z</time>
      </trkpt>
      <trkpt lat="39.802143000" lon="-8.453451000">
        <ele>139.200000</ele>
        <time>2020-10-17T11:42:13Z</time>
      </trkpt>
      <trkpt lat="39.802131000" lon="-8.453507000">
        <ele>139.400000</ele>
        <time>2020-10-17T11:42:14Z</time>
      </trkpt>
      <trkpt lat="39.802119000" lon="-8.453565000">
        <ele>139.800000</ele>
        <time>2020-10-17T11:42:15Z</time>
      </trkpt>
      <trkpt lat="39.802110000" lon="-8.453624000">
        <ele>140.200000</ele>
        <time>2020-10-17T11:42:16Z</time>
      </trkpt>
      <trkpt lat="39.802101000" lon="-8.453684000">
        <ele>140.400000</ele>
        <time>2020-10-17T11:42:17Z</time>
      </trkpt>
      <trkpt lat="39.802092000" lon="-8.453744000">
        <ele>140.800000</ele>
        <time>2020-10-17T11:42:18Z</time>
      </trkpt>
      <trkpt lat="39.802080000" lon="-8.453796000">
        <ele>140.800000</ele>
        <time>2020-10-17T11:42:19Z</time>
      </trkpt>
      <trkpt lat="39.802070000" lon="-8.453848000">
        <ele>141.000000</ele>
        <time>2020-10-17T11:42:20Z</time>
      </trkpt>
      <trkpt lat="39.802064000" lon="-8.453897000">
        <ele>141.200000</ele>
        <time>2020-10-17T11:42:21Z</time>
      </trkpt>
      <trkpt lat="39.802066000" lon="-8.453949000">
        <ele>141.400000</ele>
        <time>2020-10-17T11:42:22Z</time>
      </trkpt>
      <trkpt lat="39.802071000" lon="-8.454001000">
        <ele>141.800000</ele>
        <time>2020-10-17T11:42:23Z</time>
      </trkpt>
      <trkpt lat="39.802083000" lon="-8.454053000">
        <ele>142.000000</ele>
        <time>2020-10-17T11:42:24Z</time>
      </trkpt>
      <trkpt lat="39.802095000" lon="-8.454104000">
        <ele>142.400000</ele>
        <time>2020-10-17T11:42:25Z</time>
      </trkpt>
      <trkpt lat="39.802112000" lon="-8.454157000">
        <ele>142.400000</ele>
        <time>2020-10-17T11:42:26Z</time>
      </trkpt>
      <trkpt lat="39.802126000" lon="-8.454212000">
        <ele>142.600000</ele>
        <time>2020-10-17T11:42:27Z</time>
      </trkpt>
      <trkpt lat="39.802142000" lon="-8.454268000">
        <ele>143.000000</ele>
        <time>2020-10-17T11:42:28Z</time>
      </trkpt>
      <trkpt lat="39.802159000" lon="-8.454323000">
        <ele>143.400000</ele>
        <time>2020-10-17T11:42:29Z</time>
      </trkpt>
      <trkpt lat="39.802176000" lon="-8.454379000">
        <ele>143.600000</ele>
        <time>2020-10-17T11:42:30Z</time>
      </trkpt>
      <trkpt lat="39.802193000" lon="-8.454437000">
        <ele>143.800000</ele>
        <time>2020-10-17T11:42:31Z</time>
      </trkpt>
      <trkpt lat="39.802211000" lon="-8.454496000">
        <ele>143.800000</ele>
        <time>2020-10-17T11:42:32Z</time>
      </trkpt>
      <trkpt lat="39.802228000" lon="-8.454557000">
        <ele>143.800000</ele>
        <time>2020-10-17T11:42:33Z</time>
      </trkpt>
      <trkpt lat="39.802243000" lon="-8.454621000">
        <ele>143.800000</ele>
        <time>2020-10-17T11:42:34Z</time>
      </trkpt>
      <trkpt lat="39.802252000" lon="-8.454688000">
        <ele>144.000000</ele>
        <time>2020-10-17T11:42:35Z</time>
      </trkpt>
      <trkpt lat="39.802256000" lon="-8.454759000">
        <ele>143.800000</ele>
        <time>2020-10-17T11:42:36Z</time>
      </trkpt>
      <trkpt lat="39.802255000" lon="-8.454839000">
        <ele>144.000000</ele>
        <time>2020-10-17T11:42:37Z</time>
      </trkpt>
      <trkpt lat="39.802248000" lon="-8.454915000">
        <ele>144.000000</ele>
        <time>2020-10-17T11:42:38Z</time>
      </trkpt>
      <trkpt lat="39.802239000" lon="-8.454987000">
        <ele>144.000000</ele>
        <time>2020-10-17T11:42:39Z</time>
      </trkpt>
      <trkpt lat="39.802234000" lon="-8.455058000">
        <ele>144.000000</ele>
        <time>2020-10-17T11:42:40Z</time>
      </trkpt>
      <trkpt lat="39.802234000" lon="-8.455132000">
        <ele>144.000000</ele>
        <time>2020-10-17T11:42:41Z</time>
      </trkpt>
      <trkpt lat="39.802238000" lon="-8.455202000">
        <ele>144.000000</ele>
        <time>2020-10-17T11:42:42Z</time>
      </trkpt>
      <trkpt lat="39.802241000" lon="-8.455269000">
        <ele>144.000000</ele>
        <time>2020-10-17T11:42:43Z</time>
      </trkpt>
      <trkpt lat="39.802246000" lon="-8.455334000">
        <ele>144.000000</ele>
        <time>2020-10-17T11:42:44Z</time>
      </trkpt>
      <trkpt lat="39.802253000" lon="-8.455397000">
        <ele>143.600000</ele>
        <time>2020-10-17T11:42:45Z</time>
      </trkpt>
      <trkpt lat="39.802260000" lon="-8.455458000">
        <ele>143.600000</ele>
        <time>2020-10-17T11:42:46Z</time>
      </trkpt>
      <trkpt lat="39.802271000" lon="-8.455516000">
        <ele>143.600000</ele>
        <time>2020-10-17T11:42:47Z</time>
      </trkpt>
      <trkpt lat="39.802283000" lon="-8.455573000">
        <ele>143.600000</ele>
        <time>2020-10-17T11:42:48Z</time>
      </trkpt>
      <trkpt lat="39.802301000" lon="-8.455631000">
        <ele>143.600000</ele>
        <time>2020-10-17T11:42:49Z</time>
      </trkpt>
      <trkpt lat="39.802319000" lon="-8.455683000">
        <ele>143.600000</ele>
        <time>2020-10-17T11:42:50Z</time>
      </trkpt>
      <trkpt lat="39.802337000" lon="-8.455732000">
        <ele>143.600000</ele>
        <time>2020-10-17T11:42:51Z</time>
      </trkpt>
      <trkpt lat="39.802355000" lon="-8.455780000">
        <ele>143.600000</ele>
        <time>2020-10-17T11:42:52Z</time>
      </trkpt>
      <trkpt lat="39.802392000" lon="-8.455882000">
        <ele>143.600000</ele>
        <time>2020-10-17T11:42:54Z</time>
      </trkpt>
      <trkpt lat="39.802408000" lon="-8.455931000">
        <ele>143.600000</ele>
        <time>2020-10-17T11:42:55Z</time>
      </trkpt>
      <trkpt lat="39.802420000" lon="-8.455981000">
        <ele>143.600000</ele>
        <time>2020-10-17T11:42:56Z</time>
      </trkpt>
      <trkpt lat="39.802431000" lon="-8.456027000">
        <ele>144.000000</ele>
        <time>2020-10-17T11:42:57Z</time>
      </trkpt>
      <trkpt lat="39.802443000" lon="-8.456071000">
        <ele>144.000000</ele>
        <time>2020-10-17T11:42:58Z</time>
      </trkpt>
      <trkpt lat="39.802455000" lon="-8.456111000">
        <ele>144.200000</ele>
        <time>2020-10-17T11:42:59Z</time>
      </trkpt>
      <trkpt lat="39.802466000" lon="-8.456148000">
        <ele>144.400000</ele>
        <time>2020-10-17T11:43:00Z</time>
      </trkpt>
      <trkpt lat="39.802473000" lon="-8.456183000">
        <ele>144.400000</ele>
        <time>2020-10-17T11:43:01Z</time>
      </trkpt>
      <trkpt lat="39.802477000" lon="-8.456213000">
        <ele>144.600000</ele>
        <time>2020-10-17T11:43:02Z</time>
      </trkpt>
      <trkpt lat="39.802481000" lon="-8.456241000">
        <ele>144.600000</ele>
        <time>2020-10-17T11:43:03Z</time>
      </trkpt>
      <trkpt lat="39.802487000" lon="-8.456267000">
        <ele>144.600000</ele>
        <time>2020-10-17T11:43:04Z</time>
      </trkpt>
      <trkpt lat="39.802493000" lon="-8.456295000">
        <ele>145.000000</ele>
        <time>2020-10-17T11:43:05Z</time>
      </trkpt>
      <trkpt lat="39.802500000" lon="-8.456322000">
        <ele>145.400000</ele>
        <time>2020-10-17T11:43:06Z</time>
      </trkpt>
      <trkpt lat="39.802506000" lon="-8.456351000">
        <ele>145.600000</ele>
        <time>2020-10-17T11:43:07Z</time>
      </trkpt>
      <trkpt lat="39.802515000" lon="-8.456382000">
        <ele>146.000000</ele>
        <time>2020-10-17T11:43:08Z</time>
      </trkpt>
      <trkpt lat="39.802526000" lon="-8.456411000">
        <ele>146.200000</ele>
        <time>2020-10-17T11:43:09Z</time>
      </trkpt>
      <trkpt lat="39.802534000" lon="-8.456441000">
        <ele>146.600000</ele>
        <time>2020-10-17T11:43:10Z</time>
      </trkpt>
      <trkpt lat="39.802541000" lon="-8.456470000">
        <ele>147.000000</ele>
        <time>2020-10-17T11:43:11Z</time>
      </trkpt>
      <trkpt lat="39.802552000" lon="-8.456501000">
        <ele>147.400000</ele>
        <time>2020-10-17T11:43:12Z</time>
      </trkpt>
      <trkpt lat="39.802560000" lon="-8.456531000">
        <ele>147.800000</ele>
        <time>2020-10-17T11:43:13Z</time>
      </trkpt>
      <trkpt lat="39.802572000" lon="-8.456560000">
        <ele>148.000000</ele>
        <time>2020-10-17T11:43:14Z</time>
      </trkpt>
      <trkpt lat="39.802587000" lon="-8.456593000">
        <ele>148.600000</ele>
        <time>2020-10-17T11:43:15Z</time>
      </trkpt>
      <trkpt lat="39.802600000" lon="-8.456624000">
        <ele>148.800000</ele>
        <time>2020-10-17T11:43:16Z</time>
      </trkpt>
      <trkpt lat="39.802611000" lon="-8.456650000">
        <ele>149.400000</ele>
        <time>2020-10-17T11:43:17Z</time>
      </trkpt>
      <trkpt lat="39.802626000" lon="-8.456674000">
        <ele>149.800000</ele>
        <time>2020-10-17T11:43:18Z</time>
      </trkpt>
      <trkpt lat="39.802640000" lon="-8.456700000">
        <ele>150.000000</ele>
        <time>2020-10-17T11:43:19Z</time>
      </trkpt>
      <trkpt lat="39.802654000" lon="-8.456724000">
        <ele>150.400000</ele>
        <time>2020-10-17T11:43:20Z</time>
      </trkpt>
      <trkpt lat="39.802667000" lon="-8.456749000">
        <ele>150.600000</ele>
        <time>2020-10-17T11:43:21Z</time>
      </trkpt>
      <trkpt lat="39.802680000" lon="-8.456777000">
        <ele>150.600000</ele>
        <time>2020-10-17T11:43:22Z</time>
      </trkpt>
      <trkpt lat="39.802695000" lon="-8.456808000">
        <ele>151.200000</ele>
        <time>2020-10-17T11:43:23Z</time>
      </trkpt>
      <trkpt lat="39.802708000" lon="-8.456840000">
        <ele>151.400000</ele>
        <time>2020-10-17T11:43:24Z</time>
      </trkpt>
      <trkpt lat="39.802719000" lon="-8.456873000">
        <ele>151.800000</ele>
        <time>2020-10-17T11:43:25Z</time>
      </trkpt>
      <trkpt lat="39.802729000" lon="-8.456906000">
        <ele>152.000000</ele>
        <time>2020-10-17T11:43:26Z</time>
      </trkpt>
      <trkpt lat="39.802739000" lon="-8.456940000">
        <ele>152.400000</ele>
        <time>2020-10-17T11:43:27Z</time>
      </trkpt>
      <trkpt lat="39.802750000" lon="-8.456973000">
        <ele>152.400000</ele>
        <time>2020-10-17T11:43:28Z</time>
      </trkpt>
      <trkpt lat="39.802758000" lon="-8.457006000">
        <ele>152.800000</ele>
        <time>2020-10-17T11:43:29Z</time>
      </trkpt>
      <trkpt lat="39.802771000" lon="-8.457041000">
        <ele>152.800000</ele>
        <time>2020-10-17T11:43:30Z</time>
      </trkpt>
      <trkpt lat="39.802783000" lon="-8.457073000">
        <ele>153.000000</ele>
        <time>2020-10-17T11:43:31Z</time>
      </trkpt>
      <trkpt lat="39.802796000" lon="-8.457109000">
        <ele>153.000000</ele>
        <time>2020-10-17T11:43:32Z</time>
      </trkpt>
      <trkpt lat="39.802811000" lon="-8.457149000">
        <ele>153.800000</ele>
        <time>2020-10-17T11:43:33Z</time>
      </trkpt>
      <trkpt lat="39.802826000" lon="-8.457194000">
        <ele>154.200000</ele>
        <time>2020-10-17T11:43:34Z</time>
      </trkpt>
      <trkpt lat="39.802840000" lon="-8.457239000">
        <ele>154.200000</ele>
        <time>2020-10-17T11:43:35Z</time>
      </trkpt>
      <trkpt lat="39.802844000" lon="-8.457285000">
        <ele>154.200000</ele>
        <time>2020-10-17T11:43:36Z</time>
      </trkpt>
      <trkpt lat="39.802838000" lon="-8.457337000">
        <ele>154.400000</ele>
        <time>2020-10-17T11:43:37Z</time>
      </trkpt>
      <trkpt lat="39.802829000" lon="-8.457386000">
        <ele>154.400000</ele>
        <time>2020-10-17T11:43:38Z</time>
      </trkpt>
      <trkpt lat="39.802787000" lon="-8.457426000">
        <ele>154.400000</ele>
        <time>2020-10-17T11:43:39Z</time>
      </trkpt>
      <trkpt lat="39.802751000" lon="-8.457457000">
        <ele>154.400000</ele>
        <time>2020-10-17T11:43:40Z</time>
      </trkpt>
      <trkpt lat="39.802712000" lon="-8.457488000">
        <ele>154.400000</ele>
        <time>2020-10-17T11:43:41Z</time>
      </trkpt>
      <trkpt lat="39.802668000" lon="-8.457518000">
        <ele>154.600000</ele>
        <time>2020-10-17T11:43:42Z</time>
      </trkpt>
      <trkpt lat="39.802626000" lon="-8.457543000">
        <ele>154.400000</ele>
        <time>2020-10-17T11:43:43Z</time>
      </trkpt>
      <trkpt lat="39.802585000" lon="-8.457568000">
        <ele>154.400000</ele>
        <time>2020-10-17T11:43:44Z</time>
      </trkpt>
      <trkpt lat="39.802550000" lon="-8.457600000">
        <ele>154.400000</ele>
        <time>2020-10-17T11:43:45Z</time>
      </trkpt>
      <trkpt lat="39.802517000" lon="-8.457633000">
        <ele>154.400000</ele>
        <time>2020-10-17T11:43:46Z</time>
      </trkpt>
      <trkpt lat="39.802487000" lon="-8.457664000">
        <ele>154.400000</ele>
        <time>2020-10-17T11:43:47Z</time>
      </trkpt>
      <trkpt lat="39.802458000" lon="-8.457695000">
        <ele>154.200000</ele>
        <time>2020-10-17T11:43:48Z</time>
      </trkpt>
      <trkpt lat="39.802430000" lon="-8.457726000">
        <ele>154.400000</ele>
        <time>2020-10-17T11:43:49Z</time>
      </trkpt>
      <trkpt lat="39.802404000" lon="-8.457757000">
        <ele>154.400000</ele>
        <time>2020-10-17T11:43:50Z</time>
      </trkpt>
      <trkpt lat="39.802318000" lon="-8.457848000">
        <ele>154.400000</ele>
        <time>2020-10-17T11:43:53Z</time>
      </trkpt>
      <trkpt lat="39.802291000" lon="-8.457871000">
        <ele>154.200000</ele>
        <time>2020-10-17T11:43:54Z</time>
      </trkpt>
      <trkpt lat="39.802226000" lon="-8.457901000">
        <ele>154.400000</ele>
        <time>2020-10-17T11:43:56Z</time>
      </trkpt>
      <trkpt lat="39.802192000" lon="-8.457908000">
        <ele>154.400000</ele>
        <time>2020-10-17T11:43:57Z</time>
      </trkpt>
      <trkpt lat="39.802155000" lon="-8.457913000">
        <ele>154.400000</ele>
        <time>2020-10-17T11:43:58Z</time>
      </trkpt>
      <trkpt lat="39.802029000" lon="-8.457916000">
        <ele>154.800000</ele>
        <time>2020-10-17T11:44:01Z</time>
      </trkpt>
      <trkpt lat="39.801937000" lon="-8.457912000">
        <ele>155.000000</ele>
        <time>2020-10-17T11:44:03Z</time>
      </trkpt>
      <trkpt lat="39.801888000" lon="-8.457905000">
        <ele>155.000000</ele>
        <time>2020-10-17T11:44:04Z</time>
      </trkpt>
      <trkpt lat="39.801729000" lon="-8.457890000">
        <ele>155.200000</ele>
        <time>2020-10-17T11:44:07Z</time>
      </trkpt>
      <trkpt lat="39.801674000" lon="-8.457882000">
        <ele>155.200000</ele>
        <time>2020-10-17T11:44:08Z</time>
      </trkpt>
      <trkpt lat="39.801508000" lon="-8.457848000">
        <ele>155.000000</ele>
        <time>2020-10-17T11:44:11Z</time>
      </trkpt>
      <trkpt lat="39.801454000" lon="-8.457837000">
        <ele>155.200000</ele>
        <time>2020-10-17T11:44:12Z</time>
      </trkpt>
      <trkpt lat="39.801228000" lon="-8.457790000">
        <ele>154.600000</ele>
        <time>2020-10-17T11:44:16Z</time>
      </trkpt>
      <trkpt lat="39.801169000" lon="-8.457796000">
        <ele>154.600000</ele>
        <time>2020-10-17T11:44:17Z</time>
      </trkpt>
      <trkpt lat="39.801108000" lon="-8.457810000">
        <ele>154.400000</ele>
        <time>2020-10-17T11:44:18Z</time>
      </trkpt>
      <trkpt lat="39.801049000" lon="-8.457833000">
        <ele>154.000000</ele>
        <time>2020-10-17T11:44:19Z</time>
      </trkpt>
      <trkpt lat="39.800986000" lon="-8.457859000">
        <ele>153.800000</ele>
        <time>2020-10-17T11:44:20Z</time>
      </trkpt>
      <trkpt lat="39.800921000" lon="-8.457888000">
        <ele>153.400000</ele>
        <time>2020-10-17T11:44:21Z</time>
      </trkpt>
      <trkpt lat="39.800853000" lon="-8.457912000">
        <ele>153.200000</ele>
        <time>2020-10-17T11:44:22Z</time>
      </trkpt>
      <trkpt lat="39.800714000" lon="-8.457935000">
        <ele>152.800000</ele>
        <time>2020-10-17T11:44:24Z</time>
      </trkpt>
      <trkpt lat="39.800645000" lon="-8.457939000">
        <ele>152.600000</ele>
        <time>2020-10-17T11:44:25Z</time>
      </trkpt>
      <trkpt lat="39.800584000" lon="-8.457934000">
        <ele>152.600000</ele>
        <time>2020-10-17T11:44:26Z</time>
      </trkpt>
      <trkpt lat="39.800528000" lon="-8.457925000">
        <ele>152.400000</ele>
        <time>2020-10-17T11:44:27Z</time>
      </trkpt>
      <trkpt lat="39.800478000" lon="-8.457920000">
        <ele>152.400000</ele>
        <time>2020-10-17T11:44:28Z</time>
      </trkpt>
      <trkpt lat="39.800443000" lon="-8.457928000">
        <ele>152.000000</ele>
        <time>2020-10-17T11:44:29Z</time>
      </trkpt>
      <trkpt lat="39.800417000" lon="-8.457947000">
        <ele>150.800000</ele>
        <time>2020-10-17T11:44:30Z</time>
      </trkpt>
      <trkpt lat="39.800401000" lon="-8.457982000">
        <ele>150.200000</ele>
        <time>2020-10-17T11:44:31Z</time>
      </trkpt>
      <trkpt lat="39.800388000" lon="-8.458075000">
        <ele>149.400000</ele>
        <time>2020-10-17T11:44:33Z</time>
      </trkpt>
      <trkpt lat="39.800440000" lon="-8.458212000">
        <ele>147.800000</ele>
        <time>2020-10-17T11:44:36Z</time>
      </trkpt>
      <trkpt lat="39.800474000" lon="-8.458252000">
        <ele>147.000000</ele>
        <time>2020-10-17T11:44:37Z</time>
      </trkpt>
      <trkpt lat="39.800508000" lon="-8.458295000">
        <ele>146.400000</ele>
        <time>2020-10-17T11:44:38Z</time>
      </trkpt>
      <trkpt lat="39.800538000" lon="-8.458344000">
        <ele>146.000000</ele>
        <time>2020-10-17T11:44:39Z</time>
      </trkpt>
      <trkpt lat="39.800565000" lon="-8.458401000">
        <ele>146.000000</ele>
        <time>2020-10-17T11:44:40Z</time>
      </trkpt>
      <trkpt lat="39.800588000" lon="-8.458466000">
        <ele>145.800000</ele>
        <time>2020-10-17T11:44:41Z</time>
      </trkpt>
      <trkpt lat="39.800612000" lon="-8.458615000">
        <ele>145.800000</ele>
        <time>2020-10-17T11:44:43Z</time>
      </trkpt>
      <trkpt lat="39.800614000" lon="-8.458698000">
        <ele>145.600000</ele>
        <time>2020-10-17T11:44:44Z</time>
      </trkpt>
      <trkpt lat="39.800613000" lon="-8.458787000">
        <ele>145.600000</ele>
        <time>2020-10-17T11:44:45Z</time>
      </trkpt>
      <trkpt lat="39.800610000" lon="-8.458876000">
        <ele>145.600000</ele>
        <time>2020-10-17T11:44:46Z</time>
      </trkpt>
      <trkpt lat="39.800589000" lon="-8.459189000">
        <ele>145.400000</ele>
        <time>2020-10-17T11:44:49Z</time>
      </trkpt>
      <trkpt lat="39.800584000" lon="-8.459435000">
        <ele>145.200000</ele>
        <time>2020-10-17T11:44:51Z</time>
      </trkpt>
      <trkpt lat="39.800585000" lon="-8.459565000">
        <ele>145.200000</ele>
        <time>2020-10-17T11:44:52Z</time>
      </trkpt>
      <trkpt lat="39.800590000" lon="-8.459700000">
        <ele>145.000000</ele>
        <time>2020-10-17T11:44:53Z</time>
      </trkpt>
      <trkpt lat="39.800598000" lon="-8.459825000">
        <ele>144.800000</ele>
        <time>2020-10-17T11:44:54Z</time>
      </trkpt>
      <trkpt lat="39.800620000" lon="-8.459937000">
        <ele>144.200000</ele>
        <time>2020-10-17T11:44:55Z</time>
      </trkpt>
      <trkpt lat="39.800664000" lon="-8.460025000">
        <ele>143.600000</ele>
        <time>2020-10-17T11:44:56Z</time>
      </trkpt>
      <trkpt lat="39.800718000" lon="-8.460113000">
        <ele>143.000000</ele>
        <time>2020-10-17T11:44:57Z</time>
      </trkpt>
      <trkpt lat="39.800784000" lon="-8.460191000">
        <ele>142.400000</ele>
        <time>2020-10-17T11:44:58Z</time>
      </trkpt>
      <trkpt lat="39.800864000" lon="-8.460257000">
        <ele>141.800000</ele>
        <time>2020-10-17T11:44:59Z</time>
      </trkpt>
      <trkpt lat="39.800961000" lon="-8.460311000">
        <ele>141.000000</ele>
        <time>2020-10-17T11:45:00Z</time>
      </trkpt>
      <trkpt lat="39.801058000" lon="-8.460362000">
        <ele>139.800000</ele>
        <time>2020-10-17T11:45:01Z</time>
      </trkpt>
      <trkpt lat="39.801163000" lon="-8.460411000">
        <ele>138.600000</ele>
        <time>2020-10-17T11:45:02Z</time>
      </trkpt>
      <trkpt lat="39.801265000" lon="-8.460463000">
        <ele>137.400000</ele>
        <time>2020-10-17T11:45:03Z</time>
      </trkpt>
      <trkpt lat="39.801471000" lon="-8.460563000">
        <ele>135.400000</ele>
        <time>2020-10-17T11:45:05Z</time>
      </trkpt>
      <trkpt lat="39.801576000" lon="-8.460609000">
        <ele>134.400000</ele>
        <time>2020-10-17T11:45:06Z</time>
      </trkpt>
      <trkpt lat="39.801783000" lon="-8.460705000">
        <ele>132.000000</ele>
        <time>2020-10-17T11:45:08Z</time>
      </trkpt>
      <trkpt lat="39.801887000" lon="-8.460753000">
        <ele>130.800000</ele>
        <time>2020-10-17T11:45:09Z</time>
      </trkpt>
      <trkpt lat="39.802085000" lon="-8.460852000">
        <ele>129.600000</ele>
        <time>2020-10-17T11:45:11Z</time>
      </trkpt>
      <trkpt lat="39.802171000" lon="-8.460895000">
        <ele>128.800000</ele>
        <time>2020-10-17T11:45:12Z</time>
      </trkpt>
      <trkpt lat="39.802235000" lon="-8.460931000">
        <ele>128.000000</ele>
        <time>2020-10-17T11:45:13Z</time>
      </trkpt>
      <trkpt lat="39.802267000" lon="-8.460967000">
        <ele>127.600000</ele>
        <time>2020-10-17T11:45:14Z</time>
      </trkpt>
      <trkpt lat="39.802279000" lon="-8.461010000">
        <ele>127.200000</ele>
        <time>2020-10-17T11:45:15Z</time>
      </trkpt>
      <trkpt lat="39.802274000" lon="-8.461059000">
        <ele>126.600000</ele>
        <time>2020-10-17T11:45:16Z</time>
      </trkpt>
      <trkpt lat="39.802256000" lon="-8.461096000">
        <ele>126.000000</ele>
        <time>2020-10-17T11:45:17Z</time>
      </trkpt>
      <trkpt lat="39.802226000" lon="-8.461115000">
        <ele>125.800000</ele>
        <time>2020-10-17T11:45:18Z</time>
      </trkpt>
      <trkpt lat="39.802130000" lon="-8.461117000">
        <ele>124.200000</ele>
        <time>2020-10-17T11:45:20Z</time>
      </trkpt>
      <trkpt lat="39.802072000" lon="-8.461108000">
        <ele>123.800000</ele>
        <time>2020-10-17T11:45:21Z</time>
      </trkpt>
      <trkpt lat="39.801953000" lon="-8.461104000">
        <ele>122.800000</ele>
        <time>2020-10-17T11:45:23Z</time>
      </trkpt>
      <trkpt lat="39.801890000" lon="-8.461107000">
        <ele>122.400000</ele>
        <time>2020-10-17T11:45:24Z</time>
      </trkpt>
      <trkpt lat="39.801824000" lon="-8.461119000">
        <ele>121.800000</ele>
        <time>2020-10-17T11:45:25Z</time>
      </trkpt>
      <trkpt lat="39.801758000" lon="-8.461134000">
        <ele>121.200000</ele>
        <time>2020-10-17T11:45:26Z</time>
      </trkpt>
      <trkpt lat="39.801640000" lon="-8.461181000">
        <ele>121.000000</ele>
        <time>2020-10-17T11:45:28Z</time>
      </trkpt>
      <trkpt lat="39.801588000" lon="-8.461222000">
        <ele>120.800000</ele>
        <time>2020-10-17T11:45:29Z</time>
      </trkpt>
      <trkpt lat="39.801540000" lon="-8.461276000">
        <ele>120.600000</ele>
        <time>2020-10-17T11:45:30Z</time>
      </trkpt>
      <trkpt lat="39.801500000" lon="-8.461342000">
        <ele>120.600000</ele>
        <time>2020-10-17T11:45:31Z</time>
      </trkpt>
      <trkpt lat="39.801467000" lon="-8.461417000">
        <ele>120.400000</ele>
        <time>2020-10-17T11:45:32Z</time>
      </trkpt>
      <trkpt lat="39.801435000" lon="-8.461496000">
        <ele>120.600000</ele>
        <time>2020-10-17T11:45:33Z</time>
      </trkpt>
      <trkpt lat="39.801401000" lon="-8.461575000">
        <ele>120.600000</ele>
        <time>2020-10-17T11:45:34Z</time>
      </trkpt>
      <trkpt lat="39.801308000" lon="-8.461813000">
        <ele>120.400000</ele>
        <time>2020-10-17T11:45:37Z</time>
      </trkpt>
      <trkpt lat="39.801274000" lon="-8.461891000">
        <ele>120.400000</ele>
        <time>2020-10-17T11:45:38Z</time>
      </trkpt>
      <trkpt lat="39.801233000" lon="-8.461973000">
        <ele>120.400000</ele>
        <time>2020-10-17T11:45:39Z</time>
      </trkpt>
      <trkpt lat="39.801185000" lon="-8.462046000">
        <ele>120.200000</ele>
        <time>2020-10-17T11:45:40Z</time>
      </trkpt>
      <trkpt lat="39.801134000" lon="-8.462111000">
        <ele>120.000000</ele>
        <time>2020-10-17T11:45:41Z</time>
      </trkpt>
      <trkpt lat="39.801079000" lon="-8.462172000">
        <ele>119.800000</ele>
        <time>2020-10-17T11:45:42Z</time>
      </trkpt>
      <trkpt lat="39.800957000" lon="-8.462276000">
        <ele>119.800000</ele>
        <time>2020-10-17T11:45:44Z</time>
      </trkpt>
      <trkpt lat="39.800890000" lon="-8.462317000">
        <ele>119.800000</ele>
        <time>2020-10-17T11:45:45Z</time>
      </trkpt>
      <trkpt lat="39.800490000" lon="-8.462552000">
        <ele>119.200000</ele>
        <time>2020-10-17T11:45:51Z</time>
      </trkpt>
      <trkpt lat="39.800359000" lon="-8.462624000">
        <ele>118.800000</ele>
        <time>2020-10-17T11:45:53Z</time>
      </trkpt>
      <trkpt lat="39.800292000" lon="-8.462660000">
        <ele>118.800000</ele>
        <time>2020-10-17T11:45:54Z</time>
      </trkpt>
      <trkpt lat="39.800226000" lon="-8.462698000">
        <ele>118.800000</ele>
        <time>2020-10-17T11:45:55Z</time>
      </trkpt>
      <trkpt lat="39.799893000" lon="-8.462882000">
        <ele>118.400000</ele>
        <time>2020-10-17T11:46:00Z</time>
      </trkpt>
      <trkpt lat="39.799830000" lon="-8.462917000">
        <ele>118.200000</ele>
        <time>2020-10-17T11:46:01Z</time>
      </trkpt>
      <trkpt lat="39.799701000" lon="-8.462986000">
        <ele>118.200000</ele>
        <time>2020-10-17T11:46:03Z</time>
      </trkpt>
      <trkpt lat="39.799566000" lon="-8.463056000">
        <ele>118.200000</ele>
        <time>2020-10-17T11:46:05Z</time>
      </trkpt>
      <trkpt lat="39.799497000" lon="-8.463089000">
        <ele>118.200000</ele>
        <time>2020-10-17T11:46:06Z</time>
      </trkpt>
      <trkpt lat="39.799427000" lon="-8.463119000">
        <ele>118.000000</ele>
        <time>2020-10-17T11:46:07Z</time>
      </trkpt>
      <trkpt lat="39.799357000" lon="-8.463141000">
        <ele>118.200000</ele>
        <time>2020-10-17T11:46:08Z</time>
      </trkpt>
      <trkpt lat="39.799289000" lon="-8.463153000">
        <ele>118.200000</ele>
        <time>2020-10-17T11:46:09Z</time>
      </trkpt>
      <trkpt lat="39.799147000" lon="-8.463162000">
        <ele>118.200000</ele>
        <time>2020-10-17T11:46:11Z</time>
      </trkpt>
      <trkpt lat="39.799003000" lon="-8.463160000">
        <ele>118.200000</ele>
        <time>2020-10-17T11:46:13Z</time>
      </trkpt>
      <trkpt lat="39.798933000" lon="-8.463163000">
        <ele>118.200000</ele>
        <time>2020-10-17T11:46:14Z</time>
      </trkpt>
      <trkpt lat="39.798863000" lon="-8.463171000">
        <ele>118.200000</ele>
        <time>2020-10-17T11:46:15Z</time>
      </trkpt>
      <trkpt lat="39.798580000" lon="-8.463220000">
        <ele>118.000000</ele>
        <time>2020-10-17T11:46:19Z</time>
      </trkpt>
      <trkpt lat="39.798377000" lon="-8.463302000">
        <ele>117.800000</ele>
        <time>2020-10-17T11:46:22Z</time>
      </trkpt>
      <trkpt lat="39.798164000" lon="-8.463413000">
        <ele>117.800000</ele>
        <time>2020-10-17T11:46:25Z</time>
      </trkpt>
      <trkpt lat="39.798095000" lon="-8.463453000">
        <ele>117.600000</ele>
        <time>2020-10-17T11:46:26Z</time>
      </trkpt>
      <trkpt lat="39.797893000" lon="-8.463585000">
        <ele>117.400000</ele>
        <time>2020-10-17T11:46:29Z</time>
      </trkpt>
      <trkpt lat="39.797829000" lon="-8.463625000">
        <ele>117.200000</ele>
        <time>2020-10-17T11:46:30Z</time>
      </trkpt>
      <trkpt lat="39.797766000" lon="-8.463664000">
        <ele>117.200000</ele>
        <time>2020-10-17T11:46:31Z</time>
      </trkpt>
      <trkpt lat="39.797703000" lon="-8.463701000">
        <ele>117.200000</ele>
        <time>2020-10-17T11:46:32Z</time>
      </trkpt>
      <trkpt lat="39.797638000" lon="-8.463730000">
        <ele>117.200000</ele>
        <time>2020-10-17T11:46:33Z</time>
      </trkpt>
      <trkpt lat="39.797575000" lon="-8.463755000">
        <ele>117.200000</ele>
        <time>2020-10-17T11:46:34Z</time>
      </trkpt>
      <trkpt lat="39.797511000" lon="-8.463778000">
        <ele>117.200000</ele>
        <time>2020-10-17T11:46:35Z</time>
      </trkpt>
      <trkpt lat="39.797447000" lon="-8.463798000">
        <ele>117.200000</ele>
        <time>2020-10-17T11:46:36Z</time>
      </trkpt>
      <trkpt lat="39.797383000" lon="-8.463819000">
        <ele>117.200000</ele>
        <time>2020-10-17T11:46:37Z</time>
      </trkpt>
      <trkpt lat="39.797257000" lon="-8.463860000">
        <ele>117.000000</ele>
        <time>2020-10-17T11:46:39Z</time>
      </trkpt>
      <trkpt lat="39.797059000" lon="-8.463915000">
        <ele>117.000000</ele>
        <time>2020-10-17T11:46:42Z</time>
      </trkpt>
      <trkpt lat="39.796995000" lon="-8.463929000">
        <ele>117.000000</ele>
        <time>2020-10-17T11:46:43Z</time>
      </trkpt>
      <trkpt lat="39.796932000" lon="-8.463944000">
        <ele>117.000000</ele>
        <time>2020-10-17T11:46:44Z</time>
      </trkpt>
      <trkpt lat="39.796870000" lon="-8.463962000">
        <ele>117.000000</ele>
        <time>2020-10-17T11:46:45Z</time>
      </trkpt>
      <trkpt lat="39.796809000" lon="-8.463977000">
        <ele>117.000000</ele>
        <time>2020-10-17T11:46:46Z</time>
      </trkpt>
      <trkpt lat="39.796616000" lon="-8.464016000">
        <ele>117.000000</ele>
        <time>2020-10-17T11:46:49Z</time>
      </trkpt>
      <trkpt lat="39.796552000" lon="-8.464028000">
        <ele>117.000000</ele>
        <time>2020-10-17T11:46:50Z</time>
      </trkpt>
      <trkpt lat="39.796424000" lon="-8.464055000">
        <ele>117.000000</ele>
        <time>2020-10-17T11:46:52Z</time>
      </trkpt>
      <trkpt lat="39.796168000" lon="-8.464096000">
        <ele>117.000000</ele>
        <time>2020-10-17T11:46:56Z</time>
      </trkpt>
      <trkpt lat="39.795779000" lon="-8.464210000">
        <ele>117.000000</ele>
        <time>2020-10-17T11:47:02Z</time>
      </trkpt>
      <trkpt lat="39.795368000" lon="-8.464378000">
        <ele>116.600000</ele>
        <time>2020-10-17T11:47:08Z</time>
      </trkpt>
      <trkpt lat="39.795233000" lon="-8.464441000">
        <ele>116.400000</ele>
        <time>2020-10-17T11:47:10Z</time>
      </trkpt>
      <trkpt lat="39.794953000" lon="-8.464565000">
        <ele>116.000000</ele>
        <time>2020-10-17T11:47:14Z</time>
      </trkpt>
      <trkpt lat="39.794886000" lon="-8.464597000">
        <ele>116.200000</ele>
        <time>2020-10-17T11:47:15Z</time>
      </trkpt>
      <trkpt lat="39.794818000" lon="-8.464629000">
        <ele>116.000000</ele>
        <time>2020-10-17T11:47:16Z</time>
      </trkpt>
      <trkpt lat="39.794605000" lon="-8.464709000">
        <ele>115.600000</ele>
        <time>2020-10-17T11:47:19Z</time>
      </trkpt>
      <trkpt lat="39.794536000" lon="-8.464729000">
        <ele>115.600000</ele>
        <time>2020-10-17T11:47:20Z</time>
      </trkpt>
      <trkpt lat="39.794468000" lon="-8.464742000">
        <ele>115.400000</ele>
        <time>2020-10-17T11:47:21Z</time>
      </trkpt>
      <trkpt lat="39.794403000" lon="-8.464748000">
        <ele>115.000000</ele>
        <time>2020-10-17T11:47:22Z</time>
      </trkpt>
      <trkpt lat="39.794336000" lon="-8.464745000">
        <ele>115.200000</ele>
        <time>2020-10-17T11:47:23Z</time>
      </trkpt>
      <trkpt lat="39.794194000" lon="-8.464712000">
        <ele>114.800000</ele>
        <time>2020-10-17T11:47:25Z</time>
      </trkpt>
      <trkpt lat="39.794126000" lon="-8.464690000">
        <ele>114.800000</ele>
        <time>2020-10-17T11:47:26Z</time>
      </trkpt>
      <trkpt lat="39.793997000" lon="-8.464650000">
        <ele>114.800000</ele>
        <time>2020-10-17T11:47:28Z</time>
      </trkpt>
      <trkpt lat="39.793935000" lon="-8.464629000">
        <ele>114.800000</ele>
        <time>2020-10-17T11:47:29Z</time>
      </trkpt>
      <trkpt lat="39.793871000" lon="-8.464607000">
        <ele>114.800000</ele>
        <time>2020-10-17T11:47:30Z</time>
      </trkpt>
      <trkpt lat="39.793738000" lon="-8.464571000">
        <ele>114.800000</ele>
        <time>2020-10-17T11:47:32Z</time>
      </trkpt>
      <trkpt lat="39.793667000" lon="-8.464550000">
        <ele>115.000000</ele>
        <time>2020-10-17T11:47:33Z</time>
      </trkpt>
      <trkpt lat="39.793223000" lon="-8.464484000">
        <ele>116.000000</ele>
        <time>2020-10-17T11:47:39Z</time>
      </trkpt>
      <trkpt lat="39.793144000" lon="-8.464463000">
        <ele>116.000000</ele>
        <time>2020-10-17T11:47:40Z</time>
      </trkpt>
      <trkpt lat="39.792835000" lon="-8.464360000">
        <ele>116.200000</ele>
        <time>2020-10-17T11:47:44Z</time>
      </trkpt>
      <trkpt lat="39.792757000" lon="-8.464333000">
        <ele>116.200000</ele>
        <time>2020-10-17T11:47:45Z</time>
      </trkpt>
      <trkpt lat="39.792677000" lon="-8.464304000">
        <ele>116.200000</ele>
        <time>2020-10-17T11:47:46Z</time>
      </trkpt>
      <trkpt lat="39.792518000" lon="-8.464251000">
        <ele>116.200000</ele>
        <time>2020-10-17T11:47:48Z</time>
      </trkpt>
      <trkpt lat="39.792436000" lon="-8.464225000">
        <ele>116.000000</ele>
        <time>2020-10-17T11:47:49Z</time>
      </trkpt>
      <trkpt lat="39.792360000" lon="-8.464198000">
        <ele>115.600000</ele>
        <time>2020-10-17T11:47:50Z</time>
      </trkpt>
      <trkpt lat="39.792289000" lon="-8.464167000">
        <ele>115.600000</ele>
        <time>2020-10-17T11:47:51Z</time>
      </trkpt>
      <trkpt lat="39.792223000" lon="-8.464131000">
        <ele>115.400000</ele>
        <time>2020-10-17T11:47:52Z</time>
      </trkpt>
      <trkpt lat="39.792158000" lon="-8.464087000">
        <ele>115.200000</ele>
        <time>2020-10-17T11:47:53Z</time>
      </trkpt>
      <trkpt lat="39.792097000" lon="-8.464038000">
        <ele>115.000000</ele>
        <time>2020-10-17T11:47:54Z</time>
      </trkpt>
      <trkpt lat="39.792038000" lon="-8.463988000">
        <ele>115.000000</ele>
        <time>2020-10-17T11:47:55Z</time>
      </trkpt>
      <trkpt lat="39.791976000" lon="-8.463933000">
        <ele>115.000000</ele>
        <time>2020-10-17T11:47:56Z</time>
      </trkpt>
      <trkpt lat="39.791916000" lon="-8.463875000">
        <ele>114.800000</ele>
        <time>2020-10-17T11:47:57Z</time>
      </trkpt>
      <trkpt lat="39.791858000" lon="-8.463817000">
        <ele>114.800000</ele>
        <time>2020-10-17T11:47:58Z</time>
      </trkpt>
      <trkpt lat="39.791803000" lon="-8.463767000">
        <ele>114.800000</ele>
        <time>2020-10-17T11:47:59Z</time>
      </trkpt>
      <trkpt lat="39.791748000" lon="-8.463719000">
        <ele>114.800000</ele>
        <time>2020-10-17T11:48:00Z</time>
      </trkpt>
      <trkpt lat="39.791629000" lon="-8.463635000">
        <ele>114.600000</ele>
        <time>2020-10-17T11:48:02Z</time>
      </trkpt>
      <trkpt lat="39.791490000" lon="-8.463592000">
        <ele>114.600000</ele>
        <time>2020-10-17T11:48:04Z</time>
      </trkpt>
      <trkpt lat="39.791421000" lon="-8.463585000">
        <ele>114.400000</ele>
        <time>2020-10-17T11:48:05Z</time>
      </trkpt>
      <trkpt lat="39.791087000" lon="-8.463528000">
        <ele>114.600000</ele>
        <time>2020-10-17T11:48:10Z</time>
      </trkpt>
      <trkpt lat="39.791022000" lon="-8.463512000">
        <ele>114.600000</ele>
        <time>2020-10-17T11:48:11Z</time>
      </trkpt>
      <trkpt lat="39.790958000" lon="-8.463493000">
        <ele>114.800000</ele>
        <time>2020-10-17T11:48:12Z</time>
      </trkpt>
      <trkpt lat="39.790894000" lon="-8.463472000">
        <ele>114.800000</ele>
        <time>2020-10-17T11:48:13Z</time>
      </trkpt>
      <trkpt lat="39.790829000" lon="-8.463448000">
        <ele>114.800000</ele>
        <time>2020-10-17T11:48:14Z</time>
      </trkpt>
      <trkpt lat="39.790767000" lon="-8.463428000">
        <ele>114.800000</ele>
        <time>2020-10-17T11:48:15Z</time>
      </trkpt>
      <trkpt lat="39.790438000" lon="-8.463325000">
        <ele>114.600000</ele>
        <time>2020-10-17T11:48:20Z</time>
      </trkpt>
      <trkpt lat="39.789966000" lon="-8.463164000">
        <ele>114.600000</ele>
        <time>2020-10-17T11:48:27Z</time>
      </trkpt>
      <trkpt lat="39.789898000" lon="-8.463141000">
        <ele>114.600000</ele>
        <time>2020-10-17T11:48:28Z</time>
      </trkpt>
      <trkpt lat="39.789760000" lon="-8.463093000">
        <ele>114.400000</ele>
        <time>2020-10-17T11:48:30Z</time>
      </trkpt>
      <trkpt lat="39.789626000" lon="-8.463051000">
        <ele>114.600000</ele>
        <time>2020-10-17T11:48:32Z</time>
      </trkpt>
      <trkpt lat="39.789348000" lon="-8.462946000">
        <ele>114.000000</ele>
        <time>2020-10-17T11:48:36Z</time>
      </trkpt>
      <trkpt lat="39.789281000" lon="-8.462914000">
        <ele>113.800000</ele>
        <time>2020-10-17T11:48:37Z</time>
      </trkpt>
      <trkpt lat="39.789083000" lon="-8.462810000">
        <ele>113.600000</ele>
        <time>2020-10-17T11:48:40Z</time>
      </trkpt>
      <trkpt lat="39.789017000" lon="-8.462768000">
        <ele>113.600000</ele>
        <time>2020-10-17T11:48:41Z</time>
      </trkpt>
      <trkpt lat="39.788954000" lon="-8.462725000">
        <ele>113.600000</ele>
        <time>2020-10-17T11:48:42Z</time>
      </trkpt>
      <trkpt lat="39.788897000" lon="-8.462682000">
        <ele>113.600000</ele>
        <time>2020-10-17T11:48:43Z</time>
      </trkpt>
      <trkpt lat="39.788842000" lon="-8.462636000">
        <ele>113.400000</ele>
        <time>2020-10-17T11:48:44Z</time>
      </trkpt>
      <trkpt lat="39.788788000" lon="-8.462589000">
        <ele>113.600000</ele>
        <time>2020-10-17T11:48:45Z</time>
      </trkpt>
      <trkpt lat="39.788734000" lon="-8.462543000">
        <ele>113.400000</ele>
        <time>2020-10-17T11:48:46Z</time>
      </trkpt>
      <trkpt lat="39.788559000" lon="-8.462400000">
        <ele>113.600000</ele>
        <time>2020-10-17T11:48:49Z</time>
      </trkpt>
      <trkpt lat="39.788503000" lon="-8.462358000">
        <ele>113.600000</ele>
        <time>2020-10-17T11:48:50Z</time>
      </trkpt>
      <trkpt lat="39.788444000" lon="-8.462313000">
        <ele>113.600000</ele>
        <time>2020-10-17T11:48:51Z</time>
      </trkpt>
      <trkpt lat="39.788388000" lon="-8.462267000">
        <ele>113.400000</ele>
        <time>2020-10-17T11:48:52Z</time>
      </trkpt>
      <trkpt lat="39.788334000" lon="-8.462225000">
        <ele>113.600000</ele>
        <time>2020-10-17T11:48:53Z</time>
      </trkpt>
      <trkpt lat="39.788279000" lon="-8.462183000">
        <ele>113.600000</ele>
        <time>2020-10-17T11:48:54Z</time>
      </trkpt>
      <trkpt lat="39.788116000" lon="-8.462042000">
        <ele>114.000000</ele>
        <time>2020-10-17T11:48:57Z</time>
      </trkpt>
      <trkpt lat="39.788007000" lon="-8.461945000">
        <ele>114.000000</ele>
        <time>2020-10-17T11:48:59Z</time>
      </trkpt>
      <trkpt lat="39.787663000" lon="-8.461649000">
        <ele>114.200000</ele>
        <time>2020-10-17T11:49:05Z</time>
      </trkpt>
      <trkpt lat="39.787606000" lon="-8.461601000">
        <ele>114.200000</ele>
        <time>2020-10-17T11:49:06Z</time>
      </trkpt>
      <trkpt lat="39.787550000" lon="-8.461556000">
        <ele>114.200000</ele>
        <time>2020-10-17T11:49:07Z</time>
      </trkpt>
      <trkpt lat="39.787494000" lon="-8.461512000">
        <ele>114.200000</ele>
        <time>2020-10-17T11:49:08Z</time>
      </trkpt>
      <trkpt lat="39.787437000" lon="-8.461469000">
        <ele>114.000000</ele>
        <time>2020-10-17T11:49:09Z</time>
      </trkpt>
      <trkpt lat="39.787380000" lon="-8.461423000">
        <ele>114.200000</ele>
        <time>2020-10-17T11:49:10Z</time>
      </trkpt>
      <trkpt lat="39.787269000" lon="-8.461328000">
        <ele>114.200000</ele>
        <time>2020-10-17T11:49:12Z</time>
      </trkpt>
      <trkpt lat="39.787214000" lon="-8.461285000">
        <ele>114.200000</ele>
        <time>2020-10-17T11:49:13Z</time>
      </trkpt>
      <trkpt lat="39.787040000" lon="-8.461164000">
        <ele>114.200000</ele>
        <time>2020-10-17T11:49:16Z</time>
      </trkpt>
      <trkpt lat="39.786982000" lon="-8.461128000">
        <ele>114.200000</ele>
        <time>2020-10-17T11:49:17Z</time>
      </trkpt>
      <trkpt lat="39.786923000" lon="-8.461096000">
        <ele>114.200000</ele>
        <time>2020-10-17T11:49:18Z</time>
      </trkpt>
      <trkpt lat="39.786741000" lon="-8.461000000">
        <ele>114.200000</ele>
        <time>2020-10-17T11:49:21Z</time>
      </trkpt>
      <trkpt lat="39.786683000" lon="-8.460968000">
        <ele>114.400000</ele>
        <time>2020-10-17T11:49:22Z</time>
      </trkpt>
      <trkpt lat="39.786559000" lon="-8.460905000">
        <ele>114.200000</ele>
        <time>2020-10-17T11:49:24Z</time>
      </trkpt>
      <trkpt lat="39.786186000" lon="-8.460715000">
        <ele>114.400000</ele>
        <time>2020-10-17T11:49:30Z</time>
      </trkpt>
      <trkpt lat="39.786127000" lon="-8.460684000">
        <ele>114.600000</ele>
        <time>2020-10-17T11:49:31Z</time>
      </trkpt>
      <trkpt lat="39.786067000" lon="-8.460649000">
        <ele>114.400000</ele>
        <time>2020-10-17T11:49:32Z</time>
      </trkpt>
      <trkpt lat="39.785946000" lon="-8.460586000">
        <ele>114.600000</ele>
        <time>2020-10-17T11:49:34Z</time>
      </trkpt>
      <trkpt lat="39.785887000" lon="-8.460555000">
        <ele>114.400000</ele>
        <time>2020-10-17T11:49:35Z</time>
      </trkpt>
      <trkpt lat="39.785828000" lon="-8.460524000">
        <ele>114.600000</ele>
        <time>2020-10-17T11:49:36Z</time>
      </trkpt>
      <trkpt lat="39.785658000" lon="-8.460428000">
        <ele>114.400000</ele>
        <time>2020-10-17T11:49:39Z</time>
      </trkpt>
      <trkpt lat="39.785602000" lon="-8.460397000">
        <ele>114.400000</ele>
        <time>2020-10-17T11:49:40Z</time>
      </trkpt>
      <trkpt lat="39.785544000" lon="-8.460366000">
        <ele>114.400000</ele>
        <time>2020-10-17T11:49:41Z</time>
      </trkpt>
      <trkpt lat="39.785426000" lon="-8.460308000">
        <ele>114.600000</ele>
        <time>2020-10-17T11:49:43Z</time>
      </trkpt>
      <trkpt lat="39.785250000" lon="-8.460230000">
        <ele>114.800000</ele>
        <time>2020-10-17T11:49:46Z</time>
      </trkpt>
      <trkpt lat="39.785194000" lon="-8.460206000">
        <ele>114.600000</ele>
        <time>2020-10-17T11:49:47Z</time>
      </trkpt>
      <trkpt lat="39.785139000" lon="-8.460181000">
        <ele>114.800000</ele>
        <time>2020-10-17T11:49:48Z</time>
      </trkpt>
      <trkpt lat="39.785087000" lon="-8.460154000">
        <ele>114.600000</ele>
        <time>2020-10-17T11:49:49Z</time>
      </trkpt>
      <trkpt lat="39.785035000" lon="-8.460128000">
        <ele>114.800000</ele>
        <time>2020-10-17T11:49:50Z</time>
      </trkpt>
      <trkpt lat="39.784984000" lon="-8.460101000">
        <ele>115.000000</ele>
        <time>2020-10-17T11:49:51Z</time>
      </trkpt>
      <trkpt lat="39.784775000" lon="-8.459981000">
        <ele>115.400000</ele>
        <time>2020-10-17T11:49:55Z</time>
      </trkpt>
      <trkpt lat="39.784721000" lon="-8.459951000">
        <ele>115.400000</ele>
        <time>2020-10-17T11:49:56Z</time>
      </trkpt>
      <trkpt lat="39.784668000" lon="-8.459924000">
        <ele>115.400000</ele>
        <time>2020-10-17T11:49:57Z</time>
      </trkpt>
      <trkpt lat="39.784509000" lon="-8.459839000">
        <ele>116.000000</ele>
        <time>2020-10-17T11:50:00Z</time>
      </trkpt>
      <trkpt lat="39.784309000" lon="-8.459720000">
        <ele>116.200000</ele>
        <time>2020-10-17T11:50:04Z</time>
      </trkpt>
      <trkpt lat="39.784260000" lon="-8.459687000">
        <ele>116.400000</ele>
        <time>2020-10-17T11:50:05Z</time>
      </trkpt>
      <trkpt lat="39.783980000" lon="-8.459443000">
        <ele>116.600000</ele>
        <time>2020-10-17T11:50:11Z</time>
      </trkpt>
      <trkpt lat="39.783940000" lon="-8.459397000">
        <ele>116.600000</ele>
        <time>2020-10-17T11:50:12Z</time>
      </trkpt>
      <trkpt lat="39.783902000" lon="-8.459350000">
        <ele>116.600000</ele>
        <time>2020-10-17T11:50:13Z</time>
      </trkpt>
      <trkpt lat="39.783867000" lon="-8.459303000">
        <ele>116.600000</ele>
        <time>2020-10-17T11:50:14Z</time>
      </trkpt>
      <trkpt lat="39.783755000" lon="-8.459152000">
        <ele>116.400000</ele>
        <time>2020-10-17T11:50:17Z</time>
      </trkpt>
      <trkpt lat="39.783718000" lon="-8.459102000">
        <ele>116.600000</ele>
        <time>2020-10-17T11:50:18Z</time>
      </trkpt>
      <trkpt lat="39.783643000" lon="-8.459000000">
        <ele>116.600000</ele>
        <time>2020-10-17T11:50:20Z</time>
      </trkpt>
      <trkpt lat="39.783606000" lon="-8.458949000">
        <ele>116.400000</ele>
        <time>2020-10-17T11:50:21Z</time>
      </trkpt>
      <trkpt lat="39.783534000" lon="-8.458850000">
        <ele>116.400000</ele>
        <time>2020-10-17T11:50:23Z</time>
      </trkpt>
      <trkpt lat="39.783501000" lon="-8.458803000">
        <ele>116.600000</ele>
        <time>2020-10-17T11:50:24Z</time>
      </trkpt>
      <trkpt lat="39.783470000" lon="-8.458756000">
        <ele>116.600000</ele>
        <time>2020-10-17T11:50:25Z</time>
      </trkpt>
      <trkpt lat="39.783442000" lon="-8.458713000">
        <ele>116.800000</ele>
        <time>2020-10-17T11:50:26Z</time>
      </trkpt>
      <trkpt lat="39.783415000" lon="-8.458674000">
        <ele>116.800000</ele>
        <time>2020-10-17T11:50:27Z</time>
      </trkpt>
      <trkpt lat="39.783389000" lon="-8.458634000">
        <ele>116.600000</ele>
        <time>2020-10-17T11:50:28Z</time>
      </trkpt>
      <trkpt lat="39.783362000" lon="-8.458598000">
        <ele>116.800000</ele>
        <time>2020-10-17T11:50:29Z</time>
      </trkpt>
      <trkpt lat="39.783335000" lon="-8.458563000">
        <ele>117.000000</ele>
        <time>2020-10-17T11:50:30Z</time>
      </trkpt>
      <trkpt lat="39.783308000" lon="-8.458532000">
        <ele>117.000000</ele>
        <time>2020-10-17T11:50:31Z</time>
      </trkpt>
      <trkpt lat="39.783279000" lon="-8.458505000">
        <ele>117.200000</ele>
        <time>2020-10-17T11:50:32Z</time>
      </trkpt>
      <trkpt lat="39.783249000" lon="-8.458482000">
        <ele>117.400000</ele>
        <time>2020-10-17T11:50:33Z</time>
      </trkpt>
      <trkpt lat="39.783216000" lon="-8.458458000">
        <ele>117.400000</ele>
        <time>2020-10-17T11:50:34Z</time>
      </trkpt>
      <trkpt lat="39.783185000" lon="-8.458437000">
        <ele>117.800000</ele>
        <time>2020-10-17T11:50:35Z</time>
      </trkpt>
      <trkpt lat="39.783153000" lon="-8.458417000">
        <ele>118.200000</ele>
        <time>2020-10-17T11:50:36Z</time>
      </trkpt>
      <trkpt lat="39.783120000" lon="-8.458398000">
        <ele>118.400000</ele>
        <time>2020-10-17T11:50:37Z</time>
      </trkpt>
      <trkpt lat="39.783086000" lon="-8.458385000">
        <ele>119.000000</ele>
        <time>2020-10-17T11:50:38Z</time>
      </trkpt>
      <trkpt lat="39.783052000" lon="-8.458377000">
        <ele>119.200000</ele>
        <time>2020-10-17T11:50:39Z</time>
      </trkpt>
      <trkpt lat="39.783020000" lon="-8.458374000">
        <ele>119.600000</ele>
        <time>2020-10-17T11:50:40Z</time>
      </trkpt>
      <trkpt lat="39.782989000" lon="-8.458373000">
        <ele>120.000000</ele>
        <time>2020-10-17T11:50:41Z</time>
      </trkpt>
      <trkpt lat="39.782949000" lon="-8.458368000">
        <ele>120.200000</ele>
        <time>2020-10-17T11:50:42Z</time>
      </trkpt>
      <trkpt lat="39.782911000" lon="-8.458369000">
        <ele>120.400000</ele>
        <time>2020-10-17T11:50:43Z</time>
      </trkpt>
      <trkpt lat="39.782873000" lon="-8.458371000">
        <ele>120.800000</ele>
        <time>2020-10-17T11:50:44Z</time>
      </trkpt>
      <trkpt lat="39.782833000" lon="-8.458373000">
        <ele>121.400000</ele>
        <time>2020-10-17T11:50:45Z</time>
      </trkpt>
      <trkpt lat="39.782794000" lon="-8.458373000">
        <ele>121.600000</ele>
        <time>2020-10-17T11:50:46Z</time>
      </trkpt>
      <trkpt lat="39.782754000" lon="-8.458374000">
        <ele>121.600000</ele>
        <time>2020-10-17T11:50:47Z</time>
      </trkpt>
      <trkpt lat="39.782717000" lon="-8.458377000">
        <ele>121.800000</ele>
        <time>2020-10-17T11:50:48Z</time>
      </trkpt>
      <trkpt lat="39.782677000" lon="-8.458377000">
        <ele>121.800000</ele>
        <time>2020-10-17T11:50:49Z</time>
      </trkpt>
      <trkpt lat="39.782638000" lon="-8.458377000">
        <ele>122.000000</ele>
        <time>2020-10-17T11:50:50Z</time>
      </trkpt>
      <trkpt lat="39.782595000" lon="-8.458374000">
        <ele>122.400000</ele>
        <time>2020-10-17T11:50:51Z</time>
      </trkpt>
      <trkpt lat="39.782554000" lon="-8.458375000">
        <ele>122.600000</ele>
        <time>2020-10-17T11:50:52Z</time>
      </trkpt>
      <trkpt lat="39.782517000" lon="-8.458377000">
        <ele>122.600000</ele>
        <time>2020-10-17T11:50:53Z</time>
      </trkpt>
      <trkpt lat="39.782479000" lon="-8.458376000">
        <ele>122.800000</ele>
        <time>2020-10-17T11:50:54Z</time>
      </trkpt>
      <trkpt lat="39.782441000" lon="-8.458371000">
        <ele>122.800000</ele>
        <time>2020-10-17T11:50:55Z</time>
      </trkpt>
      <trkpt lat="39.782405000" lon="-8.458366000">
        <ele>122.800000</ele>
        <time>2020-10-17T11:50:56Z</time>
      </trkpt>
      <trkpt lat="39.782370000" lon="-8.458361000">
        <ele>123.200000</ele>
        <time>2020-10-17T11:50:57Z</time>
      </trkpt>
      <trkpt lat="39.782334000" lon="-8.458357000">
        <ele>123.400000</ele>
        <time>2020-10-17T11:50:58Z</time>
      </trkpt>
      <trkpt lat="39.782297000" lon="-8.458354000">
        <ele>123.600000</ele>
        <time>2020-10-17T11:50:59Z</time>
      </trkpt>
      <trkpt lat="39.782263000" lon="-8.458352000">
        <ele>123.800000</ele>
        <time>2020-10-17T11:51:00Z</time>
      </trkpt>
      <trkpt lat="39.782231000" lon="-8.458348000">
        <ele>123.800000</ele>
        <time>2020-10-17T11:51:01Z</time>
      </trkpt>
      <trkpt lat="39.782201000" lon="-8.458344000">
        <ele>123.800000</ele>
        <time>2020-10-17T11:51:02Z</time>
      </trkpt>
      <trkpt lat="39.782180000" lon="-8.458341000">
        <ele>124.000000</ele>
        <time>2020-10-17T11:51:03Z</time>
      </trkpt>
      <trkpt lat="39.782154000" lon="-8.458334000">
        <ele>124.200000</ele>
        <time>2020-10-17T11:51:04Z</time>
      </trkpt>
      <trkpt lat="39.782127000" lon="-8.458327000">
        <ele>124.400000</ele>
        <time>2020-10-17T11:51:05Z</time>
      </trkpt>
      <trkpt lat="39.782100000" lon="-8.458321000">
        <ele>124.600000</ele>
        <time>2020-10-17T11:51:06Z</time>
      </trkpt>
      <trkpt lat="39.782074000" lon="-8.458313000">
        <ele>124.800000</ele>
        <time>2020-10-17T11:51:07Z</time>
      </trkpt>
      <trkpt lat="39.782050000" lon="-8.458304000">
        <ele>125.000000</ele>
        <time>2020-10-17T11:51:08Z</time>
      </trkpt>
      <trkpt lat="39.782025000" lon="-8.458295000">
        <ele>125.200000</ele>
        <time>2020-10-17T11:51:09Z</time>
      </trkpt>
      <trkpt lat="39.781996000" lon="-8.458285000">
        <ele>125.400000</ele>
        <time>2020-10-17T11:51:10Z</time>
      </trkpt>
      <trkpt lat="39.781968000" lon="-8.458273000">
        <ele>125.400000</ele>
        <time>2020-10-17T11:51:11Z</time>
      </trkpt>
      <trkpt lat="39.781942000" lon="-8.458260000">
        <ele>125.400000</ele>
        <time>2020-10-17T11:51:12Z</time>
      </trkpt>
      <trkpt lat="39.781917000" lon="-8.458244000">
        <ele>125.600000</ele>
        <time>2020-10-17T11:51:13Z</time>
      </trkpt>
      <trkpt lat="39.781891000" lon="-8.458228000">
        <ele>125.800000</ele>
        <time>2020-10-17T11:51:14Z</time>
      </trkpt>
      <trkpt lat="39.781864000" lon="-8.458210000">
        <ele>126.000000</ele>
        <time>2020-10-17T11:51:15Z</time>
      </trkpt>
      <trkpt lat="39.781841000" lon="-8.458193000">
        <ele>126.200000</ele>
        <time>2020-10-17T11:51:16Z</time>
      </trkpt>
      <trkpt lat="39.781819000" lon="-8.458176000">
        <ele>126.200000</ele>
        <time>2020-10-17T11:51:17Z</time>
      </trkpt>
      <trkpt lat="39.781799000" lon="-8.458159000">
        <ele>126.400000</ele>
        <time>2020-10-17T11:51:18Z</time>
      </trkpt>
      <trkpt lat="39.781781000" lon="-8.458142000">
        <ele>126.600000</ele>
        <time>2020-10-17T11:51:19Z</time>
      </trkpt>
      <trkpt lat="39.781762000" lon="-8.458126000">
        <ele>126.600000</ele>
        <time>2020-10-17T11:51:20Z</time>
      </trkpt>
      <trkpt lat="39.781740000" lon="-8.458109000">
        <ele>126.800000</ele>
        <time>2020-10-17T11:51:21Z</time>
      </trkpt>
      <trkpt lat="39.781719000" lon="-8.458090000">
        <ele>127.000000</ele>
        <time>2020-10-17T11:51:22Z</time>
      </trkpt>
      <trkpt lat="39.781698000" lon="-8.458072000">
        <ele>127.200000</ele>
        <time>2020-10-17T11:51:23Z</time>
      </trkpt>
      <trkpt lat="39.781676000" lon="-8.458058000">
        <ele>127.400000</ele>
        <time>2020-10-17T11:51:24Z</time>
      </trkpt>
      <trkpt lat="39.781650000" lon="-8.458047000">
        <ele>127.400000</ele>
        <time>2020-10-17T11:51:25Z</time>
      </trkpt>
      <trkpt lat="39.781620000" lon="-8.458039000">
        <ele>127.800000</ele>
        <time>2020-10-17T11:51:26Z</time>
      </trkpt>
      <trkpt lat="39.781587000" lon="-8.458028000">
        <ele>128.000000</ele>
        <time>2020-10-17T11:51:27Z</time>
      </trkpt>
      <trkpt lat="39.781548000" lon="-8.458013000">
        <ele>128.000000</ele>
        <time>2020-10-17T11:51:28Z</time>
      </trkpt>
      <trkpt lat="39.781508000" lon="-8.457996000">
        <ele>128.400000</ele>
        <time>2020-10-17T11:51:29Z</time>
      </trkpt>
      <trkpt lat="39.781467000" lon="-8.457977000">
        <ele>128.600000</ele>
        <time>2020-10-17T11:51:30Z</time>
      </trkpt>
      <trkpt lat="39.781428000" lon="-8.457957000">
        <ele>128.600000</ele>
        <time>2020-10-17T11:51:31Z</time>
      </trkpt>
      <trkpt lat="39.781389000" lon="-8.457937000">
        <ele>128.800000</ele>
        <time>2020-10-17T11:51:32Z</time>
      </trkpt>
      <trkpt lat="39.781352000" lon="-8.457918000">
        <ele>128.800000</ele>
        <time>2020-10-17T11:51:33Z</time>
      </trkpt>
      <trkpt lat="39.781318000" lon="-8.457904000">
        <ele>128.800000</ele>
        <time>2020-10-17T11:51:34Z</time>
      </trkpt>
      <trkpt lat="39.781282000" lon="-8.457892000">
        <ele>128.800000</ele>
        <time>2020-10-17T11:51:35Z</time>
      </trkpt>
      <trkpt lat="39.781246000" lon="-8.457882000">
        <ele>129.000000</ele>
        <time>2020-10-17T11:51:36Z</time>
      </trkpt>
      <trkpt lat="39.781213000" lon="-8.457877000">
        <ele>128.800000</ele>
        <time>2020-10-17T11:51:37Z</time>
      </trkpt>
      <trkpt lat="39.781181000" lon="-8.457872000">
        <ele>129.000000</ele>
        <time>2020-10-17T11:51:38Z</time>
      </trkpt>
      <trkpt lat="39.781152000" lon="-8.457868000">
        <ele>129.000000</ele>
        <time>2020-10-17T11:51:39Z</time>
      </trkpt>
      <trkpt lat="39.781126000" lon="-8.457865000">
        <ele>129.000000</ele>
        <time>2020-10-17T11:51:40Z</time>
      </trkpt>
      <trkpt lat="39.781102000" lon="-8.457865000">
        <ele>129.200000</ele>
        <time>2020-10-17T11:51:41Z</time>
      </trkpt>
      <trkpt lat="39.781078000" lon="-8.457871000">
        <ele>129.200000</ele>
        <time>2020-10-17T11:51:42Z</time>
      </trkpt>
      <trkpt lat="39.781054000" lon="-8.457877000">
        <ele>129.400000</ele>
        <time>2020-10-17T11:51:43Z</time>
      </trkpt>
      <trkpt lat="39.781037000" lon="-8.457887000">
        <ele>129.600000</ele>
        <time>2020-10-17T11:51:44Z</time>
      </trkpt>
      <trkpt lat="39.781027000" lon="-8.457899000">
        <ele>129.600000</ele>
        <time>2020-10-17T11:51:45Z</time>
      </trkpt>
      <trkpt lat="39.781020000" lon="-8.457906000">
        <ele>129.600000</ele>
        <time>2020-10-17T11:51:46Z</time>
      </trkpt>
      <trkpt lat="39.781015000" lon="-8.457909000">
        <ele>129.600000</ele>
        <time>2020-10-17T11:51:47Z</time>
      </trkpt>
      <trkpt lat="39.781014000" lon="-8.457911000">
        <ele>130.000000</ele>
        <time>2020-10-17T11:51:49Z</time>
      </trkpt>
      <trkpt lat="39.781005000" lon="-8.458021000">
        <ele>130.400000</ele>
        <time>2020-10-17T11:51:55Z</time>
      </trkpt>
      <trkpt lat="39.781017000" lon="-8.458047000">
        <ele>130.400000</ele>
        <time>2020-10-17T11:51:56Z</time>
      </trkpt>
      <trkpt lat="39.781031000" lon="-8.458073000">
        <ele>130.200000</ele>
        <time>2020-10-17T11:51:57Z</time>
      </trkpt>
      <trkpt lat="39.781091000" lon="-8.458192000">
        <ele>130.400000</ele>
        <time>2020-10-17T11:52:01Z</time>
      </trkpt>
      <trkpt lat="39.781098000" lon="-8.458209000">
        <ele>130.400000</ele>
        <time>2020-10-17T11:52:02Z</time>
      </trkpt>
      <trkpt lat="39.781105000" lon="-8.458220000">
        <ele>130.400000</ele>
        <time>2020-10-17T11:52:03Z</time>
      </trkpt>
      <trkpt lat="39.781107000" lon="-8.458229000">
        <ele>130.400000</ele>
        <time>2020-10-17T11:52:05Z</time>
      </trkpt>
      <trkpt lat="39.781142000" lon="-8.458357000">
        <ele>130.800000</ele>
        <time>2020-10-17T11:52:36Z</time>
      </trkpt>
      <trkpt lat="39.781174000" lon="-8.458426000">
        <ele>130.600000</ele>
        <time>2020-10-17T11:52:38Z</time>
      </trkpt>
      <trkpt lat="39.781208000" lon="-8.458519000">
        <ele>130.600000</ele>
        <time>2020-10-17T11:52:40Z</time>
      </trkpt>
      <trkpt lat="39.781215000" lon="-8.458573000">
        <ele>130.600000</ele>
        <time>2020-10-17T11:52:41Z</time>
      </trkpt>
      <trkpt lat="39.781218000" lon="-8.458634000">
        <ele>130.600000</ele>
        <time>2020-10-17T11:52:42Z</time>
      </trkpt>
      <trkpt lat="39.781214000" lon="-8.458700000">
        <ele>130.600000</ele>
        <time>2020-10-17T11:52:43Z</time>
      </trkpt>
      <trkpt lat="39.781191000" lon="-8.458757000">
        <ele>130.600000</ele>
        <time>2020-10-17T11:52:44Z</time>
      </trkpt>
      <trkpt lat="39.781160000" lon="-8.458806000">
        <ele>130.600000</ele>
        <time>2020-10-17T11:52:45Z</time>
      </trkpt>
      <trkpt lat="39.781124000" lon="-8.458850000">
        <ele>130.400000</ele>
        <time>2020-10-17T11:52:46Z</time>
      </trkpt>
      <trkpt lat="39.781087000" lon="-8.458892000">
        <ele>130.400000</ele>
        <time>2020-10-17T11:52:47Z</time>
      </trkpt>
      <trkpt lat="39.781045000" lon="-8.458934000">
        <ele>130.400000</ele>
        <time>2020-10-17T11:52:48Z</time>
      </trkpt>
      <trkpt lat="39.780994000" lon="-8.458972000">
        <ele>130.200000</ele>
        <time>2020-10-17T11:52:49Z</time>
      </trkpt>
      <trkpt lat="39.780942000" lon="-8.459010000">
        <ele>130.000000</ele>
        <time>2020-10-17T11:52:50Z</time>
      </trkpt>
      <trkpt lat="39.780884000" lon="-8.459046000">
        <ele>129.800000</ele>
        <time>2020-10-17T11:52:51Z</time>
      </trkpt>
      <trkpt lat="39.780814000" lon="-8.459082000">
        <ele>129.400000</ele>
        <time>2020-10-17T11:52:52Z</time>
      </trkpt>
      <trkpt lat="39.780746000" lon="-8.459117000">
        <ele>129.200000</ele>
        <time>2020-10-17T11:52:53Z</time>
      </trkpt>
      <trkpt lat="39.780664000" lon="-8.459146000">
        <ele>129.200000</ele>
        <time>2020-10-17T11:52:54Z</time>
      </trkpt>
      <trkpt lat="39.780579000" lon="-8.459178000">
        <ele>128.800000</ele>
        <time>2020-10-17T11:52:55Z</time>
      </trkpt>
      <trkpt lat="39.780326000" lon="-8.459285000">
        <ele>127.800000</ele>
        <time>2020-10-17T11:52:58Z</time>
      </trkpt>
      <trkpt lat="39.780244000" lon="-8.459322000">
        <ele>127.400000</ele>
        <time>2020-10-17T11:52:59Z</time>
      </trkpt>
      <trkpt lat="39.780168000" lon="-8.459362000">
        <ele>126.800000</ele>
        <time>2020-10-17T11:53:00Z</time>
      </trkpt>
      <trkpt lat="39.780096000" lon="-8.459379000">
        <ele>126.400000</ele>
        <time>2020-10-17T11:53:01Z</time>
      </trkpt>
      <trkpt lat="39.780031000" lon="-8.459398000">
        <ele>125.800000</ele>
        <time>2020-10-17T11:53:02Z</time>
      </trkpt>
      <trkpt lat="39.779974000" lon="-8.459415000">
        <ele>124.600000</ele>
        <time>2020-10-17T11:53:03Z</time>
      </trkpt>
      <trkpt lat="39.779922000" lon="-8.459425000">
        <ele>124.600000</ele>
        <time>2020-10-17T11:53:04Z</time>
      </trkpt>
      <trkpt lat="39.779864000" lon="-8.459435000">
        <ele>123.800000</ele>
        <time>2020-10-17T11:53:05Z</time>
      </trkpt>
      <trkpt lat="39.779736000" lon="-8.459457000">
        <ele>123.000000</ele>
        <time>2020-10-17T11:53:07Z</time>
      </trkpt>
      <trkpt lat="39.779668000" lon="-8.459464000">
        <ele>122.600000</ele>
        <time>2020-10-17T11:53:08Z</time>
      </trkpt>
      <trkpt lat="39.779596000" lon="-8.459459000">
        <ele>122.600000</ele>
        <time>2020-10-17T11:53:09Z</time>
      </trkpt>
      <trkpt lat="39.779530000" lon="-8.459446000">
        <ele>122.200000</ele>
        <time>2020-10-17T11:53:10Z</time>
      </trkpt>
      <trkpt lat="39.779470000" lon="-8.459416000">
        <ele>122.000000</ele>
        <time>2020-10-17T11:53:11Z</time>
      </trkpt>
      <trkpt lat="39.779410000" lon="-8.459365000">
        <ele>122.000000</ele>
        <time>2020-10-17T11:53:12Z</time>
      </trkpt>
      <trkpt lat="39.779353000" lon="-8.459316000">
        <ele>121.600000</ele>
        <time>2020-10-17T11:53:13Z</time>
      </trkpt>
      <trkpt lat="39.779293000" lon="-8.459280000">
        <ele>121.600000</ele>
        <time>2020-10-17T11:53:14Z</time>
      </trkpt>
      <trkpt lat="39.779226000" lon="-8.459264000">
        <ele>121.400000</ele>
        <time>2020-10-17T11:53:15Z</time>
      </trkpt>
      <trkpt lat="39.779160000" lon="-8.459275000">
        <ele>121.000000</ele>
        <time>2020-10-17T11:53:16Z</time>
      </trkpt>
      <trkpt lat="39.779095000" lon="-8.459305000">
        <ele>120.600000</ele>
        <time>2020-10-17T11:53:17Z</time>
      </trkpt>
      <trkpt lat="39.779033000" lon="-8.459357000">
        <ele>119.800000</ele>
        <time>2020-10-17T11:53:18Z</time>
      </trkpt>
      <trkpt lat="39.778969000" lon="-8.459418000">
        <ele>119.600000</ele>
        <time>2020-10-17T11:53:19Z</time>
      </trkpt>
      <trkpt lat="39.778901000" lon="-8.459475000">
        <ele>119.200000</ele>
        <time>2020-10-17T11:53:20Z</time>
      </trkpt>
      <trkpt lat="39.778827000" lon="-8.459519000">
        <ele>119.000000</ele>
        <time>2020-10-17T11:53:21Z</time>
      </trkpt>
      <trkpt lat="39.778677000" lon="-8.459560000">
        <ele>118.600000</ele>
        <time>2020-10-17T11:53:23Z</time>
      </trkpt>
      <trkpt lat="39.778606000" lon="-8.459559000">
        <ele>116.800000</ele>
        <time>2020-10-17T11:53:24Z</time>
      </trkpt>
      <trkpt lat="39.778537000" lon="-8.459547000">
        <ele>115.200000</ele>
        <time>2020-10-17T11:53:25Z</time>
      </trkpt>
      <trkpt lat="39.778479000" lon="-8.459526000">
        <ele>115.200000</ele>
        <time>2020-10-17T11:53:26Z</time>
      </trkpt>
      <trkpt lat="39.778427000" lon="-8.459504000">
        <ele>114.400000</ele>
        <time>2020-10-17T11:53:27Z</time>
      </trkpt>
      <trkpt lat="39.778380000" lon="-8.459482000">
        <ele>113.800000</ele>
        <time>2020-10-17T11:53:28Z</time>
      </trkpt>
      <trkpt lat="39.778340000" lon="-8.459469000">
        <ele>113.200000</ele>
        <time>2020-10-17T11:53:29Z</time>
      </trkpt>
      <trkpt lat="39.778297000" lon="-8.459455000">
        <ele>113.000000</ele>
        <time>2020-10-17T11:53:30Z</time>
      </trkpt>
      <trkpt lat="39.778267000" lon="-8.459454000">
        <ele>112.800000</ele>
        <time>2020-10-17T11:53:31Z</time>
      </trkpt>
      <trkpt lat="39.778236000" lon="-8.459458000">
        <ele>112.600000</ele>
        <time>2020-10-17T11:53:32Z</time>
      </trkpt>
      <trkpt lat="39.778206000" lon="-8.459465000">
        <ele>112.600000</ele>
        <time>2020-10-17T11:53:33Z</time>
      </trkpt>
      <trkpt lat="39.778177000" lon="-8.459477000">
        <ele>112.400000</ele>
        <time>2020-10-17T11:53:34Z</time>
      </trkpt>
      <trkpt lat="39.778146000" lon="-8.459489000">
        <ele>112.600000</ele>
        <time>2020-10-17T11:53:35Z</time>
      </trkpt>
      <trkpt lat="39.778100000" lon="-8.459489000">
        <ele>112.600000</ele>
        <time>2020-10-17T11:53:36Z</time>
      </trkpt>
      <trkpt lat="39.777955000" lon="-8.459492000">
        <ele>112.000000</ele>
        <time>2020-10-17T11:53:39Z</time>
      </trkpt>
      <trkpt lat="39.777901000" lon="-8.459494000">
        <ele>112.200000</ele>
        <time>2020-10-17T11:53:40Z</time>
      </trkpt>
      <trkpt lat="39.777843000" lon="-8.459494000">
        <ele>112.000000</ele>
        <time>2020-10-17T11:53:41Z</time>
      </trkpt>
      <trkpt lat="39.777782000" lon="-8.459493000">
        <ele>111.800000</ele>
        <time>2020-10-17T11:53:42Z</time>
      </trkpt>
      <trkpt lat="39.777563000" lon="-8.459465000">
        <ele>111.400000</ele>
        <time>2020-10-17T11:53:46Z</time>
      </trkpt>
      <trkpt lat="39.777510000" lon="-8.459450000">
        <ele>111.600000</ele>
        <time>2020-10-17T11:53:47Z</time>
      </trkpt>
      <trkpt lat="39.777402000" lon="-8.459408000">
        <ele>111.400000</ele>
        <time>2020-10-17T11:53:49Z</time>
      </trkpt>
      <trkpt lat="39.777235000" lon="-8.459316000">
        <ele>111.000000</ele>
        <time>2020-10-17T11:53:52Z</time>
      </trkpt>
      <trkpt lat="39.777180000" lon="-8.459276000">
        <ele>110.800000</ele>
        <time>2020-10-17T11:53:53Z</time>
      </trkpt>
      <trkpt lat="39.777128000" lon="-8.459235000">
        <ele>110.800000</ele>
        <time>2020-10-17T11:53:54Z</time>
      </trkpt>
      <trkpt lat="39.777076000" lon="-8.459193000">
        <ele>110.800000</ele>
        <time>2020-10-17T11:53:55Z</time>
      </trkpt>
      <trkpt lat="39.777028000" lon="-8.459154000">
        <ele>110.600000</ele>
        <time>2020-10-17T11:53:56Z</time>
      </trkpt>
      <trkpt lat="39.776827000" lon="-8.459002000">
        <ele>110.600000</ele>
        <time>2020-10-17T11:54:00Z</time>
      </trkpt>
      <trkpt lat="39.776776000" lon="-8.458972000">
        <ele>110.400000</ele>
        <time>2020-10-17T11:54:01Z</time>
      </trkpt>
      <trkpt lat="39.776724000" lon="-8.458945000">
        <ele>110.400000</ele>
        <time>2020-10-17T11:54:02Z</time>
      </trkpt>
      <trkpt lat="39.776441000" lon="-8.458828000">
        <ele>110.400000</ele>
        <time>2020-10-17T11:54:07Z</time>
      </trkpt>
      <trkpt lat="39.776383000" lon="-8.458815000">
        <ele>110.400000</ele>
        <time>2020-10-17T11:54:08Z</time>
      </trkpt>
      <trkpt lat="39.776326000" lon="-8.458807000">
        <ele>110.400000</ele>
        <time>2020-10-17T11:54:09Z</time>
      </trkpt>
      <trkpt lat="39.776271000" lon="-8.458803000">
        <ele>110.400000</ele>
        <time>2020-10-17T11:54:10Z</time>
      </trkpt>
      <trkpt lat="39.776215000" lon="-8.458800000">
        <ele>110.400000</ele>
        <time>2020-10-17T11:54:11Z</time>
      </trkpt>
      <trkpt lat="39.776149000" lon="-8.458789000">
        <ele>110.400000</ele>
        <time>2020-10-17T11:54:12Z</time>
      </trkpt>
      <trkpt lat="39.776023000" lon="-8.458773000">
        <ele>110.200000</ele>
        <time>2020-10-17T11:54:14Z</time>
      </trkpt>
      <trkpt lat="39.775960000" lon="-8.458763000">
        <ele>110.200000</ele>
        <time>2020-10-17T11:54:15Z</time>
      </trkpt>
      <trkpt lat="39.775902000" lon="-8.458755000">
        <ele>110.200000</ele>
        <time>2020-10-17T11:54:16Z</time>
      </trkpt>
      <trkpt lat="39.775660000" lon="-8.458703000">
        <ele>109.200000</ele>
        <time>2020-10-17T11:54:20Z</time>
      </trkpt>
      <trkpt lat="39.775600000" lon="-8.458690000">
        <ele>109.200000</ele>
        <time>2020-10-17T11:54:21Z</time>
      </trkpt>
      <trkpt lat="39.775542000" lon="-8.458677000">
        <ele>109.000000</ele>
        <time>2020-10-17T11:54:22Z</time>
      </trkpt>
      <trkpt lat="39.775426000" lon="-8.458648000">
        <ele>109.000000</ele>
        <time>2020-10-17T11:54:24Z</time>
      </trkpt>
      <trkpt lat="39.775371000" lon="-8.458636000">
        <ele>108.800000</ele>
        <time>2020-10-17T11:54:25Z</time>
      </trkpt>
      <trkpt lat="39.775319000" lon="-8.458633000">
        <ele>109.000000</ele>
        <time>2020-10-17T11:54:26Z</time>
      </trkpt>
      <trkpt lat="39.775270000" lon="-8.458632000">
        <ele>109.000000</ele>
        <time>2020-10-17T11:54:27Z</time>
      </trkpt>
      <trkpt lat="39.775230000" lon="-8.458635000">
        <ele>109.200000</ele>
        <time>2020-10-17T11:54:28Z</time>
      </trkpt>
      <trkpt lat="39.775185000" lon="-8.458636000">
        <ele>109.200000</ele>
        <time>2020-10-17T11:54:29Z</time>
      </trkpt>
      <trkpt lat="39.775141000" lon="-8.458636000">
        <ele>109.200000</ele>
        <time>2020-10-17T11:54:30Z</time>
      </trkpt>
      <trkpt lat="39.775016000" lon="-8.458615000">
        <ele>108.800000</ele>
        <time>2020-10-17T11:54:32Z</time>
      </trkpt>
      <trkpt lat="39.774950000" lon="-8.458599000">
        <ele>109.200000</ele>
        <time>2020-10-17T11:54:33Z</time>
      </trkpt>
      <trkpt lat="39.774585000" lon="-8.458467000">
        <ele>109.800000</ele>
        <time>2020-10-17T11:54:39Z</time>
      </trkpt>
      <trkpt lat="39.774527000" lon="-8.458443000">
        <ele>109.600000</ele>
        <time>2020-10-17T11:54:40Z</time>
      </trkpt>
      <trkpt lat="39.774468000" lon="-8.458419000">
        <ele>109.800000</ele>
        <time>2020-10-17T11:54:41Z</time>
      </trkpt>
      <trkpt lat="39.774411000" lon="-8.458392000">
        <ele>109.800000</ele>
        <time>2020-10-17T11:54:42Z</time>
      </trkpt>
      <trkpt lat="39.774355000" lon="-8.458366000">
        <ele>109.600000</ele>
        <time>2020-10-17T11:54:43Z</time>
      </trkpt>
      <trkpt lat="39.774299000" lon="-8.458338000">
        <ele>109.600000</ele>
        <time>2020-10-17T11:54:44Z</time>
      </trkpt>
      <trkpt lat="39.774020000" lon="-8.458194000">
        <ele>109.800000</ele>
        <time>2020-10-17T11:54:49Z</time>
      </trkpt>
      <trkpt lat="39.773533000" lon="-8.458032000">
        <ele>110.200000</ele>
        <time>2020-10-17T11:54:57Z</time>
      </trkpt>
      <trkpt lat="39.773092000" lon="-8.457878000">
        <ele>110.400000</ele>
        <time>2020-10-17T11:55:04Z</time>
      </trkpt>
      <trkpt lat="39.773030000" lon="-8.457857000">
        <ele>110.400000</ele>
        <time>2020-10-17T11:55:05Z</time>
      </trkpt>
      <trkpt lat="39.772972000" lon="-8.457839000">
        <ele>110.400000</ele>
        <time>2020-10-17T11:55:06Z</time>
      </trkpt>
      <trkpt lat="39.772912000" lon="-8.457824000">
        <ele>110.200000</ele>
        <time>2020-10-17T11:55:07Z</time>
      </trkpt>
      <trkpt lat="39.772852000" lon="-8.457811000">
        <ele>110.400000</ele>
        <time>2020-10-17T11:55:08Z</time>
      </trkpt>
      <trkpt lat="39.772795000" lon="-8.457796000">
        <ele>110.400000</ele>
        <time>2020-10-17T11:55:09Z</time>
      </trkpt>
      <trkpt lat="39.772622000" lon="-8.457713000">
        <ele>110.200000</ele>
        <time>2020-10-17T11:55:12Z</time>
      </trkpt>
      <trkpt lat="39.772517000" lon="-8.457630000">
        <ele>110.400000</ele>
        <time>2020-10-17T11:55:14Z</time>
      </trkpt>
      <trkpt lat="39.772414000" lon="-8.457540000">
        <ele>110.400000</ele>
        <time>2020-10-17T11:55:16Z</time>
      </trkpt>
      <trkpt lat="39.772359000" lon="-8.457501000">
        <ele>110.400000</ele>
        <time>2020-10-17T11:55:17Z</time>
      </trkpt>
      <trkpt lat="39.771991000" lon="-8.457319000">
        <ele>110.600000</ele>
        <time>2020-10-17T11:55:23Z</time>
      </trkpt>
      <trkpt lat="39.771876000" lon="-8.457210000">
        <ele>110.600000</ele>
        <time>2020-10-17T11:55:25Z</time>
      </trkpt>
      <trkpt lat="39.771830000" lon="-8.457134000">
        <ele>110.400000</ele>
        <time>2020-10-17T11:55:26Z</time>
      </trkpt>
      <trkpt lat="39.771792000" lon="-8.457054000">
        <ele>110.600000</ele>
        <time>2020-10-17T11:55:27Z</time>
      </trkpt>
      <trkpt lat="39.771756000" lon="-8.456967000">
        <ele>110.600000</ele>
        <time>2020-10-17T11:55:28Z</time>
      </trkpt>
      <trkpt lat="39.771724000" lon="-8.456882000">
        <ele>110.400000</ele>
        <time>2020-10-17T11:55:29Z</time>
      </trkpt>
      <trkpt lat="39.771693000" lon="-8.456798000">
        <ele>110.400000</ele>
        <time>2020-10-17T11:55:30Z</time>
      </trkpt>
      <trkpt lat="39.771654000" lon="-8.456709000">
        <ele>110.400000</ele>
        <time>2020-10-17T11:55:31Z</time>
      </trkpt>
      <trkpt lat="39.771437000" lon="-8.456290000">
        <ele>110.200000</ele>
        <time>2020-10-17T11:55:36Z</time>
      </trkpt>
      <trkpt lat="39.771395000" lon="-8.456210000">
        <ele>110.200000</ele>
        <time>2020-10-17T11:55:37Z</time>
      </trkpt>
      <trkpt lat="39.771355000" lon="-8.456132000">
        <ele>110.000000</ele>
        <time>2020-10-17T11:55:38Z</time>
      </trkpt>
      <trkpt lat="39.771314000" lon="-8.456055000">
        <ele>109.800000</ele>
        <time>2020-10-17T11:55:39Z</time>
      </trkpt>
      <trkpt lat="39.771274000" lon="-8.455980000">
        <ele>109.800000</ele>
        <time>2020-10-17T11:55:40Z</time>
      </trkpt>
      <trkpt lat="39.771232000" lon="-8.455911000">
        <ele>109.800000</ele>
        <time>2020-10-17T11:55:41Z</time>
      </trkpt>
      <trkpt lat="39.771188000" lon="-8.455844000">
        <ele>109.800000</ele>
        <time>2020-10-17T11:55:42Z</time>
      </trkpt>
      <trkpt lat="39.771039000" lon="-8.455645000">
        <ele>109.600000</ele>
        <time>2020-10-17T11:55:45Z</time>
      </trkpt>
      <trkpt lat="39.770931000" lon="-8.455508000">
        <ele>109.600000</ele>
        <time>2020-10-17T11:55:47Z</time>
      </trkpt>
      <trkpt lat="39.770869000" lon="-8.455450000">
        <ele>109.600000</ele>
        <time>2020-10-17T11:55:48Z</time>
      </trkpt>
      <trkpt lat="39.770802000" lon="-8.455408000">
        <ele>109.400000</ele>
        <time>2020-10-17T11:55:49Z</time>
      </trkpt>
      <trkpt lat="39.770730000" lon="-8.455382000">
        <ele>109.400000</ele>
        <time>2020-10-17T11:55:50Z</time>
      </trkpt>
      <trkpt lat="39.770658000" lon="-8.455370000">
        <ele>109.200000</ele>
        <time>2020-10-17T11:55:51Z</time>
      </trkpt>
      <trkpt lat="39.770585000" lon="-8.455366000">
        <ele>109.200000</ele>
        <time>2020-10-17T11:55:52Z</time>
      </trkpt>
      <trkpt lat="39.770511000" lon="-8.455363000">
        <ele>109.200000</ele>
        <time>2020-10-17T11:55:53Z</time>
      </trkpt>
      <trkpt lat="39.770366000" lon="-8.455362000">
        <ele>109.200000</ele>
        <time>2020-10-17T11:55:55Z</time>
      </trkpt>
      <trkpt lat="39.770295000" lon="-8.455368000">
        <ele>109.200000</ele>
        <time>2020-10-17T11:55:56Z</time>
      </trkpt>
      <trkpt lat="39.770227000" lon="-8.455376000">
        <ele>109.200000</ele>
        <time>2020-10-17T11:55:57Z</time>
      </trkpt>
      <trkpt lat="39.770159000" lon="-8.455381000">
        <ele>109.000000</ele>
        <time>2020-10-17T11:55:58Z</time>
      </trkpt>
      <trkpt lat="39.770093000" lon="-8.455390000">
        <ele>109.200000</ele>
        <time>2020-10-17T11:55:59Z</time>
      </trkpt>
      <trkpt lat="39.770026000" lon="-8.455399000">
        <ele>109.000000</ele>
        <time>2020-10-17T11:56:00Z</time>
      </trkpt>
      <trkpt lat="39.769957000" lon="-8.455404000">
        <ele>109.000000</ele>
        <time>2020-10-17T11:56:01Z</time>
      </trkpt>
      <trkpt lat="39.769822000" lon="-8.455401000">
        <ele>109.000000</ele>
        <time>2020-10-17T11:56:03Z</time>
      </trkpt>
      <trkpt lat="39.769757000" lon="-8.455388000">
        <ele>109.000000</ele>
        <time>2020-10-17T11:56:04Z</time>
      </trkpt>
      <trkpt lat="39.769628000" lon="-8.455336000">
        <ele>108.800000</ele>
        <time>2020-10-17T11:56:06Z</time>
      </trkpt>
      <trkpt lat="39.769512000" lon="-8.455243000">
        <ele>108.800000</ele>
        <time>2020-10-17T11:56:08Z</time>
      </trkpt>
      <trkpt lat="39.769406000" lon="-8.455127000">
        <ele>108.800000</ele>
        <time>2020-10-17T11:56:10Z</time>
      </trkpt>
      <trkpt lat="39.769253000" lon="-8.454957000">
        <ele>108.800000</ele>
        <time>2020-10-17T11:56:13Z</time>
      </trkpt>
      <trkpt lat="39.769203000" lon="-8.454908000">
        <ele>108.800000</ele>
        <time>2020-10-17T11:56:14Z</time>
      </trkpt>
      <trkpt lat="39.769152000" lon="-8.454860000">
        <ele>108.600000</ele>
        <time>2020-10-17T11:56:15Z</time>
      </trkpt>
      <trkpt lat="39.769101000" lon="-8.454815000">
        <ele>108.600000</ele>
        <time>2020-10-17T11:56:16Z</time>
      </trkpt>
      <trkpt lat="39.769052000" lon="-8.454774000">
        <ele>108.600000</ele>
        <time>2020-10-17T11:56:17Z</time>
      </trkpt>
      <trkpt lat="39.769001000" lon="-8.454733000">
        <ele>108.800000</ele>
        <time>2020-10-17T11:56:18Z</time>
      </trkpt>
      <trkpt lat="39.768843000" lon="-8.454619000">
        <ele>108.600000</ele>
        <time>2020-10-17T11:56:21Z</time>
      </trkpt>
      <trkpt lat="39.768791000" lon="-8.454582000">
        <ele>108.600000</ele>
        <time>2020-10-17T11:56:22Z</time>
      </trkpt>
      <trkpt lat="39.768628000" lon="-8.454467000">
        <ele>109.000000</ele>
        <time>2020-10-17T11:56:25Z</time>
      </trkpt>
      <trkpt lat="39.768180000" lon="-8.454113000">
        <ele>110.200000</ele>
        <time>2020-10-17T11:56:33Z</time>
      </trkpt>
      <trkpt lat="39.767841000" lon="-8.453817000">
        <ele>110.200000</ele>
        <time>2020-10-17T11:56:39Z</time>
      </trkpt>
      <trkpt lat="39.767669000" lon="-8.453669000">
        <ele>110.000000</ele>
        <time>2020-10-17T11:56:42Z</time>
      </trkpt>
      <trkpt lat="39.767496000" lon="-8.453507000">
        <ele>109.600000</ele>
        <time>2020-10-17T11:56:45Z</time>
      </trkpt>
      <trkpt lat="39.767444000" lon="-8.453453000">
        <ele>109.400000</ele>
        <time>2020-10-17T11:56:46Z</time>
      </trkpt>
      <trkpt lat="39.767340000" lon="-8.453339000">
        <ele>109.400000</ele>
        <time>2020-10-17T11:56:48Z</time>
      </trkpt>
      <trkpt lat="39.767232000" lon="-8.453234000">
        <ele>109.200000</ele>
        <time>2020-10-17T11:56:50Z</time>
      </trkpt>
      <trkpt lat="39.767177000" lon="-8.453187000">
        <ele>109.000000</ele>
        <time>2020-10-17T11:56:51Z</time>
      </trkpt>
      <trkpt lat="39.767121000" lon="-8.453142000">
        <ele>109.000000</ele>
        <time>2020-10-17T11:56:52Z</time>
      </trkpt>
      <trkpt lat="39.767068000" lon="-8.453097000">
        <ele>109.000000</ele>
        <time>2020-10-17T11:56:53Z</time>
      </trkpt>
      <trkpt lat="39.767016000" lon="-8.453051000">
        <ele>109.000000</ele>
        <time>2020-10-17T11:56:54Z</time>
      </trkpt>
      <trkpt lat="39.766968000" lon="-8.453005000">
        <ele>109.000000</ele>
        <time>2020-10-17T11:56:55Z</time>
      </trkpt>
      <trkpt lat="39.766922000" lon="-8.452955000">
        <ele>108.800000</ele>
        <time>2020-10-17T11:56:56Z</time>
      </trkpt>
      <trkpt lat="39.766878000" lon="-8.452906000">
        <ele>108.800000</ele>
        <time>2020-10-17T11:56:57Z</time>
      </trkpt>
      <trkpt lat="39.766835000" lon="-8.452856000">
        <ele>108.800000</ele>
        <time>2020-10-17T11:56:58Z</time>
      </trkpt>
      <trkpt lat="39.766793000" lon="-8.452811000">
        <ele>108.800000</ele>
        <time>2020-10-17T11:56:59Z</time>
      </trkpt>
      <trkpt lat="39.766750000" lon="-8.452776000">
        <ele>108.800000</ele>
        <time>2020-10-17T11:57:00Z</time>
      </trkpt>
      <trkpt lat="39.766703000" lon="-8.452753000">
        <ele>108.800000</ele>
        <time>2020-10-17T11:57:01Z</time>
      </trkpt>
      <trkpt lat="39.766648000" lon="-8.452737000">
        <ele>108.800000</ele>
        <time>2020-10-17T11:57:02Z</time>
      </trkpt>
      <trkpt lat="39.766591000" lon="-8.452724000">
        <ele>108.800000</ele>
        <time>2020-10-17T11:57:03Z</time>
      </trkpt>
      <trkpt lat="39.766258000" lon="-8.452630000">
        <ele>108.600000</ele>
        <time>2020-10-17T11:57:08Z</time>
      </trkpt>
      <trkpt lat="39.766052000" lon="-8.452595000">
        <ele>108.000000</ele>
        <time>2020-10-17T11:57:11Z</time>
      </trkpt>
      <trkpt lat="39.765913000" lon="-8.452566000">
        <ele>107.600000</ele>
        <time>2020-10-17T11:57:13Z</time>
      </trkpt>
      <trkpt lat="39.765842000" lon="-8.452551000">
        <ele>107.200000</ele>
        <time>2020-10-17T11:57:14Z</time>
      </trkpt>
      <trkpt lat="39.765377000" lon="-8.452525000">
        <ele>107.000000</ele>
        <time>2020-10-17T11:57:20Z</time>
      </trkpt>
      <trkpt lat="39.765141000" lon="-8.452570000">
        <ele>106.400000</ele>
        <time>2020-10-17T11:57:23Z</time>
      </trkpt>
      <trkpt lat="39.764901000" lon="-8.452639000">
        <ele>106.000000</ele>
        <time>2020-10-17T11:57:26Z</time>
      </trkpt>
      <trkpt lat="39.764742000" lon="-8.452688000">
        <ele>105.800000</ele>
        <time>2020-10-17T11:57:28Z</time>
      </trkpt>
      <trkpt lat="39.764668000" lon="-8.452708000">
        <ele>105.600000</ele>
        <time>2020-10-17T11:57:29Z</time>
      </trkpt>
      <trkpt lat="39.764593000" lon="-8.452724000">
        <ele>105.600000</ele>
        <time>2020-10-17T11:57:30Z</time>
      </trkpt>
      <trkpt lat="39.764520000" lon="-8.452737000">
        <ele>105.200000</ele>
        <time>2020-10-17T11:57:31Z</time>
      </trkpt>
      <trkpt lat="39.764369000" lon="-8.452743000">
        <ele>105.000000</ele>
        <time>2020-10-17T11:57:33Z</time>
      </trkpt>
      <trkpt lat="39.764294000" lon="-8.452732000">
        <ele>105.000000</ele>
        <time>2020-10-17T11:57:34Z</time>
      </trkpt>
      <trkpt lat="39.764152000" lon="-8.452681000">
        <ele>104.800000</ele>
        <time>2020-10-17T11:57:36Z</time>
      </trkpt>
      <trkpt lat="39.764084000" lon="-8.452646000">
        <ele>104.800000</ele>
        <time>2020-10-17T11:57:37Z</time>
      </trkpt>
      <trkpt lat="39.763814000" lon="-8.452482000">
        <ele>104.400000</ele>
        <time>2020-10-17T11:57:41Z</time>
      </trkpt>
      <trkpt lat="39.763750000" lon="-8.452444000">
        <ele>104.400000</ele>
        <time>2020-10-17T11:57:42Z</time>
      </trkpt>
      <trkpt lat="39.763685000" lon="-8.452406000">
        <ele>104.400000</ele>
        <time>2020-10-17T11:57:43Z</time>
      </trkpt>
      <trkpt lat="39.763621000" lon="-8.452369000">
        <ele>104.400000</ele>
        <time>2020-10-17T11:57:44Z</time>
      </trkpt>
      <trkpt lat="39.763558000" lon="-8.452331000">
        <ele>104.400000</ele>
        <time>2020-10-17T11:57:45Z</time>
      </trkpt>
      <trkpt lat="39.763495000" lon="-8.452295000">
        <ele>104.200000</ele>
        <time>2020-10-17T11:57:46Z</time>
      </trkpt>
      <trkpt lat="39.763166000" lon="-8.452108000">
        <ele>104.200000</ele>
        <time>2020-10-17T11:57:51Z</time>
      </trkpt>
      <trkpt lat="39.763041000" lon="-8.452031000">
        <ele>104.200000</ele>
        <time>2020-10-17T11:57:53Z</time>
      </trkpt>
      <trkpt lat="39.762982000" lon="-8.451998000">
        <ele>104.200000</ele>
        <time>2020-10-17T11:57:54Z</time>
      </trkpt>
      <trkpt lat="39.762926000" lon="-8.451970000">
        <ele>104.000000</ele>
        <time>2020-10-17T11:57:55Z</time>
      </trkpt>
      <trkpt lat="39.762874000" lon="-8.451940000">
        <ele>104.000000</ele>
        <time>2020-10-17T11:57:56Z</time>
      </trkpt>
      <trkpt lat="39.762824000" lon="-8.451911000">
        <ele>104.000000</ele>
        <time>2020-10-17T11:57:57Z</time>
      </trkpt>
      <trkpt lat="39.762779000" lon="-8.451886000">
        <ele>103.800000</ele>
        <time>2020-10-17T11:57:58Z</time>
      </trkpt>
      <trkpt lat="39.762741000" lon="-8.451866000">
        <ele>103.800000</ele>
        <time>2020-10-17T11:57:59Z</time>
      </trkpt>
      <trkpt lat="39.762710000" lon="-8.451845000">
        <ele>104.000000</ele>
        <time>2020-10-17T11:58:00Z</time>
      </trkpt>
      <trkpt lat="39.762692000" lon="-8.451824000">
        <ele>103.800000</ele>
        <time>2020-10-17T11:58:01Z</time>
      </trkpt>
      <trkpt lat="39.762684000" lon="-8.451806000">
        <ele>103.800000</ele>
        <time>2020-10-17T11:58:02Z</time>
      </trkpt>
      <trkpt lat="39.762685000" lon="-8.451793000">
        <ele>103.800000</ele>
        <time>2020-10-17T11:58:03Z</time>
      </trkpt>
      <trkpt lat="39.762696000" lon="-8.451788000">
        <ele>103.800000</ele>
        <time>2020-10-17T11:58:04Z</time>
      </trkpt>
      <trkpt lat="39.762705000" lon="-8.451784000">
        <ele>103.600000</ele>
        <time>2020-10-17T11:58:05Z</time>
      </trkpt>
      <trkpt lat="39.762709000" lon="-8.451779000">
        <ele>103.600000</ele>
        <time>2020-10-17T11:58:06Z</time>
      </trkpt>
      <trkpt lat="39.762710000" lon="-8.451777000">
        <ele>103.600000</ele>
        <time>2020-10-17T11:58:07Z</time>
      </trkpt>
      <trkpt lat="39.762669000" lon="-8.451778000">
        <ele>103.600000</ele>
        <time>2020-10-17T12:01:42Z</time>
      </trkpt>
      <trkpt lat="39.762652000" lon="-8.451782000">
        <ele>103.400000</ele>
        <time>2020-10-17T12:01:43Z</time>
      </trkpt>
      <trkpt lat="39.762635000" lon="-8.451785000">
        <ele>103.600000</ele>
        <time>2020-10-17T12:01:44Z</time>
      </trkpt>
      <trkpt lat="39.762574000" lon="-8.451773000">
        <ele>103.600000</ele>
        <time>2020-10-17T12:01:47Z</time>
      </trkpt>
      <trkpt lat="39.762552000" lon="-8.451762000">
        <ele>103.600000</ele>
        <time>2020-10-17T12:01:48Z</time>
      </trkpt>
      <trkpt lat="39.762529000" lon="-8.451749000">
        <ele>103.600000</ele>
        <time>2020-10-17T12:01:49Z</time>
      </trkpt>
      <trkpt lat="39.762507000" lon="-8.451732000">
        <ele>103.600000</ele>
        <time>2020-10-17T12:01:50Z</time>
      </trkpt>
      <trkpt lat="39.762484000" lon="-8.451715000">
        <ele>103.600000</ele>
        <time>2020-10-17T12:01:51Z</time>
      </trkpt>
      <trkpt lat="39.762461000" lon="-8.451702000">
        <ele>103.600000</ele>
        <time>2020-10-17T12:01:52Z</time>
      </trkpt>
      <trkpt lat="39.762439000" lon="-8.451691000">
        <ele>103.600000</ele>
        <time>2020-10-17T12:01:53Z</time>
      </trkpt>
      <trkpt lat="39.762366000" lon="-8.451643000">
        <ele>103.600000</ele>
        <time>2020-10-17T12:01:56Z</time>
      </trkpt>
      <trkpt lat="39.762226000" lon="-8.451554000">
        <ele>103.800000</ele>
        <time>2020-10-17T12:02:00Z</time>
      </trkpt>
      <trkpt lat="39.762147000" lon="-8.451504000">
        <ele>103.800000</ele>
        <time>2020-10-17T12:02:02Z</time>
      </trkpt>
      <trkpt lat="39.762017000" lon="-8.451457000">
        <ele>103.600000</ele>
        <time>2020-10-17T12:02:05Z</time>
      </trkpt>
      <trkpt lat="39.761974000" lon="-8.451462000">
        <ele>103.600000</ele>
        <time>2020-10-17T12:02:06Z</time>
      </trkpt>
      <trkpt lat="39.761936000" lon="-8.451490000">
        <ele>103.800000</ele>
        <time>2020-10-17T12:02:07Z</time>
      </trkpt>
      <trkpt lat="39.761903000" lon="-8.451531000">
        <ele>103.800000</ele>
        <time>2020-10-17T12:02:08Z</time>
      </trkpt>
      <trkpt lat="39.761877000" lon="-8.451579000">
        <ele>103.800000</ele>
        <time>2020-10-17T12:02:09Z</time>
      </trkpt>
      <trkpt lat="39.761833000" lon="-8.451692000">
        <ele>103.800000</ele>
        <time>2020-10-17T12:02:11Z</time>
      </trkpt>
      <trkpt lat="39.761813000" lon="-8.451753000">
        <ele>103.800000</ele>
        <time>2020-10-17T12:02:12Z</time>
      </trkpt>
      <trkpt lat="39.761700000" lon="-8.452075000">
        <ele>103.800000</ele>
        <time>2020-10-17T12:02:17Z</time>
      </trkpt>
      <trkpt lat="39.761677000" lon="-8.452140000">
        <ele>103.800000</ele>
        <time>2020-10-17T12:02:18Z</time>
      </trkpt>
      <trkpt lat="39.761656000" lon="-8.452202000">
        <ele>103.800000</ele>
        <time>2020-10-17T12:02:19Z</time>
      </trkpt>
      <trkpt lat="39.761636000" lon="-8.452263000">
        <ele>103.800000</ele>
        <time>2020-10-17T12:02:20Z</time>
      </trkpt>
      <trkpt lat="39.761580000" lon="-8.452450000">
        <ele>103.800000</ele>
        <time>2020-10-17T12:02:23Z</time>
      </trkpt>
      <trkpt lat="39.761551000" lon="-8.452505000">
        <ele>103.800000</ele>
        <time>2020-10-17T12:02:24Z</time>
      </trkpt>
      <trkpt lat="39.761524000" lon="-8.452554000">
        <ele>103.800000</ele>
        <time>2020-10-17T12:02:25Z</time>
      </trkpt>
      <trkpt lat="39.761499000" lon="-8.452608000">
        <ele>103.600000</ele>
        <time>2020-10-17T12:02:26Z</time>
      </trkpt>
      <trkpt lat="39.761478000" lon="-8.452664000">
        <ele>103.800000</ele>
        <time>2020-10-17T12:02:27Z</time>
      </trkpt>
      <trkpt lat="39.761460000" lon="-8.452718000">
        <ele>103.600000</ele>
        <time>2020-10-17T12:02:28Z</time>
      </trkpt>
      <trkpt lat="39.761422000" lon="-8.452835000">
        <ele>103.600000</ele>
        <time>2020-10-17T12:02:30Z</time>
      </trkpt>
      <trkpt lat="39.761374000" lon="-8.452949000">
        <ele>103.400000</ele>
        <time>2020-10-17T12:02:32Z</time>
      </trkpt>
      <trkpt lat="39.761260000" lon="-8.453249000">
        <ele>103.400000</ele>
        <time>2020-10-17T12:02:37Z</time>
      </trkpt>
      <trkpt lat="39.761219000" lon="-8.453367000">
        <ele>103.600000</ele>
        <time>2020-10-17T12:02:39Z</time>
      </trkpt>
      <trkpt lat="39.761199000" lon="-8.453425000">
        <ele>103.600000</ele>
        <time>2020-10-17T12:02:40Z</time>
      </trkpt>
      <trkpt lat="39.761179000" lon="-8.453479000">
        <ele>103.600000</ele>
        <time>2020-10-17T12:02:41Z</time>
      </trkpt>
      <trkpt lat="39.761159000" lon="-8.453527000">
        <ele>103.600000</ele>
        <time>2020-10-17T12:02:42Z</time>
      </trkpt>
      <trkpt lat="39.761143000" lon="-8.453576000">
        <ele>103.600000</ele>
        <time>2020-10-17T12:02:43Z</time>
      </trkpt>
      <trkpt lat="39.761130000" lon="-8.453625000">
        <ele>103.600000</ele>
        <time>2020-10-17T12:02:44Z</time>
      </trkpt>
      <trkpt lat="39.761118000" lon="-8.453676000">
        <ele>103.600000</ele>
        <time>2020-10-17T12:02:45Z</time>
      </trkpt>
      <trkpt lat="39.761101000" lon="-8.453729000">
        <ele>103.600000</ele>
        <time>2020-10-17T12:02:46Z</time>
      </trkpt>
      <trkpt lat="39.761065000" lon="-8.453836000">
        <ele>103.600000</ele>
        <time>2020-10-17T12:02:48Z</time>
      </trkpt>
      <trkpt lat="39.760987000" lon="-8.454095000">
        <ele>104.000000</ele>
        <time>2020-10-17T12:02:53Z</time>
      </trkpt>
      <trkpt lat="39.760944000" lon="-8.454255000">
        <ele>104.200000</ele>
        <time>2020-10-17T12:02:56Z</time>
      </trkpt>
      <trkpt lat="39.760851000" lon="-8.454520000">
        <ele>104.800000</ele>
        <time>2020-10-17T12:03:01Z</time>
      </trkpt>
      <trkpt lat="39.760813000" lon="-8.454633000">
        <ele>105.000000</ele>
        <time>2020-10-17T12:03:03Z</time>
      </trkpt>
      <trkpt lat="39.760700000" lon="-8.454938000">
        <ele>105.200000</ele>
        <time>2020-10-17T12:03:08Z</time>
      </trkpt>
      <trkpt lat="39.760651000" lon="-8.455064000">
        <ele>105.200000</ele>
        <time>2020-10-17T12:03:10Z</time>
      </trkpt>
      <trkpt lat="39.760523000" lon="-8.455402000">
        <ele>105.400000</ele>
        <time>2020-10-17T12:03:15Z</time>
      </trkpt>
      <trkpt lat="39.760495000" lon="-8.455467000">
        <ele>105.200000</ele>
        <time>2020-10-17T12:03:16Z</time>
      </trkpt>
      <trkpt lat="39.760468000" lon="-8.455530000">
        <ele>105.200000</ele>
        <time>2020-10-17T12:03:17Z</time>
      </trkpt>
      <trkpt lat="39.760440000" lon="-8.455593000">
        <ele>105.000000</ele>
        <time>2020-10-17T12:03:18Z</time>
      </trkpt>
      <trkpt lat="39.760413000" lon="-8.455658000">
        <ele>105.000000</ele>
        <time>2020-10-17T12:03:19Z</time>
      </trkpt>
      <trkpt lat="39.760386000" lon="-8.455721000">
        <ele>105.000000</ele>
        <time>2020-10-17T12:03:20Z</time>
      </trkpt>
      <trkpt lat="39.760336000" lon="-8.455837000">
        <ele>104.800000</ele>
        <time>2020-10-17T12:03:22Z</time>
      </trkpt>
      <trkpt lat="39.760310000" lon="-8.455889000">
        <ele>105.000000</ele>
        <time>2020-10-17T12:03:23Z</time>
      </trkpt>
      <trkpt lat="39.760290000" lon="-8.455935000">
        <ele>104.800000</ele>
        <time>2020-10-17T12:03:24Z</time>
      </trkpt>
      <trkpt lat="39.760273000" lon="-8.455978000">
        <ele>104.800000</ele>
        <time>2020-10-17T12:03:25Z</time>
      </trkpt>
      <trkpt lat="39.760257000" lon="-8.456018000">
        <ele>104.800000</ele>
        <time>2020-10-17T12:03:26Z</time>
      </trkpt>
      <trkpt lat="39.760244000" lon="-8.456064000">
        <ele>104.800000</ele>
        <time>2020-10-17T12:03:27Z</time>
      </trkpt>
      <trkpt lat="39.760232000" lon="-8.456107000">
        <ele>104.800000</ele>
        <time>2020-10-17T12:03:28Z</time>
      </trkpt>
      <trkpt lat="39.760225000" lon="-8.456151000">
        <ele>104.800000</ele>
        <time>2020-10-17T12:03:29Z</time>
      </trkpt>
      <trkpt lat="39.760221000" lon="-8.456193000">
        <ele>105.000000</ele>
        <time>2020-10-17T12:03:30Z</time>
      </trkpt>
      <trkpt lat="39.760221000" lon="-8.456234000">
        <ele>104.800000</ele>
        <time>2020-10-17T12:03:31Z</time>
      </trkpt>
      <trkpt lat="39.760232000" lon="-8.456317000">
        <ele>104.800000</ele>
        <time>2020-10-17T12:03:33Z</time>
      </trkpt>
      <trkpt lat="39.760239000" lon="-8.456352000">
        <ele>105.000000</ele>
        <time>2020-10-17T12:03:34Z</time>
      </trkpt>
      <trkpt lat="39.760244000" lon="-8.456384000">
        <ele>105.000000</ele>
        <time>2020-10-17T12:03:35Z</time>
      </trkpt>
      <trkpt lat="39.760253000" lon="-8.456417000">
        <ele>105.200000</ele>
        <time>2020-10-17T12:03:36Z</time>
      </trkpt>
      <trkpt lat="39.760278000" lon="-8.456486000">
        <ele>105.600000</ele>
        <time>2020-10-17T12:03:38Z</time>
      </trkpt>
      <trkpt lat="39.760292000" lon="-8.456513000">
        <ele>105.800000</ele>
        <time>2020-10-17T12:03:39Z</time>
      </trkpt>
      <trkpt lat="39.760306000" lon="-8.456539000">
        <ele>105.800000</ele>
        <time>2020-10-17T12:03:40Z</time>
      </trkpt>
      <trkpt lat="39.760322000" lon="-8.456572000">
        <ele>106.200000</ele>
        <time>2020-10-17T12:03:41Z</time>
      </trkpt>
      <trkpt lat="39.760335000" lon="-8.456601000">
        <ele>106.400000</ele>
        <time>2020-10-17T12:03:42Z</time>
      </trkpt>
      <trkpt lat="39.760352000" lon="-8.456632000">
        <ele>106.600000</ele>
        <time>2020-10-17T12:03:43Z</time>
      </trkpt>
      <trkpt lat="39.760369000" lon="-8.456660000">
        <ele>106.800000</ele>
        <time>2020-10-17T12:03:44Z</time>
      </trkpt>
      <trkpt lat="39.760385000" lon="-8.456690000">
        <ele>107.000000</ele>
        <time>2020-10-17T12:03:45Z</time>
      </trkpt>
      <trkpt lat="39.760402000" lon="-8.456722000">
        <ele>107.200000</ele>
        <time>2020-10-17T12:03:46Z</time>
      </trkpt>
      <trkpt lat="39.760418000" lon="-8.456753000">
        <ele>107.400000</ele>
        <time>2020-10-17T12:03:47Z</time>
      </trkpt>
      <trkpt lat="39.760433000" lon="-8.456782000">
        <ele>107.600000</ele>
        <time>2020-10-17T12:03:48Z</time>
      </trkpt>
      <trkpt lat="39.760449000" lon="-8.456813000">
        <ele>108.000000</ele>
        <time>2020-10-17T12:03:49Z</time>
      </trkpt>
      <trkpt lat="39.760464000" lon="-8.456839000">
        <ele>108.000000</ele>
        <time>2020-10-17T12:03:50Z</time>
      </trkpt>
      <trkpt lat="39.760480000" lon="-8.456866000">
        <ele>108.200000</ele>
        <time>2020-10-17T12:03:51Z</time>
      </trkpt>
      <trkpt lat="39.760497000" lon="-8.456894000">
        <ele>108.200000</ele>
        <time>2020-10-17T12:03:52Z</time>
      </trkpt>
      <trkpt lat="39.760515000" lon="-8.456922000">
        <ele>108.400000</ele>
        <time>2020-10-17T12:03:53Z</time>
      </trkpt>
      <trkpt lat="39.760535000" lon="-8.456952000">
        <ele>108.600000</ele>
        <time>2020-10-17T12:03:54Z</time>
      </trkpt>
      <trkpt lat="39.760555000" lon="-8.456983000">
        <ele>108.800000</ele>
        <time>2020-10-17T12:03:55Z</time>
      </trkpt>
      <trkpt lat="39.760573000" lon="-8.457013000">
        <ele>109.000000</ele>
        <time>2020-10-17T12:03:56Z</time>
      </trkpt>
      <trkpt lat="39.760592000" lon="-8.457047000">
        <ele>109.000000</ele>
        <time>2020-10-17T12:03:57Z</time>
      </trkpt>
      <trkpt lat="39.760610000" lon="-8.457079000">
        <ele>109.200000</ele>
        <time>2020-10-17T12:03:58Z</time>
      </trkpt>
      <trkpt lat="39.760629000" lon="-8.457111000">
        <ele>109.400000</ele>
        <time>2020-10-17T12:03:59Z</time>
      </trkpt>
      <trkpt lat="39.760649000" lon="-8.457140000">
        <ele>109.400000</ele>
        <time>2020-10-17T12:04:00Z</time>
      </trkpt>
      <trkpt lat="39.760671000" lon="-8.457170000">
        <ele>109.800000</ele>
        <time>2020-10-17T12:04:01Z</time>
      </trkpt>
      <trkpt lat="39.760694000" lon="-8.457198000">
        <ele>109.800000</ele>
        <time>2020-10-17T12:04:02Z</time>
      </trkpt>
      <trkpt lat="39.760719000" lon="-8.457226000">
        <ele>109.800000</ele>
        <time>2020-10-17T12:04:03Z</time>
      </trkpt>
      <trkpt lat="39.760747000" lon="-8.457250000">
        <ele>110.000000</ele>
        <time>2020-10-17T12:04:04Z</time>
      </trkpt>
      <trkpt lat="39.760779000" lon="-8.457277000">
        <ele>110.000000</ele>
        <time>2020-10-17T12:04:05Z</time>
      </trkpt>
      <trkpt lat="39.760812000" lon="-8.457304000">
        <ele>110.200000</ele>
        <time>2020-10-17T12:04:06Z</time>
      </trkpt>
      <trkpt lat="39.760847000" lon="-8.457328000">
        <ele>110.400000</ele>
        <time>2020-10-17T12:04:07Z</time>
      </trkpt>
      <trkpt lat="39.760885000" lon="-8.457356000">
        <ele>110.400000</ele>
        <time>2020-10-17T12:04:08Z</time>
      </trkpt>
      <trkpt lat="39.760924000" lon="-8.457380000">
        <ele>110.600000</ele>
        <time>2020-10-17T12:04:09Z</time>
      </trkpt>
      <trkpt lat="39.760965000" lon="-8.457407000">
        <ele>110.800000</ele>
        <time>2020-10-17T12:04:10Z</time>
      </trkpt>
      <trkpt lat="39.761004000" lon="-8.457431000">
        <ele>110.600000</ele>
        <time>2020-10-17T12:04:11Z</time>
      </trkpt>
      <trkpt lat="39.761043000" lon="-8.457456000">
        <ele>110.800000</ele>
        <time>2020-10-17T12:04:12Z</time>
      </trkpt>
      <trkpt lat="39.761079000" lon="-8.457484000">
        <ele>110.800000</ele>
        <time>2020-10-17T12:04:13Z</time>
      </trkpt>
      <trkpt lat="39.761112000" lon="-8.457514000">
        <ele>111.000000</ele>
        <time>2020-10-17T12:04:14Z</time>
      </trkpt>
      <trkpt lat="39.761344000" lon="-8.457787000">
        <ele>111.000000</ele>
        <time>2020-10-17T12:04:21Z</time>
      </trkpt>
      <trkpt lat="39.761620000" lon="-8.458189000">
        <ele>111.000000</ele>
        <time>2020-10-17T12:04:29Z</time>
      </trkpt>
      <trkpt lat="39.761684000" lon="-8.458290000">
        <ele>111.000000</ele>
        <time>2020-10-17T12:04:31Z</time>
      </trkpt>
      <trkpt lat="39.761715000" lon="-8.458336000">
        <ele>111.000000</ele>
        <time>2020-10-17T12:04:32Z</time>
      </trkpt>
      <trkpt lat="39.761808000" lon="-8.458472000">
        <ele>111.000000</ele>
        <time>2020-10-17T12:04:35Z</time>
      </trkpt>
      <trkpt lat="39.761837000" lon="-8.458514000">
        <ele>111.000000</ele>
        <time>2020-10-17T12:04:36Z</time>
      </trkpt>
      <trkpt lat="39.761869000" lon="-8.458558000">
        <ele>111.000000</ele>
        <time>2020-10-17T12:04:37Z</time>
      </trkpt>
      <trkpt lat="39.761899000" lon="-8.458597000">
        <ele>111.000000</ele>
        <time>2020-10-17T12:04:38Z</time>
      </trkpt>
      <trkpt lat="39.761929000" lon="-8.458635000">
        <ele>111.000000</ele>
        <time>2020-10-17T12:04:39Z</time>
      </trkpt>
      <trkpt lat="39.761958000" lon="-8.458671000">
        <ele>111.000000</ele>
        <time>2020-10-17T12:04:40Z</time>
      </trkpt>
      <trkpt lat="39.761988000" lon="-8.458712000">
        <ele>111.000000</ele>
        <time>2020-10-17T12:04:41Z</time>
      </trkpt>
      <trkpt lat="39.762017000" lon="-8.458749000">
        <ele>111.000000</ele>
        <time>2020-10-17T12:04:42Z</time>
      </trkpt>
      <trkpt lat="39.762103000" lon="-8.458861000">
        <ele>111.000000</ele>
        <time>2020-10-17T12:04:45Z</time>
      </trkpt>
      <trkpt lat="39.762132000" lon="-8.458899000">
        <ele>111.000000</ele>
        <time>2020-10-17T12:04:46Z</time>
      </trkpt>
      <trkpt lat="39.762162000" lon="-8.458941000">
        <ele>111.200000</ele>
        <time>2020-10-17T12:04:47Z</time>
      </trkpt>
      <trkpt lat="39.762187000" lon="-8.458969000">
        <ele>111.400000</ele>
        <time>2020-10-17T12:04:48Z</time>
      </trkpt>
      <trkpt lat="39.762209000" lon="-8.458989000">
        <ele>111.400000</ele>
        <time>2020-10-17T12:04:49Z</time>
      </trkpt>
      <trkpt lat="39.762228000" lon="-8.459008000">
        <ele>111.400000</ele>
        <time>2020-10-17T12:04:50Z</time>
      </trkpt>
      <trkpt lat="39.762239000" lon="-8.459032000">
        <ele>111.600000</ele>
        <time>2020-10-17T12:04:51Z</time>
      </trkpt>
      <trkpt lat="39.762245000" lon="-8.459058000">
        <ele>111.600000</ele>
        <time>2020-10-17T12:04:52Z</time>
      </trkpt>
      <trkpt lat="39.762248000" lon="-8.459081000">
        <ele>111.800000</ele>
        <time>2020-10-17T12:04:53Z</time>
      </trkpt>
      <trkpt lat="39.762249000" lon="-8.459097000">
        <ele>111.800000</ele>
        <time>2020-10-17T12:04:54Z</time>
      </trkpt>
      <trkpt lat="39.762251000" lon="-8.459105000">
        <ele>111.800000</ele>
        <time>2020-10-17T12:04:55Z</time>
      </trkpt>
      <trkpt lat="39.762256000" lon="-8.459113000">
        <ele>112.000000</ele>
        <time>2020-10-17T12:04:57Z</time>
      </trkpt>
      <trkpt lat="39.762263000" lon="-8.459389000">
        <ele>112.200000</ele>
        <time>2020-10-17T12:13:46Z</time>
      </trkpt>
      <trkpt lat="39.762257000" lon="-8.459411000">
        <ele>112.000000</ele>
        <time>2020-10-17T12:13:47Z</time>
      </trkpt>
      <trkpt lat="39.762257000" lon="-8.459432000">
        <ele>112.200000</ele>
        <time>2020-10-17T12:13:48Z</time>
      </trkpt>
      <trkpt lat="39.762253000" lon="-8.459447000">
        <ele>112.000000</ele>
        <time>2020-10-17T12:13:49Z</time>
      </trkpt>
      <trkpt lat="39.762249000" lon="-8.459459000">
        <ele>112.000000</ele>
        <time>2020-10-17T12:13:50Z</time>
      </trkpt>
      <trkpt lat="39.762245000" lon="-8.459473000">
        <ele>112.000000</ele>
        <time>2020-10-17T12:13:51Z</time>
      </trkpt>
      <trkpt lat="39.762241000" lon="-8.459485000">
        <ele>112.200000</ele>
        <time>2020-10-17T12:13:52Z</time>
      </trkpt>
      <trkpt lat="39.762240000" lon="-8.459493000">
        <ele>112.200000</ele>
        <time>2020-10-17T12:13:53Z</time>
      </trkpt>
      <trkpt lat="39.762235000" lon="-8.459500000">
        <ele>112.200000</ele>
        <time>2020-10-17T12:13:54Z</time>
      </trkpt>
      <trkpt lat="39.762234000" lon="-8.459507000">
        <ele>112.000000</ele>
        <time>2020-10-17T12:13:55Z</time>
      </trkpt>
      <trkpt lat="39.762245000" lon="-8.459547000">
        <ele>112.000000</ele>
        <time>2020-10-17T12:13:58Z</time>
      </trkpt>
      <trkpt lat="39.762247000" lon="-8.459565000">
        <ele>112.200000</ele>
        <time>2020-10-17T12:13:59Z</time>
      </trkpt>
      <trkpt lat="39.762270000" lon="-8.459619000">
        <ele>112.200000</ele>
        <time>2020-10-17T12:14:02Z</time>
      </trkpt>
      <trkpt lat="39.762282000" lon="-8.459639000">
        <ele>112.000000</ele>
        <time>2020-10-17T12:14:03Z</time>
      </trkpt>
      <trkpt lat="39.762308000" lon="-8.459680000">
        <ele>112.200000</ele>
        <time>2020-10-17T12:14:05Z</time>
      </trkpt>
      <trkpt lat="39.762317000" lon="-8.459702000">
        <ele>112.200000</ele>
        <time>2020-10-17T12:14:06Z</time>
      </trkpt>
      <trkpt lat="39.762321000" lon="-8.459722000">
        <ele>112.200000</ele>
        <time>2020-10-17T12:14:07Z</time>
      </trkpt>
      <trkpt lat="39.762323000" lon="-8.459741000">
        <ele>112.200000</ele>
        <time>2020-10-17T12:14:08Z</time>
      </trkpt>
      <trkpt lat="39.762321000" lon="-8.459759000">
        <ele>112.200000</ele>
        <time>2020-10-17T12:14:09Z</time>
      </trkpt>
      <trkpt lat="39.762322000" lon="-8.459777000">
        <ele>112.200000</ele>
        <time>2020-10-17T12:14:10Z</time>
      </trkpt>
      <trkpt lat="39.762321000" lon="-8.459791000">
        <ele>112.200000</ele>
        <time>2020-10-17T12:14:11Z</time>
      </trkpt>
      <trkpt lat="39.762322000" lon="-8.459805000">
        <ele>112.400000</ele>
        <time>2020-10-17T12:14:12Z</time>
      </trkpt>
      <trkpt lat="39.762314000" lon="-8.459824000">
        <ele>112.200000</ele>
        <time>2020-10-17T12:14:13Z</time>
      </trkpt>
      <trkpt lat="39.762309000" lon="-8.459837000">
        <ele>112.400000</ele>
        <time>2020-10-17T12:14:14Z</time>
      </trkpt>
      <trkpt lat="39.762304000" lon="-8.459854000">
        <ele>112.400000</ele>
        <time>2020-10-17T12:14:15Z</time>
      </trkpt>
      <trkpt lat="39.762295000" lon="-8.459884000">
        <ele>112.400000</ele>
        <time>2020-10-17T12:14:17Z</time>
      </trkpt>
      <trkpt lat="39.762286000" lon="-8.459892000">
        <ele>112.400000</ele>
        <time>2020-10-17T12:14:18Z</time>
      </trkpt>
      <trkpt lat="39.762279000" lon="-8.459894000">
        <ele>112.600000</ele>
        <time>2020-10-17T12:14:19Z</time>
      </trkpt>
      <trkpt lat="39.762276000" lon="-8.459890000">
        <ele>112.600000</ele>
        <time>2020-10-17T12:14:20Z</time>
      </trkpt>
      <trkpt lat="39.762274000" lon="-8.459885000">
        <ele>112.400000</ele>
        <time>2020-10-17T12:14:21Z</time>
      </trkpt>
      <trkpt lat="39.762269000" lon="-8.459882000">
        <ele>112.600000</ele>
        <time>2020-10-17T12:14:23Z</time>
      </trkpt>
      <trkpt lat="39.762291000" lon="-8.459814000">
        <ele>117.800000</ele>
        <time>2020-10-17T12:58:12Z</time>
      </trkpt>
      <trkpt lat="39.762284000" lon="-8.459794000">
        <ele>117.800000</ele>
        <time>2020-10-17T12:58:13Z</time>
      </trkpt>
      <trkpt lat="39.762275000" lon="-8.459773000">
        <ele>117.800000</ele>
        <time>2020-10-17T12:58:14Z</time>
      </trkpt>
      <trkpt lat="39.762263000" lon="-8.459752000">
        <ele>117.800000</ele>
        <time>2020-10-17T12:58:15Z</time>
      </trkpt>
      <trkpt lat="39.762250000" lon="-8.459731000">
        <ele>117.800000</ele>
        <time>2020-10-17T12:58:16Z</time>
      </trkpt>
      <trkpt lat="39.762210000" lon="-8.459698000">
        <ele>117.800000</ele>
        <time>2020-10-17T12:58:18Z</time>
      </trkpt>
      <trkpt lat="39.762186000" lon="-8.459687000">
        <ele>117.800000</ele>
        <time>2020-10-17T12:58:19Z</time>
      </trkpt>
      <trkpt lat="39.762159000" lon="-8.459682000">
        <ele>117.800000</ele>
        <time>2020-10-17T12:58:20Z</time>
      </trkpt>
      <trkpt lat="39.762132000" lon="-8.459677000">
        <ele>117.800000</ele>
        <time>2020-10-17T12:58:21Z</time>
      </trkpt>
      <trkpt lat="39.762030000" lon="-8.459648000">
        <ele>117.400000</ele>
        <time>2020-10-17T12:58:25Z</time>
      </trkpt>
      <trkpt lat="39.762007000" lon="-8.459640000">
        <ele>117.400000</ele>
        <time>2020-10-17T12:58:26Z</time>
      </trkpt>
      <trkpt lat="39.761984000" lon="-8.459630000">
        <ele>117.600000</ele>
        <time>2020-10-17T12:58:27Z</time>
      </trkpt>
      <trkpt lat="39.761961000" lon="-8.459617000">
        <ele>117.400000</ele>
        <time>2020-10-17T12:58:28Z</time>
      </trkpt>
      <trkpt lat="39.761879000" lon="-8.459566000">
        <ele>117.400000</ele>
        <time>2020-10-17T12:58:31Z</time>
      </trkpt>
      <trkpt lat="39.761857000" lon="-8.459559000">
        <ele>117.200000</ele>
        <time>2020-10-17T12:58:32Z</time>
      </trkpt>
      <trkpt lat="39.761837000" lon="-8.459551000">
        <ele>117.400000</ele>
        <time>2020-10-17T12:58:33Z</time>
      </trkpt>
      <trkpt lat="39.761782000" lon="-8.459523000">
        <ele>117.200000</ele>
        <time>2020-10-17T12:58:35Z</time>
      </trkpt>
      <trkpt lat="39.761718000" lon="-8.459501000">
        <ele>117.400000</ele>
        <time>2020-10-17T12:58:38Z</time>
      </trkpt>
      <trkpt lat="39.761699000" lon="-8.459494000">
        <ele>117.400000</ele>
        <time>2020-10-17T12:58:39Z</time>
      </trkpt>
      <trkpt lat="39.761659000" lon="-8.459472000">
        <ele>117.400000</ele>
        <time>2020-10-17T12:58:41Z</time>
      </trkpt>
      <trkpt lat="39.761634000" lon="-8.459453000">
        <ele>117.400000</ele>
        <time>2020-10-17T12:58:42Z</time>
      </trkpt>
      <trkpt lat="39.761460000" lon="-8.459307000">
        <ele>117.400000</ele>
        <time>2020-10-17T12:58:48Z</time>
      </trkpt>
      <trkpt lat="39.761335000" lon="-8.459221000">
        <ele>117.400000</ele>
        <time>2020-10-17T12:58:52Z</time>
      </trkpt>
      <trkpt lat="39.761304000" lon="-8.459205000">
        <ele>117.400000</ele>
        <time>2020-10-17T12:58:53Z</time>
      </trkpt>
      <trkpt lat="39.761271000" lon="-8.459192000">
        <ele>117.400000</ele>
        <time>2020-10-17T12:58:54Z</time>
      </trkpt>
      <trkpt lat="39.761239000" lon="-8.459184000">
        <ele>117.400000</ele>
        <time>2020-10-17T12:58:55Z</time>
      </trkpt>
      <trkpt lat="39.761137000" lon="-8.459167000">
        <ele>117.400000</ele>
        <time>2020-10-17T12:58:58Z</time>
      </trkpt>
      <trkpt lat="39.761105000" lon="-8.459162000">
        <ele>117.400000</ele>
        <time>2020-10-17T12:58:59Z</time>
      </trkpt>
      <trkpt lat="39.761076000" lon="-8.459159000">
        <ele>117.400000</ele>
        <time>2020-10-17T12:59:00Z</time>
      </trkpt>
      <trkpt lat="39.761046000" lon="-8.459154000">
        <ele>117.400000</ele>
        <time>2020-10-17T12:59:01Z</time>
      </trkpt>
      <trkpt lat="39.760976000" lon="-8.459147000">
        <ele>117.400000</ele>
        <time>2020-10-17T12:59:03Z</time>
      </trkpt>
      <trkpt lat="39.760943000" lon="-8.459153000">
        <ele>117.400000</ele>
        <time>2020-10-17T12:59:04Z</time>
      </trkpt>
      <trkpt lat="39.760840000" lon="-8.459165000">
        <ele>117.400000</ele>
        <time>2020-10-17T12:59:07Z</time>
      </trkpt>
      <trkpt lat="39.760775000" lon="-8.459173000">
        <ele>117.400000</ele>
        <time>2020-10-17T12:59:09Z</time>
      </trkpt>
      <trkpt lat="39.760741000" lon="-8.459169000">
        <ele>117.600000</ele>
        <time>2020-10-17T12:59:10Z</time>
      </trkpt>
      <trkpt lat="39.760596000" lon="-8.459154000">
        <ele>117.400000</ele>
        <time>2020-10-17T12:59:14Z</time>
      </trkpt>
      <trkpt lat="39.760517000" lon="-8.459140000">
        <ele>117.600000</ele>
        <time>2020-10-17T12:59:16Z</time>
      </trkpt>
      <trkpt lat="39.760483000" lon="-8.459135000">
        <ele>117.600000</ele>
        <time>2020-10-17T12:59:17Z</time>
      </trkpt>
      <trkpt lat="39.760449000" lon="-8.459131000">
        <ele>117.600000</ele>
        <time>2020-10-17T12:59:18Z</time>
      </trkpt>
      <trkpt lat="39.760294000" lon="-8.459107000">
        <ele>117.600000</ele>
        <time>2020-10-17T12:59:21Z</time>
      </trkpt>
      <trkpt lat="39.760153000" lon="-8.459104000">
        <ele>117.800000</ele>
        <time>2020-10-17T12:59:24Z</time>
      </trkpt>
      <trkpt lat="39.760112000" lon="-8.459118000">
        <ele>117.600000</ele>
        <time>2020-10-17T12:59:25Z</time>
      </trkpt>
      <trkpt lat="39.760075000" lon="-8.459124000">
        <ele>117.600000</ele>
        <time>2020-10-17T12:59:26Z</time>
      </trkpt>
      <trkpt lat="39.760039000" lon="-8.459128000">
        <ele>117.600000</ele>
        <time>2020-10-17T12:59:27Z</time>
      </trkpt>
      <trkpt lat="39.760001000" lon="-8.459123000">
        <ele>117.800000</ele>
        <time>2020-10-17T12:59:28Z</time>
      </trkpt>
      <trkpt lat="39.759927000" lon="-8.459114000">
        <ele>117.800000</ele>
        <time>2020-10-17T12:59:30Z</time>
      </trkpt>
      <trkpt lat="39.759892000" lon="-8.459113000">
        <ele>117.800000</ele>
        <time>2020-10-17T12:59:31Z</time>
      </trkpt>
      <trkpt lat="39.759784000" lon="-8.459124000">
        <ele>118.200000</ele>
        <time>2020-10-17T12:59:34Z</time>
      </trkpt>
      <trkpt lat="39.759746000" lon="-8.459138000">
        <ele>118.000000</ele>
        <time>2020-10-17T12:59:35Z</time>
      </trkpt>
      <trkpt lat="39.759608000" lon="-8.459144000">
        <ele>118.200000</ele>
        <time>2020-10-17T12:59:38Z</time>
      </trkpt>
      <trkpt lat="39.759560000" lon="-8.459145000">
        <ele>118.200000</ele>
        <time>2020-10-17T12:59:39Z</time>
      </trkpt>
      <trkpt lat="39.759509000" lon="-8.459147000">
        <ele>118.200000</ele>
        <time>2020-10-17T12:59:40Z</time>
      </trkpt>
      <trkpt lat="39.759453000" lon="-8.459145000">
        <ele>118.400000</ele>
        <time>2020-10-17T12:59:41Z</time>
      </trkpt>
      <trkpt lat="39.759404000" lon="-8.459145000">
        <ele>118.400000</ele>
        <time>2020-10-17T12:59:42Z</time>
      </trkpt>
      <trkpt lat="39.759350000" lon="-8.459145000">
        <ele>118.200000</ele>
        <time>2020-10-17T12:59:43Z</time>
      </trkpt>
      <trkpt lat="39.759300000" lon="-8.459145000">
        <ele>118.400000</ele>
        <time>2020-10-17T12:59:44Z</time>
      </trkpt>
      <trkpt lat="39.759084000" lon="-8.459146000">
        <ele>118.200000</ele>
        <time>2020-10-17T12:59:48Z</time>
      </trkpt>
      <trkpt lat="39.759031000" lon="-8.459150000">
        <ele>118.200000</ele>
        <time>2020-10-17T12:59:49Z</time>
      </trkpt>
      <trkpt lat="39.758976000" lon="-8.459157000">
        <ele>118.200000</ele>
        <time>2020-10-17T12:59:50Z</time>
      </trkpt>
      <trkpt lat="39.758866000" lon="-8.459174000">
        <ele>118.200000</ele>
        <time>2020-10-17T12:59:52Z</time>
      </trkpt>
      <trkpt lat="39.758814000" lon="-8.459182000">
        <ele>118.200000</ele>
        <time>2020-10-17T12:59:53Z</time>
      </trkpt>
      <trkpt lat="39.758766000" lon="-8.459190000">
        <ele>118.200000</ele>
        <time>2020-10-17T12:59:54Z</time>
      </trkpt>
      <trkpt lat="39.758717000" lon="-8.459196000">
        <ele>118.400000</ele>
        <time>2020-10-17T12:59:55Z</time>
      </trkpt>
      <trkpt lat="39.758613000" lon="-8.459210000">
        <ele>118.200000</ele>
        <time>2020-10-17T12:59:57Z</time>
      </trkpt>
      <trkpt lat="39.758508000" lon="-8.459228000">
        <ele>118.600000</ele>
        <time>2020-10-17T12:59:59Z</time>
      </trkpt>
      <trkpt lat="39.758402000" lon="-8.459252000">
        <ele>118.600000</ele>
        <time>2020-10-17T13:00:01Z</time>
      </trkpt>
      <trkpt lat="39.758349000" lon="-8.459276000">
        <ele>118.600000</ele>
        <time>2020-10-17T13:00:02Z</time>
      </trkpt>
      <trkpt lat="39.758299000" lon="-8.459297000">
        <ele>118.600000</ele>
        <time>2020-10-17T13:00:03Z</time>
      </trkpt>
      <trkpt lat="39.758251000" lon="-8.459315000">
        <ele>118.600000</ele>
        <time>2020-10-17T13:00:04Z</time>
      </trkpt>
      <trkpt lat="39.758205000" lon="-8.459341000">
        <ele>118.600000</ele>
        <time>2020-10-17T13:00:05Z</time>
      </trkpt>
      <trkpt lat="39.758156000" lon="-8.459374000">
        <ele>118.400000</ele>
        <time>2020-10-17T13:00:06Z</time>
      </trkpt>
      <trkpt lat="39.757832000" lon="-8.459583000">
        <ele>118.800000</ele>
        <time>2020-10-17T13:00:12Z</time>
      </trkpt>
      <trkpt lat="39.757772000" lon="-8.459605000">
        <ele>118.800000</ele>
        <time>2020-10-17T13:00:13Z</time>
      </trkpt>
      <trkpt lat="39.757644000" lon="-8.459627000">
        <ele>118.800000</ele>
        <time>2020-10-17T13:00:15Z</time>
      </trkpt>
      <trkpt lat="39.757434000" lon="-8.459633000">
        <ele>118.800000</ele>
        <time>2020-10-17T13:00:18Z</time>
      </trkpt>
      <trkpt lat="39.757360000" lon="-8.459628000">
        <ele>118.800000</ele>
        <time>2020-10-17T13:00:19Z</time>
      </trkpt>
      <trkpt lat="39.757213000" lon="-8.459624000">
        <ele>119.000000</ele>
        <time>2020-10-17T13:00:21Z</time>
      </trkpt>
      <trkpt lat="39.757059000" lon="-8.459641000">
        <ele>118.800000</ele>
        <time>2020-10-17T13:00:23Z</time>
      </trkpt>
      <trkpt lat="39.756982000" lon="-8.459661000">
        <ele>118.800000</ele>
        <time>2020-10-17T13:00:24Z</time>
      </trkpt>
      <trkpt lat="39.756905000" lon="-8.459692000">
        <ele>118.600000</ele>
        <time>2020-10-17T13:00:25Z</time>
      </trkpt>
      <trkpt lat="39.756833000" lon="-8.459730000">
        <ele>118.600000</ele>
        <time>2020-10-17T13:00:26Z</time>
      </trkpt>
      <trkpt lat="39.756694000" lon="-8.459824000">
        <ele>118.000000</ele>
        <time>2020-10-17T13:00:28Z</time>
      </trkpt>
      <trkpt lat="39.756342000" lon="-8.460082000">
        <ele>116.200000</ele>
        <time>2020-10-17T13:00:33Z</time>
      </trkpt>
      <trkpt lat="39.756273000" lon="-8.460137000">
        <ele>116.000000</ele>
        <time>2020-10-17T13:00:34Z</time>
      </trkpt>
      <trkpt lat="39.756207000" lon="-8.460193000">
        <ele>115.800000</ele>
        <time>2020-10-17T13:00:35Z</time>
      </trkpt>
      <trkpt lat="39.756141000" lon="-8.460252000">
        <ele>115.600000</ele>
        <time>2020-10-17T13:00:36Z</time>
      </trkpt>
      <trkpt lat="39.756076000" lon="-8.460308000">
        <ele>115.000000</ele>
        <time>2020-10-17T13:00:37Z</time>
      </trkpt>
      <trkpt lat="39.756013000" lon="-8.460362000">
        <ele>114.600000</ele>
        <time>2020-10-17T13:00:38Z</time>
      </trkpt>
      <trkpt lat="39.755949000" lon="-8.460410000">
        <ele>114.200000</ele>
        <time>2020-10-17T13:00:39Z</time>
      </trkpt>
      <trkpt lat="39.755885000" lon="-8.460454000">
        <ele>114.200000</ele>
        <time>2020-10-17T13:00:40Z</time>
      </trkpt>
      <trkpt lat="39.755821000" lon="-8.460491000">
        <ele>114.000000</ele>
        <time>2020-10-17T13:00:41Z</time>
      </trkpt>
      <trkpt lat="39.755757000" lon="-8.460518000">
        <ele>114.000000</ele>
        <time>2020-10-17T13:00:42Z</time>
      </trkpt>
      <trkpt lat="39.755691000" lon="-8.460534000">
        <ele>113.800000</ele>
        <time>2020-10-17T13:00:43Z</time>
      </trkpt>
      <trkpt lat="39.755625000" lon="-8.460541000">
        <ele>113.800000</ele>
        <time>2020-10-17T13:00:44Z</time>
      </trkpt>
      <trkpt lat="39.755560000" lon="-8.460540000">
        <ele>113.600000</ele>
        <time>2020-10-17T13:00:45Z</time>
      </trkpt>
      <trkpt lat="39.755496000" lon="-8.460531000">
        <ele>113.400000</ele>
        <time>2020-10-17T13:00:46Z</time>
      </trkpt>
      <trkpt lat="39.755433000" lon="-8.460519000">
        <ele>113.200000</ele>
        <time>2020-10-17T13:00:47Z</time>
      </trkpt>
      <trkpt lat="39.755372000" lon="-8.460504000">
        <ele>113.200000</ele>
        <time>2020-10-17T13:00:48Z</time>
      </trkpt>
      <trkpt lat="39.755311000" lon="-8.460484000">
        <ele>113.200000</ele>
        <time>2020-10-17T13:00:49Z</time>
      </trkpt>
      <trkpt lat="39.755192000" lon="-8.460432000">
        <ele>113.200000</ele>
        <time>2020-10-17T13:00:51Z</time>
      </trkpt>
      <trkpt lat="39.755136000" lon="-8.460400000">
        <ele>113.000000</ele>
        <time>2020-10-17T13:00:52Z</time>
      </trkpt>
      <trkpt lat="39.755082000" lon="-8.460366000">
        <ele>113.000000</ele>
        <time>2020-10-17T13:00:53Z</time>
      </trkpt>
      <trkpt lat="39.755029000" lon="-8.460334000">
        <ele>113.000000</ele>
        <time>2020-10-17T13:00:54Z</time>
      </trkpt>
      <trkpt lat="39.754980000" lon="-8.460303000">
        <ele>113.200000</ele>
        <time>2020-10-17T13:00:55Z</time>
      </trkpt>
      <trkpt lat="39.754935000" lon="-8.460271000">
        <ele>113.200000</ele>
        <time>2020-10-17T13:00:56Z</time>
      </trkpt>
      <trkpt lat="39.754895000" lon="-8.460240000">
        <ele>113.200000</ele>
        <time>2020-10-17T13:00:57Z</time>
      </trkpt>
      <trkpt lat="39.754858000" lon="-8.460211000">
        <ele>113.200000</ele>
        <time>2020-10-17T13:00:58Z</time>
      </trkpt>
      <trkpt lat="39.754825000" lon="-8.460181000">
        <ele>113.000000</ele>
        <time>2020-10-17T13:00:59Z</time>
      </trkpt>
      <trkpt lat="39.754796000" lon="-8.460148000">
        <ele>113.000000</ele>
        <time>2020-10-17T13:01:00Z</time>
      </trkpt>
      <trkpt lat="39.754771000" lon="-8.460125000">
        <ele>113.000000</ele>
        <time>2020-10-17T13:01:01Z</time>
      </trkpt>
      <trkpt lat="39.754739000" lon="-8.460105000">
        <ele>113.200000</ele>
        <time>2020-10-17T13:01:02Z</time>
      </trkpt>
      <trkpt lat="39.754708000" lon="-8.460095000">
        <ele>113.200000</ele>
        <time>2020-10-17T13:01:03Z</time>
      </trkpt>
      <trkpt lat="39.754682000" lon="-8.460085000">
        <ele>113.200000</ele>
        <time>2020-10-17T13:01:04Z</time>
      </trkpt>
      <trkpt lat="39.754660000" lon="-8.460073000">
        <ele>113.200000</ele>
        <time>2020-10-17T13:01:05Z</time>
      </trkpt>
      <trkpt lat="39.754637000" lon="-8.460061000">
        <ele>113.400000</ele>
        <time>2020-10-17T13:01:06Z</time>
      </trkpt>
      <trkpt lat="39.754618000" lon="-8.460051000">
        <ele>113.400000</ele>
        <time>2020-10-17T13:01:07Z</time>
      </trkpt>
      <trkpt lat="39.754597000" lon="-8.460040000">
        <ele>113.800000</ele>
        <time>2020-10-17T13:01:08Z</time>
      </trkpt>
      <trkpt lat="39.754574000" lon="-8.460032000">
        <ele>114.000000</ele>
        <time>2020-10-17T13:01:09Z</time>
      </trkpt>
      <trkpt lat="39.754550000" lon="-8.460027000">
        <ele>114.200000</ele>
        <time>2020-10-17T13:01:10Z</time>
      </trkpt>
      <trkpt lat="39.754525000" lon="-8.460023000">
        <ele>114.800000</ele>
        <time>2020-10-17T13:01:11Z</time>
      </trkpt>
      <trkpt lat="39.754501000" lon="-8.460020000">
        <ele>115.000000</ele>
        <time>2020-10-17T13:01:12Z</time>
      </trkpt>
      <trkpt lat="39.754477000" lon="-8.460020000">
        <ele>115.400000</ele>
        <time>2020-10-17T13:01:13Z</time>
      </trkpt>
      <trkpt lat="39.754452000" lon="-8.460015000">
        <ele>115.800000</ele>
        <time>2020-10-17T13:01:14Z</time>
      </trkpt>
      <trkpt lat="39.754428000" lon="-8.460018000">
        <ele>116.200000</ele>
        <time>2020-10-17T13:01:15Z</time>
      </trkpt>
      <trkpt lat="39.754405000" lon="-8.460024000">
        <ele>116.400000</ele>
        <time>2020-10-17T13:01:16Z</time>
      </trkpt>
      <trkpt lat="39.754384000" lon="-8.460032000">
        <ele>116.600000</ele>
        <time>2020-10-17T13:01:17Z</time>
      </trkpt>
      <trkpt lat="39.754362000" lon="-8.460038000">
        <ele>116.800000</ele>
        <time>2020-10-17T13:01:18Z</time>
      </trkpt>
      <trkpt lat="39.754341000" lon="-8.460044000">
        <ele>117.200000</ele>
        <time>2020-10-17T13:01:19Z</time>
      </trkpt>
      <trkpt lat="39.754321000" lon="-8.460053000">
        <ele>117.400000</ele>
        <time>2020-10-17T13:01:20Z</time>
      </trkpt>
      <trkpt lat="39.754302000" lon="-8.460061000">
        <ele>117.800000</ele>
        <time>2020-10-17T13:01:21Z</time>
      </trkpt>
      <trkpt lat="39.754283000" lon="-8.460070000">
        <ele>118.000000</ele>
        <time>2020-10-17T13:01:22Z</time>
      </trkpt>
      <trkpt lat="39.754262000" lon="-8.460077000">
        <ele>118.200000</ele>
        <time>2020-10-17T13:01:23Z</time>
      </trkpt>
      <trkpt lat="39.754241000" lon="-8.460083000">
        <ele>118.200000</ele>
        <time>2020-10-17T13:01:24Z</time>
      </trkpt>
      <trkpt lat="39.754221000" lon="-8.460089000">
        <ele>118.400000</ele>
        <time>2020-10-17T13:01:25Z</time>
      </trkpt>
      <trkpt lat="39.754199000" lon="-8.460094000">
        <ele>118.600000</ele>
        <time>2020-10-17T13:01:26Z</time>
      </trkpt>
      <trkpt lat="39.754178000" lon="-8.460098000">
        <ele>118.800000</ele>
        <time>2020-10-17T13:01:27Z</time>
      </trkpt>
      <trkpt lat="39.754158000" lon="-8.460100000">
        <ele>119.000000</ele>
        <time>2020-10-17T13:01:28Z</time>
      </trkpt>
      <trkpt lat="39.754138000" lon="-8.460101000">
        <ele>119.400000</ele>
        <time>2020-10-17T13:01:29Z</time>
      </trkpt>
      <trkpt lat="39.754117000" lon="-8.460099000">
        <ele>119.600000</ele>
        <time>2020-10-17T13:01:30Z</time>
      </trkpt>
      <trkpt lat="39.754093000" lon="-8.460099000">
        <ele>119.600000</ele>
        <time>2020-10-17T13:01:31Z</time>
      </trkpt>
      <trkpt lat="39.754070000" lon="-8.460099000">
        <ele>119.800000</ele>
        <time>2020-10-17T13:01:32Z</time>
      </trkpt>
      <trkpt lat="39.754046000" lon="-8.460097000">
        <ele>120.000000</ele>
        <time>2020-10-17T13:01:33Z</time>
      </trkpt>
      <trkpt lat="39.754024000" lon="-8.460094000">
        <ele>120.000000</ele>
        <time>2020-10-17T13:01:34Z</time>
      </trkpt>
      <trkpt lat="39.753999000" lon="-8.460093000">
        <ele>120.200000</ele>
        <time>2020-10-17T13:01:35Z</time>
      </trkpt>
      <trkpt lat="39.753974000" lon="-8.460090000">
        <ele>120.400000</ele>
        <time>2020-10-17T13:01:36Z</time>
      </trkpt>
      <trkpt lat="39.753949000" lon="-8.460088000">
        <ele>120.600000</ele>
        <time>2020-10-17T13:01:37Z</time>
      </trkpt>
      <trkpt lat="39.753922000" lon="-8.460088000">
        <ele>120.800000</ele>
        <time>2020-10-17T13:01:38Z</time>
      </trkpt>
      <trkpt lat="39.753894000" lon="-8.460086000">
        <ele>121.000000</ele>
        <time>2020-10-17T13:01:39Z</time>
      </trkpt>
      <trkpt lat="39.753863000" lon="-8.460086000">
        <ele>121.400000</ele>
        <time>2020-10-17T13:01:40Z</time>
      </trkpt>
      <trkpt lat="39.753831000" lon="-8.460086000">
        <ele>121.600000</ele>
        <time>2020-10-17T13:01:41Z</time>
      </trkpt>
      <trkpt lat="39.753800000" lon="-8.460085000">
        <ele>121.600000</ele>
        <time>2020-10-17T13:01:42Z</time>
      </trkpt>
      <trkpt lat="39.753768000" lon="-8.460083000">
        <ele>121.800000</ele>
        <time>2020-10-17T13:01:43Z</time>
      </trkpt>
      <trkpt lat="39.753735000" lon="-8.460083000">
        <ele>121.800000</ele>
        <time>2020-10-17T13:01:44Z</time>
      </trkpt>
      <trkpt lat="39.753703000" lon="-8.460083000">
        <ele>122.000000</ele>
        <time>2020-10-17T13:01:45Z</time>
      </trkpt>
      <trkpt lat="39.753669000" lon="-8.460082000">
        <ele>122.000000</ele>
        <time>2020-10-17T13:01:46Z</time>
      </trkpt>
      <trkpt lat="39.753633000" lon="-8.460080000">
        <ele>122.200000</ele>
        <time>2020-10-17T13:01:47Z</time>
      </trkpt>
      <trkpt lat="39.753597000" lon="-8.460077000">
        <ele>122.200000</ele>
        <time>2020-10-17T13:01:48Z</time>
      </trkpt>
      <trkpt lat="39.753560000" lon="-8.460075000">
        <ele>122.200000</ele>
        <time>2020-10-17T13:01:49Z</time>
      </trkpt>
      <trkpt lat="39.753521000" lon="-8.460074000">
        <ele>122.400000</ele>
        <time>2020-10-17T13:01:50Z</time>
      </trkpt>
      <trkpt lat="39.753481000" lon="-8.460075000">
        <ele>122.200000</ele>
        <time>2020-10-17T13:01:51Z</time>
      </trkpt>
      <trkpt lat="39.753440000" lon="-8.460077000">
        <ele>122.400000</ele>
        <time>2020-10-17T13:01:52Z</time>
      </trkpt>
      <trkpt lat="39.753142000" lon="-8.460112000">
        <ele>122.600000</ele>
        <time>2020-10-17T13:01:59Z</time>
      </trkpt>
      <trkpt lat="39.753103000" lon="-8.460134000">
        <ele>122.600000</ele>
        <time>2020-10-17T13:02:00Z</time>
      </trkpt>
      <trkpt lat="39.752919000" lon="-8.460285000">
        <ele>122.800000</ele>
        <time>2020-10-17T13:02:05Z</time>
      </trkpt>
      <trkpt lat="39.752884000" lon="-8.460316000">
        <ele>122.800000</ele>
        <time>2020-10-17T13:02:06Z</time>
      </trkpt>
      <trkpt lat="39.752849000" lon="-8.460344000">
        <ele>122.800000</ele>
        <time>2020-10-17T13:02:07Z</time>
      </trkpt>
      <trkpt lat="39.752813000" lon="-8.460372000">
        <ele>122.800000</ele>
        <time>2020-10-17T13:02:08Z</time>
      </trkpt>
      <trkpt lat="39.752579000" lon="-8.460543000">
        <ele>123.000000</ele>
        <time>2020-10-17T13:02:14Z</time>
      </trkpt>
      <trkpt lat="39.752453000" lon="-8.460618000">
        <ele>123.600000</ele>
        <time>2020-10-17T13:02:17Z</time>
      </trkpt>
      <trkpt lat="39.752411000" lon="-8.460634000">
        <ele>123.600000</ele>
        <time>2020-10-17T13:02:18Z</time>
      </trkpt>
      <trkpt lat="39.752278000" lon="-8.460696000">
        <ele>124.000000</ele>
        <time>2020-10-17T13:02:21Z</time>
      </trkpt>
      <trkpt lat="39.751994000" lon="-8.460916000">
        <ele>124.200000</ele>
        <time>2020-10-17T13:02:27Z</time>
      </trkpt>
      <trkpt lat="39.751889000" lon="-8.460980000">
        <ele>124.200000</ele>
        <time>2020-10-17T13:02:29Z</time>
      </trkpt>
      <trkpt lat="39.751832000" lon="-8.461005000">
        <ele>124.200000</ele>
        <time>2020-10-17T13:02:30Z</time>
      </trkpt>
      <trkpt lat="39.751777000" lon="-8.461024000">
        <ele>124.200000</ele>
        <time>2020-10-17T13:02:31Z</time>
      </trkpt>
      <trkpt lat="39.751721000" lon="-8.461036000">
        <ele>124.400000</ele>
        <time>2020-10-17T13:02:32Z</time>
      </trkpt>
      <trkpt lat="39.751668000" lon="-8.461053000">
        <ele>124.200000</ele>
        <time>2020-10-17T13:02:33Z</time>
      </trkpt>
      <trkpt lat="39.751560000" lon="-8.461086000">
        <ele>124.400000</ele>
        <time>2020-10-17T13:02:35Z</time>
      </trkpt>
      <trkpt lat="39.751509000" lon="-8.461100000">
        <ele>124.600000</ele>
        <time>2020-10-17T13:02:36Z</time>
      </trkpt>
      <trkpt lat="39.751458000" lon="-8.461116000">
        <ele>124.600000</ele>
        <time>2020-10-17T13:02:37Z</time>
      </trkpt>
      <trkpt lat="39.751407000" lon="-8.461130000">
        <ele>124.600000</ele>
        <time>2020-10-17T13:02:38Z</time>
      </trkpt>
      <trkpt lat="39.751358000" lon="-8.461141000">
        <ele>124.400000</ele>
        <time>2020-10-17T13:02:39Z</time>
      </trkpt>
      <trkpt lat="39.751310000" lon="-8.461157000">
        <ele>124.800000</ele>
        <time>2020-10-17T13:02:40Z</time>
      </trkpt>
      <trkpt lat="39.751262000" lon="-8.461165000">
        <ele>124.800000</ele>
        <time>2020-10-17T13:02:41Z</time>
      </trkpt>
      <trkpt lat="39.751216000" lon="-8.461173000">
        <ele>124.800000</ele>
        <time>2020-10-17T13:02:42Z</time>
      </trkpt>
      <trkpt lat="39.751173000" lon="-8.461178000">
        <ele>124.800000</ele>
        <time>2020-10-17T13:02:43Z</time>
      </trkpt>
      <trkpt lat="39.751135000" lon="-8.461180000">
        <ele>125.000000</ele>
        <time>2020-10-17T13:02:44Z</time>
      </trkpt>
      <trkpt lat="39.751099000" lon="-8.461182000">
        <ele>124.800000</ele>
        <time>2020-10-17T13:02:45Z</time>
      </trkpt>
      <trkpt lat="39.751059000" lon="-8.461186000">
        <ele>125.000000</ele>
        <time>2020-10-17T13:02:46Z</time>
      </trkpt>
      <trkpt lat="39.750774000" lon="-8.461236000">
        <ele>125.600000</ele>
        <time>2020-10-17T13:02:52Z</time>
      </trkpt>
      <trkpt lat="39.750379000" lon="-8.461318000">
        <ele>125.800000</ele>
        <time>2020-10-17T13:02:59Z</time>
      </trkpt>
      <trkpt lat="39.750275000" lon="-8.461381000">
        <ele>125.800000</ele>
        <time>2020-10-17T13:03:01Z</time>
      </trkpt>
      <trkpt lat="39.750226000" lon="-8.461418000">
        <ele>126.000000</ele>
        <time>2020-10-17T13:03:02Z</time>
      </trkpt>
      <trkpt lat="39.750181000" lon="-8.461457000">
        <ele>125.800000</ele>
        <time>2020-10-17T13:03:03Z</time>
      </trkpt>
      <trkpt lat="39.750137000" lon="-8.461498000">
        <ele>125.800000</ele>
        <time>2020-10-17T13:03:04Z</time>
      </trkpt>
      <trkpt lat="39.750095000" lon="-8.461540000">
        <ele>125.800000</ele>
        <time>2020-10-17T13:03:05Z</time>
      </trkpt>
      <trkpt lat="39.750060000" lon="-8.461590000">
        <ele>126.000000</ele>
        <time>2020-10-17T13:03:06Z</time>
      </trkpt>
      <trkpt lat="39.750036000" lon="-8.461639000">
        <ele>126.000000</ele>
        <time>2020-10-17T13:03:07Z</time>
      </trkpt>
      <trkpt lat="39.750023000" lon="-8.461691000">
        <ele>126.000000</ele>
        <time>2020-10-17T13:03:08Z</time>
      </trkpt>
      <trkpt lat="39.750019000" lon="-8.461744000">
        <ele>126.000000</ele>
        <time>2020-10-17T13:03:09Z</time>
      </trkpt>
      <trkpt lat="39.750021000" lon="-8.461798000">
        <ele>126.000000</ele>
        <time>2020-10-17T13:03:10Z</time>
      </trkpt>
      <trkpt lat="39.750021000" lon="-8.461849000">
        <ele>126.000000</ele>
        <time>2020-10-17T13:03:11Z</time>
      </trkpt>
      <trkpt lat="39.750017000" lon="-8.461898000">
        <ele>126.000000</ele>
        <time>2020-10-17T13:03:12Z</time>
      </trkpt>
      <trkpt lat="39.750003000" lon="-8.461945000">
        <ele>125.800000</ele>
        <time>2020-10-17T13:03:13Z</time>
      </trkpt>
      <trkpt lat="39.749958000" lon="-8.462113000">
        <ele>126.000000</ele>
        <time>2020-10-17T13:03:16Z</time>
      </trkpt>
      <trkpt lat="39.749898000" lon="-8.462213000">
        <ele>126.400000</ele>
        <time>2020-10-17T13:03:18Z</time>
      </trkpt>
      <trkpt lat="39.749737000" lon="-8.462563000">
        <ele>127.600000</ele>
        <time>2020-10-17T13:03:24Z</time>
      </trkpt>
      <trkpt lat="39.749688000" lon="-8.462677000">
        <ele>127.800000</ele>
        <time>2020-10-17T13:03:26Z</time>
      </trkpt>
      <trkpt lat="39.749642000" lon="-8.462784000">
        <ele>127.800000</ele>
        <time>2020-10-17T13:03:28Z</time>
      </trkpt>
      <trkpt lat="39.749618000" lon="-8.462839000">
        <ele>128.000000</ele>
        <time>2020-10-17T13:03:29Z</time>
      </trkpt>
      <trkpt lat="39.749499000" lon="-8.463074000">
        <ele>128.000000</ele>
        <time>2020-10-17T13:03:33Z</time>
      </trkpt>
      <trkpt lat="39.749470000" lon="-8.463126000">
        <ele>128.000000</ele>
        <time>2020-10-17T13:03:34Z</time>
      </trkpt>
      <trkpt lat="39.749353000" lon="-8.463333000">
        <ele>128.400000</ele>
        <time>2020-10-17T13:03:38Z</time>
      </trkpt>
      <trkpt lat="39.749323000" lon="-8.463381000">
        <ele>128.400000</ele>
        <time>2020-10-17T13:03:39Z</time>
      </trkpt>
      <trkpt lat="39.749291000" lon="-8.463427000">
        <ele>128.400000</ele>
        <time>2020-10-17T13:03:40Z</time>
      </trkpt>
      <trkpt lat="39.749260000" lon="-8.463472000">
        <ele>128.600000</ele>
        <time>2020-10-17T13:03:41Z</time>
      </trkpt>
      <trkpt lat="39.749232000" lon="-8.463515000">
        <ele>129.000000</ele>
        <time>2020-10-17T13:03:42Z</time>
      </trkpt>
      <trkpt lat="39.748980000" lon="-8.463817000">
        <ele>129.400000</ele>
        <time>2020-10-17T13:03:49Z</time>
      </trkpt>
      <trkpt lat="39.748727000" lon="-8.463969000">
        <ele>129.600000</ele>
        <time>2020-10-17T13:03:54Z</time>
      </trkpt>
      <trkpt lat="39.748671000" lon="-8.463990000">
        <ele>129.600000</ele>
        <time>2020-10-17T13:03:55Z</time>
      </trkpt>
      <trkpt lat="39.748444000" lon="-8.464054000">
        <ele>129.600000</ele>
        <time>2020-10-17T13:03:59Z</time>
      </trkpt>
      <trkpt lat="39.748390000" lon="-8.464070000">
        <ele>129.600000</ele>
        <time>2020-10-17T13:04:00Z</time>
      </trkpt>
      <trkpt lat="39.748338000" lon="-8.464083000">
        <ele>129.800000</ele>
        <time>2020-10-17T13:04:01Z</time>
      </trkpt>
      <trkpt lat="39.748286000" lon="-8.464094000">
        <ele>129.800000</ele>
        <time>2020-10-17T13:04:02Z</time>
      </trkpt>
      <trkpt lat="39.748234000" lon="-8.464104000">
        <ele>130.000000</ele>
        <time>2020-10-17T13:04:03Z</time>
      </trkpt>
      <trkpt lat="39.748183000" lon="-8.464118000">
        <ele>129.800000</ele>
        <time>2020-10-17T13:04:04Z</time>
      </trkpt>
      <trkpt lat="39.747967000" lon="-8.464183000">
        <ele>130.000000</ele>
        <time>2020-10-17T13:04:08Z</time>
      </trkpt>
      <trkpt lat="39.747682000" lon="-8.464241000">
        <ele>130.400000</ele>
        <time>2020-10-17T13:04:13Z</time>
      </trkpt>
      <trkpt lat="39.747625000" lon="-8.464259000">
        <ele>130.400000</ele>
        <time>2020-10-17T13:04:14Z</time>
      </trkpt>
      <trkpt lat="39.747508000" lon="-8.464305000">
        <ele>130.400000</ele>
        <time>2020-10-17T13:04:16Z</time>
      </trkpt>
      <trkpt lat="39.747334000" lon="-8.464384000">
        <ele>130.400000</ele>
        <time>2020-10-17T13:04:19Z</time>
      </trkpt>
      <trkpt lat="39.747273000" lon="-8.464415000">
        <ele>130.600000</ele>
        <time>2020-10-17T13:04:20Z</time>
      </trkpt>
      <trkpt lat="39.747074000" lon="-8.464504000">
        <ele>130.400000</ele>
        <time>2020-10-17T13:04:23Z</time>
      </trkpt>
      <trkpt lat="39.747010000" lon="-8.464526000">
        <ele>130.200000</ele>
        <time>2020-10-17T13:04:24Z</time>
      </trkpt>
      <trkpt lat="39.746880000" lon="-8.464571000">
        <ele>130.200000</ele>
        <time>2020-10-17T13:04:26Z</time>
      </trkpt>
      <trkpt lat="39.746757000" lon="-8.464627000">
        <ele>129.600000</ele>
        <time>2020-10-17T13:04:28Z</time>
      </trkpt>
      <trkpt lat="39.746699000" lon="-8.464656000">
        <ele>129.400000</ele>
        <time>2020-10-17T13:04:29Z</time>
      </trkpt>
      <trkpt lat="39.746645000" lon="-8.464692000">
        <ele>129.400000</ele>
        <time>2020-10-17T13:04:30Z</time>
      </trkpt>
      <trkpt lat="39.746595000" lon="-8.464724000">
        <ele>129.400000</ele>
        <time>2020-10-17T13:04:31Z</time>
      </trkpt>
      <trkpt lat="39.746547000" lon="-8.464755000">
        <ele>129.200000</ele>
        <time>2020-10-17T13:04:32Z</time>
      </trkpt>
      <trkpt lat="39.746500000" lon="-8.464788000">
        <ele>129.200000</ele>
        <time>2020-10-17T13:04:33Z</time>
      </trkpt>
      <trkpt lat="39.746453000" lon="-8.464825000">
        <ele>129.400000</ele>
        <time>2020-10-17T13:04:34Z</time>
      </trkpt>
      <trkpt lat="39.746407000" lon="-8.464863000">
        <ele>129.400000</ele>
        <time>2020-10-17T13:04:35Z</time>
      </trkpt>
      <trkpt lat="39.746365000" lon="-8.464898000">
        <ele>129.400000</ele>
        <time>2020-10-17T13:04:36Z</time>
      </trkpt>
      <trkpt lat="39.746325000" lon="-8.464932000">
        <ele>129.200000</ele>
        <time>2020-10-17T13:04:37Z</time>
      </trkpt>
      <trkpt lat="39.746285000" lon="-8.464966000">
        <ele>129.200000</ele>
        <time>2020-10-17T13:04:38Z</time>
      </trkpt>
      <trkpt lat="39.746248000" lon="-8.465002000">
        <ele>129.400000</ele>
        <time>2020-10-17T13:04:39Z</time>
      </trkpt>
      <trkpt lat="39.746214000" lon="-8.465038000">
        <ele>129.200000</ele>
        <time>2020-10-17T13:04:40Z</time>
      </trkpt>
      <trkpt lat="39.746181000" lon="-8.465071000">
        <ele>129.400000</ele>
        <time>2020-10-17T13:04:41Z</time>
      </trkpt>
      <trkpt lat="39.746145000" lon="-8.465105000">
        <ele>129.400000</ele>
        <time>2020-10-17T13:04:42Z</time>
      </trkpt>
      <trkpt lat="39.746114000" lon="-8.465136000">
        <ele>129.800000</ele>
        <time>2020-10-17T13:04:43Z</time>
      </trkpt>
      <trkpt lat="39.746090000" lon="-8.465160000">
        <ele>129.600000</ele>
        <time>2020-10-17T13:04:44Z</time>
      </trkpt>
      <trkpt lat="39.746070000" lon="-8.465182000">
        <ele>130.000000</ele>
        <time>2020-10-17T13:04:45Z</time>
      </trkpt>
      <trkpt lat="39.746063000" lon="-8.465196000">
        <ele>129.800000</ele>
        <time>2020-10-17T13:04:46Z</time>
      </trkpt>
      <trkpt lat="39.746057000" lon="-8.465205000">
        <ele>130.000000</ele>
        <time>2020-10-17T13:04:47Z</time>
      </trkpt>
      <trkpt lat="39.746061000" lon="-8.465206000">
        <ele>130.800000</ele>
        <time>2020-10-17T13:04:49Z</time>
      </trkpt>
      <trkpt lat="39.745997000" lon="-8.465235000">
        <ele>131.200000</ele>
        <time>2020-10-17T13:05:46Z</time>
      </trkpt>
      <trkpt lat="39.745983000" lon="-8.465252000">
        <ele>131.200000</ele>
        <time>2020-10-17T13:05:47Z</time>
      </trkpt>
      <trkpt lat="39.745965000" lon="-8.465275000">
        <ele>131.200000</ele>
        <time>2020-10-17T13:05:48Z</time>
      </trkpt>
      <trkpt lat="39.745889000" lon="-8.465374000">
        <ele>131.400000</ele>
        <time>2020-10-17T13:05:51Z</time>
      </trkpt>
      <trkpt lat="39.745821000" lon="-8.465459000">
        <ele>131.400000</ele>
        <time>2020-10-17T13:05:53Z</time>
      </trkpt>
      <trkpt lat="39.745584000" lon="-8.465702000">
        <ele>131.600000</ele>
        <time>2020-10-17T13:05:58Z</time>
      </trkpt>
      <trkpt lat="39.745255000" lon="-8.466058000">
        <ele>130.800000</ele>
        <time>2020-10-17T13:06:04Z</time>
      </trkpt>
      <trkpt lat="39.745191000" lon="-8.466107000">
        <ele>130.600000</ele>
        <time>2020-10-17T13:06:05Z</time>
      </trkpt>
      <trkpt lat="39.744983000" lon="-8.466235000">
        <ele>129.200000</ele>
        <time>2020-10-17T13:06:08Z</time>
      </trkpt>
      <trkpt lat="39.744834000" lon="-8.466321000">
        <ele>128.400000</ele>
        <time>2020-10-17T13:06:10Z</time>
      </trkpt>
      <trkpt lat="39.744650000" lon="-8.466368000">
        <ele>128.000000</ele>
        <time>2020-10-17T13:06:12Z</time>
      </trkpt>
      <trkpt lat="39.744343000" lon="-8.466370000">
        <ele>127.600000</ele>
        <time>2020-10-17T13:06:15Z</time>
      </trkpt>
      <trkpt lat="39.744242000" lon="-8.466383000">
        <ele>127.200000</ele>
        <time>2020-10-17T13:06:16Z</time>
      </trkpt>
      <trkpt lat="39.744038000" lon="-8.466458000">
        <ele>126.800000</ele>
        <time>2020-10-17T13:06:18Z</time>
      </trkpt>
      <trkpt lat="39.743940000" lon="-8.466512000">
        <ele>126.200000</ele>
        <time>2020-10-17T13:06:19Z</time>
      </trkpt>
      <trkpt lat="39.743855000" lon="-8.466586000">
        <ele>125.600000</ele>
        <time>2020-10-17T13:06:20Z</time>
      </trkpt>
      <trkpt lat="39.743782000" lon="-8.466664000">
        <ele>125.200000</ele>
        <time>2020-10-17T13:06:21Z</time>
      </trkpt>
      <trkpt lat="39.743723000" lon="-8.466744000">
        <ele>124.200000</ele>
        <time>2020-10-17T13:06:22Z</time>
      </trkpt>
      <trkpt lat="39.743687000" lon="-8.466831000">
        <ele>123.200000</ele>
        <time>2020-10-17T13:06:23Z</time>
      </trkpt>
      <trkpt lat="39.743672000" lon="-8.466922000">
        <ele>122.600000</ele>
        <time>2020-10-17T13:06:24Z</time>
      </trkpt>
      <trkpt lat="39.743677000" lon="-8.467014000">
        <ele>121.800000</ele>
        <time>2020-10-17T13:06:25Z</time>
      </trkpt>
      <trkpt lat="39.743689000" lon="-8.467107000">
        <ele>121.200000</ele>
        <time>2020-10-17T13:06:26Z</time>
      </trkpt>
      <trkpt lat="39.743691000" lon="-8.467194000">
        <ele>120.600000</ele>
        <time>2020-10-17T13:06:27Z</time>
      </trkpt>
      <trkpt lat="39.743681000" lon="-8.467276000">
        <ele>119.400000</ele>
        <time>2020-10-17T13:06:28Z</time>
      </trkpt>
      <trkpt lat="39.743662000" lon="-8.467352000">
        <ele>118.600000</ele>
        <time>2020-10-17T13:06:29Z</time>
      </trkpt>
      <trkpt lat="39.743638000" lon="-8.467425000">
        <ele>118.200000</ele>
        <time>2020-10-17T13:06:30Z</time>
      </trkpt>
      <trkpt lat="39.743613000" lon="-8.467498000">
        <ele>117.800000</ele>
        <time>2020-10-17T13:06:31Z</time>
      </trkpt>
      <trkpt lat="39.743587000" lon="-8.467570000">
        <ele>117.600000</ele>
        <time>2020-10-17T13:06:32Z</time>
      </trkpt>
      <trkpt lat="39.743562000" lon="-8.467640000">
        <ele>117.600000</ele>
        <time>2020-10-17T13:06:33Z</time>
      </trkpt>
      <trkpt lat="39.743483000" lon="-8.467845000">
        <ele>117.200000</ele>
        <time>2020-10-17T13:06:36Z</time>
      </trkpt>
      <trkpt lat="39.743459000" lon="-8.467905000">
        <ele>117.200000</ele>
        <time>2020-10-17T13:06:37Z</time>
      </trkpt>
      <trkpt lat="39.743436000" lon="-8.467968000">
        <ele>117.200000</ele>
        <time>2020-10-17T13:06:38Z</time>
      </trkpt>
      <trkpt lat="39.743413000" lon="-8.468034000">
        <ele>117.200000</ele>
        <time>2020-10-17T13:06:39Z</time>
      </trkpt>
      <trkpt lat="39.743390000" lon="-8.468094000">
        <ele>117.200000</ele>
        <time>2020-10-17T13:06:40Z</time>
      </trkpt>
      <trkpt lat="39.743252000" lon="-8.468440000">
        <ele>117.400000</ele>
        <time>2020-10-17T13:06:45Z</time>
      </trkpt>
      <trkpt lat="39.743241000" lon="-8.468491000">
        <ele>117.400000</ele>
        <time>2020-10-17T13:06:46Z</time>
      </trkpt>
      <trkpt lat="39.743225000" lon="-8.468535000">
        <ele>117.400000</ele>
        <time>2020-10-17T13:06:47Z</time>
      </trkpt>
      <trkpt lat="39.743205000" lon="-8.468588000">
        <ele>117.400000</ele>
        <time>2020-10-17T13:06:48Z</time>
      </trkpt>
      <trkpt lat="39.743183000" lon="-8.468637000">
        <ele>117.400000</ele>
        <time>2020-10-17T13:06:49Z</time>
      </trkpt>
      <trkpt lat="39.743154000" lon="-8.468697000">
        <ele>117.600000</ele>
        <time>2020-10-17T13:06:50Z</time>
      </trkpt>
      <trkpt lat="39.743125000" lon="-8.468740000">
        <ele>117.600000</ele>
        <time>2020-10-17T13:06:51Z</time>
      </trkpt>
      <trkpt lat="39.743091000" lon="-8.468763000">
        <ele>118.000000</ele>
        <time>2020-10-17T13:06:52Z</time>
      </trkpt>
      <trkpt lat="39.743054000" lon="-8.468777000">
        <ele>118.400000</ele>
        <time>2020-10-17T13:06:53Z</time>
      </trkpt>
      <trkpt lat="39.743018000" lon="-8.468802000">
        <ele>118.400000</ele>
        <time>2020-10-17T13:06:54Z</time>
      </trkpt>
      <trkpt lat="39.742974000" lon="-8.468827000">
        <ele>118.400000</ele>
        <time>2020-10-17T13:06:55Z</time>
      </trkpt>
      <trkpt lat="39.742939000" lon="-8.468841000">
        <ele>118.400000</ele>
        <time>2020-10-17T13:06:56Z</time>
      </trkpt>
      <trkpt lat="39.742828000" lon="-8.468920000">
        <ele>118.600000</ele>
        <time>2020-10-17T13:06:58Z</time>
      </trkpt>
      <trkpt lat="39.742719000" lon="-8.468979000">
        <ele>118.600000</ele>
        <time>2020-10-17T13:07:00Z</time>
      </trkpt>
      <trkpt lat="39.742676000" lon="-8.469013000">
        <ele>118.800000</ele>
        <time>2020-10-17T13:07:01Z</time>
      </trkpt>
      <trkpt lat="39.742643000" lon="-8.469066000">
        <ele>119.200000</ele>
        <time>2020-10-17T13:07:02Z</time>
      </trkpt>
      <trkpt lat="39.742611000" lon="-8.469110000">
        <ele>119.400000</ele>
        <time>2020-10-17T13:07:03Z</time>
      </trkpt>
      <trkpt lat="39.742586000" lon="-8.469164000">
        <ele>119.200000</ele>
        <time>2020-10-17T13:07:04Z</time>
      </trkpt>
      <trkpt lat="39.742554000" lon="-8.469215000">
        <ele>119.400000</ele>
        <time>2020-10-17T13:07:05Z</time>
      </trkpt>
      <trkpt lat="39.742527000" lon="-8.469259000">
        <ele>119.400000</ele>
        <time>2020-10-17T13:07:06Z</time>
      </trkpt>
      <trkpt lat="39.742502000" lon="-8.469304000">
        <ele>119.600000</ele>
        <time>2020-10-17T13:07:07Z</time>
      </trkpt>
      <trkpt lat="39.742481000" lon="-8.469362000">
        <ele>119.800000</ele>
        <time>2020-10-17T13:07:08Z</time>
      </trkpt>
      <trkpt lat="39.742452000" lon="-8.469403000">
        <ele>119.800000</ele>
        <time>2020-10-17T13:07:09Z</time>
      </trkpt>
      <trkpt lat="39.742421000" lon="-8.469429000">
        <ele>119.800000</ele>
        <time>2020-10-17T13:07:10Z</time>
      </trkpt>
      <trkpt lat="39.742373000" lon="-8.469466000">
        <ele>119.800000</ele>
        <time>2020-10-17T13:07:11Z</time>
      </trkpt>
      <trkpt lat="39.742328000" lon="-8.469467000">
        <ele>120.000000</ele>
        <time>2020-10-17T13:07:12Z</time>
      </trkpt>
      <trkpt lat="39.742283000" lon="-8.469468000">
        <ele>119.800000</ele>
        <time>2020-10-17T13:07:13Z</time>
      </trkpt>
      <trkpt lat="39.742232000" lon="-8.469462000">
        <ele>120.000000</ele>
        <time>2020-10-17T13:07:14Z</time>
      </trkpt>
      <trkpt lat="39.742178000" lon="-8.469457000">
        <ele>120.200000</ele>
        <time>2020-10-17T13:07:15Z</time>
      </trkpt>
      <trkpt lat="39.742125000" lon="-8.469462000">
        <ele>120.200000</ele>
        <time>2020-10-17T13:07:16Z</time>
      </trkpt>
      <trkpt lat="39.742072000" lon="-8.469466000">
        <ele>120.200000</ele>
        <time>2020-10-17T13:07:17Z</time>
      </trkpt>
      <trkpt lat="39.742023000" lon="-8.469471000">
        <ele>120.400000</ele>
        <time>2020-10-17T13:07:18Z</time>
      </trkpt>
      <trkpt lat="39.741976000" lon="-8.469506000">
        <ele>120.600000</ele>
        <time>2020-10-17T13:07:19Z</time>
      </trkpt>
      <trkpt lat="39.741941000" lon="-8.469527000">
        <ele>120.600000</ele>
        <time>2020-10-17T13:07:20Z</time>
      </trkpt>
      <trkpt lat="39.741910000" lon="-8.469544000">
        <ele>120.600000</ele>
        <time>2020-10-17T13:07:21Z</time>
      </trkpt>
      <trkpt lat="39.741884000" lon="-8.469563000">
        <ele>120.800000</ele>
        <time>2020-10-17T13:07:22Z</time>
      </trkpt>
      <trkpt lat="39.741860000" lon="-8.469579000">
        <ele>121.000000</ele>
        <time>2020-10-17T13:07:23Z</time>
      </trkpt>
      <trkpt lat="39.741841000" lon="-8.469606000">
        <ele>121.200000</ele>
        <time>2020-10-17T13:07:24Z</time>
      </trkpt>
      <trkpt lat="39.741817000" lon="-8.469634000">
        <ele>121.600000</ele>
        <time>2020-10-17T13:07:25Z</time>
      </trkpt>
      <trkpt lat="39.741795000" lon="-8.469664000">
        <ele>121.600000</ele>
        <time>2020-10-17T13:07:26Z</time>
      </trkpt>
      <trkpt lat="39.741772000" lon="-8.469693000">
        <ele>122.000000</ele>
        <time>2020-10-17T13:07:27Z</time>
      </trkpt>
      <trkpt lat="39.741758000" lon="-8.469713000">
        <ele>122.200000</ele>
        <time>2020-10-17T13:07:28Z</time>
      </trkpt>
      <trkpt lat="39.741744000" lon="-8.469724000">
        <ele>122.400000</ele>
        <time>2020-10-17T13:07:29Z</time>
      </trkpt>
      <trkpt lat="39.741724000" lon="-8.469753000">
        <ele>122.600000</ele>
        <time>2020-10-17T13:07:30Z</time>
      </trkpt>
      <trkpt lat="39.741713000" lon="-8.469771000">
        <ele>123.000000</ele>
        <time>2020-10-17T13:07:31Z</time>
      </trkpt>
      <trkpt lat="39.741693000" lon="-8.469810000">
        <ele>123.200000</ele>
        <time>2020-10-17T13:07:32Z</time>
      </trkpt>
      <trkpt lat="39.741660000" lon="-8.469861000">
        <ele>123.800000</ele>
        <time>2020-10-17T13:07:33Z</time>
      </trkpt>
      <trkpt lat="39.741635000" lon="-8.469886000">
        <ele>124.400000</ele>
        <time>2020-10-17T13:07:34Z</time>
      </trkpt>
      <trkpt lat="39.741616000" lon="-8.469916000">
        <ele>124.600000</ele>
        <time>2020-10-17T13:07:35Z</time>
      </trkpt>
      <trkpt lat="39.741596000" lon="-8.469947000">
        <ele>124.600000</ele>
        <time>2020-10-17T13:07:36Z</time>
      </trkpt>
      <trkpt lat="39.741573000" lon="-8.469973000">
        <ele>124.800000</ele>
        <time>2020-10-17T13:07:37Z</time>
      </trkpt>
      <trkpt lat="39.741551000" lon="-8.469998000">
        <ele>125.200000</ele>
        <time>2020-10-17T13:07:38Z</time>
      </trkpt>
      <trkpt lat="39.741535000" lon="-8.470021000">
        <ele>125.200000</ele>
        <time>2020-10-17T13:07:39Z</time>
      </trkpt>
      <trkpt lat="39.741516000" lon="-8.470047000">
        <ele>125.400000</ele>
        <time>2020-10-17T13:07:40Z</time>
      </trkpt>
      <trkpt lat="39.741495000" lon="-8.470072000">
        <ele>125.400000</ele>
        <time>2020-10-17T13:07:41Z</time>
      </trkpt>
      <trkpt lat="39.741469000" lon="-8.470094000">
        <ele>125.400000</ele>
        <time>2020-10-17T13:07:42Z</time>
      </trkpt>
      <trkpt lat="39.741448000" lon="-8.470112000">
        <ele>125.600000</ele>
        <time>2020-10-17T13:07:43Z</time>
      </trkpt>
      <trkpt lat="39.741414000" lon="-8.470142000">
        <ele>125.600000</ele>
        <time>2020-10-17T13:07:44Z</time>
      </trkpt>
      <trkpt lat="39.741394000" lon="-8.470155000">
        <ele>125.800000</ele>
        <time>2020-10-17T13:07:45Z</time>
      </trkpt>
      <trkpt lat="39.741371000" lon="-8.470174000">
        <ele>125.800000</ele>
        <time>2020-10-17T13:07:46Z</time>
      </trkpt>
      <trkpt lat="39.741339000" lon="-8.470194000">
        <ele>125.800000</ele>
        <time>2020-10-17T13:07:47Z</time>
      </trkpt>
      <trkpt lat="39.741315000" lon="-8.470215000">
        <ele>126.000000</ele>
        <time>2020-10-17T13:07:48Z</time>
      </trkpt>
      <trkpt lat="39.741295000" lon="-8.470230000">
        <ele>126.000000</ele>
        <time>2020-10-17T13:07:49Z</time>
      </trkpt>
      <trkpt lat="39.741273000" lon="-8.470243000">
        <ele>126.200000</ele>
        <time>2020-10-17T13:07:50Z</time>
      </trkpt>
      <trkpt lat="39.741249000" lon="-8.470256000">
        <ele>126.400000</ele>
        <time>2020-10-17T13:07:51Z</time>
      </trkpt>
      <trkpt lat="39.741220000" lon="-8.470273000">
        <ele>126.600000</ele>
        <time>2020-10-17T13:07:52Z</time>
      </trkpt>
      <trkpt lat="39.741195000" lon="-8.470277000">
        <ele>126.600000</ele>
        <time>2020-10-17T13:07:53Z</time>
      </trkpt>
      <trkpt lat="39.741169000" lon="-8.470285000">
        <ele>126.800000</ele>
        <time>2020-10-17T13:07:54Z</time>
      </trkpt>
      <trkpt lat="39.741138000" lon="-8.470297000">
        <ele>127.000000</ele>
        <time>2020-10-17T13:07:55Z</time>
      </trkpt>
      <trkpt lat="39.741114000" lon="-8.470309000">
        <ele>127.200000</ele>
        <time>2020-10-17T13:07:56Z</time>
      </trkpt>
      <trkpt lat="39.741102000" lon="-8.470318000">
        <ele>127.600000</ele>
        <time>2020-10-17T13:07:57Z</time>
      </trkpt>
      <trkpt lat="39.741077000" lon="-8.470325000">
        <ele>127.800000</ele>
        <time>2020-10-17T13:07:58Z</time>
      </trkpt>
      <trkpt lat="39.741041000" lon="-8.470328000">
        <ele>128.000000</ele>
        <time>2020-10-17T13:07:59Z</time>
      </trkpt>
      <trkpt lat="39.741007000" lon="-8.470335000">
        <ele>128.200000</ele>
        <time>2020-10-17T13:08:00Z</time>
      </trkpt>
      <trkpt lat="39.740977000" lon="-8.470346000">
        <ele>128.400000</ele>
        <time>2020-10-17T13:08:01Z</time>
      </trkpt>
      <trkpt lat="39.740948000" lon="-8.470347000">
        <ele>128.400000</ele>
        <time>2020-10-17T13:08:02Z</time>
      </trkpt>
      <trkpt lat="39.740925000" lon="-8.470351000">
        <ele>128.600000</ele>
        <time>2020-10-17T13:08:03Z</time>
      </trkpt>
      <trkpt lat="39.740902000" lon="-8.470358000">
        <ele>128.600000</ele>
        <time>2020-10-17T13:08:04Z</time>
      </trkpt>
      <trkpt lat="39.740889000" lon="-8.470364000">
        <ele>129.000000</ele>
        <time>2020-10-17T13:08:05Z</time>
      </trkpt>
      <trkpt lat="39.740870000" lon="-8.470380000">
        <ele>129.400000</ele>
        <time>2020-10-17T13:08:06Z</time>
      </trkpt>
      <trkpt lat="39.740851000" lon="-8.470389000">
        <ele>129.800000</ele>
        <time>2020-10-17T13:08:07Z</time>
      </trkpt>
      <trkpt lat="39.740833000" lon="-8.470399000">
        <ele>130.000000</ele>
        <time>2020-10-17T13:08:08Z</time>
      </trkpt>
      <trkpt lat="39.740821000" lon="-8.470411000">
        <ele>130.000000</ele>
        <time>2020-10-17T13:08:09Z</time>
      </trkpt>
      <trkpt lat="39.740809000" lon="-8.470423000">
        <ele>130.200000</ele>
        <time>2020-10-17T13:08:10Z</time>
      </trkpt>
      <trkpt lat="39.740787000" lon="-8.470426000">
        <ele>130.400000</ele>
        <time>2020-10-17T13:08:11Z</time>
      </trkpt>
      <trkpt lat="39.740758000" lon="-8.470436000">
        <ele>130.800000</ele>
        <time>2020-10-17T13:08:12Z</time>
      </trkpt>
      <trkpt lat="39.740738000" lon="-8.470441000">
        <ele>130.800000</ele>
        <time>2020-10-17T13:08:13Z</time>
      </trkpt>
      <trkpt lat="39.740716000" lon="-8.470449000">
        <ele>131.000000</ele>
        <time>2020-10-17T13:08:14Z</time>
      </trkpt>
      <trkpt lat="39.740682000" lon="-8.470472000">
        <ele>131.200000</ele>
        <time>2020-10-17T13:08:15Z</time>
      </trkpt>
      <trkpt lat="39.740657000" lon="-8.470491000">
        <ele>131.400000</ele>
        <time>2020-10-17T13:08:16Z</time>
      </trkpt>
      <trkpt lat="39.740638000" lon="-8.470499000">
        <ele>131.600000</ele>
        <time>2020-10-17T13:08:17Z</time>
      </trkpt>
      <trkpt lat="39.740619000" lon="-8.470499000">
        <ele>131.800000</ele>
        <time>2020-10-17T13:08:18Z</time>
      </trkpt>
      <trkpt lat="39.740604000" lon="-8.470500000">
        <ele>132.000000</ele>
        <time>2020-10-17T13:08:19Z</time>
      </trkpt>
      <trkpt lat="39.740583000" lon="-8.470506000">
        <ele>132.000000</ele>
        <time>2020-10-17T13:08:20Z</time>
      </trkpt>
      <trkpt lat="39.740568000" lon="-8.470523000">
        <ele>132.200000</ele>
        <time>2020-10-17T13:08:21Z</time>
      </trkpt>
      <trkpt lat="39.740550000" lon="-8.470538000">
        <ele>132.400000</ele>
        <time>2020-10-17T13:08:22Z</time>
      </trkpt>
      <trkpt lat="39.740543000" lon="-8.470534000">
        <ele>132.400000</ele>
        <time>2020-10-17T13:08:23Z</time>
      </trkpt>
      <trkpt lat="39.740530000" lon="-8.470545000">
        <ele>132.400000</ele>
        <time>2020-10-17T13:08:24Z</time>
      </trkpt>
      <trkpt lat="39.740509000" lon="-8.470551000">
        <ele>132.600000</ele>
        <time>2020-10-17T13:08:25Z</time>
      </trkpt>
      <trkpt lat="39.740487000" lon="-8.470564000">
        <ele>132.400000</ele>
        <time>2020-10-17T13:08:26Z</time>
      </trkpt>
      <trkpt lat="39.740479000" lon="-8.470566000">
        <ele>132.800000</ele>
        <time>2020-10-17T13:08:27Z</time>
      </trkpt>
      <trkpt lat="39.740463000" lon="-8.470583000">
        <ele>133.000000</ele>
        <time>2020-10-17T13:08:28Z</time>
      </trkpt>
      <trkpt lat="39.740450000" lon="-8.470593000">
        <ele>133.000000</ele>
        <time>2020-10-17T13:08:29Z</time>
      </trkpt>
      <trkpt lat="39.740431000" lon="-8.470613000">
        <ele>133.200000</ele>
        <time>2020-10-17T13:08:30Z</time>
      </trkpt>
      <trkpt lat="39.740418000" lon="-8.470632000">
        <ele>133.400000</ele>
        <time>2020-10-17T13:08:31Z</time>
      </trkpt>
      <trkpt lat="39.740398000" lon="-8.470669000">
        <ele>133.400000</ele>
        <time>2020-10-17T13:08:32Z</time>
      </trkpt>
      <trkpt lat="39.740368000" lon="-8.470709000">
        <ele>133.600000</ele>
        <time>2020-10-17T13:08:33Z</time>
      </trkpt>
      <trkpt lat="39.740343000" lon="-8.470737000">
        <ele>133.800000</ele>
        <time>2020-10-17T13:08:34Z</time>
      </trkpt>
      <trkpt lat="39.740324000" lon="-8.470759000">
        <ele>134.200000</ele>
        <time>2020-10-17T13:08:35Z</time>
      </trkpt>
      <trkpt lat="39.740305000" lon="-8.470777000">
        <ele>134.400000</ele>
        <time>2020-10-17T13:08:36Z</time>
      </trkpt>
      <trkpt lat="39.740291000" lon="-8.470792000">
        <ele>134.600000</ele>
        <time>2020-10-17T13:08:37Z</time>
      </trkpt>
      <trkpt lat="39.740271000" lon="-8.470818000">
        <ele>134.800000</ele>
        <time>2020-10-17T13:08:38Z</time>
      </trkpt>
      <trkpt lat="39.740240000" lon="-8.470853000">
        <ele>135.200000</ele>
        <time>2020-10-17T13:08:39Z</time>
      </trkpt>
      <trkpt lat="39.740224000" lon="-8.470858000">
        <ele>135.200000</ele>
        <time>2020-10-17T13:08:40Z</time>
      </trkpt>
      <trkpt lat="39.740199000" lon="-8.470878000">
        <ele>135.400000</ele>
        <time>2020-10-17T13:08:41Z</time>
      </trkpt>
      <trkpt lat="39.740158000" lon="-8.470863000">
        <ele>135.600000</ele>
        <time>2020-10-17T13:08:42Z</time>
      </trkpt>
      <trkpt lat="39.740137000" lon="-8.470880000">
        <ele>135.800000</ele>
        <time>2020-10-17T13:08:43Z</time>
      </trkpt>
      <trkpt lat="39.740117000" lon="-8.470894000">
        <ele>135.800000</ele>
        <time>2020-10-17T13:08:44Z</time>
      </trkpt>
      <trkpt lat="39.740104000" lon="-8.470900000">
        <ele>136.000000</ele>
        <time>2020-10-17T13:08:45Z</time>
      </trkpt>
      <trkpt lat="39.740092000" lon="-8.470908000">
        <ele>136.400000</ele>
        <time>2020-10-17T13:08:46Z</time>
      </trkpt>
      <trkpt lat="39.740071000" lon="-8.470936000">
        <ele>136.600000</ele>
        <time>2020-10-17T13:08:47Z</time>
      </trkpt>
      <trkpt lat="39.740050000" lon="-8.470967000">
        <ele>136.800000</ele>
        <time>2020-10-17T13:08:48Z</time>
      </trkpt>
      <trkpt lat="39.740022000" lon="-8.471008000">
        <ele>137.000000</ele>
        <time>2020-10-17T13:08:49Z</time>
      </trkpt>
      <trkpt lat="39.739999000" lon="-8.471050000">
        <ele>137.200000</ele>
        <time>2020-10-17T13:08:50Z</time>
      </trkpt>
      <trkpt lat="39.739972000" lon="-8.471092000">
        <ele>137.400000</ele>
        <time>2020-10-17T13:08:51Z</time>
      </trkpt>
      <trkpt lat="39.739950000" lon="-8.471120000">
        <ele>137.800000</ele>
        <time>2020-10-17T13:08:52Z</time>
      </trkpt>
      <trkpt lat="39.739931000" lon="-8.471151000">
        <ele>138.000000</ele>
        <time>2020-10-17T13:08:53Z</time>
      </trkpt>
      <trkpt lat="39.739902000" lon="-8.471175000">
        <ele>138.200000</ele>
        <time>2020-10-17T13:08:54Z</time>
      </trkpt>
      <trkpt lat="39.739857000" lon="-8.471206000">
        <ele>138.200000</ele>
        <time>2020-10-17T13:08:55Z</time>
      </trkpt>
      <trkpt lat="39.739816000" lon="-8.471230000">
        <ele>138.200000</ele>
        <time>2020-10-17T13:08:56Z</time>
      </trkpt>
      <trkpt lat="39.739776000" lon="-8.471264000">
        <ele>138.400000</ele>
        <time>2020-10-17T13:08:57Z</time>
      </trkpt>
      <trkpt lat="39.739725000" lon="-8.471301000">
        <ele>138.400000</ele>
        <time>2020-10-17T13:08:58Z</time>
      </trkpt>
      <trkpt lat="39.739667000" lon="-8.471344000">
        <ele>138.600000</ele>
        <time>2020-10-17T13:08:59Z</time>
      </trkpt>
      <trkpt lat="39.739622000" lon="-8.471371000">
        <ele>138.800000</ele>
        <time>2020-10-17T13:09:00Z</time>
      </trkpt>
      <trkpt lat="39.739580000" lon="-8.471397000">
        <ele>138.800000</ele>
        <time>2020-10-17T13:09:01Z</time>
      </trkpt>
      <trkpt lat="39.739556000" lon="-8.471403000">
        <ele>138.800000</ele>
        <time>2020-10-17T13:09:02Z</time>
      </trkpt>
      <trkpt lat="39.739524000" lon="-8.471418000">
        <ele>139.000000</ele>
        <time>2020-10-17T13:09:03Z</time>
      </trkpt>
      <trkpt lat="39.739498000" lon="-8.471430000">
        <ele>139.000000</ele>
        <time>2020-10-17T13:09:04Z</time>
      </trkpt>
      <trkpt lat="39.739479000" lon="-8.471444000">
        <ele>139.000000</ele>
        <time>2020-10-17T13:09:05Z</time>
      </trkpt>
      <trkpt lat="39.739458000" lon="-8.471448000">
        <ele>139.200000</ele>
        <time>2020-10-17T13:09:06Z</time>
      </trkpt>
      <trkpt lat="39.739435000" lon="-8.471460000">
        <ele>139.200000</ele>
        <time>2020-10-17T13:09:07Z</time>
      </trkpt>
      <trkpt lat="39.739413000" lon="-8.471465000">
        <ele>139.400000</ele>
        <time>2020-10-17T13:09:08Z</time>
      </trkpt>
      <trkpt lat="39.739393000" lon="-8.471475000">
        <ele>139.400000</ele>
        <time>2020-10-17T13:09:09Z</time>
      </trkpt>
      <trkpt lat="39.739388000" lon="-8.471469000">
        <ele>139.800000</ele>
        <time>2020-10-17T13:09:10Z</time>
      </trkpt>
      <trkpt lat="39.739381000" lon="-8.471485000">
        <ele>139.600000</ele>
        <time>2020-10-17T13:09:11Z</time>
      </trkpt>
      <trkpt lat="39.739383000" lon="-8.471496000">
        <ele>140.000000</ele>
        <time>2020-10-17T13:09:12Z</time>
      </trkpt>
      <trkpt lat="39.739376000" lon="-8.471506000">
        <ele>140.200000</ele>
        <time>2020-10-17T13:09:13Z</time>
      </trkpt>
      <trkpt lat="39.739365000" lon="-8.471527000">
        <ele>140.600000</ele>
        <time>2020-10-17T13:09:14Z</time>
      </trkpt>
      <trkpt lat="39.739354000" lon="-8.471540000">
        <ele>140.800000</ele>
        <time>2020-10-17T13:09:15Z</time>
      </trkpt>
      <trkpt lat="39.739341000" lon="-8.471562000">
        <ele>141.000000</ele>
        <time>2020-10-17T13:09:16Z</time>
      </trkpt>
      <trkpt lat="39.739326000" lon="-8.471581000">
        <ele>141.200000</ele>
        <time>2020-10-17T13:09:17Z</time>
      </trkpt>
      <trkpt lat="39.739314000" lon="-8.471594000">
        <ele>141.600000</ele>
        <time>2020-10-17T13:09:18Z</time>
      </trkpt>
      <trkpt lat="39.739303000" lon="-8.471604000">
        <ele>141.600000</ele>
        <time>2020-10-17T13:09:19Z</time>
      </trkpt>
      <trkpt lat="39.739292000" lon="-8.471623000">
        <ele>141.800000</ele>
        <time>2020-10-17T13:09:20Z</time>
      </trkpt>
      <trkpt lat="39.739279000" lon="-8.471649000">
        <ele>142.200000</ele>
        <time>2020-10-17T13:09:21Z</time>
      </trkpt>
      <trkpt lat="39.739269000" lon="-8.471674000">
        <ele>142.400000</ele>
        <time>2020-10-17T13:09:22Z</time>
      </trkpt>
      <trkpt lat="39.739257000" lon="-8.471690000">
        <ele>142.800000</ele>
        <time>2020-10-17T13:09:23Z</time>
      </trkpt>
      <trkpt lat="39.739240000" lon="-8.471717000">
        <ele>143.000000</ele>
        <time>2020-10-17T13:09:24Z</time>
      </trkpt>
      <trkpt lat="39.739227000" lon="-8.471743000">
        <ele>143.200000</ele>
        <time>2020-10-17T13:09:25Z</time>
      </trkpt>
      <trkpt lat="39.739220000" lon="-8.471763000">
        <ele>143.200000</ele>
        <time>2020-10-17T13:09:26Z</time>
      </trkpt>
      <trkpt lat="39.739205000" lon="-8.471798000">
        <ele>143.600000</ele>
        <time>2020-10-17T13:09:27Z</time>
      </trkpt>
      <trkpt lat="39.739193000" lon="-8.471831000">
        <ele>143.800000</ele>
        <time>2020-10-17T13:09:28Z</time>
      </trkpt>
      <trkpt lat="39.739196000" lon="-8.471868000">
        <ele>144.000000</ele>
        <time>2020-10-17T13:09:29Z</time>
      </trkpt>
      <trkpt lat="39.739185000" lon="-8.471890000">
        <ele>144.200000</ele>
        <time>2020-10-17T13:09:30Z</time>
      </trkpt>
      <trkpt lat="39.739171000" lon="-8.471917000">
        <ele>144.200000</ele>
        <time>2020-10-17T13:09:31Z</time>
      </trkpt>
      <trkpt lat="39.739169000" lon="-8.471947000">
        <ele>144.200000</ele>
        <time>2020-10-17T13:09:32Z</time>
      </trkpt>
      <trkpt lat="39.739163000" lon="-8.471977000">
        <ele>144.400000</ele>
        <time>2020-10-17T13:09:33Z</time>
      </trkpt>
      <trkpt lat="39.739152000" lon="-8.472006000">
        <ele>144.600000</ele>
        <time>2020-10-17T13:09:34Z</time>
      </trkpt>
      <trkpt lat="39.739137000" lon="-8.472035000">
        <ele>144.600000</ele>
        <time>2020-10-17T13:09:35Z</time>
      </trkpt>
      <trkpt lat="39.739124000" lon="-8.472075000">
        <ele>144.800000</ele>
        <time>2020-10-17T13:09:36Z</time>
      </trkpt>
      <trkpt lat="39.739113000" lon="-8.472101000">
        <ele>144.800000</ele>
        <time>2020-10-17T13:09:37Z</time>
      </trkpt>
      <trkpt lat="39.739096000" lon="-8.472139000">
        <ele>145.000000</ele>
        <time>2020-10-17T13:09:38Z</time>
      </trkpt>
      <trkpt lat="39.739077000" lon="-8.472176000">
        <ele>145.000000</ele>
        <time>2020-10-17T13:09:39Z</time>
      </trkpt>
      <trkpt lat="39.739062000" lon="-8.472197000">
        <ele>145.400000</ele>
        <time>2020-10-17T13:09:40Z</time>
      </trkpt>
      <trkpt lat="39.739045000" lon="-8.472226000">
        <ele>145.400000</ele>
        <time>2020-10-17T13:09:41Z</time>
      </trkpt>
      <trkpt lat="39.739033000" lon="-8.472243000">
        <ele>145.600000</ele>
        <time>2020-10-17T13:09:42Z</time>
      </trkpt>
      <trkpt lat="39.739019000" lon="-8.472257000">
        <ele>145.800000</ele>
        <time>2020-10-17T13:09:43Z</time>
      </trkpt>
      <trkpt lat="39.738998000" lon="-8.472281000">
        <ele>145.800000</ele>
        <time>2020-10-17T13:09:44Z</time>
      </trkpt>
      <trkpt lat="39.738970000" lon="-8.472309000">
        <ele>146.200000</ele>
        <time>2020-10-17T13:09:45Z</time>
      </trkpt>
      <trkpt lat="39.738938000" lon="-8.472339000">
        <ele>146.400000</ele>
        <time>2020-10-17T13:09:46Z</time>
      </trkpt>
      <trkpt lat="39.738904000" lon="-8.472363000">
        <ele>146.400000</ele>
        <time>2020-10-17T13:09:47Z</time>
      </trkpt>
      <trkpt lat="39.738859000" lon="-8.472405000">
        <ele>146.600000</ele>
        <time>2020-10-17T13:09:48Z</time>
      </trkpt>
      <trkpt lat="39.738823000" lon="-8.472423000">
        <ele>146.600000</ele>
        <time>2020-10-17T13:09:49Z</time>
      </trkpt>
      <trkpt lat="39.738798000" lon="-8.472447000">
        <ele>146.800000</ele>
        <time>2020-10-17T13:09:50Z</time>
      </trkpt>
      <trkpt lat="39.738759000" lon="-8.472469000">
        <ele>147.000000</ele>
        <time>2020-10-17T13:09:51Z</time>
      </trkpt>
      <trkpt lat="39.738702000" lon="-8.472511000">
        <ele>147.400000</ele>
        <time>2020-10-17T13:09:52Z</time>
      </trkpt>
      <trkpt lat="39.738661000" lon="-8.472497000">
        <ele>147.400000</ele>
        <time>2020-10-17T13:09:53Z</time>
      </trkpt>
      <trkpt lat="39.738626000" lon="-8.472495000">
        <ele>147.600000</ele>
        <time>2020-10-17T13:09:54Z</time>
      </trkpt>
      <trkpt lat="39.738594000" lon="-8.472482000">
        <ele>147.800000</ele>
        <time>2020-10-17T13:09:55Z</time>
      </trkpt>
      <trkpt lat="39.738560000" lon="-8.472473000">
        <ele>147.800000</ele>
        <time>2020-10-17T13:09:56Z</time>
      </trkpt>
      <trkpt lat="39.738530000" lon="-8.472471000">
        <ele>148.000000</ele>
        <time>2020-10-17T13:09:57Z</time>
      </trkpt>
      <trkpt lat="39.738516000" lon="-8.472455000">
        <ele>148.000000</ele>
        <time>2020-10-17T13:09:58Z</time>
      </trkpt>
      <trkpt lat="39.738489000" lon="-8.472450000">
        <ele>148.200000</ele>
        <time>2020-10-17T13:09:59Z</time>
      </trkpt>
      <trkpt lat="39.738452000" lon="-8.472427000">
        <ele>148.200000</ele>
        <time>2020-10-17T13:10:00Z</time>
      </trkpt>
      <trkpt lat="39.738410000" lon="-8.472400000">
        <ele>148.200000</ele>
        <time>2020-10-17T13:10:01Z</time>
      </trkpt>
      <trkpt lat="39.738364000" lon="-8.472376000">
        <ele>148.200000</ele>
        <time>2020-10-17T13:10:02Z</time>
      </trkpt>
      <trkpt lat="39.738311000" lon="-8.472355000">
        <ele>148.200000</ele>
        <time>2020-10-17T13:10:03Z</time>
      </trkpt>
      <trkpt lat="39.738274000" lon="-8.472350000">
        <ele>148.200000</ele>
        <time>2020-10-17T13:10:04Z</time>
      </trkpt>
      <trkpt lat="39.738194000" lon="-8.472335000">
        <ele>148.400000</ele>
        <time>2020-10-17T13:10:06Z</time>
      </trkpt>
      <trkpt lat="39.738166000" lon="-8.472342000">
        <ele>148.600000</ele>
        <time>2020-10-17T13:10:07Z</time>
      </trkpt>
      <trkpt lat="39.738143000" lon="-8.472347000">
        <ele>148.600000</ele>
        <time>2020-10-17T13:10:08Z</time>
      </trkpt>
      <trkpt lat="39.737945000" lon="-8.472433000">
        <ele>148.600000</ele>
        <time>2020-10-17T13:10:12Z</time>
      </trkpt>
      <trkpt lat="39.737795000" lon="-8.472485000">
        <ele>148.600000</ele>
        <time>2020-10-17T13:10:15Z</time>
      </trkpt>
      <trkpt lat="39.737753000" lon="-8.472516000">
        <ele>148.600000</ele>
        <time>2020-10-17T13:10:16Z</time>
      </trkpt>
      <trkpt lat="39.737701000" lon="-8.472550000">
        <ele>148.600000</ele>
        <time>2020-10-17T13:10:17Z</time>
      </trkpt>
      <trkpt lat="39.737661000" lon="-8.472594000">
        <ele>148.600000</ele>
        <time>2020-10-17T13:10:18Z</time>
      </trkpt>
      <trkpt lat="39.737637000" lon="-8.472623000">
        <ele>148.400000</ele>
        <time>2020-10-17T13:10:19Z</time>
      </trkpt>
      <trkpt lat="39.737610000" lon="-8.472670000">
        <ele>148.400000</ele>
        <time>2020-10-17T13:10:20Z</time>
      </trkpt>
      <trkpt lat="39.737581000" lon="-8.472742000">
        <ele>148.400000</ele>
        <time>2020-10-17T13:10:21Z</time>
      </trkpt>
      <trkpt lat="39.737550000" lon="-8.472805000">
        <ele>148.400000</ele>
        <time>2020-10-17T13:10:22Z</time>
      </trkpt>
      <trkpt lat="39.737431000" lon="-8.472980000">
        <ele>148.000000</ele>
        <time>2020-10-17T13:10:26Z</time>
      </trkpt>
      <trkpt lat="39.737409000" lon="-8.472995000">
        <ele>148.000000</ele>
        <time>2020-10-17T13:10:27Z</time>
      </trkpt>
      <trkpt lat="39.737377000" lon="-8.473035000">
        <ele>148.000000</ele>
        <time>2020-10-17T13:10:28Z</time>
      </trkpt>
      <trkpt lat="39.737358000" lon="-8.473065000">
        <ele>147.800000</ele>
        <time>2020-10-17T13:10:29Z</time>
      </trkpt>
      <trkpt lat="39.737333000" lon="-8.473103000">
        <ele>147.800000</ele>
        <time>2020-10-17T13:10:30Z</time>
      </trkpt>
      <trkpt lat="39.737311000" lon="-8.473132000">
        <ele>147.800000</ele>
        <time>2020-10-17T13:10:31Z</time>
      </trkpt>
      <trkpt lat="39.737282000" lon="-8.473161000">
        <ele>147.800000</ele>
        <time>2020-10-17T13:10:32Z</time>
      </trkpt>
      <trkpt lat="39.737255000" lon="-8.473174000">
        <ele>147.800000</ele>
        <time>2020-10-17T13:10:33Z</time>
      </trkpt>
      <trkpt lat="39.737232000" lon="-8.473200000">
        <ele>148.000000</ele>
        <time>2020-10-17T13:10:34Z</time>
      </trkpt>
      <trkpt lat="39.737208000" lon="-8.473223000">
        <ele>148.000000</ele>
        <time>2020-10-17T13:10:35Z</time>
      </trkpt>
      <trkpt lat="39.737177000" lon="-8.473263000">
        <ele>148.200000</ele>
        <time>2020-10-17T13:10:36Z</time>
      </trkpt>
      <trkpt lat="39.737150000" lon="-8.473309000">
        <ele>148.200000</ele>
        <time>2020-10-17T13:10:37Z</time>
      </trkpt>
      <trkpt lat="39.737127000" lon="-8.473332000">
        <ele>148.200000</ele>
        <time>2020-10-17T13:10:38Z</time>
      </trkpt>
      <trkpt lat="39.737093000" lon="-8.473388000">
        <ele>148.800000</ele>
        <time>2020-10-17T13:10:40Z</time>
      </trkpt>
      <trkpt lat="39.737068000" lon="-8.473413000">
        <ele>149.000000</ele>
        <time>2020-10-17T13:10:41Z</time>
      </trkpt>
      <trkpt lat="39.737019000" lon="-8.473502000">
        <ele>149.400000</ele>
        <time>2020-10-17T13:10:43Z</time>
      </trkpt>
      <trkpt lat="39.736999000" lon="-8.473538000">
        <ele>149.600000</ele>
        <time>2020-10-17T13:10:44Z</time>
      </trkpt>
      <trkpt lat="39.736986000" lon="-8.473571000">
        <ele>149.600000</ele>
        <time>2020-10-17T13:10:45Z</time>
      </trkpt>
      <trkpt lat="39.736976000" lon="-8.473602000">
        <ele>149.600000</ele>
        <time>2020-10-17T13:10:46Z</time>
      </trkpt>
      <trkpt lat="39.736954000" lon="-8.473642000">
        <ele>149.600000</ele>
        <time>2020-10-17T13:10:47Z</time>
      </trkpt>
      <trkpt lat="39.736923000" lon="-8.473706000">
        <ele>149.800000</ele>
        <time>2020-10-17T13:10:48Z</time>
      </trkpt>
      <trkpt lat="39.736893000" lon="-8.473769000">
        <ele>150.200000</ele>
        <time>2020-10-17T13:10:49Z</time>
      </trkpt>
      <trkpt lat="39.736889000" lon="-8.473800000">
        <ele>150.200000</ele>
        <time>2020-10-17T13:10:50Z</time>
      </trkpt>
      <trkpt lat="39.736867000" lon="-8.473849000">
        <ele>150.600000</ele>
        <time>2020-10-17T13:10:51Z</time>
      </trkpt>
      <trkpt lat="39.736839000" lon="-8.473896000">
        <ele>150.600000</ele>
        <time>2020-10-17T13:10:52Z</time>
      </trkpt>
      <trkpt lat="39.736818000" lon="-8.473936000">
        <ele>151.000000</ele>
        <time>2020-10-17T13:10:53Z</time>
      </trkpt>
      <trkpt lat="39.736804000" lon="-8.473978000">
        <ele>151.000000</ele>
        <time>2020-10-17T13:10:54Z</time>
      </trkpt>
      <trkpt lat="39.736798000" lon="-8.473997000">
        <ele>151.000000</ele>
        <time>2020-10-17T13:10:55Z</time>
      </trkpt>
      <trkpt lat="39.736799000" lon="-8.474031000">
        <ele>151.000000</ele>
        <time>2020-10-17T13:10:56Z</time>
      </trkpt>
      <trkpt lat="39.736794000" lon="-8.474070000">
        <ele>151.400000</ele>
        <time>2020-10-17T13:10:57Z</time>
      </trkpt>
      <trkpt lat="39.736778000" lon="-8.474099000">
        <ele>151.600000</ele>
        <time>2020-10-17T13:10:58Z</time>
      </trkpt>
      <trkpt lat="39.736760000" lon="-8.474132000">
        <ele>151.600000</ele>
        <time>2020-10-17T13:10:59Z</time>
      </trkpt>
      <trkpt lat="39.736752000" lon="-8.474157000">
        <ele>151.800000</ele>
        <time>2020-10-17T13:11:00Z</time>
      </trkpt>
      <trkpt lat="39.736743000" lon="-8.474169000">
        <ele>151.800000</ele>
        <time>2020-10-17T13:11:01Z</time>
      </trkpt>
      <trkpt lat="39.736738000" lon="-8.474179000">
        <ele>152.000000</ele>
        <time>2020-10-17T13:11:02Z</time>
      </trkpt>
      <trkpt lat="39.736735000" lon="-8.474159000">
        <ele>152.400000</ele>
        <time>2020-10-17T13:11:03Z</time>
      </trkpt>
      <trkpt lat="39.736721000" lon="-8.474168000">
        <ele>152.800000</ele>
        <time>2020-10-17T13:11:04Z</time>
      </trkpt>
      <trkpt lat="39.736717000" lon="-8.474176000">
        <ele>153.000000</ele>
        <time>2020-10-17T13:11:05Z</time>
      </trkpt>
      <trkpt lat="39.736718000" lon="-8.474203000">
        <ele>153.200000</ele>
        <time>2020-10-17T13:11:06Z</time>
      </trkpt>
      <trkpt lat="39.736718000" lon="-8.474218000">
        <ele>153.400000</ele>
        <time>2020-10-17T13:11:07Z</time>
      </trkpt>
      <trkpt lat="39.736721000" lon="-8.474232000">
        <ele>153.800000</ele>
        <time>2020-10-17T13:11:08Z</time>
      </trkpt>
      <trkpt lat="39.736723000" lon="-8.474244000">
        <ele>154.000000</ele>
        <time>2020-10-17T13:11:09Z</time>
      </trkpt>
      <trkpt lat="39.736720000" lon="-8.474267000">
        <ele>154.200000</ele>
        <time>2020-10-17T13:11:10Z</time>
      </trkpt>
      <trkpt lat="39.736729000" lon="-8.474298000">
        <ele>154.600000</ele>
        <time>2020-10-17T13:11:11Z</time>
      </trkpt>
      <trkpt lat="39.736740000" lon="-8.474332000">
        <ele>155.000000</ele>
        <time>2020-10-17T13:11:12Z</time>
      </trkpt>
      <trkpt lat="39.736738000" lon="-8.474372000">
        <ele>155.200000</ele>
        <time>2020-10-17T13:11:13Z</time>
      </trkpt>
      <trkpt lat="39.736730000" lon="-8.474437000">
        <ele>155.200000</ele>
        <time>2020-10-17T13:11:14Z</time>
      </trkpt>
      <trkpt lat="39.736722000" lon="-8.474498000">
        <ele>155.400000</ele>
        <time>2020-10-17T13:11:15Z</time>
      </trkpt>
      <trkpt lat="39.736709000" lon="-8.474563000">
        <ele>155.400000</ele>
        <time>2020-10-17T13:11:16Z</time>
      </trkpt>
      <trkpt lat="39.736711000" lon="-8.474600000">
        <ele>155.600000</ele>
        <time>2020-10-17T13:11:17Z</time>
      </trkpt>
      <trkpt lat="39.736724000" lon="-8.474619000">
        <ele>155.800000</ele>
        <time>2020-10-17T13:11:18Z</time>
      </trkpt>
      <trkpt lat="39.736730000" lon="-8.474655000">
        <ele>155.800000</ele>
        <time>2020-10-17T13:11:19Z</time>
      </trkpt>
      <trkpt lat="39.736734000" lon="-8.474693000">
        <ele>155.800000</ele>
        <time>2020-10-17T13:11:20Z</time>
      </trkpt>
      <trkpt lat="39.736743000" lon="-8.474734000">
        <ele>155.800000</ele>
        <time>2020-10-17T13:11:21Z</time>
      </trkpt>
      <trkpt lat="39.736734000" lon="-8.474792000">
        <ele>155.800000</ele>
        <time>2020-10-17T13:11:22Z</time>
      </trkpt>
      <trkpt lat="39.736730000" lon="-8.474836000">
        <ele>156.000000</ele>
        <time>2020-10-17T13:11:23Z</time>
      </trkpt>
      <trkpt lat="39.736743000" lon="-8.474870000">
        <ele>156.200000</ele>
        <time>2020-10-17T13:11:24Z</time>
      </trkpt>
      <trkpt lat="39.736762000" lon="-8.474916000">
        <ele>156.200000</ele>
        <time>2020-10-17T13:11:25Z</time>
      </trkpt>
      <trkpt lat="39.736772000" lon="-8.474955000">
        <ele>156.400000</ele>
        <time>2020-10-17T13:11:26Z</time>
      </trkpt>
      <trkpt lat="39.736770000" lon="-8.474982000">
        <ele>156.600000</ele>
        <time>2020-10-17T13:11:27Z</time>
      </trkpt>
      <trkpt lat="39.736766000" lon="-8.475018000">
        <ele>156.600000</ele>
        <time>2020-10-17T13:11:28Z</time>
      </trkpt>
      <trkpt lat="39.736768000" lon="-8.475063000">
        <ele>156.800000</ele>
        <time>2020-10-17T13:11:29Z</time>
      </trkpt>
      <trkpt lat="39.736774000" lon="-8.475140000">
        <ele>156.600000</ele>
        <time>2020-10-17T13:11:30Z</time>
      </trkpt>
      <trkpt lat="39.736768000" lon="-8.475215000">
        <ele>157.000000</ele>
        <time>2020-10-17T13:11:31Z</time>
      </trkpt>
      <trkpt lat="39.736759000" lon="-8.475280000">
        <ele>156.800000</ele>
        <time>2020-10-17T13:11:32Z</time>
      </trkpt>
      <trkpt lat="39.736751000" lon="-8.475327000">
        <ele>157.000000</ele>
        <time>2020-10-17T13:11:33Z</time>
      </trkpt>
      <trkpt lat="39.736758000" lon="-8.475405000">
        <ele>157.000000</ele>
        <time>2020-10-17T13:11:34Z</time>
      </trkpt>
      <trkpt lat="39.736725000" lon="-8.475487000">
        <ele>157.000000</ele>
        <time>2020-10-17T13:11:36Z</time>
      </trkpt>
      <trkpt lat="39.736722000" lon="-8.475547000">
        <ele>157.200000</ele>
        <time>2020-10-17T13:11:37Z</time>
      </trkpt>
      <trkpt lat="39.736719000" lon="-8.475615000">
        <ele>157.200000</ele>
        <time>2020-10-17T13:11:38Z</time>
      </trkpt>
      <trkpt lat="39.736661000" lon="-8.475834000">
        <ele>157.400000</ele>
        <time>2020-10-17T13:11:41Z</time>
      </trkpt>
      <trkpt lat="39.736621000" lon="-8.475977000">
        <ele>157.000000</ele>
        <time>2020-10-17T13:11:43Z</time>
      </trkpt>
      <trkpt lat="39.736607000" lon="-8.476039000">
        <ele>157.000000</ele>
        <time>2020-10-17T13:11:44Z</time>
      </trkpt>
      <trkpt lat="39.736587000" lon="-8.476111000">
        <ele>157.000000</ele>
        <time>2020-10-17T13:11:45Z</time>
      </trkpt>
      <trkpt lat="39.736481000" lon="-8.476412000">
        <ele>156.600000</ele>
        <time>2020-10-17T13:11:49Z</time>
      </trkpt>
      <trkpt lat="39.736458000" lon="-8.476495000">
        <ele>156.600000</ele>
        <time>2020-10-17T13:11:50Z</time>
      </trkpt>
      <trkpt lat="39.736446000" lon="-8.476569000">
        <ele>156.400000</ele>
        <time>2020-10-17T13:11:51Z</time>
      </trkpt>
      <trkpt lat="39.736433000" lon="-8.476739000">
        <ele>155.800000</ele>
        <time>2020-10-17T13:11:53Z</time>
      </trkpt>
      <trkpt lat="39.736420000" lon="-8.476823000">
        <ele>155.600000</ele>
        <time>2020-10-17T13:11:54Z</time>
      </trkpt>
      <trkpt lat="39.736402000" lon="-8.477274000">
        <ele>155.200000</ele>
        <time>2020-10-17T13:11:59Z</time>
      </trkpt>
      <trkpt lat="39.736418000" lon="-8.477601000">
        <ele>154.400000</ele>
        <time>2020-10-17T13:12:02Z</time>
      </trkpt>
      <trkpt lat="39.736453000" lon="-8.477800000">
        <ele>154.000000</ele>
        <time>2020-10-17T13:12:04Z</time>
      </trkpt>
      <trkpt lat="39.736511000" lon="-8.477868000">
        <ele>153.600000</ele>
        <time>2020-10-17T13:12:05Z</time>
      </trkpt>
      <trkpt lat="39.736574000" lon="-8.477965000">
        <ele>153.400000</ele>
        <time>2020-10-17T13:12:06Z</time>
      </trkpt>
      <trkpt lat="39.736617000" lon="-8.478036000">
        <ele>153.400000</ele>
        <time>2020-10-17T13:12:07Z</time>
      </trkpt>
      <trkpt lat="39.736652000" lon="-8.478067000">
        <ele>153.200000</ele>
        <time>2020-10-17T13:12:08Z</time>
      </trkpt>
      <trkpt lat="39.736686000" lon="-8.478097000">
        <ele>153.200000</ele>
        <time>2020-10-17T13:12:09Z</time>
      </trkpt>
      <trkpt lat="39.736721000" lon="-8.478128000">
        <ele>153.000000</ele>
        <time>2020-10-17T13:12:10Z</time>
      </trkpt>
      <trkpt lat="39.736755000" lon="-8.478159000">
        <ele>153.000000</ele>
        <time>2020-10-17T13:12:11Z</time>
      </trkpt>
      <trkpt lat="39.736892000" lon="-8.478282000">
        <ele>153.000000</ele>
        <time>2020-10-17T13:12:12Z</time>
      </trkpt>
      <trkpt lat="39.736916000" lon="-8.478295000">
        <ele>153.000000</ele>
        <time>2020-10-17T13:12:13Z</time>
      </trkpt>
      <trkpt lat="39.736941000" lon="-8.478308000">
        <ele>152.800000</ele>
        <time>2020-10-17T13:12:14Z</time>
      </trkpt>
      <trkpt lat="39.736965000" lon="-8.478321000">
        <ele>153.000000</ele>
        <time>2020-10-17T13:12:15Z</time>
      </trkpt>
      <trkpt lat="39.736989000" lon="-8.478334000">
        <ele>153.000000</ele>
        <time>2020-10-17T13:12:16Z</time>
      </trkpt>
      <trkpt lat="39.737014000" lon="-8.478347000">
        <ele>153.000000</ele>
        <time>2020-10-17T13:12:17Z</time>
      </trkpt>
      <trkpt lat="39.737038000" lon="-8.478360000">
        <ele>153.000000</ele>
        <time>2020-10-17T13:12:18Z</time>
      </trkpt>
      <trkpt lat="39.737475000" lon="-8.478595000">
        <ele>153.200000</ele>
        <time>2020-10-17T13:12:21Z</time>
      </trkpt>
      <trkpt lat="39.737540000" lon="-8.478612000">
        <ele>153.200000</ele>
        <time>2020-10-17T13:12:22Z</time>
      </trkpt>
      <trkpt lat="39.737566000" lon="-8.478614000">
        <ele>153.800000</ele>
        <time>2020-10-17T13:12:23Z</time>
      </trkpt>
      <trkpt lat="39.737576000" lon="-8.478612000">
        <ele>153.800000</ele>
        <time>2020-10-17T13:12:24Z</time>
      </trkpt>
      <trkpt lat="39.737592000" lon="-8.478653000">
        <ele>154.000000</ele>
        <time>2020-10-17T13:12:25Z</time>
      </trkpt>
      <trkpt lat="39.737619000" lon="-8.478681000">
        <ele>154.400000</ele>
        <time>2020-10-17T13:12:26Z</time>
      </trkpt>
      <trkpt lat="39.737631000" lon="-8.478740000">
        <ele>154.600000</ele>
        <time>2020-10-17T13:12:27Z</time>
      </trkpt>
      <trkpt lat="39.737653000" lon="-8.478782000">
        <ele>154.800000</ele>
        <time>2020-10-17T13:12:28Z</time>
      </trkpt>
      <trkpt lat="39.737667000" lon="-8.478804000">
        <ele>154.800000</ele>
        <time>2020-10-17T13:12:29Z</time>
      </trkpt>
      <trkpt lat="39.737697000" lon="-8.478848000">
        <ele>155.000000</ele>
        <time>2020-10-17T13:12:30Z</time>
      </trkpt>
      <trkpt lat="39.737722000" lon="-8.478881000">
        <ele>155.000000</ele>
        <time>2020-10-17T13:12:31Z</time>
      </trkpt>
      <trkpt lat="39.737767000" lon="-8.478923000">
        <ele>155.200000</ele>
        <time>2020-10-17T13:12:32Z</time>
      </trkpt>
      <trkpt lat="39.737805000" lon="-8.478941000">
        <ele>155.200000</ele>
        <time>2020-10-17T13:12:33Z</time>
      </trkpt>
      <trkpt lat="39.737805000" lon="-8.478941000">
        <ele>155.200000</ele>
        <time>2020-10-17T13:12:34Z</time>
      </trkpt>
      <trkpt lat="39.737928000" lon="-8.479074000">
        <ele>155.400000</ele>
        <time>2020-10-17T13:12:35Z</time>
      </trkpt>
      <trkpt lat="39.738143000" lon="-8.479310000">
        <ele>155.200000</ele>
        <time>2020-10-17T13:12:38Z</time>
      </trkpt>
      <trkpt lat="39.738240000" lon="-8.479407000">
        <ele>155.400000</ele>
        <time>2020-10-17T13:12:40Z</time>
      </trkpt>
      <trkpt lat="39.738331000" lon="-8.479543000">
        <ele>155.200000</ele>
        <time>2020-10-17T13:12:43Z</time>
      </trkpt>
      <trkpt lat="39.738323000" lon="-8.479572000">
        <ele>155.200000</ele>
        <time>2020-10-17T13:12:44Z</time>
      </trkpt>
      <trkpt lat="39.738311000" lon="-8.479611000">
        <ele>155.000000</ele>
        <time>2020-10-17T13:12:45Z</time>
      </trkpt>
      <trkpt lat="39.738300000" lon="-8.479636000">
        <ele>155.000000</ele>
        <time>2020-10-17T13:12:46Z</time>
      </trkpt>
      <trkpt lat="39.738278000" lon="-8.479663000">
        <ele>155.000000</ele>
        <time>2020-10-17T13:12:47Z</time>
      </trkpt>
      <trkpt lat="39.738256000" lon="-8.479715000">
        <ele>154.800000</ele>
        <time>2020-10-17T13:12:48Z</time>
      </trkpt>
      <trkpt lat="39.738241000" lon="-8.479887000">
        <ele>154.400000</ele>
        <time>2020-10-17T13:12:50Z</time>
      </trkpt>
      <trkpt lat="39.738234000" lon="-8.479966000">
        <ele>154.400000</ele>
        <time>2020-10-17T13:12:51Z</time>
      </trkpt>
      <trkpt lat="39.738204000" lon="-8.480057000">
        <ele>154.200000</ele>
        <time>2020-10-17T13:12:52Z</time>
      </trkpt>
      <trkpt lat="39.738184000" lon="-8.480130000">
        <ele>154.000000</ele>
        <time>2020-10-17T13:12:53Z</time>
      </trkpt>
      <trkpt lat="39.738117000" lon="-8.480278000">
        <ele>153.800000</ele>
        <time>2020-10-17T13:12:55Z</time>
      </trkpt>
      <trkpt lat="39.738074000" lon="-8.480367000">
        <ele>154.000000</ele>
        <time>2020-10-17T13:12:56Z</time>
      </trkpt>
      <trkpt lat="39.738011000" lon="-8.480468000">
        <ele>153.800000</ele>
        <time>2020-10-17T13:12:57Z</time>
      </trkpt>
      <trkpt lat="39.737962000" lon="-8.480557000">
        <ele>153.800000</ele>
        <time>2020-10-17T13:12:58Z</time>
      </trkpt>
      <trkpt lat="39.737879000" lon="-8.480701000">
        <ele>153.800000</ele>
        <time>2020-10-17T13:13:00Z</time>
      </trkpt>
      <trkpt lat="39.737806000" lon="-8.480893000">
        <ele>153.800000</ele>
        <time>2020-10-17T13:13:03Z</time>
      </trkpt>
      <trkpt lat="39.737776000" lon="-8.480968000">
        <ele>153.800000</ele>
        <time>2020-10-17T13:13:04Z</time>
      </trkpt>
      <trkpt lat="39.737740000" lon="-8.481042000">
        <ele>153.800000</ele>
        <time>2020-10-17T13:13:05Z</time>
      </trkpt>
      <trkpt lat="39.737651000" lon="-8.481298000">
        <ele>154.400000</ele>
        <time>2020-10-17T13:13:09Z</time>
      </trkpt>
      <trkpt lat="39.737618000" lon="-8.481354000">
        <ele>155.000000</ele>
        <time>2020-10-17T13:13:10Z</time>
      </trkpt>
      <trkpt lat="39.737594000" lon="-8.481396000">
        <ele>155.200000</ele>
        <time>2020-10-17T13:13:11Z</time>
      </trkpt>
      <trkpt lat="39.737566000" lon="-8.481431000">
        <ele>155.400000</ele>
        <time>2020-10-17T13:13:12Z</time>
      </trkpt>
      <trkpt lat="39.737540000" lon="-8.481471000">
        <ele>155.600000</ele>
        <time>2020-10-17T13:13:13Z</time>
      </trkpt>
      <trkpt lat="39.737516000" lon="-8.481510000">
        <ele>155.600000</ele>
        <time>2020-10-17T13:13:14Z</time>
      </trkpt>
      <trkpt lat="39.737491000" lon="-8.481537000">
        <ele>156.000000</ele>
        <time>2020-10-17T13:13:15Z</time>
      </trkpt>
      <trkpt lat="39.737470000" lon="-8.481560000">
        <ele>156.000000</ele>
        <time>2020-10-17T13:13:16Z</time>
      </trkpt>
      <trkpt lat="39.737459000" lon="-8.481589000">
        <ele>156.000000</ele>
        <time>2020-10-17T13:13:17Z</time>
      </trkpt>
      <trkpt lat="39.737450000" lon="-8.481588000">
        <ele>156.000000</ele>
        <time>2020-10-17T13:13:18Z</time>
      </trkpt>
      <trkpt lat="39.737433000" lon="-8.481575000">
        <ele>156.400000</ele>
        <time>2020-10-17T13:13:19Z</time>
      </trkpt>
      <trkpt lat="39.737410000" lon="-8.481574000">
        <ele>156.400000</ele>
        <time>2020-10-17T13:13:20Z</time>
      </trkpt>
      <trkpt lat="39.737395000" lon="-8.481573000">
        <ele>156.200000</ele>
        <time>2020-10-17T13:13:21Z</time>
      </trkpt>
      <trkpt lat="39.737381000" lon="-8.481563000">
        <ele>156.600000</ele>
        <time>2020-10-17T13:13:22Z</time>
      </trkpt>
      <trkpt lat="39.737358000" lon="-8.481569000">
        <ele>156.800000</ele>
        <time>2020-10-17T13:13:23Z</time>
      </trkpt>
      <trkpt lat="39.737348000" lon="-8.481582000">
        <ele>156.800000</ele>
        <time>2020-10-17T13:13:24Z</time>
      </trkpt>
      <trkpt lat="39.737325000" lon="-8.481605000">
        <ele>156.800000</ele>
        <time>2020-10-17T13:13:25Z</time>
      </trkpt>
      <trkpt lat="39.737302000" lon="-8.481640000">
        <ele>157.200000</ele>
        <time>2020-10-17T13:13:26Z</time>
      </trkpt>
      <trkpt lat="39.737278000" lon="-8.481664000">
        <ele>157.600000</ele>
        <time>2020-10-17T13:13:27Z</time>
      </trkpt>
      <trkpt lat="39.737254000" lon="-8.481698000">
        <ele>158.000000</ele>
        <time>2020-10-17T13:13:28Z</time>
      </trkpt>
      <trkpt lat="39.737236000" lon="-8.481731000">
        <ele>158.200000</ele>
        <time>2020-10-17T13:13:29Z</time>
      </trkpt>
      <trkpt lat="39.737219000" lon="-8.481765000">
        <ele>158.400000</ele>
        <time>2020-10-17T13:13:30Z</time>
      </trkpt>
      <trkpt lat="39.737191000" lon="-8.481798000">
        <ele>158.600000</ele>
        <time>2020-10-17T13:13:31Z</time>
      </trkpt>
      <trkpt lat="39.737159000" lon="-8.481834000">
        <ele>159.200000</ele>
        <time>2020-10-17T13:13:32Z</time>
      </trkpt>
      <trkpt lat="39.737122000" lon="-8.481861000">
        <ele>159.200000</ele>
        <time>2020-10-17T13:13:33Z</time>
      </trkpt>
      <trkpt lat="39.737093000" lon="-8.481873000">
        <ele>159.600000</ele>
        <time>2020-10-17T13:13:34Z</time>
      </trkpt>
      <trkpt lat="39.737068000" lon="-8.481870000">
        <ele>159.400000</ele>
        <time>2020-10-17T13:13:35Z</time>
      </trkpt>
      <trkpt lat="39.737007000" lon="-8.481882000">
        <ele>159.600000</ele>
        <time>2020-10-17T13:13:36Z</time>
      </trkpt>
      <trkpt lat="39.736950000" lon="-8.481884000">
        <ele>159.400000</ele>
        <time>2020-10-17T13:13:37Z</time>
      </trkpt>
      <trkpt lat="39.736899000" lon="-8.481892000">
        <ele>159.400000</ele>
        <time>2020-10-17T13:13:38Z</time>
      </trkpt>
      <trkpt lat="39.736840000" lon="-8.481898000">
        <ele>159.600000</ele>
        <time>2020-10-17T13:13:39Z</time>
      </trkpt>
      <trkpt lat="39.736786000" lon="-8.481893000">
        <ele>159.600000</ele>
        <time>2020-10-17T13:13:40Z</time>
      </trkpt>
      <trkpt lat="39.736725000" lon="-8.481910000">
        <ele>159.600000</ele>
        <time>2020-10-17T13:13:41Z</time>
      </trkpt>
      <trkpt lat="39.736664000" lon="-8.481918000">
        <ele>159.600000</ele>
        <time>2020-10-17T13:13:42Z</time>
      </trkpt>
      <trkpt lat="39.736610000" lon="-8.481926000">
        <ele>159.800000</ele>
        <time>2020-10-17T13:13:43Z</time>
      </trkpt>
      <trkpt lat="39.736561000" lon="-8.481939000">
        <ele>159.800000</ele>
        <time>2020-10-17T13:13:44Z</time>
      </trkpt>
      <trkpt lat="39.736517000" lon="-8.481955000">
        <ele>159.800000</ele>
        <time>2020-10-17T13:13:45Z</time>
      </trkpt>
      <trkpt lat="39.736430000" lon="-8.482004000">
        <ele>159.600000</ele>
        <time>2020-10-17T13:13:47Z</time>
      </trkpt>
      <trkpt lat="39.736393000" lon="-8.482035000">
        <ele>159.600000</ele>
        <time>2020-10-17T13:13:48Z</time>
      </trkpt>
      <trkpt lat="39.736362000" lon="-8.482073000">
        <ele>159.600000</ele>
        <time>2020-10-17T13:13:49Z</time>
      </trkpt>
      <trkpt lat="39.736338000" lon="-8.482111000">
        <ele>159.600000</ele>
        <time>2020-10-17T13:13:50Z</time>
      </trkpt>
      <trkpt lat="39.736311000" lon="-8.482143000">
        <ele>159.600000</ele>
        <time>2020-10-17T13:13:51Z</time>
      </trkpt>
      <trkpt lat="39.736288000" lon="-8.482168000">
        <ele>159.600000</ele>
        <time>2020-10-17T13:13:52Z</time>
      </trkpt>
      <trkpt lat="39.736264000" lon="-8.482182000">
        <ele>159.800000</ele>
        <time>2020-10-17T13:13:53Z</time>
      </trkpt>
      <trkpt lat="39.736241000" lon="-8.482194000">
        <ele>159.600000</ele>
        <time>2020-10-17T13:13:54Z</time>
      </trkpt>
      <trkpt lat="39.736219000" lon="-8.482204000">
        <ele>159.800000</ele>
        <time>2020-10-17T13:13:55Z</time>
      </trkpt>
      <trkpt lat="39.736194000" lon="-8.482212000">
        <ele>159.600000</ele>
        <time>2020-10-17T13:13:56Z</time>
      </trkpt>
      <trkpt lat="39.736166000" lon="-8.482220000">
        <ele>159.800000</ele>
        <time>2020-10-17T13:13:57Z</time>
      </trkpt>
      <trkpt lat="39.736133000" lon="-8.482230000">
        <ele>160.000000</ele>
        <time>2020-10-17T13:13:58Z</time>
      </trkpt>
      <trkpt lat="39.736097000" lon="-8.482234000">
        <ele>160.400000</ele>
        <time>2020-10-17T13:13:59Z</time>
      </trkpt>
      <trkpt lat="39.736053000" lon="-8.482244000">
        <ele>160.800000</ele>
        <time>2020-10-17T13:14:00Z</time>
      </trkpt>
      <trkpt lat="39.736004000" lon="-8.482261000">
        <ele>161.200000</ele>
        <time>2020-10-17T13:14:01Z</time>
      </trkpt>
      <trkpt lat="39.735952000" lon="-8.482275000">
        <ele>161.200000</ele>
        <time>2020-10-17T13:14:02Z</time>
      </trkpt>
      <trkpt lat="39.735895000" lon="-8.482298000">
        <ele>161.200000</ele>
        <time>2020-10-17T13:14:03Z</time>
      </trkpt>
      <trkpt lat="39.735795000" lon="-8.482341000">
        <ele>161.400000</ele>
        <time>2020-10-17T13:14:05Z</time>
      </trkpt>
      <trkpt lat="39.735700000" lon="-8.482339000">
        <ele>161.400000</ele>
        <time>2020-10-17T13:14:07Z</time>
      </trkpt>
      <trkpt lat="39.735648000" lon="-8.482325000">
        <ele>161.400000</ele>
        <time>2020-10-17T13:14:08Z</time>
      </trkpt>
      <trkpt lat="39.735598000" lon="-8.482311000">
        <ele>161.400000</ele>
        <time>2020-10-17T13:14:09Z</time>
      </trkpt>
      <trkpt lat="39.735552000" lon="-8.482280000">
        <ele>161.400000</ele>
        <time>2020-10-17T13:14:10Z</time>
      </trkpt>
      <trkpt lat="39.735508000" lon="-8.482243000">
        <ele>161.400000</ele>
        <time>2020-10-17T13:14:11Z</time>
      </trkpt>
      <trkpt lat="39.735389000" lon="-8.482169000">
        <ele>161.000000</ele>
        <time>2020-10-17T13:14:13Z</time>
      </trkpt>
      <trkpt lat="39.735334000" lon="-8.482131000">
        <ele>160.800000</ele>
        <time>2020-10-17T13:14:14Z</time>
      </trkpt>
      <trkpt lat="39.735224000" lon="-8.482075000">
        <ele>160.400000</ele>
        <time>2020-10-17T13:14:16Z</time>
      </trkpt>
      <trkpt lat="39.735192000" lon="-8.482084000">
        <ele>160.000000</ele>
        <time>2020-10-17T13:14:17Z</time>
      </trkpt>
      <trkpt lat="39.735155000" lon="-8.482096000">
        <ele>159.800000</ele>
        <time>2020-10-17T13:14:18Z</time>
      </trkpt>
      <trkpt lat="39.735123000" lon="-8.482091000">
        <ele>159.200000</ele>
        <time>2020-10-17T13:14:19Z</time>
      </trkpt>
      <trkpt lat="39.735107000" lon="-8.482088000">
        <ele>158.800000</ele>
        <time>2020-10-17T13:14:20Z</time>
      </trkpt>
      <trkpt lat="39.735104000" lon="-8.482114000">
        <ele>158.200000</ele>
        <time>2020-10-17T13:14:21Z</time>
      </trkpt>
      <trkpt lat="39.735102000" lon="-8.482148000">
        <ele>157.800000</ele>
        <time>2020-10-17T13:14:22Z</time>
      </trkpt>
      <trkpt lat="39.735119000" lon="-8.482209000">
        <ele>157.600000</ele>
        <time>2020-10-17T13:14:23Z</time>
      </trkpt>
      <trkpt lat="39.735158000" lon="-8.482355000">
        <ele>157.600000</ele>
        <time>2020-10-17T13:14:25Z</time>
      </trkpt>
      <trkpt lat="39.735172000" lon="-8.482524000">
        <ele>157.400000</ele>
        <time>2020-10-17T13:14:28Z</time>
      </trkpt>
      <trkpt lat="39.735194000" lon="-8.482645000">
        <ele>157.400000</ele>
        <time>2020-10-17T13:14:30Z</time>
      </trkpt>
      <trkpt lat="39.735205000" lon="-8.482694000">
        <ele>157.400000</ele>
        <time>2020-10-17T13:14:31Z</time>
      </trkpt>
      <trkpt lat="39.735262000" lon="-8.482941000">
        <ele>157.600000</ele>
        <time>2020-10-17T13:14:35Z</time>
      </trkpt>
      <trkpt lat="39.735276000" lon="-8.483099000">
        <ele>158.000000</ele>
        <time>2020-10-17T13:14:37Z</time>
      </trkpt>
      <trkpt lat="39.735274000" lon="-8.483248000">
        <ele>158.600000</ele>
        <time>2020-10-17T13:14:39Z</time>
      </trkpt>
      <trkpt lat="39.735255000" lon="-8.483316000">
        <ele>158.400000</ele>
        <time>2020-10-17T13:14:40Z</time>
      </trkpt>
      <trkpt lat="39.735249000" lon="-8.483409000">
        <ele>158.800000</ele>
        <time>2020-10-17T13:14:41Z</time>
      </trkpt>
      <trkpt lat="39.735216000" lon="-8.483502000">
        <ele>158.800000</ele>
        <time>2020-10-17T13:14:42Z</time>
      </trkpt>
      <trkpt lat="39.735110000" lon="-8.483743000">
        <ele>158.600000</ele>
        <time>2020-10-17T13:14:45Z</time>
      </trkpt>
      <trkpt lat="39.735076000" lon="-8.483843000">
        <ele>158.600000</ele>
        <time>2020-10-17T13:14:46Z</time>
      </trkpt>
      <trkpt lat="39.735040000" lon="-8.483959000">
        <ele>158.600000</ele>
        <time>2020-10-17T13:14:47Z</time>
      </trkpt>
      <trkpt lat="39.735005000" lon="-8.484170000">
        <ele>157.200000</ele>
        <time>2020-10-17T13:14:49Z</time>
      </trkpt>
      <trkpt lat="39.734975000" lon="-8.484534000">
        <ele>156.200000</ele>
        <time>2020-10-17T13:14:52Z</time>
      </trkpt>
      <trkpt lat="39.734987000" lon="-8.484653000">
        <ele>155.800000</ele>
        <time>2020-10-17T13:14:53Z</time>
      </trkpt>
      <trkpt lat="39.734998000" lon="-8.484770000">
        <ele>155.800000</ele>
        <time>2020-10-17T13:14:54Z</time>
      </trkpt>
      <trkpt lat="39.735019000" lon="-8.484874000">
        <ele>154.800000</ele>
        <time>2020-10-17T13:14:55Z</time>
      </trkpt>
      <trkpt lat="39.735056000" lon="-8.484969000">
        <ele>154.200000</ele>
        <time>2020-10-17T13:14:56Z</time>
      </trkpt>
      <trkpt lat="39.735082000" lon="-8.485071000">
        <ele>153.400000</ele>
        <time>2020-10-17T13:14:57Z</time>
      </trkpt>
      <trkpt lat="39.735098000" lon="-8.485153000">
        <ele>152.000000</ele>
        <time>2020-10-17T13:14:58Z</time>
      </trkpt>
      <trkpt lat="39.735106000" lon="-8.485245000">
        <ele>151.200000</ele>
        <time>2020-10-17T13:14:59Z</time>
      </trkpt>
      <trkpt lat="39.735108000" lon="-8.485331000">
        <ele>150.800000</ele>
        <time>2020-10-17T13:15:00Z</time>
      </trkpt>
      <trkpt lat="39.735102000" lon="-8.485424000">
        <ele>150.600000</ele>
        <time>2020-10-17T13:15:01Z</time>
      </trkpt>
      <trkpt lat="39.735103000" lon="-8.485634000">
        <ele>149.600000</ele>
        <time>2020-10-17T13:15:03Z</time>
      </trkpt>
      <trkpt lat="39.735109000" lon="-8.485744000">
        <ele>149.200000</ele>
        <time>2020-10-17T13:15:04Z</time>
      </trkpt>
      <trkpt lat="39.735128000" lon="-8.485845000">
        <ele>148.600000</ele>
        <time>2020-10-17T13:15:05Z</time>
      </trkpt>
      <trkpt lat="39.735177000" lon="-8.486020000">
        <ele>147.800000</ele>
        <time>2020-10-17T13:15:07Z</time>
      </trkpt>
      <trkpt lat="39.735195000" lon="-8.486123000">
        <ele>147.000000</ele>
        <time>2020-10-17T13:15:08Z</time>
      </trkpt>
      <trkpt lat="39.735289000" lon="-8.486483000">
        <ele>145.200000</ele>
        <time>2020-10-17T13:15:11Z</time>
      </trkpt>
      <trkpt lat="39.735331000" lon="-8.486764000">
        <ele>143.800000</ele>
        <time>2020-10-17T13:15:13Z</time>
      </trkpt>
      <trkpt lat="39.735367000" lon="-8.487216000">
        <ele>141.000000</ele>
        <time>2020-10-17T13:15:16Z</time>
      </trkpt>
      <trkpt lat="39.735343000" lon="-8.487521000">
        <ele>139.800000</ele>
        <time>2020-10-17T13:15:18Z</time>
      </trkpt>
      <trkpt lat="39.735260000" lon="-8.487773000">
        <ele>138.600000</ele>
        <time>2020-10-17T13:15:20Z</time>
      </trkpt>
      <trkpt lat="39.735182000" lon="-8.487864000">
        <ele>138.000000</ele>
        <time>2020-10-17T13:15:21Z</time>
      </trkpt>
      <trkpt lat="39.735137000" lon="-8.487968000">
        <ele>137.200000</ele>
        <time>2020-10-17T13:15:22Z</time>
      </trkpt>
      <trkpt lat="39.735082000" lon="-8.488055000">
        <ele>136.600000</ele>
        <time>2020-10-17T13:15:23Z</time>
      </trkpt>
      <trkpt lat="39.735038000" lon="-8.488144000">
        <ele>136.400000</ele>
        <time>2020-10-17T13:15:24Z</time>
      </trkpt>
      <trkpt lat="39.735012000" lon="-8.488249000">
        <ele>135.800000</ele>
        <time>2020-10-17T13:15:25Z</time>
      </trkpt>
      <trkpt lat="39.734989000" lon="-8.488332000">
        <ele>135.400000</ele>
        <time>2020-10-17T13:15:26Z</time>
      </trkpt>
      <trkpt lat="39.734973000" lon="-8.488416000">
        <ele>135.400000</ele>
        <time>2020-10-17T13:15:27Z</time>
      </trkpt>
      <trkpt lat="39.734944000" lon="-8.488506000">
        <ele>134.600000</ele>
        <time>2020-10-17T13:15:28Z</time>
      </trkpt>
      <trkpt lat="39.734906000" lon="-8.488576000">
        <ele>134.200000</ele>
        <time>2020-10-17T13:15:29Z</time>
      </trkpt>
      <trkpt lat="39.734863000" lon="-8.488641000">
        <ele>134.200000</ele>
        <time>2020-10-17T13:15:30Z</time>
      </trkpt>
      <trkpt lat="39.734813000" lon="-8.488712000">
        <ele>133.800000</ele>
        <time>2020-10-17T13:15:31Z</time>
      </trkpt>
      <trkpt lat="39.734757000" lon="-8.488793000">
        <ele>133.200000</ele>
        <time>2020-10-17T13:15:32Z</time>
      </trkpt>
      <trkpt lat="39.734621000" lon="-8.488946000">
        <ele>132.200000</ele>
        <time>2020-10-17T13:15:34Z</time>
      </trkpt>
      <trkpt lat="39.734536000" lon="-8.489019000">
        <ele>131.400000</ele>
        <time>2020-10-17T13:15:35Z</time>
      </trkpt>
      <trkpt lat="39.734464000" lon="-8.489080000">
        <ele>131.200000</ele>
        <time>2020-10-17T13:15:36Z</time>
      </trkpt>
      <trkpt lat="39.734309000" lon="-8.489213000">
        <ele>130.600000</ele>
        <time>2020-10-17T13:15:38Z</time>
      </trkpt>
      <trkpt lat="39.734244000" lon="-8.489283000">
        <ele>130.400000</ele>
        <time>2020-10-17T13:15:39Z</time>
      </trkpt>
      <trkpt lat="39.734184000" lon="-8.489347000">
        <ele>130.200000</ele>
        <time>2020-10-17T13:15:40Z</time>
      </trkpt>
      <trkpt lat="39.734126000" lon="-8.489403000">
        <ele>129.800000</ele>
        <time>2020-10-17T13:15:41Z</time>
      </trkpt>
      <trkpt lat="39.734068000" lon="-8.489456000">
        <ele>129.600000</ele>
        <time>2020-10-17T13:15:42Z</time>
      </trkpt>
      <trkpt lat="39.734007000" lon="-8.489501000">
        <ele>129.000000</ele>
        <time>2020-10-17T13:15:43Z</time>
      </trkpt>
      <trkpt lat="39.733943000" lon="-8.489542000">
        <ele>128.400000</ele>
        <time>2020-10-17T13:15:44Z</time>
      </trkpt>
      <trkpt lat="39.733877000" lon="-8.489574000">
        <ele>128.000000</ele>
        <time>2020-10-17T13:15:45Z</time>
      </trkpt>
      <trkpt lat="39.733814000" lon="-8.489606000">
        <ele>128.000000</ele>
        <time>2020-10-17T13:15:46Z</time>
      </trkpt>
      <trkpt lat="39.733754000" lon="-8.489638000">
        <ele>128.000000</ele>
        <time>2020-10-17T13:15:47Z</time>
      </trkpt>
      <trkpt lat="39.733712000" lon="-8.489679000">
        <ele>128.000000</ele>
        <time>2020-10-17T13:15:48Z</time>
      </trkpt>
      <trkpt lat="39.733668000" lon="-8.489715000">
        <ele>127.800000</ele>
        <time>2020-10-17T13:15:49Z</time>
      </trkpt>
      <trkpt lat="39.733628000" lon="-8.489758000">
        <ele>127.800000</ele>
        <time>2020-10-17T13:15:50Z</time>
      </trkpt>
      <trkpt lat="39.733588000" lon="-8.489795000">
        <ele>127.800000</ele>
        <time>2020-10-17T13:15:51Z</time>
      </trkpt>
      <trkpt lat="39.733551000" lon="-8.489831000">
        <ele>128.000000</ele>
        <time>2020-10-17T13:15:52Z</time>
      </trkpt>
      <trkpt lat="39.733517000" lon="-8.489862000">
        <ele>127.800000</ele>
        <time>2020-10-17T13:15:53Z</time>
      </trkpt>
      <trkpt lat="39.733481000" lon="-8.489900000">
        <ele>127.800000</ele>
        <time>2020-10-17T13:15:54Z</time>
      </trkpt>
      <trkpt lat="39.733452000" lon="-8.489930000">
        <ele>128.200000</ele>
        <time>2020-10-17T13:15:55Z</time>
      </trkpt>
      <trkpt lat="39.733428000" lon="-8.489962000">
        <ele>128.200000</ele>
        <time>2020-10-17T13:15:56Z</time>
      </trkpt>
      <trkpt lat="39.733411000" lon="-8.489987000">
        <ele>128.600000</ele>
        <time>2020-10-17T13:15:57Z</time>
      </trkpt>
      <trkpt lat="39.733393000" lon="-8.490011000">
        <ele>128.600000</ele>
        <time>2020-10-17T13:15:58Z</time>
      </trkpt>
      <trkpt lat="39.733377000" lon="-8.490032000">
        <ele>129.000000</ele>
        <time>2020-10-17T13:15:59Z</time>
      </trkpt>
      <trkpt lat="39.733359000" lon="-8.490052000">
        <ele>129.000000</ele>
        <time>2020-10-17T13:16:00Z</time>
      </trkpt>
      <trkpt lat="39.733337000" lon="-8.490073000">
        <ele>129.400000</ele>
        <time>2020-10-17T13:16:01Z</time>
      </trkpt>
      <trkpt lat="39.733312000" lon="-8.490104000">
        <ele>129.600000</ele>
        <time>2020-10-17T13:16:02Z</time>
      </trkpt>
      <trkpt lat="39.733284000" lon="-8.490140000">
        <ele>130.000000</ele>
        <time>2020-10-17T13:16:03Z</time>
      </trkpt>
      <trkpt lat="39.733266000" lon="-8.490162000">
        <ele>130.000000</ele>
        <time>2020-10-17T13:16:04Z</time>
      </trkpt>
      <trkpt lat="39.733249000" lon="-8.490178000">
        <ele>130.600000</ele>
        <time>2020-10-17T13:16:05Z</time>
      </trkpt>
      <trkpt lat="39.733232000" lon="-8.490189000">
        <ele>131.200000</ele>
        <time>2020-10-17T13:16:06Z</time>
      </trkpt>
      <trkpt lat="39.733226000" lon="-8.490199000">
        <ele>131.800000</ele>
        <time>2020-10-17T13:16:07Z</time>
      </trkpt>
      <trkpt lat="39.733211000" lon="-8.490213000">
        <ele>132.000000</ele>
        <time>2020-10-17T13:16:08Z</time>
      </trkpt>
      <trkpt lat="39.733203000" lon="-8.490219000">
        <ele>132.000000</ele>
        <time>2020-10-17T13:16:09Z</time>
      </trkpt>
      <trkpt lat="39.733193000" lon="-8.490226000">
        <ele>132.600000</ele>
        <time>2020-10-17T13:16:10Z</time>
      </trkpt>
      <trkpt lat="39.733172000" lon="-8.490247000">
        <ele>132.600000</ele>
        <time>2020-10-17T13:16:11Z</time>
      </trkpt>
      <trkpt lat="39.733156000" lon="-8.490265000">
        <ele>133.200000</ele>
        <time>2020-10-17T13:16:12Z</time>
      </trkpt>
      <trkpt lat="39.733143000" lon="-8.490276000">
        <ele>133.600000</ele>
        <time>2020-10-17T13:16:13Z</time>
      </trkpt>
      <trkpt lat="39.733129000" lon="-8.490283000">
        <ele>133.800000</ele>
        <time>2020-10-17T13:16:14Z</time>
      </trkpt>
      <trkpt lat="39.733111000" lon="-8.490298000">
        <ele>134.000000</ele>
        <time>2020-10-17T13:16:15Z</time>
      </trkpt>
      <trkpt lat="39.733093000" lon="-8.490313000">
        <ele>134.400000</ele>
        <time>2020-10-17T13:16:16Z</time>
      </trkpt>
      <trkpt lat="39.733089000" lon="-8.490316000">
        <ele>134.800000</ele>
        <time>2020-10-17T13:16:17Z</time>
      </trkpt>
      <trkpt lat="39.733089000" lon="-8.490322000">
        <ele>135.200000</ele>
        <time>2020-10-17T13:16:18Z</time>
      </trkpt>
      <trkpt lat="39.733091000" lon="-8.490322000">
        <ele>135.400000</ele>
        <time>2020-10-17T13:16:19Z</time>
      </trkpt>
      <trkpt lat="39.733096000" lon="-8.490326000">
        <ele>135.600000</ele>
        <time>2020-10-17T13:16:21Z</time>
      </trkpt>
      <trkpt lat="39.733048000" lon="-8.490263000">
        <ele>136.000000</ele>
        <time>2020-10-17T13:16:42Z</time>
      </trkpt>
      <trkpt lat="39.732990000" lon="-8.490194000">
        <ele>136.000000</ele>
        <time>2020-10-17T13:16:44Z</time>
      </trkpt>
      <trkpt lat="39.732941000" lon="-8.490167000">
        <ele>136.000000</ele>
        <time>2020-10-17T13:16:45Z</time>
      </trkpt>
      <trkpt lat="39.732885000" lon="-8.490133000">
        <ele>136.000000</ele>
        <time>2020-10-17T13:16:46Z</time>
      </trkpt>
      <trkpt lat="39.732813000" lon="-8.490111000">
        <ele>136.000000</ele>
        <time>2020-10-17T13:16:47Z</time>
      </trkpt>
      <trkpt lat="39.732737000" lon="-8.490094000">
        <ele>136.000000</ele>
        <time>2020-10-17T13:16:48Z</time>
      </trkpt>
      <trkpt lat="39.732653000" lon="-8.490080000">
        <ele>136.000000</ele>
        <time>2020-10-17T13:16:49Z</time>
      </trkpt>
      <trkpt lat="39.732571000" lon="-8.490090000">
        <ele>136.000000</ele>
        <time>2020-10-17T13:16:50Z</time>
      </trkpt>
      <trkpt lat="39.732490000" lon="-8.490139000">
        <ele>136.000000</ele>
        <time>2020-10-17T13:16:51Z</time>
      </trkpt>
      <trkpt lat="39.732417000" lon="-8.490185000">
        <ele>135.800000</ele>
        <time>2020-10-17T13:16:52Z</time>
      </trkpt>
      <trkpt lat="39.732345000" lon="-8.490231000">
        <ele>135.600000</ele>
        <time>2020-10-17T13:16:53Z</time>
      </trkpt>
      <trkpt lat="39.732300000" lon="-8.490302000">
        <ele>135.200000</ele>
        <time>2020-10-17T13:16:54Z</time>
      </trkpt>
      <trkpt lat="39.732252000" lon="-8.490392000">
        <ele>134.400000</ele>
        <time>2020-10-17T13:16:55Z</time>
      </trkpt>
      <trkpt lat="39.732217000" lon="-8.490586000">
        <ele>133.600000</ele>
        <time>2020-10-17T13:16:56Z</time>
      </trkpt>
      <trkpt lat="39.732184000" lon="-8.490722000">
        <ele>132.600000</ele>
        <time>2020-10-17T13:16:57Z</time>
      </trkpt>
      <trkpt lat="39.732164000" lon="-8.490838000">
        <ele>131.200000</ele>
        <time>2020-10-17T13:16:58Z</time>
      </trkpt>
      <trkpt lat="39.732161000" lon="-8.490920000">
        <ele>129.600000</ele>
        <time>2020-10-17T13:16:59Z</time>
      </trkpt>
      <trkpt lat="39.732156000" lon="-8.491000000">
        <ele>127.600000</ele>
        <time>2020-10-17T13:17:00Z</time>
      </trkpt>
      <trkpt lat="39.732149000" lon="-8.491061000">
        <ele>126.000000</ele>
        <time>2020-10-17T13:17:01Z</time>
      </trkpt>
      <trkpt lat="39.732137000" lon="-8.491094000">
        <ele>124.000000</ele>
        <time>2020-10-17T13:17:02Z</time>
      </trkpt>
      <trkpt lat="39.732122000" lon="-8.491115000">
        <ele>122.200000</ele>
        <time>2020-10-17T13:17:03Z</time>
      </trkpt>
      <trkpt lat="39.732106000" lon="-8.491115000">
        <ele>120.800000</ele>
        <time>2020-10-17T13:17:04Z</time>
      </trkpt>
      <trkpt lat="39.732076000" lon="-8.491124000">
        <ele>119.600000</ele>
        <time>2020-10-17T13:17:05Z</time>
      </trkpt>
      <trkpt lat="39.732044000" lon="-8.491111000">
        <ele>118.200000</ele>
        <time>2020-10-17T13:17:06Z</time>
      </trkpt>
      <trkpt lat="39.732013000" lon="-8.491082000">
        <ele>118.200000</ele>
        <time>2020-10-17T13:17:07Z</time>
      </trkpt>
      <trkpt lat="39.731990000" lon="-8.491043000">
        <ele>117.400000</ele>
        <time>2020-10-17T13:17:08Z</time>
      </trkpt>
      <trkpt lat="39.731969000" lon="-8.490994000">
        <ele>116.200000</ele>
        <time>2020-10-17T13:17:09Z</time>
      </trkpt>
      <trkpt lat="39.731956000" lon="-8.490875000">
        <ele>115.000000</ele>
        <time>2020-10-17T13:17:11Z</time>
      </trkpt>
      <trkpt lat="39.731950000" lon="-8.490819000">
        <ele>114.600000</ele>
        <time>2020-10-17T13:17:12Z</time>
      </trkpt>
      <trkpt lat="39.731937000" lon="-8.490756000">
        <ele>114.400000</ele>
        <time>2020-10-17T13:17:13Z</time>
      </trkpt>
      <trkpt lat="39.731888000" lon="-8.490431000">
        <ele>114.000000</ele>
        <time>2020-10-17T13:17:18Z</time>
      </trkpt>
      <trkpt lat="39.731874000" lon="-8.490362000">
        <ele>114.000000</ele>
        <time>2020-10-17T13:17:19Z</time>
      </trkpt>
      <trkpt lat="39.731863000" lon="-8.490304000">
        <ele>114.000000</ele>
        <time>2020-10-17T13:17:20Z</time>
      </trkpt>
      <trkpt lat="39.731852000" lon="-8.490251000">
        <ele>114.000000</ele>
        <time>2020-10-17T13:17:21Z</time>
      </trkpt>
      <trkpt lat="39.731839000" lon="-8.490193000">
        <ele>114.000000</ele>
        <time>2020-10-17T13:17:22Z</time>
      </trkpt>
      <trkpt lat="39.731834000" lon="-8.490142000">
        <ele>113.800000</ele>
        <time>2020-10-17T13:17:23Z</time>
      </trkpt>
      <trkpt lat="39.731808000" lon="-8.490074000">
        <ele>114.000000</ele>
        <time>2020-10-17T13:17:24Z</time>
      </trkpt>
      <trkpt lat="39.731791000" lon="-8.490024000">
        <ele>113.800000</ele>
        <time>2020-10-17T13:17:25Z</time>
      </trkpt>
      <trkpt lat="39.731768000" lon="-8.489970000">
        <ele>113.800000</ele>
        <time>2020-10-17T13:17:26Z</time>
      </trkpt>
      <trkpt lat="39.731675000" lon="-8.489766000">
        <ele>113.600000</ele>
        <time>2020-10-17T13:17:30Z</time>
      </trkpt>
      <trkpt lat="39.731644000" lon="-8.489715000">
        <ele>113.800000</ele>
        <time>2020-10-17T13:17:31Z</time>
      </trkpt>
      <trkpt lat="39.731614000" lon="-8.489699000">
        <ele>113.600000</ele>
        <time>2020-10-17T13:17:32Z</time>
      </trkpt>
      <trkpt lat="39.731571000" lon="-8.489671000">
        <ele>113.600000</ele>
        <time>2020-10-17T13:17:33Z</time>
      </trkpt>
      <trkpt lat="39.731525000" lon="-8.489652000">
        <ele>113.600000</ele>
        <time>2020-10-17T13:17:34Z</time>
      </trkpt>
      <trkpt lat="39.731471000" lon="-8.489630000">
        <ele>113.600000</ele>
        <time>2020-10-17T13:17:35Z</time>
      </trkpt>
      <trkpt lat="39.731419000" lon="-8.489628000">
        <ele>113.600000</ele>
        <time>2020-10-17T13:17:36Z</time>
      </trkpt>
      <trkpt lat="39.731368000" lon="-8.489657000">
        <ele>113.400000</ele>
        <time>2020-10-17T13:17:37Z</time>
      </trkpt>
      <trkpt lat="39.731310000" lon="-8.489687000">
        <ele>113.400000</ele>
        <time>2020-10-17T13:17:38Z</time>
      </trkpt>
      <trkpt lat="39.731257000" lon="-8.489736000">
        <ele>113.400000</ele>
        <time>2020-10-17T13:17:39Z</time>
      </trkpt>
      <trkpt lat="39.731215000" lon="-8.489784000">
        <ele>113.400000</ele>
        <time>2020-10-17T13:17:40Z</time>
      </trkpt>
      <trkpt lat="39.731172000" lon="-8.489855000">
        <ele>113.000000</ele>
        <time>2020-10-17T13:17:41Z</time>
      </trkpt>
      <trkpt lat="39.730922000" lon="-8.490154000">
        <ele>112.200000</ele>
        <time>2020-10-17T13:17:46Z</time>
      </trkpt>
      <trkpt lat="39.730874000" lon="-8.490195000">
        <ele>112.000000</ele>
        <time>2020-10-17T13:17:47Z</time>
      </trkpt>
      <trkpt lat="39.730830000" lon="-8.490247000">
        <ele>112.000000</ele>
        <time>2020-10-17T13:17:48Z</time>
      </trkpt>
      <trkpt lat="39.730675000" lon="-8.490380000">
        <ele>111.800000</ele>
        <time>2020-10-17T13:17:51Z</time>
      </trkpt>
      <trkpt lat="39.730443000" lon="-8.490555000">
        <ele>111.800000</ele>
        <time>2020-10-17T13:17:55Z</time>
      </trkpt>
      <trkpt lat="39.730327000" lon="-8.490643000">
        <ele>111.600000</ele>
        <time>2020-10-17T13:17:57Z</time>
      </trkpt>
      <trkpt lat="39.730267000" lon="-8.490679000">
        <ele>111.600000</ele>
        <time>2020-10-17T13:17:58Z</time>
      </trkpt>
      <trkpt lat="39.730185000" lon="-8.490670000">
        <ele>111.600000</ele>
        <time>2020-10-17T13:17:59Z</time>
      </trkpt>
      <trkpt lat="39.730101000" lon="-8.490664000">
        <ele>111.400000</ele>
        <time>2020-10-17T13:18:00Z</time>
      </trkpt>
      <trkpt lat="39.730025000" lon="-8.490638000">
        <ele>111.200000</ele>
        <time>2020-10-17T13:18:01Z</time>
      </trkpt>
      <trkpt lat="39.729958000" lon="-8.490612000">
        <ele>111.400000</ele>
        <time>2020-10-17T13:18:02Z</time>
      </trkpt>
      <trkpt lat="39.729891000" lon="-8.490598000">
        <ele>111.200000</ele>
        <time>2020-10-17T13:18:03Z</time>
      </trkpt>
      <trkpt lat="39.729829000" lon="-8.490586000">
        <ele>111.000000</ele>
        <time>2020-10-17T13:18:04Z</time>
      </trkpt>
      <trkpt lat="39.729703000" lon="-8.490592000">
        <ele>110.800000</ele>
        <time>2020-10-17T13:18:06Z</time>
      </trkpt>
      <trkpt lat="39.729569000" lon="-8.490600000">
        <ele>110.600000</ele>
        <time>2020-10-17T13:18:08Z</time>
      </trkpt>
      <trkpt lat="39.729447000" lon="-8.490632000">
        <ele>110.800000</ele>
        <time>2020-10-17T13:18:10Z</time>
      </trkpt>
      <trkpt lat="39.729401000" lon="-8.490671000">
        <ele>110.600000</ele>
        <time>2020-10-17T13:18:11Z</time>
      </trkpt>
      <trkpt lat="39.729366000" lon="-8.490716000">
        <ele>110.600000</ele>
        <time>2020-10-17T13:18:12Z</time>
      </trkpt>
      <trkpt lat="39.729338000" lon="-8.490765000">
        <ele>110.600000</ele>
        <time>2020-10-17T13:18:13Z</time>
      </trkpt>
      <trkpt lat="39.729337000" lon="-8.490833000">
        <ele>110.600000</ele>
        <time>2020-10-17T13:18:14Z</time>
      </trkpt>
      <trkpt lat="39.729344000" lon="-8.490887000">
        <ele>110.600000</ele>
        <time>2020-10-17T13:18:15Z</time>
      </trkpt>
      <trkpt lat="39.729359000" lon="-8.490934000">
        <ele>110.400000</ele>
        <time>2020-10-17T13:18:16Z</time>
      </trkpt>
      <trkpt lat="39.729392000" lon="-8.490978000">
        <ele>110.400000</ele>
        <time>2020-10-17T13:18:17Z</time>
      </trkpt>
      <trkpt lat="39.729435000" lon="-8.491025000">
        <ele>110.400000</ele>
        <time>2020-10-17T13:18:18Z</time>
      </trkpt>
      <trkpt lat="39.729478000" lon="-8.491076000">
        <ele>110.400000</ele>
        <time>2020-10-17T13:18:19Z</time>
      </trkpt>
      <trkpt lat="39.729519000" lon="-8.491123000">
        <ele>110.400000</ele>
        <time>2020-10-17T13:18:20Z</time>
      </trkpt>
      <trkpt lat="39.729556000" lon="-8.491174000">
        <ele>110.400000</ele>
        <time>2020-10-17T13:18:21Z</time>
      </trkpt>
      <trkpt lat="39.729739000" lon="-8.491470000">
        <ele>110.000000</ele>
        <time>2020-10-17T13:18:26Z</time>
      </trkpt>
      <trkpt lat="39.729757000" lon="-8.491537000">
        <ele>110.000000</ele>
        <time>2020-10-17T13:18:27Z</time>
      </trkpt>
      <trkpt lat="39.729766000" lon="-8.491607000">
        <ele>110.000000</ele>
        <time>2020-10-17T13:18:28Z</time>
      </trkpt>
      <trkpt lat="39.729767000" lon="-8.491679000">
        <ele>109.800000</ele>
        <time>2020-10-17T13:18:29Z</time>
      </trkpt>
      <trkpt lat="39.729751000" lon="-8.491748000">
        <ele>109.800000</ele>
        <time>2020-10-17T13:18:30Z</time>
      </trkpt>
      <trkpt lat="39.729726000" lon="-8.491815000">
        <ele>109.800000</ele>
        <time>2020-10-17T13:18:31Z</time>
      </trkpt>
      <trkpt lat="39.729691000" lon="-8.491870000">
        <ele>109.800000</ele>
        <time>2020-10-17T13:18:32Z</time>
      </trkpt>
      <trkpt lat="39.729651000" lon="-8.491930000">
        <ele>109.800000</ele>
        <time>2020-10-17T13:18:33Z</time>
      </trkpt>
      <trkpt lat="39.729610000" lon="-8.491990000">
        <ele>109.800000</ele>
        <time>2020-10-17T13:18:34Z</time>
      </trkpt>
      <trkpt lat="39.729572000" lon="-8.492046000">
        <ele>109.600000</ele>
        <time>2020-10-17T13:18:35Z</time>
      </trkpt>
      <trkpt lat="39.729493000" lon="-8.492167000">
        <ele>109.600000</ele>
        <time>2020-10-17T13:18:37Z</time>
      </trkpt>
      <trkpt lat="39.729408000" lon="-8.492314000">
        <ele>109.600000</ele>
        <time>2020-10-17T13:18:39Z</time>
      </trkpt>
      <trkpt lat="39.729378000" lon="-8.492391000">
        <ele>109.800000</ele>
        <time>2020-10-17T13:18:40Z</time>
      </trkpt>
      <trkpt lat="39.729351000" lon="-8.492469000">
        <ele>109.600000</ele>
        <time>2020-10-17T13:18:41Z</time>
      </trkpt>
      <trkpt lat="39.729334000" lon="-8.492528000">
        <ele>109.400000</ele>
        <time>2020-10-17T13:18:42Z</time>
      </trkpt>
      <trkpt lat="39.729312000" lon="-8.492596000">
        <ele>109.600000</ele>
        <time>2020-10-17T13:18:43Z</time>
      </trkpt>
      <trkpt lat="39.729228000" lon="-8.492883000">
        <ele>109.600000</ele>
        <time>2020-10-17T13:18:47Z</time>
      </trkpt>
      <trkpt lat="39.729170000" lon="-8.493103000">
        <ele>109.600000</ele>
        <time>2020-10-17T13:18:50Z</time>
      </trkpt>
      <trkpt lat="39.729153000" lon="-8.493165000">
        <ele>109.800000</ele>
        <time>2020-10-17T13:18:51Z</time>
      </trkpt>
      <trkpt lat="39.729131000" lon="-8.493235000">
        <ele>109.800000</ele>
        <time>2020-10-17T13:18:52Z</time>
      </trkpt>
      <trkpt lat="39.729110000" lon="-8.493310000">
        <ele>109.800000</ele>
        <time>2020-10-17T13:18:53Z</time>
      </trkpt>
      <trkpt lat="39.729066000" lon="-8.493440000">
        <ele>109.600000</ele>
        <time>2020-10-17T13:18:55Z</time>
      </trkpt>
      <trkpt lat="39.729040000" lon="-8.493502000">
        <ele>109.600000</ele>
        <time>2020-10-17T13:18:56Z</time>
      </trkpt>
      <trkpt lat="39.729013000" lon="-8.493565000">
        <ele>109.800000</ele>
        <time>2020-10-17T13:18:57Z</time>
      </trkpt>
      <trkpt lat="39.728989000" lon="-8.493619000">
        <ele>109.800000</ele>
        <time>2020-10-17T13:18:58Z</time>
      </trkpt>
      <trkpt lat="39.728961000" lon="-8.493669000">
        <ele>109.800000</ele>
        <time>2020-10-17T13:18:59Z</time>
      </trkpt>
      <trkpt lat="39.728936000" lon="-8.493720000">
        <ele>109.800000</ele>
        <time>2020-10-17T13:19:00Z</time>
      </trkpt>
      <trkpt lat="39.728913000" lon="-8.493772000">
        <ele>109.800000</ele>
        <time>2020-10-17T13:19:01Z</time>
      </trkpt>
      <trkpt lat="39.728890000" lon="-8.493825000">
        <ele>110.000000</ele>
        <time>2020-10-17T13:19:02Z</time>
      </trkpt>
      <trkpt lat="39.728872000" lon="-8.493872000">
        <ele>110.000000</ele>
        <time>2020-10-17T13:19:03Z</time>
      </trkpt>
      <trkpt lat="39.728852000" lon="-8.493919000">
        <ele>110.200000</ele>
        <time>2020-10-17T13:19:04Z</time>
      </trkpt>
      <trkpt lat="39.728831000" lon="-8.493966000">
        <ele>110.200000</ele>
        <time>2020-10-17T13:19:05Z</time>
      </trkpt>
      <trkpt lat="39.728811000" lon="-8.494011000">
        <ele>110.400000</ele>
        <time>2020-10-17T13:19:06Z</time>
      </trkpt>
      <trkpt lat="39.728755000" lon="-8.494148000">
        <ele>110.800000</ele>
        <time>2020-10-17T13:19:09Z</time>
      </trkpt>
      <trkpt lat="39.728734000" lon="-8.494187000">
        <ele>110.800000</ele>
        <time>2020-10-17T13:19:10Z</time>
      </trkpt>
      <trkpt lat="39.728715000" lon="-8.494220000">
        <ele>111.000000</ele>
        <time>2020-10-17T13:19:11Z</time>
      </trkpt>
      <trkpt lat="39.728694000" lon="-8.494257000">
        <ele>111.200000</ele>
        <time>2020-10-17T13:19:12Z</time>
      </trkpt>
      <trkpt lat="39.728674000" lon="-8.494284000">
        <ele>111.200000</ele>
        <time>2020-10-17T13:19:13Z</time>
      </trkpt>
      <trkpt lat="39.728636000" lon="-8.494310000">
        <ele>111.400000</ele>
        <time>2020-10-17T13:19:14Z</time>
      </trkpt>
      <trkpt lat="39.728578000" lon="-8.494340000">
        <ele>111.600000</ele>
        <time>2020-10-17T13:19:15Z</time>
      </trkpt>
      <trkpt lat="39.728525000" lon="-8.494355000">
        <ele>111.800000</ele>
        <time>2020-10-17T13:19:16Z</time>
      </trkpt>
      <trkpt lat="39.728479000" lon="-8.494365000">
        <ele>112.200000</ele>
        <time>2020-10-17T13:19:17Z</time>
      </trkpt>
      <trkpt lat="39.728423000" lon="-8.494364000">
        <ele>112.400000</ele>
        <time>2020-10-17T13:19:18Z</time>
      </trkpt>
      <trkpt lat="39.728380000" lon="-8.494367000">
        <ele>112.400000</ele>
        <time>2020-10-17T13:19:19Z</time>
      </trkpt>
      <trkpt lat="39.728336000" lon="-8.494372000">
        <ele>112.600000</ele>
        <time>2020-10-17T13:19:20Z</time>
      </trkpt>
      <trkpt lat="39.728292000" lon="-8.494375000">
        <ele>112.800000</ele>
        <time>2020-10-17T13:19:21Z</time>
      </trkpt>
      <trkpt lat="39.728247000" lon="-8.494380000">
        <ele>113.200000</ele>
        <time>2020-10-17T13:19:22Z</time>
      </trkpt>
      <trkpt lat="39.728205000" lon="-8.494383000">
        <ele>113.200000</ele>
        <time>2020-10-17T13:19:23Z</time>
      </trkpt>
      <trkpt lat="39.728158000" lon="-8.494382000">
        <ele>113.200000</ele>
        <time>2020-10-17T13:19:24Z</time>
      </trkpt>
      <trkpt lat="39.728109000" lon="-8.494375000">
        <ele>113.400000</ele>
        <time>2020-10-17T13:19:25Z</time>
      </trkpt>
      <trkpt lat="39.728065000" lon="-8.494377000">
        <ele>113.400000</ele>
        <time>2020-10-17T13:19:26Z</time>
      </trkpt>
      <trkpt lat="39.728021000" lon="-8.494378000">
        <ele>113.600000</ele>
        <time>2020-10-17T13:19:27Z</time>
      </trkpt>
      <trkpt lat="39.727982000" lon="-8.494376000">
        <ele>113.400000</ele>
        <time>2020-10-17T13:19:28Z</time>
      </trkpt>
      <trkpt lat="39.727942000" lon="-8.494372000">
        <ele>113.600000</ele>
        <time>2020-10-17T13:19:29Z</time>
      </trkpt>
      <trkpt lat="39.727903000" lon="-8.494365000">
        <ele>113.600000</ele>
        <time>2020-10-17T13:19:30Z</time>
      </trkpt>
      <trkpt lat="39.727868000" lon="-8.494356000">
        <ele>113.800000</ele>
        <time>2020-10-17T13:19:31Z</time>
      </trkpt>
      <trkpt lat="39.727835000" lon="-8.494346000">
        <ele>114.000000</ele>
        <time>2020-10-17T13:19:32Z</time>
      </trkpt>
      <trkpt lat="39.727798000" lon="-8.494338000">
        <ele>114.200000</ele>
        <time>2020-10-17T13:19:33Z</time>
      </trkpt>
      <trkpt lat="39.727758000" lon="-8.494331000">
        <ele>114.200000</ele>
        <time>2020-10-17T13:19:34Z</time>
      </trkpt>
      <trkpt lat="39.727721000" lon="-8.494324000">
        <ele>114.200000</ele>
        <time>2020-10-17T13:19:35Z</time>
      </trkpt>
      <trkpt lat="39.727682000" lon="-8.494316000">
        <ele>114.400000</ele>
        <time>2020-10-17T13:19:36Z</time>
      </trkpt>
      <trkpt lat="39.727647000" lon="-8.494311000">
        <ele>114.600000</ele>
        <time>2020-10-17T13:19:37Z</time>
      </trkpt>
      <trkpt lat="39.727614000" lon="-8.494304000">
        <ele>114.600000</ele>
        <time>2020-10-17T13:19:38Z</time>
      </trkpt>
      <trkpt lat="39.727580000" lon="-8.494295000">
        <ele>115.000000</ele>
        <time>2020-10-17T13:19:39Z</time>
      </trkpt>
      <trkpt lat="39.727542000" lon="-8.494281000">
        <ele>115.200000</ele>
        <time>2020-10-17T13:19:40Z</time>
      </trkpt>
      <trkpt lat="39.727502000" lon="-8.494270000">
        <ele>115.400000</ele>
        <time>2020-10-17T13:19:41Z</time>
      </trkpt>
      <trkpt lat="39.727467000" lon="-8.494260000">
        <ele>115.800000</ele>
        <time>2020-10-17T13:19:42Z</time>
      </trkpt>
      <trkpt lat="39.727434000" lon="-8.494252000">
        <ele>115.800000</ele>
        <time>2020-10-17T13:19:43Z</time>
      </trkpt>
      <trkpt lat="39.727401000" lon="-8.494247000">
        <ele>116.200000</ele>
        <time>2020-10-17T13:19:44Z</time>
      </trkpt>
      <trkpt lat="39.727369000" lon="-8.494238000">
        <ele>116.400000</ele>
        <time>2020-10-17T13:19:45Z</time>
      </trkpt>
      <trkpt lat="39.727342000" lon="-8.494231000">
        <ele>116.400000</ele>
        <time>2020-10-17T13:19:46Z</time>
      </trkpt>
      <trkpt lat="39.727314000" lon="-8.494216000">
        <ele>116.600000</ele>
        <time>2020-10-17T13:19:47Z</time>
      </trkpt>
      <trkpt lat="39.727280000" lon="-8.494196000">
        <ele>116.800000</ele>
        <time>2020-10-17T13:19:48Z</time>
      </trkpt>
      <trkpt lat="39.727248000" lon="-8.494189000">
        <ele>117.000000</ele>
        <time>2020-10-17T13:19:49Z</time>
      </trkpt>
      <trkpt lat="39.727215000" lon="-8.494183000">
        <ele>117.200000</ele>
        <time>2020-10-17T13:19:50Z</time>
      </trkpt>
      <trkpt lat="39.727183000" lon="-8.494173000">
        <ele>117.400000</ele>
        <time>2020-10-17T13:19:51Z</time>
      </trkpt>
      <trkpt lat="39.727147000" lon="-8.494162000">
        <ele>117.800000</ele>
        <time>2020-10-17T13:19:52Z</time>
      </trkpt>
      <trkpt lat="39.727114000" lon="-8.494167000">
        <ele>118.000000</ele>
        <time>2020-10-17T13:19:53Z</time>
      </trkpt>
      <trkpt lat="39.727080000" lon="-8.494171000">
        <ele>118.200000</ele>
        <time>2020-10-17T13:19:54Z</time>
      </trkpt>
      <trkpt lat="39.727044000" lon="-8.494172000">
        <ele>118.200000</ele>
        <time>2020-10-17T13:19:55Z</time>
      </trkpt>
      <trkpt lat="39.727009000" lon="-8.494163000">
        <ele>118.400000</ele>
        <time>2020-10-17T13:19:56Z</time>
      </trkpt>
      <trkpt lat="39.726978000" lon="-8.494157000">
        <ele>118.800000</ele>
        <time>2020-10-17T13:19:57Z</time>
      </trkpt>
      <trkpt lat="39.726951000" lon="-8.494151000">
        <ele>119.200000</ele>
        <time>2020-10-17T13:19:58Z</time>
      </trkpt>
      <trkpt lat="39.726923000" lon="-8.494149000">
        <ele>119.400000</ele>
        <time>2020-10-17T13:19:59Z</time>
      </trkpt>
      <trkpt lat="39.726893000" lon="-8.494147000">
        <ele>119.600000</ele>
        <time>2020-10-17T13:20:00Z</time>
      </trkpt>
      <trkpt lat="39.726861000" lon="-8.494145000">
        <ele>120.000000</ele>
        <time>2020-10-17T13:20:01Z</time>
      </trkpt>
      <trkpt lat="39.726827000" lon="-8.494137000">
        <ele>120.200000</ele>
        <time>2020-10-17T13:20:02Z</time>
      </trkpt>
      <trkpt lat="39.726786000" lon="-8.494132000">
        <ele>120.600000</ele>
        <time>2020-10-17T13:20:03Z</time>
      </trkpt>
      <trkpt lat="39.726748000" lon="-8.494132000">
        <ele>120.800000</ele>
        <time>2020-10-17T13:20:04Z</time>
      </trkpt>
      <trkpt lat="39.726709000" lon="-8.494124000">
        <ele>121.000000</ele>
        <time>2020-10-17T13:20:05Z</time>
      </trkpt>
      <trkpt lat="39.726665000" lon="-8.494115000">
        <ele>121.200000</ele>
        <time>2020-10-17T13:20:06Z</time>
      </trkpt>
      <trkpt lat="39.726621000" lon="-8.494107000">
        <ele>121.200000</ele>
        <time>2020-10-17T13:20:07Z</time>
      </trkpt>
      <trkpt lat="39.726577000" lon="-8.494108000">
        <ele>121.200000</ele>
        <time>2020-10-17T13:20:08Z</time>
      </trkpt>
      <trkpt lat="39.726535000" lon="-8.494114000">
        <ele>121.400000</ele>
        <time>2020-10-17T13:20:09Z</time>
      </trkpt>
      <trkpt lat="39.726487000" lon="-8.494108000">
        <ele>121.400000</ele>
        <time>2020-10-17T13:20:10Z</time>
      </trkpt>
      <trkpt lat="39.726441000" lon="-8.494107000">
        <ele>121.800000</ele>
        <time>2020-10-17T13:20:11Z</time>
      </trkpt>
      <trkpt lat="39.726393000" lon="-8.494100000">
        <ele>121.800000</ele>
        <time>2020-10-17T13:20:12Z</time>
      </trkpt>
      <trkpt lat="39.726340000" lon="-8.494085000">
        <ele>122.000000</ele>
        <time>2020-10-17T13:20:13Z</time>
      </trkpt>
      <trkpt lat="39.726288000" lon="-8.494070000">
        <ele>122.000000</ele>
        <time>2020-10-17T13:20:14Z</time>
      </trkpt>
      <trkpt lat="39.726238000" lon="-8.494070000">
        <ele>122.000000</ele>
        <time>2020-10-17T13:20:15Z</time>
      </trkpt>
      <trkpt lat="39.726184000" lon="-8.494057000">
        <ele>122.000000</ele>
        <time>2020-10-17T13:20:16Z</time>
      </trkpt>
      <trkpt lat="39.726138000" lon="-8.494049000">
        <ele>122.000000</ele>
        <time>2020-10-17T13:20:17Z</time>
      </trkpt>
      <trkpt lat="39.726088000" lon="-8.494021000">
        <ele>122.000000</ele>
        <time>2020-10-17T13:20:18Z</time>
      </trkpt>
      <trkpt lat="39.725981000" lon="-8.493954000">
        <ele>122.000000</ele>
        <time>2020-10-17T13:20:20Z</time>
      </trkpt>
      <trkpt lat="39.725938000" lon="-8.493925000">
        <ele>122.000000</ele>
        <time>2020-10-17T13:20:21Z</time>
      </trkpt>
      <trkpt lat="39.725875000" lon="-8.493897000">
        <ele>122.000000</ele>
        <time>2020-10-17T13:20:22Z</time>
      </trkpt>
      <trkpt lat="39.725664000" lon="-8.493821000">
        <ele>121.800000</ele>
        <time>2020-10-17T13:20:25Z</time>
      </trkpt>
      <trkpt lat="39.725503000" lon="-8.493746000">
        <ele>121.600000</ele>
        <time>2020-10-17T13:20:27Z</time>
      </trkpt>
      <trkpt lat="39.725337000" lon="-8.493690000">
        <ele>121.200000</ele>
        <time>2020-10-17T13:20:29Z</time>
      </trkpt>
      <trkpt lat="39.725148000" lon="-8.493651000">
        <ele>120.800000</ele>
        <time>2020-10-17T13:20:31Z</time>
      </trkpt>
      <trkpt lat="39.725054000" lon="-8.493636000">
        <ele>120.800000</ele>
        <time>2020-10-17T13:20:32Z</time>
      </trkpt>
      <trkpt lat="39.724863000" lon="-8.493623000">
        <ele>120.000000</ele>
        <time>2020-10-17T13:20:34Z</time>
      </trkpt>
      <trkpt lat="39.724775000" lon="-8.493617000">
        <ele>119.600000</ele>
        <time>2020-10-17T13:20:35Z</time>
      </trkpt>
      <trkpt lat="39.724683000" lon="-8.493618000">
        <ele>118.800000</ele>
        <time>2020-10-17T13:20:36Z</time>
      </trkpt>
      <trkpt lat="39.724499000" lon="-8.493639000">
        <ele>118.200000</ele>
        <time>2020-10-17T13:20:38Z</time>
      </trkpt>
      <trkpt lat="39.724234000" lon="-8.493650000">
        <ele>116.200000</ele>
        <time>2020-10-17T13:20:41Z</time>
      </trkpt>
      <trkpt lat="39.724149000" lon="-8.493644000">
        <ele>115.600000</ele>
        <time>2020-10-17T13:20:42Z</time>
      </trkpt>
      <trkpt lat="39.724061000" lon="-8.493630000">
        <ele>115.200000</ele>
        <time>2020-10-17T13:20:43Z</time>
      </trkpt>
      <trkpt lat="39.723983000" lon="-8.493622000">
        <ele>114.800000</ele>
        <time>2020-10-17T13:20:44Z</time>
      </trkpt>
      <trkpt lat="39.723901000" lon="-8.493612000">
        <ele>114.600000</ele>
        <time>2020-10-17T13:20:45Z</time>
      </trkpt>
      <trkpt lat="39.723738000" lon="-8.493612000">
        <ele>114.200000</ele>
        <time>2020-10-17T13:20:47Z</time>
      </trkpt>
      <trkpt lat="39.723665000" lon="-8.493645000">
        <ele>114.000000</ele>
        <time>2020-10-17T13:20:48Z</time>
      </trkpt>
      <trkpt lat="39.723586000" lon="-8.493680000">
        <ele>114.000000</ele>
        <time>2020-10-17T13:20:49Z</time>
      </trkpt>
      <trkpt lat="39.723502000" lon="-8.493720000">
        <ele>113.800000</ele>
        <time>2020-10-17T13:20:50Z</time>
      </trkpt>
      <trkpt lat="39.723326000" lon="-8.493802000">
        <ele>113.600000</ele>
        <time>2020-10-17T13:20:52Z</time>
      </trkpt>
      <trkpt lat="39.723077000" lon="-8.493880000">
        <ele>112.400000</ele>
        <time>2020-10-17T13:20:55Z</time>
      </trkpt>
      <trkpt lat="39.723000000" lon="-8.493900000">
        <ele>112.400000</ele>
        <time>2020-10-17T13:20:56Z</time>
      </trkpt>
      <trkpt lat="39.722925000" lon="-8.493915000">
        <ele>112.000000</ele>
        <time>2020-10-17T13:20:57Z</time>
      </trkpt>
      <trkpt lat="39.722848000" lon="-8.493935000">
        <ele>112.000000</ele>
        <time>2020-10-17T13:20:58Z</time>
      </trkpt>
      <trkpt lat="39.722771000" lon="-8.493952000">
        <ele>112.000000</ele>
        <time>2020-10-17T13:20:59Z</time>
      </trkpt>
      <trkpt lat="39.722691000" lon="-8.493967000">
        <ele>111.800000</ele>
        <time>2020-10-17T13:21:00Z</time>
      </trkpt>
      <trkpt lat="39.722533000" lon="-8.494014000">
        <ele>111.000000</ele>
        <time>2020-10-17T13:21:02Z</time>
      </trkpt>
      <trkpt lat="39.722459000" lon="-8.494036000">
        <ele>110.600000</ele>
        <time>2020-10-17T13:21:03Z</time>
      </trkpt>
      <trkpt lat="39.722393000" lon="-8.494052000">
        <ele>110.400000</ele>
        <time>2020-10-17T13:21:04Z</time>
      </trkpt>
      <trkpt lat="39.722340000" lon="-8.494064000">
        <ele>110.000000</ele>
        <time>2020-10-17T13:21:05Z</time>
      </trkpt>
      <trkpt lat="39.722290000" lon="-8.494076000">
        <ele>110.000000</ele>
        <time>2020-10-17T13:21:06Z</time>
      </trkpt>
      <trkpt lat="39.722244000" lon="-8.494082000">
        <ele>109.800000</ele>
        <time>2020-10-17T13:21:07Z</time>
      </trkpt>
      <trkpt lat="39.722211000" lon="-8.494075000">
        <ele>109.800000</ele>
        <time>2020-10-17T13:21:08Z</time>
      </trkpt>
      <trkpt lat="39.722168000" lon="-8.494075000">
        <ele>109.600000</ele>
        <time>2020-10-17T13:21:09Z</time>
      </trkpt>
      <trkpt lat="39.722127000" lon="-8.494078000">
        <ele>109.400000</ele>
        <time>2020-10-17T13:21:10Z</time>
      </trkpt>
      <trkpt lat="39.722089000" lon="-8.494081000">
        <ele>109.200000</ele>
        <time>2020-10-17T13:21:11Z</time>
      </trkpt>
      <trkpt lat="39.722046000" lon="-8.494073000">
        <ele>109.200000</ele>
        <time>2020-10-17T13:21:12Z</time>
      </trkpt>
      <trkpt lat="39.721962000" lon="-8.494053000">
        <ele>109.000000</ele>
        <time>2020-10-17T13:21:14Z</time>
      </trkpt>
      <trkpt lat="39.721872000" lon="-8.494039000">
        <ele>109.000000</ele>
        <time>2020-10-17T13:21:16Z</time>
      </trkpt>
      <trkpt lat="39.721824000" lon="-8.494032000">
        <ele>109.000000</ele>
        <time>2020-10-17T13:21:17Z</time>
      </trkpt>
      <trkpt lat="39.721780000" lon="-8.494027000">
        <ele>109.000000</ele>
        <time>2020-10-17T13:21:18Z</time>
      </trkpt>
      <trkpt lat="39.721572000" lon="-8.494021000">
        <ele>108.800000</ele>
        <time>2020-10-17T13:21:22Z</time>
      </trkpt>
      <trkpt lat="39.721510000" lon="-8.494007000">
        <ele>108.600000</ele>
        <time>2020-10-17T13:21:23Z</time>
      </trkpt>
      <trkpt lat="39.721195000" lon="-8.493990000">
        <ele>107.800000</ele>
        <time>2020-10-17T13:21:28Z</time>
      </trkpt>
      <trkpt lat="39.721135000" lon="-8.493970000">
        <ele>107.600000</ele>
        <time>2020-10-17T13:21:29Z</time>
      </trkpt>
      <trkpt lat="39.721006000" lon="-8.493928000">
        <ele>107.400000</ele>
        <time>2020-10-17T13:21:31Z</time>
      </trkpt>
      <trkpt lat="39.720820000" lon="-8.493853000">
        <ele>106.800000</ele>
        <time>2020-10-17T13:21:34Z</time>
      </trkpt>
      <trkpt lat="39.720764000" lon="-8.493829000">
        <ele>106.800000</ele>
        <time>2020-10-17T13:21:35Z</time>
      </trkpt>
      <trkpt lat="39.720708000" lon="-8.493803000">
        <ele>106.800000</ele>
        <time>2020-10-17T13:21:36Z</time>
      </trkpt>
      <trkpt lat="39.720651000" lon="-8.493771000">
        <ele>106.600000</ele>
        <time>2020-10-17T13:21:37Z</time>
      </trkpt>
      <trkpt lat="39.720598000" lon="-8.493736000">
        <ele>106.400000</ele>
        <time>2020-10-17T13:21:38Z</time>
      </trkpt>
      <trkpt lat="39.720542000" lon="-8.493725000">
        <ele>106.600000</ele>
        <time>2020-10-17T13:21:39Z</time>
      </trkpt>
      <trkpt lat="39.720488000" lon="-8.493725000">
        <ele>106.400000</ele>
        <time>2020-10-17T13:21:40Z</time>
      </trkpt>
      <trkpt lat="39.720439000" lon="-8.493738000">
        <ele>106.400000</ele>
        <time>2020-10-17T13:21:41Z</time>
      </trkpt>
      <trkpt lat="39.720392000" lon="-8.493755000">
        <ele>106.400000</ele>
        <time>2020-10-17T13:21:42Z</time>
      </trkpt>
      <trkpt lat="39.720346000" lon="-8.493787000">
        <ele>106.400000</ele>
        <time>2020-10-17T13:21:43Z</time>
      </trkpt>
      <trkpt lat="39.720318000" lon="-8.493843000">
        <ele>106.400000</ele>
        <time>2020-10-17T13:21:44Z</time>
      </trkpt>
      <trkpt lat="39.720316000" lon="-8.493922000">
        <ele>106.400000</ele>
        <time>2020-10-17T13:21:45Z</time>
      </trkpt>
      <trkpt lat="39.720309000" lon="-8.493974000">
        <ele>106.400000</ele>
        <time>2020-10-17T13:21:46Z</time>
      </trkpt>
      <trkpt lat="39.720300000" lon="-8.494018000">
        <ele>106.200000</ele>
        <time>2020-10-17T13:21:47Z</time>
      </trkpt>
      <trkpt lat="39.720291000" lon="-8.494067000">
        <ele>106.400000</ele>
        <time>2020-10-17T13:21:48Z</time>
      </trkpt>
      <trkpt lat="39.720288000" lon="-8.494129000">
        <ele>106.400000</ele>
        <time>2020-10-17T13:21:49Z</time>
      </trkpt>
      <trkpt lat="39.720288000" lon="-8.494190000">
        <ele>106.400000</ele>
        <time>2020-10-17T13:21:50Z</time>
      </trkpt>
      <trkpt lat="39.720266000" lon="-8.494398000">
        <ele>106.400000</ele>
        <time>2020-10-17T13:21:53Z</time>
      </trkpt>
      <trkpt lat="39.720245000" lon="-8.494698000">
        <ele>106.800000</ele>
        <time>2020-10-17T13:21:57Z</time>
      </trkpt>
      <trkpt lat="39.720210000" lon="-8.494845000">
        <ele>106.800000</ele>
        <time>2020-10-17T13:21:59Z</time>
      </trkpt>
      <trkpt lat="39.720186000" lon="-8.494905000">
        <ele>107.000000</ele>
        <time>2020-10-17T13:22:00Z</time>
      </trkpt>
      <trkpt lat="39.720158000" lon="-8.494957000">
        <ele>107.000000</ele>
        <time>2020-10-17T13:22:01Z</time>
      </trkpt>
      <trkpt lat="39.720134000" lon="-8.495004000">
        <ele>107.000000</ele>
        <time>2020-10-17T13:22:02Z</time>
      </trkpt>
      <trkpt lat="39.720106000" lon="-8.495058000">
        <ele>107.000000</ele>
        <time>2020-10-17T13:22:03Z</time>
      </trkpt>
      <trkpt lat="39.720005000" lon="-8.495203000">
        <ele>107.400000</ele>
        <time>2020-10-17T13:22:06Z</time>
      </trkpt>
      <trkpt lat="39.719973000" lon="-8.495246000">
        <ele>107.600000</ele>
        <time>2020-10-17T13:22:07Z</time>
      </trkpt>
      <trkpt lat="39.719938000" lon="-8.495287000">
        <ele>107.600000</ele>
        <time>2020-10-17T13:22:08Z</time>
      </trkpt>
      <trkpt lat="39.719871000" lon="-8.495372000">
        <ele>107.800000</ele>
        <time>2020-10-17T13:22:10Z</time>
      </trkpt>
      <trkpt lat="39.719839000" lon="-8.495414000">
        <ele>108.000000</ele>
        <time>2020-10-17T13:22:11Z</time>
      </trkpt>
      <trkpt lat="39.719709000" lon="-8.495627000">
        <ele>108.600000</ele>
        <time>2020-10-17T13:22:15Z</time>
      </trkpt>
      <trkpt lat="39.719686000" lon="-8.495696000">
        <ele>108.800000</ele>
        <time>2020-10-17T13:22:16Z</time>
      </trkpt>
      <trkpt lat="39.719637000" lon="-8.495930000">
        <ele>108.800000</ele>
        <time>2020-10-17T13:22:19Z</time>
      </trkpt>
      <trkpt lat="39.719614000" lon="-8.496025000">
        <ele>108.800000</ele>
        <time>2020-10-17T13:22:20Z</time>
      </trkpt>
      <trkpt lat="39.719590000" lon="-8.496188000">
        <ele>108.800000</ele>
        <time>2020-10-17T13:22:22Z</time>
      </trkpt>
      <trkpt lat="39.719574000" lon="-8.496272000">
        <ele>108.800000</ele>
        <time>2020-10-17T13:22:23Z</time>
      </trkpt>
      <trkpt lat="39.719559000" lon="-8.496351000">
        <ele>109.000000</ele>
        <time>2020-10-17T13:22:24Z</time>
      </trkpt>
      <trkpt lat="39.719513000" lon="-8.496630000">
        <ele>108.800000</ele>
        <time>2020-10-17T13:22:27Z</time>
      </trkpt>
      <trkpt lat="39.719499000" lon="-8.496807000">
        <ele>108.800000</ele>
        <time>2020-10-17T13:22:29Z</time>
      </trkpt>
      <trkpt lat="39.719497000" lon="-8.496984000">
        <ele>108.400000</ele>
        <time>2020-10-17T13:22:31Z</time>
      </trkpt>
      <trkpt lat="39.719516000" lon="-8.497059000">
        <ele>108.200000</ele>
        <time>2020-10-17T13:22:32Z</time>
      </trkpt>
      <trkpt lat="39.719537000" lon="-8.497138000">
        <ele>108.000000</ele>
        <time>2020-10-17T13:22:33Z</time>
      </trkpt>
      <trkpt lat="39.719560000" lon="-8.497204000">
        <ele>107.800000</ele>
        <time>2020-10-17T13:22:34Z</time>
      </trkpt>
      <trkpt lat="39.719587000" lon="-8.497266000">
        <ele>107.800000</ele>
        <time>2020-10-17T13:22:35Z</time>
      </trkpt>
      <trkpt lat="39.719622000" lon="-8.497316000">
        <ele>107.800000</ele>
        <time>2020-10-17T13:22:36Z</time>
      </trkpt>
      <trkpt lat="39.719644000" lon="-8.497380000">
        <ele>107.800000</ele>
        <time>2020-10-17T13:22:37Z</time>
      </trkpt>
      <trkpt lat="39.719704000" lon="-8.497588000">
        <ele>107.800000</ele>
        <time>2020-10-17T13:22:40Z</time>
      </trkpt>
      <trkpt lat="39.719712000" lon="-8.497661000">
        <ele>107.600000</ele>
        <time>2020-10-17T13:22:41Z</time>
      </trkpt>
      <trkpt lat="39.719711000" lon="-8.497732000">
        <ele>107.800000</ele>
        <time>2020-10-17T13:22:42Z</time>
      </trkpt>
      <trkpt lat="39.719711000" lon="-8.497804000">
        <ele>107.600000</ele>
        <time>2020-10-17T13:22:43Z</time>
      </trkpt>
      <trkpt lat="39.719708000" lon="-8.497885000">
        <ele>107.600000</ele>
        <time>2020-10-17T13:22:44Z</time>
      </trkpt>
      <trkpt lat="39.719695000" lon="-8.498290000">
        <ele>108.000000</ele>
        <time>2020-10-17T13:22:49Z</time>
      </trkpt>
      <trkpt lat="39.719708000" lon="-8.498367000">
        <ele>107.800000</ele>
        <time>2020-10-17T13:22:50Z</time>
      </trkpt>
      <trkpt lat="39.719769000" lon="-8.498592000">
        <ele>108.000000</ele>
        <time>2020-10-17T13:22:53Z</time>
      </trkpt>
      <trkpt lat="39.719787000" lon="-8.498665000">
        <ele>108.000000</ele>
        <time>2020-10-17T13:22:54Z</time>
      </trkpt>
      <trkpt lat="39.719836000" lon="-8.498810000">
        <ele>108.200000</ele>
        <time>2020-10-17T13:22:56Z</time>
      </trkpt>
      <trkpt lat="39.719864000" lon="-8.498879000">
        <ele>108.200000</ele>
        <time>2020-10-17T13:22:57Z</time>
      </trkpt>
      <trkpt lat="39.719894000" lon="-8.498949000">
        <ele>108.200000</ele>
        <time>2020-10-17T13:22:58Z</time>
      </trkpt>
      <trkpt lat="39.719920000" lon="-8.499018000">
        <ele>108.200000</ele>
        <time>2020-10-17T13:22:59Z</time>
      </trkpt>
      <trkpt lat="39.719949000" lon="-8.499084000">
        <ele>108.400000</ele>
        <time>2020-10-17T13:23:00Z</time>
      </trkpt>
      <trkpt lat="39.719992000" lon="-8.499221000">
        <ele>108.400000</ele>
        <time>2020-10-17T13:23:02Z</time>
      </trkpt>
      <trkpt lat="39.720008000" lon="-8.499286000">
        <ele>108.400000</ele>
        <time>2020-10-17T13:23:03Z</time>
      </trkpt>
      <trkpt lat="39.720015000" lon="-8.499357000">
        <ele>108.400000</ele>
        <time>2020-10-17T13:23:04Z</time>
      </trkpt>
      <trkpt lat="39.720029000" lon="-8.499424000">
        <ele>108.400000</ele>
        <time>2020-10-17T13:23:05Z</time>
      </trkpt>
      <trkpt lat="39.720031000" lon="-8.499493000">
        <ele>108.400000</ele>
        <time>2020-10-17T13:23:06Z</time>
      </trkpt>
      <trkpt lat="39.720026000" lon="-8.499561000">
        <ele>108.400000</ele>
        <time>2020-10-17T13:23:07Z</time>
      </trkpt>
      <trkpt lat="39.720011000" lon="-8.499631000">
        <ele>108.400000</ele>
        <time>2020-10-17T13:23:08Z</time>
      </trkpt>
      <trkpt lat="39.719981000" lon="-8.499694000">
        <ele>108.400000</ele>
        <time>2020-10-17T13:23:09Z</time>
      </trkpt>
      <trkpt lat="39.719813000" lon="-8.500058000">
        <ele>108.800000</ele>
        <time>2020-10-17T13:23:15Z</time>
      </trkpt>
      <trkpt lat="39.719798000" lon="-8.500121000">
        <ele>108.600000</ele>
        <time>2020-10-17T13:23:16Z</time>
      </trkpt>
      <trkpt lat="39.719788000" lon="-8.500188000">
        <ele>108.600000</ele>
        <time>2020-10-17T13:23:17Z</time>
      </trkpt>
      <trkpt lat="39.719785000" lon="-8.500253000">
        <ele>108.800000</ele>
        <time>2020-10-17T13:23:18Z</time>
      </trkpt>
      <trkpt lat="39.719794000" lon="-8.500323000">
        <ele>108.800000</ele>
        <time>2020-10-17T13:23:19Z</time>
      </trkpt>
      <trkpt lat="39.719813000" lon="-8.500385000">
        <ele>108.800000</ele>
        <time>2020-10-17T13:23:20Z</time>
      </trkpt>
      <trkpt lat="39.719828000" lon="-8.500448000">
        <ele>108.800000</ele>
        <time>2020-10-17T13:23:21Z</time>
      </trkpt>
      <trkpt lat="39.719845000" lon="-8.500511000">
        <ele>109.000000</ele>
        <time>2020-10-17T13:23:22Z</time>
      </trkpt>
      <trkpt lat="39.719867000" lon="-8.500566000">
        <ele>108.800000</ele>
        <time>2020-10-17T13:23:23Z</time>
      </trkpt>
      <trkpt lat="39.719887000" lon="-8.500616000">
        <ele>109.200000</ele>
        <time>2020-10-17T13:23:24Z</time>
      </trkpt>
      <trkpt lat="39.719909000" lon="-8.500665000">
        <ele>109.200000</ele>
        <time>2020-10-17T13:23:25Z</time>
      </trkpt>
      <trkpt lat="39.719938000" lon="-8.500710000">
        <ele>109.200000</ele>
        <time>2020-10-17T13:23:26Z</time>
      </trkpt>
      <trkpt lat="39.719994000" lon="-8.500793000">
        <ele>109.400000</ele>
        <time>2020-10-17T13:23:28Z</time>
      </trkpt>
      <trkpt lat="39.720041000" lon="-8.500894000">
        <ele>109.400000</ele>
        <time>2020-10-17T13:23:30Z</time>
      </trkpt>
      <trkpt lat="39.720109000" lon="-8.501034000">
        <ele>109.400000</ele>
        <time>2020-10-17T13:23:32Z</time>
      </trkpt>
      <trkpt lat="39.720136000" lon="-8.501101000">
        <ele>109.600000</ele>
        <time>2020-10-17T13:23:33Z</time>
      </trkpt>
      <trkpt lat="39.720161000" lon="-8.501165000">
        <ele>109.400000</ele>
        <time>2020-10-17T13:23:34Z</time>
      </trkpt>
      <trkpt lat="39.720263000" lon="-8.501443000">
        <ele>109.600000</ele>
        <time>2020-10-17T13:23:38Z</time>
      </trkpt>
      <trkpt lat="39.720287000" lon="-8.501503000">
        <ele>109.600000</ele>
        <time>2020-10-17T13:23:39Z</time>
      </trkpt>
      <trkpt lat="39.720302000" lon="-8.501559000">
        <ele>109.600000</ele>
        <time>2020-10-17T13:23:40Z</time>
      </trkpt>
      <trkpt lat="39.720317000" lon="-8.501619000">
        <ele>109.600000</ele>
        <time>2020-10-17T13:23:41Z</time>
      </trkpt>
      <trkpt lat="39.720332000" lon="-8.501677000">
        <ele>109.800000</ele>
        <time>2020-10-17T13:23:42Z</time>
      </trkpt>
      <trkpt lat="39.720342000" lon="-8.501732000">
        <ele>109.800000</ele>
        <time>2020-10-17T13:23:43Z</time>
      </trkpt>
      <trkpt lat="39.720352000" lon="-8.501779000">
        <ele>109.800000</ele>
        <time>2020-10-17T13:23:44Z</time>
      </trkpt>
      <trkpt lat="39.720359000" lon="-8.501820000">
        <ele>109.800000</ele>
        <time>2020-10-17T13:23:45Z</time>
      </trkpt>
      <trkpt lat="39.720364000" lon="-8.501866000">
        <ele>109.800000</ele>
        <time>2020-10-17T13:23:46Z</time>
      </trkpt>
      <trkpt lat="39.720369000" lon="-8.501908000">
        <ele>109.800000</ele>
        <time>2020-10-17T13:23:47Z</time>
      </trkpt>
      <trkpt lat="39.720372000" lon="-8.501953000">
        <ele>110.000000</ele>
        <time>2020-10-17T13:23:48Z</time>
      </trkpt>
      <trkpt lat="39.720371000" lon="-8.501987000">
        <ele>110.000000</ele>
        <time>2020-10-17T13:23:49Z</time>
      </trkpt>
      <trkpt lat="39.720379000" lon="-8.502037000">
        <ele>110.000000</ele>
        <time>2020-10-17T13:23:50Z</time>
      </trkpt>
      <trkpt lat="39.720383000" lon="-8.502085000">
        <ele>110.200000</ele>
        <time>2020-10-17T13:23:51Z</time>
      </trkpt>
      <trkpt lat="39.720387000" lon="-8.502131000">
        <ele>110.400000</ele>
        <time>2020-10-17T13:23:52Z</time>
      </trkpt>
      <trkpt lat="39.720394000" lon="-8.502179000">
        <ele>110.600000</ele>
        <time>2020-10-17T13:23:53Z</time>
      </trkpt>
      <trkpt lat="39.720400000" lon="-8.502230000">
        <ele>111.000000</ele>
        <time>2020-10-17T13:23:54Z</time>
      </trkpt>
      <trkpt lat="39.720404000" lon="-8.502299000">
        <ele>111.400000</ele>
        <time>2020-10-17T13:23:55Z</time>
      </trkpt>
      <trkpt lat="39.720412000" lon="-8.502363000">
        <ele>111.800000</ele>
        <time>2020-10-17T13:23:56Z</time>
      </trkpt>
      <trkpt lat="39.720430000" lon="-8.502422000">
        <ele>112.200000</ele>
        <time>2020-10-17T13:23:57Z</time>
      </trkpt>
      <trkpt lat="39.720464000" lon="-8.502465000">
        <ele>112.400000</ele>
        <time>2020-10-17T13:23:58Z</time>
      </trkpt>
      <trkpt lat="39.720498000" lon="-8.502509000">
        <ele>112.800000</ele>
        <time>2020-10-17T13:23:59Z</time>
      </trkpt>
      <trkpt lat="39.720524000" lon="-8.502542000">
        <ele>112.800000</ele>
        <time>2020-10-17T13:24:00Z</time>
      </trkpt>
      <trkpt lat="39.720567000" lon="-8.502590000">
        <ele>112.800000</ele>
        <time>2020-10-17T13:24:01Z</time>
      </trkpt>
      <trkpt lat="39.720615000" lon="-8.502643000">
        <ele>112.800000</ele>
        <time>2020-10-17T13:24:02Z</time>
      </trkpt>
      <trkpt lat="39.720660000" lon="-8.502695000">
        <ele>112.800000</ele>
        <time>2020-10-17T13:24:03Z</time>
      </trkpt>
      <trkpt lat="39.720711000" lon="-8.502749000">
        <ele>113.000000</ele>
        <time>2020-10-17T13:24:04Z</time>
      </trkpt>
      <trkpt lat="39.720766000" lon="-8.502808000">
        <ele>113.000000</ele>
        <time>2020-10-17T13:24:05Z</time>
      </trkpt>
      <trkpt lat="39.720839000" lon="-8.502914000">
        <ele>113.000000</ele>
        <time>2020-10-17T13:24:07Z</time>
      </trkpt>
      <trkpt lat="39.720882000" lon="-8.502961000">
        <ele>112.800000</ele>
        <time>2020-10-17T13:24:08Z</time>
      </trkpt>
      <trkpt lat="39.720922000" lon="-8.503000000">
        <ele>112.800000</ele>
        <time>2020-10-17T13:24:09Z</time>
      </trkpt>
      <trkpt lat="39.720962000" lon="-8.503036000">
        <ele>112.800000</ele>
        <time>2020-10-17T13:24:10Z</time>
      </trkpt>
      <trkpt lat="39.721001000" lon="-8.503071000">
        <ele>112.800000</ele>
        <time>2020-10-17T13:24:11Z</time>
      </trkpt>
      <trkpt lat="39.721025000" lon="-8.503088000">
        <ele>112.800000</ele>
        <time>2020-10-17T13:24:12Z</time>
      </trkpt>
      <trkpt lat="39.721047000" lon="-8.503101000">
        <ele>112.600000</ele>
        <time>2020-10-17T13:24:13Z</time>
      </trkpt>
      <trkpt lat="39.721072000" lon="-8.503129000">
        <ele>112.600000</ele>
        <time>2020-10-17T13:24:14Z</time>
      </trkpt>
      <trkpt lat="39.721094000" lon="-8.503157000">
        <ele>112.800000</ele>
        <time>2020-10-17T13:24:15Z</time>
      </trkpt>
      <trkpt lat="39.721123000" lon="-8.503178000">
        <ele>112.600000</ele>
        <time>2020-10-17T13:24:16Z</time>
      </trkpt>
      <trkpt lat="39.721164000" lon="-8.503253000">
        <ele>112.800000</ele>
        <time>2020-10-17T13:24:17Z</time>
      </trkpt>
      <trkpt lat="39.721185000" lon="-8.503293000">
        <ele>112.600000</ele>
        <time>2020-10-17T13:24:18Z</time>
      </trkpt>
      <trkpt lat="39.721200000" lon="-8.503338000">
        <ele>112.800000</ele>
        <time>2020-10-17T13:24:19Z</time>
      </trkpt>
      <trkpt lat="39.721215000" lon="-8.503383000">
        <ele>112.800000</ele>
        <time>2020-10-17T13:24:20Z</time>
      </trkpt>
      <trkpt lat="39.721228000" lon="-8.503424000">
        <ele>113.000000</ele>
        <time>2020-10-17T13:24:21Z</time>
      </trkpt>
      <trkpt lat="39.721234000" lon="-8.503470000">
        <ele>113.200000</ele>
        <time>2020-10-17T13:24:22Z</time>
      </trkpt>
      <trkpt lat="39.721238000" lon="-8.503513000">
        <ele>113.600000</ele>
        <time>2020-10-17T13:24:23Z</time>
      </trkpt>
      <trkpt lat="39.721245000" lon="-8.503556000">
        <ele>113.600000</ele>
        <time>2020-10-17T13:24:24Z</time>
      </trkpt>
      <trkpt lat="39.721247000" lon="-8.503597000">
        <ele>114.000000</ele>
        <time>2020-10-17T13:24:25Z</time>
      </trkpt>
      <trkpt lat="39.721251000" lon="-8.503641000">
        <ele>114.200000</ele>
        <time>2020-10-17T13:24:26Z</time>
      </trkpt>
      <trkpt lat="39.721260000" lon="-8.503696000">
        <ele>114.400000</ele>
        <time>2020-10-17T13:24:27Z</time>
      </trkpt>
      <trkpt lat="39.721266000" lon="-8.503739000">
        <ele>115.000000</ele>
        <time>2020-10-17T13:24:28Z</time>
      </trkpt>
      <trkpt lat="39.721266000" lon="-8.503788000">
        <ele>115.000000</ele>
        <time>2020-10-17T13:24:29Z</time>
      </trkpt>
      <trkpt lat="39.721262000" lon="-8.503834000">
        <ele>115.200000</ele>
        <time>2020-10-17T13:24:30Z</time>
      </trkpt>
      <trkpt lat="39.721266000" lon="-8.503870000">
        <ele>115.400000</ele>
        <time>2020-10-17T13:24:31Z</time>
      </trkpt>
      <trkpt lat="39.721268000" lon="-8.503903000">
        <ele>115.600000</ele>
        <time>2020-10-17T13:24:32Z</time>
      </trkpt>
      <trkpt lat="39.721268000" lon="-8.503939000">
        <ele>115.800000</ele>
        <time>2020-10-17T13:24:33Z</time>
      </trkpt>
      <trkpt lat="39.721273000" lon="-8.503980000">
        <ele>116.000000</ele>
        <time>2020-10-17T13:24:34Z</time>
      </trkpt>
      <trkpt lat="39.721285000" lon="-8.504023000">
        <ele>116.200000</ele>
        <time>2020-10-17T13:24:35Z</time>
      </trkpt>
      <trkpt lat="39.721301000" lon="-8.504074000">
        <ele>116.600000</ele>
        <time>2020-10-17T13:24:36Z</time>
      </trkpt>
      <trkpt lat="39.721315000" lon="-8.504122000">
        <ele>116.800000</ele>
        <time>2020-10-17T13:24:37Z</time>
      </trkpt>
      <trkpt lat="39.721336000" lon="-8.504171000">
        <ele>117.200000</ele>
        <time>2020-10-17T13:24:38Z</time>
      </trkpt>
      <trkpt lat="39.721368000" lon="-8.504234000">
        <ele>117.400000</ele>
        <time>2020-10-17T13:24:39Z</time>
      </trkpt>
      <trkpt lat="39.721397000" lon="-8.504292000">
        <ele>117.600000</ele>
        <time>2020-10-17T13:24:40Z</time>
      </trkpt>
      <trkpt lat="39.721427000" lon="-8.504350000">
        <ele>118.000000</ele>
        <time>2020-10-17T13:24:41Z</time>
      </trkpt>
      <trkpt lat="39.721452000" lon="-8.504414000">
        <ele>118.000000</ele>
        <time>2020-10-17T13:24:42Z</time>
      </trkpt>
      <trkpt lat="39.721466000" lon="-8.504467000">
        <ele>118.400000</ele>
        <time>2020-10-17T13:24:43Z</time>
      </trkpt>
      <trkpt lat="39.721478000" lon="-8.504525000">
        <ele>118.400000</ele>
        <time>2020-10-17T13:24:44Z</time>
      </trkpt>
      <trkpt lat="39.721476000" lon="-8.504588000">
        <ele>118.400000</ele>
        <time>2020-10-17T13:24:45Z</time>
      </trkpt>
      <trkpt lat="39.721475000" lon="-8.504642000">
        <ele>118.400000</ele>
        <time>2020-10-17T13:24:46Z</time>
      </trkpt>
      <trkpt lat="39.721468000" lon="-8.504705000">
        <ele>118.600000</ele>
        <time>2020-10-17T13:24:47Z</time>
      </trkpt>
      <trkpt lat="39.721457000" lon="-8.504768000">
        <ele>118.600000</ele>
        <time>2020-10-17T13:24:48Z</time>
      </trkpt>
      <trkpt lat="39.721456000" lon="-8.504821000">
        <ele>118.600000</ele>
        <time>2020-10-17T13:24:49Z</time>
      </trkpt>
      <trkpt lat="39.721467000" lon="-8.504858000">
        <ele>118.600000</ele>
        <time>2020-10-17T13:24:50Z</time>
      </trkpt>
      <trkpt lat="39.721467000" lon="-8.504910000">
        <ele>118.600000</ele>
        <time>2020-10-17T13:24:51Z</time>
      </trkpt>
      <trkpt lat="39.721479000" lon="-8.504959000">
        <ele>118.600000</ele>
        <time>2020-10-17T13:24:52Z</time>
      </trkpt>
      <trkpt lat="39.721486000" lon="-8.505004000">
        <ele>118.800000</ele>
        <time>2020-10-17T13:24:53Z</time>
      </trkpt>
      <trkpt lat="39.721487000" lon="-8.505051000">
        <ele>118.800000</ele>
        <time>2020-10-17T13:24:54Z</time>
      </trkpt>
      <trkpt lat="39.721482000" lon="-8.505101000">
        <ele>118.800000</ele>
        <time>2020-10-17T13:24:55Z</time>
      </trkpt>
      <trkpt lat="39.721474000" lon="-8.505203000">
        <ele>118.800000</ele>
        <time>2020-10-17T13:24:57Z</time>
      </trkpt>
      <trkpt lat="39.721469000" lon="-8.505248000">
        <ele>119.000000</ele>
        <time>2020-10-17T13:24:58Z</time>
      </trkpt>
      <trkpt lat="39.721477000" lon="-8.505303000">
        <ele>119.000000</ele>
        <time>2020-10-17T13:24:59Z</time>
      </trkpt>
      <trkpt lat="39.721484000" lon="-8.505354000">
        <ele>119.200000</ele>
        <time>2020-10-17T13:25:00Z</time>
      </trkpt>
      <trkpt lat="39.721490000" lon="-8.505414000">
        <ele>119.200000</ele>
        <time>2020-10-17T13:25:01Z</time>
      </trkpt>
      <trkpt lat="39.721494000" lon="-8.505472000">
        <ele>119.200000</ele>
        <time>2020-10-17T13:25:02Z</time>
      </trkpt>
      <trkpt lat="39.721495000" lon="-8.505518000">
        <ele>119.600000</ele>
        <time>2020-10-17T13:25:03Z</time>
      </trkpt>
      <trkpt lat="39.721495000" lon="-8.505558000">
        <ele>119.800000</ele>
        <time>2020-10-17T13:25:04Z</time>
      </trkpt>
      <trkpt lat="39.721487000" lon="-8.505601000">
        <ele>120.200000</ele>
        <time>2020-10-17T13:25:05Z</time>
      </trkpt>
      <trkpt lat="39.721475000" lon="-8.505662000">
        <ele>120.400000</ele>
        <time>2020-10-17T13:25:06Z</time>
      </trkpt>
      <trkpt lat="39.721457000" lon="-8.505733000">
        <ele>120.600000</ele>
        <time>2020-10-17T13:25:07Z</time>
      </trkpt>
      <trkpt lat="39.721437000" lon="-8.505807000">
        <ele>120.600000</ele>
        <time>2020-10-17T13:25:08Z</time>
      </trkpt>
      <trkpt lat="39.721414000" lon="-8.505883000">
        <ele>120.400000</ele>
        <time>2020-10-17T13:25:09Z</time>
      </trkpt>
      <trkpt lat="39.721391000" lon="-8.505946000">
        <ele>120.600000</ele>
        <time>2020-10-17T13:25:10Z</time>
      </trkpt>
      <trkpt lat="39.721347000" lon="-8.506067000">
        <ele>120.400000</ele>
        <time>2020-10-17T13:25:12Z</time>
      </trkpt>
      <trkpt lat="39.721323000" lon="-8.506121000">
        <ele>120.600000</ele>
        <time>2020-10-17T13:25:13Z</time>
      </trkpt>
      <trkpt lat="39.721287000" lon="-8.506171000">
        <ele>120.600000</ele>
        <time>2020-10-17T13:25:14Z</time>
      </trkpt>
      <trkpt lat="39.721258000" lon="-8.506226000">
        <ele>120.600000</ele>
        <time>2020-10-17T13:25:15Z</time>
      </trkpt>
      <trkpt lat="39.721219000" lon="-8.506281000">
        <ele>120.600000</ele>
        <time>2020-10-17T13:25:16Z</time>
      </trkpt>
      <trkpt lat="39.721132000" lon="-8.506362000">
        <ele>120.600000</ele>
        <time>2020-10-17T13:25:18Z</time>
      </trkpt>
      <trkpt lat="39.720963000" lon="-8.506510000">
        <ele>120.600000</ele>
        <time>2020-10-17T13:25:22Z</time>
      </trkpt>
      <trkpt lat="39.720913000" lon="-8.506547000">
        <ele>120.600000</ele>
        <time>2020-10-17T13:25:23Z</time>
      </trkpt>
      <trkpt lat="39.720868000" lon="-8.506581000">
        <ele>120.600000</ele>
        <time>2020-10-17T13:25:24Z</time>
      </trkpt>
      <trkpt lat="39.720827000" lon="-8.506610000">
        <ele>120.800000</ele>
        <time>2020-10-17T13:25:25Z</time>
      </trkpt>
      <trkpt lat="39.720794000" lon="-8.506631000">
        <ele>120.600000</ele>
        <time>2020-10-17T13:25:26Z</time>
      </trkpt>
      <trkpt lat="39.720763000" lon="-8.506651000">
        <ele>120.600000</ele>
        <time>2020-10-17T13:25:27Z</time>
      </trkpt>
      <trkpt lat="39.720731000" lon="-8.506666000">
        <ele>120.600000</ele>
        <time>2020-10-17T13:25:28Z</time>
      </trkpt>
      <trkpt lat="39.720695000" lon="-8.506687000">
        <ele>120.800000</ele>
        <time>2020-10-17T13:25:29Z</time>
      </trkpt>
      <trkpt lat="39.720670000" lon="-8.506717000">
        <ele>121.000000</ele>
        <time>2020-10-17T13:25:30Z</time>
      </trkpt>
      <trkpt lat="39.720650000" lon="-8.506768000">
        <ele>121.200000</ele>
        <time>2020-10-17T13:25:31Z</time>
      </trkpt>
      <trkpt lat="39.720643000" lon="-8.506818000">
        <ele>121.200000</ele>
        <time>2020-10-17T13:25:32Z</time>
      </trkpt>
      <trkpt lat="39.720651000" lon="-8.506875000">
        <ele>121.200000</ele>
        <time>2020-10-17T13:25:33Z</time>
      </trkpt>
      <trkpt lat="39.720662000" lon="-8.506946000">
        <ele>121.600000</ele>
        <time>2020-10-17T13:25:34Z</time>
      </trkpt>
      <trkpt lat="39.720680000" lon="-8.507019000">
        <ele>121.600000</ele>
        <time>2020-10-17T13:25:35Z</time>
      </trkpt>
      <trkpt lat="39.720694000" lon="-8.507101000">
        <ele>121.600000</ele>
        <time>2020-10-17T13:25:36Z</time>
      </trkpt>
      <trkpt lat="39.720725000" lon="-8.507372000">
        <ele>121.800000</ele>
        <time>2020-10-17T13:25:39Z</time>
      </trkpt>
      <trkpt lat="39.720807000" lon="-8.507613000">
        <ele>121.600000</ele>
        <time>2020-10-17T13:25:42Z</time>
      </trkpt>
      <trkpt lat="39.720863000" lon="-8.507769000">
        <ele>121.800000</ele>
        <time>2020-10-17T13:25:44Z</time>
      </trkpt>
      <trkpt lat="39.720887000" lon="-8.507845000">
        <ele>121.600000</ele>
        <time>2020-10-17T13:25:45Z</time>
      </trkpt>
      <trkpt lat="39.720913000" lon="-8.507918000">
        <ele>121.400000</ele>
        <time>2020-10-17T13:25:46Z</time>
      </trkpt>
      <trkpt lat="39.720934000" lon="-8.507992000">
        <ele>121.200000</ele>
        <time>2020-10-17T13:25:47Z</time>
      </trkpt>
      <trkpt lat="39.720959000" lon="-8.508060000">
        <ele>121.000000</ele>
        <time>2020-10-17T13:25:48Z</time>
      </trkpt>
      <trkpt lat="39.721021000" lon="-8.508298000">
        <ele>120.800000</ele>
        <time>2020-10-17T13:25:51Z</time>
      </trkpt>
      <trkpt lat="39.721107000" lon="-8.508622000">
        <ele>119.800000</ele>
        <time>2020-10-17T13:25:55Z</time>
      </trkpt>
      <trkpt lat="39.721115000" lon="-8.508707000">
        <ele>119.600000</ele>
        <time>2020-10-17T13:25:56Z</time>
      </trkpt>
      <trkpt lat="39.721116000" lon="-8.508785000">
        <ele>119.800000</ele>
        <time>2020-10-17T13:25:57Z</time>
      </trkpt>
      <trkpt lat="39.721118000" lon="-8.508852000">
        <ele>119.800000</ele>
        <time>2020-10-17T13:25:58Z</time>
      </trkpt>
      <trkpt lat="39.721122000" lon="-8.508918000">
        <ele>119.600000</ele>
        <time>2020-10-17T13:25:59Z</time>
      </trkpt>
      <trkpt lat="39.721108000" lon="-8.509165000">
        <ele>119.400000</ele>
        <time>2020-10-17T13:26:02Z</time>
      </trkpt>
      <trkpt lat="39.721104000" lon="-8.509249000">
        <ele>119.200000</ele>
        <time>2020-10-17T13:26:03Z</time>
      </trkpt>
      <trkpt lat="39.721015000" lon="-8.509774000">
        <ele>118.800000</ele>
        <time>2020-10-17T13:26:09Z</time>
      </trkpt>
      <trkpt lat="39.720993000" lon="-8.509852000">
        <ele>118.800000</ele>
        <time>2020-10-17T13:26:10Z</time>
      </trkpt>
      <trkpt lat="39.720971000" lon="-8.509924000">
        <ele>118.800000</ele>
        <time>2020-10-17T13:26:11Z</time>
      </trkpt>
      <trkpt lat="39.720965000" lon="-8.509996000">
        <ele>118.800000</ele>
        <time>2020-10-17T13:26:12Z</time>
      </trkpt>
      <trkpt lat="39.720957000" lon="-8.510065000">
        <ele>118.800000</ele>
        <time>2020-10-17T13:26:13Z</time>
      </trkpt>
      <trkpt lat="39.720948000" lon="-8.510137000">
        <ele>118.600000</ele>
        <time>2020-10-17T13:26:14Z</time>
      </trkpt>
      <trkpt lat="39.720936000" lon="-8.510206000">
        <ele>118.600000</ele>
        <time>2020-10-17T13:26:15Z</time>
      </trkpt>
      <trkpt lat="39.720918000" lon="-8.510274000">
        <ele>118.600000</ele>
        <time>2020-10-17T13:26:16Z</time>
      </trkpt>
      <trkpt lat="39.720871000" lon="-8.510418000">
        <ele>118.600000</ele>
        <time>2020-10-17T13:26:18Z</time>
      </trkpt>
      <trkpt lat="39.720835000" lon="-8.510479000">
        <ele>118.800000</ele>
        <time>2020-10-17T13:26:19Z</time>
      </trkpt>
      <trkpt lat="39.720795000" lon="-8.510530000">
        <ele>118.800000</ele>
        <time>2020-10-17T13:26:20Z</time>
      </trkpt>
      <trkpt lat="39.720749000" lon="-8.510555000">
        <ele>118.800000</ele>
        <time>2020-10-17T13:26:21Z</time>
      </trkpt>
      <trkpt lat="39.720692000" lon="-8.510562000">
        <ele>118.800000</ele>
        <time>2020-10-17T13:26:22Z</time>
      </trkpt>
      <trkpt lat="39.720632000" lon="-8.510576000">
        <ele>119.000000</ele>
        <time>2020-10-17T13:26:23Z</time>
      </trkpt>
      <trkpt lat="39.720569000" lon="-8.510589000">
        <ele>119.200000</ele>
        <time>2020-10-17T13:26:24Z</time>
      </trkpt>
      <trkpt lat="39.720504000" lon="-8.510591000">
        <ele>119.200000</ele>
        <time>2020-10-17T13:26:25Z</time>
      </trkpt>
      <trkpt lat="39.720390000" lon="-8.510585000">
        <ele>119.400000</ele>
        <time>2020-10-17T13:26:27Z</time>
      </trkpt>
      <trkpt lat="39.720333000" lon="-8.510585000">
        <ele>119.600000</ele>
        <time>2020-10-17T13:26:28Z</time>
      </trkpt>
      <trkpt lat="39.720262000" lon="-8.510602000">
        <ele>119.600000</ele>
        <time>2020-10-17T13:26:29Z</time>
      </trkpt>
      <trkpt lat="39.720085000" lon="-8.510656000">
        <ele>119.600000</ele>
        <time>2020-10-17T13:26:32Z</time>
      </trkpt>
      <trkpt lat="39.720032000" lon="-8.510670000">
        <ele>119.600000</ele>
        <time>2020-10-17T13:26:33Z</time>
      </trkpt>
      <trkpt lat="39.719980000" lon="-8.510694000">
        <ele>119.800000</ele>
        <time>2020-10-17T13:26:34Z</time>
      </trkpt>
      <trkpt lat="39.719882000" lon="-8.510740000">
        <ele>119.800000</ele>
        <time>2020-10-17T13:26:36Z</time>
      </trkpt>
      <trkpt lat="39.719837000" lon="-8.510764000">
        <ele>119.800000</ele>
        <time>2020-10-17T13:26:37Z</time>
      </trkpt>
      <trkpt lat="39.719786000" lon="-8.510781000">
        <ele>119.800000</ele>
        <time>2020-10-17T13:26:38Z</time>
      </trkpt>
      <trkpt lat="39.719680000" lon="-8.510804000">
        <ele>120.000000</ele>
        <time>2020-10-17T13:26:40Z</time>
      </trkpt>
      <trkpt lat="39.719503000" lon="-8.510860000">
        <ele>120.600000</ele>
        <time>2020-10-17T13:26:43Z</time>
      </trkpt>
      <trkpt lat="39.719402000" lon="-8.510891000">
        <ele>121.000000</ele>
        <time>2020-10-17T13:26:45Z</time>
      </trkpt>
      <trkpt lat="39.719352000" lon="-8.510890000">
        <ele>121.200000</ele>
        <time>2020-10-17T13:26:46Z</time>
      </trkpt>
      <trkpt lat="39.719311000" lon="-8.510869000">
        <ele>121.200000</ele>
        <time>2020-10-17T13:26:47Z</time>
      </trkpt>
      <trkpt lat="39.719272000" lon="-8.510846000">
        <ele>121.200000</ele>
        <time>2020-10-17T13:26:48Z</time>
      </trkpt>
      <trkpt lat="39.719236000" lon="-8.510825000">
        <ele>121.200000</ele>
        <time>2020-10-17T13:26:49Z</time>
      </trkpt>
      <trkpt lat="39.719211000" lon="-8.510795000">
        <ele>121.200000</ele>
        <time>2020-10-17T13:26:50Z</time>
      </trkpt>
      <trkpt lat="39.719186000" lon="-8.510768000">
        <ele>121.400000</ele>
        <time>2020-10-17T13:26:51Z</time>
      </trkpt>
      <trkpt lat="39.719159000" lon="-8.510747000">
        <ele>121.400000</ele>
        <time>2020-10-17T13:26:52Z</time>
      </trkpt>
      <trkpt lat="39.719130000" lon="-8.510728000">
        <ele>121.400000</ele>
        <time>2020-10-17T13:26:53Z</time>
      </trkpt>
      <trkpt lat="39.719098000" lon="-8.510702000">
        <ele>121.400000</ele>
        <time>2020-10-17T13:26:54Z</time>
      </trkpt>
      <trkpt lat="39.719071000" lon="-8.510674000">
        <ele>121.400000</ele>
        <time>2020-10-17T13:26:55Z</time>
      </trkpt>
      <trkpt lat="39.719055000" lon="-8.510647000">
        <ele>121.600000</ele>
        <time>2020-10-17T13:26:56Z</time>
      </trkpt>
      <trkpt lat="39.719036000" lon="-8.510628000">
        <ele>121.400000</ele>
        <time>2020-10-17T13:26:57Z</time>
      </trkpt>
      <trkpt lat="39.719014000" lon="-8.510609000">
        <ele>121.600000</ele>
        <time>2020-10-17T13:26:58Z</time>
      </trkpt>
      <trkpt lat="39.718987000" lon="-8.510583000">
        <ele>121.600000</ele>
        <time>2020-10-17T13:26:59Z</time>
      </trkpt>
      <trkpt lat="39.718959000" lon="-8.510561000">
        <ele>121.800000</ele>
        <time>2020-10-17T13:27:00Z</time>
      </trkpt>
      <trkpt lat="39.718935000" lon="-8.510552000">
        <ele>122.000000</ele>
        <time>2020-10-17T13:27:01Z</time>
      </trkpt>
      <trkpt lat="39.718910000" lon="-8.510531000">
        <ele>122.200000</ele>
        <time>2020-10-17T13:27:02Z</time>
      </trkpt>
      <trkpt lat="39.718885000" lon="-8.510513000">
        <ele>122.800000</ele>
        <time>2020-10-17T13:27:03Z</time>
      </trkpt>
      <trkpt lat="39.718861000" lon="-8.510503000">
        <ele>123.000000</ele>
        <time>2020-10-17T13:27:04Z</time>
      </trkpt>
      <trkpt lat="39.718836000" lon="-8.510488000">
        <ele>123.400000</ele>
        <time>2020-10-17T13:27:05Z</time>
      </trkpt>
      <trkpt lat="39.718815000" lon="-8.510475000">
        <ele>123.800000</ele>
        <time>2020-10-17T13:27:06Z</time>
      </trkpt>
      <trkpt lat="39.718789000" lon="-8.510481000">
        <ele>124.000000</ele>
        <time>2020-10-17T13:27:07Z</time>
      </trkpt>
      <trkpt lat="39.718768000" lon="-8.510490000">
        <ele>124.400000</ele>
        <time>2020-10-17T13:27:08Z</time>
      </trkpt>
      <trkpt lat="39.718740000" lon="-8.510505000">
        <ele>124.800000</ele>
        <time>2020-10-17T13:27:09Z</time>
      </trkpt>
      <trkpt lat="39.718710000" lon="-8.510516000">
        <ele>125.200000</ele>
        <time>2020-10-17T13:27:10Z</time>
      </trkpt>
      <trkpt lat="39.718673000" lon="-8.510538000">
        <ele>125.400000</ele>
        <time>2020-10-17T13:27:11Z</time>
      </trkpt>
      <trkpt lat="39.718645000" lon="-8.510561000">
        <ele>125.800000</ele>
        <time>2020-10-17T13:27:12Z</time>
      </trkpt>
      <trkpt lat="39.718608000" lon="-8.510587000">
        <ele>126.200000</ele>
        <time>2020-10-17T13:27:13Z</time>
      </trkpt>
      <trkpt lat="39.718566000" lon="-8.510611000">
        <ele>126.200000</ele>
        <time>2020-10-17T13:27:14Z</time>
      </trkpt>
      <trkpt lat="39.718517000" lon="-8.510629000">
        <ele>126.400000</ele>
        <time>2020-10-17T13:27:15Z</time>
      </trkpt>
      <trkpt lat="39.718463000" lon="-8.510658000">
        <ele>126.400000</ele>
        <time>2020-10-17T13:27:16Z</time>
      </trkpt>
      <trkpt lat="39.718403000" lon="-8.510685000">
        <ele>126.400000</ele>
        <time>2020-10-17T13:27:17Z</time>
      </trkpt>
      <trkpt lat="39.718360000" lon="-8.510720000">
        <ele>126.400000</ele>
        <time>2020-10-17T13:27:18Z</time>
      </trkpt>
      <trkpt lat="39.718312000" lon="-8.510747000">
        <ele>126.400000</ele>
        <time>2020-10-17T13:27:19Z</time>
      </trkpt>
      <trkpt lat="39.718268000" lon="-8.510772000">
        <ele>126.400000</ele>
        <time>2020-10-17T13:27:20Z</time>
      </trkpt>
      <trkpt lat="39.718236000" lon="-8.510786000">
        <ele>126.400000</ele>
        <time>2020-10-17T13:27:21Z</time>
      </trkpt>
      <trkpt lat="39.718196000" lon="-8.510808000">
        <ele>126.600000</ele>
        <time>2020-10-17T13:27:22Z</time>
      </trkpt>
      <trkpt lat="39.718150000" lon="-8.510836000">
        <ele>126.600000</ele>
        <time>2020-10-17T13:27:23Z</time>
      </trkpt>
      <trkpt lat="39.718116000" lon="-8.510851000">
        <ele>126.600000</ele>
        <time>2020-10-17T13:27:24Z</time>
      </trkpt>
      <trkpt lat="39.718075000" lon="-8.510864000">
        <ele>126.600000</ele>
        <time>2020-10-17T13:27:25Z</time>
      </trkpt>
      <trkpt lat="39.718045000" lon="-8.510873000">
        <ele>126.600000</ele>
        <time>2020-10-17T13:27:26Z</time>
      </trkpt>
      <trkpt lat="39.718036000" lon="-8.510869000">
        <ele>126.600000</ele>
        <time>2020-10-17T13:27:27Z</time>
      </trkpt>
      <trkpt lat="39.718008000" lon="-8.510892000">
        <ele>126.800000</ele>
        <time>2020-10-17T13:27:28Z</time>
      </trkpt>
      <trkpt lat="39.717984000" lon="-8.510912000">
        <ele>126.600000</ele>
        <time>2020-10-17T13:27:29Z</time>
      </trkpt>
      <trkpt lat="39.717963000" lon="-8.510927000">
        <ele>126.600000</ele>
        <time>2020-10-17T13:27:30Z</time>
      </trkpt>
      <trkpt lat="39.717945000" lon="-8.510933000">
        <ele>126.600000</ele>
        <time>2020-10-17T13:27:31Z</time>
      </trkpt>
      <trkpt lat="39.717928000" lon="-8.510938000">
        <ele>126.600000</ele>
        <time>2020-10-17T13:27:32Z</time>
      </trkpt>
      <trkpt lat="39.717863000" lon="-8.510970000">
        <ele>126.800000</ele>
        <time>2020-10-17T13:27:34Z</time>
      </trkpt>
      <trkpt lat="39.717827000" lon="-8.510976000">
        <ele>127.000000</ele>
        <time>2020-10-17T13:27:35Z</time>
      </trkpt>
      <trkpt lat="39.717788000" lon="-8.510989000">
        <ele>127.200000</ele>
        <time>2020-10-17T13:27:36Z</time>
      </trkpt>
      <trkpt lat="39.717728000" lon="-8.511036000">
        <ele>127.200000</ele>
        <time>2020-10-17T13:27:37Z</time>
      </trkpt>
      <trkpt lat="39.717691000" lon="-8.511048000">
        <ele>127.400000</ele>
        <time>2020-10-17T13:27:38Z</time>
      </trkpt>
      <trkpt lat="39.717681000" lon="-8.511039000">
        <ele>127.400000</ele>
        <time>2020-10-17T13:27:39Z</time>
      </trkpt>
      <trkpt lat="39.717645000" lon="-8.511059000">
        <ele>127.600000</ele>
        <time>2020-10-17T13:27:40Z</time>
      </trkpt>
      <trkpt lat="39.717625000" lon="-8.511064000">
        <ele>127.800000</ele>
        <time>2020-10-17T13:27:41Z</time>
      </trkpt>
      <trkpt lat="39.717603000" lon="-8.511059000">
        <ele>127.800000</ele>
        <time>2020-10-17T13:27:42Z</time>
      </trkpt>
      <trkpt lat="39.717574000" lon="-8.511062000">
        <ele>128.000000</ele>
        <time>2020-10-17T13:27:43Z</time>
      </trkpt>
      <trkpt lat="39.717551000" lon="-8.511063000">
        <ele>128.200000</ele>
        <time>2020-10-17T13:27:44Z</time>
      </trkpt>
      <trkpt lat="39.717531000" lon="-8.511060000">
        <ele>128.200000</ele>
        <time>2020-10-17T13:27:45Z</time>
      </trkpt>
      <trkpt lat="39.717504000" lon="-8.511054000">
        <ele>128.600000</ele>
        <time>2020-10-17T13:27:46Z</time>
      </trkpt>
      <trkpt lat="39.717486000" lon="-8.511056000">
        <ele>128.800000</ele>
        <time>2020-10-17T13:27:47Z</time>
      </trkpt>
      <trkpt lat="39.717470000" lon="-8.511054000">
        <ele>129.400000</ele>
        <time>2020-10-17T13:27:48Z</time>
      </trkpt>
      <trkpt lat="39.717453000" lon="-8.511051000">
        <ele>129.600000</ele>
        <time>2020-10-17T13:27:49Z</time>
      </trkpt>
      <trkpt lat="39.717438000" lon="-8.511049000">
        <ele>130.000000</ele>
        <time>2020-10-17T13:27:50Z</time>
      </trkpt>
      <trkpt lat="39.717419000" lon="-8.511049000">
        <ele>130.200000</ele>
        <time>2020-10-17T13:27:51Z</time>
      </trkpt>
      <trkpt lat="39.717396000" lon="-8.511050000">
        <ele>130.600000</ele>
        <time>2020-10-17T13:27:52Z</time>
      </trkpt>
      <trkpt lat="39.717361000" lon="-8.511042000">
        <ele>130.800000</ele>
        <time>2020-10-17T13:27:53Z</time>
      </trkpt>
      <trkpt lat="39.717312000" lon="-8.511023000">
        <ele>131.000000</ele>
        <time>2020-10-17T13:27:54Z</time>
      </trkpt>
      <trkpt lat="39.717250000" lon="-8.510993000">
        <ele>131.200000</ele>
        <time>2020-10-17T13:27:55Z</time>
      </trkpt>
      <trkpt lat="39.717179000" lon="-8.510974000">
        <ele>131.400000</ele>
        <time>2020-10-17T13:27:56Z</time>
      </trkpt>
      <trkpt lat="39.717099000" lon="-8.510954000">
        <ele>131.400000</ele>
        <time>2020-10-17T13:27:57Z</time>
      </trkpt>
      <trkpt lat="39.717039000" lon="-8.510942000">
        <ele>131.400000</ele>
        <time>2020-10-17T13:27:58Z</time>
      </trkpt>
      <trkpt lat="39.716967000" lon="-8.510957000">
        <ele>131.400000</ele>
        <time>2020-10-17T13:27:59Z</time>
      </trkpt>
      <trkpt lat="39.716908000" lon="-8.510982000">
        <ele>131.400000</ele>
        <time>2020-10-17T13:28:00Z</time>
      </trkpt>
      <trkpt lat="39.716861000" lon="-8.511014000">
        <ele>131.600000</ele>
        <time>2020-10-17T13:28:01Z</time>
      </trkpt>
      <trkpt lat="39.716822000" lon="-8.511061000">
        <ele>131.400000</ele>
        <time>2020-10-17T13:28:02Z</time>
      </trkpt>
      <trkpt lat="39.716789000" lon="-8.511119000">
        <ele>131.400000</ele>
        <time>2020-10-17T13:28:03Z</time>
      </trkpt>
      <trkpt lat="39.716769000" lon="-8.511180000">
        <ele>131.400000</ele>
        <time>2020-10-17T13:28:04Z</time>
      </trkpt>
      <trkpt lat="39.716758000" lon="-8.511255000">
        <ele>131.000000</ele>
        <time>2020-10-17T13:28:05Z</time>
      </trkpt>
      <trkpt lat="39.716761000" lon="-8.511299000">
        <ele>130.800000</ele>
        <time>2020-10-17T13:28:06Z</time>
      </trkpt>
      <trkpt lat="39.716770000" lon="-8.511347000">
        <ele>130.600000</ele>
        <time>2020-10-17T13:28:07Z</time>
      </trkpt>
      <trkpt lat="39.716778000" lon="-8.511395000">
        <ele>130.400000</ele>
        <time>2020-10-17T13:28:08Z</time>
      </trkpt>
      <trkpt lat="39.716783000" lon="-8.511441000">
        <ele>130.400000</ele>
        <time>2020-10-17T13:28:09Z</time>
      </trkpt>
      <trkpt lat="39.716787000" lon="-8.511490000">
        <ele>130.600000</ele>
        <time>2020-10-17T13:28:10Z</time>
      </trkpt>
      <trkpt lat="39.716795000" lon="-8.511531000">
        <ele>130.600000</ele>
        <time>2020-10-17T13:28:11Z</time>
      </trkpt>
      <trkpt lat="39.716775000" lon="-8.511716000">
        <ele>130.600000</ele>
        <time>2020-10-17T13:28:14Z</time>
      </trkpt>
      <trkpt lat="39.716782000" lon="-8.511776000">
        <ele>130.600000</ele>
        <time>2020-10-17T13:28:15Z</time>
      </trkpt>
      <trkpt lat="39.716746000" lon="-8.512134000">
        <ele>130.800000</ele>
        <time>2020-10-17T13:28:20Z</time>
      </trkpt>
      <trkpt lat="39.716709000" lon="-8.512463000">
        <ele>130.800000</ele>
        <time>2020-10-17T13:28:24Z</time>
      </trkpt>
      <trkpt lat="39.716684000" lon="-8.512532000">
        <ele>130.800000</ele>
        <time>2020-10-17T13:28:25Z</time>
      </trkpt>
      <trkpt lat="39.716668000" lon="-8.512594000">
        <ele>130.600000</ele>
        <time>2020-10-17T13:28:26Z</time>
      </trkpt>
      <trkpt lat="39.716649000" lon="-8.512648000">
        <ele>130.600000</ele>
        <time>2020-10-17T13:28:27Z</time>
      </trkpt>
      <trkpt lat="39.716635000" lon="-8.512701000">
        <ele>130.600000</ele>
        <time>2020-10-17T13:28:28Z</time>
      </trkpt>
      <trkpt lat="39.716622000" lon="-8.512756000">
        <ele>130.600000</ele>
        <time>2020-10-17T13:28:29Z</time>
      </trkpt>
      <trkpt lat="39.716606000" lon="-8.512807000">
        <ele>130.000000</ele>
        <time>2020-10-17T13:28:30Z</time>
      </trkpt>
      <trkpt lat="39.716594000" lon="-8.512851000">
        <ele>129.600000</ele>
        <time>2020-10-17T13:28:31Z</time>
      </trkpt>
      <trkpt lat="39.716501000" lon="-8.513129000">
        <ele>129.200000</ele>
        <time>2020-10-17T13:28:36Z</time>
      </trkpt>
      <trkpt lat="39.716476000" lon="-8.513197000">
        <ele>129.200000</ele>
        <time>2020-10-17T13:28:37Z</time>
      </trkpt>
      <trkpt lat="39.716456000" lon="-8.513270000">
        <ele>129.200000</ele>
        <time>2020-10-17T13:28:38Z</time>
      </trkpt>
      <trkpt lat="39.716434000" lon="-8.513439000">
        <ele>128.800000</ele>
        <time>2020-10-17T13:28:40Z</time>
      </trkpt>
      <trkpt lat="39.716416000" lon="-8.513533000">
        <ele>128.800000</ele>
        <time>2020-10-17T13:28:41Z</time>
      </trkpt>
      <trkpt lat="39.716393000" lon="-8.513630000">
        <ele>128.800000</ele>
        <time>2020-10-17T13:28:42Z</time>
      </trkpt>
      <trkpt lat="39.716379000" lon="-8.513715000">
        <ele>128.600000</ele>
        <time>2020-10-17T13:28:43Z</time>
      </trkpt>
      <trkpt lat="39.716358000" lon="-8.513799000">
        <ele>128.600000</ele>
        <time>2020-10-17T13:28:44Z</time>
      </trkpt>
      <trkpt lat="39.716333000" lon="-8.513876000">
        <ele>128.400000</ele>
        <time>2020-10-17T13:28:45Z</time>
      </trkpt>
      <trkpt lat="39.716309000" lon="-8.513943000">
        <ele>128.400000</ele>
        <time>2020-10-17T13:28:46Z</time>
      </trkpt>
      <trkpt lat="39.716282000" lon="-8.514014000">
        <ele>128.200000</ele>
        <time>2020-10-17T13:28:47Z</time>
      </trkpt>
      <trkpt lat="39.716251000" lon="-8.514166000">
        <ele>127.800000</ele>
        <time>2020-10-17T13:28:49Z</time>
      </trkpt>
      <trkpt lat="39.716266000" lon="-8.514227000">
        <ele>127.600000</ele>
        <time>2020-10-17T13:28:50Z</time>
      </trkpt>
      <trkpt lat="39.716298000" lon="-8.514292000">
        <ele>127.200000</ele>
        <time>2020-10-17T13:28:51Z</time>
      </trkpt>
      <trkpt lat="39.716383000" lon="-8.514428000">
        <ele>126.800000</ele>
        <time>2020-10-17T13:28:53Z</time>
      </trkpt>
      <trkpt lat="39.716401000" lon="-8.514511000">
        <ele>126.600000</ele>
        <time>2020-10-17T13:28:54Z</time>
      </trkpt>
      <trkpt lat="39.716406000" lon="-8.514596000">
        <ele>126.200000</ele>
        <time>2020-10-17T13:28:55Z</time>
      </trkpt>
      <trkpt lat="39.716401000" lon="-8.514643000">
        <ele>126.000000</ele>
        <time>2020-10-17T13:28:56Z</time>
      </trkpt>
      <trkpt lat="39.716384000" lon="-8.514688000">
        <ele>126.000000</ele>
        <time>2020-10-17T13:28:57Z</time>
      </trkpt>
      <trkpt lat="39.716360000" lon="-8.514738000">
        <ele>125.600000</ele>
        <time>2020-10-17T13:28:58Z</time>
      </trkpt>
      <trkpt lat="39.716331000" lon="-8.514780000">
        <ele>125.400000</ele>
        <time>2020-10-17T13:28:59Z</time>
      </trkpt>
      <trkpt lat="39.716291000" lon="-8.514824000">
        <ele>124.800000</ele>
        <time>2020-10-17T13:29:00Z</time>
      </trkpt>
      <trkpt lat="39.716251000" lon="-8.514863000">
        <ele>124.200000</ele>
        <time>2020-10-17T13:29:01Z</time>
      </trkpt>
      <trkpt lat="39.715995000" lon="-8.515162000">
        <ele>121.800000</ele>
        <time>2020-10-17T13:29:07Z</time>
      </trkpt>
      <trkpt lat="39.715962000" lon="-8.515226000">
        <ele>121.800000</ele>
        <time>2020-10-17T13:29:08Z</time>
      </trkpt>
      <trkpt lat="39.715875000" lon="-8.515422000">
        <ele>121.800000</ele>
        <time>2020-10-17T13:29:11Z</time>
      </trkpt>
      <trkpt lat="39.715850000" lon="-8.515487000">
        <ele>121.600000</ele>
        <time>2020-10-17T13:29:12Z</time>
      </trkpt>
      <trkpt lat="39.715827000" lon="-8.515556000">
        <ele>121.600000</ele>
        <time>2020-10-17T13:29:13Z</time>
      </trkpt>
      <trkpt lat="39.715815000" lon="-8.515630000">
        <ele>121.600000</ele>
        <time>2020-10-17T13:29:14Z</time>
      </trkpt>
      <trkpt lat="39.715763000" lon="-8.515853000">
        <ele>121.800000</ele>
        <time>2020-10-17T13:29:17Z</time>
      </trkpt>
      <trkpt lat="39.715746000" lon="-8.515924000">
        <ele>121.800000</ele>
        <time>2020-10-17T13:29:18Z</time>
      </trkpt>
      <trkpt lat="39.715731000" lon="-8.515996000">
        <ele>121.800000</ele>
        <time>2020-10-17T13:29:19Z</time>
      </trkpt>
      <trkpt lat="39.715719000" lon="-8.516062000">
        <ele>121.800000</ele>
        <time>2020-10-17T13:29:20Z</time>
      </trkpt>
      <trkpt lat="39.715672000" lon="-8.516261000">
        <ele>121.800000</ele>
        <time>2020-10-17T13:29:23Z</time>
      </trkpt>
      <trkpt lat="39.715652000" lon="-8.516329000">
        <ele>122.000000</ele>
        <time>2020-10-17T13:29:24Z</time>
      </trkpt>
      <trkpt lat="39.715499000" lon="-8.516684000">
        <ele>122.000000</ele>
        <time>2020-10-17T13:29:29Z</time>
      </trkpt>
      <trkpt lat="39.715353000" lon="-8.516957000">
        <ele>122.000000</ele>
        <time>2020-10-17T13:29:33Z</time>
      </trkpt>
      <trkpt lat="39.715319000" lon="-8.517021000">
        <ele>122.000000</ele>
        <time>2020-10-17T13:29:34Z</time>
      </trkpt>
      <trkpt lat="39.715287000" lon="-8.517088000">
        <ele>122.000000</ele>
        <time>2020-10-17T13:29:35Z</time>
      </trkpt>
      <trkpt lat="39.715251000" lon="-8.517151000">
        <ele>122.000000</ele>
        <time>2020-10-17T13:29:36Z</time>
      </trkpt>
      <trkpt lat="39.715221000" lon="-8.517210000">
        <ele>122.000000</ele>
        <time>2020-10-17T13:29:37Z</time>
      </trkpt>
      <trkpt lat="39.715190000" lon="-8.517270000">
        <ele>122.000000</ele>
        <time>2020-10-17T13:29:38Z</time>
      </trkpt>
      <trkpt lat="39.715156000" lon="-8.517317000">
        <ele>122.200000</ele>
        <time>2020-10-17T13:29:39Z</time>
      </trkpt>
      <trkpt lat="39.715102000" lon="-8.517370000">
        <ele>122.200000</ele>
        <time>2020-10-17T13:29:40Z</time>
      </trkpt>
      <trkpt lat="39.715065000" lon="-8.517375000">
        <ele>122.000000</ele>
        <time>2020-10-17T13:29:41Z</time>
      </trkpt>
      <trkpt lat="39.715007000" lon="-8.517375000">
        <ele>122.200000</ele>
        <time>2020-10-17T13:29:42Z</time>
      </trkpt>
      <trkpt lat="39.714958000" lon="-8.517365000">
        <ele>122.200000</ele>
        <time>2020-10-17T13:29:43Z</time>
      </trkpt>
      <trkpt lat="39.714904000" lon="-8.517341000">
        <ele>122.000000</ele>
        <time>2020-10-17T13:29:44Z</time>
      </trkpt>
      <trkpt lat="39.714847000" lon="-8.517292000">
        <ele>122.200000</ele>
        <time>2020-10-17T13:29:45Z</time>
      </trkpt>
      <trkpt lat="39.714791000" lon="-8.517242000">
        <ele>122.200000</ele>
        <time>2020-10-17T13:29:46Z</time>
      </trkpt>
      <trkpt lat="39.714735000" lon="-8.517187000">
        <ele>122.200000</ele>
        <time>2020-10-17T13:29:47Z</time>
      </trkpt>
      <trkpt lat="39.714541000" lon="-8.516969000">
        <ele>122.400000</ele>
        <time>2020-10-17T13:29:51Z</time>
      </trkpt>
      <trkpt lat="39.714451000" lon="-8.516854000">
        <ele>122.600000</ele>
        <time>2020-10-17T13:29:53Z</time>
      </trkpt>
      <trkpt lat="39.714409000" lon="-8.516802000">
        <ele>123.000000</ele>
        <time>2020-10-17T13:29:54Z</time>
      </trkpt>
      <trkpt lat="39.714370000" lon="-8.516755000">
        <ele>123.000000</ele>
        <time>2020-10-17T13:29:55Z</time>
      </trkpt>
      <trkpt lat="39.714318000" lon="-8.516699000">
        <ele>123.000000</ele>
        <time>2020-10-17T13:29:56Z</time>
      </trkpt>
      <trkpt lat="39.714286000" lon="-8.516653000">
        <ele>123.000000</ele>
        <time>2020-10-17T13:29:57Z</time>
      </trkpt>
      <trkpt lat="39.714246000" lon="-8.516603000">
        <ele>123.200000</ele>
        <time>2020-10-17T13:29:58Z</time>
      </trkpt>
      <trkpt lat="39.714205000" lon="-8.516555000">
        <ele>123.400000</ele>
        <time>2020-10-17T13:29:59Z</time>
      </trkpt>
      <trkpt lat="39.714160000" lon="-8.516503000">
        <ele>123.200000</ele>
        <time>2020-10-17T13:30:00Z</time>
      </trkpt>
      <trkpt lat="39.714078000" lon="-8.516407000">
        <ele>123.400000</ele>
        <time>2020-10-17T13:30:02Z</time>
      </trkpt>
      <trkpt lat="39.714038000" lon="-8.516367000">
        <ele>123.400000</ele>
        <time>2020-10-17T13:30:03Z</time>
      </trkpt>
      <trkpt lat="39.714005000" lon="-8.516343000">
        <ele>123.600000</ele>
        <time>2020-10-17T13:30:04Z</time>
      </trkpt>
      <trkpt lat="39.713972000" lon="-8.516319000">
        <ele>123.800000</ele>
        <time>2020-10-17T13:30:05Z</time>
      </trkpt>
      <trkpt lat="39.713937000" lon="-8.516301000">
        <ele>124.000000</ele>
        <time>2020-10-17T13:30:06Z</time>
      </trkpt>
      <trkpt lat="39.713901000" lon="-8.516288000">
        <ele>124.000000</ele>
        <time>2020-10-17T13:30:07Z</time>
      </trkpt>
      <trkpt lat="39.713879000" lon="-8.516286000">
        <ele>124.200000</ele>
        <time>2020-10-17T13:30:08Z</time>
      </trkpt>
      <trkpt lat="39.713843000" lon="-8.516281000">
        <ele>124.400000</ele>
        <time>2020-10-17T13:30:09Z</time>
      </trkpt>
      <trkpt lat="39.713813000" lon="-8.516281000">
        <ele>124.600000</ele>
        <time>2020-10-17T13:30:10Z</time>
      </trkpt>
      <trkpt lat="39.713774000" lon="-8.516283000">
        <ele>124.600000</ele>
        <time>2020-10-17T13:30:11Z</time>
      </trkpt>
      <trkpt lat="39.713730000" lon="-8.516275000">
        <ele>124.800000</ele>
        <time>2020-10-17T13:30:12Z</time>
      </trkpt>
      <trkpt lat="39.713690000" lon="-8.516263000">
        <ele>125.000000</ele>
        <time>2020-10-17T13:30:13Z</time>
      </trkpt>
      <trkpt lat="39.713652000" lon="-8.516250000">
        <ele>125.200000</ele>
        <time>2020-10-17T13:30:14Z</time>
      </trkpt>
      <trkpt lat="39.713627000" lon="-8.516233000">
        <ele>125.400000</ele>
        <time>2020-10-17T13:30:15Z</time>
      </trkpt>
      <trkpt lat="39.713594000" lon="-8.516218000">
        <ele>125.400000</ele>
        <time>2020-10-17T13:30:16Z</time>
      </trkpt>
      <trkpt lat="39.713562000" lon="-8.516210000">
        <ele>126.000000</ele>
        <time>2020-10-17T13:30:17Z</time>
      </trkpt>
      <trkpt lat="39.713532000" lon="-8.516191000">
        <ele>126.200000</ele>
        <time>2020-10-17T13:30:18Z</time>
      </trkpt>
      <trkpt lat="39.713495000" lon="-8.516169000">
        <ele>126.400000</ele>
        <time>2020-10-17T13:30:19Z</time>
      </trkpt>
      <trkpt lat="39.713464000" lon="-8.516153000">
        <ele>126.800000</ele>
        <time>2020-10-17T13:30:20Z</time>
      </trkpt>
      <trkpt lat="39.713429000" lon="-8.516148000">
        <ele>127.200000</ele>
        <time>2020-10-17T13:30:21Z</time>
      </trkpt>
      <trkpt lat="39.713397000" lon="-8.516132000">
        <ele>127.400000</ele>
        <time>2020-10-17T13:30:22Z</time>
      </trkpt>
      <trkpt lat="39.713363000" lon="-8.516112000">
        <ele>128.000000</ele>
        <time>2020-10-17T13:30:23Z</time>
      </trkpt>
      <trkpt lat="39.713328000" lon="-8.516088000">
        <ele>128.200000</ele>
        <time>2020-10-17T13:30:24Z</time>
      </trkpt>
      <trkpt lat="39.713300000" lon="-8.516065000">
        <ele>128.600000</ele>
        <time>2020-10-17T13:30:25Z</time>
      </trkpt>
      <trkpt lat="39.713275000" lon="-8.516034000">
        <ele>128.800000</ele>
        <time>2020-10-17T13:30:26Z</time>
      </trkpt>
      <trkpt lat="39.713259000" lon="-8.516008000">
        <ele>129.200000</ele>
        <time>2020-10-17T13:30:27Z</time>
      </trkpt>
      <trkpt lat="39.713242000" lon="-8.515993000">
        <ele>129.400000</ele>
        <time>2020-10-17T13:30:28Z</time>
      </trkpt>
      <trkpt lat="39.713223000" lon="-8.515988000">
        <ele>129.800000</ele>
        <time>2020-10-17T13:30:29Z</time>
      </trkpt>
      <trkpt lat="39.713199000" lon="-8.515975000">
        <ele>130.000000</ele>
        <time>2020-10-17T13:30:30Z</time>
      </trkpt>
      <trkpt lat="39.713185000" lon="-8.515973000">
        <ele>130.200000</ele>
        <time>2020-10-17T13:30:31Z</time>
      </trkpt>
      <trkpt lat="39.713157000" lon="-8.515970000">
        <ele>130.200000</ele>
        <time>2020-10-17T13:30:32Z</time>
      </trkpt>
      <trkpt lat="39.713139000" lon="-8.515978000">
        <ele>130.400000</ele>
        <time>2020-10-17T13:30:33Z</time>
      </trkpt>
      <trkpt lat="39.713125000" lon="-8.515983000">
        <ele>130.600000</ele>
        <time>2020-10-17T13:30:34Z</time>
      </trkpt>
      <trkpt lat="39.713112000" lon="-8.515988000">
        <ele>130.800000</ele>
        <time>2020-10-17T13:30:35Z</time>
      </trkpt>
      <trkpt lat="39.713091000" lon="-8.516000000">
        <ele>131.400000</ele>
        <time>2020-10-17T13:30:36Z</time>
      </trkpt>
      <trkpt lat="39.713071000" lon="-8.516005000">
        <ele>131.400000</ele>
        <time>2020-10-17T13:30:37Z</time>
      </trkpt>
      <trkpt lat="39.713056000" lon="-8.516017000">
        <ele>131.800000</ele>
        <time>2020-10-17T13:30:38Z</time>
      </trkpt>
      <trkpt lat="39.713034000" lon="-8.516015000">
        <ele>132.000000</ele>
        <time>2020-10-17T13:30:39Z</time>
      </trkpt>
      <trkpt lat="39.713004000" lon="-8.516015000">
        <ele>132.400000</ele>
        <time>2020-10-17T13:30:40Z</time>
      </trkpt>
      <trkpt lat="39.712970000" lon="-8.516014000">
        <ele>132.400000</ele>
        <time>2020-10-17T13:30:41Z</time>
      </trkpt>
      <trkpt lat="39.712941000" lon="-8.516010000">
        <ele>132.800000</ele>
        <time>2020-10-17T13:30:42Z</time>
      </trkpt>
      <trkpt lat="39.712918000" lon="-8.516015000">
        <ele>133.200000</ele>
        <time>2020-10-17T13:30:43Z</time>
      </trkpt>
      <trkpt lat="39.712895000" lon="-8.516022000">
        <ele>133.400000</ele>
        <time>2020-10-17T13:30:44Z</time>
      </trkpt>
      <trkpt lat="39.712874000" lon="-8.516020000">
        <ele>133.800000</ele>
        <time>2020-10-17T13:30:45Z</time>
      </trkpt>
      <trkpt lat="39.712844000" lon="-8.516027000">
        <ele>134.000000</ele>
        <time>2020-10-17T13:30:46Z</time>
      </trkpt>
      <trkpt lat="39.712812000" lon="-8.516028000">
        <ele>134.400000</ele>
        <time>2020-10-17T13:30:47Z</time>
      </trkpt>
      <trkpt lat="39.712778000" lon="-8.516037000">
        <ele>134.600000</ele>
        <time>2020-10-17T13:30:48Z</time>
      </trkpt>
      <trkpt lat="39.712750000" lon="-8.516033000">
        <ele>134.800000</ele>
        <time>2020-10-17T13:30:49Z</time>
      </trkpt>
      <trkpt lat="39.712725000" lon="-8.516023000">
        <ele>134.800000</ele>
        <time>2020-10-17T13:30:50Z</time>
      </trkpt>
      <trkpt lat="39.712682000" lon="-8.516018000">
        <ele>135.200000</ele>
        <time>2020-10-17T13:30:51Z</time>
      </trkpt>
      <trkpt lat="39.712644000" lon="-8.515998000">
        <ele>135.600000</ele>
        <time>2020-10-17T13:30:52Z</time>
      </trkpt>
      <trkpt lat="39.712608000" lon="-8.515967000">
        <ele>135.600000</ele>
        <time>2020-10-17T13:30:53Z</time>
      </trkpt>
      <trkpt lat="39.712578000" lon="-8.515934000">
        <ele>135.800000</ele>
        <time>2020-10-17T13:30:54Z</time>
      </trkpt>
      <trkpt lat="39.712556000" lon="-8.515903000">
        <ele>136.000000</ele>
        <time>2020-10-17T13:30:55Z</time>
      </trkpt>
      <trkpt lat="39.712536000" lon="-8.515876000">
        <ele>136.200000</ele>
        <time>2020-10-17T13:30:56Z</time>
      </trkpt>
      <trkpt lat="39.712513000" lon="-8.515850000">
        <ele>136.400000</ele>
        <time>2020-10-17T13:30:57Z</time>
      </trkpt>
      <trkpt lat="39.712488000" lon="-8.515821000">
        <ele>136.400000</ele>
        <time>2020-10-17T13:30:58Z</time>
      </trkpt>
      <trkpt lat="39.712466000" lon="-8.515793000">
        <ele>136.400000</ele>
        <time>2020-10-17T13:30:59Z</time>
      </trkpt>
      <trkpt lat="39.712447000" lon="-8.515759000">
        <ele>136.400000</ele>
        <time>2020-10-17T13:31:00Z</time>
      </trkpt>
      <trkpt lat="39.712431000" lon="-8.515736000">
        <ele>136.600000</ele>
        <time>2020-10-17T13:31:01Z</time>
      </trkpt>
      <trkpt lat="39.712418000" lon="-8.515717000">
        <ele>136.600000</ele>
        <time>2020-10-17T13:31:02Z</time>
      </trkpt>
      <trkpt lat="39.712399000" lon="-8.515708000">
        <ele>136.600000</ele>
        <time>2020-10-17T13:31:03Z</time>
      </trkpt>
      <trkpt lat="39.712383000" lon="-8.515685000">
        <ele>136.600000</ele>
        <time>2020-10-17T13:31:04Z</time>
      </trkpt>
      <trkpt lat="39.712352000" lon="-8.515652000">
        <ele>137.000000</ele>
        <time>2020-10-17T13:31:05Z</time>
      </trkpt>
      <trkpt lat="39.712326000" lon="-8.515628000">
        <ele>137.000000</ele>
        <time>2020-10-17T13:31:06Z</time>
      </trkpt>
      <trkpt lat="39.712298000" lon="-8.515614000">
        <ele>137.200000</ele>
        <time>2020-10-17T13:31:07Z</time>
      </trkpt>
      <trkpt lat="39.712266000" lon="-8.515587000">
        <ele>137.400000</ele>
        <time>2020-10-17T13:31:08Z</time>
      </trkpt>
      <trkpt lat="39.712239000" lon="-8.515562000">
        <ele>137.800000</ele>
        <time>2020-10-17T13:31:09Z</time>
      </trkpt>
      <trkpt lat="39.712208000" lon="-8.515536000">
        <ele>138.000000</ele>
        <time>2020-10-17T13:31:10Z</time>
      </trkpt>
      <trkpt lat="39.712182000" lon="-8.515515000">
        <ele>138.200000</ele>
        <time>2020-10-17T13:31:11Z</time>
      </trkpt>
      <trkpt lat="39.712154000" lon="-8.515491000">
        <ele>138.400000</ele>
        <time>2020-10-17T13:31:12Z</time>
      </trkpt>
      <trkpt lat="39.712126000" lon="-8.515465000">
        <ele>138.600000</ele>
        <time>2020-10-17T13:31:13Z</time>
      </trkpt>
      <trkpt lat="39.712089000" lon="-8.515447000">
        <ele>138.600000</ele>
        <time>2020-10-17T13:31:14Z</time>
      </trkpt>
      <trkpt lat="39.712055000" lon="-8.515447000">
        <ele>139.000000</ele>
        <time>2020-10-17T13:31:15Z</time>
      </trkpt>
      <trkpt lat="39.712027000" lon="-8.515485000">
        <ele>139.200000</ele>
        <time>2020-10-17T13:31:16Z</time>
      </trkpt>
      <trkpt lat="39.711976000" lon="-8.515500000">
        <ele>139.200000</ele>
        <time>2020-10-17T13:31:17Z</time>
      </trkpt>
      <trkpt lat="39.711955000" lon="-8.515531000">
        <ele>139.200000</ele>
        <time>2020-10-17T13:31:18Z</time>
      </trkpt>
      <trkpt lat="39.711932000" lon="-8.515565000">
        <ele>139.200000</ele>
        <time>2020-10-17T13:31:19Z</time>
      </trkpt>
      <trkpt lat="39.711907000" lon="-8.515621000">
        <ele>139.400000</ele>
        <time>2020-10-17T13:31:20Z</time>
      </trkpt>
      <trkpt lat="39.711877000" lon="-8.515691000">
        <ele>139.400000</ele>
        <time>2020-10-17T13:31:21Z</time>
      </trkpt>
      <trkpt lat="39.711839000" lon="-8.515762000">
        <ele>139.600000</ele>
        <time>2020-10-17T13:31:22Z</time>
      </trkpt>
      <trkpt lat="39.711751000" lon="-8.515951000">
        <ele>139.600000</ele>
        <time>2020-10-17T13:31:25Z</time>
      </trkpt>
      <trkpt lat="39.711707000" lon="-8.516058000">
        <ele>139.800000</ele>
        <time>2020-10-17T13:31:27Z</time>
      </trkpt>
      <trkpt lat="39.711676000" lon="-8.516125000">
        <ele>140.000000</ele>
        <time>2020-10-17T13:31:28Z</time>
      </trkpt>
      <trkpt lat="39.711653000" lon="-8.516180000">
        <ele>140.000000</ele>
        <time>2020-10-17T13:31:29Z</time>
      </trkpt>
      <trkpt lat="39.711633000" lon="-8.516229000">
        <ele>140.000000</ele>
        <time>2020-10-17T13:31:30Z</time>
      </trkpt>
      <trkpt lat="39.711576000" lon="-8.516412000">
        <ele>140.000000</ele>
        <time>2020-10-17T13:31:33Z</time>
      </trkpt>
      <trkpt lat="39.711551000" lon="-8.516533000">
        <ele>140.000000</ele>
        <time>2020-10-17T13:31:35Z</time>
      </trkpt>
      <trkpt lat="39.711534000" lon="-8.516663000">
        <ele>140.200000</ele>
        <time>2020-10-17T13:31:37Z</time>
      </trkpt>
      <trkpt lat="39.711516000" lon="-8.516816000">
        <ele>140.200000</ele>
        <time>2020-10-17T13:31:39Z</time>
      </trkpt>
      <trkpt lat="39.711477000" lon="-8.517093000">
        <ele>140.200000</ele>
        <time>2020-10-17T13:31:42Z</time>
      </trkpt>
      <trkpt lat="39.711413000" lon="-8.517315000">
        <ele>140.200000</ele>
        <time>2020-10-17T13:31:44Z</time>
      </trkpt>
      <trkpt lat="39.711336000" lon="-8.517463000">
        <ele>140.200000</ele>
        <time>2020-10-17T13:31:46Z</time>
      </trkpt>
      <trkpt lat="39.711294000" lon="-8.517526000">
        <ele>140.200000</ele>
        <time>2020-10-17T13:31:47Z</time>
      </trkpt>
      <trkpt lat="39.711198000" lon="-8.517667000">
        <ele>140.000000</ele>
        <time>2020-10-17T13:31:49Z</time>
      </trkpt>
      <trkpt lat="39.711147000" lon="-8.517823000">
        <ele>139.400000</ele>
        <time>2020-10-17T13:31:51Z</time>
      </trkpt>
      <trkpt lat="39.711154000" lon="-8.517898000">
        <ele>139.200000</ele>
        <time>2020-10-17T13:31:52Z</time>
      </trkpt>
      <trkpt lat="39.711180000" lon="-8.517958000">
        <ele>139.000000</ele>
        <time>2020-10-17T13:31:53Z</time>
      </trkpt>
      <trkpt lat="39.711212000" lon="-8.518010000">
        <ele>138.600000</ele>
        <time>2020-10-17T13:31:54Z</time>
      </trkpt>
      <trkpt lat="39.711243000" lon="-8.518078000">
        <ele>138.000000</ele>
        <time>2020-10-17T13:31:55Z</time>
      </trkpt>
      <trkpt lat="39.711265000" lon="-8.518144000">
        <ele>137.600000</ele>
        <time>2020-10-17T13:31:56Z</time>
      </trkpt>
      <trkpt lat="39.711285000" lon="-8.518213000">
        <ele>137.600000</ele>
        <time>2020-10-17T13:31:57Z</time>
      </trkpt>
      <trkpt lat="39.711320000" lon="-8.518370000">
        <ele>137.600000</ele>
        <time>2020-10-17T13:31:59Z</time>
      </trkpt>
      <trkpt lat="39.711424000" lon="-8.518764000">
        <ele>137.200000</ele>
        <time>2020-10-17T13:32:04Z</time>
      </trkpt>
      <trkpt lat="39.711422000" lon="-8.518856000">
        <ele>137.000000</ele>
        <time>2020-10-17T13:32:05Z</time>
      </trkpt>
      <trkpt lat="39.711405000" lon="-8.518968000">
        <ele>137.200000</ele>
        <time>2020-10-17T13:32:06Z</time>
      </trkpt>
      <trkpt lat="39.711400000" lon="-8.519073000">
        <ele>137.000000</ele>
        <time>2020-10-17T13:32:07Z</time>
      </trkpt>
      <trkpt lat="39.711366000" lon="-8.519278000">
        <ele>137.000000</ele>
        <time>2020-10-17T13:32:09Z</time>
      </trkpt>
      <trkpt lat="39.711356000" lon="-8.519386000">
        <ele>137.000000</ele>
        <time>2020-10-17T13:32:10Z</time>
      </trkpt>
      <trkpt lat="39.711343000" lon="-8.519496000">
        <ele>137.000000</ele>
        <time>2020-10-17T13:32:11Z</time>
      </trkpt>
      <trkpt lat="39.711320000" lon="-8.519607000">
        <ele>136.800000</ele>
        <time>2020-10-17T13:32:12Z</time>
      </trkpt>
      <trkpt lat="39.711294000" lon="-8.519708000">
        <ele>136.800000</ele>
        <time>2020-10-17T13:32:13Z</time>
      </trkpt>
      <trkpt lat="39.711263000" lon="-8.519807000">
        <ele>136.400000</ele>
        <time>2020-10-17T13:32:14Z</time>
      </trkpt>
      <trkpt lat="39.711222000" lon="-8.519895000">
        <ele>136.000000</ele>
        <time>2020-10-17T13:32:15Z</time>
      </trkpt>
      <trkpt lat="39.711176000" lon="-8.519979000">
        <ele>135.400000</ele>
        <time>2020-10-17T13:32:16Z</time>
      </trkpt>
      <trkpt lat="39.711027000" lon="-8.520333000">
        <ele>133.800000</ele>
        <time>2020-10-17T13:32:20Z</time>
      </trkpt>
      <trkpt lat="39.711007000" lon="-8.520387000">
        <ele>133.200000</ele>
        <time>2020-10-17T13:32:21Z</time>
      </trkpt>
      <trkpt lat="39.710983000" lon="-8.520434000">
        <ele>132.000000</ele>
        <time>2020-10-17T13:32:22Z</time>
      </trkpt>
      <trkpt lat="39.710956000" lon="-8.520474000">
        <ele>131.600000</ele>
        <time>2020-10-17T13:32:23Z</time>
      </trkpt>
      <trkpt lat="39.710921000" lon="-8.520499000">
        <ele>131.000000</ele>
        <time>2020-10-17T13:32:24Z</time>
      </trkpt>
      <trkpt lat="39.710873000" lon="-8.520548000">
        <ele>130.800000</ele>
        <time>2020-10-17T13:32:25Z</time>
      </trkpt>
      <trkpt lat="39.710834000" lon="-8.520578000">
        <ele>130.600000</ele>
        <time>2020-10-17T13:32:26Z</time>
      </trkpt>
      <trkpt lat="39.710796000" lon="-8.520621000">
        <ele>130.600000</ele>
        <time>2020-10-17T13:32:27Z</time>
      </trkpt>
      <trkpt lat="39.710762000" lon="-8.520665000">
        <ele>130.600000</ele>
        <time>2020-10-17T13:32:28Z</time>
      </trkpt>
      <trkpt lat="39.710795000" lon="-8.520700000">
        <ele>130.600000</ele>
        <time>2020-10-17T13:32:29Z</time>
      </trkpt>
      <trkpt lat="39.710789000" lon="-8.520737000">
        <ele>130.400000</ele>
        <time>2020-10-17T13:32:30Z</time>
      </trkpt>
      <trkpt lat="39.710780000" lon="-8.520791000">
        <ele>130.400000</ele>
        <time>2020-10-17T13:32:31Z</time>
      </trkpt>
      <trkpt lat="39.710786000" lon="-8.520863000">
        <ele>130.400000</ele>
        <time>2020-10-17T13:32:32Z</time>
      </trkpt>
      <trkpt lat="39.710813000" lon="-8.520930000">
        <ele>130.400000</ele>
        <time>2020-10-17T13:32:33Z</time>
      </trkpt>
      <trkpt lat="39.710829000" lon="-8.521088000">
        <ele>130.400000</ele>
        <time>2020-10-17T13:32:35Z</time>
      </trkpt>
      <trkpt lat="39.710875000" lon="-8.521276000">
        <ele>130.600000</ele>
        <time>2020-10-17T13:32:38Z</time>
      </trkpt>
      <trkpt lat="39.710890000" lon="-8.521377000">
        <ele>130.400000</ele>
        <time>2020-10-17T13:32:39Z</time>
      </trkpt>
      <trkpt lat="39.710903000" lon="-8.521717000">
        <ele>130.600000</ele>
        <time>2020-10-17T13:32:42Z</time>
      </trkpt>
      <trkpt lat="39.710910000" lon="-8.521804000">
        <ele>130.600000</ele>
        <time>2020-10-17T13:32:43Z</time>
      </trkpt>
      <trkpt lat="39.710900000" lon="-8.521891000">
        <ele>130.600000</ele>
        <time>2020-10-17T13:32:44Z</time>
      </trkpt>
      <trkpt lat="39.710900000" lon="-8.521977000">
        <ele>130.200000</ele>
        <time>2020-10-17T13:32:45Z</time>
      </trkpt>
      <trkpt lat="39.710895000" lon="-8.522062000">
        <ele>130.000000</ele>
        <time>2020-10-17T13:32:46Z</time>
      </trkpt>
      <trkpt lat="39.710906000" lon="-8.522143000">
        <ele>129.400000</ele>
        <time>2020-10-17T13:32:47Z</time>
      </trkpt>
      <trkpt lat="39.710921000" lon="-8.522220000">
        <ele>128.800000</ele>
        <time>2020-10-17T13:32:48Z</time>
      </trkpt>
      <trkpt lat="39.710944000" lon="-8.522285000">
        <ele>128.200000</ele>
        <time>2020-10-17T13:32:49Z</time>
      </trkpt>
      <trkpt lat="39.710956000" lon="-8.522349000">
        <ele>127.800000</ele>
        <time>2020-10-17T13:32:50Z</time>
      </trkpt>
      <trkpt lat="39.710967000" lon="-8.522396000">
        <ele>127.600000</ele>
        <time>2020-10-17T13:32:51Z</time>
      </trkpt>
      <trkpt lat="39.710978000" lon="-8.522434000">
        <ele>127.400000</ele>
        <time>2020-10-17T13:32:52Z</time>
      </trkpt>
      <trkpt lat="39.710981000" lon="-8.522469000">
        <ele>127.400000</ele>
        <time>2020-10-17T13:32:53Z</time>
      </trkpt>
      <trkpt lat="39.710992000" lon="-8.522496000">
        <ele>127.400000</ele>
        <time>2020-10-17T13:32:54Z</time>
      </trkpt>
      <trkpt lat="39.711013000" lon="-8.522528000">
        <ele>127.400000</ele>
        <time>2020-10-17T13:32:55Z</time>
      </trkpt>
      <trkpt lat="39.711041000" lon="-8.522572000">
        <ele>127.200000</ele>
        <time>2020-10-17T13:32:56Z</time>
      </trkpt>
      <trkpt lat="39.711063000" lon="-8.522599000">
        <ele>127.400000</ele>
        <time>2020-10-17T13:32:57Z</time>
      </trkpt>
      <trkpt lat="39.711084000" lon="-8.522632000">
        <ele>127.400000</ele>
        <time>2020-10-17T13:32:58Z</time>
      </trkpt>
      <trkpt lat="39.711093000" lon="-8.522658000">
        <ele>127.600000</ele>
        <time>2020-10-17T13:32:59Z</time>
      </trkpt>
      <trkpt lat="39.711097000" lon="-8.522676000">
        <ele>127.800000</ele>
        <time>2020-10-17T13:33:00Z</time>
      </trkpt>
      <trkpt lat="39.711115000" lon="-8.522685000">
        <ele>127.800000</ele>
        <time>2020-10-17T13:33:01Z</time>
      </trkpt>
      <trkpt lat="39.711123000" lon="-8.522672000">
        <ele>127.800000</ele>
        <time>2020-10-17T13:33:02Z</time>
      </trkpt>
      <trkpt lat="39.711123000" lon="-8.522672000">
        <ele>127.800000</ele>
        <time>2020-10-17T13:33:03Z</time>
      </trkpt>
      <trkpt lat="39.711152000" lon="-8.522687000">
        <ele>128.000000</ele>
        <time>2020-10-17T13:33:04Z</time>
      </trkpt>
      <trkpt lat="39.711152000" lon="-8.522673000">
        <ele>127.800000</ele>
        <time>2020-10-17T13:33:05Z</time>
      </trkpt>
      <trkpt lat="39.711152000" lon="-8.522673000">
        <ele>128.000000</ele>
        <time>2020-10-17T13:33:06Z</time>
      </trkpt>
      <trkpt lat="39.711152000" lon="-8.522673000">
        <ele>128.000000</ele>
        <time>2020-10-17T13:33:07Z</time>
      </trkpt>
      <trkpt lat="39.711152000" lon="-8.522673000">
        <ele>128.000000</ele>
        <time>2020-10-17T13:33:08Z</time>
      </trkpt>
      <trkpt lat="39.711152000" lon="-8.522673000">
        <ele>128.000000</ele>
        <time>2020-10-17T13:33:09Z</time>
      </trkpt>
      <trkpt lat="39.711152000" lon="-8.522673000">
        <ele>128.000000</ele>
        <time>2020-10-17T13:33:10Z</time>
      </trkpt>
      <trkpt lat="39.711152000" lon="-8.522673000">
        <ele>128.000000</ele>
        <time>2020-10-17T13:33:11Z</time>
      </trkpt>
      <trkpt lat="39.711152000" lon="-8.522673000">
        <ele>128.000000</ele>
        <time>2020-10-17T13:33:12Z</time>
      </trkpt>
      <trkpt lat="39.711152000" lon="-8.522673000">
        <ele>127.800000</ele>
        <time>2020-10-17T13:33:13Z</time>
      </trkpt>
      <trkpt lat="39.711127000" lon="-8.522685000">
        <ele>127.800000</ele>
        <time>2020-10-17T13:33:14Z</time>
      </trkpt>
      <trkpt lat="39.711127000" lon="-8.522685000">
        <ele>127.600000</ele>
        <time>2020-10-17T13:33:15Z</time>
      </trkpt>
      <trkpt lat="39.711157000" lon="-8.522750000">
        <ele>127.600000</ele>
        <time>2020-10-17T13:33:20Z</time>
      </trkpt>
      <trkpt lat="39.711208000" lon="-8.522786000">
        <ele>127.400000</ele>
        <time>2020-10-17T13:33:22Z</time>
      </trkpt>
      <trkpt lat="39.711191000" lon="-8.522968000">
        <ele>127.200000</ele>
        <time>2020-10-17T13:33:27Z</time>
      </trkpt>
      <trkpt lat="39.711105000" lon="-8.523082000">
        <ele>127.400000</ele>
        <time>2020-10-17T13:33:29Z</time>
      </trkpt>
      <trkpt lat="39.711051000" lon="-8.523150000">
        <ele>127.200000</ele>
        <time>2020-10-17T13:33:30Z</time>
      </trkpt>
      <trkpt lat="39.710997000" lon="-8.523213000">
        <ele>127.000000</ele>
        <time>2020-10-17T13:33:31Z</time>
      </trkpt>
      <trkpt lat="39.710796000" lon="-8.523560000">
        <ele>127.000000</ele>
        <time>2020-10-17T13:33:37Z</time>
      </trkpt>
      <trkpt lat="39.710532000" lon="-8.523863000">
        <ele>127.200000</ele>
        <time>2020-10-17T13:33:43Z</time>
      </trkpt>
      <trkpt lat="39.710500000" lon="-8.523904000">
        <ele>127.200000</ele>
        <time>2020-10-17T13:33:44Z</time>
      </trkpt>
      <trkpt lat="39.710468000" lon="-8.523937000">
        <ele>127.200000</ele>
        <time>2020-10-17T13:33:45Z</time>
      </trkpt>
      <trkpt lat="39.710425000" lon="-8.523982000">
        <ele>127.400000</ele>
        <time>2020-10-17T13:33:46Z</time>
      </trkpt>
      <trkpt lat="39.710388000" lon="-8.524043000">
        <ele>127.400000</ele>
        <time>2020-10-17T13:33:47Z</time>
      </trkpt>
      <trkpt lat="39.710213000" lon="-8.524273000">
        <ele>127.400000</ele>
        <time>2020-10-17T13:33:51Z</time>
      </trkpt>
      <trkpt lat="39.710174000" lon="-8.524328000">
        <ele>127.600000</ele>
        <time>2020-10-17T13:33:52Z</time>
      </trkpt>
      <trkpt lat="39.710149000" lon="-8.524369000">
        <ele>127.800000</ele>
        <time>2020-10-17T13:33:53Z</time>
      </trkpt>
      <trkpt lat="39.710111000" lon="-8.524414000">
        <ele>127.800000</ele>
        <time>2020-10-17T13:33:54Z</time>
      </trkpt>
      <trkpt lat="39.710075000" lon="-8.524442000">
        <ele>128.000000</ele>
        <time>2020-10-17T13:33:55Z</time>
      </trkpt>
      <trkpt lat="39.710040000" lon="-8.524476000">
        <ele>128.400000</ele>
        <time>2020-10-17T13:33:56Z</time>
      </trkpt>
      <trkpt lat="39.710006000" lon="-8.524516000">
        <ele>128.800000</ele>
        <time>2020-10-17T13:33:57Z</time>
      </trkpt>
      <trkpt lat="39.709961000" lon="-8.524564000">
        <ele>128.800000</ele>
        <time>2020-10-17T13:33:58Z</time>
      </trkpt>
      <trkpt lat="39.709917000" lon="-8.524616000">
        <ele>129.200000</ele>
        <time>2020-10-17T13:33:59Z</time>
      </trkpt>
      <trkpt lat="39.709882000" lon="-8.524663000">
        <ele>129.200000</ele>
        <time>2020-10-17T13:34:00Z</time>
      </trkpt>
      <trkpt lat="39.709857000" lon="-8.524707000">
        <ele>129.400000</ele>
        <time>2020-10-17T13:34:01Z</time>
      </trkpt>
      <trkpt lat="39.709822000" lon="-8.524767000">
        <ele>129.600000</ele>
        <time>2020-10-17T13:34:02Z</time>
      </trkpt>
      <trkpt lat="39.709796000" lon="-8.524817000">
        <ele>130.000000</ele>
        <time>2020-10-17T13:34:03Z</time>
      </trkpt>
      <trkpt lat="39.709778000" lon="-8.524859000">
        <ele>130.200000</ele>
        <time>2020-10-17T13:34:04Z</time>
      </trkpt>
      <trkpt lat="39.709752000" lon="-8.524901000">
        <ele>130.400000</ele>
        <time>2020-10-17T13:34:05Z</time>
      </trkpt>
      <trkpt lat="39.709717000" lon="-8.524944000">
        <ele>130.400000</ele>
        <time>2020-10-17T13:34:06Z</time>
      </trkpt>
      <trkpt lat="39.709678000" lon="-8.524978000">
        <ele>130.600000</ele>
        <time>2020-10-17T13:34:07Z</time>
      </trkpt>
      <trkpt lat="39.709636000" lon="-8.525018000">
        <ele>130.800000</ele>
        <time>2020-10-17T13:34:08Z</time>
      </trkpt>
      <trkpt lat="39.709600000" lon="-8.525047000">
        <ele>131.200000</ele>
        <time>2020-10-17T13:34:09Z</time>
      </trkpt>
      <trkpt lat="39.709564000" lon="-8.525074000">
        <ele>131.200000</ele>
        <time>2020-10-17T13:34:10Z</time>
      </trkpt>
      <trkpt lat="39.709530000" lon="-8.525095000">
        <ele>131.600000</ele>
        <time>2020-10-17T13:34:11Z</time>
      </trkpt>
      <trkpt lat="39.709507000" lon="-8.525113000">
        <ele>131.800000</ele>
        <time>2020-10-17T13:34:12Z</time>
      </trkpt>
      <trkpt lat="39.709491000" lon="-8.525128000">
        <ele>131.800000</ele>
        <time>2020-10-17T13:34:13Z</time>
      </trkpt>
      <trkpt lat="39.709469000" lon="-8.525167000">
        <ele>132.000000</ele>
        <time>2020-10-17T13:34:14Z</time>
      </trkpt>
      <trkpt lat="39.709435000" lon="-8.525216000">
        <ele>132.200000</ele>
        <time>2020-10-17T13:34:15Z</time>
      </trkpt>
      <trkpt lat="39.709410000" lon="-8.525264000">
        <ele>132.200000</ele>
        <time>2020-10-17T13:34:16Z</time>
      </trkpt>
      <trkpt lat="39.709379000" lon="-8.525323000">
        <ele>132.600000</ele>
        <time>2020-10-17T13:34:17Z</time>
      </trkpt>
      <trkpt lat="39.709355000" lon="-8.525380000">
        <ele>132.800000</ele>
        <time>2020-10-17T13:34:18Z</time>
      </trkpt>
      <trkpt lat="39.709322000" lon="-8.525441000">
        <ele>132.800000</ele>
        <time>2020-10-17T13:34:19Z</time>
      </trkpt>
      <trkpt lat="39.709302000" lon="-8.525489000">
        <ele>133.000000</ele>
        <time>2020-10-17T13:34:20Z</time>
      </trkpt>
      <trkpt lat="39.709291000" lon="-8.525529000">
        <ele>133.400000</ele>
        <time>2020-10-17T13:34:21Z</time>
      </trkpt>
      <trkpt lat="39.709263000" lon="-8.525568000">
        <ele>133.600000</ele>
        <time>2020-10-17T13:34:22Z</time>
      </trkpt>
      <trkpt lat="39.709228000" lon="-8.525609000">
        <ele>134.000000</ele>
        <time>2020-10-17T13:34:23Z</time>
      </trkpt>
      <trkpt lat="39.709203000" lon="-8.525652000">
        <ele>134.200000</ele>
        <time>2020-10-17T13:34:24Z</time>
      </trkpt>
      <trkpt lat="39.709171000" lon="-8.525697000">
        <ele>134.200000</ele>
        <time>2020-10-17T13:34:25Z</time>
      </trkpt>
      <trkpt lat="39.709130000" lon="-8.525745000">
        <ele>134.200000</ele>
        <time>2020-10-17T13:34:26Z</time>
      </trkpt>
      <trkpt lat="39.709096000" lon="-8.525781000">
        <ele>134.200000</ele>
        <time>2020-10-17T13:34:27Z</time>
      </trkpt>
      <trkpt lat="39.709047000" lon="-8.525829000">
        <ele>134.400000</ele>
        <time>2020-10-17T13:34:28Z</time>
      </trkpt>
      <trkpt lat="39.708986000" lon="-8.525880000">
        <ele>134.400000</ele>
        <time>2020-10-17T13:34:29Z</time>
      </trkpt>
      <trkpt lat="39.708937000" lon="-8.525916000">
        <ele>134.400000</ele>
        <time>2020-10-17T13:34:30Z</time>
      </trkpt>
      <trkpt lat="39.708879000" lon="-8.525962000">
        <ele>134.600000</ele>
        <time>2020-10-17T13:34:31Z</time>
      </trkpt>
      <trkpt lat="39.708825000" lon="-8.525997000">
        <ele>134.600000</ele>
        <time>2020-10-17T13:34:32Z</time>
      </trkpt>
      <trkpt lat="39.708765000" lon="-8.526044000">
        <ele>134.600000</ele>
        <time>2020-10-17T13:34:33Z</time>
      </trkpt>
      <trkpt lat="39.708624000" lon="-8.526179000">
        <ele>134.600000</ele>
        <time>2020-10-17T13:34:36Z</time>
      </trkpt>
      <trkpt lat="39.708583000" lon="-8.526231000">
        <ele>134.800000</ele>
        <time>2020-10-17T13:34:37Z</time>
      </trkpt>
      <trkpt lat="39.708525000" lon="-8.526332000">
        <ele>134.600000</ele>
        <time>2020-10-17T13:34:39Z</time>
      </trkpt>
      <trkpt lat="39.708424000" lon="-8.526463000">
        <ele>134.800000</ele>
        <time>2020-10-17T13:34:42Z</time>
      </trkpt>
      <trkpt lat="39.708394000" lon="-8.526485000">
        <ele>134.600000</ele>
        <time>2020-10-17T13:34:43Z</time>
      </trkpt>
      <trkpt lat="39.708356000" lon="-8.526498000">
        <ele>134.600000</ele>
        <time>2020-10-17T13:34:44Z</time>
      </trkpt>
      <trkpt lat="39.708312000" lon="-8.526507000">
        <ele>134.800000</ele>
        <time>2020-10-17T13:34:45Z</time>
      </trkpt>
      <trkpt lat="39.708273000" lon="-8.526503000">
        <ele>135.000000</ele>
        <time>2020-10-17T13:34:46Z</time>
      </trkpt>
      <trkpt lat="39.708236000" lon="-8.526500000">
        <ele>134.800000</ele>
        <time>2020-10-17T13:34:47Z</time>
      </trkpt>
      <trkpt lat="39.708200000" lon="-8.526495000">
        <ele>134.800000</ele>
        <time>2020-10-17T13:34:48Z</time>
      </trkpt>
      <trkpt lat="39.708028000" lon="-8.526503000">
        <ele>135.400000</ele>
        <time>2020-10-17T13:34:52Z</time>
      </trkpt>
      <trkpt lat="39.707984000" lon="-8.526502000">
        <ele>135.600000</ele>
        <time>2020-10-17T13:34:53Z</time>
      </trkpt>
      <trkpt lat="39.707941000" lon="-8.526505000">
        <ele>136.000000</ele>
        <time>2020-10-17T13:34:54Z</time>
      </trkpt>
      <trkpt lat="39.707896000" lon="-8.526520000">
        <ele>136.000000</ele>
        <time>2020-10-17T13:34:55Z</time>
      </trkpt>
      <trkpt lat="39.707864000" lon="-8.526537000">
        <ele>136.200000</ele>
        <time>2020-10-17T13:34:56Z</time>
      </trkpt>
      <trkpt lat="39.707834000" lon="-8.526560000">
        <ele>136.400000</ele>
        <time>2020-10-17T13:34:57Z</time>
      </trkpt>
      <trkpt lat="39.707808000" lon="-8.526574000">
        <ele>136.600000</ele>
        <time>2020-10-17T13:34:58Z</time>
      </trkpt>
      <trkpt lat="39.707779000" lon="-8.526584000">
        <ele>136.800000</ele>
        <time>2020-10-17T13:34:59Z</time>
      </trkpt>
      <trkpt lat="39.707755000" lon="-8.526585000">
        <ele>136.800000</ele>
        <time>2020-10-17T13:35:00Z</time>
      </trkpt>
      <trkpt lat="39.707727000" lon="-8.526589000">
        <ele>137.000000</ele>
        <time>2020-10-17T13:35:01Z</time>
      </trkpt>
      <trkpt lat="39.707698000" lon="-8.526599000">
        <ele>137.200000</ele>
        <time>2020-10-17T13:35:02Z</time>
      </trkpt>
      <trkpt lat="39.707662000" lon="-8.526621000">
        <ele>137.400000</ele>
        <time>2020-10-17T13:35:03Z</time>
      </trkpt>
      <trkpt lat="39.707623000" lon="-8.526628000">
        <ele>137.400000</ele>
        <time>2020-10-17T13:35:04Z</time>
      </trkpt>
      <trkpt lat="39.707586000" lon="-8.526623000">
        <ele>137.600000</ele>
        <time>2020-10-17T13:35:05Z</time>
      </trkpt>
      <trkpt lat="39.707550000" lon="-8.526619000">
        <ele>137.800000</ele>
        <time>2020-10-17T13:35:06Z</time>
      </trkpt>
      <trkpt lat="39.707516000" lon="-8.526625000">
        <ele>138.200000</ele>
        <time>2020-10-17T13:35:07Z</time>
      </trkpt>
      <trkpt lat="39.707484000" lon="-8.526632000">
        <ele>138.600000</ele>
        <time>2020-10-17T13:35:08Z</time>
      </trkpt>
      <trkpt lat="39.707450000" lon="-8.526638000">
        <ele>139.000000</ele>
        <time>2020-10-17T13:35:09Z</time>
      </trkpt>
      <trkpt lat="39.707414000" lon="-8.526643000">
        <ele>139.000000</ele>
        <time>2020-10-17T13:35:10Z</time>
      </trkpt>
      <trkpt lat="39.707382000" lon="-8.526648000">
        <ele>139.400000</ele>
        <time>2020-10-17T13:35:11Z</time>
      </trkpt>
      <trkpt lat="39.707349000" lon="-8.526650000">
        <ele>139.600000</ele>
        <time>2020-10-17T13:35:12Z</time>
      </trkpt>
      <trkpt lat="39.707313000" lon="-8.526651000">
        <ele>139.800000</ele>
        <time>2020-10-17T13:35:13Z</time>
      </trkpt>
      <trkpt lat="39.707276000" lon="-8.526649000">
        <ele>139.800000</ele>
        <time>2020-10-17T13:35:14Z</time>
      </trkpt>
      <trkpt lat="39.707242000" lon="-8.526641000">
        <ele>140.000000</ele>
        <time>2020-10-17T13:35:15Z</time>
      </trkpt>
      <trkpt lat="39.707210000" lon="-8.526640000">
        <ele>140.200000</ele>
        <time>2020-10-17T13:35:16Z</time>
      </trkpt>
      <trkpt lat="39.707174000" lon="-8.526640000">
        <ele>140.400000</ele>
        <time>2020-10-17T13:35:17Z</time>
      </trkpt>
      <trkpt lat="39.707134000" lon="-8.526641000">
        <ele>140.600000</ele>
        <time>2020-10-17T13:35:18Z</time>
      </trkpt>
      <trkpt lat="39.707102000" lon="-8.526647000">
        <ele>140.600000</ele>
        <time>2020-10-17T13:35:19Z</time>
      </trkpt>
      <trkpt lat="39.707075000" lon="-8.526647000">
        <ele>140.800000</ele>
        <time>2020-10-17T13:35:20Z</time>
      </trkpt>
      <trkpt lat="39.707042000" lon="-8.526652000">
        <ele>140.800000</ele>
        <time>2020-10-17T13:35:21Z</time>
      </trkpt>
      <trkpt lat="39.706993000" lon="-8.526664000">
        <ele>141.200000</ele>
        <time>2020-10-17T13:35:22Z</time>
      </trkpt>
      <trkpt lat="39.706944000" lon="-8.526680000">
        <ele>141.200000</ele>
        <time>2020-10-17T13:35:23Z</time>
      </trkpt>
      <trkpt lat="39.706902000" lon="-8.526693000">
        <ele>141.200000</ele>
        <time>2020-10-17T13:35:24Z</time>
      </trkpt>
      <trkpt lat="39.706859000" lon="-8.526703000">
        <ele>141.400000</ele>
        <time>2020-10-17T13:35:25Z</time>
      </trkpt>
      <trkpt lat="39.706823000" lon="-8.526714000">
        <ele>141.400000</ele>
        <time>2020-10-17T13:35:26Z</time>
      </trkpt>
      <trkpt lat="39.706787000" lon="-8.526726000">
        <ele>141.400000</ele>
        <time>2020-10-17T13:35:27Z</time>
      </trkpt>
      <trkpt lat="39.706750000" lon="-8.526739000">
        <ele>141.400000</ele>
        <time>2020-10-17T13:35:28Z</time>
      </trkpt>
      <trkpt lat="39.706715000" lon="-8.526748000">
        <ele>141.400000</ele>
        <time>2020-10-17T13:35:29Z</time>
      </trkpt>
      <trkpt lat="39.706678000" lon="-8.526758000">
        <ele>141.400000</ele>
        <time>2020-10-17T13:35:30Z</time>
      </trkpt>
      <trkpt lat="39.706638000" lon="-8.526771000">
        <ele>141.400000</ele>
        <time>2020-10-17T13:35:31Z</time>
      </trkpt>
      <trkpt lat="39.706597000" lon="-8.526785000">
        <ele>141.400000</ele>
        <time>2020-10-17T13:35:32Z</time>
      </trkpt>
      <trkpt lat="39.706562000" lon="-8.526796000">
        <ele>141.400000</ele>
        <time>2020-10-17T13:35:33Z</time>
      </trkpt>
      <trkpt lat="39.706517000" lon="-8.526815000">
        <ele>141.600000</ele>
        <time>2020-10-17T13:35:34Z</time>
      </trkpt>
      <trkpt lat="39.706429000" lon="-8.526845000">
        <ele>141.800000</ele>
        <time>2020-10-17T13:35:36Z</time>
      </trkpt>
      <trkpt lat="39.706197000" lon="-8.526906000">
        <ele>142.400000</ele>
        <time>2020-10-17T13:35:41Z</time>
      </trkpt>
      <trkpt lat="39.706055000" lon="-8.526938000">
        <ele>142.400000</ele>
        <time>2020-10-17T13:35:44Z</time>
      </trkpt>
      <trkpt lat="39.706010000" lon="-8.526945000">
        <ele>142.400000</ele>
        <time>2020-10-17T13:35:45Z</time>
      </trkpt>
      <trkpt lat="39.705791000" lon="-8.527001000">
        <ele>142.400000</ele>
        <time>2020-10-17T13:35:49Z</time>
      </trkpt>
      <trkpt lat="39.705740000" lon="-8.527006000">
        <ele>142.400000</ele>
        <time>2020-10-17T13:35:50Z</time>
      </trkpt>
      <trkpt lat="39.705686000" lon="-8.527013000">
        <ele>142.400000</ele>
        <time>2020-10-17T13:35:51Z</time>
      </trkpt>
      <trkpt lat="39.705634000" lon="-8.527014000">
        <ele>142.400000</ele>
        <time>2020-10-17T13:35:52Z</time>
      </trkpt>
      <trkpt lat="39.705584000" lon="-8.527002000">
        <ele>142.400000</ele>
        <time>2020-10-17T13:35:53Z</time>
      </trkpt>
      <trkpt lat="39.705482000" lon="-8.526953000">
        <ele>142.200000</ele>
        <time>2020-10-17T13:35:55Z</time>
      </trkpt>
      <trkpt lat="39.705436000" lon="-8.526915000">
        <ele>142.200000</ele>
        <time>2020-10-17T13:35:56Z</time>
      </trkpt>
      <trkpt lat="39.705392000" lon="-8.526870000">
        <ele>142.400000</ele>
        <time>2020-10-17T13:35:57Z</time>
      </trkpt>
      <trkpt lat="39.705296000" lon="-8.526759000">
        <ele>142.200000</ele>
        <time>2020-10-17T13:35:59Z</time>
      </trkpt>
      <trkpt lat="39.705181000" lon="-8.526611000">
        <ele>141.800000</ele>
        <time>2020-10-17T13:36:01Z</time>
      </trkpt>
      <trkpt lat="39.705033000" lon="-8.526445000">
        <ele>141.400000</ele>
        <time>2020-10-17T13:36:03Z</time>
      </trkpt>
      <trkpt lat="39.704956000" lon="-8.526332000">
        <ele>141.000000</ele>
        <time>2020-10-17T13:36:04Z</time>
      </trkpt>
      <trkpt lat="39.704879000" lon="-8.526217000">
        <ele>140.600000</ele>
        <time>2020-10-17T13:36:05Z</time>
      </trkpt>
      <trkpt lat="39.704712000" lon="-8.526006000">
        <ele>139.400000</ele>
        <time>2020-10-17T13:36:07Z</time>
      </trkpt>
      <trkpt lat="39.704561000" lon="-8.525803000">
        <ele>138.400000</ele>
        <time>2020-10-17T13:36:09Z</time>
      </trkpt>
      <trkpt lat="39.704417000" lon="-8.525598000">
        <ele>137.200000</ele>
        <time>2020-10-17T13:36:11Z</time>
      </trkpt>
      <trkpt lat="39.704304000" lon="-8.525396000">
        <ele>136.400000</ele>
        <time>2020-10-17T13:36:13Z</time>
      </trkpt>
      <trkpt lat="39.704255000" lon="-8.525281000">
        <ele>135.600000</ele>
        <time>2020-10-17T13:36:14Z</time>
      </trkpt>
      <trkpt lat="39.704207000" lon="-8.525154000">
        <ele>134.800000</ele>
        <time>2020-10-17T13:36:15Z</time>
      </trkpt>
      <trkpt lat="39.704159000" lon="-8.525041000">
        <ele>133.800000</ele>
        <time>2020-10-17T13:36:16Z</time>
      </trkpt>
      <trkpt lat="39.704113000" lon="-8.524935000">
        <ele>133.000000</ele>
        <time>2020-10-17T13:36:17Z</time>
      </trkpt>
      <trkpt lat="39.704065000" lon="-8.524831000">
        <ele>132.200000</ele>
        <time>2020-10-17T13:36:18Z</time>
      </trkpt>
      <trkpt lat="39.704015000" lon="-8.524730000">
        <ele>131.400000</ele>
        <time>2020-10-17T13:36:19Z</time>
      </trkpt>
      <trkpt lat="39.703967000" lon="-8.524633000">
        <ele>130.800000</ele>
        <time>2020-10-17T13:36:20Z</time>
      </trkpt>
      <trkpt lat="39.703921000" lon="-8.524542000">
        <ele>130.200000</ele>
        <time>2020-10-17T13:36:21Z</time>
      </trkpt>
      <trkpt lat="39.703877000" lon="-8.524453000">
        <ele>129.800000</ele>
        <time>2020-10-17T13:36:22Z</time>
      </trkpt>
      <trkpt lat="39.703834000" lon="-8.524366000">
        <ele>129.400000</ele>
        <time>2020-10-17T13:36:23Z</time>
      </trkpt>
      <trkpt lat="39.703789000" lon="-8.524275000">
        <ele>128.800000</ele>
        <time>2020-10-17T13:36:24Z</time>
      </trkpt>
      <trkpt lat="39.703742000" lon="-8.524205000">
        <ele>128.600000</ele>
        <time>2020-10-17T13:36:25Z</time>
      </trkpt>
      <trkpt lat="39.703696000" lon="-8.524126000">
        <ele>128.600000</ele>
        <time>2020-10-17T13:36:26Z</time>
      </trkpt>
      <trkpt lat="39.703647000" lon="-8.524057000">
        <ele>128.000000</ele>
        <time>2020-10-17T13:36:27Z</time>
      </trkpt>
      <trkpt lat="39.703595000" lon="-8.524007000">
        <ele>127.800000</ele>
        <time>2020-10-17T13:36:28Z</time>
      </trkpt>
      <trkpt lat="39.703540000" lon="-8.523976000">
        <ele>127.600000</ele>
        <time>2020-10-17T13:36:29Z</time>
      </trkpt>
      <trkpt lat="39.703465000" lon="-8.523948000">
        <ele>127.400000</ele>
        <time>2020-10-17T13:36:30Z</time>
      </trkpt>
      <trkpt lat="39.703396000" lon="-8.523930000">
        <ele>127.600000</ele>
        <time>2020-10-17T13:36:31Z</time>
      </trkpt>
      <trkpt lat="39.703326000" lon="-8.523929000">
        <ele>127.200000</ele>
        <time>2020-10-17T13:36:32Z</time>
      </trkpt>
      <trkpt lat="39.703253000" lon="-8.523925000">
        <ele>127.200000</ele>
        <time>2020-10-17T13:36:33Z</time>
      </trkpt>
      <trkpt lat="39.703112000" lon="-8.523905000">
        <ele>127.000000</ele>
        <time>2020-10-17T13:36:35Z</time>
      </trkpt>
      <trkpt lat="39.703044000" lon="-8.523896000">
        <ele>127.000000</ele>
        <time>2020-10-17T13:36:36Z</time>
      </trkpt>
      <trkpt lat="39.702975000" lon="-8.523877000">
        <ele>127.000000</ele>
        <time>2020-10-17T13:36:37Z</time>
      </trkpt>
      <trkpt lat="39.702909000" lon="-8.523864000">
        <ele>127.000000</ele>
        <time>2020-10-17T13:36:38Z</time>
      </trkpt>
      <trkpt lat="39.702844000" lon="-8.523854000">
        <ele>127.000000</ele>
        <time>2020-10-17T13:36:39Z</time>
      </trkpt>
      <trkpt lat="39.702728000" lon="-8.523838000">
        <ele>127.000000</ele>
        <time>2020-10-17T13:36:41Z</time>
      </trkpt>
      <trkpt lat="39.702662000" lon="-8.523831000">
        <ele>127.000000</ele>
        <time>2020-10-17T13:36:42Z</time>
      </trkpt>
      <trkpt lat="39.702604000" lon="-8.523808000">
        <ele>127.000000</ele>
        <time>2020-10-17T13:36:43Z</time>
      </trkpt>
      <trkpt lat="39.702559000" lon="-8.523779000">
        <ele>127.000000</ele>
        <time>2020-10-17T13:36:44Z</time>
      </trkpt>
      <trkpt lat="39.702515000" lon="-8.523731000">
        <ele>127.000000</ele>
        <time>2020-10-17T13:36:45Z</time>
      </trkpt>
      <trkpt lat="39.702479000" lon="-8.523681000">
        <ele>127.000000</ele>
        <time>2020-10-17T13:36:46Z</time>
      </trkpt>
      <trkpt lat="39.702435000" lon="-8.523619000">
        <ele>127.200000</ele>
        <time>2020-10-17T13:36:47Z</time>
      </trkpt>
      <trkpt lat="39.702381000" lon="-8.523568000">
        <ele>127.000000</ele>
        <time>2020-10-17T13:36:48Z</time>
      </trkpt>
      <trkpt lat="39.702275000" lon="-8.523486000">
        <ele>127.000000</ele>
        <time>2020-10-17T13:36:50Z</time>
      </trkpt>
      <trkpt lat="39.701996000" lon="-8.523207000">
        <ele>126.800000</ele>
        <time>2020-10-17T13:36:55Z</time>
      </trkpt>
      <trkpt lat="39.701944000" lon="-8.523157000">
        <ele>126.800000</ele>
        <time>2020-10-17T13:36:56Z</time>
      </trkpt>
      <trkpt lat="39.701904000" lon="-8.523094000">
        <ele>126.600000</ele>
        <time>2020-10-17T13:36:57Z</time>
      </trkpt>
      <trkpt lat="39.701875000" lon="-8.523039000">
        <ele>126.400000</ele>
        <time>2020-10-17T13:36:58Z</time>
      </trkpt>
      <trkpt lat="39.701846000" lon="-8.522973000">
        <ele>126.200000</ele>
        <time>2020-10-17T13:36:59Z</time>
      </trkpt>
      <trkpt lat="39.701822000" lon="-8.522936000">
        <ele>126.200000</ele>
        <time>2020-10-17T13:37:00Z</time>
      </trkpt>
      <trkpt lat="39.701813000" lon="-8.522925000">
        <ele>126.200000</ele>
        <time>2020-10-17T13:37:01Z</time>
      </trkpt>
      <trkpt lat="39.701803000" lon="-8.522907000">
        <ele>126.000000</ele>
        <time>2020-10-17T13:37:02Z</time>
      </trkpt>
      <trkpt lat="39.701791000" lon="-8.522897000">
        <ele>126.000000</ele>
        <time>2020-10-17T13:37:03Z</time>
      </trkpt>
      <trkpt lat="39.701781000" lon="-8.522910000">
        <ele>125.800000</ele>
        <time>2020-10-17T13:37:04Z</time>
      </trkpt>
      <trkpt lat="39.701777000" lon="-8.522917000">
        <ele>126.000000</ele>
        <time>2020-10-17T13:37:05Z</time>
      </trkpt>
      <trkpt lat="39.701772000" lon="-8.522930000">
        <ele>125.800000</ele>
        <time>2020-10-17T13:37:06Z</time>
      </trkpt>
      <trkpt lat="39.701777000" lon="-8.522947000">
        <ele>125.600000</ele>
        <time>2020-10-17T13:37:07Z</time>
      </trkpt>
      <trkpt lat="39.701818000" lon="-8.522982000">
        <ele>125.200000</ele>
        <time>2020-10-17T13:37:10Z</time>
      </trkpt>
      <trkpt lat="39.701820000" lon="-8.523007000">
        <ele>125.000000</ele>
        <time>2020-10-17T13:37:11Z</time>
      </trkpt>
      <trkpt lat="39.701801000" lon="-8.523095000">
        <ele>125.200000</ele>
        <time>2020-10-17T13:37:14Z</time>
      </trkpt>
      <trkpt lat="39.701795000" lon="-8.523093000">
        <ele>125.200000</ele>
        <time>2020-10-17T13:37:15Z</time>
      </trkpt>
      <trkpt lat="39.701789000" lon="-8.523091000">
        <ele>125.200000</ele>
        <time>2020-10-17T13:37:16Z</time>
      </trkpt>
      <trkpt lat="39.701784000" lon="-8.523089000">
        <ele>125.200000</ele>
        <time>2020-10-17T13:37:17Z</time>
      </trkpt>
      <trkpt lat="39.701778000" lon="-8.523087000">
        <ele>125.200000</ele>
        <time>2020-10-17T13:37:18Z</time>
      </trkpt>
      <trkpt lat="39.701772000" lon="-8.523084000">
        <ele>125.000000</ele>
        <time>2020-10-17T13:37:19Z</time>
      </trkpt>
      <trkpt lat="39.701766000" lon="-8.523082000">
        <ele>125.000000</ele>
        <time>2020-10-17T13:37:20Z</time>
      </trkpt>
      <trkpt lat="39.701760000" lon="-8.523080000">
        <ele>125.200000</ele>
        <time>2020-10-17T13:37:21Z</time>
      </trkpt>
      <trkpt lat="39.701754000" lon="-8.523078000">
        <ele>125.000000</ele>
        <time>2020-10-17T13:37:22Z</time>
      </trkpt>
      <trkpt lat="39.701749000" lon="-8.523076000">
        <ele>125.000000</ele>
        <time>2020-10-17T13:37:23Z</time>
      </trkpt>
      <trkpt lat="39.701743000" lon="-8.523074000">
        <ele>125.200000</ele>
        <time>2020-10-17T13:37:24Z</time>
      </trkpt>
      <trkpt lat="39.701737000" lon="-8.523072000">
        <ele>125.200000</ele>
        <time>2020-10-17T13:37:25Z</time>
      </trkpt>
      <trkpt lat="39.701731000" lon="-8.523070000">
        <ele>125.000000</ele>
        <time>2020-10-17T13:37:26Z</time>
      </trkpt>
      <trkpt lat="39.701725000" lon="-8.523067000">
        <ele>125.000000</ele>
        <time>2020-10-17T13:37:27Z</time>
      </trkpt>
      <trkpt lat="39.701719000" lon="-8.523065000">
        <ele>125.000000</ele>
        <time>2020-10-17T13:37:28Z</time>
      </trkpt>
      <trkpt lat="39.701714000" lon="-8.523063000">
        <ele>125.000000</ele>
        <time>2020-10-17T13:37:29Z</time>
      </trkpt>
      <trkpt lat="39.701708000" lon="-8.523061000">
        <ele>125.200000</ele>
        <time>2020-10-17T13:37:30Z</time>
      </trkpt>
      <trkpt lat="39.701702000" lon="-8.523059000">
        <ele>125.000000</ele>
        <time>2020-10-17T13:37:31Z</time>
      </trkpt>
      <trkpt lat="39.701603000" lon="-8.523023000">
        <ele>125.000000</ele>
        <time>2020-10-17T13:37:32Z</time>
      </trkpt>
      <trkpt lat="39.701623000" lon="-8.523057000">
        <ele>125.000000</ele>
        <time>2020-10-17T13:37:33Z</time>
      </trkpt>
      <trkpt lat="39.701641000" lon="-8.523068000">
        <ele>125.400000</ele>
        <time>2020-10-17T13:37:34Z</time>
      </trkpt>
      <trkpt lat="39.701658000" lon="-8.523080000">
        <ele>125.400000</ele>
        <time>2020-10-17T13:37:35Z</time>
      </trkpt>
      <trkpt lat="39.701676000" lon="-8.523092000">
        <ele>125.800000</ele>
        <time>2020-10-17T13:37:36Z</time>
      </trkpt>
      <trkpt lat="39.701696000" lon="-8.523104000">
        <ele>126.200000</ele>
        <time>2020-10-17T13:37:37Z</time>
      </trkpt>
      <trkpt lat="39.701707000" lon="-8.523114000">
        <ele>126.400000</ele>
        <time>2020-10-17T13:37:38Z</time>
      </trkpt>
      <trkpt lat="39.701725000" lon="-8.523117000">
        <ele>126.400000</ele>
        <time>2020-10-17T13:37:39Z</time>
      </trkpt>
      <trkpt lat="39.701737000" lon="-8.523122000">
        <ele>126.600000</ele>
        <time>2020-10-17T13:37:40Z</time>
      </trkpt>
      <trkpt lat="39.701761000" lon="-8.523161000">
        <ele>126.800000</ele>
        <time>2020-10-17T13:37:43Z</time>
      </trkpt>
      <trkpt lat="39.701763000" lon="-8.523173000">
        <ele>126.800000</ele>
        <time>2020-10-17T13:37:44Z</time>
      </trkpt>
      <trkpt lat="39.701765000" lon="-8.523181000">
        <ele>127.000000</ele>
        <time>2020-10-17T13:37:45Z</time>
      </trkpt>
      <trkpt lat="39.701765000" lon="-8.523196000">
        <ele>127.200000</ele>
        <time>2020-10-17T13:37:46Z</time>
      </trkpt>
      <trkpt lat="39.701766000" lon="-8.523201000">
        <ele>127.400000</ele>
        <time>2020-10-17T13:37:47Z</time>
      </trkpt>
      <trkpt lat="39.701764000" lon="-8.523207000">
        <ele>127.600000</ele>
        <time>2020-10-17T13:37:48Z</time>
      </trkpt>
      <trkpt lat="39.701758000" lon="-8.523210000">
        <ele>127.800000</ele>
        <time>2020-10-17T13:37:49Z</time>
      </trkpt>
      <trkpt lat="39.701755000" lon="-8.523216000">
        <ele>128.000000</ele>
        <time>2020-10-17T13:37:50Z</time>
      </trkpt>
      <trkpt lat="39.701752000" lon="-8.523220000">
        <ele>128.200000</ele>
        <time>2020-10-17T13:37:51Z</time>
      </trkpt>
      <trkpt lat="39.701748000" lon="-8.523234000">
        <ele>128.200000</ele>
        <time>2020-10-17T13:37:52Z</time>
      </trkpt>
      <trkpt lat="39.701742000" lon="-8.523244000">
        <ele>128.400000</ele>
        <time>2020-10-17T13:37:53Z</time>
      </trkpt>
      <trkpt lat="39.701720000" lon="-8.523273000">
        <ele>128.400000</ele>
        <time>2020-10-17T13:37:54Z</time>
      </trkpt>
      <trkpt lat="39.701701000" lon="-8.523288000">
        <ele>128.800000</ele>
        <time>2020-10-17T13:37:55Z</time>
      </trkpt>
      <trkpt lat="39.701687000" lon="-8.523298000">
        <ele>128.800000</ele>
        <time>2020-10-17T13:37:56Z</time>
      </trkpt>
      <trkpt lat="39.701683000" lon="-8.523313000">
        <ele>129.000000</ele>
        <time>2020-10-17T13:37:58Z</time>
      </trkpt>
      <trkpt lat="39.701745000" lon="-8.523196000">
        <ele>129.200000</ele>
        <time>2020-10-17T13:39:23Z</time>
      </trkpt>
      <trkpt lat="39.701749000" lon="-8.523189000">
        <ele>129.200000</ele>
        <time>2020-10-17T13:39:24Z</time>
      </trkpt>
      <trkpt lat="39.701746000" lon="-8.523190000">
        <ele>129.200000</ele>
        <time>2020-10-17T13:39:25Z</time>
      </trkpt>
      <trkpt lat="39.701744000" lon="-8.523194000">
        <ele>129.200000</ele>
        <time>2020-10-17T13:39:26Z</time>
      </trkpt>
      <trkpt lat="39.701746000" lon="-8.523195000">
        <ele>129.200000</ele>
        <time>2020-10-17T13:39:27Z</time>
      </trkpt>
      <trkpt lat="39.701744000" lon="-8.523201000">
        <ele>129.200000</ele>
        <time>2020-10-17T13:39:28Z</time>
      </trkpt>
      <trkpt lat="39.701645000" lon="-8.523118000">
        <ele>129.400000</ele>
        <time>2020-10-17T13:45:24Z</time>
      </trkpt>
      <trkpt lat="39.701622000" lon="-8.523086000">
        <ele>129.400000</ele>
        <time>2020-10-17T13:45:25Z</time>
      </trkpt>
      <trkpt lat="39.701597000" lon="-8.523052000">
        <ele>129.600000</ele>
        <time>2020-10-17T13:45:26Z</time>
      </trkpt>
      <trkpt lat="39.701533000" lon="-8.522976000">
        <ele>129.400000</ele>
        <time>2020-10-17T13:45:29Z</time>
      </trkpt>
      <trkpt lat="39.701513000" lon="-8.522957000">
        <ele>129.400000</ele>
        <time>2020-10-17T13:45:30Z</time>
      </trkpt>
      <trkpt lat="39.701490000" lon="-8.522926000">
        <ele>129.400000</ele>
        <time>2020-10-17T13:45:31Z</time>
      </trkpt>
      <trkpt lat="39.701463000" lon="-8.522885000">
        <ele>129.400000</ele>
        <time>2020-10-17T13:45:32Z</time>
      </trkpt>
      <trkpt lat="39.701351000" lon="-8.522759000">
        <ele>129.400000</ele>
        <time>2020-10-17T13:45:36Z</time>
      </trkpt>
      <trkpt lat="39.701331000" lon="-8.522749000">
        <ele>129.400000</ele>
        <time>2020-10-17T13:45:37Z</time>
      </trkpt>
      <trkpt lat="39.701303000" lon="-8.522739000">
        <ele>129.400000</ele>
        <time>2020-10-17T13:45:38Z</time>
      </trkpt>
      <trkpt lat="39.701268000" lon="-8.522719000">
        <ele>129.600000</ele>
        <time>2020-10-17T13:45:39Z</time>
      </trkpt>
      <trkpt lat="39.701147000" lon="-8.522676000">
        <ele>129.600000</ele>
        <time>2020-10-17T13:45:42Z</time>
      </trkpt>
      <trkpt lat="39.701109000" lon="-8.522658000">
        <ele>129.600000</ele>
        <time>2020-10-17T13:45:43Z</time>
      </trkpt>
      <trkpt lat="39.701075000" lon="-8.522639000">
        <ele>129.400000</ele>
        <time>2020-10-17T13:45:44Z</time>
      </trkpt>
      <trkpt lat="39.701046000" lon="-8.522621000">
        <ele>129.600000</ele>
        <time>2020-10-17T13:45:45Z</time>
      </trkpt>
      <trkpt lat="39.701022000" lon="-8.522598000">
        <ele>129.600000</ele>
        <time>2020-10-17T13:45:46Z</time>
      </trkpt>
      <trkpt lat="39.701002000" lon="-8.522577000">
        <ele>129.600000</ele>
        <time>2020-10-17T13:45:47Z</time>
      </trkpt>
      <trkpt lat="39.700985000" lon="-8.522562000">
        <ele>129.600000</ele>
        <time>2020-10-17T13:45:48Z</time>
      </trkpt>
      <trkpt lat="39.700966000" lon="-8.522537000">
        <ele>129.800000</ele>
        <time>2020-10-17T13:45:49Z</time>
      </trkpt>
      <trkpt lat="39.700938000" lon="-8.522476000">
        <ele>129.800000</ele>
        <time>2020-10-17T13:45:51Z</time>
      </trkpt>
      <trkpt lat="39.700926000" lon="-8.522439000">
        <ele>129.800000</ele>
        <time>2020-10-17T13:45:52Z</time>
      </trkpt>
      <trkpt lat="39.700918000" lon="-8.522398000">
        <ele>130.000000</ele>
        <time>2020-10-17T13:45:53Z</time>
      </trkpt>
      <trkpt lat="39.700907000" lon="-8.522349000">
        <ele>130.000000</ele>
        <time>2020-10-17T13:45:54Z</time>
      </trkpt>
      <trkpt lat="39.700896000" lon="-8.522281000">
        <ele>130.600000</ele>
        <time>2020-10-17T13:45:56Z</time>
      </trkpt>
      <trkpt lat="39.700894000" lon="-8.522249000">
        <ele>130.800000</ele>
        <time>2020-10-17T13:45:57Z</time>
      </trkpt>
      <trkpt lat="39.700875000" lon="-8.522164000">
        <ele>131.000000</ele>
        <time>2020-10-17T13:45:59Z</time>
      </trkpt>
      <trkpt lat="39.700864000" lon="-8.522120000">
        <ele>131.200000</ele>
        <time>2020-10-17T13:46:00Z</time>
      </trkpt>
      <trkpt lat="39.700862000" lon="-8.522088000">
        <ele>131.200000</ele>
        <time>2020-10-17T13:46:01Z</time>
      </trkpt>
      <trkpt lat="39.700855000" lon="-8.522043000">
        <ele>131.400000</ele>
        <time>2020-10-17T13:46:02Z</time>
      </trkpt>
      <trkpt lat="39.700845000" lon="-8.521983000">
        <ele>131.600000</ele>
        <time>2020-10-17T13:46:03Z</time>
      </trkpt>
      <trkpt lat="39.700833000" lon="-8.521942000">
        <ele>131.600000</ele>
        <time>2020-10-17T13:46:04Z</time>
      </trkpt>
      <trkpt lat="39.700810000" lon="-8.521880000">
        <ele>131.800000</ele>
        <time>2020-10-17T13:46:05Z</time>
      </trkpt>
      <trkpt lat="39.700795000" lon="-8.521861000">
        <ele>131.800000</ele>
        <time>2020-10-17T13:46:06Z</time>
      </trkpt>
      <trkpt lat="39.700780000" lon="-8.521856000">
        <ele>131.800000</ele>
        <time>2020-10-17T13:46:07Z</time>
      </trkpt>
      <trkpt lat="39.700756000" lon="-8.521846000">
        <ele>132.200000</ele>
        <time>2020-10-17T13:46:08Z</time>
      </trkpt>
      <trkpt lat="39.700726000" lon="-8.521838000">
        <ele>132.200000</ele>
        <time>2020-10-17T13:46:09Z</time>
      </trkpt>
      <trkpt lat="39.700702000" lon="-8.521838000">
        <ele>132.400000</ele>
        <time>2020-10-17T13:46:10Z</time>
      </trkpt>
      <trkpt lat="39.700682000" lon="-8.521841000">
        <ele>132.600000</ele>
        <time>2020-10-17T13:46:11Z</time>
      </trkpt>
      <trkpt lat="39.700666000" lon="-8.521849000">
        <ele>132.600000</ele>
        <time>2020-10-17T13:46:12Z</time>
      </trkpt>
      <trkpt lat="39.700652000" lon="-8.521871000">
        <ele>133.000000</ele>
        <time>2020-10-17T13:46:13Z</time>
      </trkpt>
      <trkpt lat="39.700632000" lon="-8.521888000">
        <ele>133.200000</ele>
        <time>2020-10-17T13:46:14Z</time>
      </trkpt>
      <trkpt lat="39.700614000" lon="-8.521895000">
        <ele>133.200000</ele>
        <time>2020-10-17T13:46:15Z</time>
      </trkpt>
      <trkpt lat="39.700593000" lon="-8.521905000">
        <ele>133.600000</ele>
        <time>2020-10-17T13:46:16Z</time>
      </trkpt>
      <trkpt lat="39.700566000" lon="-8.521921000">
        <ele>133.600000</ele>
        <time>2020-10-17T13:46:17Z</time>
      </trkpt>
      <trkpt lat="39.700542000" lon="-8.521937000">
        <ele>133.600000</ele>
        <time>2020-10-17T13:46:18Z</time>
      </trkpt>
      <trkpt lat="39.700523000" lon="-8.521946000">
        <ele>134.000000</ele>
        <time>2020-10-17T13:46:19Z</time>
      </trkpt>
      <trkpt lat="39.700502000" lon="-8.521961000">
        <ele>134.200000</ele>
        <time>2020-10-17T13:46:20Z</time>
      </trkpt>
      <trkpt lat="39.700478000" lon="-8.521978000">
        <ele>134.200000</ele>
        <time>2020-10-17T13:46:21Z</time>
      </trkpt>
      <trkpt lat="39.700457000" lon="-8.521984000">
        <ele>134.400000</ele>
        <time>2020-10-17T13:46:22Z</time>
      </trkpt>
      <trkpt lat="39.700431000" lon="-8.521993000">
        <ele>134.400000</ele>
        <time>2020-10-17T13:46:23Z</time>
      </trkpt>
      <trkpt lat="39.700410000" lon="-8.521996000">
        <ele>134.600000</ele>
        <time>2020-10-17T13:46:24Z</time>
      </trkpt>
      <trkpt lat="39.700394000" lon="-8.522007000">
        <ele>135.000000</ele>
        <time>2020-10-17T13:46:25Z</time>
      </trkpt>
      <trkpt lat="39.700381000" lon="-8.522010000">
        <ele>135.200000</ele>
        <time>2020-10-17T13:46:26Z</time>
      </trkpt>
      <trkpt lat="39.700364000" lon="-8.522014000">
        <ele>135.400000</ele>
        <time>2020-10-17T13:46:27Z</time>
      </trkpt>
      <trkpt lat="39.700344000" lon="-8.522013000">
        <ele>135.600000</ele>
        <time>2020-10-17T13:46:28Z</time>
      </trkpt>
      <trkpt lat="39.700301000" lon="-8.522037000">
        <ele>135.800000</ele>
        <time>2020-10-17T13:46:29Z</time>
      </trkpt>
      <trkpt lat="39.700284000" lon="-8.522035000">
        <ele>135.800000</ele>
        <time>2020-10-17T13:46:30Z</time>
      </trkpt>
      <trkpt lat="39.700264000" lon="-8.522043000">
        <ele>136.000000</ele>
        <time>2020-10-17T13:46:31Z</time>
      </trkpt>
      <trkpt lat="39.700252000" lon="-8.522047000">
        <ele>136.000000</ele>
        <time>2020-10-17T13:46:32Z</time>
      </trkpt>
      <trkpt lat="39.700231000" lon="-8.522056000">
        <ele>136.400000</ele>
        <time>2020-10-17T13:46:33Z</time>
      </trkpt>
      <trkpt lat="39.700215000" lon="-8.522051000">
        <ele>136.600000</ele>
        <time>2020-10-17T13:46:34Z</time>
      </trkpt>
      <trkpt lat="39.700194000" lon="-8.522047000">
        <ele>137.000000</ele>
        <time>2020-10-17T13:46:35Z</time>
      </trkpt>
      <trkpt lat="39.700188000" lon="-8.522041000">
        <ele>137.200000</ele>
        <time>2020-10-17T13:46:36Z</time>
      </trkpt>
      <trkpt lat="39.700182000" lon="-8.522027000">
        <ele>137.400000</ele>
        <time>2020-10-17T13:46:37Z</time>
      </trkpt>
      <trkpt lat="39.700165000" lon="-8.522028000">
        <ele>137.400000</ele>
        <time>2020-10-17T13:46:38Z</time>
      </trkpt>
      <trkpt lat="39.700153000" lon="-8.522036000">
        <ele>137.600000</ele>
        <time>2020-10-17T13:46:39Z</time>
      </trkpt>
      <trkpt lat="39.700146000" lon="-8.522031000">
        <ele>137.800000</ele>
        <time>2020-10-17T13:46:40Z</time>
      </trkpt>
      <trkpt lat="39.700134000" lon="-8.522015000">
        <ele>138.200000</ele>
        <time>2020-10-17T13:46:41Z</time>
      </trkpt>
      <trkpt lat="39.700125000" lon="-8.522012000">
        <ele>138.400000</ele>
        <time>2020-10-17T13:46:42Z</time>
      </trkpt>
      <trkpt lat="39.700118000" lon="-8.522013000">
        <ele>138.400000</ele>
        <time>2020-10-17T13:46:43Z</time>
      </trkpt>
      <trkpt lat="39.700116000" lon="-8.522011000">
        <ele>138.400000</ele>
        <time>2020-10-17T13:46:44Z</time>
      </trkpt>
      <trkpt lat="39.700107000" lon="-8.522013000">
        <ele>139.000000</ele>
        <time>2020-10-17T13:46:45Z</time>
      </trkpt>
      <trkpt lat="39.700088000" lon="-8.522011000">
        <ele>139.200000</ele>
        <time>2020-10-17T13:46:46Z</time>
      </trkpt>
      <trkpt lat="39.700073000" lon="-8.522007000">
        <ele>139.400000</ele>
        <time>2020-10-17T13:46:47Z</time>
      </trkpt>
      <trkpt lat="39.700051000" lon="-8.522010000">
        <ele>139.600000</ele>
        <time>2020-10-17T13:46:48Z</time>
      </trkpt>
      <trkpt lat="39.700043000" lon="-8.522012000">
        <ele>139.800000</ele>
        <time>2020-10-17T13:46:49Z</time>
      </trkpt>
      <trkpt lat="39.700025000" lon="-8.522012000">
        <ele>140.200000</ele>
        <time>2020-10-17T13:46:50Z</time>
      </trkpt>
      <trkpt lat="39.700012000" lon="-8.522016000">
        <ele>140.600000</ele>
        <time>2020-10-17T13:46:51Z</time>
      </trkpt>
      <trkpt lat="39.700010000" lon="-8.522019000">
        <ele>140.800000</ele>
        <time>2020-10-17T13:46:52Z</time>
      </trkpt>
      <trkpt lat="39.699999000" lon="-8.522024000">
        <ele>141.200000</ele>
        <time>2020-10-17T13:46:53Z</time>
      </trkpt>
      <trkpt lat="39.699990000" lon="-8.522034000">
        <ele>141.400000</ele>
        <time>2020-10-17T13:46:54Z</time>
      </trkpt>
      <trkpt lat="39.699996000" lon="-8.522044000">
        <ele>141.600000</ele>
        <time>2020-10-17T13:46:55Z</time>
      </trkpt>
      <trkpt lat="39.699983000" lon="-8.522030000">
        <ele>142.000000</ele>
        <time>2020-10-17T13:46:56Z</time>
      </trkpt>
      <trkpt lat="39.699969000" lon="-8.522019000">
        <ele>142.000000</ele>
        <time>2020-10-17T13:46:57Z</time>
      </trkpt>
      <trkpt lat="39.699951000" lon="-8.522007000">
        <ele>142.400000</ele>
        <time>2020-10-17T13:46:58Z</time>
      </trkpt>
      <trkpt lat="39.699944000" lon="-8.521998000">
        <ele>142.600000</ele>
        <time>2020-10-17T13:46:59Z</time>
      </trkpt>
      <trkpt lat="39.699935000" lon="-8.521994000">
        <ele>143.000000</ele>
        <time>2020-10-17T13:47:00Z</time>
      </trkpt>
      <trkpt lat="39.699923000" lon="-8.521995000">
        <ele>143.000000</ele>
        <time>2020-10-17T13:47:01Z</time>
      </trkpt>
      <trkpt lat="39.699914000" lon="-8.521993000">
        <ele>143.200000</ele>
        <time>2020-10-17T13:47:02Z</time>
      </trkpt>
      <trkpt lat="39.699903000" lon="-8.521991000">
        <ele>143.400000</ele>
        <time>2020-10-17T13:47:03Z</time>
      </trkpt>
      <trkpt lat="39.699891000" lon="-8.521988000">
        <ele>143.800000</ele>
        <time>2020-10-17T13:47:04Z</time>
      </trkpt>
      <trkpt lat="39.699879000" lon="-8.521985000">
        <ele>143.800000</ele>
        <time>2020-10-17T13:47:05Z</time>
      </trkpt>
      <trkpt lat="39.699865000" lon="-8.521981000">
        <ele>143.800000</ele>
        <time>2020-10-17T13:47:06Z</time>
      </trkpt>
      <trkpt lat="39.699848000" lon="-8.521965000">
        <ele>144.000000</ele>
        <time>2020-10-17T13:47:07Z</time>
      </trkpt>
      <trkpt lat="39.699832000" lon="-8.521958000">
        <ele>144.400000</ele>
        <time>2020-10-17T13:47:08Z</time>
      </trkpt>
      <trkpt lat="39.699812000" lon="-8.521952000">
        <ele>144.400000</ele>
        <time>2020-10-17T13:47:09Z</time>
      </trkpt>
      <trkpt lat="39.699794000" lon="-8.521946000">
        <ele>144.600000</ele>
        <time>2020-10-17T13:47:10Z</time>
      </trkpt>
      <trkpt lat="39.699774000" lon="-8.521944000">
        <ele>144.800000</ele>
        <time>2020-10-17T13:47:11Z</time>
      </trkpt>
      <trkpt lat="39.699755000" lon="-8.521937000">
        <ele>145.000000</ele>
        <time>2020-10-17T13:47:12Z</time>
      </trkpt>
      <trkpt lat="39.699737000" lon="-8.521930000">
        <ele>145.200000</ele>
        <time>2020-10-17T13:47:13Z</time>
      </trkpt>
      <trkpt lat="39.699718000" lon="-8.521922000">
        <ele>145.600000</ele>
        <time>2020-10-17T13:47:14Z</time>
      </trkpt>
      <trkpt lat="39.699695000" lon="-8.521914000">
        <ele>145.600000</ele>
        <time>2020-10-17T13:47:15Z</time>
      </trkpt>
      <trkpt lat="39.699674000" lon="-8.521903000">
        <ele>145.800000</ele>
        <time>2020-10-17T13:47:16Z</time>
      </trkpt>
      <trkpt lat="39.699654000" lon="-8.521892000">
        <ele>146.000000</ele>
        <time>2020-10-17T13:47:17Z</time>
      </trkpt>
      <trkpt lat="39.699630000" lon="-8.521876000">
        <ele>146.000000</ele>
        <time>2020-10-17T13:47:18Z</time>
      </trkpt>
      <trkpt lat="39.699604000" lon="-8.521863000">
        <ele>146.200000</ele>
        <time>2020-10-17T13:47:19Z</time>
      </trkpt>
      <trkpt lat="39.699577000" lon="-8.521853000">
        <ele>146.400000</ele>
        <time>2020-10-17T13:47:20Z</time>
      </trkpt>
      <trkpt lat="39.699552000" lon="-8.521842000">
        <ele>146.400000</ele>
        <time>2020-10-17T13:47:21Z</time>
      </trkpt>
      <trkpt lat="39.699526000" lon="-8.521834000">
        <ele>146.400000</ele>
        <time>2020-10-17T13:47:22Z</time>
      </trkpt>
      <trkpt lat="39.699498000" lon="-8.521830000">
        <ele>146.600000</ele>
        <time>2020-10-17T13:47:23Z</time>
      </trkpt>
      <trkpt lat="39.699469000" lon="-8.521826000">
        <ele>146.600000</ele>
        <time>2020-10-17T13:47:24Z</time>
      </trkpt>
      <trkpt lat="39.699443000" lon="-8.521823000">
        <ele>146.800000</ele>
        <time>2020-10-17T13:47:25Z</time>
      </trkpt>
      <trkpt lat="39.699416000" lon="-8.521820000">
        <ele>147.000000</ele>
        <time>2020-10-17T13:47:26Z</time>
      </trkpt>
      <trkpt lat="39.699385000" lon="-8.521821000">
        <ele>147.000000</ele>
        <time>2020-10-17T13:47:27Z</time>
      </trkpt>
      <trkpt lat="39.699353000" lon="-8.521825000">
        <ele>147.000000</ele>
        <time>2020-10-17T13:47:28Z</time>
      </trkpt>
      <trkpt lat="39.699317000" lon="-8.521833000">
        <ele>147.000000</ele>
        <time>2020-10-17T13:47:29Z</time>
      </trkpt>
      <trkpt lat="39.699253000" lon="-8.521852000">
        <ele>147.000000</ele>
        <time>2020-10-17T13:47:31Z</time>
      </trkpt>
      <trkpt lat="39.699132000" lon="-8.521938000">
        <ele>147.200000</ele>
        <time>2020-10-17T13:47:35Z</time>
      </trkpt>
      <trkpt lat="39.699109000" lon="-8.521968000">
        <ele>147.000000</ele>
        <time>2020-10-17T13:47:36Z</time>
      </trkpt>
      <trkpt lat="39.699091000" lon="-8.521998000">
        <ele>147.000000</ele>
        <time>2020-10-17T13:47:37Z</time>
      </trkpt>
      <trkpt lat="39.699078000" lon="-8.522029000">
        <ele>147.200000</ele>
        <time>2020-10-17T13:47:38Z</time>
      </trkpt>
      <trkpt lat="39.699060000" lon="-8.522065000">
        <ele>147.000000</ele>
        <time>2020-10-17T13:47:39Z</time>
      </trkpt>
      <trkpt lat="39.699020000" lon="-8.522139000">
        <ele>147.000000</ele>
        <time>2020-10-17T13:47:41Z</time>
      </trkpt>
      <trkpt lat="39.698941000" lon="-8.522255000">
        <ele>147.200000</ele>
        <time>2020-10-17T13:47:44Z</time>
      </trkpt>
      <trkpt lat="39.698877000" lon="-8.522347000">
        <ele>147.200000</ele>
        <time>2020-10-17T13:47:46Z</time>
      </trkpt>
      <trkpt lat="39.698853000" lon="-8.522383000">
        <ele>147.000000</ele>
        <time>2020-10-17T13:47:47Z</time>
      </trkpt>
      <trkpt lat="39.698829000" lon="-8.522417000">
        <ele>147.000000</ele>
        <time>2020-10-17T13:47:48Z</time>
      </trkpt>
      <trkpt lat="39.698803000" lon="-8.522445000">
        <ele>147.200000</ele>
        <time>2020-10-17T13:47:49Z</time>
      </trkpt>
      <trkpt lat="39.698586000" lon="-8.522634000">
        <ele>147.800000</ele>
        <time>2020-10-17T13:47:56Z</time>
      </trkpt>
      <trkpt lat="39.698356000" lon="-8.522749000">
        <ele>148.000000</ele>
        <time>2020-10-17T13:48:02Z</time>
      </trkpt>
      <trkpt lat="39.698320000" lon="-8.522768000">
        <ele>148.000000</ele>
        <time>2020-10-17T13:48:03Z</time>
      </trkpt>
      <trkpt lat="39.698252000" lon="-8.522813000">
        <ele>148.200000</ele>
        <time>2020-10-17T13:48:05Z</time>
      </trkpt>
      <trkpt lat="39.698222000" lon="-8.522845000">
        <ele>148.200000</ele>
        <time>2020-10-17T13:48:06Z</time>
      </trkpt>
      <trkpt lat="39.698193000" lon="-8.522878000">
        <ele>148.400000</ele>
        <time>2020-10-17T13:48:07Z</time>
      </trkpt>
      <trkpt lat="39.698164000" lon="-8.522911000">
        <ele>148.200000</ele>
        <time>2020-10-17T13:48:08Z</time>
      </trkpt>
      <trkpt lat="39.698138000" lon="-8.522946000">
        <ele>148.200000</ele>
        <time>2020-10-17T13:48:09Z</time>
      </trkpt>
      <trkpt lat="39.698089000" lon="-8.523023000">
        <ele>148.200000</ele>
        <time>2020-10-17T13:48:11Z</time>
      </trkpt>
      <trkpt lat="39.698065000" lon="-8.523064000">
        <ele>148.200000</ele>
        <time>2020-10-17T13:48:12Z</time>
      </trkpt>
      <trkpt lat="39.698015000" lon="-8.523144000">
        <ele>148.400000</ele>
        <time>2020-10-17T13:48:14Z</time>
      </trkpt>
      <trkpt lat="39.697967000" lon="-8.523225000">
        <ele>148.600000</ele>
        <time>2020-10-17T13:48:16Z</time>
      </trkpt>
      <trkpt lat="39.697939000" lon="-8.523270000">
        <ele>149.000000</ele>
        <time>2020-10-17T13:48:17Z</time>
      </trkpt>
      <trkpt lat="39.697912000" lon="-8.523311000">
        <ele>149.000000</ele>
        <time>2020-10-17T13:48:18Z</time>
      </trkpt>
      <trkpt lat="39.697885000" lon="-8.523349000">
        <ele>149.400000</ele>
        <time>2020-10-17T13:48:19Z</time>
      </trkpt>
      <trkpt lat="39.697861000" lon="-8.523384000">
        <ele>149.600000</ele>
        <time>2020-10-17T13:48:20Z</time>
      </trkpt>
      <trkpt lat="39.697835000" lon="-8.523412000">
        <ele>149.800000</ele>
        <time>2020-10-17T13:48:21Z</time>
      </trkpt>
      <trkpt lat="39.697793000" lon="-8.523429000">
        <ele>149.800000</ele>
        <time>2020-10-17T13:48:22Z</time>
      </trkpt>
      <trkpt lat="39.697755000" lon="-8.523435000">
        <ele>150.000000</ele>
        <time>2020-10-17T13:48:23Z</time>
      </trkpt>
      <trkpt lat="39.697716000" lon="-8.523439000">
        <ele>150.200000</ele>
        <time>2020-10-17T13:48:24Z</time>
      </trkpt>
      <trkpt lat="39.697679000" lon="-8.523443000">
        <ele>150.000000</ele>
        <time>2020-10-17T13:48:25Z</time>
      </trkpt>
      <trkpt lat="39.697641000" lon="-8.523444000">
        <ele>150.200000</ele>
        <time>2020-10-17T13:48:26Z</time>
      </trkpt>
      <trkpt lat="39.697544000" lon="-8.523465000">
        <ele>150.400000</ele>
        <time>2020-10-17T13:48:28Z</time>
      </trkpt>
      <trkpt lat="39.697456000" lon="-8.523482000">
        <ele>150.200000</ele>
        <time>2020-10-17T13:48:30Z</time>
      </trkpt>
      <trkpt lat="39.697415000" lon="-8.523494000">
        <ele>150.200000</ele>
        <time>2020-10-17T13:48:31Z</time>
      </trkpt>
      <trkpt lat="39.697229000" lon="-8.523491000">
        <ele>150.400000</ele>
        <time>2020-10-17T13:48:35Z</time>
      </trkpt>
      <trkpt lat="39.696949000" lon="-8.523529000">
        <ele>150.400000</ele>
        <time>2020-10-17T13:48:39Z</time>
      </trkpt>
      <trkpt lat="39.696811000" lon="-8.523580000">
        <ele>150.200000</ele>
        <time>2020-10-17T13:48:41Z</time>
      </trkpt>
      <trkpt lat="39.696601000" lon="-8.523678000">
        <ele>150.200000</ele>
        <time>2020-10-17T13:48:44Z</time>
      </trkpt>
      <trkpt lat="39.696524000" lon="-8.523698000">
        <ele>150.000000</ele>
        <time>2020-10-17T13:48:45Z</time>
      </trkpt>
      <trkpt lat="39.696453000" lon="-8.523709000">
        <ele>149.600000</ele>
        <time>2020-10-17T13:48:46Z</time>
      </trkpt>
      <trkpt lat="39.696391000" lon="-8.523711000">
        <ele>149.600000</ele>
        <time>2020-10-17T13:48:47Z</time>
      </trkpt>
      <trkpt lat="39.696338000" lon="-8.523706000">
        <ele>149.200000</ele>
        <time>2020-10-17T13:48:48Z</time>
      </trkpt>
      <trkpt lat="39.696287000" lon="-8.523702000">
        <ele>149.000000</ele>
        <time>2020-10-17T13:48:49Z</time>
      </trkpt>
      <trkpt lat="39.696240000" lon="-8.523695000">
        <ele>149.000000</ele>
        <time>2020-10-17T13:48:50Z</time>
      </trkpt>
      <trkpt lat="39.696200000" lon="-8.523689000">
        <ele>149.000000</ele>
        <time>2020-10-17T13:48:51Z</time>
      </trkpt>
      <trkpt lat="39.696159000" lon="-8.523679000">
        <ele>149.000000</ele>
        <time>2020-10-17T13:48:52Z</time>
      </trkpt>
      <trkpt lat="39.696125000" lon="-8.523668000">
        <ele>148.800000</ele>
        <time>2020-10-17T13:48:53Z</time>
      </trkpt>
      <trkpt lat="39.696090000" lon="-8.523660000">
        <ele>149.000000</ele>
        <time>2020-10-17T13:48:54Z</time>
      </trkpt>
      <trkpt lat="39.695888000" lon="-8.523632000">
        <ele>149.200000</ele>
        <time>2020-10-17T13:48:59Z</time>
      </trkpt>
      <trkpt lat="39.695634000" lon="-8.523599000">
        <ele>150.400000</ele>
        <time>2020-10-17T13:49:04Z</time>
      </trkpt>
      <trkpt lat="39.695580000" lon="-8.523593000">
        <ele>150.600000</ele>
        <time>2020-10-17T13:49:05Z</time>
      </trkpt>
      <trkpt lat="39.695467000" lon="-8.523591000">
        <ele>150.600000</ele>
        <time>2020-10-17T13:49:07Z</time>
      </trkpt>
      <trkpt lat="39.695415000" lon="-8.523588000">
        <ele>150.600000</ele>
        <time>2020-10-17T13:49:08Z</time>
      </trkpt>
      <trkpt lat="39.695368000" lon="-8.523583000">
        <ele>150.600000</ele>
        <time>2020-10-17T13:49:09Z</time>
      </trkpt>
      <trkpt lat="39.695315000" lon="-8.523585000">
        <ele>150.800000</ele>
        <time>2020-10-17T13:49:10Z</time>
      </trkpt>
      <trkpt lat="39.695263000" lon="-8.523586000">
        <ele>150.600000</ele>
        <time>2020-10-17T13:49:11Z</time>
      </trkpt>
      <trkpt lat="39.695216000" lon="-8.523584000">
        <ele>150.600000</ele>
        <time>2020-10-17T13:49:12Z</time>
      </trkpt>
      <trkpt lat="39.695172000" lon="-8.523584000">
        <ele>150.600000</ele>
        <time>2020-10-17T13:49:13Z</time>
      </trkpt>
      <trkpt lat="39.695129000" lon="-8.523587000">
        <ele>150.600000</ele>
        <time>2020-10-17T13:49:14Z</time>
      </trkpt>
      <trkpt lat="39.695093000" lon="-8.523584000">
        <ele>150.800000</ele>
        <time>2020-10-17T13:49:15Z</time>
      </trkpt>
      <trkpt lat="39.695058000" lon="-8.523583000">
        <ele>150.800000</ele>
        <time>2020-10-17T13:49:16Z</time>
      </trkpt>
      <trkpt lat="39.695023000" lon="-8.523583000">
        <ele>150.800000</ele>
        <time>2020-10-17T13:49:17Z</time>
      </trkpt>
      <trkpt lat="39.694988000" lon="-8.523585000">
        <ele>150.800000</ele>
        <time>2020-10-17T13:49:18Z</time>
      </trkpt>
      <trkpt lat="39.694900000" lon="-8.523593000">
        <ele>150.800000</ele>
        <time>2020-10-17T13:49:20Z</time>
      </trkpt>
      <trkpt lat="39.694855000" lon="-8.523599000">
        <ele>151.200000</ele>
        <time>2020-10-17T13:49:21Z</time>
      </trkpt>
      <trkpt lat="39.694815000" lon="-8.523603000">
        <ele>151.400000</ele>
        <time>2020-10-17T13:49:22Z</time>
      </trkpt>
      <trkpt lat="39.694776000" lon="-8.523606000">
        <ele>151.800000</ele>
        <time>2020-10-17T13:49:23Z</time>
      </trkpt>
      <trkpt lat="39.694735000" lon="-8.523613000">
        <ele>151.800000</ele>
        <time>2020-10-17T13:49:24Z</time>
      </trkpt>
      <trkpt lat="39.694694000" lon="-8.523617000">
        <ele>152.200000</ele>
        <time>2020-10-17T13:49:25Z</time>
      </trkpt>
      <trkpt lat="39.694655000" lon="-8.523615000">
        <ele>152.400000</ele>
        <time>2020-10-17T13:49:26Z</time>
      </trkpt>
      <trkpt lat="39.694615000" lon="-8.523611000">
        <ele>152.600000</ele>
        <time>2020-10-17T13:49:27Z</time>
      </trkpt>
      <trkpt lat="39.694576000" lon="-8.523605000">
        <ele>152.600000</ele>
        <time>2020-10-17T13:49:28Z</time>
      </trkpt>
      <trkpt lat="39.694541000" lon="-8.523600000">
        <ele>153.000000</ele>
        <time>2020-10-17T13:49:29Z</time>
      </trkpt>
      <trkpt lat="39.694502000" lon="-8.523598000">
        <ele>153.000000</ele>
        <time>2020-10-17T13:49:30Z</time>
      </trkpt>
      <trkpt lat="39.694465000" lon="-8.523594000">
        <ele>153.200000</ele>
        <time>2020-10-17T13:49:31Z</time>
      </trkpt>
      <trkpt lat="39.694422000" lon="-8.523592000">
        <ele>153.200000</ele>
        <time>2020-10-17T13:49:32Z</time>
      </trkpt>
      <trkpt lat="39.694382000" lon="-8.523594000">
        <ele>153.400000</ele>
        <time>2020-10-17T13:49:33Z</time>
      </trkpt>
      <trkpt lat="39.694342000" lon="-8.523593000">
        <ele>153.400000</ele>
        <time>2020-10-17T13:49:34Z</time>
      </trkpt>
      <trkpt lat="39.694303000" lon="-8.523595000">
        <ele>153.400000</ele>
        <time>2020-10-17T13:49:35Z</time>
      </trkpt>
      <trkpt lat="39.694259000" lon="-8.523602000">
        <ele>153.600000</ele>
        <time>2020-10-17T13:49:36Z</time>
      </trkpt>
      <trkpt lat="39.694218000" lon="-8.523614000">
        <ele>154.000000</ele>
        <time>2020-10-17T13:49:37Z</time>
      </trkpt>
      <trkpt lat="39.694177000" lon="-8.523627000">
        <ele>154.200000</ele>
        <time>2020-10-17T13:49:38Z</time>
      </trkpt>
      <trkpt lat="39.694130000" lon="-8.523643000">
        <ele>154.200000</ele>
        <time>2020-10-17T13:49:39Z</time>
      </trkpt>
      <trkpt lat="39.694081000" lon="-8.523657000">
        <ele>154.600000</ele>
        <time>2020-10-17T13:49:40Z</time>
      </trkpt>
      <trkpt lat="39.694034000" lon="-8.523669000">
        <ele>154.800000</ele>
        <time>2020-10-17T13:49:41Z</time>
      </trkpt>
      <trkpt lat="39.693988000" lon="-8.523683000">
        <ele>155.000000</ele>
        <time>2020-10-17T13:49:42Z</time>
      </trkpt>
      <trkpt lat="39.693944000" lon="-8.523700000">
        <ele>155.400000</ele>
        <time>2020-10-17T13:49:43Z</time>
      </trkpt>
      <trkpt lat="39.693910000" lon="-8.523717000">
        <ele>155.600000</ele>
        <time>2020-10-17T13:49:44Z</time>
      </trkpt>
      <trkpt lat="39.693876000" lon="-8.523731000">
        <ele>155.600000</ele>
        <time>2020-10-17T13:49:45Z</time>
      </trkpt>
      <trkpt lat="39.693841000" lon="-8.523753000">
        <ele>155.800000</ele>
        <time>2020-10-17T13:49:46Z</time>
      </trkpt>
      <trkpt lat="39.693806000" lon="-8.523777000">
        <ele>156.000000</ele>
        <time>2020-10-17T13:49:47Z</time>
      </trkpt>
      <trkpt lat="39.693771000" lon="-8.523806000">
        <ele>156.200000</ele>
        <time>2020-10-17T13:49:48Z</time>
      </trkpt>
      <trkpt lat="39.693732000" lon="-8.523842000">
        <ele>156.200000</ele>
        <time>2020-10-17T13:49:49Z</time>
      </trkpt>
      <trkpt lat="39.693698000" lon="-8.523880000">
        <ele>156.200000</ele>
        <time>2020-10-17T13:49:50Z</time>
      </trkpt>
      <trkpt lat="39.693660000" lon="-8.523930000">
        <ele>156.600000</ele>
        <time>2020-10-17T13:49:51Z</time>
      </trkpt>
      <trkpt lat="39.693628000" lon="-8.523972000">
        <ele>156.800000</ele>
        <time>2020-10-17T13:49:52Z</time>
      </trkpt>
      <trkpt lat="39.693598000" lon="-8.524010000">
        <ele>157.200000</ele>
        <time>2020-10-17T13:49:53Z</time>
      </trkpt>
      <trkpt lat="39.693566000" lon="-8.524040000">
        <ele>157.400000</ele>
        <time>2020-10-17T13:49:54Z</time>
      </trkpt>
      <trkpt lat="39.693531000" lon="-8.524066000">
        <ele>157.400000</ele>
        <time>2020-10-17T13:49:55Z</time>
      </trkpt>
      <trkpt lat="39.693499000" lon="-8.524083000">
        <ele>157.400000</ele>
        <time>2020-10-17T13:49:56Z</time>
      </trkpt>
      <trkpt lat="39.693464000" lon="-8.524094000">
        <ele>157.400000</ele>
        <time>2020-10-17T13:49:57Z</time>
      </trkpt>
      <trkpt lat="39.693427000" lon="-8.524099000">
        <ele>157.600000</ele>
        <time>2020-10-17T13:49:58Z</time>
      </trkpt>
      <trkpt lat="39.693377000" lon="-8.524110000">
        <ele>157.600000</ele>
        <time>2020-10-17T13:49:59Z</time>
      </trkpt>
      <trkpt lat="39.693323000" lon="-8.524131000">
        <ele>157.800000</ele>
        <time>2020-10-17T13:50:00Z</time>
      </trkpt>
      <trkpt lat="39.693279000" lon="-8.524151000">
        <ele>158.000000</ele>
        <time>2020-10-17T13:50:01Z</time>
      </trkpt>
      <trkpt lat="39.693238000" lon="-8.524171000">
        <ele>158.000000</ele>
        <time>2020-10-17T13:50:02Z</time>
      </trkpt>
      <trkpt lat="39.693204000" lon="-8.524183000">
        <ele>158.200000</ele>
        <time>2020-10-17T13:50:03Z</time>
      </trkpt>
      <trkpt lat="39.693167000" lon="-8.524188000">
        <ele>158.000000</ele>
        <time>2020-10-17T13:50:04Z</time>
      </trkpt>
      <trkpt lat="39.693126000" lon="-8.524194000">
        <ele>158.200000</ele>
        <time>2020-10-17T13:50:05Z</time>
      </trkpt>
      <trkpt lat="39.693082000" lon="-8.524200000">
        <ele>158.200000</ele>
        <time>2020-10-17T13:50:06Z</time>
      </trkpt>
      <trkpt lat="39.693043000" lon="-8.524201000">
        <ele>158.200000</ele>
        <time>2020-10-17T13:50:07Z</time>
      </trkpt>
      <trkpt lat="39.692996000" lon="-8.524206000">
        <ele>158.200000</ele>
        <time>2020-10-17T13:50:08Z</time>
      </trkpt>
      <trkpt lat="39.692891000" lon="-8.524228000">
        <ele>158.200000</ele>
        <time>2020-10-17T13:50:10Z</time>
      </trkpt>
      <trkpt lat="39.692842000" lon="-8.524238000">
        <ele>158.400000</ele>
        <time>2020-10-17T13:50:11Z</time>
      </trkpt>
      <trkpt lat="39.692797000" lon="-8.524247000">
        <ele>158.600000</ele>
        <time>2020-10-17T13:50:12Z</time>
      </trkpt>
      <trkpt lat="39.692757000" lon="-8.524255000">
        <ele>158.600000</ele>
        <time>2020-10-17T13:50:13Z</time>
      </trkpt>
      <trkpt lat="39.692713000" lon="-8.524265000">
        <ele>158.800000</ele>
        <time>2020-10-17T13:50:14Z</time>
      </trkpt>
      <trkpt lat="39.692672000" lon="-8.524273000">
        <ele>158.800000</ele>
        <time>2020-10-17T13:50:15Z</time>
      </trkpt>
      <trkpt lat="39.692631000" lon="-8.524273000">
        <ele>159.000000</ele>
        <time>2020-10-17T13:50:16Z</time>
      </trkpt>
      <trkpt lat="39.692586000" lon="-8.524263000">
        <ele>159.000000</ele>
        <time>2020-10-17T13:50:17Z</time>
      </trkpt>
      <trkpt lat="39.692543000" lon="-8.524261000">
        <ele>159.200000</ele>
        <time>2020-10-17T13:50:18Z</time>
      </trkpt>
      <trkpt lat="39.692504000" lon="-8.524256000">
        <ele>159.600000</ele>
        <time>2020-10-17T13:50:19Z</time>
      </trkpt>
      <trkpt lat="39.692471000" lon="-8.524256000">
        <ele>160.000000</ele>
        <time>2020-10-17T13:50:20Z</time>
      </trkpt>
      <trkpt lat="39.692431000" lon="-8.524270000">
        <ele>160.200000</ele>
        <time>2020-10-17T13:50:21Z</time>
      </trkpt>
      <trkpt lat="39.692391000" lon="-8.524293000">
        <ele>160.400000</ele>
        <time>2020-10-17T13:50:22Z</time>
      </trkpt>
      <trkpt lat="39.692359000" lon="-8.524317000">
        <ele>160.600000</ele>
        <time>2020-10-17T13:50:23Z</time>
      </trkpt>
      <trkpt lat="39.692330000" lon="-8.524339000">
        <ele>160.800000</ele>
        <time>2020-10-17T13:50:24Z</time>
      </trkpt>
      <trkpt lat="39.692304000" lon="-8.524354000">
        <ele>160.800000</ele>
        <time>2020-10-17T13:50:25Z</time>
      </trkpt>
      <trkpt lat="39.692276000" lon="-8.524367000">
        <ele>161.000000</ele>
        <time>2020-10-17T13:50:26Z</time>
      </trkpt>
      <trkpt lat="39.692249000" lon="-8.524380000">
        <ele>161.200000</ele>
        <time>2020-10-17T13:50:27Z</time>
      </trkpt>
      <trkpt lat="39.692212000" lon="-8.524399000">
        <ele>161.000000</ele>
        <time>2020-10-17T13:50:28Z</time>
      </trkpt>
      <trkpt lat="39.692182000" lon="-8.524420000">
        <ele>161.200000</ele>
        <time>2020-10-17T13:50:29Z</time>
      </trkpt>
      <trkpt lat="39.692150000" lon="-8.524447000">
        <ele>161.200000</ele>
        <time>2020-10-17T13:50:30Z</time>
      </trkpt>
      <trkpt lat="39.692118000" lon="-8.524487000">
        <ele>161.600000</ele>
        <time>2020-10-17T13:50:31Z</time>
      </trkpt>
      <trkpt lat="39.692094000" lon="-8.524522000">
        <ele>161.800000</ele>
        <time>2020-10-17T13:50:32Z</time>
      </trkpt>
      <trkpt lat="39.692073000" lon="-8.524560000">
        <ele>162.000000</ele>
        <time>2020-10-17T13:50:33Z</time>
      </trkpt>
      <trkpt lat="39.692051000" lon="-8.524596000">
        <ele>162.000000</ele>
        <time>2020-10-17T13:50:34Z</time>
      </trkpt>
      <trkpt lat="39.692027000" lon="-8.524626000">
        <ele>162.200000</ele>
        <time>2020-10-17T13:50:35Z</time>
      </trkpt>
      <trkpt lat="39.691994000" lon="-8.524650000">
        <ele>162.200000</ele>
        <time>2020-10-17T13:50:36Z</time>
      </trkpt>
      <trkpt lat="39.691966000" lon="-8.524662000">
        <ele>162.600000</ele>
        <time>2020-10-17T13:50:37Z</time>
      </trkpt>
      <trkpt lat="39.691934000" lon="-8.524670000">
        <ele>162.600000</ele>
        <time>2020-10-17T13:50:38Z</time>
      </trkpt>
      <trkpt lat="39.691899000" lon="-8.524669000">
        <ele>162.600000</ele>
        <time>2020-10-17T13:50:39Z</time>
      </trkpt>
      <trkpt lat="39.691854000" lon="-8.524671000">
        <ele>162.800000</ele>
        <time>2020-10-17T13:50:40Z</time>
      </trkpt>
      <trkpt lat="39.691816000" lon="-8.524663000">
        <ele>163.000000</ele>
        <time>2020-10-17T13:50:41Z</time>
      </trkpt>
      <trkpt lat="39.691782000" lon="-8.524653000">
        <ele>163.000000</ele>
        <time>2020-10-17T13:50:42Z</time>
      </trkpt>
      <trkpt lat="39.691749000" lon="-8.524641000">
        <ele>163.600000</ele>
        <time>2020-10-17T13:50:43Z</time>
      </trkpt>
      <trkpt lat="39.691712000" lon="-8.524632000">
        <ele>163.800000</ele>
        <time>2020-10-17T13:50:44Z</time>
      </trkpt>
      <trkpt lat="39.691669000" lon="-8.524629000">
        <ele>164.000000</ele>
        <time>2020-10-17T13:50:45Z</time>
      </trkpt>
      <trkpt lat="39.691622000" lon="-8.524620000">
        <ele>164.200000</ele>
        <time>2020-10-17T13:50:46Z</time>
      </trkpt>
      <trkpt lat="39.691581000" lon="-8.524614000">
        <ele>164.600000</ele>
        <time>2020-10-17T13:50:47Z</time>
      </trkpt>
      <trkpt lat="39.691537000" lon="-8.524603000">
        <ele>164.600000</ele>
        <time>2020-10-17T13:50:48Z</time>
      </trkpt>
      <trkpt lat="39.691499000" lon="-8.524591000">
        <ele>164.800000</ele>
        <time>2020-10-17T13:50:49Z</time>
      </trkpt>
      <trkpt lat="39.691460000" lon="-8.524579000">
        <ele>164.800000</ele>
        <time>2020-10-17T13:50:50Z</time>
      </trkpt>
      <trkpt lat="39.691421000" lon="-8.524566000">
        <ele>164.800000</ele>
        <time>2020-10-17T13:50:51Z</time>
      </trkpt>
      <trkpt lat="39.691381000" lon="-8.524552000">
        <ele>164.800000</ele>
        <time>2020-10-17T13:50:52Z</time>
      </trkpt>
      <trkpt lat="39.691345000" lon="-8.524541000">
        <ele>165.000000</ele>
        <time>2020-10-17T13:50:53Z</time>
      </trkpt>
      <trkpt lat="39.691307000" lon="-8.524531000">
        <ele>165.200000</ele>
        <time>2020-10-17T13:50:54Z</time>
      </trkpt>
      <trkpt lat="39.691268000" lon="-8.524518000">
        <ele>165.200000</ele>
        <time>2020-10-17T13:50:55Z</time>
      </trkpt>
      <trkpt lat="39.691232000" lon="-8.524507000">
        <ele>165.200000</ele>
        <time>2020-10-17T13:50:56Z</time>
      </trkpt>
      <trkpt lat="39.691195000" lon="-8.524495000">
        <ele>165.400000</ele>
        <time>2020-10-17T13:50:57Z</time>
      </trkpt>
      <trkpt lat="39.691160000" lon="-8.524481000">
        <ele>165.600000</ele>
        <time>2020-10-17T13:50:58Z</time>
      </trkpt>
      <trkpt lat="39.691127000" lon="-8.524470000">
        <ele>165.600000</ele>
        <time>2020-10-17T13:50:59Z</time>
      </trkpt>
      <trkpt lat="39.691089000" lon="-8.524471000">
        <ele>165.800000</ele>
        <time>2020-10-17T13:51:00Z</time>
      </trkpt>
      <trkpt lat="39.691049000" lon="-8.524465000">
        <ele>166.200000</ele>
        <time>2020-10-17T13:51:01Z</time>
      </trkpt>
      <trkpt lat="39.691000000" lon="-8.524467000">
        <ele>166.200000</ele>
        <time>2020-10-17T13:51:02Z</time>
      </trkpt>
      <trkpt lat="39.690958000" lon="-8.524467000">
        <ele>166.400000</ele>
        <time>2020-10-17T13:51:03Z</time>
      </trkpt>
      <trkpt lat="39.690918000" lon="-8.524470000">
        <ele>166.400000</ele>
        <time>2020-10-17T13:51:04Z</time>
      </trkpt>
      <trkpt lat="39.690879000" lon="-8.524473000">
        <ele>166.400000</ele>
        <time>2020-10-17T13:51:05Z</time>
      </trkpt>
      <trkpt lat="39.690839000" lon="-8.524480000">
        <ele>166.600000</ele>
        <time>2020-10-17T13:51:06Z</time>
      </trkpt>
      <trkpt lat="39.690792000" lon="-8.524493000">
        <ele>166.600000</ele>
        <time>2020-10-17T13:51:07Z</time>
      </trkpt>
      <trkpt lat="39.690744000" lon="-8.524498000">
        <ele>166.800000</ele>
        <time>2020-10-17T13:51:08Z</time>
      </trkpt>
      <trkpt lat="39.690706000" lon="-8.524494000">
        <ele>167.200000</ele>
        <time>2020-10-17T13:51:09Z</time>
      </trkpt>
      <trkpt lat="39.690666000" lon="-8.524483000">
        <ele>167.000000</ele>
        <time>2020-10-17T13:51:10Z</time>
      </trkpt>
      <trkpt lat="39.690627000" lon="-8.524470000">
        <ele>167.200000</ele>
        <time>2020-10-17T13:51:11Z</time>
      </trkpt>
      <trkpt lat="39.690590000" lon="-8.524455000">
        <ele>167.400000</ele>
        <time>2020-10-17T13:51:12Z</time>
      </trkpt>
      <trkpt lat="39.690551000" lon="-8.524438000">
        <ele>167.600000</ele>
        <time>2020-10-17T13:51:13Z</time>
      </trkpt>
      <trkpt lat="39.690513000" lon="-8.524420000">
        <ele>167.600000</ele>
        <time>2020-10-17T13:51:14Z</time>
      </trkpt>
      <trkpt lat="39.690468000" lon="-8.524409000">
        <ele>167.600000</ele>
        <time>2020-10-17T13:51:15Z</time>
      </trkpt>
      <trkpt lat="39.690429000" lon="-8.524396000">
        <ele>167.800000</ele>
        <time>2020-10-17T13:51:16Z</time>
      </trkpt>
      <trkpt lat="39.690390000" lon="-8.524395000">
        <ele>168.400000</ele>
        <time>2020-10-17T13:51:17Z</time>
      </trkpt>
      <trkpt lat="39.690355000" lon="-8.524388000">
        <ele>168.600000</ele>
        <time>2020-10-17T13:51:18Z</time>
      </trkpt>
      <trkpt lat="39.690319000" lon="-8.524385000">
        <ele>168.600000</ele>
        <time>2020-10-17T13:51:19Z</time>
      </trkpt>
      <trkpt lat="39.690283000" lon="-8.524386000">
        <ele>168.600000</ele>
        <time>2020-10-17T13:51:20Z</time>
      </trkpt>
      <trkpt lat="39.690249000" lon="-8.524387000">
        <ele>168.600000</ele>
        <time>2020-10-17T13:51:21Z</time>
      </trkpt>
      <trkpt lat="39.690215000" lon="-8.524388000">
        <ele>168.800000</ele>
        <time>2020-10-17T13:51:22Z</time>
      </trkpt>
      <trkpt lat="39.690182000" lon="-8.524389000">
        <ele>169.000000</ele>
        <time>2020-10-17T13:51:23Z</time>
      </trkpt>
      <trkpt lat="39.690144000" lon="-8.524394000">
        <ele>169.400000</ele>
        <time>2020-10-17T13:51:24Z</time>
      </trkpt>
      <trkpt lat="39.690108000" lon="-8.524397000">
        <ele>169.400000</ele>
        <time>2020-10-17T13:51:25Z</time>
      </trkpt>
      <trkpt lat="39.690070000" lon="-8.524405000">
        <ele>169.600000</ele>
        <time>2020-10-17T13:51:26Z</time>
      </trkpt>
      <trkpt lat="39.690036000" lon="-8.524411000">
        <ele>169.600000</ele>
        <time>2020-10-17T13:51:27Z</time>
      </trkpt>
      <trkpt lat="39.690001000" lon="-8.524418000">
        <ele>169.800000</ele>
        <time>2020-10-17T13:51:28Z</time>
      </trkpt>
      <trkpt lat="39.689969000" lon="-8.524426000">
        <ele>170.000000</ele>
        <time>2020-10-17T13:51:29Z</time>
      </trkpt>
      <trkpt lat="39.689936000" lon="-8.524432000">
        <ele>170.000000</ele>
        <time>2020-10-17T13:51:30Z</time>
      </trkpt>
      <trkpt lat="39.689905000" lon="-8.524434000">
        <ele>170.200000</ele>
        <time>2020-10-17T13:51:31Z</time>
      </trkpt>
      <trkpt lat="39.689870000" lon="-8.524438000">
        <ele>170.400000</ele>
        <time>2020-10-17T13:51:32Z</time>
      </trkpt>
      <trkpt lat="39.689839000" lon="-8.524439000">
        <ele>170.800000</ele>
        <time>2020-10-17T13:51:33Z</time>
      </trkpt>
      <trkpt lat="39.689807000" lon="-8.524441000">
        <ele>171.200000</ele>
        <time>2020-10-17T13:51:34Z</time>
      </trkpt>
      <trkpt lat="39.689770000" lon="-8.524448000">
        <ele>171.400000</ele>
        <time>2020-10-17T13:51:35Z</time>
      </trkpt>
      <trkpt lat="39.689728000" lon="-8.524458000">
        <ele>171.600000</ele>
        <time>2020-10-17T13:51:36Z</time>
      </trkpt>
      <trkpt lat="39.689691000" lon="-8.524464000">
        <ele>171.800000</ele>
        <time>2020-10-17T13:51:37Z</time>
      </trkpt>
      <trkpt lat="39.689656000" lon="-8.524467000">
        <ele>172.000000</ele>
        <time>2020-10-17T13:51:38Z</time>
      </trkpt>
      <trkpt lat="39.689611000" lon="-8.524477000">
        <ele>172.200000</ele>
        <time>2020-10-17T13:51:39Z</time>
      </trkpt>
      <trkpt lat="39.689566000" lon="-8.524483000">
        <ele>172.200000</ele>
        <time>2020-10-17T13:51:40Z</time>
      </trkpt>
      <trkpt lat="39.689529000" lon="-8.524483000">
        <ele>172.200000</ele>
        <time>2020-10-17T13:51:41Z</time>
      </trkpt>
      <trkpt lat="39.689493000" lon="-8.524483000">
        <ele>172.400000</ele>
        <time>2020-10-17T13:51:42Z</time>
      </trkpt>
      <trkpt lat="39.689455000" lon="-8.524487000">
        <ele>172.600000</ele>
        <time>2020-10-17T13:51:43Z</time>
      </trkpt>
      <trkpt lat="39.689419000" lon="-8.524491000">
        <ele>172.600000</ele>
        <time>2020-10-17T13:51:44Z</time>
      </trkpt>
      <trkpt lat="39.689384000" lon="-8.524496000">
        <ele>172.600000</ele>
        <time>2020-10-17T13:51:45Z</time>
      </trkpt>
      <trkpt lat="39.689343000" lon="-8.524502000">
        <ele>172.800000</ele>
        <time>2020-10-17T13:51:46Z</time>
      </trkpt>
      <trkpt lat="39.689307000" lon="-8.524503000">
        <ele>173.000000</ele>
        <time>2020-10-17T13:51:47Z</time>
      </trkpt>
      <trkpt lat="39.689270000" lon="-8.524503000">
        <ele>173.000000</ele>
        <time>2020-10-17T13:51:48Z</time>
      </trkpt>
      <trkpt lat="39.689230000" lon="-8.524502000">
        <ele>173.000000</ele>
        <time>2020-10-17T13:51:49Z</time>
      </trkpt>
      <trkpt lat="39.689194000" lon="-8.524499000">
        <ele>173.200000</ele>
        <time>2020-10-17T13:51:50Z</time>
      </trkpt>
      <trkpt lat="39.689155000" lon="-8.524497000">
        <ele>173.200000</ele>
        <time>2020-10-17T13:51:51Z</time>
      </trkpt>
      <trkpt lat="39.689122000" lon="-8.524497000">
        <ele>173.400000</ele>
        <time>2020-10-17T13:51:52Z</time>
      </trkpt>
      <trkpt lat="39.689095000" lon="-8.524502000">
        <ele>173.800000</ele>
        <time>2020-10-17T13:51:53Z</time>
      </trkpt>
      <trkpt lat="39.689073000" lon="-8.524516000">
        <ele>174.000000</ele>
        <time>2020-10-17T13:51:54Z</time>
      </trkpt>
      <trkpt lat="39.689066000" lon="-8.524533000">
        <ele>174.200000</ele>
        <time>2020-10-17T13:51:55Z</time>
      </trkpt>
      <trkpt lat="39.689059000" lon="-8.524555000">
        <ele>174.200000</ele>
        <time>2020-10-17T13:51:56Z</time>
      </trkpt>
      <trkpt lat="39.689055000" lon="-8.524591000">
        <ele>174.200000</ele>
        <time>2020-10-17T13:51:57Z</time>
      </trkpt>
      <trkpt lat="39.689048000" lon="-8.524630000">
        <ele>174.400000</ele>
        <time>2020-10-17T13:51:58Z</time>
      </trkpt>
      <trkpt lat="39.689033000" lon="-8.524659000">
        <ele>174.800000</ele>
        <time>2020-10-17T13:51:59Z</time>
      </trkpt>
      <trkpt lat="39.689009000" lon="-8.524681000">
        <ele>175.000000</ele>
        <time>2020-10-17T13:52:00Z</time>
      </trkpt>
      <trkpt lat="39.688978000" lon="-8.524694000">
        <ele>175.200000</ele>
        <time>2020-10-17T13:52:01Z</time>
      </trkpt>
      <trkpt lat="39.688942000" lon="-8.524701000">
        <ele>175.200000</ele>
        <time>2020-10-17T13:52:02Z</time>
      </trkpt>
      <trkpt lat="39.688901000" lon="-8.524707000">
        <ele>175.200000</ele>
        <time>2020-10-17T13:52:03Z</time>
      </trkpt>
      <trkpt lat="39.688861000" lon="-8.524711000">
        <ele>175.400000</ele>
        <time>2020-10-17T13:52:04Z</time>
      </trkpt>
      <trkpt lat="39.688824000" lon="-8.524710000">
        <ele>175.600000</ele>
        <time>2020-10-17T13:52:05Z</time>
      </trkpt>
      <trkpt lat="39.688780000" lon="-8.524716000">
        <ele>175.400000</ele>
        <time>2020-10-17T13:52:06Z</time>
      </trkpt>
      <trkpt lat="39.688728000" lon="-8.524729000">
        <ele>175.600000</ele>
        <time>2020-10-17T13:52:07Z</time>
      </trkpt>
      <trkpt lat="39.688677000" lon="-8.524745000">
        <ele>175.800000</ele>
        <time>2020-10-17T13:52:08Z</time>
      </trkpt>
      <trkpt lat="39.688622000" lon="-8.524760000">
        <ele>175.600000</ele>
        <time>2020-10-17T13:52:09Z</time>
      </trkpt>
      <trkpt lat="39.688518000" lon="-8.524766000">
        <ele>175.600000</ele>
        <time>2020-10-17T13:52:11Z</time>
      </trkpt>
      <trkpt lat="39.688470000" lon="-8.524761000">
        <ele>175.600000</ele>
        <time>2020-10-17T13:52:12Z</time>
      </trkpt>
      <trkpt lat="39.688421000" lon="-8.524754000">
        <ele>175.600000</ele>
        <time>2020-10-17T13:52:13Z</time>
      </trkpt>
      <trkpt lat="39.688374000" lon="-8.524740000">
        <ele>175.800000</ele>
        <time>2020-10-17T13:52:14Z</time>
      </trkpt>
      <trkpt lat="39.688268000" lon="-8.524697000">
        <ele>175.600000</ele>
        <time>2020-10-17T13:52:16Z</time>
      </trkpt>
      <trkpt lat="39.688219000" lon="-8.524666000">
        <ele>175.800000</ele>
        <time>2020-10-17T13:52:17Z</time>
      </trkpt>
      <trkpt lat="39.688175000" lon="-8.524632000">
        <ele>175.800000</ele>
        <time>2020-10-17T13:52:18Z</time>
      </trkpt>
      <trkpt lat="39.688068000" lon="-8.524577000">
        <ele>175.600000</ele>
        <time>2020-10-17T13:52:20Z</time>
      </trkpt>
      <trkpt lat="39.687954000" lon="-8.524547000">
        <ele>175.600000</ele>
        <time>2020-10-17T13:52:22Z</time>
      </trkpt>
      <trkpt lat="39.687849000" lon="-8.524534000">
        <ele>175.600000</ele>
        <time>2020-10-17T13:52:24Z</time>
      </trkpt>
      <trkpt lat="39.687741000" lon="-8.524518000">
        <ele>175.400000</ele>
        <time>2020-10-17T13:52:26Z</time>
      </trkpt>
      <trkpt lat="39.687693000" lon="-8.524512000">
        <ele>175.400000</ele>
        <time>2020-10-17T13:52:27Z</time>
      </trkpt>
      <trkpt lat="39.687642000" lon="-8.524519000">
        <ele>175.200000</ele>
        <time>2020-10-17T13:52:28Z</time>
      </trkpt>
      <trkpt lat="39.687592000" lon="-8.524524000">
        <ele>175.200000</ele>
        <time>2020-10-17T13:52:29Z</time>
      </trkpt>
      <trkpt lat="39.687549000" lon="-8.524532000">
        <ele>175.000000</ele>
        <time>2020-10-17T13:52:30Z</time>
      </trkpt>
      <trkpt lat="39.687493000" lon="-8.524533000">
        <ele>175.000000</ele>
        <time>2020-10-17T13:52:31Z</time>
      </trkpt>
      <trkpt lat="39.687315000" lon="-8.524572000">
        <ele>175.200000</ele>
        <time>2020-10-17T13:52:34Z</time>
      </trkpt>
      <trkpt lat="39.686946000" lon="-8.524695000">
        <ele>175.200000</ele>
        <time>2020-10-17T13:52:40Z</time>
      </trkpt>
      <trkpt lat="39.686662000" lon="-8.524852000">
        <ele>175.200000</ele>
        <time>2020-10-17T13:52:44Z</time>
      </trkpt>
      <trkpt lat="39.686439000" lon="-8.524965000">
        <ele>175.200000</ele>
        <time>2020-10-17T13:52:47Z</time>
      </trkpt>
      <trkpt lat="39.686363000" lon="-8.525003000">
        <ele>175.000000</ele>
        <time>2020-10-17T13:52:48Z</time>
      </trkpt>
      <trkpt lat="39.686295000" lon="-8.525036000">
        <ele>175.000000</ele>
        <time>2020-10-17T13:52:49Z</time>
      </trkpt>
      <trkpt lat="39.686027000" lon="-8.525196000">
        <ele>174.400000</ele>
        <time>2020-10-17T13:52:53Z</time>
      </trkpt>
      <trkpt lat="39.685966000" lon="-8.525258000">
        <ele>174.200000</ele>
        <time>2020-10-17T13:52:54Z</time>
      </trkpt>
      <trkpt lat="39.685915000" lon="-8.525332000">
        <ele>174.000000</ele>
        <time>2020-10-17T13:52:55Z</time>
      </trkpt>
      <trkpt lat="39.685876000" lon="-8.525414000">
        <ele>173.800000</ele>
        <time>2020-10-17T13:52:56Z</time>
      </trkpt>
      <trkpt lat="39.685854000" lon="-8.525497000">
        <ele>173.600000</ele>
        <time>2020-10-17T13:52:57Z</time>
      </trkpt>
      <trkpt lat="39.685835000" lon="-8.525579000">
        <ele>173.200000</ele>
        <time>2020-10-17T13:52:58Z</time>
      </trkpt>
      <trkpt lat="39.685809000" lon="-8.525659000">
        <ele>172.800000</ele>
        <time>2020-10-17T13:52:59Z</time>
      </trkpt>
      <trkpt lat="39.685768000" lon="-8.525730000">
        <ele>172.400000</ele>
        <time>2020-10-17T13:53:00Z</time>
      </trkpt>
      <trkpt lat="39.685710000" lon="-8.525785000">
        <ele>172.200000</ele>
        <time>2020-10-17T13:53:01Z</time>
      </trkpt>
      <trkpt lat="39.685651000" lon="-8.525821000">
        <ele>172.000000</ele>
        <time>2020-10-17T13:53:02Z</time>
      </trkpt>
      <trkpt lat="39.685592000" lon="-8.525832000">
        <ele>171.600000</ele>
        <time>2020-10-17T13:53:03Z</time>
      </trkpt>
      <trkpt lat="39.685527000" lon="-8.525840000">
        <ele>171.600000</ele>
        <time>2020-10-17T13:53:04Z</time>
      </trkpt>
      <trkpt lat="39.685463000" lon="-8.525842000">
        <ele>171.400000</ele>
        <time>2020-10-17T13:53:05Z</time>
      </trkpt>
      <trkpt lat="39.685398000" lon="-8.525846000">
        <ele>171.200000</ele>
        <time>2020-10-17T13:53:06Z</time>
      </trkpt>
      <trkpt lat="39.685333000" lon="-8.525850000">
        <ele>171.200000</ele>
        <time>2020-10-17T13:53:07Z</time>
      </trkpt>
      <trkpt lat="39.685263000" lon="-8.525855000">
        <ele>171.400000</ele>
        <time>2020-10-17T13:53:08Z</time>
      </trkpt>
      <trkpt lat="39.685129000" lon="-8.525857000">
        <ele>171.200000</ele>
        <time>2020-10-17T13:53:10Z</time>
      </trkpt>
      <trkpt lat="39.685067000" lon="-8.525854000">
        <ele>171.200000</ele>
        <time>2020-10-17T13:53:11Z</time>
      </trkpt>
      <trkpt lat="39.685007000" lon="-8.525851000">
        <ele>171.200000</ele>
        <time>2020-10-17T13:53:12Z</time>
      </trkpt>
      <trkpt lat="39.684946000" lon="-8.525851000">
        <ele>171.200000</ele>
        <time>2020-10-17T13:53:13Z</time>
      </trkpt>
      <trkpt lat="39.684888000" lon="-8.525847000">
        <ele>171.200000</ele>
        <time>2020-10-17T13:53:14Z</time>
      </trkpt>
      <trkpt lat="39.684835000" lon="-8.525841000">
        <ele>171.200000</ele>
        <time>2020-10-17T13:53:15Z</time>
      </trkpt>
      <trkpt lat="39.684787000" lon="-8.525831000">
        <ele>171.400000</ele>
        <time>2020-10-17T13:53:16Z</time>
      </trkpt>
      <trkpt lat="39.684741000" lon="-8.525823000">
        <ele>171.200000</ele>
        <time>2020-10-17T13:53:17Z</time>
      </trkpt>
      <trkpt lat="39.684696000" lon="-8.525814000">
        <ele>171.400000</ele>
        <time>2020-10-17T13:53:18Z</time>
      </trkpt>
      <trkpt lat="39.684433000" lon="-8.525769000">
        <ele>172.200000</ele>
        <time>2020-10-17T13:53:23Z</time>
      </trkpt>
      <trkpt lat="39.684110000" lon="-8.525722000">
        <ele>173.000000</ele>
        <time>2020-10-17T13:53:28Z</time>
      </trkpt>
      <trkpt lat="39.684051000" lon="-8.525710000">
        <ele>173.200000</ele>
        <time>2020-10-17T13:53:29Z</time>
      </trkpt>
      <trkpt lat="39.683996000" lon="-8.525696000">
        <ele>173.200000</ele>
        <time>2020-10-17T13:53:30Z</time>
      </trkpt>
      <trkpt lat="39.683939000" lon="-8.525687000">
        <ele>173.400000</ele>
        <time>2020-10-17T13:53:31Z</time>
      </trkpt>
      <trkpt lat="39.683882000" lon="-8.525683000">
        <ele>173.600000</ele>
        <time>2020-10-17T13:53:32Z</time>
      </trkpt>
      <trkpt lat="39.683827000" lon="-8.525684000">
        <ele>173.600000</ele>
        <time>2020-10-17T13:53:33Z</time>
      </trkpt>
      <trkpt lat="39.683776000" lon="-8.525694000">
        <ele>173.600000</ele>
        <time>2020-10-17T13:53:34Z</time>
      </trkpt>
      <trkpt lat="39.683728000" lon="-8.525721000">
        <ele>173.800000</ele>
        <time>2020-10-17T13:53:35Z</time>
      </trkpt>
      <trkpt lat="39.683687000" lon="-8.525759000">
        <ele>173.800000</ele>
        <time>2020-10-17T13:53:36Z</time>
      </trkpt>
      <trkpt lat="39.683648000" lon="-8.525803000">
        <ele>173.800000</ele>
        <time>2020-10-17T13:53:37Z</time>
      </trkpt>
      <trkpt lat="39.683609000" lon="-8.525851000">
        <ele>174.000000</ele>
        <time>2020-10-17T13:53:38Z</time>
      </trkpt>
      <trkpt lat="39.683567000" lon="-8.525900000">
        <ele>174.000000</ele>
        <time>2020-10-17T13:53:39Z</time>
      </trkpt>
      <trkpt lat="39.683522000" lon="-8.525940000">
        <ele>174.000000</ele>
        <time>2020-10-17T13:53:40Z</time>
      </trkpt>
      <trkpt lat="39.683412000" lon="-8.525980000">
        <ele>174.000000</ele>
        <time>2020-10-17T13:53:42Z</time>
      </trkpt>
      <trkpt lat="39.683358000" lon="-8.525978000">
        <ele>174.000000</ele>
        <time>2020-10-17T13:53:43Z</time>
      </trkpt>
      <trkpt lat="39.683303000" lon="-8.525971000">
        <ele>174.000000</ele>
        <time>2020-10-17T13:53:44Z</time>
      </trkpt>
      <trkpt lat="39.683245000" lon="-8.525962000">
        <ele>174.200000</ele>
        <time>2020-10-17T13:53:45Z</time>
      </trkpt>
      <trkpt lat="39.683184000" lon="-8.525952000">
        <ele>174.200000</ele>
        <time>2020-10-17T13:53:46Z</time>
      </trkpt>
      <trkpt lat="39.683058000" lon="-8.525944000">
        <ele>174.200000</ele>
        <time>2020-10-17T13:53:48Z</time>
      </trkpt>
      <trkpt lat="39.682992000" lon="-8.525940000">
        <ele>174.200000</ele>
        <time>2020-10-17T13:53:49Z</time>
      </trkpt>
      <trkpt lat="39.682862000" lon="-8.525925000">
        <ele>174.200000</ele>
        <time>2020-10-17T13:53:51Z</time>
      </trkpt>
      <trkpt lat="39.682601000" lon="-8.525869000">
        <ele>174.200000</ele>
        <time>2020-10-17T13:53:55Z</time>
      </trkpt>
      <trkpt lat="39.682539000" lon="-8.525843000">
        <ele>174.200000</ele>
        <time>2020-10-17T13:53:56Z</time>
      </trkpt>
      <trkpt lat="39.682476000" lon="-8.525813000">
        <ele>174.200000</ele>
        <time>2020-10-17T13:53:57Z</time>
      </trkpt>
      <trkpt lat="39.682415000" lon="-8.525779000">
        <ele>174.000000</ele>
        <time>2020-10-17T13:53:58Z</time>
      </trkpt>
      <trkpt lat="39.682358000" lon="-8.525738000">
        <ele>174.000000</ele>
        <time>2020-10-17T13:53:59Z</time>
      </trkpt>
      <trkpt lat="39.682300000" lon="-8.525700000">
        <ele>173.800000</ele>
        <time>2020-10-17T13:54:00Z</time>
      </trkpt>
      <trkpt lat="39.682243000" lon="-8.525671000">
        <ele>173.600000</ele>
        <time>2020-10-17T13:54:01Z</time>
      </trkpt>
      <trkpt lat="39.682180000" lon="-8.525648000">
        <ele>173.600000</ele>
        <time>2020-10-17T13:54:02Z</time>
      </trkpt>
      <trkpt lat="39.682054000" lon="-8.525599000">
        <ele>173.400000</ele>
        <time>2020-10-17T13:54:04Z</time>
      </trkpt>
      <trkpt lat="39.681710000" lon="-8.525489000">
        <ele>172.600000</ele>
        <time>2020-10-17T13:54:09Z</time>
      </trkpt>
      <trkpt lat="39.681647000" lon="-8.525479000">
        <ele>172.400000</ele>
        <time>2020-10-17T13:54:10Z</time>
      </trkpt>
      <trkpt lat="39.681590000" lon="-8.525480000">
        <ele>172.400000</ele>
        <time>2020-10-17T13:54:11Z</time>
      </trkpt>
      <trkpt lat="39.681542000" lon="-8.525485000">
        <ele>172.200000</ele>
        <time>2020-10-17T13:54:12Z</time>
      </trkpt>
      <trkpt lat="39.681515000" lon="-8.525470000">
        <ele>172.000000</ele>
        <time>2020-10-17T13:54:13Z</time>
      </trkpt>
      <trkpt lat="39.681506000" lon="-8.525462000">
        <ele>172.000000</ele>
        <time>2020-10-17T13:54:14Z</time>
      </trkpt>
      <trkpt lat="39.681525000" lon="-8.525447000">
        <ele>171.600000</ele>
        <time>2020-10-17T13:54:15Z</time>
      </trkpt>
      <trkpt lat="39.681550000" lon="-8.525442000">
        <ele>171.400000</ele>
        <time>2020-10-17T13:54:16Z</time>
      </trkpt>
      <trkpt lat="39.681635000" lon="-8.525474000">
        <ele>170.800000</ele>
        <time>2020-10-17T13:54:19Z</time>
      </trkpt>
      <trkpt lat="39.681673000" lon="-8.525486000">
        <ele>170.400000</ele>
        <time>2020-10-17T13:54:20Z</time>
      </trkpt>
      <trkpt lat="39.681772000" lon="-8.525525000">
        <ele>170.400000</ele>
        <time>2020-10-17T13:54:23Z</time>
      </trkpt>
      <trkpt lat="39.681810000" lon="-8.525541000">
        <ele>170.400000</ele>
        <time>2020-10-17T13:54:24Z</time>
      </trkpt>
      <trkpt lat="39.681853000" lon="-8.525558000">
        <ele>170.400000</ele>
        <time>2020-10-17T13:54:25Z</time>
      </trkpt>
      <trkpt lat="39.681941000" lon="-8.525659000">
        <ele>170.400000</ele>
        <time>2020-10-17T13:54:28Z</time>
      </trkpt>
      <trkpt lat="39.681952000" lon="-8.525707000">
        <ele>170.400000</ele>
        <time>2020-10-17T13:54:29Z</time>
      </trkpt>
      <trkpt lat="39.681961000" lon="-8.525801000">
        <ele>170.400000</ele>
        <time>2020-10-17T13:54:31Z</time>
      </trkpt>
      <trkpt lat="39.681964000" lon="-8.525846000">
        <ele>170.400000</ele>
        <time>2020-10-17T13:54:32Z</time>
      </trkpt>
      <trkpt lat="39.681964000" lon="-8.525890000">
        <ele>170.600000</ele>
        <time>2020-10-17T13:54:33Z</time>
      </trkpt>
      <trkpt lat="39.681963000" lon="-8.525935000">
        <ele>170.800000</ele>
        <time>2020-10-17T13:54:34Z</time>
      </trkpt>
      <trkpt lat="39.681967000" lon="-8.525980000">
        <ele>171.000000</ele>
        <time>2020-10-17T13:54:35Z</time>
      </trkpt>
      <trkpt lat="39.681970000" lon="-8.526029000">
        <ele>171.000000</ele>
        <time>2020-10-17T13:54:36Z</time>
      </trkpt>
      <trkpt lat="39.681968000" lon="-8.526073000">
        <ele>171.400000</ele>
        <time>2020-10-17T13:54:37Z</time>
      </trkpt>
      <trkpt lat="39.681965000" lon="-8.526116000">
        <ele>171.600000</ele>
        <time>2020-10-17T13:54:38Z</time>
      </trkpt>
      <trkpt lat="39.681963000" lon="-8.526160000">
        <ele>172.000000</ele>
        <time>2020-10-17T13:54:39Z</time>
      </trkpt>
      <trkpt lat="39.681959000" lon="-8.526204000">
        <ele>172.600000</ele>
        <time>2020-10-17T13:54:40Z</time>
      </trkpt>
      <trkpt lat="39.681956000" lon="-8.526250000">
        <ele>173.200000</ele>
        <time>2020-10-17T13:54:41Z</time>
      </trkpt>
      <trkpt lat="39.681959000" lon="-8.526297000">
        <ele>173.400000</ele>
        <time>2020-10-17T13:54:42Z</time>
      </trkpt>
      <trkpt lat="39.681952000" lon="-8.526338000">
        <ele>173.800000</ele>
        <time>2020-10-17T13:54:43Z</time>
      </trkpt>
      <trkpt lat="39.681943000" lon="-8.526381000">
        <ele>174.200000</ele>
        <time>2020-10-17T13:54:44Z</time>
      </trkpt>
      <trkpt lat="39.681928000" lon="-8.526417000">
        <ele>174.600000</ele>
        <time>2020-10-17T13:54:45Z</time>
      </trkpt>
      <trkpt lat="39.681910000" lon="-8.526453000">
        <ele>175.000000</ele>
        <time>2020-10-17T13:54:46Z</time>
      </trkpt>
      <trkpt lat="39.681893000" lon="-8.526485000">
        <ele>175.400000</ele>
        <time>2020-10-17T13:54:47Z</time>
      </trkpt>
      <trkpt lat="39.681876000" lon="-8.526517000">
        <ele>176.000000</ele>
        <time>2020-10-17T13:54:48Z</time>
      </trkpt>
      <trkpt lat="39.681854000" lon="-8.526554000">
        <ele>176.400000</ele>
        <time>2020-10-17T13:54:49Z</time>
      </trkpt>
      <trkpt lat="39.681831000" lon="-8.526590000">
        <ele>176.800000</ele>
        <time>2020-10-17T13:54:50Z</time>
      </trkpt>
      <trkpt lat="39.681806000" lon="-8.526631000">
        <ele>177.200000</ele>
        <time>2020-10-17T13:54:51Z</time>
      </trkpt>
      <trkpt lat="39.681783000" lon="-8.526672000">
        <ele>177.800000</ele>
        <time>2020-10-17T13:54:52Z</time>
      </trkpt>
      <trkpt lat="39.681763000" lon="-8.526713000">
        <ele>178.200000</ele>
        <time>2020-10-17T13:54:53Z</time>
      </trkpt>
      <trkpt lat="39.681744000" lon="-8.526757000">
        <ele>178.200000</ele>
        <time>2020-10-17T13:54:54Z</time>
      </trkpt>
      <trkpt lat="39.681725000" lon="-8.526800000">
        <ele>178.400000</ele>
        <time>2020-10-17T13:54:55Z</time>
      </trkpt>
      <trkpt lat="39.681708000" lon="-8.526842000">
        <ele>178.800000</ele>
        <time>2020-10-17T13:54:56Z</time>
      </trkpt>
      <trkpt lat="39.681691000" lon="-8.526881000">
        <ele>179.200000</ele>
        <time>2020-10-17T13:54:57Z</time>
      </trkpt>
      <trkpt lat="39.681675000" lon="-8.526913000">
        <ele>179.400000</ele>
        <time>2020-10-17T13:54:58Z</time>
      </trkpt>
      <trkpt lat="39.681659000" lon="-8.526944000">
        <ele>179.600000</ele>
        <time>2020-10-17T13:54:59Z</time>
      </trkpt>
      <trkpt lat="39.681641000" lon="-8.526977000">
        <ele>180.000000</ele>
        <time>2020-10-17T13:55:00Z</time>
      </trkpt>
      <trkpt lat="39.681623000" lon="-8.527013000">
        <ele>180.000000</ele>
        <time>2020-10-17T13:55:01Z</time>
      </trkpt>
      <trkpt lat="39.681603000" lon="-8.527050000">
        <ele>180.200000</ele>
        <time>2020-10-17T13:55:02Z</time>
      </trkpt>
      <trkpt lat="39.681580000" lon="-8.527088000">
        <ele>180.400000</ele>
        <time>2020-10-17T13:55:03Z</time>
      </trkpt>
      <trkpt lat="39.681551000" lon="-8.527135000">
        <ele>180.600000</ele>
        <time>2020-10-17T13:55:04Z</time>
      </trkpt>
      <trkpt lat="39.681531000" lon="-8.527181000">
        <ele>180.800000</ele>
        <time>2020-10-17T13:55:05Z</time>
      </trkpt>
      <trkpt lat="39.681511000" lon="-8.527229000">
        <ele>181.000000</ele>
        <time>2020-10-17T13:55:06Z</time>
      </trkpt>
      <trkpt lat="39.681489000" lon="-8.527276000">
        <ele>181.000000</ele>
        <time>2020-10-17T13:55:07Z</time>
      </trkpt>
      <trkpt lat="39.681463000" lon="-8.527320000">
        <ele>181.400000</ele>
        <time>2020-10-17T13:55:08Z</time>
      </trkpt>
      <trkpt lat="39.681435000" lon="-8.527360000">
        <ele>181.400000</ele>
        <time>2020-10-17T13:55:09Z</time>
      </trkpt>
      <trkpt lat="39.681404000" lon="-8.527399000">
        <ele>181.600000</ele>
        <time>2020-10-17T13:55:10Z</time>
      </trkpt>
      <trkpt lat="39.681366000" lon="-8.527433000">
        <ele>181.800000</ele>
        <time>2020-10-17T13:55:11Z</time>
      </trkpt>
      <trkpt lat="39.681322000" lon="-8.527465000">
        <ele>181.800000</ele>
        <time>2020-10-17T13:55:12Z</time>
      </trkpt>
      <trkpt lat="39.681270000" lon="-8.527495000">
        <ele>181.600000</ele>
        <time>2020-10-17T13:55:13Z</time>
      </trkpt>
      <trkpt lat="39.681217000" lon="-8.527520000">
        <ele>181.600000</ele>
        <time>2020-10-17T13:55:14Z</time>
      </trkpt>
      <trkpt lat="39.681159000" lon="-8.527549000">
        <ele>181.600000</ele>
        <time>2020-10-17T13:55:15Z</time>
      </trkpt>
      <trkpt lat="39.681098000" lon="-8.527574000">
        <ele>181.800000</ele>
        <time>2020-10-17T13:55:16Z</time>
      </trkpt>
      <trkpt lat="39.680958000" lon="-8.527616000">
        <ele>181.800000</ele>
        <time>2020-10-17T13:55:18Z</time>
      </trkpt>
      <trkpt lat="39.680891000" lon="-8.527622000">
        <ele>181.600000</ele>
        <time>2020-10-17T13:55:19Z</time>
      </trkpt>
      <trkpt lat="39.680821000" lon="-8.527622000">
        <ele>181.600000</ele>
        <time>2020-10-17T13:55:20Z</time>
      </trkpt>
      <trkpt lat="39.680745000" lon="-8.527617000">
        <ele>181.400000</ele>
        <time>2020-10-17T13:55:21Z</time>
      </trkpt>
      <trkpt lat="39.680664000" lon="-8.527609000">
        <ele>181.200000</ele>
        <time>2020-10-17T13:55:22Z</time>
      </trkpt>
      <trkpt lat="39.680586000" lon="-8.527599000">
        <ele>181.000000</ele>
        <time>2020-10-17T13:55:23Z</time>
      </trkpt>
      <trkpt lat="39.680427000" lon="-8.527560000">
        <ele>180.800000</ele>
        <time>2020-10-17T13:55:25Z</time>
      </trkpt>
      <trkpt lat="39.680353000" lon="-8.527522000">
        <ele>180.200000</ele>
        <time>2020-10-17T13:55:26Z</time>
      </trkpt>
      <trkpt lat="39.680287000" lon="-8.527471000">
        <ele>180.000000</ele>
        <time>2020-10-17T13:55:27Z</time>
      </trkpt>
      <trkpt lat="39.680224000" lon="-8.527409000">
        <ele>179.600000</ele>
        <time>2020-10-17T13:55:28Z</time>
      </trkpt>
      <trkpt lat="39.680163000" lon="-8.527344000">
        <ele>179.200000</ele>
        <time>2020-10-17T13:55:29Z</time>
      </trkpt>
      <trkpt lat="39.679982000" lon="-8.527115000">
        <ele>177.400000</ele>
        <time>2020-10-17T13:55:32Z</time>
      </trkpt>
      <trkpt lat="39.679918000" lon="-8.527033000">
        <ele>176.400000</ele>
        <time>2020-10-17T13:55:33Z</time>
      </trkpt>
      <trkpt lat="39.679791000" lon="-8.526863000">
        <ele>175.600000</ele>
        <time>2020-10-17T13:55:35Z</time>
      </trkpt>
      <trkpt lat="39.679728000" lon="-8.526776000">
        <ele>175.600000</ele>
        <time>2020-10-17T13:55:36Z</time>
      </trkpt>
      <trkpt lat="39.679667000" lon="-8.526695000">
        <ele>174.800000</ele>
        <time>2020-10-17T13:55:37Z</time>
      </trkpt>
      <trkpt lat="39.679604000" lon="-8.526609000">
        <ele>174.400000</ele>
        <time>2020-10-17T13:55:38Z</time>
      </trkpt>
      <trkpt lat="39.679545000" lon="-8.526528000">
        <ele>174.000000</ele>
        <time>2020-10-17T13:55:39Z</time>
      </trkpt>
      <trkpt lat="39.679492000" lon="-8.526454000">
        <ele>173.800000</ele>
        <time>2020-10-17T13:55:40Z</time>
      </trkpt>
      <trkpt lat="39.679445000" lon="-8.526383000">
        <ele>173.600000</ele>
        <time>2020-10-17T13:55:41Z</time>
      </trkpt>
      <trkpt lat="39.679405000" lon="-8.526320000">
        <ele>172.600000</ele>
        <time>2020-10-17T13:55:42Z</time>
      </trkpt>
      <trkpt lat="39.679367000" lon="-8.526261000">
        <ele>171.800000</ele>
        <time>2020-10-17T13:55:43Z</time>
      </trkpt>
      <trkpt lat="39.679327000" lon="-8.526207000">
        <ele>171.000000</ele>
        <time>2020-10-17T13:55:44Z</time>
      </trkpt>
      <trkpt lat="39.679285000" lon="-8.526156000">
        <ele>170.400000</ele>
        <time>2020-10-17T13:55:45Z</time>
      </trkpt>
      <trkpt lat="39.679197000" lon="-8.526044000">
        <ele>168.000000</ele>
        <time>2020-10-17T13:55:47Z</time>
      </trkpt>
      <trkpt lat="39.679152000" lon="-8.525978000">
        <ele>167.200000</ele>
        <time>2020-10-17T13:55:48Z</time>
      </trkpt>
      <trkpt lat="39.679108000" lon="-8.525912000">
        <ele>166.800000</ele>
        <time>2020-10-17T13:55:49Z</time>
      </trkpt>
      <trkpt lat="39.679065000" lon="-8.525848000">
        <ele>166.000000</ele>
        <time>2020-10-17T13:55:50Z</time>
      </trkpt>
      <trkpt lat="39.679026000" lon="-8.525789000">
        <ele>165.200000</ele>
        <time>2020-10-17T13:55:51Z</time>
      </trkpt>
      <trkpt lat="39.678992000" lon="-8.525736000">
        <ele>164.600000</ele>
        <time>2020-10-17T13:55:52Z</time>
      </trkpt>
      <trkpt lat="39.678957000" lon="-8.525691000">
        <ele>164.000000</ele>
        <time>2020-10-17T13:55:53Z</time>
      </trkpt>
      <trkpt lat="39.678925000" lon="-8.525661000">
        <ele>163.400000</ele>
        <time>2020-10-17T13:55:54Z</time>
      </trkpt>
      <trkpt lat="39.678892000" lon="-8.525636000">
        <ele>163.000000</ele>
        <time>2020-10-17T13:55:55Z</time>
      </trkpt>
      <trkpt lat="39.678867000" lon="-8.525626000">
        <ele>162.400000</ele>
        <time>2020-10-17T13:55:56Z</time>
      </trkpt>
      <trkpt lat="39.678848000" lon="-8.525624000">
        <ele>162.400000</ele>
        <time>2020-10-17T13:55:57Z</time>
      </trkpt>
      <trkpt lat="39.678829000" lon="-8.525625000">
        <ele>161.600000</ele>
        <time>2020-10-17T13:55:58Z</time>
      </trkpt>
      <trkpt lat="39.678810000" lon="-8.525627000">
        <ele>161.000000</ele>
        <time>2020-10-17T13:55:59Z</time>
      </trkpt>
      <trkpt lat="39.678792000" lon="-8.525625000">
        <ele>160.200000</ele>
        <time>2020-10-17T13:56:00Z</time>
      </trkpt>
      <trkpt lat="39.678774000" lon="-8.525630000">
        <ele>159.800000</ele>
        <time>2020-10-17T13:56:01Z</time>
      </trkpt>
      <trkpt lat="39.678728000" lon="-8.525665000">
        <ele>158.600000</ele>
        <time>2020-10-17T13:56:03Z</time>
      </trkpt>
      <trkpt lat="39.678707000" lon="-8.525690000">
        <ele>157.800000</ele>
        <time>2020-10-17T13:56:04Z</time>
      </trkpt>
      <trkpt lat="39.678690000" lon="-8.525718000">
        <ele>157.200000</ele>
        <time>2020-10-17T13:56:05Z</time>
      </trkpt>
      <trkpt lat="39.678679000" lon="-8.525748000">
        <ele>156.200000</ele>
        <time>2020-10-17T13:56:06Z</time>
      </trkpt>
      <trkpt lat="39.678668000" lon="-8.525780000">
        <ele>155.800000</ele>
        <time>2020-10-17T13:56:07Z</time>
      </trkpt>
      <trkpt lat="39.678641000" lon="-8.525864000">
        <ele>154.800000</ele>
        <time>2020-10-17T13:56:09Z</time>
      </trkpt>
      <trkpt lat="39.678631000" lon="-8.525968000">
        <ele>154.200000</ele>
        <time>2020-10-17T13:56:11Z</time>
      </trkpt>
      <trkpt lat="39.678634000" lon="-8.526027000">
        <ele>153.800000</ele>
        <time>2020-10-17T13:56:12Z</time>
      </trkpt>
      <trkpt lat="39.678642000" lon="-8.526093000">
        <ele>153.400000</ele>
        <time>2020-10-17T13:56:13Z</time>
      </trkpt>
      <trkpt lat="39.678653000" lon="-8.526171000">
        <ele>153.000000</ele>
        <time>2020-10-17T13:56:14Z</time>
      </trkpt>
      <trkpt lat="39.678691000" lon="-8.526354000">
        <ele>151.800000</ele>
        <time>2020-10-17T13:56:16Z</time>
      </trkpt>
      <trkpt lat="39.678717000" lon="-8.526458000">
        <ele>151.600000</ele>
        <time>2020-10-17T13:56:17Z</time>
      </trkpt>
      <trkpt lat="39.678775000" lon="-8.526667000">
        <ele>151.000000</ele>
        <time>2020-10-17T13:56:19Z</time>
      </trkpt>
      <trkpt lat="39.678804000" lon="-8.526772000">
        <ele>150.400000</ele>
        <time>2020-10-17T13:56:20Z</time>
      </trkpt>
      <trkpt lat="39.678833000" lon="-8.526873000">
        <ele>150.000000</ele>
        <time>2020-10-17T13:56:21Z</time>
      </trkpt>
      <trkpt lat="39.678861000" lon="-8.526960000">
        <ele>149.600000</ele>
        <time>2020-10-17T13:56:22Z</time>
      </trkpt>
      <trkpt lat="39.678890000" lon="-8.527037000">
        <ele>149.000000</ele>
        <time>2020-10-17T13:56:23Z</time>
      </trkpt>
      <trkpt lat="39.678920000" lon="-8.527099000">
        <ele>148.400000</ele>
        <time>2020-10-17T13:56:24Z</time>
      </trkpt>
      <trkpt lat="39.678943000" lon="-8.527151000">
        <ele>147.800000</ele>
        <time>2020-10-17T13:56:25Z</time>
      </trkpt>
      <trkpt lat="39.678958000" lon="-8.527184000">
        <ele>146.600000</ele>
        <time>2020-10-17T13:56:26Z</time>
      </trkpt>
      <trkpt lat="39.678953000" lon="-8.527193000">
        <ele>145.600000</ele>
        <time>2020-10-17T13:56:27Z</time>
      </trkpt>
      <trkpt lat="39.678936000" lon="-8.527201000">
        <ele>144.200000</ele>
        <time>2020-10-17T13:56:28Z</time>
      </trkpt>
      <trkpt lat="39.678915000" lon="-8.527192000">
        <ele>143.000000</ele>
        <time>2020-10-17T13:56:29Z</time>
      </trkpt>
      <trkpt lat="39.678880000" lon="-8.527148000">
        <ele>141.800000</ele>
        <time>2020-10-17T13:56:30Z</time>
      </trkpt>
      <trkpt lat="39.678841000" lon="-8.527101000">
        <ele>141.000000</ele>
        <time>2020-10-17T13:56:31Z</time>
      </trkpt>
      <trkpt lat="39.678798000" lon="-8.527049000">
        <ele>139.800000</ele>
        <time>2020-10-17T13:56:32Z</time>
      </trkpt>
      <trkpt lat="39.678750000" lon="-8.526993000">
        <ele>139.000000</ele>
        <time>2020-10-17T13:56:33Z</time>
      </trkpt>
      <trkpt lat="39.678701000" lon="-8.526935000">
        <ele>138.400000</ele>
        <time>2020-10-17T13:56:34Z</time>
      </trkpt>
      <trkpt lat="39.678600000" lon="-8.526818000">
        <ele>137.200000</ele>
        <time>2020-10-17T13:56:36Z</time>
      </trkpt>
      <trkpt lat="39.678376000" lon="-8.526556000">
        <ele>136.400000</ele>
        <time>2020-10-17T13:56:40Z</time>
      </trkpt>
      <trkpt lat="39.678316000" lon="-8.526488000">
        <ele>136.000000</ele>
        <time>2020-10-17T13:56:41Z</time>
      </trkpt>
      <trkpt lat="39.678263000" lon="-8.526423000">
        <ele>135.400000</ele>
        <time>2020-10-17T13:56:42Z</time>
      </trkpt>
      <trkpt lat="39.678124000" lon="-8.526202000">
        <ele>134.200000</ele>
        <time>2020-10-17T13:56:45Z</time>
      </trkpt>
      <trkpt lat="39.678087000" lon="-8.526122000">
        <ele>133.800000</ele>
        <time>2020-10-17T13:56:46Z</time>
      </trkpt>
      <trkpt lat="39.678023000" lon="-8.525964000">
        <ele>133.200000</ele>
        <time>2020-10-17T13:56:48Z</time>
      </trkpt>
      <trkpt lat="39.677994000" lon="-8.525908000">
        <ele>133.200000</ele>
        <time>2020-10-17T13:56:49Z</time>
      </trkpt>
      <trkpt lat="39.677946000" lon="-8.525871000">
        <ele>133.000000</ele>
        <time>2020-10-17T13:56:50Z</time>
      </trkpt>
      <trkpt lat="39.677895000" lon="-8.525854000">
        <ele>132.800000</ele>
        <time>2020-10-17T13:56:51Z</time>
      </trkpt>
      <trkpt lat="39.677841000" lon="-8.525864000">
        <ele>132.400000</ele>
        <time>2020-10-17T13:56:52Z</time>
      </trkpt>
      <trkpt lat="39.677777000" lon="-8.525879000">
        <ele>132.200000</ele>
        <time>2020-10-17T13:56:53Z</time>
      </trkpt>
      <trkpt lat="39.677702000" lon="-8.525891000">
        <ele>131.800000</ele>
        <time>2020-10-17T13:56:54Z</time>
      </trkpt>
      <trkpt lat="39.677620000" lon="-8.525893000">
        <ele>131.800000</ele>
        <time>2020-10-17T13:56:55Z</time>
      </trkpt>
      <trkpt lat="39.677533000" lon="-8.525886000">
        <ele>131.600000</ele>
        <time>2020-10-17T13:56:56Z</time>
      </trkpt>
      <trkpt lat="39.677447000" lon="-8.525868000">
        <ele>131.600000</ele>
        <time>2020-10-17T13:56:57Z</time>
      </trkpt>
      <trkpt lat="39.677182000" lon="-8.525815000">
        <ele>130.800000</ele>
        <time>2020-10-17T13:57:00Z</time>
      </trkpt>
      <trkpt lat="39.677100000" lon="-8.525803000">
        <ele>130.400000</ele>
        <time>2020-10-17T13:57:01Z</time>
      </trkpt>
      <trkpt lat="39.677020000" lon="-8.525793000">
        <ele>129.800000</ele>
        <time>2020-10-17T13:57:02Z</time>
      </trkpt>
      <trkpt lat="39.676941000" lon="-8.525778000">
        <ele>129.200000</ele>
        <time>2020-10-17T13:57:03Z</time>
      </trkpt>
      <trkpt lat="39.676869000" lon="-8.525759000">
        <ele>128.200000</ele>
        <time>2020-10-17T13:57:04Z</time>
      </trkpt>
      <trkpt lat="39.676801000" lon="-8.525740000">
        <ele>127.400000</ele>
        <time>2020-10-17T13:57:05Z</time>
      </trkpt>
      <trkpt lat="39.676737000" lon="-8.525719000">
        <ele>127.000000</ele>
        <time>2020-10-17T13:57:06Z</time>
      </trkpt>
      <trkpt lat="39.676675000" lon="-8.525705000">
        <ele>127.000000</ele>
        <time>2020-10-17T13:57:07Z</time>
      </trkpt>
      <trkpt lat="39.676618000" lon="-8.525696000">
        <ele>126.800000</ele>
        <time>2020-10-17T13:57:08Z</time>
      </trkpt>
      <trkpt lat="39.676561000" lon="-8.525687000">
        <ele>126.800000</ele>
        <time>2020-10-17T13:57:09Z</time>
      </trkpt>
      <trkpt lat="39.676508000" lon="-8.525678000">
        <ele>126.800000</ele>
        <time>2020-10-17T13:57:10Z</time>
      </trkpt>
      <trkpt lat="39.676456000" lon="-8.525668000">
        <ele>126.800000</ele>
        <time>2020-10-17T13:57:11Z</time>
      </trkpt>
      <trkpt lat="39.676407000" lon="-8.525658000">
        <ele>126.800000</ele>
        <time>2020-10-17T13:57:12Z</time>
      </trkpt>
      <trkpt lat="39.676366000" lon="-8.525642000">
        <ele>126.600000</ele>
        <time>2020-10-17T13:57:13Z</time>
      </trkpt>
      <trkpt lat="39.676324000" lon="-8.525627000">
        <ele>126.800000</ele>
        <time>2020-10-17T13:57:14Z</time>
      </trkpt>
      <trkpt lat="39.676280000" lon="-8.525608000">
        <ele>127.000000</ele>
        <time>2020-10-17T13:57:15Z</time>
      </trkpt>
      <trkpt lat="39.676153000" lon="-8.525524000">
        <ele>128.400000</ele>
        <time>2020-10-17T13:57:18Z</time>
      </trkpt>
      <trkpt lat="39.676114000" lon="-8.525497000">
        <ele>128.600000</ele>
        <time>2020-10-17T13:57:19Z</time>
      </trkpt>
      <trkpt lat="39.676077000" lon="-8.525471000">
        <ele>128.800000</ele>
        <time>2020-10-17T13:57:20Z</time>
      </trkpt>
      <trkpt lat="39.676044000" lon="-8.525453000">
        <ele>128.800000</ele>
        <time>2020-10-17T13:57:21Z</time>
      </trkpt>
      <trkpt lat="39.676008000" lon="-8.525433000">
        <ele>129.400000</ele>
        <time>2020-10-17T13:57:22Z</time>
      </trkpt>
      <trkpt lat="39.675973000" lon="-8.525410000">
        <ele>130.000000</ele>
        <time>2020-10-17T13:57:23Z</time>
      </trkpt>
      <trkpt lat="39.675939000" lon="-8.525386000">
        <ele>130.800000</ele>
        <time>2020-10-17T13:57:24Z</time>
      </trkpt>
      <trkpt lat="39.675909000" lon="-8.525359000">
        <ele>131.000000</ele>
        <time>2020-10-17T13:57:25Z</time>
      </trkpt>
      <trkpt lat="39.675868000" lon="-8.525329000">
        <ele>131.200000</ele>
        <time>2020-10-17T13:57:26Z</time>
      </trkpt>
      <trkpt lat="39.675825000" lon="-8.525297000">
        <ele>131.200000</ele>
        <time>2020-10-17T13:57:27Z</time>
      </trkpt>
      <trkpt lat="39.675781000" lon="-8.525268000">
        <ele>131.400000</ele>
        <time>2020-10-17T13:57:28Z</time>
      </trkpt>
      <trkpt lat="39.675735000" lon="-8.525236000">
        <ele>131.400000</ele>
        <time>2020-10-17T13:57:29Z</time>
      </trkpt>
      <trkpt lat="39.675685000" lon="-8.525199000">
        <ele>131.800000</ele>
        <time>2020-10-17T13:57:30Z</time>
      </trkpt>
      <trkpt lat="39.675631000" lon="-8.525165000">
        <ele>131.800000</ele>
        <time>2020-10-17T13:57:31Z</time>
      </trkpt>
      <trkpt lat="39.675578000" lon="-8.525132000">
        <ele>131.800000</ele>
        <time>2020-10-17T13:57:32Z</time>
      </trkpt>
      <trkpt lat="39.675521000" lon="-8.525101000">
        <ele>132.000000</ele>
        <time>2020-10-17T13:57:33Z</time>
      </trkpt>
      <trkpt lat="39.675462000" lon="-8.525062000">
        <ele>132.000000</ele>
        <time>2020-10-17T13:57:34Z</time>
      </trkpt>
      <trkpt lat="39.675396000" lon="-8.525023000">
        <ele>132.000000</ele>
        <time>2020-10-17T13:57:35Z</time>
      </trkpt>
      <trkpt lat="39.675323000" lon="-8.524977000">
        <ele>132.000000</ele>
        <time>2020-10-17T13:57:36Z</time>
      </trkpt>
      <trkpt lat="39.675169000" lon="-8.524877000">
        <ele>132.000000</ele>
        <time>2020-10-17T13:57:38Z</time>
      </trkpt>
      <trkpt lat="39.675098000" lon="-8.524828000">
        <ele>132.000000</ele>
        <time>2020-10-17T13:57:39Z</time>
      </trkpt>
      <trkpt lat="39.675034000" lon="-8.524779000">
        <ele>131.800000</ele>
        <time>2020-10-17T13:57:40Z</time>
      </trkpt>
      <trkpt lat="39.674976000" lon="-8.524740000">
        <ele>131.400000</ele>
        <time>2020-10-17T13:57:41Z</time>
      </trkpt>
      <trkpt lat="39.674932000" lon="-8.524722000">
        <ele>131.400000</ele>
        <time>2020-10-17T13:57:42Z</time>
      </trkpt>
      <trkpt lat="39.674898000" lon="-8.524729000">
        <ele>130.600000</ele>
        <time>2020-10-17T13:57:43Z</time>
      </trkpt>
      <trkpt lat="39.674867000" lon="-8.524764000">
        <ele>129.800000</ele>
        <time>2020-10-17T13:57:44Z</time>
      </trkpt>
      <trkpt lat="39.674815000" lon="-8.524873000">
        <ele>128.400000</ele>
        <time>2020-10-17T13:57:46Z</time>
      </trkpt>
      <trkpt lat="39.674794000" lon="-8.524935000">
        <ele>127.600000</ele>
        <time>2020-10-17T13:57:47Z</time>
      </trkpt>
      <trkpt lat="39.674771000" lon="-8.524999000">
        <ele>126.800000</ele>
        <time>2020-10-17T13:57:48Z</time>
      </trkpt>
      <trkpt lat="39.674613000" lon="-8.525406000">
        <ele>123.600000</ele>
        <time>2020-10-17T13:57:54Z</time>
      </trkpt>
      <trkpt lat="39.674589000" lon="-8.525468000">
        <ele>123.600000</ele>
        <time>2020-10-17T13:57:55Z</time>
      </trkpt>
      <trkpt lat="39.674535000" lon="-8.525598000">
        <ele>123.400000</ele>
        <time>2020-10-17T13:57:57Z</time>
      </trkpt>
      <trkpt lat="39.674512000" lon="-8.525657000">
        <ele>123.400000</ele>
        <time>2020-10-17T13:57:58Z</time>
      </trkpt>
      <trkpt lat="39.674467000" lon="-8.525777000">
        <ele>123.400000</ele>
        <time>2020-10-17T13:58:00Z</time>
      </trkpt>
      <trkpt lat="39.674415000" lon="-8.525900000">
        <ele>123.400000</ele>
        <time>2020-10-17T13:58:02Z</time>
      </trkpt>
      <trkpt lat="39.674359000" lon="-8.526028000">
        <ele>123.400000</ele>
        <time>2020-10-17T13:58:04Z</time>
      </trkpt>
      <trkpt lat="39.674333000" lon="-8.526089000">
        <ele>123.400000</ele>
        <time>2020-10-17T13:58:05Z</time>
      </trkpt>
      <trkpt lat="39.674305000" lon="-8.526147000">
        <ele>123.200000</ele>
        <time>2020-10-17T13:58:06Z</time>
      </trkpt>
      <trkpt lat="39.674167000" lon="-8.526391000">
        <ele>123.400000</ele>
        <time>2020-10-17T13:58:10Z</time>
      </trkpt>
      <trkpt lat="39.673871000" lon="-8.526856000">
        <ele>123.600000</ele>
        <time>2020-10-17T13:58:17Z</time>
      </trkpt>
      <trkpt lat="39.673783000" lon="-8.526992000">
        <ele>123.600000</ele>
        <time>2020-10-17T13:58:19Z</time>
      </trkpt>
      <trkpt lat="39.673603000" lon="-8.527274000">
        <ele>123.400000</ele>
        <time>2020-10-17T13:58:23Z</time>
      </trkpt>
      <trkpt lat="39.673562000" lon="-8.527343000">
        <ele>123.400000</ele>
        <time>2020-10-17T13:58:24Z</time>
      </trkpt>
      <trkpt lat="39.673522000" lon="-8.527413000">
        <ele>123.200000</ele>
        <time>2020-10-17T13:58:25Z</time>
      </trkpt>
      <trkpt lat="39.673483000" lon="-8.527482000">
        <ele>123.200000</ele>
        <time>2020-10-17T13:58:26Z</time>
      </trkpt>
      <trkpt lat="39.673445000" lon="-8.527550000">
        <ele>122.800000</ele>
        <time>2020-10-17T13:58:27Z</time>
      </trkpt>
      <trkpt lat="39.673291000" lon="-8.527834000">
        <ele>122.600000</ele>
        <time>2020-10-17T13:58:31Z</time>
      </trkpt>
      <trkpt lat="39.673253000" lon="-8.527904000">
        <ele>122.400000</ele>
        <time>2020-10-17T13:58:32Z</time>
      </trkpt>
      <trkpt lat="39.673215000" lon="-8.527972000">
        <ele>122.600000</ele>
        <time>2020-10-17T13:58:33Z</time>
      </trkpt>
      <trkpt lat="39.673175000" lon="-8.528039000">
        <ele>122.600000</ele>
        <time>2020-10-17T13:58:34Z</time>
      </trkpt>
      <trkpt lat="39.673137000" lon="-8.528106000">
        <ele>122.600000</ele>
        <time>2020-10-17T13:58:35Z</time>
      </trkpt>
      <trkpt lat="39.672939000" lon="-8.528452000">
        <ele>122.600000</ele>
        <time>2020-10-17T13:58:40Z</time>
      </trkpt>
      <trkpt lat="39.672899000" lon="-8.528519000">
        <ele>122.600000</ele>
        <time>2020-10-17T13:58:41Z</time>
      </trkpt>
      <trkpt lat="39.672863000" lon="-8.528588000">
        <ele>122.400000</ele>
        <time>2020-10-17T13:58:42Z</time>
      </trkpt>
      <trkpt lat="39.672828000" lon="-8.528658000">
        <ele>122.600000</ele>
        <time>2020-10-17T13:58:43Z</time>
      </trkpt>
      <trkpt lat="39.672763000" lon="-8.528801000">
        <ele>122.800000</ele>
        <time>2020-10-17T13:58:45Z</time>
      </trkpt>
      <trkpt lat="39.672733000" lon="-8.528875000">
        <ele>122.600000</ele>
        <time>2020-10-17T13:58:46Z</time>
      </trkpt>
      <trkpt lat="39.672705000" lon="-8.528950000">
        <ele>122.800000</ele>
        <time>2020-10-17T13:58:47Z</time>
      </trkpt>
      <trkpt lat="39.672679000" lon="-8.529024000">
        <ele>122.800000</ele>
        <time>2020-10-17T13:58:48Z</time>
      </trkpt>
      <trkpt lat="39.672656000" lon="-8.529099000">
        <ele>122.800000</ele>
        <time>2020-10-17T13:58:49Z</time>
      </trkpt>
      <trkpt lat="39.672588000" lon="-8.529323000">
        <ele>123.000000</ele>
        <time>2020-10-17T13:58:52Z</time>
      </trkpt>
      <trkpt lat="39.672567000" lon="-8.529395000">
        <ele>123.000000</ele>
        <time>2020-10-17T13:58:53Z</time>
      </trkpt>
      <trkpt lat="39.672547000" lon="-8.529465000">
        <ele>123.000000</ele>
        <time>2020-10-17T13:58:54Z</time>
      </trkpt>
      <trkpt lat="39.672528000" lon="-8.529535000">
        <ele>123.200000</ele>
        <time>2020-10-17T13:58:55Z</time>
      </trkpt>
      <trkpt lat="39.672510000" lon="-8.529605000">
        <ele>123.200000</ele>
        <time>2020-10-17T13:58:56Z</time>
      </trkpt>
      <trkpt lat="39.672493000" lon="-8.529676000">
        <ele>123.400000</ele>
        <time>2020-10-17T13:58:57Z</time>
      </trkpt>
      <trkpt lat="39.672479000" lon="-8.529745000">
        <ele>123.400000</ele>
        <time>2020-10-17T13:58:58Z</time>
      </trkpt>
      <trkpt lat="39.672464000" lon="-8.529813000">
        <ele>123.800000</ele>
        <time>2020-10-17T13:58:59Z</time>
      </trkpt>
      <trkpt lat="39.672450000" lon="-8.529880000">
        <ele>124.000000</ele>
        <time>2020-10-17T13:59:00Z</time>
      </trkpt>
      <trkpt lat="39.672437000" lon="-8.529944000">
        <ele>124.400000</ele>
        <time>2020-10-17T13:59:01Z</time>
      </trkpt>
      <trkpt lat="39.672422000" lon="-8.530007000">
        <ele>124.600000</ele>
        <time>2020-10-17T13:59:02Z</time>
      </trkpt>
      <trkpt lat="39.672398000" lon="-8.530069000">
        <ele>124.800000</ele>
        <time>2020-10-17T13:59:03Z</time>
      </trkpt>
      <trkpt lat="39.672369000" lon="-8.530131000">
        <ele>125.000000</ele>
        <time>2020-10-17T13:59:04Z</time>
      </trkpt>
      <trkpt lat="39.672336000" lon="-8.530196000">
        <ele>125.200000</ele>
        <time>2020-10-17T13:59:05Z</time>
      </trkpt>
      <trkpt lat="39.672306000" lon="-8.530260000">
        <ele>125.200000</ele>
        <time>2020-10-17T13:59:06Z</time>
      </trkpt>
      <trkpt lat="39.672277000" lon="-8.530323000">
        <ele>125.400000</ele>
        <time>2020-10-17T13:59:07Z</time>
      </trkpt>
      <trkpt lat="39.672247000" lon="-8.530386000">
        <ele>125.600000</ele>
        <time>2020-10-17T13:59:08Z</time>
      </trkpt>
      <trkpt lat="39.672219000" lon="-8.530447000">
        <ele>126.000000</ele>
        <time>2020-10-17T13:59:09Z</time>
      </trkpt>
      <trkpt lat="39.672190000" lon="-8.530506000">
        <ele>125.800000</ele>
        <time>2020-10-17T13:59:10Z</time>
      </trkpt>
      <trkpt lat="39.672159000" lon="-8.530563000">
        <ele>125.800000</ele>
        <time>2020-10-17T13:59:11Z</time>
      </trkpt>
      <trkpt lat="39.672128000" lon="-8.530618000">
        <ele>126.200000</ele>
        <time>2020-10-17T13:59:12Z</time>
      </trkpt>
      <trkpt lat="39.672099000" lon="-8.530671000">
        <ele>126.400000</ele>
        <time>2020-10-17T13:59:13Z</time>
      </trkpt>
      <trkpt lat="39.672071000" lon="-8.530723000">
        <ele>126.600000</ele>
        <time>2020-10-17T13:59:14Z</time>
      </trkpt>
      <trkpt lat="39.672047000" lon="-8.530774000">
        <ele>126.800000</ele>
        <time>2020-10-17T13:59:15Z</time>
      </trkpt>
      <trkpt lat="39.672025000" lon="-8.530824000">
        <ele>126.800000</ele>
        <time>2020-10-17T13:59:16Z</time>
      </trkpt>
      <trkpt lat="39.672002000" lon="-8.530872000">
        <ele>126.800000</ele>
        <time>2020-10-17T13:59:17Z</time>
      </trkpt>
      <trkpt lat="39.671978000" lon="-8.530918000">
        <ele>127.000000</ele>
        <time>2020-10-17T13:59:18Z</time>
      </trkpt>
      <trkpt lat="39.671954000" lon="-8.530965000">
        <ele>127.400000</ele>
        <time>2020-10-17T13:59:19Z</time>
      </trkpt>
      <trkpt lat="39.671932000" lon="-8.531013000">
        <ele>127.400000</ele>
        <time>2020-10-17T13:59:20Z</time>
      </trkpt>
      <trkpt lat="39.671912000" lon="-8.531062000">
        <ele>127.600000</ele>
        <time>2020-10-17T13:59:21Z</time>
      </trkpt>
      <trkpt lat="39.671893000" lon="-8.531109000">
        <ele>127.600000</ele>
        <time>2020-10-17T13:59:22Z</time>
      </trkpt>
      <trkpt lat="39.671876000" lon="-8.531155000">
        <ele>128.000000</ele>
        <time>2020-10-17T13:59:23Z</time>
      </trkpt>
      <trkpt lat="39.671857000" lon="-8.531201000">
        <ele>128.400000</ele>
        <time>2020-10-17T13:59:24Z</time>
      </trkpt>
      <trkpt lat="39.671840000" lon="-8.531248000">
        <ele>128.600000</ele>
        <time>2020-10-17T13:59:25Z</time>
      </trkpt>
      <trkpt lat="39.671823000" lon="-8.531295000">
        <ele>129.000000</ele>
        <time>2020-10-17T13:59:26Z</time>
      </trkpt>
      <trkpt lat="39.671806000" lon="-8.531342000">
        <ele>129.200000</ele>
        <time>2020-10-17T13:59:27Z</time>
      </trkpt>
      <trkpt lat="39.671791000" lon="-8.531390000">
        <ele>129.200000</ele>
        <time>2020-10-17T13:59:28Z</time>
      </trkpt>
      <trkpt lat="39.671775000" lon="-8.531436000">
        <ele>129.400000</ele>
        <time>2020-10-17T13:59:29Z</time>
      </trkpt>
      <trkpt lat="39.671760000" lon="-8.531483000">
        <ele>129.800000</ele>
        <time>2020-10-17T13:59:30Z</time>
      </trkpt>
      <trkpt lat="39.671744000" lon="-8.531529000">
        <ele>130.200000</ele>
        <time>2020-10-17T13:59:31Z</time>
      </trkpt>
      <trkpt lat="39.671727000" lon="-8.531576000">
        <ele>130.400000</ele>
        <time>2020-10-17T13:59:32Z</time>
      </trkpt>
      <trkpt lat="39.671712000" lon="-8.531628000">
        <ele>130.800000</ele>
        <time>2020-10-17T13:59:33Z</time>
      </trkpt>
      <trkpt lat="39.671696000" lon="-8.531680000">
        <ele>131.200000</ele>
        <time>2020-10-17T13:59:34Z</time>
      </trkpt>
      <trkpt lat="39.671681000" lon="-8.531732000">
        <ele>131.600000</ele>
        <time>2020-10-17T13:59:35Z</time>
      </trkpt>
      <trkpt lat="39.671662000" lon="-8.531787000">
        <ele>131.800000</ele>
        <time>2020-10-17T13:59:36Z</time>
      </trkpt>
      <trkpt lat="39.671644000" lon="-8.531844000">
        <ele>132.000000</ele>
        <time>2020-10-17T13:59:37Z</time>
      </trkpt>
      <trkpt lat="39.671629000" lon="-8.531901000">
        <ele>132.200000</ele>
        <time>2020-10-17T13:59:38Z</time>
      </trkpt>
      <trkpt lat="39.671616000" lon="-8.531961000">
        <ele>132.600000</ele>
        <time>2020-10-17T13:59:39Z</time>
      </trkpt>
      <trkpt lat="39.671606000" lon="-8.532022000">
        <ele>133.000000</ele>
        <time>2020-10-17T13:59:40Z</time>
      </trkpt>
      <trkpt lat="39.671598000" lon="-8.532089000">
        <ele>133.000000</ele>
        <time>2020-10-17T13:59:41Z</time>
      </trkpt>
      <trkpt lat="39.671595000" lon="-8.532161000">
        <ele>133.200000</ele>
        <time>2020-10-17T13:59:42Z</time>
      </trkpt>
      <trkpt lat="39.671591000" lon="-8.532237000">
        <ele>133.400000</ele>
        <time>2020-10-17T13:59:43Z</time>
      </trkpt>
      <trkpt lat="39.671589000" lon="-8.532315000">
        <ele>133.200000</ele>
        <time>2020-10-17T13:59:44Z</time>
      </trkpt>
      <trkpt lat="39.671590000" lon="-8.532391000">
        <ele>133.400000</ele>
        <time>2020-10-17T13:59:45Z</time>
      </trkpt>
      <trkpt lat="39.671588000" lon="-8.532469000">
        <ele>133.400000</ele>
        <time>2020-10-17T13:59:46Z</time>
      </trkpt>
      <trkpt lat="39.671589000" lon="-8.532548000">
        <ele>133.200000</ele>
        <time>2020-10-17T13:59:47Z</time>
      </trkpt>
      <trkpt lat="39.671589000" lon="-8.532630000">
        <ele>133.200000</ele>
        <time>2020-10-17T13:59:48Z</time>
      </trkpt>
      <trkpt lat="39.671581000" lon="-8.532711000">
        <ele>133.200000</ele>
        <time>2020-10-17T13:59:49Z</time>
      </trkpt>
      <trkpt lat="39.671566000" lon="-8.532795000">
        <ele>133.200000</ele>
        <time>2020-10-17T13:59:50Z</time>
      </trkpt>
      <trkpt lat="39.671487000" lon="-8.533057000">
        <ele>133.400000</ele>
        <time>2020-10-17T13:59:53Z</time>
      </trkpt>
      <trkpt lat="39.671456000" lon="-8.533138000">
        <ele>133.200000</ele>
        <time>2020-10-17T13:59:54Z</time>
      </trkpt>
      <trkpt lat="39.671422000" lon="-8.533216000">
        <ele>133.000000</ele>
        <time>2020-10-17T13:59:55Z</time>
      </trkpt>
      <trkpt lat="39.671389000" lon="-8.533289000">
        <ele>132.600000</ele>
        <time>2020-10-17T13:59:56Z</time>
      </trkpt>
      <trkpt lat="39.671355000" lon="-8.533363000">
        <ele>132.600000</ele>
        <time>2020-10-17T13:59:57Z</time>
      </trkpt>
      <trkpt lat="39.671321000" lon="-8.533433000">
        <ele>132.400000</ele>
        <time>2020-10-17T13:59:58Z</time>
      </trkpt>
      <trkpt lat="39.671289000" lon="-8.533495000">
        <ele>132.200000</ele>
        <time>2020-10-17T13:59:59Z</time>
      </trkpt>
      <trkpt lat="39.671258000" lon="-8.533555000">
        <ele>132.200000</ele>
        <time>2020-10-17T14:00:00Z</time>
      </trkpt>
      <trkpt lat="39.671226000" lon="-8.533612000">
        <ele>132.400000</ele>
        <time>2020-10-17T14:00:01Z</time>
      </trkpt>
      <trkpt lat="39.671197000" lon="-8.533666000">
        <ele>132.200000</ele>
        <time>2020-10-17T14:00:02Z</time>
      </trkpt>
      <trkpt lat="39.671170000" lon="-8.533719000">
        <ele>132.200000</ele>
        <time>2020-10-17T14:00:03Z</time>
      </trkpt>
      <trkpt lat="39.671146000" lon="-8.533769000">
        <ele>132.200000</ele>
        <time>2020-10-17T14:00:04Z</time>
      </trkpt>
      <trkpt lat="39.671121000" lon="-8.533815000">
        <ele>132.200000</ele>
        <time>2020-10-17T14:00:05Z</time>
      </trkpt>
      <trkpt lat="39.671099000" lon="-8.533858000">
        <ele>132.200000</ele>
        <time>2020-10-17T14:00:06Z</time>
      </trkpt>
      <trkpt lat="39.671077000" lon="-8.533899000">
        <ele>132.200000</ele>
        <time>2020-10-17T14:00:07Z</time>
      </trkpt>
      <trkpt lat="39.671057000" lon="-8.533941000">
        <ele>132.400000</ele>
        <time>2020-10-17T14:00:08Z</time>
      </trkpt>
      <trkpt lat="39.671039000" lon="-8.533984000">
        <ele>132.600000</ele>
        <time>2020-10-17T14:00:09Z</time>
      </trkpt>
      <trkpt lat="39.670996000" lon="-8.534065000">
        <ele>132.800000</ele>
        <time>2020-10-17T14:00:11Z</time>
      </trkpt>
      <trkpt lat="39.670973000" lon="-8.534100000">
        <ele>133.000000</ele>
        <time>2020-10-17T14:00:12Z</time>
      </trkpt>
      <trkpt lat="39.670950000" lon="-8.534137000">
        <ele>133.400000</ele>
        <time>2020-10-17T14:00:13Z</time>
      </trkpt>
      <trkpt lat="39.670927000" lon="-8.534175000">
        <ele>133.800000</ele>
        <time>2020-10-17T14:00:14Z</time>
      </trkpt>
      <trkpt lat="39.670906000" lon="-8.534213000">
        <ele>134.000000</ele>
        <time>2020-10-17T14:00:15Z</time>
      </trkpt>
      <trkpt lat="39.670888000" lon="-8.534250000">
        <ele>134.200000</ele>
        <time>2020-10-17T14:00:16Z</time>
      </trkpt>
      <trkpt lat="39.670867000" lon="-8.534289000">
        <ele>134.600000</ele>
        <time>2020-10-17T14:00:17Z</time>
      </trkpt>
      <trkpt lat="39.670847000" lon="-8.534325000">
        <ele>135.000000</ele>
        <time>2020-10-17T14:00:18Z</time>
      </trkpt>
      <trkpt lat="39.670827000" lon="-8.534358000">
        <ele>135.400000</ele>
        <time>2020-10-17T14:00:19Z</time>
      </trkpt>
      <trkpt lat="39.670808000" lon="-8.534393000">
        <ele>135.800000</ele>
        <time>2020-10-17T14:00:20Z</time>
      </trkpt>
      <trkpt lat="39.670786000" lon="-8.534427000">
        <ele>136.000000</ele>
        <time>2020-10-17T14:00:21Z</time>
      </trkpt>
      <trkpt lat="39.670765000" lon="-8.534459000">
        <ele>136.400000</ele>
        <time>2020-10-17T14:00:22Z</time>
      </trkpt>
      <trkpt lat="39.670743000" lon="-8.534493000">
        <ele>136.800000</ele>
        <time>2020-10-17T14:00:23Z</time>
      </trkpt>
      <trkpt lat="39.670721000" lon="-8.534531000">
        <ele>137.000000</ele>
        <time>2020-10-17T14:00:24Z</time>
      </trkpt>
      <trkpt lat="39.670699000" lon="-8.534569000">
        <ele>137.400000</ele>
        <time>2020-10-17T14:00:25Z</time>
      </trkpt>
      <trkpt lat="39.670679000" lon="-8.534607000">
        <ele>137.800000</ele>
        <time>2020-10-17T14:00:26Z</time>
      </trkpt>
      <trkpt lat="39.670658000" lon="-8.534646000">
        <ele>138.000000</ele>
        <time>2020-10-17T14:00:27Z</time>
      </trkpt>
      <trkpt lat="39.670637000" lon="-8.534688000">
        <ele>138.400000</ele>
        <time>2020-10-17T14:00:28Z</time>
      </trkpt>
      <trkpt lat="39.670616000" lon="-8.534732000">
        <ele>138.400000</ele>
        <time>2020-10-17T14:00:29Z</time>
      </trkpt>
      <trkpt lat="39.670595000" lon="-8.534774000">
        <ele>138.800000</ele>
        <time>2020-10-17T14:00:30Z</time>
      </trkpt>
      <trkpt lat="39.670573000" lon="-8.534813000">
        <ele>138.800000</ele>
        <time>2020-10-17T14:00:31Z</time>
      </trkpt>
      <trkpt lat="39.670551000" lon="-8.534853000">
        <ele>139.200000</ele>
        <time>2020-10-17T14:00:32Z</time>
      </trkpt>
      <trkpt lat="39.670527000" lon="-8.534893000">
        <ele>139.400000</ele>
        <time>2020-10-17T14:00:33Z</time>
      </trkpt>
      <trkpt lat="39.670504000" lon="-8.534933000">
        <ele>139.600000</ele>
        <time>2020-10-17T14:00:34Z</time>
      </trkpt>
      <trkpt lat="39.670482000" lon="-8.534972000">
        <ele>139.600000</ele>
        <time>2020-10-17T14:00:35Z</time>
      </trkpt>
      <trkpt lat="39.670459000" lon="-8.535013000">
        <ele>139.600000</ele>
        <time>2020-10-17T14:00:36Z</time>
      </trkpt>
      <trkpt lat="39.670438000" lon="-8.535053000">
        <ele>139.800000</ele>
        <time>2020-10-17T14:00:37Z</time>
      </trkpt>
      <trkpt lat="39.670417000" lon="-8.535093000">
        <ele>140.000000</ele>
        <time>2020-10-17T14:00:38Z</time>
      </trkpt>
      <trkpt lat="39.670397000" lon="-8.535131000">
        <ele>140.200000</ele>
        <time>2020-10-17T14:00:39Z</time>
      </trkpt>
      <trkpt lat="39.670374000" lon="-8.535171000">
        <ele>140.200000</ele>
        <time>2020-10-17T14:00:40Z</time>
      </trkpt>
      <trkpt lat="39.670352000" lon="-8.535210000">
        <ele>140.600000</ele>
        <time>2020-10-17T14:00:41Z</time>
      </trkpt>
      <trkpt lat="39.670333000" lon="-8.535249000">
        <ele>140.600000</ele>
        <time>2020-10-17T14:00:42Z</time>
      </trkpt>
      <trkpt lat="39.670316000" lon="-8.535290000">
        <ele>140.600000</ele>
        <time>2020-10-17T14:00:43Z</time>
      </trkpt>
      <trkpt lat="39.670298000" lon="-8.535333000">
        <ele>140.800000</ele>
        <time>2020-10-17T14:00:44Z</time>
      </trkpt>
      <trkpt lat="39.670277000" lon="-8.535376000">
        <ele>140.800000</ele>
        <time>2020-10-17T14:00:45Z</time>
      </trkpt>
      <trkpt lat="39.670253000" lon="-8.535420000">
        <ele>141.000000</ele>
        <time>2020-10-17T14:00:46Z</time>
      </trkpt>
      <trkpt lat="39.670229000" lon="-8.535462000">
        <ele>141.000000</ele>
        <time>2020-10-17T14:00:47Z</time>
      </trkpt>
      <trkpt lat="39.670205000" lon="-8.535505000">
        <ele>141.400000</ele>
        <time>2020-10-17T14:00:48Z</time>
      </trkpt>
      <trkpt lat="39.670182000" lon="-8.535549000">
        <ele>141.400000</ele>
        <time>2020-10-17T14:00:49Z</time>
      </trkpt>
      <trkpt lat="39.670159000" lon="-8.535593000">
        <ele>141.600000</ele>
        <time>2020-10-17T14:00:50Z</time>
      </trkpt>
      <trkpt lat="39.670137000" lon="-8.535634000">
        <ele>141.600000</ele>
        <time>2020-10-17T14:00:51Z</time>
      </trkpt>
      <trkpt lat="39.670113000" lon="-8.535676000">
        <ele>141.600000</ele>
        <time>2020-10-17T14:00:52Z</time>
      </trkpt>
      <trkpt lat="39.670086000" lon="-8.535717000">
        <ele>141.600000</ele>
        <time>2020-10-17T14:00:53Z</time>
      </trkpt>
      <trkpt lat="39.670060000" lon="-8.535763000">
        <ele>141.800000</ele>
        <time>2020-10-17T14:00:54Z</time>
      </trkpt>
      <trkpt lat="39.670032000" lon="-8.535807000">
        <ele>141.800000</ele>
        <time>2020-10-17T14:00:55Z</time>
      </trkpt>
      <trkpt lat="39.670004000" lon="-8.535851000">
        <ele>142.200000</ele>
        <time>2020-10-17T14:00:56Z</time>
      </trkpt>
      <trkpt lat="39.669977000" lon="-8.535895000">
        <ele>142.200000</ele>
        <time>2020-10-17T14:00:57Z</time>
      </trkpt>
      <trkpt lat="39.669951000" lon="-8.535939000">
        <ele>142.400000</ele>
        <time>2020-10-17T14:00:58Z</time>
      </trkpt>
      <trkpt lat="39.669925000" lon="-8.535985000">
        <ele>142.600000</ele>
        <time>2020-10-17T14:00:59Z</time>
      </trkpt>
      <trkpt lat="39.669900000" lon="-8.536030000">
        <ele>142.800000</ele>
        <time>2020-10-17T14:01:00Z</time>
      </trkpt>
      <trkpt lat="39.669876000" lon="-8.536072000">
        <ele>143.200000</ele>
        <time>2020-10-17T14:01:01Z</time>
      </trkpt>
      <trkpt lat="39.669849000" lon="-8.536115000">
        <ele>143.200000</ele>
        <time>2020-10-17T14:01:02Z</time>
      </trkpt>
      <trkpt lat="39.669820000" lon="-8.536160000">
        <ele>143.400000</ele>
        <time>2020-10-17T14:01:03Z</time>
      </trkpt>
      <trkpt lat="39.669793000" lon="-8.536202000">
        <ele>143.400000</ele>
        <time>2020-10-17T14:01:04Z</time>
      </trkpt>
      <trkpt lat="39.669768000" lon="-8.536245000">
        <ele>143.600000</ele>
        <time>2020-10-17T14:01:05Z</time>
      </trkpt>
      <trkpt lat="39.669745000" lon="-8.536288000">
        <ele>143.800000</ele>
        <time>2020-10-17T14:01:06Z</time>
      </trkpt>
      <trkpt lat="39.669723000" lon="-8.536331000">
        <ele>143.800000</ele>
        <time>2020-10-17T14:01:07Z</time>
      </trkpt>
      <trkpt lat="39.669701000" lon="-8.536375000">
        <ele>144.000000</ele>
        <time>2020-10-17T14:01:08Z</time>
      </trkpt>
      <trkpt lat="39.669678000" lon="-8.536421000">
        <ele>144.200000</ele>
        <time>2020-10-17T14:01:09Z</time>
      </trkpt>
      <trkpt lat="39.669652000" lon="-8.536472000">
        <ele>144.200000</ele>
        <time>2020-10-17T14:01:10Z</time>
      </trkpt>
      <trkpt lat="39.669627000" lon="-8.536520000">
        <ele>144.600000</ele>
        <time>2020-10-17T14:01:11Z</time>
      </trkpt>
      <trkpt lat="39.669601000" lon="-8.536564000">
        <ele>144.600000</ele>
        <time>2020-10-17T14:01:12Z</time>
      </trkpt>
      <trkpt lat="39.669575000" lon="-8.536609000">
        <ele>144.600000</ele>
        <time>2020-10-17T14:01:13Z</time>
      </trkpt>
      <trkpt lat="39.669551000" lon="-8.536656000">
        <ele>144.600000</ele>
        <time>2020-10-17T14:01:14Z</time>
      </trkpt>
      <trkpt lat="39.669526000" lon="-8.536705000">
        <ele>144.800000</ele>
        <time>2020-10-17T14:01:15Z</time>
      </trkpt>
      <trkpt lat="39.669502000" lon="-8.536752000">
        <ele>144.800000</ele>
        <time>2020-10-17T14:01:16Z</time>
      </trkpt>
      <trkpt lat="39.669478000" lon="-8.536798000">
        <ele>145.000000</ele>
        <time>2020-10-17T14:01:17Z</time>
      </trkpt>
      <trkpt lat="39.669453000" lon="-8.536846000">
        <ele>145.200000</ele>
        <time>2020-10-17T14:01:18Z</time>
      </trkpt>
      <trkpt lat="39.669426000" lon="-8.536891000">
        <ele>145.200000</ele>
        <time>2020-10-17T14:01:19Z</time>
      </trkpt>
      <trkpt lat="39.669398000" lon="-8.536935000">
        <ele>145.400000</ele>
        <time>2020-10-17T14:01:20Z</time>
      </trkpt>
      <trkpt lat="39.669373000" lon="-8.536979000">
        <ele>145.400000</ele>
        <time>2020-10-17T14:01:21Z</time>
      </trkpt>
      <trkpt lat="39.669349000" lon="-8.537022000">
        <ele>145.800000</ele>
        <time>2020-10-17T14:01:22Z</time>
      </trkpt>
      <trkpt lat="39.669323000" lon="-8.537067000">
        <ele>146.000000</ele>
        <time>2020-10-17T14:01:23Z</time>
      </trkpt>
      <trkpt lat="39.669298000" lon="-8.537110000">
        <ele>146.000000</ele>
        <time>2020-10-17T14:01:24Z</time>
      </trkpt>
      <trkpt lat="39.669273000" lon="-8.537154000">
        <ele>146.000000</ele>
        <time>2020-10-17T14:01:25Z</time>
      </trkpt>
      <trkpt lat="39.669249000" lon="-8.537200000">
        <ele>146.000000</ele>
        <time>2020-10-17T14:01:26Z</time>
      </trkpt>
      <trkpt lat="39.669227000" lon="-8.537248000">
        <ele>146.200000</ele>
        <time>2020-10-17T14:01:27Z</time>
      </trkpt>
      <trkpt lat="39.669200000" lon="-8.537299000">
        <ele>146.400000</ele>
        <time>2020-10-17T14:01:28Z</time>
      </trkpt>
      <trkpt lat="39.669169000" lon="-8.537351000">
        <ele>146.800000</ele>
        <time>2020-10-17T14:01:29Z</time>
      </trkpt>
      <trkpt lat="39.669144000" lon="-8.537402000">
        <ele>147.000000</ele>
        <time>2020-10-17T14:01:30Z</time>
      </trkpt>
      <trkpt lat="39.669116000" lon="-8.537461000">
        <ele>147.000000</ele>
        <time>2020-10-17T14:01:31Z</time>
      </trkpt>
      <trkpt lat="39.669093000" lon="-8.537526000">
        <ele>147.200000</ele>
        <time>2020-10-17T14:01:32Z</time>
      </trkpt>
      <trkpt lat="39.669067000" lon="-8.537594000">
        <ele>147.000000</ele>
        <time>2020-10-17T14:01:33Z</time>
      </trkpt>
      <trkpt lat="39.669041000" lon="-8.537663000">
        <ele>147.000000</ele>
        <time>2020-10-17T14:01:34Z</time>
      </trkpt>
      <trkpt lat="39.669017000" lon="-8.537735000">
        <ele>147.200000</ele>
        <time>2020-10-17T14:01:35Z</time>
      </trkpt>
      <trkpt lat="39.668992000" lon="-8.537810000">
        <ele>147.200000</ele>
        <time>2020-10-17T14:01:36Z</time>
      </trkpt>
      <trkpt lat="39.668975000" lon="-8.537889000">
        <ele>147.200000</ele>
        <time>2020-10-17T14:01:37Z</time>
      </trkpt>
      <trkpt lat="39.668958000" lon="-8.537956000">
        <ele>147.200000</ele>
        <time>2020-10-17T14:01:38Z</time>
      </trkpt>
      <trkpt lat="39.668931000" lon="-8.538006000">
        <ele>147.200000</ele>
        <time>2020-10-17T14:01:39Z</time>
      </trkpt>
      <trkpt lat="39.668902000" lon="-8.538051000">
        <ele>147.200000</ele>
        <time>2020-10-17T14:01:40Z</time>
      </trkpt>
      <trkpt lat="39.668879000" lon="-8.538095000">
        <ele>147.200000</ele>
        <time>2020-10-17T14:01:41Z</time>
      </trkpt>
      <trkpt lat="39.668863000" lon="-8.538137000">
        <ele>147.200000</ele>
        <time>2020-10-17T14:01:42Z</time>
      </trkpt>
      <trkpt lat="39.668853000" lon="-8.538167000">
        <ele>147.000000</ele>
        <time>2020-10-17T14:01:43Z</time>
      </trkpt>
      <trkpt lat="39.668851000" lon="-8.538184000">
        <ele>146.800000</ele>
        <time>2020-10-17T14:01:44Z</time>
      </trkpt>
      <trkpt lat="39.668841000" lon="-8.538198000">
        <ele>146.400000</ele>
        <time>2020-10-17T14:01:45Z</time>
      </trkpt>
      <trkpt lat="39.668826000" lon="-8.538209000">
        <ele>146.200000</ele>
        <time>2020-10-17T14:01:46Z</time>
      </trkpt>
      <trkpt lat="39.668811000" lon="-8.538207000">
        <ele>146.200000</ele>
        <time>2020-10-17T14:01:47Z</time>
      </trkpt>
      <trkpt lat="39.668802000" lon="-8.538191000">
        <ele>146.000000</ele>
        <time>2020-10-17T14:01:48Z</time>
      </trkpt>
      <trkpt lat="39.668838000" lon="-8.538095000">
        <ele>144.800000</ele>
        <time>2020-10-17T14:01:52Z</time>
      </trkpt>
      <trkpt lat="39.668872000" lon="-8.538017000">
        <ele>144.800000</ele>
        <time>2020-10-17T14:01:55Z</time>
      </trkpt>
      <trkpt lat="39.668887000" lon="-8.538008000">
        <ele>144.800000</ele>
        <time>2020-10-17T14:01:56Z</time>
      </trkpt>
      <trkpt lat="39.668902000" lon="-8.538010000">
        <ele>144.800000</ele>
        <time>2020-10-17T14:01:57Z</time>
      </trkpt>
      <trkpt lat="39.668914000" lon="-8.538017000">
        <ele>144.800000</ele>
        <time>2020-10-17T14:01:58Z</time>
      </trkpt>
      <trkpt lat="39.668921000" lon="-8.538021000">
        <ele>144.800000</ele>
        <time>2020-10-17T14:01:59Z</time>
      </trkpt>
      <trkpt lat="39.668926000" lon="-8.538023000">
        <ele>144.800000</ele>
        <time>2020-10-17T14:02:01Z</time>
      </trkpt>
      <trkpt lat="39.668980000" lon="-8.538114000">
        <ele>145.400000</ele>
        <time>2020-10-17T14:02:11Z</time>
      </trkpt>
      <trkpt lat="39.669061000" lon="-8.538388000">
        <ele>145.400000</ele>
        <time>2020-10-17T14:02:17Z</time>
      </trkpt>
      <trkpt lat="39.669127000" lon="-8.538614000">
        <ele>145.400000</ele>
        <time>2020-10-17T14:02:21Z</time>
      </trkpt>
      <trkpt lat="39.669141000" lon="-8.538670000">
        <ele>145.400000</ele>
        <time>2020-10-17T14:02:22Z</time>
      </trkpt>
      <trkpt lat="39.669156000" lon="-8.538723000">
        <ele>145.400000</ele>
        <time>2020-10-17T14:02:23Z</time>
      </trkpt>
      <trkpt lat="39.669170000" lon="-8.538776000">
        <ele>145.400000</ele>
        <time>2020-10-17T14:02:24Z</time>
      </trkpt>
      <trkpt lat="39.669182000" lon="-8.538827000">
        <ele>145.400000</ele>
        <time>2020-10-17T14:02:25Z</time>
      </trkpt>
      <trkpt lat="39.669195000" lon="-8.538875000">
        <ele>145.400000</ele>
        <time>2020-10-17T14:02:26Z</time>
      </trkpt>
      <trkpt lat="39.669205000" lon="-8.538925000">
        <ele>145.400000</ele>
        <time>2020-10-17T14:02:27Z</time>
      </trkpt>
      <trkpt lat="39.669216000" lon="-8.538971000">
        <ele>145.400000</ele>
        <time>2020-10-17T14:02:28Z</time>
      </trkpt>
      <trkpt lat="39.669227000" lon="-8.539014000">
        <ele>145.400000</ele>
        <time>2020-10-17T14:02:29Z</time>
      </trkpt>
      <trkpt lat="39.669238000" lon="-8.539057000">
        <ele>145.400000</ele>
        <time>2020-10-17T14:02:30Z</time>
      </trkpt>
      <trkpt lat="39.669247000" lon="-8.539101000">
        <ele>145.400000</ele>
        <time>2020-10-17T14:02:31Z</time>
      </trkpt>
      <trkpt lat="39.669258000" lon="-8.539142000">
        <ele>145.400000</ele>
        <time>2020-10-17T14:02:32Z</time>
      </trkpt>
      <trkpt lat="39.669266000" lon="-8.539180000">
        <ele>145.600000</ele>
        <time>2020-10-17T14:02:33Z</time>
      </trkpt>
      <trkpt lat="39.669274000" lon="-8.539218000">
        <ele>145.800000</ele>
        <time>2020-10-17T14:02:34Z</time>
      </trkpt>
      <trkpt lat="39.669303000" lon="-8.539295000">
        <ele>146.200000</ele>
        <time>2020-10-17T14:02:36Z</time>
      </trkpt>
      <trkpt lat="39.669321000" lon="-8.539330000">
        <ele>146.400000</ele>
        <time>2020-10-17T14:02:37Z</time>
      </trkpt>
      <trkpt lat="39.669341000" lon="-8.539364000">
        <ele>146.600000</ele>
        <time>2020-10-17T14:02:38Z</time>
      </trkpt>
      <trkpt lat="39.669363000" lon="-8.539399000">
        <ele>146.800000</ele>
        <time>2020-10-17T14:02:39Z</time>
      </trkpt>
      <trkpt lat="39.669387000" lon="-8.539432000">
        <ele>147.000000</ele>
        <time>2020-10-17T14:02:40Z</time>
      </trkpt>
      <trkpt lat="39.669410000" lon="-8.539465000">
        <ele>147.600000</ele>
        <time>2020-10-17T14:02:41Z</time>
      </trkpt>
      <trkpt lat="39.669434000" lon="-8.539498000">
        <ele>147.800000</ele>
        <time>2020-10-17T14:02:42Z</time>
      </trkpt>
      <trkpt lat="39.669461000" lon="-8.539536000">
        <ele>148.200000</ele>
        <time>2020-10-17T14:02:43Z</time>
      </trkpt>
      <trkpt lat="39.669489000" lon="-8.539572000">
        <ele>148.400000</ele>
        <time>2020-10-17T14:02:44Z</time>
      </trkpt>
      <trkpt lat="39.669517000" lon="-8.539607000">
        <ele>148.400000</ele>
        <time>2020-10-17T14:02:45Z</time>
      </trkpt>
      <trkpt lat="39.669542000" lon="-8.539644000">
        <ele>148.800000</ele>
        <time>2020-10-17T14:02:46Z</time>
      </trkpt>
      <trkpt lat="39.669568000" lon="-8.539681000">
        <ele>149.200000</ele>
        <time>2020-10-17T14:02:47Z</time>
      </trkpt>
      <trkpt lat="39.669594000" lon="-8.539719000">
        <ele>149.600000</ele>
        <time>2020-10-17T14:02:48Z</time>
      </trkpt>
      <trkpt lat="39.669621000" lon="-8.539754000">
        <ele>149.800000</ele>
        <time>2020-10-17T14:02:49Z</time>
      </trkpt>
      <trkpt lat="39.669648000" lon="-8.539785000">
        <ele>149.800000</ele>
        <time>2020-10-17T14:02:50Z</time>
      </trkpt>
      <trkpt lat="39.669676000" lon="-8.539811000">
        <ele>150.000000</ele>
        <time>2020-10-17T14:02:51Z</time>
      </trkpt>
      <trkpt lat="39.669705000" lon="-8.539833000">
        <ele>150.200000</ele>
        <time>2020-10-17T14:02:52Z</time>
      </trkpt>
      <trkpt lat="39.669731000" lon="-8.539850000">
        <ele>150.200000</ele>
        <time>2020-10-17T14:02:53Z</time>
      </trkpt>
      <trkpt lat="39.669750000" lon="-8.539871000">
        <ele>150.400000</ele>
        <time>2020-10-17T14:02:54Z</time>
      </trkpt>
      <trkpt lat="39.669763000" lon="-8.539898000">
        <ele>150.600000</ele>
        <time>2020-10-17T14:02:55Z</time>
      </trkpt>
      <trkpt lat="39.669770000" lon="-8.539925000">
        <ele>150.600000</ele>
        <time>2020-10-17T14:02:56Z</time>
      </trkpt>
      <trkpt lat="39.669777000" lon="-8.539953000">
        <ele>150.800000</ele>
        <time>2020-10-17T14:02:57Z</time>
      </trkpt>
      <trkpt lat="39.669785000" lon="-8.539985000">
        <ele>150.800000</ele>
        <time>2020-10-17T14:02:58Z</time>
      </trkpt>
      <trkpt lat="39.669793000" lon="-8.540013000">
        <ele>151.000000</ele>
        <time>2020-10-17T14:02:59Z</time>
      </trkpt>
      <trkpt lat="39.669804000" lon="-8.540046000">
        <ele>150.800000</ele>
        <time>2020-10-17T14:03:00Z</time>
      </trkpt>
      <trkpt lat="39.669813000" lon="-8.540076000">
        <ele>151.000000</ele>
        <time>2020-10-17T14:03:01Z</time>
      </trkpt>
      <trkpt lat="39.669824000" lon="-8.540099000">
        <ele>151.200000</ele>
        <time>2020-10-17T14:03:02Z</time>
      </trkpt>
      <trkpt lat="39.669834000" lon="-8.540119000">
        <ele>151.600000</ele>
        <time>2020-10-17T14:03:03Z</time>
      </trkpt>
      <trkpt lat="39.669845000" lon="-8.540138000">
        <ele>151.800000</ele>
        <time>2020-10-17T14:03:04Z</time>
      </trkpt>
      <trkpt lat="39.669857000" lon="-8.540158000">
        <ele>151.800000</ele>
        <time>2020-10-17T14:03:05Z</time>
      </trkpt>
      <trkpt lat="39.669871000" lon="-8.540177000">
        <ele>151.800000</ele>
        <time>2020-10-17T14:03:06Z</time>
      </trkpt>
      <trkpt lat="39.669884000" lon="-8.540192000">
        <ele>152.400000</ele>
        <time>2020-10-17T14:03:07Z</time>
      </trkpt>
      <trkpt lat="39.669896000" lon="-8.540208000">
        <ele>152.600000</ele>
        <time>2020-10-17T14:03:08Z</time>
      </trkpt>
      <trkpt lat="39.669908000" lon="-8.540226000">
        <ele>153.000000</ele>
        <time>2020-10-17T14:03:09Z</time>
      </trkpt>
      <trkpt lat="39.669918000" lon="-8.540246000">
        <ele>153.200000</ele>
        <time>2020-10-17T14:03:10Z</time>
      </trkpt>
      <trkpt lat="39.669928000" lon="-8.540270000">
        <ele>153.200000</ele>
        <time>2020-10-17T14:03:11Z</time>
      </trkpt>
      <trkpt lat="39.669938000" lon="-8.540294000">
        <ele>153.600000</ele>
        <time>2020-10-17T14:03:12Z</time>
      </trkpt>
      <trkpt lat="39.669950000" lon="-8.540316000">
        <ele>153.600000</ele>
        <time>2020-10-17T14:03:13Z</time>
      </trkpt>
      <trkpt lat="39.669962000" lon="-8.540339000">
        <ele>153.800000</ele>
        <time>2020-10-17T14:03:14Z</time>
      </trkpt>
      <trkpt lat="39.669974000" lon="-8.540358000">
        <ele>154.200000</ele>
        <time>2020-10-17T14:03:15Z</time>
      </trkpt>
      <trkpt lat="39.669988000" lon="-8.540377000">
        <ele>154.200000</ele>
        <time>2020-10-17T14:03:16Z</time>
      </trkpt>
      <trkpt lat="39.670002000" lon="-8.540396000">
        <ele>154.200000</ele>
        <time>2020-10-17T14:03:17Z</time>
      </trkpt>
      <trkpt lat="39.670017000" lon="-8.540414000">
        <ele>154.600000</ele>
        <time>2020-10-17T14:03:18Z</time>
      </trkpt>
      <trkpt lat="39.670032000" lon="-8.540434000">
        <ele>154.600000</ele>
        <time>2020-10-17T14:03:19Z</time>
      </trkpt>
      <trkpt lat="39.670049000" lon="-8.540454000">
        <ele>154.800000</ele>
        <time>2020-10-17T14:03:20Z</time>
      </trkpt>
      <trkpt lat="39.670066000" lon="-8.540471000">
        <ele>155.000000</ele>
        <time>2020-10-17T14:03:21Z</time>
      </trkpt>
      <trkpt lat="39.670083000" lon="-8.540487000">
        <ele>155.200000</ele>
        <time>2020-10-17T14:03:22Z</time>
      </trkpt>
      <trkpt lat="39.670097000" lon="-8.540503000">
        <ele>155.200000</ele>
        <time>2020-10-17T14:03:23Z</time>
      </trkpt>
      <trkpt lat="39.670110000" lon="-8.540523000">
        <ele>155.400000</ele>
        <time>2020-10-17T14:03:24Z</time>
      </trkpt>
      <trkpt lat="39.670120000" lon="-8.540544000">
        <ele>155.400000</ele>
        <time>2020-10-17T14:03:25Z</time>
      </trkpt>
      <trkpt lat="39.670134000" lon="-8.540560000">
        <ele>155.800000</ele>
        <time>2020-10-17T14:03:26Z</time>
      </trkpt>
      <trkpt lat="39.670150000" lon="-8.540574000">
        <ele>155.800000</ele>
        <time>2020-10-17T14:03:27Z</time>
      </trkpt>
      <trkpt lat="39.670169000" lon="-8.540589000">
        <ele>155.800000</ele>
        <time>2020-10-17T14:03:28Z</time>
      </trkpt>
      <trkpt lat="39.670189000" lon="-8.540607000">
        <ele>156.000000</ele>
        <time>2020-10-17T14:03:29Z</time>
      </trkpt>
      <trkpt lat="39.670206000" lon="-8.540624000">
        <ele>156.000000</ele>
        <time>2020-10-17T14:03:30Z</time>
      </trkpt>
      <trkpt lat="39.670223000" lon="-8.540638000">
        <ele>156.200000</ele>
        <time>2020-10-17T14:03:31Z</time>
      </trkpt>
      <trkpt lat="39.670242000" lon="-8.540658000">
        <ele>156.400000</ele>
        <time>2020-10-17T14:03:32Z</time>
      </trkpt>
      <trkpt lat="39.670259000" lon="-8.540674000">
        <ele>156.400000</ele>
        <time>2020-10-17T14:03:33Z</time>
      </trkpt>
      <trkpt lat="39.670275000" lon="-8.540687000">
        <ele>156.600000</ele>
        <time>2020-10-17T14:03:34Z</time>
      </trkpt>
      <trkpt lat="39.670293000" lon="-8.540698000">
        <ele>156.800000</ele>
        <time>2020-10-17T14:03:35Z</time>
      </trkpt>
      <trkpt lat="39.670310000" lon="-8.540706000">
        <ele>156.800000</ele>
        <time>2020-10-17T14:03:36Z</time>
      </trkpt>
      <trkpt lat="39.670325000" lon="-8.540716000">
        <ele>157.000000</ele>
        <time>2020-10-17T14:03:37Z</time>
      </trkpt>
      <trkpt lat="39.670335000" lon="-8.540730000">
        <ele>157.200000</ele>
        <time>2020-10-17T14:03:38Z</time>
      </trkpt>
      <trkpt lat="39.670346000" lon="-8.540743000">
        <ele>157.400000</ele>
        <time>2020-10-17T14:03:39Z</time>
      </trkpt>
      <trkpt lat="39.670354000" lon="-8.540756000">
        <ele>157.400000</ele>
        <time>2020-10-17T14:03:40Z</time>
      </trkpt>
      <trkpt lat="39.670363000" lon="-8.540767000">
        <ele>157.400000</ele>
        <time>2020-10-17T14:03:41Z</time>
      </trkpt>
      <trkpt lat="39.670370000" lon="-8.540774000">
        <ele>157.800000</ele>
        <time>2020-10-17T14:03:42Z</time>
      </trkpt>
      <trkpt lat="39.670375000" lon="-8.540780000">
        <ele>158.200000</ele>
        <time>2020-10-17T14:03:44Z</time>
      </trkpt>
      <trkpt lat="39.670455000" lon="-8.540943000">
        <ele>160.000000</ele>
        <time>2020-10-17T14:04:09Z</time>
      </trkpt>
      <trkpt lat="39.670463000" lon="-8.540958000">
        <ele>160.000000</ele>
        <time>2020-10-17T14:04:10Z</time>
      </trkpt>
      <trkpt lat="39.670474000" lon="-8.540972000">
        <ele>160.200000</ele>
        <time>2020-10-17T14:04:11Z</time>
      </trkpt>
      <trkpt lat="39.670485000" lon="-8.540986000">
        <ele>160.600000</ele>
        <time>2020-10-17T14:04:12Z</time>
      </trkpt>
      <trkpt lat="39.670497000" lon="-8.540998000">
        <ele>160.600000</ele>
        <time>2020-10-17T14:04:13Z</time>
      </trkpt>
      <trkpt lat="39.670511000" lon="-8.541010000">
        <ele>161.000000</ele>
        <time>2020-10-17T14:04:14Z</time>
      </trkpt>
      <trkpt lat="39.670526000" lon="-8.541021000">
        <ele>161.000000</ele>
        <time>2020-10-17T14:04:15Z</time>
      </trkpt>
      <trkpt lat="39.670543000" lon="-8.541030000">
        <ele>161.200000</ele>
        <time>2020-10-17T14:04:16Z</time>
      </trkpt>
      <trkpt lat="39.670558000" lon="-8.541037000">
        <ele>161.800000</ele>
        <time>2020-10-17T14:04:17Z</time>
      </trkpt>
      <trkpt lat="39.670574000" lon="-8.541044000">
        <ele>162.000000</ele>
        <time>2020-10-17T14:04:18Z</time>
      </trkpt>
      <trkpt lat="39.670591000" lon="-8.541050000">
        <ele>162.200000</ele>
        <time>2020-10-17T14:04:19Z</time>
      </trkpt>
      <trkpt lat="39.670606000" lon="-8.541054000">
        <ele>162.400000</ele>
        <time>2020-10-17T14:04:20Z</time>
      </trkpt>
      <trkpt lat="39.670620000" lon="-8.541058000">
        <ele>162.800000</ele>
        <time>2020-10-17T14:04:21Z</time>
      </trkpt>
      <trkpt lat="39.670636000" lon="-8.541063000">
        <ele>163.200000</ele>
        <time>2020-10-17T14:04:22Z</time>
      </trkpt>
      <trkpt lat="39.670653000" lon="-8.541068000">
        <ele>163.200000</ele>
        <time>2020-10-17T14:04:23Z</time>
      </trkpt>
      <trkpt lat="39.670670000" lon="-8.541073000">
        <ele>163.200000</ele>
        <time>2020-10-17T14:04:24Z</time>
      </trkpt>
      <trkpt lat="39.670687000" lon="-8.541080000">
        <ele>163.200000</ele>
        <time>2020-10-17T14:04:25Z</time>
      </trkpt>
      <trkpt lat="39.670702000" lon="-8.541086000">
        <ele>163.400000</ele>
        <time>2020-10-17T14:04:26Z</time>
      </trkpt>
      <trkpt lat="39.670718000" lon="-8.541094000">
        <ele>163.600000</ele>
        <time>2020-10-17T14:04:27Z</time>
      </trkpt>
      <trkpt lat="39.670737000" lon="-8.541098000">
        <ele>164.000000</ele>
        <time>2020-10-17T14:04:28Z</time>
      </trkpt>
      <trkpt lat="39.670754000" lon="-8.541104000">
        <ele>164.200000</ele>
        <time>2020-10-17T14:04:29Z</time>
      </trkpt>
      <trkpt lat="39.670771000" lon="-8.541108000">
        <ele>164.400000</ele>
        <time>2020-10-17T14:04:30Z</time>
      </trkpt>
      <trkpt lat="39.670786000" lon="-8.541112000">
        <ele>164.800000</ele>
        <time>2020-10-17T14:04:31Z</time>
      </trkpt>
      <trkpt lat="39.670804000" lon="-8.541114000">
        <ele>165.000000</ele>
        <time>2020-10-17T14:04:32Z</time>
      </trkpt>
      <trkpt lat="39.670825000" lon="-8.541114000">
        <ele>165.200000</ele>
        <time>2020-10-17T14:04:33Z</time>
      </trkpt>
      <trkpt lat="39.670845000" lon="-8.541118000">
        <ele>165.400000</ele>
        <time>2020-10-17T14:04:34Z</time>
      </trkpt>
      <trkpt lat="39.670866000" lon="-8.541125000">
        <ele>165.600000</ele>
        <time>2020-10-17T14:04:35Z</time>
      </trkpt>
      <trkpt lat="39.670886000" lon="-8.541130000">
        <ele>165.800000</ele>
        <time>2020-10-17T14:04:36Z</time>
      </trkpt>
      <trkpt lat="39.670905000" lon="-8.541133000">
        <ele>166.200000</ele>
        <time>2020-10-17T14:04:37Z</time>
      </trkpt>
      <trkpt lat="39.670926000" lon="-8.541135000">
        <ele>166.400000</ele>
        <time>2020-10-17T14:04:38Z</time>
      </trkpt>
      <trkpt lat="39.670947000" lon="-8.541140000">
        <ele>166.600000</ele>
        <time>2020-10-17T14:04:39Z</time>
      </trkpt>
      <trkpt lat="39.670967000" lon="-8.541144000">
        <ele>166.800000</ele>
        <time>2020-10-17T14:04:40Z</time>
      </trkpt>
      <trkpt lat="39.670986000" lon="-8.541148000">
        <ele>167.000000</ele>
        <time>2020-10-17T14:04:41Z</time>
      </trkpt>
      <trkpt lat="39.671003000" lon="-8.541152000">
        <ele>167.200000</ele>
        <time>2020-10-17T14:04:42Z</time>
      </trkpt>
      <trkpt lat="39.671018000" lon="-8.541156000">
        <ele>167.200000</ele>
        <time>2020-10-17T14:04:43Z</time>
      </trkpt>
      <trkpt lat="39.671034000" lon="-8.541162000">
        <ele>167.200000</ele>
        <time>2020-10-17T14:04:44Z</time>
      </trkpt>
      <trkpt lat="39.671051000" lon="-8.541166000">
        <ele>167.200000</ele>
        <time>2020-10-17T14:04:45Z</time>
      </trkpt>
      <trkpt lat="39.671068000" lon="-8.541170000">
        <ele>167.600000</ele>
        <time>2020-10-17T14:04:46Z</time>
      </trkpt>
      <trkpt lat="39.671084000" lon="-8.541171000">
        <ele>167.800000</ele>
        <time>2020-10-17T14:04:47Z</time>
      </trkpt>
      <trkpt lat="39.671099000" lon="-8.541169000">
        <ele>168.000000</ele>
        <time>2020-10-17T14:04:48Z</time>
      </trkpt>
      <trkpt lat="39.671115000" lon="-8.541166000">
        <ele>168.200000</ele>
        <time>2020-10-17T14:04:49Z</time>
      </trkpt>
      <trkpt lat="39.671130000" lon="-8.541159000">
        <ele>168.600000</ele>
        <time>2020-10-17T14:04:50Z</time>
      </trkpt>
      <trkpt lat="39.671146000" lon="-8.541152000">
        <ele>168.600000</ele>
        <time>2020-10-17T14:04:51Z</time>
      </trkpt>
      <trkpt lat="39.671162000" lon="-8.541141000">
        <ele>169.000000</ele>
        <time>2020-10-17T14:04:52Z</time>
      </trkpt>
      <trkpt lat="39.671177000" lon="-8.541130000">
        <ele>169.200000</ele>
        <time>2020-10-17T14:04:53Z</time>
      </trkpt>
      <trkpt lat="39.671193000" lon="-8.541121000">
        <ele>169.400000</ele>
        <time>2020-10-17T14:04:54Z</time>
      </trkpt>
      <trkpt lat="39.671207000" lon="-8.541116000">
        <ele>169.800000</ele>
        <time>2020-10-17T14:04:55Z</time>
      </trkpt>
      <trkpt lat="39.671222000" lon="-8.541110000">
        <ele>169.800000</ele>
        <time>2020-10-17T14:04:56Z</time>
      </trkpt>
      <trkpt lat="39.671239000" lon="-8.541109000">
        <ele>170.000000</ele>
        <time>2020-10-17T14:04:57Z</time>
      </trkpt>
      <trkpt lat="39.671256000" lon="-8.541111000">
        <ele>170.200000</ele>
        <time>2020-10-17T14:04:58Z</time>
      </trkpt>
      <trkpt lat="39.671274000" lon="-8.541116000">
        <ele>170.400000</ele>
        <time>2020-10-17T14:04:59Z</time>
      </trkpt>
      <trkpt lat="39.671288000" lon="-8.541124000">
        <ele>170.600000</ele>
        <time>2020-10-17T14:05:00Z</time>
      </trkpt>
      <trkpt lat="39.671303000" lon="-8.541128000">
        <ele>170.800000</ele>
        <time>2020-10-17T14:05:01Z</time>
      </trkpt>
      <trkpt lat="39.671318000" lon="-8.541135000">
        <ele>170.800000</ele>
        <time>2020-10-17T14:05:02Z</time>
      </trkpt>
      <trkpt lat="39.671331000" lon="-8.541143000">
        <ele>171.000000</ele>
        <time>2020-10-17T14:05:03Z</time>
      </trkpt>
      <trkpt lat="39.671342000" lon="-8.541150000">
        <ele>171.400000</ele>
        <time>2020-10-17T14:05:04Z</time>
      </trkpt>
      <trkpt lat="39.671355000" lon="-8.541159000">
        <ele>171.600000</ele>
        <time>2020-10-17T14:05:05Z</time>
      </trkpt>
      <trkpt lat="39.671371000" lon="-8.541166000">
        <ele>171.600000</ele>
        <time>2020-10-17T14:05:06Z</time>
      </trkpt>
      <trkpt lat="39.671385000" lon="-8.541170000">
        <ele>171.600000</ele>
        <time>2020-10-17T14:05:07Z</time>
      </trkpt>
      <trkpt lat="39.671399000" lon="-8.541174000">
        <ele>171.800000</ele>
        <time>2020-10-17T14:05:08Z</time>
      </trkpt>
      <trkpt lat="39.671413000" lon="-8.541181000">
        <ele>172.000000</ele>
        <time>2020-10-17T14:05:09Z</time>
      </trkpt>
      <trkpt lat="39.671431000" lon="-8.541191000">
        <ele>172.200000</ele>
        <time>2020-10-17T14:05:10Z</time>
      </trkpt>
      <trkpt lat="39.671447000" lon="-8.541201000">
        <ele>172.400000</ele>
        <time>2020-10-17T14:05:11Z</time>
      </trkpt>
      <trkpt lat="39.671460000" lon="-8.541211000">
        <ele>172.800000</ele>
        <time>2020-10-17T14:05:12Z</time>
      </trkpt>
      <trkpt lat="39.671473000" lon="-8.541221000">
        <ele>173.000000</ele>
        <time>2020-10-17T14:05:13Z</time>
      </trkpt>
      <trkpt lat="39.671487000" lon="-8.541232000">
        <ele>173.200000</ele>
        <time>2020-10-17T14:05:14Z</time>
      </trkpt>
      <trkpt lat="39.671501000" lon="-8.541246000">
        <ele>173.400000</ele>
        <time>2020-10-17T14:05:15Z</time>
      </trkpt>
      <trkpt lat="39.671513000" lon="-8.541257000">
        <ele>173.600000</ele>
        <time>2020-10-17T14:05:16Z</time>
      </trkpt>
      <trkpt lat="39.671526000" lon="-8.541265000">
        <ele>173.600000</ele>
        <time>2020-10-17T14:05:17Z</time>
      </trkpt>
      <trkpt lat="39.671539000" lon="-8.541273000">
        <ele>173.800000</ele>
        <time>2020-10-17T14:05:18Z</time>
      </trkpt>
      <trkpt lat="39.671554000" lon="-8.541281000">
        <ele>174.000000</ele>
        <time>2020-10-17T14:05:19Z</time>
      </trkpt>
      <trkpt lat="39.671568000" lon="-8.541293000">
        <ele>174.200000</ele>
        <time>2020-10-17T14:05:20Z</time>
      </trkpt>
      <trkpt lat="39.671584000" lon="-8.541305000">
        <ele>174.600000</ele>
        <time>2020-10-17T14:05:21Z</time>
      </trkpt>
      <trkpt lat="39.671597000" lon="-8.541319000">
        <ele>174.800000</ele>
        <time>2020-10-17T14:05:22Z</time>
      </trkpt>
      <trkpt lat="39.671609000" lon="-8.541332000">
        <ele>175.000000</ele>
        <time>2020-10-17T14:05:23Z</time>
      </trkpt>
      <trkpt lat="39.671621000" lon="-8.541346000">
        <ele>175.200000</ele>
        <time>2020-10-17T14:05:24Z</time>
      </trkpt>
      <trkpt lat="39.671632000" lon="-8.541359000">
        <ele>175.600000</ele>
        <time>2020-10-17T14:05:25Z</time>
      </trkpt>
      <trkpt lat="39.671645000" lon="-8.541376000">
        <ele>175.800000</ele>
        <time>2020-10-17T14:05:26Z</time>
      </trkpt>
      <trkpt lat="39.671656000" lon="-8.541392000">
        <ele>175.800000</ele>
        <time>2020-10-17T14:05:27Z</time>
      </trkpt>
      <trkpt lat="39.671665000" lon="-8.541412000">
        <ele>176.000000</ele>
        <time>2020-10-17T14:05:28Z</time>
      </trkpt>
      <trkpt lat="39.671671000" lon="-8.541431000">
        <ele>176.400000</ele>
        <time>2020-10-17T14:05:29Z</time>
      </trkpt>
      <trkpt lat="39.671675000" lon="-8.541450000">
        <ele>176.600000</ele>
        <time>2020-10-17T14:05:30Z</time>
      </trkpt>
      <trkpt lat="39.671678000" lon="-8.541469000">
        <ele>176.600000</ele>
        <time>2020-10-17T14:05:31Z</time>
      </trkpt>
      <trkpt lat="39.671677000" lon="-8.541488000">
        <ele>176.800000</ele>
        <time>2020-10-17T14:05:32Z</time>
      </trkpt>
      <trkpt lat="39.671676000" lon="-8.541505000">
        <ele>177.000000</ele>
        <time>2020-10-17T14:05:33Z</time>
      </trkpt>
      <trkpt lat="39.671672000" lon="-8.541521000">
        <ele>177.200000</ele>
        <time>2020-10-17T14:05:34Z</time>
      </trkpt>
      <trkpt lat="39.671667000" lon="-8.541540000">
        <ele>177.400000</ele>
        <time>2020-10-17T14:05:35Z</time>
      </trkpt>
      <trkpt lat="39.671665000" lon="-8.541561000">
        <ele>177.600000</ele>
        <time>2020-10-17T14:05:36Z</time>
      </trkpt>
      <trkpt lat="39.671660000" lon="-8.541584000">
        <ele>177.800000</ele>
        <time>2020-10-17T14:05:37Z</time>
      </trkpt>
      <trkpt lat="39.671657000" lon="-8.541608000">
        <ele>178.000000</ele>
        <time>2020-10-17T14:05:38Z</time>
      </trkpt>
      <trkpt lat="39.671648000" lon="-8.541630000">
        <ele>178.200000</ele>
        <time>2020-10-17T14:05:39Z</time>
      </trkpt>
      <trkpt lat="39.671637000" lon="-8.541649000">
        <ele>178.200000</ele>
        <time>2020-10-17T14:05:40Z</time>
      </trkpt>
      <trkpt lat="39.671628000" lon="-8.541673000">
        <ele>178.400000</ele>
        <time>2020-10-17T14:05:41Z</time>
      </trkpt>
      <trkpt lat="39.671621000" lon="-8.541698000">
        <ele>178.800000</ele>
        <time>2020-10-17T14:05:42Z</time>
      </trkpt>
      <trkpt lat="39.671615000" lon="-8.541723000">
        <ele>179.000000</ele>
        <time>2020-10-17T14:05:43Z</time>
      </trkpt>
      <trkpt lat="39.671609000" lon="-8.541748000">
        <ele>179.400000</ele>
        <time>2020-10-17T14:05:44Z</time>
      </trkpt>
      <trkpt lat="39.671603000" lon="-8.541773000">
        <ele>179.600000</ele>
        <time>2020-10-17T14:05:45Z</time>
      </trkpt>
      <trkpt lat="39.671596000" lon="-8.541800000">
        <ele>179.800000</ele>
        <time>2020-10-17T14:05:46Z</time>
      </trkpt>
      <trkpt lat="39.671592000" lon="-8.541830000">
        <ele>179.800000</ele>
        <time>2020-10-17T14:05:47Z</time>
      </trkpt>
      <trkpt lat="39.671589000" lon="-8.541861000">
        <ele>179.800000</ele>
        <time>2020-10-17T14:05:48Z</time>
      </trkpt>
      <trkpt lat="39.671587000" lon="-8.541889000">
        <ele>180.200000</ele>
        <time>2020-10-17T14:05:49Z</time>
      </trkpt>
      <trkpt lat="39.671581000" lon="-8.541915000">
        <ele>180.200000</ele>
        <time>2020-10-17T14:05:50Z</time>
      </trkpt>
      <trkpt lat="39.671577000" lon="-8.541939000">
        <ele>180.400000</ele>
        <time>2020-10-17T14:05:51Z</time>
      </trkpt>
      <trkpt lat="39.671576000" lon="-8.541966000">
        <ele>180.600000</ele>
        <time>2020-10-17T14:05:52Z</time>
      </trkpt>
      <trkpt lat="39.671579000" lon="-8.542002000">
        <ele>180.600000</ele>
        <time>2020-10-17T14:05:53Z</time>
      </trkpt>
      <trkpt lat="39.671585000" lon="-8.542040000">
        <ele>180.800000</ele>
        <time>2020-10-17T14:05:54Z</time>
      </trkpt>
      <trkpt lat="39.671594000" lon="-8.542084000">
        <ele>180.800000</ele>
        <time>2020-10-17T14:05:55Z</time>
      </trkpt>
      <trkpt lat="39.671601000" lon="-8.542124000">
        <ele>180.800000</ele>
        <time>2020-10-17T14:05:56Z</time>
      </trkpt>
      <trkpt lat="39.671607000" lon="-8.542165000">
        <ele>180.800000</ele>
        <time>2020-10-17T14:05:57Z</time>
      </trkpt>
      <trkpt lat="39.671615000" lon="-8.542214000">
        <ele>181.000000</ele>
        <time>2020-10-17T14:05:58Z</time>
      </trkpt>
      <trkpt lat="39.671624000" lon="-8.542269000">
        <ele>181.000000</ele>
        <time>2020-10-17T14:05:59Z</time>
      </trkpt>
      <trkpt lat="39.671634000" lon="-8.542322000">
        <ele>181.000000</ele>
        <time>2020-10-17T14:06:00Z</time>
      </trkpt>
      <trkpt lat="39.671649000" lon="-8.542574000">
        <ele>181.200000</ele>
        <time>2020-10-17T14:06:05Z</time>
      </trkpt>
      <trkpt lat="39.671629000" lon="-8.542628000">
        <ele>181.200000</ele>
        <time>2020-10-17T14:06:06Z</time>
      </trkpt>
      <trkpt lat="39.671596000" lon="-8.542683000">
        <ele>181.200000</ele>
        <time>2020-10-17T14:06:07Z</time>
      </trkpt>
      <trkpt lat="39.671558000" lon="-8.542739000">
        <ele>181.200000</ele>
        <time>2020-10-17T14:06:08Z</time>
      </trkpt>
      <trkpt lat="39.671514000" lon="-8.542787000">
        <ele>181.200000</ele>
        <time>2020-10-17T14:06:09Z</time>
      </trkpt>
      <trkpt lat="39.671467000" lon="-8.542840000">
        <ele>181.200000</ele>
        <time>2020-10-17T14:06:10Z</time>
      </trkpt>
      <trkpt lat="39.671382000" lon="-8.542931000">
        <ele>181.200000</ele>
        <time>2020-10-17T14:06:12Z</time>
      </trkpt>
      <trkpt lat="39.671342000" lon="-8.542968000">
        <ele>181.200000</ele>
        <time>2020-10-17T14:06:13Z</time>
      </trkpt>
      <trkpt lat="39.671302000" lon="-8.543006000">
        <ele>181.200000</ele>
        <time>2020-10-17T14:06:14Z</time>
      </trkpt>
      <trkpt lat="39.671266000" lon="-8.543045000">
        <ele>181.200000</ele>
        <time>2020-10-17T14:06:15Z</time>
      </trkpt>
      <trkpt lat="39.671236000" lon="-8.543085000">
        <ele>180.600000</ele>
        <time>2020-10-17T14:06:16Z</time>
      </trkpt>
      <trkpt lat="39.671214000" lon="-8.543122000">
        <ele>180.600000</ele>
        <time>2020-10-17T14:06:17Z</time>
      </trkpt>
      <trkpt lat="39.671207000" lon="-8.543162000">
        <ele>180.400000</ele>
        <time>2020-10-17T14:06:18Z</time>
      </trkpt>
      <trkpt lat="39.671210000" lon="-8.543196000">
        <ele>180.400000</ele>
        <time>2020-10-17T14:06:19Z</time>
      </trkpt>
      <trkpt lat="39.671222000" lon="-8.543231000">
        <ele>180.200000</ele>
        <time>2020-10-17T14:06:20Z</time>
      </trkpt>
      <trkpt lat="39.671234000" lon="-8.543262000">
        <ele>180.200000</ele>
        <time>2020-10-17T14:06:21Z</time>
      </trkpt>
      <trkpt lat="39.671250000" lon="-8.543289000">
        <ele>180.200000</ele>
        <time>2020-10-17T14:06:22Z</time>
      </trkpt>
      <trkpt lat="39.671272000" lon="-8.543314000">
        <ele>180.000000</ele>
        <time>2020-10-17T14:06:23Z</time>
      </trkpt>
      <trkpt lat="39.671289000" lon="-8.543348000">
        <ele>180.200000</ele>
        <time>2020-10-17T14:06:24Z</time>
      </trkpt>
      <trkpt lat="39.671330000" lon="-8.543431000">
        <ele>180.200000</ele>
        <time>2020-10-17T14:06:26Z</time>
      </trkpt>
      <trkpt lat="39.671363000" lon="-8.543518000">
        <ele>180.200000</ele>
        <time>2020-10-17T14:06:28Z</time>
      </trkpt>
      <trkpt lat="39.671392000" lon="-8.543650000">
        <ele>180.400000</ele>
        <time>2020-10-17T14:06:31Z</time>
      </trkpt>
      <trkpt lat="39.671397000" lon="-8.543686000">
        <ele>180.600000</ele>
        <time>2020-10-17T14:06:32Z</time>
      </trkpt>
      <trkpt lat="39.671460000" lon="-8.543925000">
        <ele>181.600000</ele>
        <time>2020-10-17T14:06:37Z</time>
      </trkpt>
      <trkpt lat="39.671482000" lon="-8.543979000">
        <ele>181.800000</ele>
        <time>2020-10-17T14:06:38Z</time>
      </trkpt>
      <trkpt lat="39.671504000" lon="-8.544027000">
        <ele>182.000000</ele>
        <time>2020-10-17T14:06:39Z</time>
      </trkpt>
      <trkpt lat="39.671529000" lon="-8.544069000">
        <ele>182.200000</ele>
        <time>2020-10-17T14:06:40Z</time>
      </trkpt>
      <trkpt lat="39.671548000" lon="-8.544105000">
        <ele>182.200000</ele>
        <time>2020-10-17T14:06:41Z</time>
      </trkpt>
      <trkpt lat="39.671578000" lon="-8.544143000">
        <ele>182.200000</ele>
        <time>2020-10-17T14:06:42Z</time>
      </trkpt>
      <trkpt lat="39.671604000" lon="-8.544167000">
        <ele>182.200000</ele>
        <time>2020-10-17T14:06:43Z</time>
      </trkpt>
      <trkpt lat="39.671630000" lon="-8.544190000">
        <ele>182.200000</ele>
        <time>2020-10-17T14:06:45Z</time>
      </trkpt>
      <trkpt lat="39.671656000" lon="-8.544214000">
        <ele>181.800000</ele>
        <time>2020-10-17T14:07:14Z</time>
      </trkpt>
      <trkpt lat="39.671682000" lon="-8.544238000">
        <ele>182.000000</ele>
        <time>2020-10-17T14:07:15Z</time>
      </trkpt>
      <trkpt lat="39.671759000" lon="-8.544305000">
        <ele>181.800000</ele>
        <time>2020-10-17T14:07:17Z</time>
      </trkpt>
      <trkpt lat="39.671858000" lon="-8.544370000">
        <ele>182.000000</ele>
        <time>2020-10-17T14:07:19Z</time>
      </trkpt>
      <trkpt lat="39.671940000" lon="-8.544438000">
        <ele>182.000000</ele>
        <time>2020-10-17T14:07:21Z</time>
      </trkpt>
      <trkpt lat="39.671977000" lon="-8.544469000">
        <ele>182.200000</ele>
        <time>2020-10-17T14:07:22Z</time>
      </trkpt>
      <trkpt lat="39.672010000" lon="-8.544504000">
        <ele>182.200000</ele>
        <time>2020-10-17T14:07:23Z</time>
      </trkpt>
      <trkpt lat="39.672041000" lon="-8.544544000">
        <ele>182.200000</ele>
        <time>2020-10-17T14:07:24Z</time>
      </trkpt>
      <trkpt lat="39.672077000" lon="-8.544599000">
        <ele>182.000000</ele>
        <time>2020-10-17T14:07:25Z</time>
      </trkpt>
      <trkpt lat="39.672104000" lon="-8.544655000">
        <ele>182.200000</ele>
        <time>2020-10-17T14:07:26Z</time>
      </trkpt>
      <trkpt lat="39.672127000" lon="-8.544712000">
        <ele>182.000000</ele>
        <time>2020-10-17T14:07:27Z</time>
      </trkpt>
      <trkpt lat="39.672153000" lon="-8.544770000">
        <ele>181.800000</ele>
        <time>2020-10-17T14:07:28Z</time>
      </trkpt>
      <trkpt lat="39.672178000" lon="-8.544827000">
        <ele>181.800000</ele>
        <time>2020-10-17T14:07:29Z</time>
      </trkpt>
      <trkpt lat="39.672198000" lon="-8.544888000">
        <ele>181.800000</ele>
        <time>2020-10-17T14:07:30Z</time>
      </trkpt>
      <trkpt lat="39.672248000" lon="-8.545013000">
        <ele>182.000000</ele>
        <time>2020-10-17T14:07:32Z</time>
      </trkpt>
      <trkpt lat="39.672266000" lon="-8.545071000">
        <ele>182.000000</ele>
        <time>2020-10-17T14:07:33Z</time>
      </trkpt>
      <trkpt lat="39.672283000" lon="-8.545132000">
        <ele>181.800000</ele>
        <time>2020-10-17T14:07:34Z</time>
      </trkpt>
      <trkpt lat="39.672311000" lon="-8.545244000">
        <ele>182.200000</ele>
        <time>2020-10-17T14:07:36Z</time>
      </trkpt>
      <trkpt lat="39.672325000" lon="-8.545307000">
        <ele>182.600000</ele>
        <time>2020-10-17T14:07:37Z</time>
      </trkpt>
      <trkpt lat="39.672367000" lon="-8.545496000">
        <ele>182.600000</ele>
        <time>2020-10-17T14:07:40Z</time>
      </trkpt>
      <trkpt lat="39.672382000" lon="-8.545554000">
        <ele>182.800000</ele>
        <time>2020-10-17T14:07:41Z</time>
      </trkpt>
      <trkpt lat="39.672394000" lon="-8.545608000">
        <ele>183.000000</ele>
        <time>2020-10-17T14:07:42Z</time>
      </trkpt>
      <trkpt lat="39.672405000" lon="-8.545662000">
        <ele>183.000000</ele>
        <time>2020-10-17T14:07:43Z</time>
      </trkpt>
      <trkpt lat="39.672414000" lon="-8.545712000">
        <ele>183.200000</ele>
        <time>2020-10-17T14:07:44Z</time>
      </trkpt>
      <trkpt lat="39.672423000" lon="-8.545757000">
        <ele>183.400000</ele>
        <time>2020-10-17T14:07:45Z</time>
      </trkpt>
      <trkpt lat="39.672432000" lon="-8.545799000">
        <ele>183.600000</ele>
        <time>2020-10-17T14:07:46Z</time>
      </trkpt>
      <trkpt lat="39.672441000" lon="-8.545834000">
        <ele>183.800000</ele>
        <time>2020-10-17T14:07:47Z</time>
      </trkpt>
      <trkpt lat="39.672452000" lon="-8.545867000">
        <ele>184.000000</ele>
        <time>2020-10-17T14:07:48Z</time>
      </trkpt>
      <trkpt lat="39.672462000" lon="-8.545898000">
        <ele>184.200000</ele>
        <time>2020-10-17T14:07:49Z</time>
      </trkpt>
      <trkpt lat="39.672474000" lon="-8.545932000">
        <ele>184.600000</ele>
        <time>2020-10-17T14:07:50Z</time>
      </trkpt>
      <trkpt lat="39.672485000" lon="-8.545964000">
        <ele>184.800000</ele>
        <time>2020-10-17T14:07:51Z</time>
      </trkpt>
      <trkpt lat="39.672498000" lon="-8.545997000">
        <ele>185.200000</ele>
        <time>2020-10-17T14:07:52Z</time>
      </trkpt>
      <trkpt lat="39.672528000" lon="-8.546025000">
        <ele>185.200000</ele>
        <time>2020-10-17T14:07:53Z</time>
      </trkpt>
      <trkpt lat="39.672549000" lon="-8.546066000">
        <ele>185.400000</ele>
        <time>2020-10-17T14:07:54Z</time>
      </trkpt>
      <trkpt lat="39.672573000" lon="-8.546108000">
        <ele>185.600000</ele>
        <time>2020-10-17T14:07:55Z</time>
      </trkpt>
      <trkpt lat="39.672602000" lon="-8.546144000">
        <ele>186.000000</ele>
        <time>2020-10-17T14:07:56Z</time>
      </trkpt>
      <trkpt lat="39.672630000" lon="-8.546186000">
        <ele>186.200000</ele>
        <time>2020-10-17T14:07:57Z</time>
      </trkpt>
      <trkpt lat="39.672659000" lon="-8.546224000">
        <ele>186.400000</ele>
        <time>2020-10-17T14:07:58Z</time>
      </trkpt>
      <trkpt lat="39.672685000" lon="-8.546265000">
        <ele>186.600000</ele>
        <time>2020-10-17T14:07:59Z</time>
      </trkpt>
      <trkpt lat="39.672712000" lon="-8.546297000">
        <ele>187.000000</ele>
        <time>2020-10-17T14:08:00Z</time>
      </trkpt>
      <trkpt lat="39.672735000" lon="-8.546335000">
        <ele>187.400000</ele>
        <time>2020-10-17T14:08:01Z</time>
      </trkpt>
      <trkpt lat="39.672747000" lon="-8.546378000">
        <ele>187.600000</ele>
        <time>2020-10-17T14:08:02Z</time>
      </trkpt>
      <trkpt lat="39.672755000" lon="-8.546419000">
        <ele>187.800000</ele>
        <time>2020-10-17T14:08:03Z</time>
      </trkpt>
      <trkpt lat="39.672752000" lon="-8.546459000">
        <ele>188.000000</ele>
        <time>2020-10-17T14:08:04Z</time>
      </trkpt>
      <trkpt lat="39.672741000" lon="-8.546499000">
        <ele>188.000000</ele>
        <time>2020-10-17T14:08:05Z</time>
      </trkpt>
      <trkpt lat="39.672719000" lon="-8.546541000">
        <ele>188.000000</ele>
        <time>2020-10-17T14:08:06Z</time>
      </trkpt>
      <trkpt lat="39.672691000" lon="-8.546588000">
        <ele>188.000000</ele>
        <time>2020-10-17T14:08:07Z</time>
      </trkpt>
      <trkpt lat="39.672659000" lon="-8.546643000">
        <ele>188.200000</ele>
        <time>2020-10-17T14:08:08Z</time>
      </trkpt>
      <trkpt lat="39.672625000" lon="-8.546702000">
        <ele>188.200000</ele>
        <time>2020-10-17T14:08:09Z</time>
      </trkpt>
      <trkpt lat="39.672589000" lon="-8.546762000">
        <ele>188.000000</ele>
        <time>2020-10-17T14:08:10Z</time>
      </trkpt>
      <trkpt lat="39.672549000" lon="-8.546825000">
        <ele>188.200000</ele>
        <time>2020-10-17T14:08:11Z</time>
      </trkpt>
      <trkpt lat="39.672509000" lon="-8.546888000">
        <ele>188.000000</ele>
        <time>2020-10-17T14:08:12Z</time>
      </trkpt>
      <trkpt lat="39.672430000" lon="-8.547005000">
        <ele>188.200000</ele>
        <time>2020-10-17T14:08:14Z</time>
      </trkpt>
      <trkpt lat="39.672393000" lon="-8.547054000">
        <ele>188.200000</ele>
        <time>2020-10-17T14:08:15Z</time>
      </trkpt>
      <trkpt lat="39.672357000" lon="-8.547099000">
        <ele>188.200000</ele>
        <time>2020-10-17T14:08:16Z</time>
      </trkpt>
      <trkpt lat="39.672321000" lon="-8.547142000">
        <ele>188.200000</ele>
        <time>2020-10-17T14:08:17Z</time>
      </trkpt>
      <trkpt lat="39.672285000" lon="-8.547183000">
        <ele>187.600000</ele>
        <time>2020-10-17T14:08:18Z</time>
      </trkpt>
      <trkpt lat="39.672251000" lon="-8.547221000">
        <ele>187.200000</ele>
        <time>2020-10-17T14:08:19Z</time>
      </trkpt>
      <trkpt lat="39.672219000" lon="-8.547259000">
        <ele>187.200000</ele>
        <time>2020-10-17T14:08:20Z</time>
      </trkpt>
      <trkpt lat="39.672190000" lon="-8.547295000">
        <ele>187.000000</ele>
        <time>2020-10-17T14:08:21Z</time>
      </trkpt>
      <trkpt lat="39.672158000" lon="-8.547333000">
        <ele>187.200000</ele>
        <time>2020-10-17T14:08:22Z</time>
      </trkpt>
      <trkpt lat="39.672128000" lon="-8.547367000">
        <ele>187.200000</ele>
        <time>2020-10-17T14:08:23Z</time>
      </trkpt>
      <trkpt lat="39.672099000" lon="-8.547397000">
        <ele>187.200000</ele>
        <time>2020-10-17T14:08:24Z</time>
      </trkpt>
      <trkpt lat="39.672068000" lon="-8.547429000">
        <ele>187.200000</ele>
        <time>2020-10-17T14:08:25Z</time>
      </trkpt>
      <trkpt lat="39.672037000" lon="-8.547460000">
        <ele>187.000000</ele>
        <time>2020-10-17T14:08:26Z</time>
      </trkpt>
      <trkpt lat="39.671973000" lon="-8.547508000">
        <ele>187.000000</ele>
        <time>2020-10-17T14:08:28Z</time>
      </trkpt>
      <trkpt lat="39.671940000" lon="-8.547524000">
        <ele>187.400000</ele>
        <time>2020-10-17T14:08:29Z</time>
      </trkpt>
      <trkpt lat="39.671904000" lon="-8.547538000">
        <ele>187.600000</ele>
        <time>2020-10-17T14:08:30Z</time>
      </trkpt>
      <trkpt lat="39.671868000" lon="-8.547546000">
        <ele>187.800000</ele>
        <time>2020-10-17T14:08:31Z</time>
      </trkpt>
      <trkpt lat="39.671833000" lon="-8.547551000">
        <ele>188.200000</ele>
        <time>2020-10-17T14:08:32Z</time>
      </trkpt>
      <trkpt lat="39.671799000" lon="-8.547556000">
        <ele>188.400000</ele>
        <time>2020-10-17T14:08:33Z</time>
      </trkpt>
      <trkpt lat="39.671759000" lon="-8.547561000">
        <ele>189.000000</ele>
        <time>2020-10-17T14:08:34Z</time>
      </trkpt>
      <trkpt lat="39.671718000" lon="-8.547565000">
        <ele>189.000000</ele>
        <time>2020-10-17T14:08:35Z</time>
      </trkpt>
      <trkpt lat="39.671678000" lon="-8.547570000">
        <ele>189.400000</ele>
        <time>2020-10-17T14:08:36Z</time>
      </trkpt>
      <trkpt lat="39.671636000" lon="-8.547579000">
        <ele>189.800000</ele>
        <time>2020-10-17T14:08:37Z</time>
      </trkpt>
      <trkpt lat="39.671597000" lon="-8.547590000">
        <ele>190.000000</ele>
        <time>2020-10-17T14:08:38Z</time>
      </trkpt>
      <trkpt lat="39.671563000" lon="-8.547607000">
        <ele>190.200000</ele>
        <time>2020-10-17T14:08:39Z</time>
      </trkpt>
      <trkpt lat="39.671532000" lon="-8.547633000">
        <ele>190.600000</ele>
        <time>2020-10-17T14:08:40Z</time>
      </trkpt>
      <trkpt lat="39.671506000" lon="-8.547666000">
        <ele>190.800000</ele>
        <time>2020-10-17T14:08:41Z</time>
      </trkpt>
      <trkpt lat="39.671483000" lon="-8.547702000">
        <ele>190.800000</ele>
        <time>2020-10-17T14:08:42Z</time>
      </trkpt>
      <trkpt lat="39.671466000" lon="-8.547742000">
        <ele>191.000000</ele>
        <time>2020-10-17T14:08:43Z</time>
      </trkpt>
      <trkpt lat="39.671452000" lon="-8.547784000">
        <ele>191.200000</ele>
        <time>2020-10-17T14:08:44Z</time>
      </trkpt>
      <trkpt lat="39.671444000" lon="-8.547829000">
        <ele>191.200000</ele>
        <time>2020-10-17T14:08:45Z</time>
      </trkpt>
      <trkpt lat="39.671440000" lon="-8.547867000">
        <ele>191.400000</ele>
        <time>2020-10-17T14:08:46Z</time>
      </trkpt>
      <trkpt lat="39.671436000" lon="-8.547908000">
        <ele>191.400000</ele>
        <time>2020-10-17T14:08:47Z</time>
      </trkpt>
      <trkpt lat="39.671430000" lon="-8.547946000">
        <ele>191.400000</ele>
        <time>2020-10-17T14:08:48Z</time>
      </trkpt>
      <trkpt lat="39.671420000" lon="-8.547982000">
        <ele>191.600000</ele>
        <time>2020-10-17T14:08:49Z</time>
      </trkpt>
      <trkpt lat="39.671412000" lon="-8.548015000">
        <ele>191.600000</ele>
        <time>2020-10-17T14:08:50Z</time>
      </trkpt>
      <trkpt lat="39.671404000" lon="-8.548047000">
        <ele>191.600000</ele>
        <time>2020-10-17T14:08:51Z</time>
      </trkpt>
      <trkpt lat="39.671392000" lon="-8.548079000">
        <ele>191.800000</ele>
        <time>2020-10-17T14:08:52Z</time>
      </trkpt>
      <trkpt lat="39.671371000" lon="-8.548112000">
        <ele>192.000000</ele>
        <time>2020-10-17T14:08:53Z</time>
      </trkpt>
      <trkpt lat="39.671346000" lon="-8.548138000">
        <ele>192.000000</ele>
        <time>2020-10-17T14:08:54Z</time>
      </trkpt>
      <trkpt lat="39.671305000" lon="-8.548162000">
        <ele>192.200000</ele>
        <time>2020-10-17T14:08:55Z</time>
      </trkpt>
      <trkpt lat="39.671261000" lon="-8.548174000">
        <ele>192.200000</ele>
        <time>2020-10-17T14:08:56Z</time>
      </trkpt>
      <trkpt lat="39.671216000" lon="-8.548178000">
        <ele>192.200000</ele>
        <time>2020-10-17T14:08:57Z</time>
      </trkpt>
      <trkpt lat="39.671167000" lon="-8.548182000">
        <ele>192.600000</ele>
        <time>2020-10-17T14:08:58Z</time>
      </trkpt>
      <trkpt lat="39.671115000" lon="-8.548184000">
        <ele>192.800000</ele>
        <time>2020-10-17T14:08:59Z</time>
      </trkpt>
      <trkpt lat="39.671061000" lon="-8.548183000">
        <ele>192.800000</ele>
        <time>2020-10-17T14:09:00Z</time>
      </trkpt>
      <trkpt lat="39.671008000" lon="-8.548180000">
        <ele>193.000000</ele>
        <time>2020-10-17T14:09:01Z</time>
      </trkpt>
      <trkpt lat="39.670954000" lon="-8.548174000">
        <ele>193.000000</ele>
        <time>2020-10-17T14:09:02Z</time>
      </trkpt>
      <trkpt lat="39.670900000" lon="-8.548163000">
        <ele>193.200000</ele>
        <time>2020-10-17T14:09:03Z</time>
      </trkpt>
      <trkpt lat="39.670845000" lon="-8.548143000">
        <ele>193.000000</ele>
        <time>2020-10-17T14:09:04Z</time>
      </trkpt>
      <trkpt lat="39.670791000" lon="-8.548116000">
        <ele>193.000000</ele>
        <time>2020-10-17T14:09:05Z</time>
      </trkpt>
      <trkpt lat="39.670629000" lon="-8.548005000">
        <ele>193.200000</ele>
        <time>2020-10-17T14:09:08Z</time>
      </trkpt>
      <trkpt lat="39.670583000" lon="-8.547962000">
        <ele>193.200000</ele>
        <time>2020-10-17T14:09:09Z</time>
      </trkpt>
      <trkpt lat="39.670540000" lon="-8.547919000">
        <ele>193.000000</ele>
        <time>2020-10-17T14:09:10Z</time>
      </trkpt>
      <trkpt lat="39.670500000" lon="-8.547877000">
        <ele>192.800000</ele>
        <time>2020-10-17T14:09:11Z</time>
      </trkpt>
      <trkpt lat="39.670463000" lon="-8.547831000">
        <ele>192.800000</ele>
        <time>2020-10-17T14:09:12Z</time>
      </trkpt>
      <trkpt lat="39.670398000" lon="-8.547739000">
        <ele>192.600000</ele>
        <time>2020-10-17T14:09:14Z</time>
      </trkpt>
      <trkpt lat="39.670362000" lon="-8.547697000">
        <ele>192.400000</ele>
        <time>2020-10-17T14:09:15Z</time>
      </trkpt>
      <trkpt lat="39.670326000" lon="-8.547658000">
        <ele>192.200000</ele>
        <time>2020-10-17T14:09:16Z</time>
      </trkpt>
      <trkpt lat="39.670192000" lon="-8.547521000">
        <ele>191.600000</ele>
        <time>2020-10-17T14:09:19Z</time>
      </trkpt>
      <trkpt lat="39.670089000" lon="-8.547406000">
        <ele>191.400000</ele>
        <time>2020-10-17T14:09:21Z</time>
      </trkpt>
      <trkpt lat="39.670031000" lon="-8.547349000">
        <ele>191.200000</ele>
        <time>2020-10-17T14:09:22Z</time>
      </trkpt>
      <trkpt lat="39.669969000" lon="-8.547303000">
        <ele>191.200000</ele>
        <time>2020-10-17T14:09:23Z</time>
      </trkpt>
      <trkpt lat="39.669908000" lon="-8.547264000">
        <ele>190.600000</ele>
        <time>2020-10-17T14:09:24Z</time>
      </trkpt>
      <trkpt lat="39.669840000" lon="-8.547241000">
        <ele>190.400000</ele>
        <time>2020-10-17T14:09:25Z</time>
      </trkpt>
      <trkpt lat="39.669770000" lon="-8.547226000">
        <ele>190.200000</ele>
        <time>2020-10-17T14:09:26Z</time>
      </trkpt>
      <trkpt lat="39.669485000" lon="-8.547212000">
        <ele>188.800000</ele>
        <time>2020-10-17T14:09:30Z</time>
      </trkpt>
      <trkpt lat="39.669418000" lon="-8.547221000">
        <ele>188.200000</ele>
        <time>2020-10-17T14:09:31Z</time>
      </trkpt>
      <trkpt lat="39.669350000" lon="-8.547230000">
        <ele>188.000000</ele>
        <time>2020-10-17T14:09:32Z</time>
      </trkpt>
      <trkpt lat="39.669282000" lon="-8.547239000">
        <ele>187.800000</ele>
        <time>2020-10-17T14:09:33Z</time>
      </trkpt>
      <trkpt lat="39.669217000" lon="-8.547243000">
        <ele>187.800000</ele>
        <time>2020-10-17T14:09:34Z</time>
      </trkpt>
      <trkpt lat="39.669157000" lon="-8.547244000">
        <ele>187.600000</ele>
        <time>2020-10-17T14:09:35Z</time>
      </trkpt>
      <trkpt lat="39.669099000" lon="-8.547240000">
        <ele>187.600000</ele>
        <time>2020-10-17T14:09:36Z</time>
      </trkpt>
      <trkpt lat="39.669045000" lon="-8.547235000">
        <ele>187.600000</ele>
        <time>2020-10-17T14:09:37Z</time>
      </trkpt>
      <trkpt lat="39.668992000" lon="-8.547229000">
        <ele>187.600000</ele>
        <time>2020-10-17T14:09:38Z</time>
      </trkpt>
      <trkpt lat="39.668945000" lon="-8.547223000">
        <ele>187.600000</ele>
        <time>2020-10-17T14:09:39Z</time>
      </trkpt>
      <trkpt lat="39.668898000" lon="-8.547221000">
        <ele>187.800000</ele>
        <time>2020-10-17T14:09:40Z</time>
      </trkpt>
      <trkpt lat="39.668847000" lon="-8.547222000">
        <ele>187.600000</ele>
        <time>2020-10-17T14:09:41Z</time>
      </trkpt>
      <trkpt lat="39.668795000" lon="-8.547219000">
        <ele>187.400000</ele>
        <time>2020-10-17T14:09:42Z</time>
      </trkpt>
      <trkpt lat="39.668738000" lon="-8.547209000">
        <ele>187.400000</ele>
        <time>2020-10-17T14:09:43Z</time>
      </trkpt>
      <trkpt lat="39.668673000" lon="-8.547195000">
        <ele>187.200000</ele>
        <time>2020-10-17T14:09:44Z</time>
      </trkpt>
      <trkpt lat="39.668603000" lon="-8.547174000">
        <ele>187.400000</ele>
        <time>2020-10-17T14:09:45Z</time>
      </trkpt>
      <trkpt lat="39.668529000" lon="-8.547147000">
        <ele>187.400000</ele>
        <time>2020-10-17T14:09:46Z</time>
      </trkpt>
      <trkpt lat="39.668449000" lon="-8.547119000">
        <ele>187.400000</ele>
        <time>2020-10-17T14:09:47Z</time>
      </trkpt>
      <trkpt lat="39.668277000" lon="-8.547072000">
        <ele>187.200000</ele>
        <time>2020-10-17T14:09:49Z</time>
      </trkpt>
      <trkpt lat="39.668189000" lon="-8.547059000">
        <ele>187.200000</ele>
        <time>2020-10-17T14:09:50Z</time>
      </trkpt>
      <trkpt lat="39.668100000" lon="-8.547054000">
        <ele>187.200000</ele>
        <time>2020-10-17T14:09:51Z</time>
      </trkpt>
      <trkpt lat="39.668013000" lon="-8.547058000">
        <ele>187.000000</ele>
        <time>2020-10-17T14:09:52Z</time>
      </trkpt>
      <trkpt lat="39.667926000" lon="-8.547080000">
        <ele>186.600000</ele>
        <time>2020-10-17T14:09:53Z</time>
      </trkpt>
      <trkpt lat="39.667838000" lon="-8.547116000">
        <ele>185.800000</ele>
        <time>2020-10-17T14:09:54Z</time>
      </trkpt>
      <trkpt lat="39.667752000" lon="-8.547159000">
        <ele>185.400000</ele>
        <time>2020-10-17T14:09:55Z</time>
      </trkpt>
      <trkpt lat="39.667668000" lon="-8.547204000">
        <ele>184.200000</ele>
        <time>2020-10-17T14:09:56Z</time>
      </trkpt>
      <trkpt lat="39.667586000" lon="-8.547246000">
        <ele>183.400000</ele>
        <time>2020-10-17T14:09:57Z</time>
      </trkpt>
      <trkpt lat="39.667514000" lon="-8.547280000">
        <ele>183.000000</ele>
        <time>2020-10-17T14:09:58Z</time>
      </trkpt>
      <trkpt lat="39.667466000" lon="-8.547319000">
        <ele>182.000000</ele>
        <time>2020-10-17T14:09:59Z</time>
      </trkpt>
      <trkpt lat="39.667433000" lon="-8.547354000">
        <ele>182.000000</ele>
        <time>2020-10-17T14:10:00Z</time>
      </trkpt>
      <trkpt lat="39.667422000" lon="-8.547393000">
        <ele>181.800000</ele>
        <time>2020-10-17T14:10:01Z</time>
      </trkpt>
      <trkpt lat="39.667426000" lon="-8.547436000">
        <ele>181.200000</ele>
        <time>2020-10-17T14:10:02Z</time>
      </trkpt>
      <trkpt lat="39.667440000" lon="-8.547475000">
        <ele>180.600000</ele>
        <time>2020-10-17T14:10:03Z</time>
      </trkpt>
      <trkpt lat="39.667475000" lon="-8.547499000">
        <ele>180.200000</ele>
        <time>2020-10-17T14:10:04Z</time>
      </trkpt>
      <trkpt lat="39.667515000" lon="-8.547524000">
        <ele>179.800000</ele>
        <time>2020-10-17T14:10:05Z</time>
      </trkpt>
      <trkpt lat="39.667564000" lon="-8.547547000">
        <ele>179.800000</ele>
        <time>2020-10-17T14:10:06Z</time>
      </trkpt>
      <trkpt lat="39.667620000" lon="-8.547577000">
        <ele>179.000000</ele>
        <time>2020-10-17T14:10:07Z</time>
      </trkpt>
      <trkpt lat="39.667671000" lon="-8.547605000">
        <ele>178.200000</ele>
        <time>2020-10-17T14:10:08Z</time>
      </trkpt>
      <trkpt lat="39.667726000" lon="-8.547637000">
        <ele>177.800000</ele>
        <time>2020-10-17T14:10:09Z</time>
      </trkpt>
      <trkpt lat="39.667831000" lon="-8.547699000">
        <ele>177.000000</ele>
        <time>2020-10-17T14:10:11Z</time>
      </trkpt>
      <trkpt lat="39.667997000" lon="-8.547809000">
        <ele>176.400000</ele>
        <time>2020-10-17T14:10:14Z</time>
      </trkpt>
      <trkpt lat="39.668120000" lon="-8.547886000">
        <ele>176.200000</ele>
        <time>2020-10-17T14:10:16Z</time>
      </trkpt>
      <trkpt lat="39.668255000" lon="-8.547971000">
        <ele>176.000000</ele>
        <time>2020-10-17T14:10:18Z</time>
      </trkpt>
      <trkpt lat="39.668385000" lon="-8.548055000">
        <ele>175.800000</ele>
        <time>2020-10-17T14:10:20Z</time>
      </trkpt>
      <trkpt lat="39.668452000" lon="-8.548090000">
        <ele>175.800000</ele>
        <time>2020-10-17T14:10:21Z</time>
      </trkpt>
      <trkpt lat="39.668509000" lon="-8.548133000">
        <ele>175.600000</ele>
        <time>2020-10-17T14:10:22Z</time>
      </trkpt>
      <trkpt lat="39.668539000" lon="-8.548202000">
        <ele>175.400000</ele>
        <time>2020-10-17T14:10:23Z</time>
      </trkpt>
      <trkpt lat="39.668559000" lon="-8.548267000">
        <ele>175.000000</ele>
        <time>2020-10-17T14:10:24Z</time>
      </trkpt>
      <trkpt lat="39.668569000" lon="-8.548340000">
        <ele>175.000000</ele>
        <time>2020-10-17T14:10:25Z</time>
      </trkpt>
      <trkpt lat="39.668573000" lon="-8.548421000">
        <ele>174.600000</ele>
        <time>2020-10-17T14:10:26Z</time>
      </trkpt>
      <trkpt lat="39.668576000" lon="-8.548510000">
        <ele>174.600000</ele>
        <time>2020-10-17T14:10:27Z</time>
      </trkpt>
      <trkpt lat="39.668584000" lon="-8.548589000">
        <ele>174.400000</ele>
        <time>2020-10-17T14:10:28Z</time>
      </trkpt>
      <trkpt lat="39.668575000" lon="-8.548759000">
        <ele>174.000000</ele>
        <time>2020-10-17T14:10:30Z</time>
      </trkpt>
      <trkpt lat="39.668561000" lon="-8.548845000">
        <ele>173.600000</ele>
        <time>2020-10-17T14:10:31Z</time>
      </trkpt>
      <trkpt lat="39.668540000" lon="-8.548938000">
        <ele>173.400000</ele>
        <time>2020-10-17T14:10:32Z</time>
      </trkpt>
      <trkpt lat="39.668513000" lon="-8.549039000">
        <ele>173.200000</ele>
        <time>2020-10-17T14:10:33Z</time>
      </trkpt>
      <trkpt lat="39.668493000" lon="-8.549140000">
        <ele>172.200000</ele>
        <time>2020-10-17T14:10:34Z</time>
      </trkpt>
      <trkpt lat="39.668483000" lon="-8.549251000">
        <ele>171.600000</ele>
        <time>2020-10-17T14:10:35Z</time>
      </trkpt>
      <trkpt lat="39.668479000" lon="-8.549390000">
        <ele>170.800000</ele>
        <time>2020-10-17T14:10:36Z</time>
      </trkpt>
      <trkpt lat="39.668493000" lon="-8.549525000">
        <ele>169.200000</ele>
        <time>2020-10-17T14:10:37Z</time>
      </trkpt>
      <trkpt lat="39.668511000" lon="-8.549660000">
        <ele>168.200000</ele>
        <time>2020-10-17T14:10:38Z</time>
      </trkpt>
      <trkpt lat="39.668539000" lon="-8.549934000">
        <ele>166.600000</ele>
        <time>2020-10-17T14:10:40Z</time>
      </trkpt>
      <trkpt lat="39.668534000" lon="-8.550091000">
        <ele>165.200000</ele>
        <time>2020-10-17T14:10:41Z</time>
      </trkpt>
      <trkpt lat="39.668504000" lon="-8.550386000">
        <ele>162.800000</ele>
        <time>2020-10-17T14:10:43Z</time>
      </trkpt>
      <trkpt lat="39.668489000" lon="-8.550531000">
        <ele>161.000000</ele>
        <time>2020-10-17T14:10:44Z</time>
      </trkpt>
      <trkpt lat="39.668477000" lon="-8.550673000">
        <ele>159.400000</ele>
        <time>2020-10-17T14:10:45Z</time>
      </trkpt>
      <trkpt lat="39.668472000" lon="-8.550818000">
        <ele>157.600000</ele>
        <time>2020-10-17T14:10:46Z</time>
      </trkpt>
      <trkpt lat="39.668481000" lon="-8.550962000">
        <ele>155.600000</ele>
        <time>2020-10-17T14:10:47Z</time>
      </trkpt>
      <trkpt lat="39.668498000" lon="-8.551099000">
        <ele>153.200000</ele>
        <time>2020-10-17T14:10:48Z</time>
      </trkpt>
      <trkpt lat="39.668522000" lon="-8.551228000">
        <ele>152.000000</ele>
        <time>2020-10-17T14:10:49Z</time>
      </trkpt>
      <trkpt lat="39.668556000" lon="-8.551340000">
        <ele>150.400000</ele>
        <time>2020-10-17T14:10:50Z</time>
      </trkpt>
      <trkpt lat="39.668586000" lon="-8.551447000">
        <ele>148.600000</ele>
        <time>2020-10-17T14:10:51Z</time>
      </trkpt>
      <trkpt lat="39.668617000" lon="-8.551544000">
        <ele>147.800000</ele>
        <time>2020-10-17T14:10:52Z</time>
      </trkpt>
      <trkpt lat="39.668644000" lon="-8.551633000">
        <ele>146.800000</ele>
        <time>2020-10-17T14:10:53Z</time>
      </trkpt>
      <trkpt lat="39.668668000" lon="-8.551714000">
        <ele>144.600000</ele>
        <time>2020-10-17T14:10:54Z</time>
      </trkpt>
      <trkpt lat="39.668694000" lon="-8.551790000">
        <ele>143.200000</ele>
        <time>2020-10-17T14:10:55Z</time>
      </trkpt>
      <trkpt lat="39.668721000" lon="-8.551860000">
        <ele>142.800000</ele>
        <time>2020-10-17T14:10:56Z</time>
      </trkpt>
      <trkpt lat="39.668747000" lon="-8.551925000">
        <ele>142.600000</ele>
        <time>2020-10-17T14:10:57Z</time>
      </trkpt>
      <trkpt lat="39.668779000" lon="-8.551986000">
        <ele>142.400000</ele>
        <time>2020-10-17T14:10:58Z</time>
      </trkpt>
      <trkpt lat="39.668813000" lon="-8.552040000">
        <ele>142.200000</ele>
        <time>2020-10-17T14:10:59Z</time>
      </trkpt>
      <trkpt lat="39.668848000" lon="-8.552092000">
        <ele>142.200000</ele>
        <time>2020-10-17T14:11:00Z</time>
      </trkpt>
      <trkpt lat="39.668920000" lon="-8.552198000">
        <ele>142.200000</ele>
        <time>2020-10-17T14:11:02Z</time>
      </trkpt>
      <trkpt lat="39.668962000" lon="-8.552243000">
        <ele>142.200000</ele>
        <time>2020-10-17T14:11:03Z</time>
      </trkpt>
      <trkpt lat="39.669009000" lon="-8.552281000">
        <ele>142.200000</ele>
        <time>2020-10-17T14:11:04Z</time>
      </trkpt>
      <trkpt lat="39.669064000" lon="-8.552312000">
        <ele>142.200000</ele>
        <time>2020-10-17T14:11:05Z</time>
      </trkpt>
      <trkpt lat="39.669115000" lon="-8.552334000">
        <ele>142.800000</ele>
        <time>2020-10-17T14:11:06Z</time>
      </trkpt>
      <trkpt lat="39.669163000" lon="-8.552348000">
        <ele>143.200000</ele>
        <time>2020-10-17T14:11:07Z</time>
      </trkpt>
      <trkpt lat="39.669208000" lon="-8.552353000">
        <ele>143.400000</ele>
        <time>2020-10-17T14:11:08Z</time>
      </trkpt>
      <trkpt lat="39.669254000" lon="-8.552352000">
        <ele>143.600000</ele>
        <time>2020-10-17T14:11:09Z</time>
      </trkpt>
      <trkpt lat="39.669298000" lon="-8.552346000">
        <ele>143.600000</ele>
        <time>2020-10-17T14:11:10Z</time>
      </trkpt>
      <trkpt lat="39.669336000" lon="-8.552333000">
        <ele>143.800000</ele>
        <time>2020-10-17T14:11:11Z</time>
      </trkpt>
      <trkpt lat="39.669372000" lon="-8.552318000">
        <ele>144.000000</ele>
        <time>2020-10-17T14:11:12Z</time>
      </trkpt>
      <trkpt lat="39.669411000" lon="-8.552308000">
        <ele>144.000000</ele>
        <time>2020-10-17T14:11:13Z</time>
      </trkpt>
      <trkpt lat="39.669451000" lon="-8.552306000">
        <ele>144.200000</ele>
        <time>2020-10-17T14:11:14Z</time>
      </trkpt>
      <trkpt lat="39.669492000" lon="-8.552307000">
        <ele>144.400000</ele>
        <time>2020-10-17T14:11:15Z</time>
      </trkpt>
      <trkpt lat="39.669616000" lon="-8.552323000">
        <ele>144.600000</ele>
        <time>2020-10-17T14:11:18Z</time>
      </trkpt>
      <trkpt lat="39.669653000" lon="-8.552338000">
        <ele>145.000000</ele>
        <time>2020-10-17T14:11:19Z</time>
      </trkpt>
      <trkpt lat="39.669729000" lon="-8.552369000">
        <ele>145.000000</ele>
        <time>2020-10-17T14:11:21Z</time>
      </trkpt>
      <trkpt lat="39.669764000" lon="-8.552384000">
        <ele>145.000000</ele>
        <time>2020-10-17T14:11:22Z</time>
      </trkpt>
      <trkpt lat="39.669797000" lon="-8.552400000">
        <ele>145.200000</ele>
        <time>2020-10-17T14:11:23Z</time>
      </trkpt>
      <trkpt lat="39.669829000" lon="-8.552418000">
        <ele>145.200000</ele>
        <time>2020-10-17T14:11:24Z</time>
      </trkpt>
      <trkpt lat="39.669940000" lon="-8.552488000">
        <ele>145.600000</ele>
        <time>2020-10-17T14:11:27Z</time>
      </trkpt>
      <trkpt lat="39.670076000" lon="-8.552586000">
        <ele>146.000000</ele>
        <time>2020-10-17T14:11:30Z</time>
      </trkpt>
      <trkpt lat="39.670125000" lon="-8.552618000">
        <ele>146.000000</ele>
        <time>2020-10-17T14:11:31Z</time>
      </trkpt>
      <trkpt lat="39.670229000" lon="-8.552671000">
        <ele>146.400000</ele>
        <time>2020-10-17T14:11:33Z</time>
      </trkpt>
      <trkpt lat="39.670382000" lon="-8.552734000">
        <ele>146.600000</ele>
        <time>2020-10-17T14:11:36Z</time>
      </trkpt>
      <trkpt lat="39.670427000" lon="-8.552753000">
        <ele>146.600000</ele>
        <time>2020-10-17T14:11:37Z</time>
      </trkpt>
      <trkpt lat="39.670469000" lon="-8.552771000">
        <ele>146.600000</ele>
        <time>2020-10-17T14:11:38Z</time>
      </trkpt>
      <trkpt lat="39.670507000" lon="-8.552785000">
        <ele>146.600000</ele>
        <time>2020-10-17T14:11:39Z</time>
      </trkpt>
      <trkpt lat="39.670541000" lon="-8.552797000">
        <ele>146.600000</ele>
        <time>2020-10-17T14:11:40Z</time>
      </trkpt>
      <trkpt lat="39.670577000" lon="-8.552814000">
        <ele>146.800000</ele>
        <time>2020-10-17T14:11:41Z</time>
      </trkpt>
      <trkpt lat="39.670615000" lon="-8.552830000">
        <ele>146.800000</ele>
        <time>2020-10-17T14:11:42Z</time>
      </trkpt>
      <trkpt lat="39.670652000" lon="-8.552845000">
        <ele>146.800000</ele>
        <time>2020-10-17T14:11:43Z</time>
      </trkpt>
      <trkpt lat="39.670694000" lon="-8.552861000">
        <ele>146.800000</ele>
        <time>2020-10-17T14:11:44Z</time>
      </trkpt>
      <trkpt lat="39.670733000" lon="-8.552875000">
        <ele>146.800000</ele>
        <time>2020-10-17T14:11:45Z</time>
      </trkpt>
      <trkpt lat="39.670764000" lon="-8.552887000">
        <ele>147.000000</ele>
        <time>2020-10-17T14:11:46Z</time>
      </trkpt>
      <trkpt lat="39.670792000" lon="-8.552899000">
        <ele>147.000000</ele>
        <time>2020-10-17T14:11:47Z</time>
      </trkpt>
      <trkpt lat="39.670816000" lon="-8.552911000">
        <ele>147.200000</ele>
        <time>2020-10-17T14:11:48Z</time>
      </trkpt>
      <trkpt lat="39.670838000" lon="-8.552924000">
        <ele>147.200000</ele>
        <time>2020-10-17T14:11:49Z</time>
      </trkpt>
      <trkpt lat="39.670858000" lon="-8.552937000">
        <ele>147.400000</ele>
        <time>2020-10-17T14:11:50Z</time>
      </trkpt>
      <trkpt lat="39.670877000" lon="-8.552948000">
        <ele>147.400000</ele>
        <time>2020-10-17T14:11:51Z</time>
      </trkpt>
      <trkpt lat="39.670896000" lon="-8.552958000">
        <ele>147.800000</ele>
        <time>2020-10-17T14:11:52Z</time>
      </trkpt>
      <trkpt lat="39.670916000" lon="-8.552966000">
        <ele>147.800000</ele>
        <time>2020-10-17T14:11:53Z</time>
      </trkpt>
      <trkpt lat="39.670932000" lon="-8.552975000">
        <ele>148.000000</ele>
        <time>2020-10-17T14:11:54Z</time>
      </trkpt>
      <trkpt lat="39.670948000" lon="-8.552985000">
        <ele>148.200000</ele>
        <time>2020-10-17T14:11:55Z</time>
      </trkpt>
      <trkpt lat="39.670968000" lon="-8.552996000">
        <ele>148.400000</ele>
        <time>2020-10-17T14:11:56Z</time>
      </trkpt>
      <trkpt lat="39.670987000" lon="-8.553008000">
        <ele>148.800000</ele>
        <time>2020-10-17T14:11:57Z</time>
      </trkpt>
      <trkpt lat="39.671004000" lon="-8.553022000">
        <ele>149.400000</ele>
        <time>2020-10-17T14:11:58Z</time>
      </trkpt>
      <trkpt lat="39.671022000" lon="-8.553035000">
        <ele>149.600000</ele>
        <time>2020-10-17T14:11:59Z</time>
      </trkpt>
      <trkpt lat="39.671039000" lon="-8.553047000">
        <ele>150.000000</ele>
        <time>2020-10-17T14:12:00Z</time>
      </trkpt>
      <trkpt lat="39.671053000" lon="-8.553059000">
        <ele>150.200000</ele>
        <time>2020-10-17T14:12:01Z</time>
      </trkpt>
      <trkpt lat="39.671066000" lon="-8.553070000">
        <ele>151.000000</ele>
        <time>2020-10-17T14:12:02Z</time>
      </trkpt>
      <trkpt lat="39.671079000" lon="-8.553081000">
        <ele>151.200000</ele>
        <time>2020-10-17T14:12:03Z</time>
      </trkpt>
      <trkpt lat="39.671093000" lon="-8.553093000">
        <ele>151.400000</ele>
        <time>2020-10-17T14:12:04Z</time>
      </trkpt>
      <trkpt lat="39.671110000" lon="-8.553106000">
        <ele>151.600000</ele>
        <time>2020-10-17T14:12:05Z</time>
      </trkpt>
      <trkpt lat="39.671125000" lon="-8.553119000">
        <ele>151.600000</ele>
        <time>2020-10-17T14:12:06Z</time>
      </trkpt>
      <trkpt lat="39.671140000" lon="-8.553133000">
        <ele>152.000000</ele>
        <time>2020-10-17T14:12:07Z</time>
      </trkpt>
      <trkpt lat="39.671156000" lon="-8.553144000">
        <ele>152.200000</ele>
        <time>2020-10-17T14:12:08Z</time>
      </trkpt>
      <trkpt lat="39.671173000" lon="-8.553156000">
        <ele>152.400000</ele>
        <time>2020-10-17T14:12:09Z</time>
      </trkpt>
      <trkpt lat="39.671191000" lon="-8.553168000">
        <ele>152.800000</ele>
        <time>2020-10-17T14:12:10Z</time>
      </trkpt>
      <trkpt lat="39.671209000" lon="-8.553179000">
        <ele>153.000000</ele>
        <time>2020-10-17T14:12:11Z</time>
      </trkpt>
      <trkpt lat="39.671226000" lon="-8.553189000">
        <ele>153.200000</ele>
        <time>2020-10-17T14:12:12Z</time>
      </trkpt>
      <trkpt lat="39.671241000" lon="-8.553202000">
        <ele>153.400000</ele>
        <time>2020-10-17T14:12:13Z</time>
      </trkpt>
      <trkpt lat="39.671255000" lon="-8.553214000">
        <ele>153.600000</ele>
        <time>2020-10-17T14:12:14Z</time>
      </trkpt>
      <trkpt lat="39.671267000" lon="-8.553226000">
        <ele>153.800000</ele>
        <time>2020-10-17T14:12:15Z</time>
      </trkpt>
      <trkpt lat="39.671280000" lon="-8.553236000">
        <ele>154.200000</ele>
        <time>2020-10-17T14:12:16Z</time>
      </trkpt>
      <trkpt lat="39.671296000" lon="-8.553247000">
        <ele>154.400000</ele>
        <time>2020-10-17T14:12:17Z</time>
      </trkpt>
      <trkpt lat="39.671308000" lon="-8.553258000">
        <ele>154.800000</ele>
        <time>2020-10-17T14:12:18Z</time>
      </trkpt>
      <trkpt lat="39.671319000" lon="-8.553271000">
        <ele>155.000000</ele>
        <time>2020-10-17T14:12:19Z</time>
      </trkpt>
      <trkpt lat="39.671328000" lon="-8.553281000">
        <ele>155.400000</ele>
        <time>2020-10-17T14:12:20Z</time>
      </trkpt>
      <trkpt lat="39.671338000" lon="-8.553286000">
        <ele>155.600000</ele>
        <time>2020-10-17T14:12:21Z</time>
      </trkpt>
      <trkpt lat="39.671349000" lon="-8.553293000">
        <ele>155.800000</ele>
        <time>2020-10-17T14:12:22Z</time>
      </trkpt>
      <trkpt lat="39.671364000" lon="-8.553306000">
        <ele>156.000000</ele>
        <time>2020-10-17T14:12:23Z</time>
      </trkpt>
      <trkpt lat="39.671381000" lon="-8.553322000">
        <ele>156.200000</ele>
        <time>2020-10-17T14:12:24Z</time>
      </trkpt>
      <trkpt lat="39.671398000" lon="-8.553339000">
        <ele>156.400000</ele>
        <time>2020-10-17T14:12:25Z</time>
      </trkpt>
      <trkpt lat="39.671413000" lon="-8.553356000">
        <ele>156.800000</ele>
        <time>2020-10-17T14:12:26Z</time>
      </trkpt>
      <trkpt lat="39.671429000" lon="-8.553370000">
        <ele>156.800000</ele>
        <time>2020-10-17T14:12:27Z</time>
      </trkpt>
      <trkpt lat="39.671446000" lon="-8.553381000">
        <ele>157.000000</ele>
        <time>2020-10-17T14:12:28Z</time>
      </trkpt>
      <trkpt lat="39.671464000" lon="-8.553393000">
        <ele>157.400000</ele>
        <time>2020-10-17T14:12:29Z</time>
      </trkpt>
      <trkpt lat="39.671483000" lon="-8.553403000">
        <ele>157.400000</ele>
        <time>2020-10-17T14:12:30Z</time>
      </trkpt>
      <trkpt lat="39.671505000" lon="-8.553414000">
        <ele>157.600000</ele>
        <time>2020-10-17T14:12:31Z</time>
      </trkpt>
      <trkpt lat="39.671527000" lon="-8.553426000">
        <ele>157.800000</ele>
        <time>2020-10-17T14:12:32Z</time>
      </trkpt>
      <trkpt lat="39.671547000" lon="-8.553439000">
        <ele>158.000000</ele>
        <time>2020-10-17T14:12:33Z</time>
      </trkpt>
      <trkpt lat="39.671565000" lon="-8.553453000">
        <ele>158.200000</ele>
        <time>2020-10-17T14:12:34Z</time>
      </trkpt>
      <trkpt lat="39.671584000" lon="-8.553464000">
        <ele>158.400000</ele>
        <time>2020-10-17T14:12:35Z</time>
      </trkpt>
      <trkpt lat="39.671605000" lon="-8.553473000">
        <ele>158.600000</ele>
        <time>2020-10-17T14:12:36Z</time>
      </trkpt>
      <trkpt lat="39.671629000" lon="-8.553484000">
        <ele>158.800000</ele>
        <time>2020-10-17T14:12:37Z</time>
      </trkpt>
      <trkpt lat="39.671651000" lon="-8.553494000">
        <ele>159.000000</ele>
        <time>2020-10-17T14:12:38Z</time>
      </trkpt>
      <trkpt lat="39.671670000" lon="-8.553505000">
        <ele>159.000000</ele>
        <time>2020-10-17T14:12:39Z</time>
      </trkpt>
      <trkpt lat="39.671689000" lon="-8.553512000">
        <ele>159.200000</ele>
        <time>2020-10-17T14:12:40Z</time>
      </trkpt>
      <trkpt lat="39.671707000" lon="-8.553520000">
        <ele>159.400000</ele>
        <time>2020-10-17T14:12:41Z</time>
      </trkpt>
      <trkpt lat="39.671724000" lon="-8.553529000">
        <ele>159.600000</ele>
        <time>2020-10-17T14:12:42Z</time>
      </trkpt>
      <trkpt lat="39.671740000" lon="-8.553537000">
        <ele>159.800000</ele>
        <time>2020-10-17T14:12:43Z</time>
      </trkpt>
      <trkpt lat="39.671756000" lon="-8.553545000">
        <ele>160.000000</ele>
        <time>2020-10-17T14:12:44Z</time>
      </trkpt>
      <trkpt lat="39.671772000" lon="-8.553552000">
        <ele>160.000000</ele>
        <time>2020-10-17T14:12:45Z</time>
      </trkpt>
      <trkpt lat="39.671787000" lon="-8.553559000">
        <ele>160.400000</ele>
        <time>2020-10-17T14:12:46Z</time>
      </trkpt>
      <trkpt lat="39.671804000" lon="-8.553568000">
        <ele>160.600000</ele>
        <time>2020-10-17T14:12:47Z</time>
      </trkpt>
      <trkpt lat="39.671822000" lon="-8.553579000">
        <ele>160.600000</ele>
        <time>2020-10-17T14:12:48Z</time>
      </trkpt>
      <trkpt lat="39.671839000" lon="-8.553589000">
        <ele>160.800000</ele>
        <time>2020-10-17T14:12:49Z</time>
      </trkpt>
      <trkpt lat="39.671855000" lon="-8.553599000">
        <ele>161.000000</ele>
        <time>2020-10-17T14:12:50Z</time>
      </trkpt>
      <trkpt lat="39.671872000" lon="-8.553608000">
        <ele>161.200000</ele>
        <time>2020-10-17T14:12:51Z</time>
      </trkpt>
      <trkpt lat="39.671889000" lon="-8.553618000">
        <ele>161.400000</ele>
        <time>2020-10-17T14:12:52Z</time>
      </trkpt>
      <trkpt lat="39.671905000" lon="-8.553626000">
        <ele>161.800000</ele>
        <time>2020-10-17T14:12:53Z</time>
      </trkpt>
      <trkpt lat="39.671920000" lon="-8.553632000">
        <ele>161.800000</ele>
        <time>2020-10-17T14:12:54Z</time>
      </trkpt>
      <trkpt lat="39.671936000" lon="-8.553639000">
        <ele>162.400000</ele>
        <time>2020-10-17T14:12:55Z</time>
      </trkpt>
      <trkpt lat="39.671953000" lon="-8.553644000">
        <ele>162.400000</ele>
        <time>2020-10-17T14:12:56Z</time>
      </trkpt>
      <trkpt lat="39.671970000" lon="-8.553649000">
        <ele>163.000000</ele>
        <time>2020-10-17T14:12:57Z</time>
      </trkpt>
      <trkpt lat="39.671986000" lon="-8.553657000">
        <ele>163.200000</ele>
        <time>2020-10-17T14:12:58Z</time>
      </trkpt>
      <trkpt lat="39.672002000" lon="-8.553666000">
        <ele>163.200000</ele>
        <time>2020-10-17T14:12:59Z</time>
      </trkpt>
      <trkpt lat="39.672020000" lon="-8.553678000">
        <ele>163.800000</ele>
        <time>2020-10-17T14:13:00Z</time>
      </trkpt>
      <trkpt lat="39.672037000" lon="-8.553691000">
        <ele>164.000000</ele>
        <time>2020-10-17T14:13:01Z</time>
      </trkpt>
      <trkpt lat="39.672052000" lon="-8.553703000">
        <ele>164.400000</ele>
        <time>2020-10-17T14:13:02Z</time>
      </trkpt>
      <trkpt lat="39.672069000" lon="-8.553716000">
        <ele>164.600000</ele>
        <time>2020-10-17T14:13:03Z</time>
      </trkpt>
      <trkpt lat="39.672085000" lon="-8.553727000">
        <ele>164.800000</ele>
        <time>2020-10-17T14:13:04Z</time>
      </trkpt>
      <trkpt lat="39.672101000" lon="-8.553736000">
        <ele>165.200000</ele>
        <time>2020-10-17T14:13:05Z</time>
      </trkpt>
      <trkpt lat="39.672118000" lon="-8.553745000">
        <ele>165.200000</ele>
        <time>2020-10-17T14:13:06Z</time>
      </trkpt>
      <trkpt lat="39.672135000" lon="-8.553754000">
        <ele>165.400000</ele>
        <time>2020-10-17T14:13:07Z</time>
      </trkpt>
      <trkpt lat="39.672150000" lon="-8.553762000">
        <ele>165.800000</ele>
        <time>2020-10-17T14:13:08Z</time>
      </trkpt>
      <trkpt lat="39.672166000" lon="-8.553769000">
        <ele>166.000000</ele>
        <time>2020-10-17T14:13:09Z</time>
      </trkpt>
      <trkpt lat="39.672180000" lon="-8.553777000">
        <ele>166.000000</ele>
        <time>2020-10-17T14:13:10Z</time>
      </trkpt>
      <trkpt lat="39.672194000" lon="-8.553786000">
        <ele>166.400000</ele>
        <time>2020-10-17T14:13:11Z</time>
      </trkpt>
      <trkpt lat="39.672210000" lon="-8.553796000">
        <ele>166.800000</ele>
        <time>2020-10-17T14:13:12Z</time>
      </trkpt>
      <trkpt lat="39.672223000" lon="-8.553807000">
        <ele>167.000000</ele>
        <time>2020-10-17T14:13:13Z</time>
      </trkpt>
      <trkpt lat="39.672235000" lon="-8.553822000">
        <ele>167.200000</ele>
        <time>2020-10-17T14:13:14Z</time>
      </trkpt>
      <trkpt lat="39.672243000" lon="-8.553840000">
        <ele>167.600000</ele>
        <time>2020-10-17T14:13:15Z</time>
      </trkpt>
      <trkpt lat="39.672250000" lon="-8.553860000">
        <ele>167.600000</ele>
        <time>2020-10-17T14:13:16Z</time>
      </trkpt>
      <trkpt lat="39.672255000" lon="-8.553879000">
        <ele>168.000000</ele>
        <time>2020-10-17T14:13:17Z</time>
      </trkpt>
      <trkpt lat="39.672257000" lon="-8.553898000">
        <ele>168.000000</ele>
        <time>2020-10-17T14:13:18Z</time>
      </trkpt>
      <trkpt lat="39.672256000" lon="-8.553915000">
        <ele>168.600000</ele>
        <time>2020-10-17T14:13:19Z</time>
      </trkpt>
      <trkpt lat="39.672253000" lon="-8.553932000">
        <ele>168.800000</ele>
        <time>2020-10-17T14:13:20Z</time>
      </trkpt>
      <trkpt lat="39.672246000" lon="-8.553946000">
        <ele>169.000000</ele>
        <time>2020-10-17T14:13:21Z</time>
      </trkpt>
      <trkpt lat="39.672237000" lon="-8.553961000">
        <ele>169.400000</ele>
        <time>2020-10-17T14:13:22Z</time>
      </trkpt>
      <trkpt lat="39.672226000" lon="-8.553977000">
        <ele>169.600000</ele>
        <time>2020-10-17T14:13:23Z</time>
      </trkpt>
      <trkpt lat="39.672218000" lon="-8.553992000">
        <ele>170.000000</ele>
        <time>2020-10-17T14:13:24Z</time>
      </trkpt>
      <trkpt lat="39.672209000" lon="-8.554008000">
        <ele>170.200000</ele>
        <time>2020-10-17T14:13:25Z</time>
      </trkpt>
      <trkpt lat="39.672199000" lon="-8.554024000">
        <ele>170.600000</ele>
        <time>2020-10-17T14:13:26Z</time>
      </trkpt>
      <trkpt lat="39.672190000" lon="-8.554039000">
        <ele>171.200000</ele>
        <time>2020-10-17T14:13:27Z</time>
      </trkpt>
      <trkpt lat="39.672179000" lon="-8.554055000">
        <ele>171.600000</ele>
        <time>2020-10-17T14:13:28Z</time>
      </trkpt>
      <trkpt lat="39.672170000" lon="-8.554070000">
        <ele>172.000000</ele>
        <time>2020-10-17T14:13:29Z</time>
      </trkpt>
      <trkpt lat="39.672160000" lon="-8.554082000">
        <ele>172.000000</ele>
        <time>2020-10-17T14:13:30Z</time>
      </trkpt>
      <trkpt lat="39.672152000" lon="-8.554096000">
        <ele>172.000000</ele>
        <time>2020-10-17T14:13:31Z</time>
      </trkpt>
      <trkpt lat="39.672144000" lon="-8.554109000">
        <ele>172.400000</ele>
        <time>2020-10-17T14:13:32Z</time>
      </trkpt>
      <trkpt lat="39.672135000" lon="-8.554122000">
        <ele>172.600000</ele>
        <time>2020-10-17T14:13:33Z</time>
      </trkpt>
      <trkpt lat="39.672127000" lon="-8.554137000">
        <ele>173.000000</ele>
        <time>2020-10-17T14:13:34Z</time>
      </trkpt>
      <trkpt lat="39.672119000" lon="-8.554152000">
        <ele>173.400000</ele>
        <time>2020-10-17T14:13:35Z</time>
      </trkpt>
      <trkpt lat="39.672114000" lon="-8.554168000">
        <ele>173.600000</ele>
        <time>2020-10-17T14:13:36Z</time>
      </trkpt>
      <trkpt lat="39.672109000" lon="-8.554183000">
        <ele>173.800000</ele>
        <time>2020-10-17T14:13:37Z</time>
      </trkpt>
      <trkpt lat="39.672103000" lon="-8.554200000">
        <ele>173.800000</ele>
        <time>2020-10-17T14:13:38Z</time>
      </trkpt>
      <trkpt lat="39.672100000" lon="-8.554218000">
        <ele>174.200000</ele>
        <time>2020-10-17T14:13:39Z</time>
      </trkpt>
      <trkpt lat="39.672097000" lon="-8.554237000">
        <ele>174.400000</ele>
        <time>2020-10-17T14:13:40Z</time>
      </trkpt>
      <trkpt lat="39.672093000" lon="-8.554255000">
        <ele>174.600000</ele>
        <time>2020-10-17T14:13:41Z</time>
      </trkpt>
      <trkpt lat="39.672089000" lon="-8.554272000">
        <ele>174.800000</ele>
        <time>2020-10-17T14:13:42Z</time>
      </trkpt>
      <trkpt lat="39.672085000" lon="-8.554289000">
        <ele>175.000000</ele>
        <time>2020-10-17T14:13:43Z</time>
      </trkpt>
      <trkpt lat="39.672084000" lon="-8.554307000">
        <ele>175.400000</ele>
        <time>2020-10-17T14:13:44Z</time>
      </trkpt>
      <trkpt lat="39.672083000" lon="-8.554326000">
        <ele>175.800000</ele>
        <time>2020-10-17T14:13:45Z</time>
      </trkpt>
      <trkpt lat="39.672081000" lon="-8.554345000">
        <ele>176.200000</ele>
        <time>2020-10-17T14:13:46Z</time>
      </trkpt>
      <trkpt lat="39.672080000" lon="-8.554363000">
        <ele>176.400000</ele>
        <time>2020-10-17T14:13:47Z</time>
      </trkpt>
      <trkpt lat="39.672081000" lon="-8.554381000">
        <ele>176.600000</ele>
        <time>2020-10-17T14:13:48Z</time>
      </trkpt>
      <trkpt lat="39.672083000" lon="-8.554397000">
        <ele>176.800000</ele>
        <time>2020-10-17T14:13:49Z</time>
      </trkpt>
      <trkpt lat="39.672085000" lon="-8.554413000">
        <ele>177.000000</ele>
        <time>2020-10-17T14:13:50Z</time>
      </trkpt>
      <trkpt lat="39.672086000" lon="-8.554432000">
        <ele>177.400000</ele>
        <time>2020-10-17T14:13:51Z</time>
      </trkpt>
      <trkpt lat="39.672090000" lon="-8.554449000">
        <ele>177.400000</ele>
        <time>2020-10-17T14:13:52Z</time>
      </trkpt>
      <trkpt lat="39.672093000" lon="-8.554465000">
        <ele>177.600000</ele>
        <time>2020-10-17T14:13:53Z</time>
      </trkpt>
      <trkpt lat="39.672096000" lon="-8.554482000">
        <ele>177.800000</ele>
        <time>2020-10-17T14:13:54Z</time>
      </trkpt>
      <trkpt lat="39.672098000" lon="-8.554499000">
        <ele>178.000000</ele>
        <time>2020-10-17T14:13:55Z</time>
      </trkpt>
      <trkpt lat="39.672099000" lon="-8.554517000">
        <ele>178.200000</ele>
        <time>2020-10-17T14:13:56Z</time>
      </trkpt>
      <trkpt lat="39.672100000" lon="-8.554535000">
        <ele>178.400000</ele>
        <time>2020-10-17T14:13:57Z</time>
      </trkpt>
      <trkpt lat="39.672103000" lon="-8.554552000">
        <ele>178.800000</ele>
        <time>2020-10-17T14:13:58Z</time>
      </trkpt>
      <trkpt lat="39.672103000" lon="-8.554568000">
        <ele>179.000000</ele>
        <time>2020-10-17T14:13:59Z</time>
      </trkpt>
      <trkpt lat="39.672104000" lon="-8.554587000">
        <ele>179.000000</ele>
        <time>2020-10-17T14:14:00Z</time>
      </trkpt>
      <trkpt lat="39.672107000" lon="-8.554605000">
        <ele>179.400000</ele>
        <time>2020-10-17T14:14:01Z</time>
      </trkpt>
      <trkpt lat="39.672108000" lon="-8.554622000">
        <ele>179.600000</ele>
        <time>2020-10-17T14:14:02Z</time>
      </trkpt>
      <trkpt lat="39.672108000" lon="-8.554640000">
        <ele>179.800000</ele>
        <time>2020-10-17T14:14:03Z</time>
      </trkpt>
      <trkpt lat="39.672110000" lon="-8.554658000">
        <ele>180.200000</ele>
        <time>2020-10-17T14:14:04Z</time>
      </trkpt>
      <trkpt lat="39.672113000" lon="-8.554676000">
        <ele>180.400000</ele>
        <time>2020-10-17T14:14:05Z</time>
      </trkpt>
      <trkpt lat="39.672116000" lon="-8.554695000">
        <ele>180.600000</ele>
        <time>2020-10-17T14:14:06Z</time>
      </trkpt>
      <trkpt lat="39.672117000" lon="-8.554712000">
        <ele>180.800000</ele>
        <time>2020-10-17T14:14:07Z</time>
      </trkpt>
      <trkpt lat="39.672117000" lon="-8.554729000">
        <ele>181.200000</ele>
        <time>2020-10-17T14:14:08Z</time>
      </trkpt>
      <trkpt lat="39.672119000" lon="-8.554747000">
        <ele>181.400000</ele>
        <time>2020-10-17T14:14:09Z</time>
      </trkpt>
      <trkpt lat="39.672120000" lon="-8.554765000">
        <ele>181.800000</ele>
        <time>2020-10-17T14:14:10Z</time>
      </trkpt>
      <trkpt lat="39.672124000" lon="-8.554786000">
        <ele>182.000000</ele>
        <time>2020-10-17T14:14:11Z</time>
      </trkpt>
      <trkpt lat="39.672126000" lon="-8.554805000">
        <ele>182.400000</ele>
        <time>2020-10-17T14:14:12Z</time>
      </trkpt>
      <trkpt lat="39.672127000" lon="-8.554823000">
        <ele>182.400000</ele>
        <time>2020-10-17T14:14:13Z</time>
      </trkpt>
      <trkpt lat="39.672129000" lon="-8.554842000">
        <ele>182.600000</ele>
        <time>2020-10-17T14:14:14Z</time>
      </trkpt>
      <trkpt lat="39.672131000" lon="-8.554860000">
        <ele>182.800000</ele>
        <time>2020-10-17T14:14:15Z</time>
      </trkpt>
      <trkpt lat="39.672131000" lon="-8.554880000">
        <ele>182.800000</ele>
        <time>2020-10-17T14:14:16Z</time>
      </trkpt>
      <trkpt lat="39.672132000" lon="-8.554899000">
        <ele>183.200000</ele>
        <time>2020-10-17T14:14:17Z</time>
      </trkpt>
      <trkpt lat="39.672135000" lon="-8.554920000">
        <ele>183.600000</ele>
        <time>2020-10-17T14:14:18Z</time>
      </trkpt>
      <trkpt lat="39.672136000" lon="-8.554945000">
        <ele>183.800000</ele>
        <time>2020-10-17T14:14:19Z</time>
      </trkpt>
      <trkpt lat="39.672137000" lon="-8.554968000">
        <ele>183.800000</ele>
        <time>2020-10-17T14:14:20Z</time>
      </trkpt>
      <trkpt lat="39.672134000" lon="-8.554988000">
        <ele>184.000000</ele>
        <time>2020-10-17T14:14:21Z</time>
      </trkpt>
      <trkpt lat="39.672134000" lon="-8.555010000">
        <ele>184.200000</ele>
        <time>2020-10-17T14:14:22Z</time>
      </trkpt>
      <trkpt lat="39.672136000" lon="-8.555031000">
        <ele>184.400000</ele>
        <time>2020-10-17T14:14:23Z</time>
      </trkpt>
      <trkpt lat="39.672138000" lon="-8.555053000">
        <ele>184.800000</ele>
        <time>2020-10-17T14:14:24Z</time>
      </trkpt>
      <trkpt lat="39.672139000" lon="-8.555074000">
        <ele>185.000000</ele>
        <time>2020-10-17T14:14:25Z</time>
      </trkpt>
      <trkpt lat="39.672140000" lon="-8.555094000">
        <ele>185.000000</ele>
        <time>2020-10-17T14:14:26Z</time>
      </trkpt>
      <trkpt lat="39.672141000" lon="-8.555113000">
        <ele>185.200000</ele>
        <time>2020-10-17T14:14:27Z</time>
      </trkpt>
      <trkpt lat="39.672141000" lon="-8.555133000">
        <ele>185.400000</ele>
        <time>2020-10-17T14:14:28Z</time>
      </trkpt>
      <trkpt lat="39.672141000" lon="-8.555152000">
        <ele>185.600000</ele>
        <time>2020-10-17T14:14:29Z</time>
      </trkpt>
      <trkpt lat="39.672141000" lon="-8.555172000">
        <ele>186.000000</ele>
        <time>2020-10-17T14:14:30Z</time>
      </trkpt>
      <trkpt lat="39.672144000" lon="-8.555193000">
        <ele>186.200000</ele>
        <time>2020-10-17T14:14:31Z</time>
      </trkpt>
      <trkpt lat="39.672143000" lon="-8.555212000">
        <ele>186.400000</ele>
        <time>2020-10-17T14:14:32Z</time>
      </trkpt>
      <trkpt lat="39.672142000" lon="-8.555233000">
        <ele>186.400000</ele>
        <time>2020-10-17T14:14:33Z</time>
      </trkpt>
      <trkpt lat="39.672142000" lon="-8.555254000">
        <ele>186.800000</ele>
        <time>2020-10-17T14:14:34Z</time>
      </trkpt>
      <trkpt lat="39.672140000" lon="-8.555273000">
        <ele>186.800000</ele>
        <time>2020-10-17T14:14:35Z</time>
      </trkpt>
      <trkpt lat="39.672138000" lon="-8.555292000">
        <ele>187.000000</ele>
        <time>2020-10-17T14:14:36Z</time>
      </trkpt>
      <trkpt lat="39.672140000" lon="-8.555312000">
        <ele>187.200000</ele>
        <time>2020-10-17T14:14:37Z</time>
      </trkpt>
      <trkpt lat="39.672142000" lon="-8.555331000">
        <ele>187.400000</ele>
        <time>2020-10-17T14:14:38Z</time>
      </trkpt>
      <trkpt lat="39.672144000" lon="-8.555353000">
        <ele>187.600000</ele>
        <time>2020-10-17T14:14:39Z</time>
      </trkpt>
      <trkpt lat="39.672146000" lon="-8.555375000">
        <ele>188.000000</ele>
        <time>2020-10-17T14:14:40Z</time>
      </trkpt>
      <trkpt lat="39.672147000" lon="-8.555397000">
        <ele>188.200000</ele>
        <time>2020-10-17T14:14:41Z</time>
      </trkpt>
      <trkpt lat="39.672149000" lon="-8.555417000">
        <ele>188.600000</ele>
        <time>2020-10-17T14:14:42Z</time>
      </trkpt>
      <trkpt lat="39.672150000" lon="-8.555439000">
        <ele>188.800000</ele>
        <time>2020-10-17T14:14:43Z</time>
      </trkpt>
      <trkpt lat="39.672151000" lon="-8.555462000">
        <ele>189.000000</ele>
        <time>2020-10-17T14:14:44Z</time>
      </trkpt>
      <trkpt lat="39.672151000" lon="-8.555486000">
        <ele>189.200000</ele>
        <time>2020-10-17T14:14:45Z</time>
      </trkpt>
      <trkpt lat="39.672153000" lon="-8.555509000">
        <ele>189.400000</ele>
        <time>2020-10-17T14:14:46Z</time>
      </trkpt>
      <trkpt lat="39.672155000" lon="-8.555533000">
        <ele>189.600000</ele>
        <time>2020-10-17T14:14:47Z</time>
      </trkpt>
      <trkpt lat="39.672156000" lon="-8.555557000">
        <ele>189.800000</ele>
        <time>2020-10-17T14:14:48Z</time>
      </trkpt>
      <trkpt lat="39.672157000" lon="-8.555582000">
        <ele>189.800000</ele>
        <time>2020-10-17T14:14:49Z</time>
      </trkpt>
      <trkpt lat="39.672158000" lon="-8.555605000">
        <ele>190.200000</ele>
        <time>2020-10-17T14:14:50Z</time>
      </trkpt>
      <trkpt lat="39.672158000" lon="-8.555626000">
        <ele>190.200000</ele>
        <time>2020-10-17T14:14:51Z</time>
      </trkpt>
      <trkpt lat="39.672157000" lon="-8.555650000">
        <ele>190.400000</ele>
        <time>2020-10-17T14:14:52Z</time>
      </trkpt>
      <trkpt lat="39.672155000" lon="-8.555674000">
        <ele>190.800000</ele>
        <time>2020-10-17T14:14:53Z</time>
      </trkpt>
      <trkpt lat="39.672156000" lon="-8.555699000">
        <ele>190.800000</ele>
        <time>2020-10-17T14:14:54Z</time>
      </trkpt>
      <trkpt lat="39.672158000" lon="-8.555724000">
        <ele>190.800000</ele>
        <time>2020-10-17T14:14:55Z</time>
      </trkpt>
      <trkpt lat="39.672157000" lon="-8.555744000">
        <ele>191.000000</ele>
        <time>2020-10-17T14:14:56Z</time>
      </trkpt>
      <trkpt lat="39.672157000" lon="-8.555766000">
        <ele>191.200000</ele>
        <time>2020-10-17T14:14:57Z</time>
      </trkpt>
      <trkpt lat="39.672156000" lon="-8.555787000">
        <ele>191.600000</ele>
        <time>2020-10-17T14:14:58Z</time>
      </trkpt>
      <trkpt lat="39.672155000" lon="-8.555808000">
        <ele>191.600000</ele>
        <time>2020-10-17T14:14:59Z</time>
      </trkpt>
      <trkpt lat="39.672156000" lon="-8.555830000">
        <ele>191.800000</ele>
        <time>2020-10-17T14:15:00Z</time>
      </trkpt>
      <trkpt lat="39.672158000" lon="-8.555854000">
        <ele>192.200000</ele>
        <time>2020-10-17T14:15:01Z</time>
      </trkpt>
      <trkpt lat="39.672159000" lon="-8.555876000">
        <ele>192.400000</ele>
        <time>2020-10-17T14:15:02Z</time>
      </trkpt>
      <trkpt lat="39.672161000" lon="-8.555899000">
        <ele>192.400000</ele>
        <time>2020-10-17T14:15:03Z</time>
      </trkpt>
      <trkpt lat="39.672163000" lon="-8.555922000">
        <ele>192.600000</ele>
        <time>2020-10-17T14:15:04Z</time>
      </trkpt>
      <trkpt lat="39.672167000" lon="-8.555946000">
        <ele>192.800000</ele>
        <time>2020-10-17T14:15:05Z</time>
      </trkpt>
      <trkpt lat="39.672170000" lon="-8.555970000">
        <ele>192.800000</ele>
        <time>2020-10-17T14:15:06Z</time>
      </trkpt>
      <trkpt lat="39.672172000" lon="-8.555997000">
        <ele>193.200000</ele>
        <time>2020-10-17T14:15:07Z</time>
      </trkpt>
      <trkpt lat="39.672173000" lon="-8.556022000">
        <ele>193.400000</ele>
        <time>2020-10-17T14:15:08Z</time>
      </trkpt>
      <trkpt lat="39.672175000" lon="-8.556050000">
        <ele>193.800000</ele>
        <time>2020-10-17T14:15:09Z</time>
      </trkpt>
      <trkpt lat="39.672178000" lon="-8.556077000">
        <ele>194.000000</ele>
        <time>2020-10-17T14:15:10Z</time>
      </trkpt>
      <trkpt lat="39.672178000" lon="-8.556101000">
        <ele>194.200000</ele>
        <time>2020-10-17T14:15:11Z</time>
      </trkpt>
      <trkpt lat="39.672178000" lon="-8.556126000">
        <ele>194.600000</ele>
        <time>2020-10-17T14:15:12Z</time>
      </trkpt>
      <trkpt lat="39.672183000" lon="-8.556156000">
        <ele>194.800000</ele>
        <time>2020-10-17T14:15:13Z</time>
      </trkpt>
      <trkpt lat="39.672185000" lon="-8.556181000">
        <ele>195.000000</ele>
        <time>2020-10-17T14:15:14Z</time>
      </trkpt>
      <trkpt lat="39.672186000" lon="-8.556206000">
        <ele>195.200000</ele>
        <time>2020-10-17T14:15:15Z</time>
      </trkpt>
      <trkpt lat="39.672190000" lon="-8.556232000">
        <ele>195.200000</ele>
        <time>2020-10-17T14:15:16Z</time>
      </trkpt>
      <trkpt lat="39.672195000" lon="-8.556258000">
        <ele>195.400000</ele>
        <time>2020-10-17T14:15:17Z</time>
      </trkpt>
      <trkpt lat="39.672200000" lon="-8.556285000">
        <ele>195.600000</ele>
        <time>2020-10-17T14:15:18Z</time>
      </trkpt>
      <trkpt lat="39.672203000" lon="-8.556312000">
        <ele>196.000000</ele>
        <time>2020-10-17T14:15:19Z</time>
      </trkpt>
      <trkpt lat="39.672207000" lon="-8.556341000">
        <ele>196.200000</ele>
        <time>2020-10-17T14:15:20Z</time>
      </trkpt>
      <trkpt lat="39.672210000" lon="-8.556368000">
        <ele>196.400000</ele>
        <time>2020-10-17T14:15:21Z</time>
      </trkpt>
      <trkpt lat="39.672213000" lon="-8.556395000">
        <ele>196.600000</ele>
        <time>2020-10-17T14:15:22Z</time>
      </trkpt>
      <trkpt lat="39.672217000" lon="-8.556423000">
        <ele>196.800000</ele>
        <time>2020-10-17T14:15:23Z</time>
      </trkpt>
      <trkpt lat="39.672218000" lon="-8.556450000">
        <ele>196.800000</ele>
        <time>2020-10-17T14:15:24Z</time>
      </trkpt>
      <trkpt lat="39.672221000" lon="-8.556479000">
        <ele>197.000000</ele>
        <time>2020-10-17T14:15:25Z</time>
      </trkpt>
      <trkpt lat="39.672225000" lon="-8.556509000">
        <ele>197.200000</ele>
        <time>2020-10-17T14:15:26Z</time>
      </trkpt>
      <trkpt lat="39.672230000" lon="-8.556539000">
        <ele>197.400000</ele>
        <time>2020-10-17T14:15:27Z</time>
      </trkpt>
      <trkpt lat="39.672234000" lon="-8.556568000">
        <ele>197.800000</ele>
        <time>2020-10-17T14:15:28Z</time>
      </trkpt>
      <trkpt lat="39.672237000" lon="-8.556598000">
        <ele>197.800000</ele>
        <time>2020-10-17T14:15:29Z</time>
      </trkpt>
      <trkpt lat="39.672240000" lon="-8.556627000">
        <ele>198.000000</ele>
        <time>2020-10-17T14:15:30Z</time>
      </trkpt>
      <trkpt lat="39.672241000" lon="-8.556657000">
        <ele>198.200000</ele>
        <time>2020-10-17T14:15:31Z</time>
      </trkpt>
      <trkpt lat="39.672243000" lon="-8.556687000">
        <ele>198.400000</ele>
        <time>2020-10-17T14:15:32Z</time>
      </trkpt>
      <trkpt lat="39.672243000" lon="-8.556718000">
        <ele>198.600000</ele>
        <time>2020-10-17T14:15:33Z</time>
      </trkpt>
      <trkpt lat="39.672244000" lon="-8.556750000">
        <ele>198.800000</ele>
        <time>2020-10-17T14:15:34Z</time>
      </trkpt>
      <trkpt lat="39.672246000" lon="-8.556779000">
        <ele>198.800000</ele>
        <time>2020-10-17T14:15:35Z</time>
      </trkpt>
      <trkpt lat="39.672247000" lon="-8.556808000">
        <ele>199.000000</ele>
        <time>2020-10-17T14:15:36Z</time>
      </trkpt>
      <trkpt lat="39.672249000" lon="-8.556835000">
        <ele>199.200000</ele>
        <time>2020-10-17T14:15:37Z</time>
      </trkpt>
      <trkpt lat="39.672251000" lon="-8.556863000">
        <ele>199.200000</ele>
        <time>2020-10-17T14:15:38Z</time>
      </trkpt>
      <trkpt lat="39.672251000" lon="-8.556895000">
        <ele>199.400000</ele>
        <time>2020-10-17T14:15:39Z</time>
      </trkpt>
      <trkpt lat="39.672253000" lon="-8.556925000">
        <ele>199.400000</ele>
        <time>2020-10-17T14:15:40Z</time>
      </trkpt>
      <trkpt lat="39.672256000" lon="-8.556955000">
        <ele>199.400000</ele>
        <time>2020-10-17T14:15:41Z</time>
      </trkpt>
      <trkpt lat="39.672257000" lon="-8.556986000">
        <ele>199.600000</ele>
        <time>2020-10-17T14:15:42Z</time>
      </trkpt>
      <trkpt lat="39.672259000" lon="-8.557016000">
        <ele>199.800000</ele>
        <time>2020-10-17T14:15:43Z</time>
      </trkpt>
      <trkpt lat="39.672260000" lon="-8.557043000">
        <ele>200.000000</ele>
        <time>2020-10-17T14:15:44Z</time>
      </trkpt>
      <trkpt lat="39.672260000" lon="-8.557070000">
        <ele>200.000000</ele>
        <time>2020-10-17T14:15:45Z</time>
      </trkpt>
      <trkpt lat="39.672260000" lon="-8.557095000">
        <ele>200.200000</ele>
        <time>2020-10-17T14:15:46Z</time>
      </trkpt>
      <trkpt lat="39.672260000" lon="-8.557119000">
        <ele>200.400000</ele>
        <time>2020-10-17T14:15:47Z</time>
      </trkpt>
      <trkpt lat="39.672260000" lon="-8.557146000">
        <ele>200.600000</ele>
        <time>2020-10-17T14:15:48Z</time>
      </trkpt>
      <trkpt lat="39.672262000" lon="-8.557174000">
        <ele>200.800000</ele>
        <time>2020-10-17T14:15:49Z</time>
      </trkpt>
      <trkpt lat="39.672264000" lon="-8.557205000">
        <ele>201.200000</ele>
        <time>2020-10-17T14:15:50Z</time>
      </trkpt>
      <trkpt lat="39.672268000" lon="-8.557236000">
        <ele>201.400000</ele>
        <time>2020-10-17T14:15:51Z</time>
      </trkpt>
      <trkpt lat="39.672270000" lon="-8.557268000">
        <ele>201.600000</ele>
        <time>2020-10-17T14:15:52Z</time>
      </trkpt>
      <trkpt lat="39.672271000" lon="-8.557295000">
        <ele>201.800000</ele>
        <time>2020-10-17T14:15:53Z</time>
      </trkpt>
      <trkpt lat="39.672275000" lon="-8.557323000">
        <ele>202.000000</ele>
        <time>2020-10-17T14:15:54Z</time>
      </trkpt>
      <trkpt lat="39.672278000" lon="-8.557354000">
        <ele>202.400000</ele>
        <time>2020-10-17T14:15:55Z</time>
      </trkpt>
      <trkpt lat="39.672281000" lon="-8.557385000">
        <ele>202.600000</ele>
        <time>2020-10-17T14:15:56Z</time>
      </trkpt>
      <trkpt lat="39.672282000" lon="-8.557417000">
        <ele>202.800000</ele>
        <time>2020-10-17T14:15:57Z</time>
      </trkpt>
      <trkpt lat="39.672284000" lon="-8.557449000">
        <ele>202.800000</ele>
        <time>2020-10-17T14:15:58Z</time>
      </trkpt>
      <trkpt lat="39.672284000" lon="-8.557480000">
        <ele>202.800000</ele>
        <time>2020-10-17T14:15:59Z</time>
      </trkpt>
      <trkpt lat="39.672283000" lon="-8.557510000">
        <ele>203.200000</ele>
        <time>2020-10-17T14:16:00Z</time>
      </trkpt>
      <trkpt lat="39.672282000" lon="-8.557542000">
        <ele>203.400000</ele>
        <time>2020-10-17T14:16:01Z</time>
      </trkpt>
      <trkpt lat="39.672282000" lon="-8.557574000">
        <ele>203.400000</ele>
        <time>2020-10-17T14:16:02Z</time>
      </trkpt>
      <trkpt lat="39.672281000" lon="-8.557606000">
        <ele>203.800000</ele>
        <time>2020-10-17T14:16:03Z</time>
      </trkpt>
      <trkpt lat="39.672280000" lon="-8.557635000">
        <ele>203.800000</ele>
        <time>2020-10-17T14:16:04Z</time>
      </trkpt>
      <trkpt lat="39.672281000" lon="-8.557670000">
        <ele>203.800000</ele>
        <time>2020-10-17T14:16:05Z</time>
      </trkpt>
      <trkpt lat="39.672279000" lon="-8.557708000">
        <ele>204.000000</ele>
        <time>2020-10-17T14:16:06Z</time>
      </trkpt>
      <trkpt lat="39.672275000" lon="-8.557741000">
        <ele>204.400000</ele>
        <time>2020-10-17T14:16:07Z</time>
      </trkpt>
      <trkpt lat="39.672274000" lon="-8.557771000">
        <ele>204.600000</ele>
        <time>2020-10-17T14:16:08Z</time>
      </trkpt>
      <trkpt lat="39.672273000" lon="-8.557798000">
        <ele>204.800000</ele>
        <time>2020-10-17T14:16:09Z</time>
      </trkpt>
      <trkpt lat="39.672269000" lon="-8.557817000">
        <ele>204.800000</ele>
        <time>2020-10-17T14:16:10Z</time>
      </trkpt>
      <trkpt lat="39.672267000" lon="-8.557843000">
        <ele>205.200000</ele>
        <time>2020-10-17T14:16:11Z</time>
      </trkpt>
      <trkpt lat="39.672266000" lon="-8.557870000">
        <ele>205.600000</ele>
        <time>2020-10-17T14:16:12Z</time>
      </trkpt>
      <trkpt lat="39.672263000" lon="-8.557898000">
        <ele>205.800000</ele>
        <time>2020-10-17T14:16:13Z</time>
      </trkpt>
      <trkpt lat="39.672261000" lon="-8.557927000">
        <ele>206.200000</ele>
        <time>2020-10-17T14:16:14Z</time>
      </trkpt>
      <trkpt lat="39.672259000" lon="-8.557952000">
        <ele>206.200000</ele>
        <time>2020-10-17T14:16:15Z</time>
      </trkpt>
      <trkpt lat="39.672259000" lon="-8.557978000">
        <ele>206.600000</ele>
        <time>2020-10-17T14:16:16Z</time>
      </trkpt>
      <trkpt lat="39.672261000" lon="-8.558007000">
        <ele>206.800000</ele>
        <time>2020-10-17T14:16:17Z</time>
      </trkpt>
      <trkpt lat="39.672264000" lon="-8.558036000">
        <ele>207.200000</ele>
        <time>2020-10-17T14:16:18Z</time>
      </trkpt>
      <trkpt lat="39.672265000" lon="-8.558065000">
        <ele>207.600000</ele>
        <time>2020-10-17T14:16:19Z</time>
      </trkpt>
      <trkpt lat="39.672268000" lon="-8.558097000">
        <ele>207.600000</ele>
        <time>2020-10-17T14:16:20Z</time>
      </trkpt>
      <trkpt lat="39.672275000" lon="-8.558129000">
        <ele>208.000000</ele>
        <time>2020-10-17T14:16:21Z</time>
      </trkpt>
      <trkpt lat="39.672280000" lon="-8.558161000">
        <ele>208.200000</ele>
        <time>2020-10-17T14:16:22Z</time>
      </trkpt>
      <trkpt lat="39.672285000" lon="-8.558192000">
        <ele>208.400000</ele>
        <time>2020-10-17T14:16:23Z</time>
      </trkpt>
      <trkpt lat="39.672291000" lon="-8.558224000">
        <ele>208.600000</ele>
        <time>2020-10-17T14:16:24Z</time>
      </trkpt>
      <trkpt lat="39.672297000" lon="-8.558257000">
        <ele>209.000000</ele>
        <time>2020-10-17T14:16:25Z</time>
      </trkpt>
      <trkpt lat="39.672304000" lon="-8.558288000">
        <ele>209.200000</ele>
        <time>2020-10-17T14:16:26Z</time>
      </trkpt>
      <trkpt lat="39.672311000" lon="-8.558317000">
        <ele>209.600000</ele>
        <time>2020-10-17T14:16:27Z</time>
      </trkpt>
      <trkpt lat="39.672320000" lon="-8.558347000">
        <ele>210.000000</ele>
        <time>2020-10-17T14:16:28Z</time>
      </trkpt>
      <trkpt lat="39.672326000" lon="-8.558375000">
        <ele>210.000000</ele>
        <time>2020-10-17T14:16:29Z</time>
      </trkpt>
      <trkpt lat="39.672333000" lon="-8.558405000">
        <ele>210.600000</ele>
        <time>2020-10-17T14:16:30Z</time>
      </trkpt>
      <trkpt lat="39.672341000" lon="-8.558433000">
        <ele>210.800000</ele>
        <time>2020-10-17T14:16:31Z</time>
      </trkpt>
      <trkpt lat="39.672347000" lon="-8.558463000">
        <ele>211.000000</ele>
        <time>2020-10-17T14:16:32Z</time>
      </trkpt>
      <trkpt lat="39.672354000" lon="-8.558493000">
        <ele>211.200000</ele>
        <time>2020-10-17T14:16:33Z</time>
      </trkpt>
      <trkpt lat="39.672361000" lon="-8.558523000">
        <ele>211.400000</ele>
        <time>2020-10-17T14:16:34Z</time>
      </trkpt>
      <trkpt lat="39.672368000" lon="-8.558550000">
        <ele>211.600000</ele>
        <time>2020-10-17T14:16:35Z</time>
      </trkpt>
      <trkpt lat="39.672377000" lon="-8.558576000">
        <ele>211.800000</ele>
        <time>2020-10-17T14:16:36Z</time>
      </trkpt>
      <trkpt lat="39.672387000" lon="-8.558602000">
        <ele>212.000000</ele>
        <time>2020-10-17T14:16:37Z</time>
      </trkpt>
      <trkpt lat="39.672398000" lon="-8.558628000">
        <ele>212.400000</ele>
        <time>2020-10-17T14:16:38Z</time>
      </trkpt>
      <trkpt lat="39.672408000" lon="-8.558655000">
        <ele>212.800000</ele>
        <time>2020-10-17T14:16:39Z</time>
      </trkpt>
      <trkpt lat="39.672416000" lon="-8.558682000">
        <ele>212.800000</ele>
        <time>2020-10-17T14:16:40Z</time>
      </trkpt>
      <trkpt lat="39.672426000" lon="-8.558710000">
        <ele>212.800000</ele>
        <time>2020-10-17T14:16:41Z</time>
      </trkpt>
      <trkpt lat="39.672436000" lon="-8.558737000">
        <ele>213.200000</ele>
        <time>2020-10-17T14:16:42Z</time>
      </trkpt>
      <trkpt lat="39.672446000" lon="-8.558763000">
        <ele>213.200000</ele>
        <time>2020-10-17T14:16:43Z</time>
      </trkpt>
      <trkpt lat="39.672455000" lon="-8.558791000">
        <ele>213.600000</ele>
        <time>2020-10-17T14:16:44Z</time>
      </trkpt>
      <trkpt lat="39.672465000" lon="-8.558818000">
        <ele>213.800000</ele>
        <time>2020-10-17T14:16:45Z</time>
      </trkpt>
      <trkpt lat="39.672475000" lon="-8.558846000">
        <ele>214.000000</ele>
        <time>2020-10-17T14:16:46Z</time>
      </trkpt>
      <trkpt lat="39.672484000" lon="-8.558875000">
        <ele>214.200000</ele>
        <time>2020-10-17T14:16:47Z</time>
      </trkpt>
      <trkpt lat="39.672493000" lon="-8.558901000">
        <ele>214.400000</ele>
        <time>2020-10-17T14:16:48Z</time>
      </trkpt>
      <trkpt lat="39.672501000" lon="-8.558926000">
        <ele>214.600000</ele>
        <time>2020-10-17T14:16:49Z</time>
      </trkpt>
      <trkpt lat="39.672508000" lon="-8.558950000">
        <ele>214.600000</ele>
        <time>2020-10-17T14:16:50Z</time>
      </trkpt>
      <trkpt lat="39.672515000" lon="-8.558975000">
        <ele>215.000000</ele>
        <time>2020-10-17T14:16:51Z</time>
      </trkpt>
      <trkpt lat="39.672523000" lon="-8.559001000">
        <ele>215.200000</ele>
        <time>2020-10-17T14:16:52Z</time>
      </trkpt>
      <trkpt lat="39.672531000" lon="-8.559028000">
        <ele>215.400000</ele>
        <time>2020-10-17T14:16:53Z</time>
      </trkpt>
      <trkpt lat="39.672539000" lon="-8.559056000">
        <ele>215.800000</ele>
        <time>2020-10-17T14:16:54Z</time>
      </trkpt>
      <trkpt lat="39.672548000" lon="-8.559081000">
        <ele>216.000000</ele>
        <time>2020-10-17T14:16:55Z</time>
      </trkpt>
      <trkpt lat="39.672558000" lon="-8.559108000">
        <ele>216.400000</ele>
        <time>2020-10-17T14:16:56Z</time>
      </trkpt>
      <trkpt lat="39.672567000" lon="-8.559133000">
        <ele>216.800000</ele>
        <time>2020-10-17T14:16:57Z</time>
      </trkpt>
      <trkpt lat="39.672576000" lon="-8.559159000">
        <ele>216.800000</ele>
        <time>2020-10-17T14:16:58Z</time>
      </trkpt>
      <trkpt lat="39.672584000" lon="-8.559186000">
        <ele>217.200000</ele>
        <time>2020-10-17T14:16:59Z</time>
      </trkpt>
      <trkpt lat="39.672592000" lon="-8.559213000">
        <ele>217.200000</ele>
        <time>2020-10-17T14:17:00Z</time>
      </trkpt>
      <trkpt lat="39.672600000" lon="-8.559240000">
        <ele>217.400000</ele>
        <time>2020-10-17T14:17:01Z</time>
      </trkpt>
      <trkpt lat="39.672610000" lon="-8.559268000">
        <ele>217.400000</ele>
        <time>2020-10-17T14:17:02Z</time>
      </trkpt>
      <trkpt lat="39.672621000" lon="-8.559295000">
        <ele>217.600000</ele>
        <time>2020-10-17T14:17:03Z</time>
      </trkpt>
      <trkpt lat="39.672631000" lon="-8.559321000">
        <ele>217.800000</ele>
        <time>2020-10-17T14:17:04Z</time>
      </trkpt>
      <trkpt lat="39.672640000" lon="-8.559348000">
        <ele>218.000000</ele>
        <time>2020-10-17T14:17:05Z</time>
      </trkpt>
      <trkpt lat="39.672649000" lon="-8.559374000">
        <ele>218.200000</ele>
        <time>2020-10-17T14:17:06Z</time>
      </trkpt>
      <trkpt lat="39.672658000" lon="-8.559398000">
        <ele>218.600000</ele>
        <time>2020-10-17T14:17:07Z</time>
      </trkpt>
      <trkpt lat="39.672665000" lon="-8.559423000">
        <ele>218.600000</ele>
        <time>2020-10-17T14:17:08Z</time>
      </trkpt>
      <trkpt lat="39.672672000" lon="-8.559447000">
        <ele>218.800000</ele>
        <time>2020-10-17T14:17:09Z</time>
      </trkpt>
      <trkpt lat="39.672679000" lon="-8.559471000">
        <ele>219.000000</ele>
        <time>2020-10-17T14:17:10Z</time>
      </trkpt>
      <trkpt lat="39.672686000" lon="-8.559493000">
        <ele>219.200000</ele>
        <time>2020-10-17T14:17:11Z</time>
      </trkpt>
      <trkpt lat="39.672688000" lon="-8.559512000">
        <ele>219.400000</ele>
        <time>2020-10-17T14:17:12Z</time>
      </trkpt>
      <trkpt lat="39.672693000" lon="-8.559534000">
        <ele>219.600000</ele>
        <time>2020-10-17T14:17:13Z</time>
      </trkpt>
      <trkpt lat="39.672700000" lon="-8.559556000">
        <ele>219.800000</ele>
        <time>2020-10-17T14:17:14Z</time>
      </trkpt>
      <trkpt lat="39.672706000" lon="-8.559576000">
        <ele>220.000000</ele>
        <time>2020-10-17T14:17:15Z</time>
      </trkpt>
      <trkpt lat="39.672711000" lon="-8.559600000">
        <ele>220.400000</ele>
        <time>2020-10-17T14:17:16Z</time>
      </trkpt>
      <trkpt lat="39.672709000" lon="-8.559618000">
        <ele>220.600000</ele>
        <time>2020-10-17T14:17:17Z</time>
      </trkpt>
      <trkpt lat="39.672703000" lon="-8.559635000">
        <ele>221.000000</ele>
        <time>2020-10-17T14:17:18Z</time>
      </trkpt>
      <trkpt lat="39.672693000" lon="-8.559650000">
        <ele>221.400000</ele>
        <time>2020-10-17T14:17:19Z</time>
      </trkpt>
      <trkpt lat="39.672679000" lon="-8.559663000">
        <ele>221.400000</ele>
        <time>2020-10-17T14:17:20Z</time>
      </trkpt>
      <trkpt lat="39.672661000" lon="-8.559671000">
        <ele>221.800000</ele>
        <time>2020-10-17T14:17:21Z</time>
      </trkpt>
      <trkpt lat="39.672639000" lon="-8.559678000">
        <ele>221.800000</ele>
        <time>2020-10-17T14:17:22Z</time>
      </trkpt>
      <trkpt lat="39.672614000" lon="-8.559681000">
        <ele>221.800000</ele>
        <time>2020-10-17T14:17:23Z</time>
      </trkpt>
      <trkpt lat="39.672585000" lon="-8.559680000">
        <ele>222.000000</ele>
        <time>2020-10-17T14:17:24Z</time>
      </trkpt>
      <trkpt lat="39.672554000" lon="-8.559681000">
        <ele>222.200000</ele>
        <time>2020-10-17T14:17:25Z</time>
      </trkpt>
      <trkpt lat="39.672525000" lon="-8.559680000">
        <ele>222.600000</ele>
        <time>2020-10-17T14:17:26Z</time>
      </trkpt>
      <trkpt lat="39.672496000" lon="-8.559677000">
        <ele>222.600000</ele>
        <time>2020-10-17T14:17:27Z</time>
      </trkpt>
      <trkpt lat="39.672466000" lon="-8.559672000">
        <ele>222.800000</ele>
        <time>2020-10-17T14:17:28Z</time>
      </trkpt>
      <trkpt lat="39.672435000" lon="-8.559667000">
        <ele>222.800000</ele>
        <time>2020-10-17T14:17:29Z</time>
      </trkpt>
      <trkpt lat="39.672406000" lon="-8.559661000">
        <ele>223.000000</ele>
        <time>2020-10-17T14:17:30Z</time>
      </trkpt>
      <trkpt lat="39.672376000" lon="-8.559655000">
        <ele>223.000000</ele>
        <time>2020-10-17T14:17:31Z</time>
      </trkpt>
      <trkpt lat="39.672347000" lon="-8.559649000">
        <ele>223.400000</ele>
        <time>2020-10-17T14:17:32Z</time>
      </trkpt>
      <trkpt lat="39.672319000" lon="-8.559643000">
        <ele>223.400000</ele>
        <time>2020-10-17T14:17:33Z</time>
      </trkpt>
      <trkpt lat="39.672290000" lon="-8.559640000">
        <ele>223.400000</ele>
        <time>2020-10-17T14:17:34Z</time>
      </trkpt>
      <trkpt lat="39.672260000" lon="-8.559637000">
        <ele>223.400000</ele>
        <time>2020-10-17T14:17:35Z</time>
      </trkpt>
      <trkpt lat="39.672232000" lon="-8.559631000">
        <ele>223.400000</ele>
        <time>2020-10-17T14:17:36Z</time>
      </trkpt>
      <trkpt lat="39.672203000" lon="-8.559624000">
        <ele>223.400000</ele>
        <time>2020-10-17T14:17:37Z</time>
      </trkpt>
      <trkpt lat="39.672147000" lon="-8.559606000">
        <ele>223.600000</ele>
        <time>2020-10-17T14:17:39Z</time>
      </trkpt>
      <trkpt lat="39.672120000" lon="-8.559600000">
        <ele>223.600000</ele>
        <time>2020-10-17T14:17:40Z</time>
      </trkpt>
      <trkpt lat="39.672062000" lon="-8.559602000">
        <ele>223.600000</ele>
        <time>2020-10-17T14:17:42Z</time>
      </trkpt>
      <trkpt lat="39.672033000" lon="-8.559602000">
        <ele>223.600000</ele>
        <time>2020-10-17T14:17:43Z</time>
      </trkpt>
      <trkpt lat="39.672003000" lon="-8.559606000">
        <ele>223.600000</ele>
        <time>2020-10-17T14:17:44Z</time>
      </trkpt>
      <trkpt lat="39.671973000" lon="-8.559610000">
        <ele>223.800000</ele>
        <time>2020-10-17T14:17:45Z</time>
      </trkpt>
      <trkpt lat="39.671851000" lon="-8.559642000">
        <ele>224.200000</ele>
        <time>2020-10-17T14:17:49Z</time>
      </trkpt>
      <trkpt lat="39.671824000" lon="-8.559652000">
        <ele>224.200000</ele>
        <time>2020-10-17T14:17:50Z</time>
      </trkpt>
      <trkpt lat="39.671797000" lon="-8.559661000">
        <ele>224.200000</ele>
        <time>2020-10-17T14:17:51Z</time>
      </trkpt>
      <trkpt lat="39.671686000" lon="-8.559699000">
        <ele>224.600000</ele>
        <time>2020-10-17T14:17:55Z</time>
      </trkpt>
      <trkpt lat="39.671656000" lon="-8.559706000">
        <ele>224.600000</ele>
        <time>2020-10-17T14:17:56Z</time>
      </trkpt>
      <trkpt lat="39.671624000" lon="-8.559714000">
        <ele>224.800000</ele>
        <time>2020-10-17T14:17:57Z</time>
      </trkpt>
      <trkpt lat="39.671590000" lon="-8.559722000">
        <ele>225.000000</ele>
        <time>2020-10-17T14:17:58Z</time>
      </trkpt>
      <trkpt lat="39.671553000" lon="-8.559729000">
        <ele>225.200000</ele>
        <time>2020-10-17T14:17:59Z</time>
      </trkpt>
      <trkpt lat="39.671517000" lon="-8.559734000">
        <ele>225.200000</ele>
        <time>2020-10-17T14:18:00Z</time>
      </trkpt>
      <trkpt lat="39.671480000" lon="-8.559735000">
        <ele>225.800000</ele>
        <time>2020-10-17T14:18:01Z</time>
      </trkpt>
      <trkpt lat="39.671445000" lon="-8.559735000">
        <ele>225.800000</ele>
        <time>2020-10-17T14:18:02Z</time>
      </trkpt>
      <trkpt lat="39.671414000" lon="-8.559731000">
        <ele>226.000000</ele>
        <time>2020-10-17T14:18:03Z</time>
      </trkpt>
      <trkpt lat="39.671385000" lon="-8.559727000">
        <ele>226.000000</ele>
        <time>2020-10-17T14:18:04Z</time>
      </trkpt>
      <trkpt lat="39.671354000" lon="-8.559729000">
        <ele>226.000000</ele>
        <time>2020-10-17T14:18:05Z</time>
      </trkpt>
      <trkpt lat="39.671326000" lon="-8.559737000">
        <ele>226.400000</ele>
        <time>2020-10-17T14:18:06Z</time>
      </trkpt>
      <trkpt lat="39.671302000" lon="-8.559754000">
        <ele>226.400000</ele>
        <time>2020-10-17T14:18:07Z</time>
      </trkpt>
      <trkpt lat="39.671276000" lon="-8.559781000">
        <ele>226.600000</ele>
        <time>2020-10-17T14:18:08Z</time>
      </trkpt>
      <trkpt lat="39.671246000" lon="-8.559814000">
        <ele>226.600000</ele>
        <time>2020-10-17T14:18:09Z</time>
      </trkpt>
      <trkpt lat="39.671212000" lon="-8.559849000">
        <ele>226.600000</ele>
        <time>2020-10-17T14:18:10Z</time>
      </trkpt>
      <trkpt lat="39.671174000" lon="-8.559889000">
        <ele>226.600000</ele>
        <time>2020-10-17T14:18:11Z</time>
      </trkpt>
      <trkpt lat="39.671135000" lon="-8.559936000">
        <ele>226.600000</ele>
        <time>2020-10-17T14:18:12Z</time>
      </trkpt>
      <trkpt lat="39.671096000" lon="-8.559993000">
        <ele>226.400000</ele>
        <time>2020-10-17T14:18:13Z</time>
      </trkpt>
      <trkpt lat="39.671062000" lon="-8.560057000">
        <ele>226.400000</ele>
        <time>2020-10-17T14:18:14Z</time>
      </trkpt>
      <trkpt lat="39.671034000" lon="-8.560132000">
        <ele>226.400000</ele>
        <time>2020-10-17T14:18:15Z</time>
      </trkpt>
      <trkpt lat="39.671015000" lon="-8.560212000">
        <ele>226.600000</ele>
        <time>2020-10-17T14:18:16Z</time>
      </trkpt>
      <trkpt lat="39.671006000" lon="-8.560307000">
        <ele>226.400000</ele>
        <time>2020-10-17T14:18:17Z</time>
      </trkpt>
      <trkpt lat="39.670998000" lon="-8.560406000">
        <ele>226.200000</ele>
        <time>2020-10-17T14:18:18Z</time>
      </trkpt>
      <trkpt lat="39.670981000" lon="-8.560508000">
        <ele>226.000000</ele>
        <time>2020-10-17T14:18:19Z</time>
      </trkpt>
      <trkpt lat="39.670953000" lon="-8.560607000">
        <ele>225.800000</ele>
        <time>2020-10-17T14:18:20Z</time>
      </trkpt>
      <trkpt lat="39.670915000" lon="-8.560703000">
        <ele>225.400000</ele>
        <time>2020-10-17T14:18:21Z</time>
      </trkpt>
      <trkpt lat="39.670867000" lon="-8.560796000">
        <ele>224.600000</ele>
        <time>2020-10-17T14:18:22Z</time>
      </trkpt>
      <trkpt lat="39.670809000" lon="-8.560887000">
        <ele>223.800000</ele>
        <time>2020-10-17T14:18:23Z</time>
      </trkpt>
      <trkpt lat="39.670743000" lon="-8.560980000">
        <ele>222.600000</ele>
        <time>2020-10-17T14:18:24Z</time>
      </trkpt>
      <trkpt lat="39.670678000" lon="-8.561073000">
        <ele>221.600000</ele>
        <time>2020-10-17T14:18:25Z</time>
      </trkpt>
      <trkpt lat="39.670560000" lon="-8.561265000">
        <ele>220.600000</ele>
        <time>2020-10-17T14:18:27Z</time>
      </trkpt>
      <trkpt lat="39.670502000" lon="-8.561374000">
        <ele>219.600000</ele>
        <time>2020-10-17T14:18:28Z</time>
      </trkpt>
      <trkpt lat="39.670450000" lon="-8.561473000">
        <ele>218.800000</ele>
        <time>2020-10-17T14:18:29Z</time>
      </trkpt>
      <trkpt lat="39.670402000" lon="-8.561571000">
        <ele>218.200000</ele>
        <time>2020-10-17T14:18:30Z</time>
      </trkpt>
      <trkpt lat="39.670354000" lon="-8.561668000">
        <ele>217.200000</ele>
        <time>2020-10-17T14:18:31Z</time>
      </trkpt>
      <trkpt lat="39.670304000" lon="-8.561761000">
        <ele>216.200000</ele>
        <time>2020-10-17T14:18:32Z</time>
      </trkpt>
      <trkpt lat="39.670247000" lon="-8.561844000">
        <ele>215.400000</ele>
        <time>2020-10-17T14:18:33Z</time>
      </trkpt>
      <trkpt lat="39.670116000" lon="-8.562004000">
        <ele>214.000000</ele>
        <time>2020-10-17T14:18:35Z</time>
      </trkpt>
      <trkpt lat="39.670049000" lon="-8.562083000">
        <ele>213.400000</ele>
        <time>2020-10-17T14:18:36Z</time>
      </trkpt>
      <trkpt lat="39.669904000" lon="-8.562246000">
        <ele>212.600000</ele>
        <time>2020-10-17T14:18:38Z</time>
      </trkpt>
      <trkpt lat="39.669748000" lon="-8.562397000">
        <ele>211.800000</ele>
        <time>2020-10-17T14:18:40Z</time>
      </trkpt>
      <trkpt lat="39.669611000" lon="-8.562570000">
        <ele>211.200000</ele>
        <time>2020-10-17T14:18:42Z</time>
      </trkpt>
      <trkpt lat="39.669551000" lon="-8.562663000">
        <ele>211.000000</ele>
        <time>2020-10-17T14:18:43Z</time>
      </trkpt>
      <trkpt lat="39.669498000" lon="-8.562758000">
        <ele>210.800000</ele>
        <time>2020-10-17T14:18:44Z</time>
      </trkpt>
      <trkpt lat="39.669439000" lon="-8.562861000">
        <ele>210.400000</ele>
        <time>2020-10-17T14:18:45Z</time>
      </trkpt>
      <trkpt lat="39.669381000" lon="-8.562964000">
        <ele>209.800000</ele>
        <time>2020-10-17T14:18:46Z</time>
      </trkpt>
      <trkpt lat="39.669308000" lon="-8.563069000">
        <ele>209.800000</ele>
        <time>2020-10-17T14:18:47Z</time>
      </trkpt>
      <trkpt lat="39.669227000" lon="-8.563169000">
        <ele>209.000000</ele>
        <time>2020-10-17T14:18:48Z</time>
      </trkpt>
      <trkpt lat="39.669135000" lon="-8.563267000">
        <ele>208.400000</ele>
        <time>2020-10-17T14:18:49Z</time>
      </trkpt>
      <trkpt lat="39.669040000" lon="-8.563365000">
        <ele>207.800000</ele>
        <time>2020-10-17T14:18:50Z</time>
      </trkpt>
      <trkpt lat="39.668954000" lon="-8.563455000">
        <ele>207.200000</ele>
        <time>2020-10-17T14:18:51Z</time>
      </trkpt>
      <trkpt lat="39.668866000" lon="-8.563540000">
        <ele>206.800000</ele>
        <time>2020-10-17T14:18:52Z</time>
      </trkpt>
      <trkpt lat="39.668786000" lon="-8.563613000">
        <ele>206.000000</ele>
        <time>2020-10-17T14:18:53Z</time>
      </trkpt>
      <trkpt lat="39.668716000" lon="-8.563677000">
        <ele>204.600000</ele>
        <time>2020-10-17T14:18:54Z</time>
      </trkpt>
      <trkpt lat="39.668639000" lon="-8.563746000">
        <ele>202.800000</ele>
        <time>2020-10-17T14:18:55Z</time>
      </trkpt>
      <trkpt lat="39.668556000" lon="-8.563807000">
        <ele>200.800000</ele>
        <time>2020-10-17T14:18:56Z</time>
      </trkpt>
      <trkpt lat="39.668470000" lon="-8.563867000">
        <ele>198.800000</ele>
        <time>2020-10-17T14:18:57Z</time>
      </trkpt>
      <trkpt lat="39.668381000" lon="-8.563932000">
        <ele>196.400000</ele>
        <time>2020-10-17T14:18:58Z</time>
      </trkpt>
      <trkpt lat="39.668288000" lon="-8.564019000">
        <ele>193.800000</ele>
        <time>2020-10-17T14:18:59Z</time>
      </trkpt>
      <trkpt lat="39.668201000" lon="-8.564119000">
        <ele>191.400000</ele>
        <time>2020-10-17T14:19:00Z</time>
      </trkpt>
      <trkpt lat="39.668124000" lon="-8.564234000">
        <ele>189.000000</ele>
        <time>2020-10-17T14:19:01Z</time>
      </trkpt>
      <trkpt lat="39.668053000" lon="-8.564361000">
        <ele>186.600000</ele>
        <time>2020-10-17T14:19:02Z</time>
      </trkpt>
      <trkpt lat="39.667975000" lon="-8.564502000">
        <ele>184.800000</ele>
        <time>2020-10-17T14:19:03Z</time>
      </trkpt>
      <trkpt lat="39.667835000" lon="-8.564784000">
        <ele>182.400000</ele>
        <time>2020-10-17T14:19:05Z</time>
      </trkpt>
      <trkpt lat="39.667756000" lon="-8.564913000">
        <ele>181.000000</ele>
        <time>2020-10-17T14:19:06Z</time>
      </trkpt>
      <trkpt lat="39.667671000" lon="-8.565019000">
        <ele>179.600000</ele>
        <time>2020-10-17T14:19:07Z</time>
      </trkpt>
      <trkpt lat="39.667580000" lon="-8.565095000">
        <ele>179.600000</ele>
        <time>2020-10-17T14:19:08Z</time>
      </trkpt>
      <trkpt lat="39.667484000" lon="-8.565143000">
        <ele>178.000000</ele>
        <time>2020-10-17T14:19:09Z</time>
      </trkpt>
      <trkpt lat="39.667387000" lon="-8.565157000">
        <ele>176.000000</ele>
        <time>2020-10-17T14:19:10Z</time>
      </trkpt>
      <trkpt lat="39.667298000" lon="-8.565145000">
        <ele>173.800000</ele>
        <time>2020-10-17T14:19:11Z</time>
      </trkpt>
      <trkpt lat="39.667217000" lon="-8.565112000">
        <ele>171.600000</ele>
        <time>2020-10-17T14:19:12Z</time>
      </trkpt>
      <trkpt lat="39.667141000" lon="-8.565071000">
        <ele>169.600000</ele>
        <time>2020-10-17T14:19:13Z</time>
      </trkpt>
      <trkpt lat="39.667070000" lon="-8.565026000">
        <ele>168.400000</ele>
        <time>2020-10-17T14:19:14Z</time>
      </trkpt>
      <trkpt lat="39.667006000" lon="-8.564981000">
        <ele>167.800000</ele>
        <time>2020-10-17T14:19:15Z</time>
      </trkpt>
      <trkpt lat="39.666940000" lon="-8.564929000">
        <ele>167.600000</ele>
        <time>2020-10-17T14:19:16Z</time>
      </trkpt>
      <trkpt lat="39.666875000" lon="-8.564883000">
        <ele>167.200000</ele>
        <time>2020-10-17T14:19:17Z</time>
      </trkpt>
      <trkpt lat="39.666814000" lon="-8.564840000">
        <ele>167.200000</ele>
        <time>2020-10-17T14:19:18Z</time>
      </trkpt>
      <trkpt lat="39.666754000" lon="-8.564788000">
        <ele>167.000000</ele>
        <time>2020-10-17T14:19:19Z</time>
      </trkpt>
      <trkpt lat="39.666699000" lon="-8.564747000">
        <ele>167.200000</ele>
        <time>2020-10-17T14:19:20Z</time>
      </trkpt>
      <trkpt lat="39.666648000" lon="-8.564701000">
        <ele>167.000000</ele>
        <time>2020-10-17T14:19:21Z</time>
      </trkpt>
      <trkpt lat="39.666605000" lon="-8.564651000">
        <ele>167.200000</ele>
        <time>2020-10-17T14:19:22Z</time>
      </trkpt>
      <trkpt lat="39.666566000" lon="-8.564602000">
        <ele>167.000000</ele>
        <time>2020-10-17T14:19:23Z</time>
      </trkpt>
      <trkpt lat="39.666530000" lon="-8.564551000">
        <ele>167.200000</ele>
        <time>2020-10-17T14:19:24Z</time>
      </trkpt>
      <trkpt lat="39.666498000" lon="-8.564503000">
        <ele>167.000000</ele>
        <time>2020-10-17T14:19:25Z</time>
      </trkpt>
      <trkpt lat="39.666475000" lon="-8.564464000">
        <ele>167.000000</ele>
        <time>2020-10-17T14:19:26Z</time>
      </trkpt>
      <trkpt lat="39.666445000" lon="-8.564416000">
        <ele>167.200000</ele>
        <time>2020-10-17T14:19:27Z</time>
      </trkpt>
      <trkpt lat="39.666356000" lon="-8.564266000">
        <ele>167.600000</ele>
        <time>2020-10-17T14:19:30Z</time>
      </trkpt>
      <trkpt lat="39.666241000" lon="-8.564033000">
        <ele>168.600000</ele>
        <time>2020-10-17T14:19:34Z</time>
      </trkpt>
      <trkpt lat="39.666193000" lon="-8.563886000">
        <ele>168.800000</ele>
        <time>2020-10-17T14:19:36Z</time>
      </trkpt>
      <trkpt lat="39.666090000" lon="-8.563664000">
        <ele>169.000000</ele>
        <time>2020-10-17T14:19:39Z</time>
      </trkpt>
      <trkpt lat="39.666025000" lon="-8.563596000">
        <ele>169.000000</ele>
        <time>2020-10-17T14:19:40Z</time>
      </trkpt>
      <trkpt lat="39.665967000" lon="-8.563536000">
        <ele>168.800000</ele>
        <time>2020-10-17T14:19:41Z</time>
      </trkpt>
      <trkpt lat="39.665715000" lon="-8.563336000">
        <ele>168.400000</ele>
        <time>2020-10-17T14:19:45Z</time>
      </trkpt>
      <trkpt lat="39.665654000" lon="-8.563292000">
        <ele>168.200000</ele>
        <time>2020-10-17T14:19:46Z</time>
      </trkpt>
      <trkpt lat="39.665594000" lon="-8.563253000">
        <ele>168.200000</ele>
        <time>2020-10-17T14:19:47Z</time>
      </trkpt>
      <trkpt lat="39.665534000" lon="-8.563223000">
        <ele>168.000000</ele>
        <time>2020-10-17T14:19:48Z</time>
      </trkpt>
      <trkpt lat="39.665479000" lon="-8.563197000">
        <ele>168.000000</ele>
        <time>2020-10-17T14:19:49Z</time>
      </trkpt>
      <trkpt lat="39.665429000" lon="-8.563175000">
        <ele>168.000000</ele>
        <time>2020-10-17T14:19:50Z</time>
      </trkpt>
      <trkpt lat="39.665381000" lon="-8.563156000">
        <ele>168.000000</ele>
        <time>2020-10-17T14:19:51Z</time>
      </trkpt>
      <trkpt lat="39.665336000" lon="-8.563142000">
        <ele>168.200000</ele>
        <time>2020-10-17T14:19:52Z</time>
      </trkpt>
      <trkpt lat="39.665290000" lon="-8.563126000">
        <ele>168.000000</ele>
        <time>2020-10-17T14:19:53Z</time>
      </trkpt>
      <trkpt lat="39.665249000" lon="-8.563114000">
        <ele>168.000000</ele>
        <time>2020-10-17T14:19:54Z</time>
      </trkpt>
      <trkpt lat="39.665210000" lon="-8.563102000">
        <ele>168.000000</ele>
        <time>2020-10-17T14:19:55Z</time>
      </trkpt>
      <trkpt lat="39.665170000" lon="-8.563087000">
        <ele>168.200000</ele>
        <time>2020-10-17T14:19:56Z</time>
      </trkpt>
      <trkpt lat="39.665130000" lon="-8.563071000">
        <ele>168.200000</ele>
        <time>2020-10-17T14:19:57Z</time>
      </trkpt>
      <trkpt lat="39.665094000" lon="-8.563054000">
        <ele>168.600000</ele>
        <time>2020-10-17T14:19:58Z</time>
      </trkpt>
      <trkpt lat="39.665061000" lon="-8.563039000">
        <ele>169.000000</ele>
        <time>2020-10-17T14:19:59Z</time>
      </trkpt>
      <trkpt lat="39.665031000" lon="-8.563025000">
        <ele>169.400000</ele>
        <time>2020-10-17T14:20:00Z</time>
      </trkpt>
      <trkpt lat="39.665002000" lon="-8.563009000">
        <ele>169.600000</ele>
        <time>2020-10-17T14:20:01Z</time>
      </trkpt>
      <trkpt lat="39.664976000" lon="-8.562990000">
        <ele>169.800000</ele>
        <time>2020-10-17T14:20:02Z</time>
      </trkpt>
      <trkpt lat="39.664947000" lon="-8.562972000">
        <ele>170.200000</ele>
        <time>2020-10-17T14:20:03Z</time>
      </trkpt>
      <trkpt lat="39.664923000" lon="-8.562958000">
        <ele>170.400000</ele>
        <time>2020-10-17T14:20:04Z</time>
      </trkpt>
      <trkpt lat="39.664898000" lon="-8.562946000">
        <ele>170.600000</ele>
        <time>2020-10-17T14:20:05Z</time>
      </trkpt>
      <trkpt lat="39.664871000" lon="-8.562934000">
        <ele>171.000000</ele>
        <time>2020-10-17T14:20:06Z</time>
      </trkpt>
      <trkpt lat="39.664843000" lon="-8.562922000">
        <ele>171.400000</ele>
        <time>2020-10-17T14:20:07Z</time>
      </trkpt>
      <trkpt lat="39.664816000" lon="-8.562910000">
        <ele>171.800000</ele>
        <time>2020-10-17T14:20:08Z</time>
      </trkpt>
      <trkpt lat="39.664790000" lon="-8.562899000">
        <ele>172.000000</ele>
        <time>2020-10-17T14:20:09Z</time>
      </trkpt>
      <trkpt lat="39.664765000" lon="-8.562889000">
        <ele>172.400000</ele>
        <time>2020-10-17T14:20:10Z</time>
      </trkpt>
      <trkpt lat="39.664742000" lon="-8.562880000">
        <ele>172.400000</ele>
        <time>2020-10-17T14:20:11Z</time>
      </trkpt>
      <trkpt lat="39.664717000" lon="-8.562872000">
        <ele>172.600000</ele>
        <time>2020-10-17T14:20:12Z</time>
      </trkpt>
      <trkpt lat="39.664693000" lon="-8.562867000">
        <ele>173.200000</ele>
        <time>2020-10-17T14:20:13Z</time>
      </trkpt>
      <trkpt lat="39.664666000" lon="-8.562863000">
        <ele>173.400000</ele>
        <time>2020-10-17T14:20:14Z</time>
      </trkpt>
      <trkpt lat="39.664638000" lon="-8.562859000">
        <ele>174.000000</ele>
        <time>2020-10-17T14:20:15Z</time>
      </trkpt>
      <trkpt lat="39.664611000" lon="-8.562858000">
        <ele>174.200000</ele>
        <time>2020-10-17T14:20:16Z</time>
      </trkpt>
      <trkpt lat="39.664585000" lon="-8.562860000">
        <ele>174.600000</ele>
        <time>2020-10-17T14:20:17Z</time>
      </trkpt>
      <trkpt lat="39.664559000" lon="-8.562863000">
        <ele>175.000000</ele>
        <time>2020-10-17T14:20:18Z</time>
      </trkpt>
      <trkpt lat="39.664532000" lon="-8.562868000">
        <ele>175.200000</ele>
        <time>2020-10-17T14:20:19Z</time>
      </trkpt>
      <trkpt lat="39.664506000" lon="-8.562877000">
        <ele>175.600000</ele>
        <time>2020-10-17T14:20:20Z</time>
      </trkpt>
      <trkpt lat="39.664483000" lon="-8.562890000">
        <ele>176.000000</ele>
        <time>2020-10-17T14:20:21Z</time>
      </trkpt>
      <trkpt lat="39.664460000" lon="-8.562902000">
        <ele>176.200000</ele>
        <time>2020-10-17T14:20:22Z</time>
      </trkpt>
      <trkpt lat="39.664438000" lon="-8.562920000">
        <ele>176.800000</ele>
        <time>2020-10-17T14:20:23Z</time>
      </trkpt>
      <trkpt lat="39.664413000" lon="-8.562939000">
        <ele>177.200000</ele>
        <time>2020-10-17T14:20:24Z</time>
      </trkpt>
      <trkpt lat="39.664390000" lon="-8.562958000">
        <ele>177.200000</ele>
        <time>2020-10-17T14:20:25Z</time>
      </trkpt>
      <trkpt lat="39.664369000" lon="-8.562978000">
        <ele>177.600000</ele>
        <time>2020-10-17T14:20:26Z</time>
      </trkpt>
      <trkpt lat="39.664346000" lon="-8.562999000">
        <ele>178.000000</ele>
        <time>2020-10-17T14:20:27Z</time>
      </trkpt>
      <trkpt lat="39.664323000" lon="-8.563021000">
        <ele>178.200000</ele>
        <time>2020-10-17T14:20:28Z</time>
      </trkpt>
      <trkpt lat="39.664299000" lon="-8.563043000">
        <ele>178.400000</ele>
        <time>2020-10-17T14:20:29Z</time>
      </trkpt>
      <trkpt lat="39.664275000" lon="-8.563065000">
        <ele>178.600000</ele>
        <time>2020-10-17T14:20:30Z</time>
      </trkpt>
      <trkpt lat="39.664253000" lon="-8.563085000">
        <ele>178.800000</ele>
        <time>2020-10-17T14:20:31Z</time>
      </trkpt>
      <trkpt lat="39.664229000" lon="-8.563109000">
        <ele>178.800000</ele>
        <time>2020-10-17T14:20:32Z</time>
      </trkpt>
      <trkpt lat="39.664204000" lon="-8.563133000">
        <ele>179.000000</ele>
        <time>2020-10-17T14:20:33Z</time>
      </trkpt>
      <trkpt lat="39.664176000" lon="-8.563160000">
        <ele>179.400000</ele>
        <time>2020-10-17T14:20:34Z</time>
      </trkpt>
      <trkpt lat="39.664147000" lon="-8.563187000">
        <ele>179.600000</ele>
        <time>2020-10-17T14:20:35Z</time>
      </trkpt>
      <trkpt lat="39.664118000" lon="-8.563215000">
        <ele>179.800000</ele>
        <time>2020-10-17T14:20:36Z</time>
      </trkpt>
      <trkpt lat="39.664089000" lon="-8.563243000">
        <ele>180.000000</ele>
        <time>2020-10-17T14:20:37Z</time>
      </trkpt>
      <trkpt lat="39.664059000" lon="-8.563272000">
        <ele>180.200000</ele>
        <time>2020-10-17T14:20:38Z</time>
      </trkpt>
      <trkpt lat="39.664028000" lon="-8.563300000">
        <ele>180.400000</ele>
        <time>2020-10-17T14:20:39Z</time>
      </trkpt>
      <trkpt lat="39.663992000" lon="-8.563330000">
        <ele>180.800000</ele>
        <time>2020-10-17T14:20:40Z</time>
      </trkpt>
      <trkpt lat="39.663957000" lon="-8.563361000">
        <ele>180.800000</ele>
        <time>2020-10-17T14:20:41Z</time>
      </trkpt>
      <trkpt lat="39.663921000" lon="-8.563393000">
        <ele>180.800000</ele>
        <time>2020-10-17T14:20:42Z</time>
      </trkpt>
      <trkpt lat="39.663882000" lon="-8.563425000">
        <ele>181.200000</ele>
        <time>2020-10-17T14:20:43Z</time>
      </trkpt>
      <trkpt lat="39.663840000" lon="-8.563457000">
        <ele>181.200000</ele>
        <time>2020-10-17T14:20:44Z</time>
      </trkpt>
      <trkpt lat="39.663793000" lon="-8.563486000">
        <ele>181.400000</ele>
        <time>2020-10-17T14:20:45Z</time>
      </trkpt>
      <trkpt lat="39.663745000" lon="-8.563509000">
        <ele>181.400000</ele>
        <time>2020-10-17T14:20:46Z</time>
      </trkpt>
      <trkpt lat="39.663695000" lon="-8.563522000">
        <ele>181.400000</ele>
        <time>2020-10-17T14:20:47Z</time>
      </trkpt>
      <trkpt lat="39.663641000" lon="-8.563531000">
        <ele>181.400000</ele>
        <time>2020-10-17T14:20:48Z</time>
      </trkpt>
      <trkpt lat="39.663583000" lon="-8.563529000">
        <ele>181.400000</ele>
        <time>2020-10-17T14:20:49Z</time>
      </trkpt>
      <trkpt lat="39.663527000" lon="-8.563517000">
        <ele>181.400000</ele>
        <time>2020-10-17T14:20:50Z</time>
      </trkpt>
      <trkpt lat="39.663473000" lon="-8.563497000">
        <ele>181.400000</ele>
        <time>2020-10-17T14:20:51Z</time>
      </trkpt>
      <trkpt lat="39.663418000" lon="-8.563468000">
        <ele>181.400000</ele>
        <time>2020-10-17T14:20:52Z</time>
      </trkpt>
      <trkpt lat="39.663364000" lon="-8.563432000">
        <ele>181.400000</ele>
        <time>2020-10-17T14:20:53Z</time>
      </trkpt>
      <trkpt lat="39.663310000" lon="-8.563388000">
        <ele>181.400000</ele>
        <time>2020-10-17T14:20:54Z</time>
      </trkpt>
      <trkpt lat="39.663209000" lon="-8.563295000">
        <ele>181.400000</ele>
        <time>2020-10-17T14:20:56Z</time>
      </trkpt>
      <trkpt lat="39.663159000" lon="-8.563250000">
        <ele>181.200000</ele>
        <time>2020-10-17T14:20:57Z</time>
      </trkpt>
      <trkpt lat="39.662998000" lon="-8.563122000">
        <ele>180.800000</ele>
        <time>2020-10-17T14:21:00Z</time>
      </trkpt>
      <trkpt lat="39.662946000" lon="-8.563088000">
        <ele>180.600000</ele>
        <time>2020-10-17T14:21:01Z</time>
      </trkpt>
      <trkpt lat="39.662885000" lon="-8.563062000">
        <ele>180.400000</ele>
        <time>2020-10-17T14:21:02Z</time>
      </trkpt>
      <trkpt lat="39.662824000" lon="-8.563048000">
        <ele>180.400000</ele>
        <time>2020-10-17T14:21:03Z</time>
      </trkpt>
      <trkpt lat="39.662764000" lon="-8.563047000">
        <ele>180.200000</ele>
        <time>2020-10-17T14:21:04Z</time>
      </trkpt>
      <trkpt lat="39.662707000" lon="-8.563055000">
        <ele>180.000000</ele>
        <time>2020-10-17T14:21:05Z</time>
      </trkpt>
      <trkpt lat="39.662652000" lon="-8.563072000">
        <ele>179.800000</ele>
        <time>2020-10-17T14:21:06Z</time>
      </trkpt>
      <trkpt lat="39.662598000" lon="-8.563092000">
        <ele>180.000000</ele>
        <time>2020-10-17T14:21:07Z</time>
      </trkpt>
      <trkpt lat="39.662492000" lon="-8.563136000">
        <ele>180.000000</ele>
        <time>2020-10-17T14:21:09Z</time>
      </trkpt>
      <trkpt lat="39.662439000" lon="-8.563155000">
        <ele>179.800000</ele>
        <time>2020-10-17T14:21:10Z</time>
      </trkpt>
      <trkpt lat="39.662114000" lon="-8.563255000">
        <ele>179.600000</ele>
        <time>2020-10-17T14:21:15Z</time>
      </trkpt>
      <trkpt lat="39.661895000" lon="-8.563304000">
        <ele>179.600000</ele>
        <time>2020-10-17T14:21:18Z</time>
      </trkpt>
      <trkpt lat="39.661529000" lon="-8.563354000">
        <ele>179.200000</ele>
        <time>2020-10-17T14:21:23Z</time>
      </trkpt>
      <trkpt lat="39.661302000" lon="-8.563381000">
        <ele>178.600000</ele>
        <time>2020-10-17T14:21:26Z</time>
      </trkpt>
      <trkpt lat="39.661230000" lon="-8.563391000">
        <ele>178.400000</ele>
        <time>2020-10-17T14:21:27Z</time>
      </trkpt>
      <trkpt lat="39.661158000" lon="-8.563403000">
        <ele>178.200000</ele>
        <time>2020-10-17T14:21:28Z</time>
      </trkpt>
      <trkpt lat="39.661086000" lon="-8.563415000">
        <ele>178.400000</ele>
        <time>2020-10-17T14:21:29Z</time>
      </trkpt>
      <trkpt lat="39.661015000" lon="-8.563426000">
        <ele>178.200000</ele>
        <time>2020-10-17T14:21:30Z</time>
      </trkpt>
      <trkpt lat="39.660944000" lon="-8.563434000">
        <ele>177.800000</ele>
        <time>2020-10-17T14:21:31Z</time>
      </trkpt>
      <trkpt lat="39.660875000" lon="-8.563446000">
        <ele>177.800000</ele>
        <time>2020-10-17T14:21:32Z</time>
      </trkpt>
      <trkpt lat="39.660807000" lon="-8.563465000">
        <ele>177.600000</ele>
        <time>2020-10-17T14:21:33Z</time>
      </trkpt>
      <trkpt lat="39.660742000" lon="-8.563498000">
        <ele>177.600000</ele>
        <time>2020-10-17T14:21:34Z</time>
      </trkpt>
      <trkpt lat="39.660629000" lon="-8.563596000">
        <ele>177.400000</ele>
        <time>2020-10-17T14:21:36Z</time>
      </trkpt>
      <trkpt lat="39.660580000" lon="-8.563660000">
        <ele>177.400000</ele>
        <time>2020-10-17T14:21:37Z</time>
      </trkpt>
      <trkpt lat="39.660533000" lon="-8.563730000">
        <ele>177.400000</ele>
        <time>2020-10-17T14:21:38Z</time>
      </trkpt>
      <trkpt lat="39.660439000" lon="-8.563882000">
        <ele>177.200000</ele>
        <time>2020-10-17T14:21:40Z</time>
      </trkpt>
      <trkpt lat="39.660385000" lon="-8.563973000">
        <ele>177.200000</ele>
        <time>2020-10-17T14:21:41Z</time>
      </trkpt>
      <trkpt lat="39.660330000" lon="-8.564062000">
        <ele>177.000000</ele>
        <time>2020-10-17T14:21:42Z</time>
      </trkpt>
      <trkpt lat="39.660220000" lon="-8.564240000">
        <ele>177.000000</ele>
        <time>2020-10-17T14:21:44Z</time>
      </trkpt>
      <trkpt lat="39.660170000" lon="-8.564324000">
        <ele>176.600000</ele>
        <time>2020-10-17T14:21:45Z</time>
      </trkpt>
      <trkpt lat="39.660127000" lon="-8.564401000">
        <ele>176.200000</ele>
        <time>2020-10-17T14:21:46Z</time>
      </trkpt>
      <trkpt lat="39.660087000" lon="-8.564473000">
        <ele>175.800000</ele>
        <time>2020-10-17T14:21:47Z</time>
      </trkpt>
      <trkpt lat="39.660054000" lon="-8.564541000">
        <ele>175.600000</ele>
        <time>2020-10-17T14:21:48Z</time>
      </trkpt>
      <trkpt lat="39.660019000" lon="-8.564610000">
        <ele>175.000000</ele>
        <time>2020-10-17T14:21:49Z</time>
      </trkpt>
      <trkpt lat="39.659984000" lon="-8.564681000">
        <ele>174.400000</ele>
        <time>2020-10-17T14:21:50Z</time>
      </trkpt>
      <trkpt lat="39.659946000" lon="-8.564761000">
        <ele>173.800000</ele>
        <time>2020-10-17T14:21:51Z</time>
      </trkpt>
      <trkpt lat="39.659905000" lon="-8.564845000">
        <ele>173.000000</ele>
        <time>2020-10-17T14:21:52Z</time>
      </trkpt>
      <trkpt lat="39.659860000" lon="-8.564946000">
        <ele>172.400000</ele>
        <time>2020-10-17T14:21:53Z</time>
      </trkpt>
      <trkpt lat="39.659809000" lon="-8.565067000">
        <ele>171.600000</ele>
        <time>2020-10-17T14:21:54Z</time>
      </trkpt>
      <trkpt lat="39.659761000" lon="-8.565191000">
        <ele>171.000000</ele>
        <time>2020-10-17T14:21:55Z</time>
      </trkpt>
      <trkpt lat="39.659658000" lon="-8.565455000">
        <ele>170.400000</ele>
        <time>2020-10-17T14:21:57Z</time>
      </trkpt>
      <trkpt lat="39.659596000" lon="-8.565602000">
        <ele>170.000000</ele>
        <time>2020-10-17T14:21:58Z</time>
      </trkpt>
      <trkpt lat="39.659469000" lon="-8.565892000">
        <ele>169.200000</ele>
        <time>2020-10-17T14:22:00Z</time>
      </trkpt>
      <trkpt lat="39.659341000" lon="-8.566162000">
        <ele>167.600000</ele>
        <time>2020-10-17T14:22:02Z</time>
      </trkpt>
      <trkpt lat="39.659280000" lon="-8.566288000">
        <ele>166.200000</ele>
        <time>2020-10-17T14:22:03Z</time>
      </trkpt>
      <trkpt lat="39.659225000" lon="-8.566407000">
        <ele>164.400000</ele>
        <time>2020-10-17T14:22:04Z</time>
      </trkpt>
      <trkpt lat="39.659173000" lon="-8.566523000">
        <ele>162.600000</ele>
        <time>2020-10-17T14:22:05Z</time>
      </trkpt>
      <trkpt lat="39.659128000" lon="-8.566633000">
        <ele>160.600000</ele>
        <time>2020-10-17T14:22:06Z</time>
      </trkpt>
      <trkpt lat="39.659091000" lon="-8.566739000">
        <ele>159.000000</ele>
        <time>2020-10-17T14:22:07Z</time>
      </trkpt>
      <trkpt lat="39.659061000" lon="-8.566846000">
        <ele>158.200000</ele>
        <time>2020-10-17T14:22:08Z</time>
      </trkpt>
      <trkpt lat="39.659032000" lon="-8.566938000">
        <ele>157.600000</ele>
        <time>2020-10-17T14:22:09Z</time>
      </trkpt>
      <trkpt lat="39.659009000" lon="-8.567027000">
        <ele>157.200000</ele>
        <time>2020-10-17T14:22:10Z</time>
      </trkpt>
      <trkpt lat="39.658989000" lon="-8.567110000">
        <ele>157.200000</ele>
        <time>2020-10-17T14:22:11Z</time>
      </trkpt>
      <trkpt lat="39.658973000" lon="-8.567184000">
        <ele>157.200000</ele>
        <time>2020-10-17T14:22:12Z</time>
      </trkpt>
      <trkpt lat="39.658960000" lon="-8.567251000">
        <ele>157.200000</ele>
        <time>2020-10-17T14:22:13Z</time>
      </trkpt>
      <trkpt lat="39.658948000" lon="-8.567311000">
        <ele>157.000000</ele>
        <time>2020-10-17T14:22:14Z</time>
      </trkpt>
      <trkpt lat="39.658943000" lon="-8.567360000">
        <ele>157.000000</ele>
        <time>2020-10-17T14:22:15Z</time>
      </trkpt>
      <trkpt lat="39.658935000" lon="-8.567406000">
        <ele>157.000000</ele>
        <time>2020-10-17T14:22:16Z</time>
      </trkpt>
      <trkpt lat="39.658928000" lon="-8.567447000">
        <ele>157.000000</ele>
        <time>2020-10-17T14:22:17Z</time>
      </trkpt>
      <trkpt lat="39.658922000" lon="-8.567487000">
        <ele>157.000000</ele>
        <time>2020-10-17T14:22:18Z</time>
      </trkpt>
      <trkpt lat="39.658917000" lon="-8.567523000">
        <ele>157.200000</ele>
        <time>2020-10-17T14:22:19Z</time>
      </trkpt>
      <trkpt lat="39.658911000" lon="-8.567554000">
        <ele>157.600000</ele>
        <time>2020-10-17T14:22:20Z</time>
      </trkpt>
      <trkpt lat="39.658906000" lon="-8.567582000">
        <ele>158.000000</ele>
        <time>2020-10-17T14:22:21Z</time>
      </trkpt>
      <trkpt lat="39.658898000" lon="-8.567608000">
        <ele>158.600000</ele>
        <time>2020-10-17T14:22:22Z</time>
      </trkpt>
      <trkpt lat="39.658890000" lon="-8.567633000">
        <ele>159.200000</ele>
        <time>2020-10-17T14:22:23Z</time>
      </trkpt>
      <trkpt lat="39.658883000" lon="-8.567659000">
        <ele>159.600000</ele>
        <time>2020-10-17T14:22:24Z</time>
      </trkpt>
      <trkpt lat="39.658875000" lon="-8.567686000">
        <ele>160.000000</ele>
        <time>2020-10-17T14:22:25Z</time>
      </trkpt>
      <trkpt lat="39.658869000" lon="-8.567711000">
        <ele>160.400000</ele>
        <time>2020-10-17T14:22:26Z</time>
      </trkpt>
      <trkpt lat="39.658863000" lon="-8.567737000">
        <ele>160.800000</ele>
        <time>2020-10-17T14:22:27Z</time>
      </trkpt>
      <trkpt lat="39.658858000" lon="-8.567761000">
        <ele>161.400000</ele>
        <time>2020-10-17T14:22:28Z</time>
      </trkpt>
      <trkpt lat="39.658854000" lon="-8.567784000">
        <ele>161.400000</ele>
        <time>2020-10-17T14:22:29Z</time>
      </trkpt>
      <trkpt lat="39.658849000" lon="-8.567807000">
        <ele>162.000000</ele>
        <time>2020-10-17T14:22:30Z</time>
      </trkpt>
      <trkpt lat="39.658845000" lon="-8.567830000">
        <ele>162.200000</ele>
        <time>2020-10-17T14:22:31Z</time>
      </trkpt>
      <trkpt lat="39.658840000" lon="-8.567856000">
        <ele>162.600000</ele>
        <time>2020-10-17T14:22:32Z</time>
      </trkpt>
      <trkpt lat="39.658835000" lon="-8.567880000">
        <ele>163.000000</ele>
        <time>2020-10-17T14:22:33Z</time>
      </trkpt>
      <trkpt lat="39.658830000" lon="-8.567903000">
        <ele>163.400000</ele>
        <time>2020-10-17T14:22:34Z</time>
      </trkpt>
      <trkpt lat="39.658825000" lon="-8.567927000">
        <ele>163.400000</ele>
        <time>2020-10-17T14:22:35Z</time>
      </trkpt>
      <trkpt lat="39.658820000" lon="-8.567951000">
        <ele>163.800000</ele>
        <time>2020-10-17T14:22:36Z</time>
      </trkpt>
      <trkpt lat="39.658815000" lon="-8.567972000">
        <ele>163.800000</ele>
        <time>2020-10-17T14:22:37Z</time>
      </trkpt>
      <trkpt lat="39.658809000" lon="-8.567990000">
        <ele>163.800000</ele>
        <time>2020-10-17T14:22:38Z</time>
      </trkpt>
      <trkpt lat="39.658804000" lon="-8.568009000">
        <ele>164.200000</ele>
        <time>2020-10-17T14:22:39Z</time>
      </trkpt>
      <trkpt lat="39.658799000" lon="-8.568034000">
        <ele>164.400000</ele>
        <time>2020-10-17T14:22:40Z</time>
      </trkpt>
      <trkpt lat="39.658793000" lon="-8.568059000">
        <ele>164.800000</ele>
        <time>2020-10-17T14:22:41Z</time>
      </trkpt>
      <trkpt lat="39.658790000" lon="-8.568085000">
        <ele>165.200000</ele>
        <time>2020-10-17T14:22:42Z</time>
      </trkpt>
      <trkpt lat="39.658788000" lon="-8.568105000">
        <ele>165.600000</ele>
        <time>2020-10-17T14:22:43Z</time>
      </trkpt>
      <trkpt lat="39.658785000" lon="-8.568126000">
        <ele>165.600000</ele>
        <time>2020-10-17T14:22:44Z</time>
      </trkpt>
      <trkpt lat="39.658780000" lon="-8.568150000">
        <ele>166.200000</ele>
        <time>2020-10-17T14:22:45Z</time>
      </trkpt>
      <trkpt lat="39.658774000" lon="-8.568174000">
        <ele>166.600000</ele>
        <time>2020-10-17T14:22:46Z</time>
      </trkpt>
      <trkpt lat="39.658768000" lon="-8.568196000">
        <ele>167.000000</ele>
        <time>2020-10-17T14:22:47Z</time>
      </trkpt>
      <trkpt lat="39.658762000" lon="-8.568218000">
        <ele>167.200000</ele>
        <time>2020-10-17T14:22:48Z</time>
      </trkpt>
      <trkpt lat="39.658756000" lon="-8.568239000">
        <ele>167.600000</ele>
        <time>2020-10-17T14:22:49Z</time>
      </trkpt>
      <trkpt lat="39.658750000" lon="-8.568261000">
        <ele>168.000000</ele>
        <time>2020-10-17T14:22:50Z</time>
      </trkpt>
      <trkpt lat="39.658744000" lon="-8.568280000">
        <ele>168.200000</ele>
        <time>2020-10-17T14:22:51Z</time>
      </trkpt>
      <trkpt lat="39.658738000" lon="-8.568300000">
        <ele>168.600000</ele>
        <time>2020-10-17T14:22:52Z</time>
      </trkpt>
      <trkpt lat="39.658730000" lon="-8.568315000">
        <ele>168.800000</ele>
        <time>2020-10-17T14:22:53Z</time>
      </trkpt>
      <trkpt lat="39.658721000" lon="-8.568330000">
        <ele>169.000000</ele>
        <time>2020-10-17T14:22:54Z</time>
      </trkpt>
      <trkpt lat="39.658713000" lon="-8.568345000">
        <ele>169.400000</ele>
        <time>2020-10-17T14:22:55Z</time>
      </trkpt>
      <trkpt lat="39.658708000" lon="-8.568366000">
        <ele>169.800000</ele>
        <time>2020-10-17T14:22:56Z</time>
      </trkpt>
      <trkpt lat="39.658702000" lon="-8.568383000">
        <ele>170.000000</ele>
        <time>2020-10-17T14:22:57Z</time>
      </trkpt>
      <trkpt lat="39.658695000" lon="-8.568401000">
        <ele>170.200000</ele>
        <time>2020-10-17T14:22:58Z</time>
      </trkpt>
      <trkpt lat="39.658689000" lon="-8.568420000">
        <ele>170.200000</ele>
        <time>2020-10-17T14:22:59Z</time>
      </trkpt>
      <trkpt lat="39.658683000" lon="-8.568444000">
        <ele>170.400000</ele>
        <time>2020-10-17T14:23:00Z</time>
      </trkpt>
      <trkpt lat="39.658677000" lon="-8.568467000">
        <ele>170.800000</ele>
        <time>2020-10-17T14:23:01Z</time>
      </trkpt>
      <trkpt lat="39.658672000" lon="-8.568490000">
        <ele>170.800000</ele>
        <time>2020-10-17T14:23:02Z</time>
      </trkpt>
      <trkpt lat="39.658666000" lon="-8.568512000">
        <ele>171.400000</ele>
        <time>2020-10-17T14:23:03Z</time>
      </trkpt>
      <trkpt lat="39.658661000" lon="-8.568534000">
        <ele>171.600000</ele>
        <time>2020-10-17T14:23:04Z</time>
      </trkpt>
      <trkpt lat="39.658658000" lon="-8.568557000">
        <ele>171.800000</ele>
        <time>2020-10-17T14:23:05Z</time>
      </trkpt>
      <trkpt lat="39.658654000" lon="-8.568578000">
        <ele>172.400000</ele>
        <time>2020-10-17T14:23:06Z</time>
      </trkpt>
      <trkpt lat="39.658652000" lon="-8.568600000">
        <ele>172.600000</ele>
        <time>2020-10-17T14:23:07Z</time>
      </trkpt>
      <trkpt lat="39.658644000" lon="-8.568620000">
        <ele>172.800000</ele>
        <time>2020-10-17T14:23:08Z</time>
      </trkpt>
      <trkpt lat="39.658636000" lon="-8.568642000">
        <ele>173.200000</ele>
        <time>2020-10-17T14:23:09Z</time>
      </trkpt>
      <trkpt lat="39.658630000" lon="-8.568662000">
        <ele>173.600000</ele>
        <time>2020-10-17T14:23:10Z</time>
      </trkpt>
      <trkpt lat="39.658626000" lon="-8.568682000">
        <ele>173.600000</ele>
        <time>2020-10-17T14:23:11Z</time>
      </trkpt>
      <trkpt lat="39.658618000" lon="-8.568700000">
        <ele>174.000000</ele>
        <time>2020-10-17T14:23:12Z</time>
      </trkpt>
      <trkpt lat="39.658611000" lon="-8.568719000">
        <ele>174.200000</ele>
        <time>2020-10-17T14:23:13Z</time>
      </trkpt>
      <trkpt lat="39.658606000" lon="-8.568740000">
        <ele>174.600000</ele>
        <time>2020-10-17T14:23:14Z</time>
      </trkpt>
      <trkpt lat="39.658602000" lon="-8.568761000">
        <ele>174.800000</ele>
        <time>2020-10-17T14:23:15Z</time>
      </trkpt>
      <trkpt lat="39.658602000" lon="-8.568786000">
        <ele>175.200000</ele>
        <time>2020-10-17T14:23:16Z</time>
      </trkpt>
      <trkpt lat="39.658599000" lon="-8.568810000">
        <ele>175.400000</ele>
        <time>2020-10-17T14:23:17Z</time>
      </trkpt>
      <trkpt lat="39.658595000" lon="-8.568833000">
        <ele>175.800000</ele>
        <time>2020-10-17T14:23:18Z</time>
      </trkpt>
      <trkpt lat="39.658591000" lon="-8.568855000">
        <ele>176.200000</ele>
        <time>2020-10-17T14:23:19Z</time>
      </trkpt>
      <trkpt lat="39.658588000" lon="-8.568878000">
        <ele>176.200000</ele>
        <time>2020-10-17T14:23:20Z</time>
      </trkpt>
      <trkpt lat="39.658587000" lon="-8.568899000">
        <ele>176.600000</ele>
        <time>2020-10-17T14:23:21Z</time>
      </trkpt>
      <trkpt lat="39.658583000" lon="-8.568924000">
        <ele>177.000000</ele>
        <time>2020-10-17T14:23:22Z</time>
      </trkpt>
      <trkpt lat="39.658580000" lon="-8.568948000">
        <ele>177.200000</ele>
        <time>2020-10-17T14:23:23Z</time>
      </trkpt>
      <trkpt lat="39.658576000" lon="-8.568985000">
        <ele>177.400000</ele>
        <time>2020-10-17T14:23:24Z</time>
      </trkpt>
      <trkpt lat="39.658579000" lon="-8.569022000">
        <ele>177.800000</ele>
        <time>2020-10-17T14:23:25Z</time>
      </trkpt>
      <trkpt lat="39.658579000" lon="-8.569052000">
        <ele>178.000000</ele>
        <time>2020-10-17T14:23:26Z</time>
      </trkpt>
      <trkpt lat="39.658577000" lon="-8.569082000">
        <ele>178.200000</ele>
        <time>2020-10-17T14:23:27Z</time>
      </trkpt>
      <trkpt lat="39.658576000" lon="-8.569113000">
        <ele>178.400000</ele>
        <time>2020-10-17T14:23:28Z</time>
      </trkpt>
      <trkpt lat="39.658576000" lon="-8.569149000">
        <ele>178.600000</ele>
        <time>2020-10-17T14:23:29Z</time>
      </trkpt>
      <trkpt lat="39.658575000" lon="-8.569186000">
        <ele>178.800000</ele>
        <time>2020-10-17T14:23:30Z</time>
      </trkpt>
      <trkpt lat="39.658570000" lon="-8.569221000">
        <ele>179.000000</ele>
        <time>2020-10-17T14:23:31Z</time>
      </trkpt>
      <trkpt lat="39.658568000" lon="-8.569258000">
        <ele>179.400000</ele>
        <time>2020-10-17T14:23:32Z</time>
      </trkpt>
      <trkpt lat="39.658565000" lon="-8.569304000">
        <ele>179.600000</ele>
        <time>2020-10-17T14:23:33Z</time>
      </trkpt>
      <trkpt lat="39.658562000" lon="-8.569352000">
        <ele>179.800000</ele>
        <time>2020-10-17T14:23:34Z</time>
      </trkpt>
      <trkpt lat="39.658559000" lon="-8.569399000">
        <ele>180.000000</ele>
        <time>2020-10-17T14:23:35Z</time>
      </trkpt>
      <trkpt lat="39.658560000" lon="-8.569445000">
        <ele>180.200000</ele>
        <time>2020-10-17T14:23:36Z</time>
      </trkpt>
      <trkpt lat="39.658562000" lon="-8.569495000">
        <ele>180.400000</ele>
        <time>2020-10-17T14:23:37Z</time>
      </trkpt>
      <trkpt lat="39.658563000" lon="-8.569543000">
        <ele>180.600000</ele>
        <time>2020-10-17T14:23:38Z</time>
      </trkpt>
      <trkpt lat="39.658565000" lon="-8.569595000">
        <ele>180.400000</ele>
        <time>2020-10-17T14:23:39Z</time>
      </trkpt>
      <trkpt lat="39.658562000" lon="-8.569650000">
        <ele>180.600000</ele>
        <time>2020-10-17T14:23:40Z</time>
      </trkpt>
      <trkpt lat="39.658559000" lon="-8.569705000">
        <ele>180.600000</ele>
        <time>2020-10-17T14:23:41Z</time>
      </trkpt>
      <trkpt lat="39.658557000" lon="-8.569761000">
        <ele>180.600000</ele>
        <time>2020-10-17T14:23:42Z</time>
      </trkpt>
      <trkpt lat="39.658555000" lon="-8.569817000">
        <ele>180.600000</ele>
        <time>2020-10-17T14:23:43Z</time>
      </trkpt>
      <trkpt lat="39.658553000" lon="-8.569874000">
        <ele>180.800000</ele>
        <time>2020-10-17T14:23:44Z</time>
      </trkpt>
      <trkpt lat="39.658552000" lon="-8.569928000">
        <ele>180.600000</ele>
        <time>2020-10-17T14:23:45Z</time>
      </trkpt>
      <trkpt lat="39.658550000" lon="-8.569983000">
        <ele>180.800000</ele>
        <time>2020-10-17T14:23:46Z</time>
      </trkpt>
      <trkpt lat="39.658548000" lon="-8.570040000">
        <ele>180.600000</ele>
        <time>2020-10-17T14:23:47Z</time>
      </trkpt>
      <trkpt lat="39.658539000" lon="-8.570220000">
        <ele>180.800000</ele>
        <time>2020-10-17T14:23:50Z</time>
      </trkpt>
      <trkpt lat="39.658548000" lon="-8.570528000">
        <ele>181.000000</ele>
        <time>2020-10-17T14:23:55Z</time>
      </trkpt>
      <trkpt lat="39.658568000" lon="-8.570650000">
        <ele>181.000000</ele>
        <time>2020-10-17T14:23:57Z</time>
      </trkpt>
      <trkpt lat="39.658599000" lon="-8.570769000">
        <ele>181.000000</ele>
        <time>2020-10-17T14:23:59Z</time>
      </trkpt>
      <trkpt lat="39.658652000" lon="-8.570941000">
        <ele>181.200000</ele>
        <time>2020-10-17T14:24:02Z</time>
      </trkpt>
      <trkpt lat="39.658694000" lon="-8.571054000">
        <ele>181.200000</ele>
        <time>2020-10-17T14:24:04Z</time>
      </trkpt>
      <trkpt lat="39.658723000" lon="-8.571106000">
        <ele>181.200000</ele>
        <time>2020-10-17T14:24:05Z</time>
      </trkpt>
      <trkpt lat="39.658759000" lon="-8.571150000">
        <ele>181.400000</ele>
        <time>2020-10-17T14:24:06Z</time>
      </trkpt>
      <trkpt lat="39.658796000" lon="-8.571193000">
        <ele>181.400000</ele>
        <time>2020-10-17T14:24:07Z</time>
      </trkpt>
      <trkpt lat="39.658836000" lon="-8.571233000">
        <ele>181.200000</ele>
        <time>2020-10-17T14:24:08Z</time>
      </trkpt>
      <trkpt lat="39.659014000" lon="-8.571354000">
        <ele>182.000000</ele>
        <time>2020-10-17T14:24:12Z</time>
      </trkpt>
      <trkpt lat="39.659056000" lon="-8.571381000">
        <ele>182.000000</ele>
        <time>2020-10-17T14:24:13Z</time>
      </trkpt>
      <trkpt lat="39.659104000" lon="-8.571407000">
        <ele>182.200000</ele>
        <time>2020-10-17T14:24:14Z</time>
      </trkpt>
      <trkpt lat="39.659193000" lon="-8.571467000">
        <ele>182.600000</ele>
        <time>2020-10-17T14:24:16Z</time>
      </trkpt>
      <trkpt lat="39.659220000" lon="-8.571522000">
        <ele>182.600000</ele>
        <time>2020-10-17T14:24:17Z</time>
      </trkpt>
      <trkpt lat="39.659235000" lon="-8.571577000">
        <ele>182.800000</ele>
        <time>2020-10-17T14:24:18Z</time>
      </trkpt>
      <trkpt lat="39.659194000" lon="-8.571701000">
        <ele>182.800000</ele>
        <time>2020-10-17T14:24:20Z</time>
      </trkpt>
      <trkpt lat="39.659156000" lon="-8.571765000">
        <ele>183.000000</ele>
        <time>2020-10-17T14:24:21Z</time>
      </trkpt>
      <trkpt lat="39.659118000" lon="-8.571845000">
        <ele>183.000000</ele>
        <time>2020-10-17T14:24:22Z</time>
      </trkpt>
      <trkpt lat="39.659083000" lon="-8.571927000">
        <ele>183.000000</ele>
        <time>2020-10-17T14:24:23Z</time>
      </trkpt>
      <trkpt lat="39.659010000" lon="-8.572104000">
        <ele>183.000000</ele>
        <time>2020-10-17T14:24:25Z</time>
      </trkpt>
      <trkpt lat="39.658921000" lon="-8.572296000">
        <ele>182.800000</ele>
        <time>2020-10-17T14:24:27Z</time>
      </trkpt>
      <trkpt lat="39.658771000" lon="-8.572593000">
        <ele>181.800000</ele>
        <time>2020-10-17T14:24:30Z</time>
      </trkpt>
      <trkpt lat="39.658717000" lon="-8.572691000">
        <ele>181.000000</ele>
        <time>2020-10-17T14:24:31Z</time>
      </trkpt>
      <trkpt lat="39.658663000" lon="-8.572784000">
        <ele>180.400000</ele>
        <time>2020-10-17T14:24:32Z</time>
      </trkpt>
      <trkpt lat="39.658564000" lon="-8.572971000">
        <ele>180.000000</ele>
        <time>2020-10-17T14:24:34Z</time>
      </trkpt>
      <trkpt lat="39.658516000" lon="-8.573060000">
        <ele>179.600000</ele>
        <time>2020-10-17T14:24:35Z</time>
      </trkpt>
      <trkpt lat="39.658466000" lon="-8.573146000">
        <ele>179.000000</ele>
        <time>2020-10-17T14:24:36Z</time>
      </trkpt>
      <trkpt lat="39.658410000" lon="-8.573222000">
        <ele>178.800000</ele>
        <time>2020-10-17T14:24:37Z</time>
      </trkpt>
      <trkpt lat="39.658346000" lon="-8.573287000">
        <ele>178.400000</ele>
        <time>2020-10-17T14:24:38Z</time>
      </trkpt>
      <trkpt lat="39.658275000" lon="-8.573341000">
        <ele>178.200000</ele>
        <time>2020-10-17T14:24:39Z</time>
      </trkpt>
      <trkpt lat="39.658203000" lon="-8.573384000">
        <ele>177.800000</ele>
        <time>2020-10-17T14:24:40Z</time>
      </trkpt>
      <trkpt lat="39.658123000" lon="-8.573415000">
        <ele>177.600000</ele>
        <time>2020-10-17T14:24:41Z</time>
      </trkpt>
      <trkpt lat="39.657954000" lon="-8.573471000">
        <ele>177.200000</ele>
        <time>2020-10-17T14:24:43Z</time>
      </trkpt>
      <trkpt lat="39.657872000" lon="-8.573495000">
        <ele>177.000000</ele>
        <time>2020-10-17T14:24:44Z</time>
      </trkpt>
      <trkpt lat="39.657795000" lon="-8.573513000">
        <ele>177.000000</ele>
        <time>2020-10-17T14:24:45Z</time>
      </trkpt>
      <trkpt lat="39.657728000" lon="-8.573529000">
        <ele>177.000000</ele>
        <time>2020-10-17T14:24:46Z</time>
      </trkpt>
      <trkpt lat="39.657668000" lon="-8.573543000">
        <ele>176.600000</ele>
        <time>2020-10-17T14:24:47Z</time>
      </trkpt>
      <trkpt lat="39.657620000" lon="-8.573554000">
        <ele>176.400000</ele>
        <time>2020-10-17T14:24:48Z</time>
      </trkpt>
      <trkpt lat="39.657583000" lon="-8.573562000">
        <ele>176.200000</ele>
        <time>2020-10-17T14:24:49Z</time>
      </trkpt>
      <trkpt lat="39.657557000" lon="-8.573568000">
        <ele>175.800000</ele>
        <time>2020-10-17T14:24:50Z</time>
      </trkpt>
      <trkpt lat="39.657544000" lon="-8.573568000">
        <ele>175.600000</ele>
        <time>2020-10-17T14:24:51Z</time>
      </trkpt>
      <trkpt lat="39.657545000" lon="-8.573569000">
        <ele>175.200000</ele>
        <time>2020-10-17T14:24:52Z</time>
      </trkpt>
      <trkpt lat="39.657549000" lon="-8.573574000">
        <ele>174.000000</ele>
        <time>2020-10-17T14:24:54Z</time>
      </trkpt>
      <trkpt lat="39.657543000" lon="-8.573578000">
        <ele>173.600000</ele>
        <time>2020-10-17T14:24:55Z</time>
      </trkpt>
      <trkpt lat="39.657526000" lon="-8.573577000">
        <ele>172.800000</ele>
        <time>2020-10-17T14:24:56Z</time>
      </trkpt>
      <trkpt lat="39.657454000" lon="-8.573612000">
        <ele>171.800000</ele>
        <time>2020-10-17T14:24:59Z</time>
      </trkpt>
      <trkpt lat="39.657410000" lon="-8.573688000">
        <ele>171.400000</ele>
        <time>2020-10-17T14:25:01Z</time>
      </trkpt>
      <trkpt lat="39.657393000" lon="-8.573732000">
        <ele>171.400000</ele>
        <time>2020-10-17T14:25:02Z</time>
      </trkpt>
      <trkpt lat="39.657380000" lon="-8.573781000">
        <ele>171.200000</ele>
        <time>2020-10-17T14:25:03Z</time>
      </trkpt>
      <trkpt lat="39.657372000" lon="-8.573833000">
        <ele>171.200000</ele>
        <time>2020-10-17T14:25:04Z</time>
      </trkpt>
      <trkpt lat="39.657362000" lon="-8.573886000">
        <ele>171.200000</ele>
        <time>2020-10-17T14:25:05Z</time>
      </trkpt>
      <trkpt lat="39.657293000" lon="-8.574195000">
        <ele>171.000000</ele>
        <time>2020-10-17T14:25:10Z</time>
      </trkpt>
      <trkpt lat="39.657223000" lon="-8.574684000">
        <ele>170.200000</ele>
        <time>2020-10-17T14:25:16Z</time>
      </trkpt>
      <trkpt lat="39.657211000" lon="-8.574769000">
        <ele>170.200000</ele>
        <time>2020-10-17T14:25:17Z</time>
      </trkpt>
      <trkpt lat="39.657187000" lon="-8.574934000">
        <ele>170.000000</ele>
        <time>2020-10-17T14:25:19Z</time>
      </trkpt>
      <trkpt lat="39.657167000" lon="-8.575109000">
        <ele>169.800000</ele>
        <time>2020-10-17T14:25:21Z</time>
      </trkpt>
      <trkpt lat="39.657155000" lon="-8.575193000">
        <ele>169.800000</ele>
        <time>2020-10-17T14:25:22Z</time>
      </trkpt>
      <trkpt lat="39.657130000" lon="-8.575360000">
        <ele>169.600000</ele>
        <time>2020-10-17T14:25:24Z</time>
      </trkpt>
      <trkpt lat="39.657120000" lon="-8.575438000">
        <ele>169.600000</ele>
        <time>2020-10-17T14:25:25Z</time>
      </trkpt>
      <trkpt lat="39.657057000" lon="-8.575744000">
        <ele>169.200000</ele>
        <time>2020-10-17T14:25:29Z</time>
      </trkpt>
      <trkpt lat="39.657048000" lon="-8.575820000">
        <ele>169.200000</ele>
        <time>2020-10-17T14:25:30Z</time>
      </trkpt>
      <trkpt lat="39.657038000" lon="-8.575894000">
        <ele>169.000000</ele>
        <time>2020-10-17T14:25:31Z</time>
      </trkpt>
      <trkpt lat="39.657024000" lon="-8.575969000">
        <ele>168.800000</ele>
        <time>2020-10-17T14:25:32Z</time>
      </trkpt>
      <trkpt lat="39.656992000" lon="-8.576221000">
        <ele>168.800000</ele>
        <time>2020-10-17T14:25:35Z</time>
      </trkpt>
      <trkpt lat="39.656987000" lon="-8.576403000">
        <ele>168.800000</ele>
        <time>2020-10-17T14:25:37Z</time>
      </trkpt>
      <trkpt lat="39.656980000" lon="-8.576487000">
        <ele>168.800000</ele>
        <time>2020-10-17T14:25:38Z</time>
      </trkpt>
      <trkpt lat="39.656951000" lon="-8.576937000">
        <ele>168.400000</ele>
        <time>2020-10-17T14:25:43Z</time>
      </trkpt>
      <trkpt lat="39.656946000" lon="-8.577017000">
        <ele>168.600000</ele>
        <time>2020-10-17T14:25:44Z</time>
      </trkpt>
      <trkpt lat="39.656941000" lon="-8.577100000">
        <ele>168.400000</ele>
        <time>2020-10-17T14:25:45Z</time>
      </trkpt>
      <trkpt lat="39.656938000" lon="-8.577181000">
        <ele>168.400000</ele>
        <time>2020-10-17T14:25:46Z</time>
      </trkpt>
      <trkpt lat="39.656935000" lon="-8.577257000">
        <ele>168.200000</ele>
        <time>2020-10-17T14:25:47Z</time>
      </trkpt>
      <trkpt lat="39.656917000" lon="-8.577319000">
        <ele>168.200000</ele>
        <time>2020-10-17T14:25:48Z</time>
      </trkpt>
      <trkpt lat="39.656913000" lon="-8.577386000">
        <ele>168.400000</ele>
        <time>2020-10-17T14:25:49Z</time>
      </trkpt>
      <trkpt lat="39.656915000" lon="-8.577455000">
        <ele>168.400000</ele>
        <time>2020-10-17T14:25:50Z</time>
      </trkpt>
      <trkpt lat="39.656913000" lon="-8.577523000">
        <ele>168.400000</ele>
        <time>2020-10-17T14:25:51Z</time>
      </trkpt>
      <trkpt lat="39.656902000" lon="-8.577789000">
        <ele>168.200000</ele>
        <time>2020-10-17T14:25:55Z</time>
      </trkpt>
      <trkpt lat="39.656891000" lon="-8.577850000">
        <ele>168.200000</ele>
        <time>2020-10-17T14:25:56Z</time>
      </trkpt>
      <trkpt lat="39.656882000" lon="-8.577912000">
        <ele>168.000000</ele>
        <time>2020-10-17T14:25:57Z</time>
      </trkpt>
      <trkpt lat="39.656874000" lon="-8.577974000">
        <ele>168.000000</ele>
        <time>2020-10-17T14:25:58Z</time>
      </trkpt>
      <trkpt lat="39.656870000" lon="-8.578102000">
        <ele>168.200000</ele>
        <time>2020-10-17T14:26:00Z</time>
      </trkpt>
      <trkpt lat="39.656878000" lon="-8.578169000">
        <ele>168.000000</ele>
        <time>2020-10-17T14:26:01Z</time>
      </trkpt>
      <trkpt lat="39.656896000" lon="-8.578316000">
        <ele>168.000000</ele>
        <time>2020-10-17T14:26:03Z</time>
      </trkpt>
      <trkpt lat="39.656902000" lon="-8.578402000">
        <ele>168.000000</ele>
        <time>2020-10-17T14:26:04Z</time>
      </trkpt>
      <trkpt lat="39.656882000" lon="-8.578672000">
        <ele>168.000000</ele>
        <time>2020-10-17T14:26:07Z</time>
      </trkpt>
      <trkpt lat="39.656850000" lon="-8.579074000">
        <ele>168.000000</ele>
        <time>2020-10-17T14:26:12Z</time>
      </trkpt>
      <trkpt lat="39.656843000" lon="-8.579158000">
        <ele>168.200000</ele>
        <time>2020-10-17T14:26:13Z</time>
      </trkpt>
      <trkpt lat="39.656839000" lon="-8.579242000">
        <ele>168.000000</ele>
        <time>2020-10-17T14:26:14Z</time>
      </trkpt>
      <trkpt lat="39.656835000" lon="-8.579326000">
        <ele>168.000000</ele>
        <time>2020-10-17T14:26:15Z</time>
      </trkpt>
      <trkpt lat="39.656829000" lon="-8.579410000">
        <ele>168.000000</ele>
        <time>2020-10-17T14:26:16Z</time>
      </trkpt>
      <trkpt lat="39.656822000" lon="-8.579494000">
        <ele>168.200000</ele>
        <time>2020-10-17T14:26:17Z</time>
      </trkpt>
      <trkpt lat="39.656801000" lon="-8.579841000">
        <ele>168.400000</ele>
        <time>2020-10-17T14:26:21Z</time>
      </trkpt>
      <trkpt lat="39.656790000" lon="-8.580112000">
        <ele>168.400000</ele>
        <time>2020-10-17T14:26:24Z</time>
      </trkpt>
      <trkpt lat="39.656759000" lon="-8.580878000">
        <ele>168.400000</ele>
        <time>2020-10-17T14:26:32Z</time>
      </trkpt>
      <trkpt lat="39.656752000" lon="-8.581075000">
        <ele>168.200000</ele>
        <time>2020-10-17T14:26:34Z</time>
      </trkpt>
      <trkpt lat="39.656748000" lon="-8.581169000">
        <ele>168.200000</ele>
        <time>2020-10-17T14:26:35Z</time>
      </trkpt>
      <trkpt lat="39.656748000" lon="-8.581267000">
        <ele>168.200000</ele>
        <time>2020-10-17T14:26:36Z</time>
      </trkpt>
      <trkpt lat="39.656747000" lon="-8.581361000">
        <ele>168.000000</ele>
        <time>2020-10-17T14:26:37Z</time>
      </trkpt>
      <trkpt lat="39.656742000" lon="-8.581456000">
        <ele>168.000000</ele>
        <time>2020-10-17T14:26:38Z</time>
      </trkpt>
      <trkpt lat="39.656738000" lon="-8.581554000">
        <ele>168.000000</ele>
        <time>2020-10-17T14:26:39Z</time>
      </trkpt>
      <trkpt lat="39.656734000" lon="-8.581644000">
        <ele>168.000000</ele>
        <time>2020-10-17T14:26:40Z</time>
      </trkpt>
      <trkpt lat="39.656727000" lon="-8.581720000">
        <ele>167.800000</ele>
        <time>2020-10-17T14:26:41Z</time>
      </trkpt>
      <trkpt lat="39.656725000" lon="-8.581786000">
        <ele>167.600000</ele>
        <time>2020-10-17T14:26:42Z</time>
      </trkpt>
      <trkpt lat="39.656721000" lon="-8.581838000">
        <ele>167.600000</ele>
        <time>2020-10-17T14:26:43Z</time>
      </trkpt>
      <trkpt lat="39.656722000" lon="-8.581891000">
        <ele>167.600000</ele>
        <time>2020-10-17T14:26:44Z</time>
      </trkpt>
      <trkpt lat="39.656721000" lon="-8.581943000">
        <ele>167.400000</ele>
        <time>2020-10-17T14:26:45Z</time>
      </trkpt>
      <trkpt lat="39.656723000" lon="-8.581998000">
        <ele>167.000000</ele>
        <time>2020-10-17T14:26:46Z</time>
      </trkpt>
      <trkpt lat="39.656694000" lon="-8.582248000">
        <ele>166.400000</ele>
        <time>2020-10-17T14:26:50Z</time>
      </trkpt>
      <trkpt lat="39.656692000" lon="-8.582406000">
        <ele>166.200000</ele>
        <time>2020-10-17T14:26:52Z</time>
      </trkpt>
      <trkpt lat="39.656702000" lon="-8.582494000">
        <ele>166.200000</ele>
        <time>2020-10-17T14:26:53Z</time>
      </trkpt>
      <trkpt lat="39.656714000" lon="-8.582582000">
        <ele>165.800000</ele>
        <time>2020-10-17T14:26:54Z</time>
      </trkpt>
      <trkpt lat="39.656730000" lon="-8.582671000">
        <ele>165.800000</ele>
        <time>2020-10-17T14:26:55Z</time>
      </trkpt>
      <trkpt lat="39.656832000" lon="-8.583114000">
        <ele>165.000000</ele>
        <time>2020-10-17T14:27:00Z</time>
      </trkpt>
      <trkpt lat="39.656854000" lon="-8.583205000">
        <ele>164.800000</ele>
        <time>2020-10-17T14:27:01Z</time>
      </trkpt>
      <trkpt lat="39.656999000" lon="-8.583674000">
        <ele>164.000000</ele>
        <time>2020-10-17T14:27:06Z</time>
      </trkpt>
      <trkpt lat="39.657038000" lon="-8.583760000">
        <ele>164.000000</ele>
        <time>2020-10-17T14:27:07Z</time>
      </trkpt>
      <trkpt lat="39.657164000" lon="-8.584012000">
        <ele>163.800000</ele>
        <time>2020-10-17T14:27:10Z</time>
      </trkpt>
      <trkpt lat="39.657205000" lon="-8.584093000">
        <ele>163.600000</ele>
        <time>2020-10-17T14:27:11Z</time>
      </trkpt>
      <trkpt lat="39.657251000" lon="-8.584164000">
        <ele>163.600000</ele>
        <time>2020-10-17T14:27:12Z</time>
      </trkpt>
      <trkpt lat="39.657294000" lon="-8.584236000">
        <ele>163.600000</ele>
        <time>2020-10-17T14:27:13Z</time>
      </trkpt>
      <trkpt lat="39.657334000" lon="-8.584306000">
        <ele>163.400000</ele>
        <time>2020-10-17T14:27:14Z</time>
      </trkpt>
      <trkpt lat="39.657363000" lon="-8.584381000">
        <ele>163.400000</ele>
        <time>2020-10-17T14:27:15Z</time>
      </trkpt>
      <trkpt lat="39.657376000" lon="-8.584460000">
        <ele>163.200000</ele>
        <time>2020-10-17T14:27:16Z</time>
      </trkpt>
      <trkpt lat="39.657373000" lon="-8.584540000">
        <ele>163.000000</ele>
        <time>2020-10-17T14:27:17Z</time>
      </trkpt>
      <trkpt lat="39.657353000" lon="-8.584616000">
        <ele>162.800000</ele>
        <time>2020-10-17T14:27:18Z</time>
      </trkpt>
      <trkpt lat="39.657317000" lon="-8.584674000">
        <ele>162.800000</ele>
        <time>2020-10-17T14:27:19Z</time>
      </trkpt>
      <trkpt lat="39.657269000" lon="-8.584726000">
        <ele>162.600000</ele>
        <time>2020-10-17T14:27:20Z</time>
      </trkpt>
      <trkpt lat="39.657217000" lon="-8.584770000">
        <ele>162.800000</ele>
        <time>2020-10-17T14:27:21Z</time>
      </trkpt>
      <trkpt lat="39.657161000" lon="-8.584808000">
        <ele>162.600000</ele>
        <time>2020-10-17T14:27:22Z</time>
      </trkpt>
      <trkpt lat="39.657104000" lon="-8.584847000">
        <ele>162.400000</ele>
        <time>2020-10-17T14:27:23Z</time>
      </trkpt>
      <trkpt lat="39.656991000" lon="-8.584916000">
        <ele>162.400000</ele>
        <time>2020-10-17T14:27:25Z</time>
      </trkpt>
      <trkpt lat="39.656935000" lon="-8.584947000">
        <ele>162.600000</ele>
        <time>2020-10-17T14:27:26Z</time>
      </trkpt>
      <trkpt lat="39.656878000" lon="-8.584978000">
        <ele>162.600000</ele>
        <time>2020-10-17T14:27:27Z</time>
      </trkpt>
      <trkpt lat="39.656763000" lon="-8.585041000">
        <ele>162.600000</ele>
        <time>2020-10-17T14:27:29Z</time>
      </trkpt>
      <trkpt lat="39.656640000" lon="-8.585111000">
        <ele>162.600000</ele>
        <time>2020-10-17T14:27:31Z</time>
      </trkpt>
      <trkpt lat="39.656582000" lon="-8.585143000">
        <ele>162.600000</ele>
        <time>2020-10-17T14:27:32Z</time>
      </trkpt>
      <trkpt lat="39.656459000" lon="-8.585225000">
        <ele>162.800000</ele>
        <time>2020-10-17T14:27:34Z</time>
      </trkpt>
      <trkpt lat="39.656289000" lon="-8.585399000">
        <ele>163.200000</ele>
        <time>2020-10-17T14:27:37Z</time>
      </trkpt>
      <trkpt lat="39.656120000" lon="-8.585618000">
        <ele>163.600000</ele>
        <time>2020-10-17T14:27:40Z</time>
      </trkpt>
      <trkpt lat="39.656010000" lon="-8.585784000">
        <ele>163.800000</ele>
        <time>2020-10-17T14:27:42Z</time>
      </trkpt>
      <trkpt lat="39.655856000" lon="-8.586048000">
        <ele>163.800000</ele>
        <time>2020-10-17T14:27:45Z</time>
      </trkpt>
      <trkpt lat="39.655810000" lon="-8.586136000">
        <ele>163.800000</ele>
        <time>2020-10-17T14:27:46Z</time>
      </trkpt>
      <trkpt lat="39.655766000" lon="-8.586224000">
        <ele>164.000000</ele>
        <time>2020-10-17T14:27:47Z</time>
      </trkpt>
      <trkpt lat="39.655723000" lon="-8.586312000">
        <ele>164.000000</ele>
        <time>2020-10-17T14:27:48Z</time>
      </trkpt>
      <trkpt lat="39.655681000" lon="-8.586407000">
        <ele>163.800000</ele>
        <time>2020-10-17T14:27:49Z</time>
      </trkpt>
      <trkpt lat="39.655639000" lon="-8.586501000">
        <ele>164.000000</ele>
        <time>2020-10-17T14:27:50Z</time>
      </trkpt>
      <trkpt lat="39.655454000" lon="-8.586987000">
        <ele>163.800000</ele>
        <time>2020-10-17T14:27:55Z</time>
      </trkpt>
      <trkpt lat="39.655417000" lon="-8.587079000">
        <ele>163.800000</ele>
        <time>2020-10-17T14:27:56Z</time>
      </trkpt>
      <trkpt lat="39.655382000" lon="-8.587170000">
        <ele>163.800000</ele>
        <time>2020-10-17T14:27:57Z</time>
      </trkpt>
      <trkpt lat="39.655349000" lon="-8.587260000">
        <ele>163.800000</ele>
        <time>2020-10-17T14:27:58Z</time>
      </trkpt>
      <trkpt lat="39.655223000" lon="-8.587645000">
        <ele>163.800000</ele>
        <time>2020-10-17T14:28:02Z</time>
      </trkpt>
      <trkpt lat="39.655126000" lon="-8.588083000">
        <ele>163.800000</ele>
        <time>2020-10-17T14:28:06Z</time>
      </trkpt>
      <trkpt lat="39.655086000" lon="-8.588312000">
        <ele>163.600000</ele>
        <time>2020-10-17T14:28:08Z</time>
      </trkpt>
      <trkpt lat="39.655036000" lon="-8.588551000">
        <ele>163.200000</ele>
        <time>2020-10-17T14:28:10Z</time>
      </trkpt>
      <trkpt lat="39.654947000" lon="-8.588908000">
        <ele>162.000000</ele>
        <time>2020-10-17T14:28:13Z</time>
      </trkpt>
      <trkpt lat="39.654909000" lon="-8.589029000">
        <ele>161.800000</ele>
        <time>2020-10-17T14:28:14Z</time>
      </trkpt>
      <trkpt lat="39.654826000" lon="-8.589255000">
        <ele>161.200000</ele>
        <time>2020-10-17T14:28:16Z</time>
      </trkpt>
      <trkpt lat="39.654784000" lon="-8.589364000">
        <ele>160.800000</ele>
        <time>2020-10-17T14:28:17Z</time>
      </trkpt>
      <trkpt lat="39.654740000" lon="-8.589475000">
        <ele>160.400000</ele>
        <time>2020-10-17T14:28:18Z</time>
      </trkpt>
      <trkpt lat="39.654695000" lon="-8.589582000">
        <ele>160.200000</ele>
        <time>2020-10-17T14:28:19Z</time>
      </trkpt>
      <trkpt lat="39.654652000" lon="-8.589690000">
        <ele>159.600000</ele>
        <time>2020-10-17T14:28:20Z</time>
      </trkpt>
      <trkpt lat="39.654608000" lon="-8.589793000">
        <ele>159.000000</ele>
        <time>2020-10-17T14:28:21Z</time>
      </trkpt>
      <trkpt lat="39.654564000" lon="-8.589893000">
        <ele>158.600000</ele>
        <time>2020-10-17T14:28:22Z</time>
      </trkpt>
      <trkpt lat="39.654526000" lon="-8.589993000">
        <ele>158.200000</ele>
        <time>2020-10-17T14:28:23Z</time>
      </trkpt>
      <trkpt lat="39.654493000" lon="-8.590094000">
        <ele>158.000000</ele>
        <time>2020-10-17T14:28:24Z</time>
      </trkpt>
      <trkpt lat="39.654466000" lon="-8.590192000">
        <ele>157.600000</ele>
        <time>2020-10-17T14:28:25Z</time>
      </trkpt>
      <trkpt lat="39.654446000" lon="-8.590291000">
        <ele>157.000000</ele>
        <time>2020-10-17T14:28:26Z</time>
      </trkpt>
      <trkpt lat="39.654433000" lon="-8.590390000">
        <ele>156.800000</ele>
        <time>2020-10-17T14:28:27Z</time>
      </trkpt>
      <trkpt lat="39.654429000" lon="-8.590486000">
        <ele>156.600000</ele>
        <time>2020-10-17T14:28:28Z</time>
      </trkpt>
      <trkpt lat="39.654432000" lon="-8.590679000">
        <ele>156.400000</ele>
        <time>2020-10-17T14:28:30Z</time>
      </trkpt>
      <trkpt lat="39.654436000" lon="-8.590775000">
        <ele>156.200000</ele>
        <time>2020-10-17T14:28:31Z</time>
      </trkpt>
      <trkpt lat="39.654438000" lon="-8.590871000">
        <ele>156.400000</ele>
        <time>2020-10-17T14:28:32Z</time>
      </trkpt>
      <trkpt lat="39.654414000" lon="-8.591152000">
        <ele>156.400000</ele>
        <time>2020-10-17T14:28:35Z</time>
      </trkpt>
      <trkpt lat="39.654392000" lon="-8.591242000">
        <ele>156.400000</ele>
        <time>2020-10-17T14:28:36Z</time>
      </trkpt>
      <trkpt lat="39.654337000" lon="-8.591413000">
        <ele>156.400000</ele>
        <time>2020-10-17T14:28:38Z</time>
      </trkpt>
      <trkpt lat="39.654304000" lon="-8.591495000">
        <ele>156.400000</ele>
        <time>2020-10-17T14:28:39Z</time>
      </trkpt>
      <trkpt lat="39.654276000" lon="-8.591573000">
        <ele>156.400000</ele>
        <time>2020-10-17T14:28:40Z</time>
      </trkpt>
      <trkpt lat="39.654259000" lon="-8.591651000">
        <ele>156.800000</ele>
        <time>2020-10-17T14:28:41Z</time>
      </trkpt>
      <trkpt lat="39.654260000" lon="-8.591723000">
        <ele>157.000000</ele>
        <time>2020-10-17T14:28:42Z</time>
      </trkpt>
      <trkpt lat="39.654260000" lon="-8.591797000">
        <ele>157.200000</ele>
        <time>2020-10-17T14:28:43Z</time>
      </trkpt>
      <trkpt lat="39.654252000" lon="-8.591866000">
        <ele>157.400000</ele>
        <time>2020-10-17T14:28:44Z</time>
      </trkpt>
      <trkpt lat="39.654235000" lon="-8.591928000">
        <ele>157.400000</ele>
        <time>2020-10-17T14:28:45Z</time>
      </trkpt>
      <trkpt lat="39.654197000" lon="-8.591959000">
        <ele>157.600000</ele>
        <time>2020-10-17T14:28:46Z</time>
      </trkpt>
      <trkpt lat="39.654147000" lon="-8.591968000">
        <ele>157.800000</ele>
        <time>2020-10-17T14:28:47Z</time>
      </trkpt>
      <trkpt lat="39.654097000" lon="-8.591960000">
        <ele>157.800000</ele>
        <time>2020-10-17T14:28:48Z</time>
      </trkpt>
      <trkpt lat="39.653984000" lon="-8.591925000">
        <ele>158.000000</ele>
        <time>2020-10-17T14:28:50Z</time>
      </trkpt>
      <trkpt lat="39.653853000" lon="-8.591938000">
        <ele>158.000000</ele>
        <time>2020-10-17T14:28:52Z</time>
      </trkpt>
      <trkpt lat="39.653798000" lon="-8.591970000">
        <ele>158.000000</ele>
        <time>2020-10-17T14:28:53Z</time>
      </trkpt>
      <trkpt lat="39.653754000" lon="-8.592006000">
        <ele>157.800000</ele>
        <time>2020-10-17T14:28:54Z</time>
      </trkpt>
      <trkpt lat="39.653725000" lon="-8.592036000">
        <ele>158.000000</ele>
        <time>2020-10-17T14:28:55Z</time>
      </trkpt>
      <trkpt lat="39.653705000" lon="-8.592060000">
        <ele>158.000000</ele>
        <time>2020-10-17T14:28:56Z</time>
      </trkpt>
      <trkpt lat="39.653691000" lon="-8.592076000">
        <ele>158.000000</ele>
        <time>2020-10-17T14:28:57Z</time>
      </trkpt>
      <trkpt lat="39.653678000" lon="-8.592093000">
        <ele>158.000000</ele>
        <time>2020-10-17T14:28:58Z</time>
      </trkpt>
      <trkpt lat="39.653664000" lon="-8.592108000">
        <ele>158.000000</ele>
        <time>2020-10-17T14:28:59Z</time>
      </trkpt>
      <trkpt lat="39.653650000" lon="-8.592119000">
        <ele>158.000000</ele>
        <time>2020-10-17T14:29:00Z</time>
      </trkpt>
      <trkpt lat="39.653637000" lon="-8.592123000">
        <ele>157.400000</ele>
        <time>2020-10-17T14:29:01Z</time>
      </trkpt>
      <trkpt lat="39.653619000" lon="-8.592122000">
        <ele>157.000000</ele>
        <time>2020-10-17T14:29:02Z</time>
      </trkpt>
      <trkpt lat="39.653601000" lon="-8.592120000">
        <ele>156.400000</ele>
        <time>2020-10-17T14:29:03Z</time>
      </trkpt>
      <trkpt lat="39.653581000" lon="-8.592115000">
        <ele>156.000000</ele>
        <time>2020-10-17T14:29:04Z</time>
      </trkpt>
      <trkpt lat="39.653556000" lon="-8.592107000">
        <ele>155.400000</ele>
        <time>2020-10-17T14:29:05Z</time>
      </trkpt>
      <trkpt lat="39.653526000" lon="-8.592105000">
        <ele>155.000000</ele>
        <time>2020-10-17T14:29:06Z</time>
      </trkpt>
      <trkpt lat="39.653321000" lon="-8.592111000">
        <ele>154.400000</ele>
        <time>2020-10-17T14:29:11Z</time>
      </trkpt>
      <trkpt lat="39.653267000" lon="-8.592107000">
        <ele>154.400000</ele>
        <time>2020-10-17T14:29:12Z</time>
      </trkpt>
      <trkpt lat="39.653212000" lon="-8.592102000">
        <ele>154.400000</ele>
        <time>2020-10-17T14:29:13Z</time>
      </trkpt>
      <trkpt lat="39.653038000" lon="-8.592079000">
        <ele>154.400000</ele>
        <time>2020-10-17T14:29:16Z</time>
      </trkpt>
      <trkpt lat="39.652861000" lon="-8.592043000">
        <ele>154.200000</ele>
        <time>2020-10-17T14:29:19Z</time>
      </trkpt>
      <trkpt lat="39.652803000" lon="-8.592034000">
        <ele>154.000000</ele>
        <time>2020-10-17T14:29:20Z</time>
      </trkpt>
      <trkpt lat="39.652565000" lon="-8.591993000">
        <ele>153.800000</ele>
        <time>2020-10-17T14:29:24Z</time>
      </trkpt>
      <trkpt lat="39.652448000" lon="-8.591979000">
        <ele>154.000000</ele>
        <time>2020-10-17T14:29:26Z</time>
      </trkpt>
      <trkpt lat="39.652389000" lon="-8.591975000">
        <ele>154.000000</ele>
        <time>2020-10-17T14:29:27Z</time>
      </trkpt>
      <trkpt lat="39.652333000" lon="-8.591967000">
        <ele>154.000000</ele>
        <time>2020-10-17T14:29:28Z</time>
      </trkpt>
      <trkpt lat="39.652278000" lon="-8.591959000">
        <ele>154.000000</ele>
        <time>2020-10-17T14:29:29Z</time>
      </trkpt>
      <trkpt lat="39.652164000" lon="-8.591937000">
        <ele>153.800000</ele>
        <time>2020-10-17T14:29:31Z</time>
      </trkpt>
      <trkpt lat="39.652109000" lon="-8.591924000">
        <ele>154.200000</ele>
        <time>2020-10-17T14:29:32Z</time>
      </trkpt>
      <trkpt lat="39.652054000" lon="-8.591910000">
        <ele>154.200000</ele>
        <time>2020-10-17T14:29:33Z</time>
      </trkpt>
      <trkpt lat="39.652002000" lon="-8.591898000">
        <ele>154.000000</ele>
        <time>2020-10-17T14:29:34Z</time>
      </trkpt>
      <trkpt lat="39.651951000" lon="-8.591890000">
        <ele>154.200000</ele>
        <time>2020-10-17T14:29:35Z</time>
      </trkpt>
      <trkpt lat="39.651794000" lon="-8.591875000">
        <ele>154.400000</ele>
        <time>2020-10-17T14:29:38Z</time>
      </trkpt>
      <trkpt lat="39.651743000" lon="-8.591869000">
        <ele>154.400000</ele>
        <time>2020-10-17T14:29:39Z</time>
      </trkpt>
      <trkpt lat="39.651693000" lon="-8.591862000">
        <ele>154.600000</ele>
        <time>2020-10-17T14:29:40Z</time>
      </trkpt>
      <trkpt lat="39.651538000" lon="-8.591837000">
        <ele>154.800000</ele>
        <time>2020-10-17T14:29:43Z</time>
      </trkpt>
      <trkpt lat="39.651385000" lon="-8.591809000">
        <ele>155.400000</ele>
        <time>2020-10-17T14:29:46Z</time>
      </trkpt>
      <trkpt lat="39.651337000" lon="-8.591803000">
        <ele>155.200000</ele>
        <time>2020-10-17T14:29:47Z</time>
      </trkpt>
      <trkpt lat="39.651288000" lon="-8.591798000">
        <ele>155.400000</ele>
        <time>2020-10-17T14:29:48Z</time>
      </trkpt>
      <trkpt lat="39.651240000" lon="-8.591791000">
        <ele>155.600000</ele>
        <time>2020-10-17T14:29:49Z</time>
      </trkpt>
      <trkpt lat="39.651143000" lon="-8.591775000">
        <ele>155.600000</ele>
        <time>2020-10-17T14:29:51Z</time>
      </trkpt>
      <trkpt lat="39.651096000" lon="-8.591768000">
        <ele>155.800000</ele>
        <time>2020-10-17T14:29:52Z</time>
      </trkpt>
      <trkpt lat="39.651046000" lon="-8.591767000">
        <ele>155.800000</ele>
        <time>2020-10-17T14:29:53Z</time>
      </trkpt>
      <trkpt lat="39.650999000" lon="-8.591764000">
        <ele>155.800000</ele>
        <time>2020-10-17T14:29:54Z</time>
      </trkpt>
      <trkpt lat="39.650953000" lon="-8.591760000">
        <ele>155.800000</ele>
        <time>2020-10-17T14:29:55Z</time>
      </trkpt>
      <trkpt lat="39.650860000" lon="-8.591755000">
        <ele>156.200000</ele>
        <time>2020-10-17T14:29:57Z</time>
      </trkpt>
      <trkpt lat="39.650814000" lon="-8.591751000">
        <ele>156.400000</ele>
        <time>2020-10-17T14:29:58Z</time>
      </trkpt>
      <trkpt lat="39.650771000" lon="-8.591747000">
        <ele>156.400000</ele>
        <time>2020-10-17T14:29:59Z</time>
      </trkpt>
      <trkpt lat="39.650730000" lon="-8.591743000">
        <ele>156.400000</ele>
        <time>2020-10-17T14:30:00Z</time>
      </trkpt>
      <trkpt lat="39.650691000" lon="-8.591738000">
        <ele>156.600000</ele>
        <time>2020-10-17T14:30:01Z</time>
      </trkpt>
      <trkpt lat="39.650650000" lon="-8.591736000">
        <ele>156.800000</ele>
        <time>2020-10-17T14:30:02Z</time>
      </trkpt>
      <trkpt lat="39.650610000" lon="-8.591740000">
        <ele>157.000000</ele>
        <time>2020-10-17T14:30:03Z</time>
      </trkpt>
      <trkpt lat="39.650571000" lon="-8.591751000">
        <ele>157.200000</ele>
        <time>2020-10-17T14:30:04Z</time>
      </trkpt>
      <trkpt lat="39.650534000" lon="-8.591772000">
        <ele>157.600000</ele>
        <time>2020-10-17T14:30:05Z</time>
      </trkpt>
      <trkpt lat="39.650502000" lon="-8.591805000">
        <ele>157.800000</ele>
        <time>2020-10-17T14:30:06Z</time>
      </trkpt>
      <trkpt lat="39.650472000" lon="-8.591851000">
        <ele>158.000000</ele>
        <time>2020-10-17T14:30:07Z</time>
      </trkpt>
      <trkpt lat="39.650445000" lon="-8.591914000">
        <ele>158.200000</ele>
        <time>2020-10-17T14:30:08Z</time>
      </trkpt>
      <trkpt lat="39.650424000" lon="-8.591989000">
        <ele>158.200000</ele>
        <time>2020-10-17T14:30:09Z</time>
      </trkpt>
      <trkpt lat="39.650406000" lon="-8.592068000">
        <ele>158.400000</ele>
        <time>2020-10-17T14:30:10Z</time>
      </trkpt>
      <trkpt lat="39.650392000" lon="-8.592152000">
        <ele>158.200000</ele>
        <time>2020-10-17T14:30:11Z</time>
      </trkpt>
      <trkpt lat="39.650384000" lon="-8.592239000">
        <ele>158.400000</ele>
        <time>2020-10-17T14:30:12Z</time>
      </trkpt>
      <trkpt lat="39.650373000" lon="-8.592414000">
        <ele>158.400000</ele>
        <time>2020-10-17T14:30:14Z</time>
      </trkpt>
      <trkpt lat="39.650353000" lon="-8.592592000">
        <ele>158.400000</ele>
        <time>2020-10-17T14:30:16Z</time>
      </trkpt>
      <trkpt lat="39.650345000" lon="-8.592680000">
        <ele>158.400000</ele>
        <time>2020-10-17T14:30:17Z</time>
      </trkpt>
      <trkpt lat="39.650331000" lon="-8.592854000">
        <ele>158.000000</ele>
        <time>2020-10-17T14:30:19Z</time>
      </trkpt>
      <trkpt lat="39.650322000" lon="-8.592940000">
        <ele>158.000000</ele>
        <time>2020-10-17T14:30:20Z</time>
      </trkpt>
      <trkpt lat="39.650314000" lon="-8.593027000">
        <ele>158.000000</ele>
        <time>2020-10-17T14:30:21Z</time>
      </trkpt>
      <trkpt lat="39.650307000" lon="-8.593114000">
        <ele>158.000000</ele>
        <time>2020-10-17T14:30:22Z</time>
      </trkpt>
      <trkpt lat="39.650300000" lon="-8.593198000">
        <ele>158.000000</ele>
        <time>2020-10-17T14:30:23Z</time>
      </trkpt>
      <trkpt lat="39.650293000" lon="-8.593281000">
        <ele>157.800000</ele>
        <time>2020-10-17T14:30:24Z</time>
      </trkpt>
      <trkpt lat="39.650285000" lon="-8.593362000">
        <ele>157.800000</ele>
        <time>2020-10-17T14:30:25Z</time>
      </trkpt>
      <trkpt lat="39.650277000" lon="-8.593444000">
        <ele>157.800000</ele>
        <time>2020-10-17T14:30:26Z</time>
      </trkpt>
      <trkpt lat="39.650270000" lon="-8.593526000">
        <ele>157.800000</ele>
        <time>2020-10-17T14:30:27Z</time>
      </trkpt>
      <trkpt lat="39.650257000" lon="-8.593698000">
        <ele>157.800000</ele>
        <time>2020-10-17T14:30:29Z</time>
      </trkpt>
      <trkpt lat="39.650250000" lon="-8.593784000">
        <ele>158.000000</ele>
        <time>2020-10-17T14:30:30Z</time>
      </trkpt>
      <trkpt lat="39.650242000" lon="-8.593864000">
        <ele>158.000000</ele>
        <time>2020-10-17T14:30:31Z</time>
      </trkpt>
      <trkpt lat="39.650237000" lon="-8.593942000">
        <ele>158.200000</ele>
        <time>2020-10-17T14:30:32Z</time>
      </trkpt>
      <trkpt lat="39.650232000" lon="-8.594019000">
        <ele>158.200000</ele>
        <time>2020-10-17T14:30:33Z</time>
      </trkpt>
      <trkpt lat="39.650219000" lon="-8.594263000">
        <ele>158.400000</ele>
        <time>2020-10-17T14:30:36Z</time>
      </trkpt>
      <trkpt lat="39.650216000" lon="-8.594341000">
        <ele>158.800000</ele>
        <time>2020-10-17T14:30:37Z</time>
      </trkpt>
      <trkpt lat="39.650208000" lon="-8.594500000">
        <ele>159.000000</ele>
        <time>2020-10-17T14:30:39Z</time>
      </trkpt>
      <trkpt lat="39.650204000" lon="-8.594580000">
        <ele>159.200000</ele>
        <time>2020-10-17T14:30:40Z</time>
      </trkpt>
      <trkpt lat="39.650204000" lon="-8.594654000">
        <ele>159.200000</ele>
        <time>2020-10-17T14:30:41Z</time>
      </trkpt>
      <trkpt lat="39.650202000" lon="-8.594726000">
        <ele>159.200000</ele>
        <time>2020-10-17T14:30:42Z</time>
      </trkpt>
      <trkpt lat="39.650206000" lon="-8.594870000">
        <ele>159.400000</ele>
        <time>2020-10-17T14:30:44Z</time>
      </trkpt>
      <trkpt lat="39.650208000" lon="-8.594939000">
        <ele>159.400000</ele>
        <time>2020-10-17T14:30:45Z</time>
      </trkpt>
      <trkpt lat="39.650207000" lon="-8.595007000">
        <ele>159.400000</ele>
        <time>2020-10-17T14:30:46Z</time>
      </trkpt>
      <trkpt lat="39.650202000" lon="-8.595074000">
        <ele>159.600000</ele>
        <time>2020-10-17T14:30:47Z</time>
      </trkpt>
      <trkpt lat="39.650196000" lon="-8.595141000">
        <ele>159.800000</ele>
        <time>2020-10-17T14:30:48Z</time>
      </trkpt>
      <trkpt lat="39.650190000" lon="-8.595209000">
        <ele>159.800000</ele>
        <time>2020-10-17T14:30:49Z</time>
      </trkpt>
      <trkpt lat="39.650181000" lon="-8.595280000">
        <ele>159.800000</ele>
        <time>2020-10-17T14:30:50Z</time>
      </trkpt>
      <trkpt lat="39.650170000" lon="-8.595349000">
        <ele>160.200000</ele>
        <time>2020-10-17T14:30:51Z</time>
      </trkpt>
      <trkpt lat="39.650157000" lon="-8.595419000">
        <ele>160.400000</ele>
        <time>2020-10-17T14:30:52Z</time>
      </trkpt>
      <trkpt lat="39.650144000" lon="-8.595492000">
        <ele>160.400000</ele>
        <time>2020-10-17T14:30:53Z</time>
      </trkpt>
      <trkpt lat="39.650130000" lon="-8.595560000">
        <ele>160.600000</ele>
        <time>2020-10-17T14:30:54Z</time>
      </trkpt>
      <trkpt lat="39.650113000" lon="-8.595626000">
        <ele>160.600000</ele>
        <time>2020-10-17T14:30:55Z</time>
      </trkpt>
      <trkpt lat="39.650098000" lon="-8.595691000">
        <ele>160.600000</ele>
        <time>2020-10-17T14:30:56Z</time>
      </trkpt>
      <trkpt lat="39.650082000" lon="-8.595756000">
        <ele>160.800000</ele>
        <time>2020-10-17T14:30:57Z</time>
      </trkpt>
      <trkpt lat="39.650067000" lon="-8.595823000">
        <ele>161.000000</ele>
        <time>2020-10-17T14:30:58Z</time>
      </trkpt>
      <trkpt lat="39.650050000" lon="-8.595890000">
        <ele>161.000000</ele>
        <time>2020-10-17T14:30:59Z</time>
      </trkpt>
      <trkpt lat="39.650034000" lon="-8.595954000">
        <ele>161.200000</ele>
        <time>2020-10-17T14:31:00Z</time>
      </trkpt>
      <trkpt lat="39.650018000" lon="-8.596020000">
        <ele>161.400000</ele>
        <time>2020-10-17T14:31:01Z</time>
      </trkpt>
      <trkpt lat="39.650000000" lon="-8.596088000">
        <ele>161.400000</ele>
        <time>2020-10-17T14:31:02Z</time>
      </trkpt>
      <trkpt lat="39.649981000" lon="-8.596153000">
        <ele>161.600000</ele>
        <time>2020-10-17T14:31:03Z</time>
      </trkpt>
      <trkpt lat="39.649963000" lon="-8.596215000">
        <ele>161.600000</ele>
        <time>2020-10-17T14:31:04Z</time>
      </trkpt>
      <trkpt lat="39.649943000" lon="-8.596279000">
        <ele>161.600000</ele>
        <time>2020-10-17T14:31:05Z</time>
      </trkpt>
      <trkpt lat="39.649928000" lon="-8.596343000">
        <ele>161.800000</ele>
        <time>2020-10-17T14:31:06Z</time>
      </trkpt>
      <trkpt lat="39.649913000" lon="-8.596409000">
        <ele>161.800000</ele>
        <time>2020-10-17T14:31:07Z</time>
      </trkpt>
      <trkpt lat="39.649898000" lon="-8.596473000">
        <ele>162.000000</ele>
        <time>2020-10-17T14:31:08Z</time>
      </trkpt>
      <trkpt lat="39.649883000" lon="-8.596536000">
        <ele>162.200000</ele>
        <time>2020-10-17T14:31:09Z</time>
      </trkpt>
      <trkpt lat="39.649868000" lon="-8.596599000">
        <ele>162.400000</ele>
        <time>2020-10-17T14:31:10Z</time>
      </trkpt>
      <trkpt lat="39.649851000" lon="-8.596662000">
        <ele>162.600000</ele>
        <time>2020-10-17T14:31:11Z</time>
      </trkpt>
      <trkpt lat="39.649834000" lon="-8.596721000">
        <ele>162.800000</ele>
        <time>2020-10-17T14:31:12Z</time>
      </trkpt>
      <trkpt lat="39.649814000" lon="-8.596779000">
        <ele>163.000000</ele>
        <time>2020-10-17T14:31:13Z</time>
      </trkpt>
      <trkpt lat="39.649789000" lon="-8.596832000">
        <ele>163.000000</ele>
        <time>2020-10-17T14:31:14Z</time>
      </trkpt>
      <trkpt lat="39.649761000" lon="-8.596881000">
        <ele>163.000000</ele>
        <time>2020-10-17T14:31:15Z</time>
      </trkpt>
      <trkpt lat="39.649734000" lon="-8.596929000">
        <ele>163.200000</ele>
        <time>2020-10-17T14:31:16Z</time>
      </trkpt>
      <trkpt lat="39.649705000" lon="-8.596972000">
        <ele>163.600000</ele>
        <time>2020-10-17T14:31:17Z</time>
      </trkpt>
      <trkpt lat="39.649676000" lon="-8.597014000">
        <ele>163.800000</ele>
        <time>2020-10-17T14:31:18Z</time>
      </trkpt>
      <trkpt lat="39.649646000" lon="-8.597054000">
        <ele>164.000000</ele>
        <time>2020-10-17T14:31:19Z</time>
      </trkpt>
      <trkpt lat="39.649615000" lon="-8.597097000">
        <ele>164.200000</ele>
        <time>2020-10-17T14:31:20Z</time>
      </trkpt>
      <trkpt lat="39.649581000" lon="-8.597142000">
        <ele>164.400000</ele>
        <time>2020-10-17T14:31:21Z</time>
      </trkpt>
      <trkpt lat="39.649548000" lon="-8.597189000">
        <ele>164.600000</ele>
        <time>2020-10-17T14:31:22Z</time>
      </trkpt>
      <trkpt lat="39.649519000" lon="-8.597235000">
        <ele>164.800000</ele>
        <time>2020-10-17T14:31:23Z</time>
      </trkpt>
      <trkpt lat="39.649490000" lon="-8.597280000">
        <ele>165.000000</ele>
        <time>2020-10-17T14:31:24Z</time>
      </trkpt>
      <trkpt lat="39.649462000" lon="-8.597326000">
        <ele>165.000000</ele>
        <time>2020-10-17T14:31:25Z</time>
      </trkpt>
      <trkpt lat="39.649437000" lon="-8.597368000">
        <ele>165.000000</ele>
        <time>2020-10-17T14:31:26Z</time>
      </trkpt>
      <trkpt lat="39.649414000" lon="-8.597407000">
        <ele>165.200000</ele>
        <time>2020-10-17T14:31:27Z</time>
      </trkpt>
      <trkpt lat="39.649390000" lon="-8.597447000">
        <ele>165.400000</ele>
        <time>2020-10-17T14:31:28Z</time>
      </trkpt>
      <trkpt lat="39.649367000" lon="-8.597486000">
        <ele>165.600000</ele>
        <time>2020-10-17T14:31:29Z</time>
      </trkpt>
      <trkpt lat="39.649344000" lon="-8.597527000">
        <ele>165.800000</ele>
        <time>2020-10-17T14:31:30Z</time>
      </trkpt>
      <trkpt lat="39.649324000" lon="-8.597563000">
        <ele>165.800000</ele>
        <time>2020-10-17T14:31:31Z</time>
      </trkpt>
      <trkpt lat="39.649303000" lon="-8.597596000">
        <ele>166.200000</ele>
        <time>2020-10-17T14:31:32Z</time>
      </trkpt>
      <trkpt lat="39.649283000" lon="-8.597630000">
        <ele>166.400000</ele>
        <time>2020-10-17T14:31:33Z</time>
      </trkpt>
      <trkpt lat="39.649264000" lon="-8.597670000">
        <ele>166.800000</ele>
        <time>2020-10-17T14:31:34Z</time>
      </trkpt>
      <trkpt lat="39.649250000" lon="-8.597716000">
        <ele>167.000000</ele>
        <time>2020-10-17T14:31:35Z</time>
      </trkpt>
      <trkpt lat="39.649240000" lon="-8.597756000">
        <ele>167.200000</ele>
        <time>2020-10-17T14:31:36Z</time>
      </trkpt>
      <trkpt lat="39.649228000" lon="-8.597793000">
        <ele>167.200000</ele>
        <time>2020-10-17T14:31:37Z</time>
      </trkpt>
      <trkpt lat="39.649216000" lon="-8.597831000">
        <ele>167.600000</ele>
        <time>2020-10-17T14:31:38Z</time>
      </trkpt>
      <trkpt lat="39.649205000" lon="-8.597871000">
        <ele>168.000000</ele>
        <time>2020-10-17T14:31:39Z</time>
      </trkpt>
      <trkpt lat="39.649194000" lon="-8.597915000">
        <ele>168.200000</ele>
        <time>2020-10-17T14:31:40Z</time>
      </trkpt>
      <trkpt lat="39.649185000" lon="-8.597959000">
        <ele>168.400000</ele>
        <time>2020-10-17T14:31:41Z</time>
      </trkpt>
      <trkpt lat="39.649177000" lon="-8.598003000">
        <ele>168.800000</ele>
        <time>2020-10-17T14:31:42Z</time>
      </trkpt>
      <trkpt lat="39.649168000" lon="-8.598048000">
        <ele>169.000000</ele>
        <time>2020-10-17T14:31:43Z</time>
      </trkpt>
      <trkpt lat="39.649158000" lon="-8.598093000">
        <ele>169.200000</ele>
        <time>2020-10-17T14:31:44Z</time>
      </trkpt>
      <trkpt lat="39.649145000" lon="-8.598141000">
        <ele>169.800000</ele>
        <time>2020-10-17T14:31:45Z</time>
      </trkpt>
      <trkpt lat="39.649129000" lon="-8.598190000">
        <ele>169.800000</ele>
        <time>2020-10-17T14:31:46Z</time>
      </trkpt>
      <trkpt lat="39.649110000" lon="-8.598244000">
        <ele>169.800000</ele>
        <time>2020-10-17T14:31:47Z</time>
      </trkpt>
      <trkpt lat="39.649094000" lon="-8.598294000">
        <ele>170.200000</ele>
        <time>2020-10-17T14:31:48Z</time>
      </trkpt>
      <trkpt lat="39.649078000" lon="-8.598348000">
        <ele>170.400000</ele>
        <time>2020-10-17T14:31:49Z</time>
      </trkpt>
      <trkpt lat="39.649064000" lon="-8.598404000">
        <ele>170.800000</ele>
        <time>2020-10-17T14:31:50Z</time>
      </trkpt>
      <trkpt lat="39.649051000" lon="-8.598462000">
        <ele>171.000000</ele>
        <time>2020-10-17T14:31:51Z</time>
      </trkpt>
      <trkpt lat="39.649036000" lon="-8.598516000">
        <ele>171.400000</ele>
        <time>2020-10-17T14:31:52Z</time>
      </trkpt>
      <trkpt lat="39.649023000" lon="-8.598570000">
        <ele>171.600000</ele>
        <time>2020-10-17T14:31:53Z</time>
      </trkpt>
      <trkpt lat="39.649013000" lon="-8.598620000">
        <ele>171.800000</ele>
        <time>2020-10-17T14:31:54Z</time>
      </trkpt>
      <trkpt lat="39.649007000" lon="-8.598668000">
        <ele>172.000000</ele>
        <time>2020-10-17T14:31:55Z</time>
      </trkpt>
      <trkpt lat="39.649006000" lon="-8.598713000">
        <ele>172.000000</ele>
        <time>2020-10-17T14:31:56Z</time>
      </trkpt>
      <trkpt lat="39.649005000" lon="-8.598758000">
        <ele>172.200000</ele>
        <time>2020-10-17T14:31:57Z</time>
      </trkpt>
      <trkpt lat="39.648997000" lon="-8.598805000">
        <ele>172.600000</ele>
        <time>2020-10-17T14:31:58Z</time>
      </trkpt>
      <trkpt lat="39.648987000" lon="-8.598852000">
        <ele>172.600000</ele>
        <time>2020-10-17T14:31:59Z</time>
      </trkpt>
      <trkpt lat="39.648980000" lon="-8.598904000">
        <ele>172.800000</ele>
        <time>2020-10-17T14:32:00Z</time>
      </trkpt>
      <trkpt lat="39.648973000" lon="-8.598963000">
        <ele>173.000000</ele>
        <time>2020-10-17T14:32:01Z</time>
      </trkpt>
      <trkpt lat="39.648965000" lon="-8.599026000">
        <ele>173.000000</ele>
        <time>2020-10-17T14:32:02Z</time>
      </trkpt>
      <trkpt lat="39.648954000" lon="-8.599092000">
        <ele>173.000000</ele>
        <time>2020-10-17T14:32:03Z</time>
      </trkpt>
      <trkpt lat="39.648945000" lon="-8.599163000">
        <ele>173.000000</ele>
        <time>2020-10-17T14:32:04Z</time>
      </trkpt>
      <trkpt lat="39.648929000" lon="-8.599247000">
        <ele>173.000000</ele>
        <time>2020-10-17T14:32:05Z</time>
      </trkpt>
      <trkpt lat="39.648896000" lon="-8.599363000">
        <ele>173.000000</ele>
        <time>2020-10-17T14:32:06Z</time>
      </trkpt>
      <trkpt lat="39.648770000" lon="-8.599721000">
        <ele>173.200000</ele>
        <time>2020-10-17T14:32:09Z</time>
      </trkpt>
      <trkpt lat="39.648723000" lon="-8.599833000">
        <ele>173.000000</ele>
        <time>2020-10-17T14:32:10Z</time>
      </trkpt>
      <trkpt lat="39.648629000" lon="-8.600071000">
        <ele>173.200000</ele>
        <time>2020-10-17T14:32:12Z</time>
      </trkpt>
      <trkpt lat="39.648590000" lon="-8.600169000">
        <ele>172.600000</ele>
        <time>2020-10-17T14:32:13Z</time>
      </trkpt>
      <trkpt lat="39.648551000" lon="-8.600250000">
        <ele>172.000000</ele>
        <time>2020-10-17T14:32:14Z</time>
      </trkpt>
      <trkpt lat="39.648508000" lon="-8.600312000">
        <ele>171.400000</ele>
        <time>2020-10-17T14:32:15Z</time>
      </trkpt>
      <trkpt lat="39.648470000" lon="-8.600360000">
        <ele>171.000000</ele>
        <time>2020-10-17T14:32:16Z</time>
      </trkpt>
      <trkpt lat="39.648426000" lon="-8.600400000">
        <ele>170.800000</ele>
        <time>2020-10-17T14:32:17Z</time>
      </trkpt>
      <trkpt lat="39.648384000" lon="-8.600426000">
        <ele>170.600000</ele>
        <time>2020-10-17T14:32:18Z</time>
      </trkpt>
      <trkpt lat="39.648348000" lon="-8.600444000">
        <ele>170.400000</ele>
        <time>2020-10-17T14:32:19Z</time>
      </trkpt>
      <trkpt lat="39.648313000" lon="-8.600456000">
        <ele>170.400000</ele>
        <time>2020-10-17T14:32:20Z</time>
      </trkpt>
      <trkpt lat="39.648277000" lon="-8.600466000">
        <ele>170.600000</ele>
        <time>2020-10-17T14:32:21Z</time>
      </trkpt>
      <trkpt lat="39.648242000" lon="-8.600473000">
        <ele>170.600000</ele>
        <time>2020-10-17T14:32:22Z</time>
      </trkpt>
      <trkpt lat="39.648207000" lon="-8.600484000">
        <ele>170.600000</ele>
        <time>2020-10-17T14:32:23Z</time>
      </trkpt>
      <trkpt lat="39.648174000" lon="-8.600491000">
        <ele>170.400000</ele>
        <time>2020-10-17T14:32:24Z</time>
      </trkpt>
      <trkpt lat="39.648140000" lon="-8.600495000">
        <ele>170.600000</ele>
        <time>2020-10-17T14:32:25Z</time>
      </trkpt>
      <trkpt lat="39.648107000" lon="-8.600499000">
        <ele>170.800000</ele>
        <time>2020-10-17T14:32:26Z</time>
      </trkpt>
      <trkpt lat="39.648075000" lon="-8.600498000">
        <ele>171.200000</ele>
        <time>2020-10-17T14:32:27Z</time>
      </trkpt>
      <trkpt lat="39.648044000" lon="-8.600499000">
        <ele>171.600000</ele>
        <time>2020-10-17T14:32:28Z</time>
      </trkpt>
      <trkpt lat="39.648013000" lon="-8.600505000">
        <ele>171.600000</ele>
        <time>2020-10-17T14:32:29Z</time>
      </trkpt>
      <trkpt lat="39.647980000" lon="-8.600513000">
        <ele>172.400000</ele>
        <time>2020-10-17T14:32:30Z</time>
      </trkpt>
      <trkpt lat="39.647947000" lon="-8.600521000">
        <ele>172.800000</ele>
        <time>2020-10-17T14:32:31Z</time>
      </trkpt>
      <trkpt lat="39.647919000" lon="-8.600533000">
        <ele>173.400000</ele>
        <time>2020-10-17T14:32:32Z</time>
      </trkpt>
      <trkpt lat="39.647887000" lon="-8.600549000">
        <ele>174.000000</ele>
        <time>2020-10-17T14:32:33Z</time>
      </trkpt>
      <trkpt lat="39.647848000" lon="-8.600561000">
        <ele>174.400000</ele>
        <time>2020-10-17T14:32:34Z</time>
      </trkpt>
      <trkpt lat="39.647809000" lon="-8.600573000">
        <ele>175.000000</ele>
        <time>2020-10-17T14:32:35Z</time>
      </trkpt>
      <trkpt lat="39.647773000" lon="-8.600585000">
        <ele>175.400000</ele>
        <time>2020-10-17T14:32:36Z</time>
      </trkpt>
      <trkpt lat="39.647737000" lon="-8.600595000">
        <ele>176.000000</ele>
        <time>2020-10-17T14:32:37Z</time>
      </trkpt>
      <trkpt lat="39.647701000" lon="-8.600601000">
        <ele>176.200000</ele>
        <time>2020-10-17T14:32:38Z</time>
      </trkpt>
      <trkpt lat="39.647666000" lon="-8.600607000">
        <ele>176.600000</ele>
        <time>2020-10-17T14:32:39Z</time>
      </trkpt>
      <trkpt lat="39.647632000" lon="-8.600608000">
        <ele>177.000000</ele>
        <time>2020-10-17T14:32:40Z</time>
      </trkpt>
      <trkpt lat="39.647600000" lon="-8.600609000">
        <ele>177.400000</ele>
        <time>2020-10-17T14:32:41Z</time>
      </trkpt>
      <trkpt lat="39.647572000" lon="-8.600610000">
        <ele>177.600000</ele>
        <time>2020-10-17T14:32:42Z</time>
      </trkpt>
      <trkpt lat="39.647547000" lon="-8.600604000">
        <ele>178.000000</ele>
        <time>2020-10-17T14:32:43Z</time>
      </trkpt>
      <trkpt lat="39.647522000" lon="-8.600596000">
        <ele>178.200000</ele>
        <time>2020-10-17T14:32:44Z</time>
      </trkpt>
      <trkpt lat="39.647501000" lon="-8.600586000">
        <ele>178.400000</ele>
        <time>2020-10-17T14:32:45Z</time>
      </trkpt>
      <trkpt lat="39.647479000" lon="-8.600579000">
        <ele>178.400000</ele>
        <time>2020-10-17T14:32:46Z</time>
      </trkpt>
      <trkpt lat="39.647460000" lon="-8.600580000">
        <ele>178.600000</ele>
        <time>2020-10-17T14:32:47Z</time>
      </trkpt>
      <trkpt lat="39.647440000" lon="-8.600581000">
        <ele>179.000000</ele>
        <time>2020-10-17T14:32:48Z</time>
      </trkpt>
      <trkpt lat="39.647418000" lon="-8.600581000">
        <ele>179.000000</ele>
        <time>2020-10-17T14:32:49Z</time>
      </trkpt>
      <trkpt lat="39.647399000" lon="-8.600581000">
        <ele>179.400000</ele>
        <time>2020-10-17T14:32:50Z</time>
      </trkpt>
      <trkpt lat="39.647379000" lon="-8.600581000">
        <ele>179.400000</ele>
        <time>2020-10-17T14:32:51Z</time>
      </trkpt>
      <trkpt lat="39.647358000" lon="-8.600575000">
        <ele>179.600000</ele>
        <time>2020-10-17T14:32:52Z</time>
      </trkpt>
      <trkpt lat="39.647336000" lon="-8.600567000">
        <ele>180.000000</ele>
        <time>2020-10-17T14:32:53Z</time>
      </trkpt>
      <trkpt lat="39.647311000" lon="-8.600560000">
        <ele>180.400000</ele>
        <time>2020-10-17T14:32:54Z</time>
      </trkpt>
      <trkpt lat="39.647285000" lon="-8.600551000">
        <ele>180.600000</ele>
        <time>2020-10-17T14:32:55Z</time>
      </trkpt>
      <trkpt lat="39.647255000" lon="-8.600540000">
        <ele>181.000000</ele>
        <time>2020-10-17T14:32:56Z</time>
      </trkpt>
      <trkpt lat="39.647225000" lon="-8.600526000">
        <ele>181.200000</ele>
        <time>2020-10-17T14:32:57Z</time>
      </trkpt>
      <trkpt lat="39.647188000" lon="-8.600509000">
        <ele>181.600000</ele>
        <time>2020-10-17T14:32:58Z</time>
      </trkpt>
      <trkpt lat="39.647153000" lon="-8.600493000">
        <ele>181.800000</ele>
        <time>2020-10-17T14:32:59Z</time>
      </trkpt>
      <trkpt lat="39.647120000" lon="-8.600481000">
        <ele>182.000000</ele>
        <time>2020-10-17T14:33:00Z</time>
      </trkpt>
      <trkpt lat="39.647082000" lon="-8.600466000">
        <ele>182.400000</ele>
        <time>2020-10-17T14:33:01Z</time>
      </trkpt>
      <trkpt lat="39.647046000" lon="-8.600454000">
        <ele>182.600000</ele>
        <time>2020-10-17T14:33:02Z</time>
      </trkpt>
      <trkpt lat="39.647011000" lon="-8.600443000">
        <ele>182.800000</ele>
        <time>2020-10-17T14:33:03Z</time>
      </trkpt>
      <trkpt lat="39.646974000" lon="-8.600429000">
        <ele>183.000000</ele>
        <time>2020-10-17T14:33:04Z</time>
      </trkpt>
      <trkpt lat="39.646935000" lon="-8.600414000">
        <ele>183.200000</ele>
        <time>2020-10-17T14:33:05Z</time>
      </trkpt>
      <trkpt lat="39.646897000" lon="-8.600400000">
        <ele>183.200000</ele>
        <time>2020-10-17T14:33:06Z</time>
      </trkpt>
      <trkpt lat="39.646858000" lon="-8.600386000">
        <ele>183.200000</ele>
        <time>2020-10-17T14:33:07Z</time>
      </trkpt>
      <trkpt lat="39.646819000" lon="-8.600374000">
        <ele>183.600000</ele>
        <time>2020-10-17T14:33:08Z</time>
      </trkpt>
      <trkpt lat="39.646777000" lon="-8.600359000">
        <ele>183.600000</ele>
        <time>2020-10-17T14:33:09Z</time>
      </trkpt>
      <trkpt lat="39.646734000" lon="-8.600346000">
        <ele>183.400000</ele>
        <time>2020-10-17T14:33:10Z</time>
      </trkpt>
      <trkpt lat="39.646689000" lon="-8.600336000">
        <ele>183.400000</ele>
        <time>2020-10-17T14:33:11Z</time>
      </trkpt>
      <trkpt lat="39.646644000" lon="-8.600331000">
        <ele>183.400000</ele>
        <time>2020-10-17T14:33:12Z</time>
      </trkpt>
      <trkpt lat="39.646602000" lon="-8.600329000">
        <ele>183.600000</ele>
        <time>2020-10-17T14:33:13Z</time>
      </trkpt>
      <trkpt lat="39.646559000" lon="-8.600327000">
        <ele>183.600000</ele>
        <time>2020-10-17T14:33:14Z</time>
      </trkpt>
      <trkpt lat="39.646519000" lon="-8.600325000">
        <ele>183.600000</ele>
        <time>2020-10-17T14:33:15Z</time>
      </trkpt>
      <trkpt lat="39.646480000" lon="-8.600319000">
        <ele>183.600000</ele>
        <time>2020-10-17T14:33:16Z</time>
      </trkpt>
      <trkpt lat="39.646443000" lon="-8.600315000">
        <ele>183.600000</ele>
        <time>2020-10-17T14:33:17Z</time>
      </trkpt>
      <trkpt lat="39.646406000" lon="-8.600310000">
        <ele>183.600000</ele>
        <time>2020-10-17T14:33:18Z</time>
      </trkpt>
      <trkpt lat="39.646375000" lon="-8.600304000">
        <ele>183.600000</ele>
        <time>2020-10-17T14:33:19Z</time>
      </trkpt>
      <trkpt lat="39.646346000" lon="-8.600293000">
        <ele>183.800000</ele>
        <time>2020-10-17T14:33:20Z</time>
      </trkpt>
      <trkpt lat="39.646319000" lon="-8.600284000">
        <ele>183.600000</ele>
        <time>2020-10-17T14:33:21Z</time>
      </trkpt>
      <trkpt lat="39.646301000" lon="-8.600273000">
        <ele>183.800000</ele>
        <time>2020-10-17T14:33:22Z</time>
      </trkpt>
      <trkpt lat="39.646278000" lon="-8.600262000">
        <ele>183.600000</ele>
        <time>2020-10-17T14:33:23Z</time>
      </trkpt>
      <trkpt lat="39.646253000" lon="-8.600252000">
        <ele>183.600000</ele>
        <time>2020-10-17T14:33:24Z</time>
      </trkpt>
      <trkpt lat="39.646231000" lon="-8.600241000">
        <ele>183.800000</ele>
        <time>2020-10-17T14:33:25Z</time>
      </trkpt>
      <trkpt lat="39.646180000" lon="-8.600211000">
        <ele>184.000000</ele>
        <time>2020-10-17T14:33:27Z</time>
      </trkpt>
      <trkpt lat="39.646157000" lon="-8.600198000">
        <ele>184.200000</ele>
        <time>2020-10-17T14:33:28Z</time>
      </trkpt>
      <trkpt lat="39.646130000" lon="-8.600183000">
        <ele>184.200000</ele>
        <time>2020-10-17T14:33:29Z</time>
      </trkpt>
      <trkpt lat="39.646103000" lon="-8.600166000">
        <ele>184.600000</ele>
        <time>2020-10-17T14:33:30Z</time>
      </trkpt>
      <trkpt lat="39.646072000" lon="-8.600149000">
        <ele>185.000000</ele>
        <time>2020-10-17T14:33:31Z</time>
      </trkpt>
      <trkpt lat="39.646038000" lon="-8.600137000">
        <ele>185.000000</ele>
        <time>2020-10-17T14:33:32Z</time>
      </trkpt>
      <trkpt lat="39.646000000" lon="-8.600129000">
        <ele>185.000000</ele>
        <time>2020-10-17T14:33:33Z</time>
      </trkpt>
      <trkpt lat="39.645963000" lon="-8.600125000">
        <ele>185.200000</ele>
        <time>2020-10-17T14:33:34Z</time>
      </trkpt>
      <trkpt lat="39.645926000" lon="-8.600124000">
        <ele>185.200000</ele>
        <time>2020-10-17T14:33:35Z</time>
      </trkpt>
      <trkpt lat="39.645890000" lon="-8.600130000">
        <ele>185.400000</ele>
        <time>2020-10-17T14:33:36Z</time>
      </trkpt>
      <trkpt lat="39.645854000" lon="-8.600137000">
        <ele>185.600000</ele>
        <time>2020-10-17T14:33:37Z</time>
      </trkpt>
      <trkpt lat="39.645816000" lon="-8.600145000">
        <ele>185.600000</ele>
        <time>2020-10-17T14:33:38Z</time>
      </trkpt>
      <trkpt lat="39.645780000" lon="-8.600154000">
        <ele>185.800000</ele>
        <time>2020-10-17T14:33:39Z</time>
      </trkpt>
      <trkpt lat="39.645742000" lon="-8.600163000">
        <ele>186.000000</ele>
        <time>2020-10-17T14:33:40Z</time>
      </trkpt>
      <trkpt lat="39.645704000" lon="-8.600168000">
        <ele>186.200000</ele>
        <time>2020-10-17T14:33:41Z</time>
      </trkpt>
      <trkpt lat="39.645668000" lon="-8.600180000">
        <ele>186.400000</ele>
        <time>2020-10-17T14:33:42Z</time>
      </trkpt>
      <trkpt lat="39.645634000" lon="-8.600193000">
        <ele>186.600000</ele>
        <time>2020-10-17T14:33:43Z</time>
      </trkpt>
      <trkpt lat="39.645599000" lon="-8.600204000">
        <ele>186.600000</ele>
        <time>2020-10-17T14:33:44Z</time>
      </trkpt>
      <trkpt lat="39.645561000" lon="-8.600215000">
        <ele>186.800000</ele>
        <time>2020-10-17T14:33:45Z</time>
      </trkpt>
      <trkpt lat="39.645529000" lon="-8.600231000">
        <ele>186.800000</ele>
        <time>2020-10-17T14:33:46Z</time>
      </trkpt>
      <trkpt lat="39.645497000" lon="-8.600243000">
        <ele>186.800000</ele>
        <time>2020-10-17T14:33:47Z</time>
      </trkpt>
      <trkpt lat="39.645464000" lon="-8.600254000">
        <ele>187.000000</ele>
        <time>2020-10-17T14:33:48Z</time>
      </trkpt>
      <trkpt lat="39.645437000" lon="-8.600263000">
        <ele>187.200000</ele>
        <time>2020-10-17T14:33:49Z</time>
      </trkpt>
      <trkpt lat="39.645407000" lon="-8.600270000">
        <ele>187.400000</ele>
        <time>2020-10-17T14:33:50Z</time>
      </trkpt>
      <trkpt lat="39.645379000" lon="-8.600277000">
        <ele>187.400000</ele>
        <time>2020-10-17T14:33:51Z</time>
      </trkpt>
      <trkpt lat="39.645350000" lon="-8.600279000">
        <ele>187.600000</ele>
        <time>2020-10-17T14:33:52Z</time>
      </trkpt>
      <trkpt lat="39.645321000" lon="-8.600284000">
        <ele>187.800000</ele>
        <time>2020-10-17T14:33:53Z</time>
      </trkpt>
      <trkpt lat="39.645298000" lon="-8.600289000">
        <ele>187.800000</ele>
        <time>2020-10-17T14:33:54Z</time>
      </trkpt>
      <trkpt lat="39.645273000" lon="-8.600293000">
        <ele>188.000000</ele>
        <time>2020-10-17T14:33:55Z</time>
      </trkpt>
      <trkpt lat="39.645243000" lon="-8.600299000">
        <ele>188.200000</ele>
        <time>2020-10-17T14:33:56Z</time>
      </trkpt>
      <trkpt lat="39.645210000" lon="-8.600306000">
        <ele>188.400000</ele>
        <time>2020-10-17T14:33:57Z</time>
      </trkpt>
      <trkpt lat="39.645176000" lon="-8.600313000">
        <ele>188.600000</ele>
        <time>2020-10-17T14:33:58Z</time>
      </trkpt>
      <trkpt lat="39.645145000" lon="-8.600323000">
        <ele>188.800000</ele>
        <time>2020-10-17T14:33:59Z</time>
      </trkpt>
      <trkpt lat="39.645114000" lon="-8.600336000">
        <ele>189.000000</ele>
        <time>2020-10-17T14:34:00Z</time>
      </trkpt>
      <trkpt lat="39.645083000" lon="-8.600355000">
        <ele>189.200000</ele>
        <time>2020-10-17T14:34:01Z</time>
      </trkpt>
      <trkpt lat="39.645052000" lon="-8.600380000">
        <ele>189.200000</ele>
        <time>2020-10-17T14:34:02Z</time>
      </trkpt>
      <trkpt lat="39.645016000" lon="-8.600416000">
        <ele>189.400000</ele>
        <time>2020-10-17T14:34:03Z</time>
      </trkpt>
      <trkpt lat="39.644970000" lon="-8.600466000">
        <ele>189.800000</ele>
        <time>2020-10-17T14:34:04Z</time>
      </trkpt>
      <trkpt lat="39.644924000" lon="-8.600518000">
        <ele>189.800000</ele>
        <time>2020-10-17T14:34:05Z</time>
      </trkpt>
      <trkpt lat="39.644873000" lon="-8.600584000">
        <ele>190.000000</ele>
        <time>2020-10-17T14:34:06Z</time>
      </trkpt>
      <trkpt lat="39.644811000" lon="-8.600667000">
        <ele>189.800000</ele>
        <time>2020-10-17T14:34:07Z</time>
      </trkpt>
      <trkpt lat="39.644744000" lon="-8.600763000">
        <ele>190.000000</ele>
        <time>2020-10-17T14:34:08Z</time>
      </trkpt>
      <trkpt lat="39.644683000" lon="-8.600851000">
        <ele>190.000000</ele>
        <time>2020-10-17T14:34:09Z</time>
      </trkpt>
      <trkpt lat="39.644626000" lon="-8.600947000">
        <ele>190.000000</ele>
        <time>2020-10-17T14:34:10Z</time>
      </trkpt>
      <trkpt lat="39.644581000" lon="-8.601047000">
        <ele>190.000000</ele>
        <time>2020-10-17T14:34:11Z</time>
      </trkpt>
      <trkpt lat="39.644547000" lon="-8.601154000">
        <ele>190.000000</ele>
        <time>2020-10-17T14:34:12Z</time>
      </trkpt>
      <trkpt lat="39.644524000" lon="-8.601261000">
        <ele>189.800000</ele>
        <time>2020-10-17T14:34:13Z</time>
      </trkpt>
      <trkpt lat="39.644508000" lon="-8.601363000">
        <ele>189.800000</ele>
        <time>2020-10-17T14:34:14Z</time>
      </trkpt>
      <trkpt lat="39.644498000" lon="-8.601460000">
        <ele>189.600000</ele>
        <time>2020-10-17T14:34:15Z</time>
      </trkpt>
      <trkpt lat="39.644492000" lon="-8.601549000">
        <ele>188.200000</ele>
        <time>2020-10-17T14:34:16Z</time>
      </trkpt>
      <trkpt lat="39.644493000" lon="-8.601636000">
        <ele>187.400000</ele>
        <time>2020-10-17T14:34:17Z</time>
      </trkpt>
      <trkpt lat="39.644497000" lon="-8.601719000">
        <ele>187.000000</ele>
        <time>2020-10-17T14:34:18Z</time>
      </trkpt>
      <trkpt lat="39.644506000" lon="-8.601798000">
        <ele>186.800000</ele>
        <time>2020-10-17T14:34:19Z</time>
      </trkpt>
      <trkpt lat="39.644530000" lon="-8.601876000">
        <ele>186.200000</ele>
        <time>2020-10-17T14:34:20Z</time>
      </trkpt>
      <trkpt lat="39.644565000" lon="-8.601949000">
        <ele>186.000000</ele>
        <time>2020-10-17T14:34:21Z</time>
      </trkpt>
      <trkpt lat="39.644610000" lon="-8.602024000">
        <ele>185.800000</ele>
        <time>2020-10-17T14:34:22Z</time>
      </trkpt>
      <trkpt lat="39.644645000" lon="-8.602107000">
        <ele>185.600000</ele>
        <time>2020-10-17T14:34:23Z</time>
      </trkpt>
      <trkpt lat="39.644666000" lon="-8.602195000">
        <ele>185.400000</ele>
        <time>2020-10-17T14:34:24Z</time>
      </trkpt>
      <trkpt lat="39.644677000" lon="-8.602283000">
        <ele>185.000000</ele>
        <time>2020-10-17T14:34:25Z</time>
      </trkpt>
      <trkpt lat="39.644670000" lon="-8.602370000">
        <ele>184.800000</ele>
        <time>2020-10-17T14:34:26Z</time>
      </trkpt>
      <trkpt lat="39.644650000" lon="-8.602461000">
        <ele>184.800000</ele>
        <time>2020-10-17T14:34:27Z</time>
      </trkpt>
      <trkpt lat="39.644630000" lon="-8.602555000">
        <ele>184.600000</ele>
        <time>2020-10-17T14:34:28Z</time>
      </trkpt>
      <trkpt lat="39.644609000" lon="-8.602763000">
        <ele>184.000000</ele>
        <time>2020-10-17T14:34:30Z</time>
      </trkpt>
      <trkpt lat="39.644610000" lon="-8.602870000">
        <ele>183.600000</ele>
        <time>2020-10-17T14:34:31Z</time>
      </trkpt>
      <trkpt lat="39.644608000" lon="-8.602986000">
        <ele>183.400000</ele>
        <time>2020-10-17T14:34:32Z</time>
      </trkpt>
      <trkpt lat="39.644608000" lon="-8.603099000">
        <ele>183.200000</ele>
        <time>2020-10-17T14:34:33Z</time>
      </trkpt>
      <trkpt lat="39.644615000" lon="-8.603215000">
        <ele>182.800000</ele>
        <time>2020-10-17T14:34:34Z</time>
      </trkpt>
      <trkpt lat="39.644635000" lon="-8.603671000">
        <ele>181.400000</ele>
        <time>2020-10-17T14:34:38Z</time>
      </trkpt>
      <trkpt lat="39.644639000" lon="-8.603785000">
        <ele>181.000000</ele>
        <time>2020-10-17T14:34:39Z</time>
      </trkpt>
      <trkpt lat="39.644635000" lon="-8.603899000">
        <ele>179.800000</ele>
        <time>2020-10-17T14:34:40Z</time>
      </trkpt>
      <trkpt lat="39.644627000" lon="-8.604004000">
        <ele>179.200000</ele>
        <time>2020-10-17T14:34:41Z</time>
      </trkpt>
      <trkpt lat="39.644613000" lon="-8.604108000">
        <ele>178.200000</ele>
        <time>2020-10-17T14:34:42Z</time>
      </trkpt>
      <trkpt lat="39.644566000" lon="-8.604310000">
        <ele>177.600000</ele>
        <time>2020-10-17T14:34:44Z</time>
      </trkpt>
      <trkpt lat="39.644527000" lon="-8.604405000">
        <ele>177.400000</ele>
        <time>2020-10-17T14:34:45Z</time>
      </trkpt>
      <trkpt lat="39.644489000" lon="-8.604490000">
        <ele>177.200000</ele>
        <time>2020-10-17T14:34:46Z</time>
      </trkpt>
      <trkpt lat="39.644446000" lon="-8.604572000">
        <ele>176.600000</ele>
        <time>2020-10-17T14:34:47Z</time>
      </trkpt>
      <trkpt lat="39.644395000" lon="-8.604663000">
        <ele>176.000000</ele>
        <time>2020-10-17T14:34:48Z</time>
      </trkpt>
      <trkpt lat="39.644290000" lon="-8.604825000">
        <ele>175.200000</ele>
        <time>2020-10-17T14:34:50Z</time>
      </trkpt>
      <trkpt lat="39.644241000" lon="-8.604894000">
        <ele>175.000000</ele>
        <time>2020-10-17T14:34:51Z</time>
      </trkpt>
      <trkpt lat="39.644192000" lon="-8.604958000">
        <ele>174.600000</ele>
        <time>2020-10-17T14:34:52Z</time>
      </trkpt>
      <trkpt lat="39.644142000" lon="-8.605017000">
        <ele>174.400000</ele>
        <time>2020-10-17T14:34:53Z</time>
      </trkpt>
      <trkpt lat="39.644094000" lon="-8.605081000">
        <ele>174.000000</ele>
        <time>2020-10-17T14:34:54Z</time>
      </trkpt>
      <trkpt lat="39.644056000" lon="-8.605157000">
        <ele>173.400000</ele>
        <time>2020-10-17T14:34:55Z</time>
      </trkpt>
      <trkpt lat="39.644031000" lon="-8.605244000">
        <ele>172.800000</ele>
        <time>2020-10-17T14:34:56Z</time>
      </trkpt>
      <trkpt lat="39.644014000" lon="-8.605329000">
        <ele>172.800000</ele>
        <time>2020-10-17T14:34:57Z</time>
      </trkpt>
      <trkpt lat="39.644005000" lon="-8.605417000">
        <ele>172.600000</ele>
        <time>2020-10-17T14:34:58Z</time>
      </trkpt>
      <trkpt lat="39.643998000" lon="-8.605510000">
        <ele>172.400000</ele>
        <time>2020-10-17T14:34:59Z</time>
      </trkpt>
      <trkpt lat="39.643984000" lon="-8.605705000">
        <ele>171.800000</ele>
        <time>2020-10-17T14:35:01Z</time>
      </trkpt>
      <trkpt lat="39.643976000" lon="-8.605800000">
        <ele>171.800000</ele>
        <time>2020-10-17T14:35:02Z</time>
      </trkpt>
      <trkpt lat="39.643954000" lon="-8.606294000">
        <ele>171.000000</ele>
        <time>2020-10-17T14:35:07Z</time>
      </trkpt>
      <trkpt lat="39.643959000" lon="-8.606493000">
        <ele>170.600000</ele>
        <time>2020-10-17T14:35:09Z</time>
      </trkpt>
      <trkpt lat="39.643969000" lon="-8.606596000">
        <ele>170.400000</ele>
        <time>2020-10-17T14:35:10Z</time>
      </trkpt>
      <trkpt lat="39.643989000" lon="-8.606698000">
        <ele>170.200000</ele>
        <time>2020-10-17T14:35:11Z</time>
      </trkpt>
      <trkpt lat="39.644046000" lon="-8.606889000">
        <ele>169.600000</ele>
        <time>2020-10-17T14:35:13Z</time>
      </trkpt>
      <trkpt lat="39.644302000" lon="-8.607522000">
        <ele>168.400000</ele>
        <time>2020-10-17T14:35:20Z</time>
      </trkpt>
      <trkpt lat="39.644343000" lon="-8.607613000">
        <ele>168.200000</ele>
        <time>2020-10-17T14:35:21Z</time>
      </trkpt>
      <trkpt lat="39.644381000" lon="-8.607703000">
        <ele>168.000000</ele>
        <time>2020-10-17T14:35:22Z</time>
      </trkpt>
      <trkpt lat="39.644458000" lon="-8.607886000">
        <ele>167.800000</ele>
        <time>2020-10-17T14:35:24Z</time>
      </trkpt>
      <trkpt lat="39.644581000" lon="-8.608153000">
        <ele>167.600000</ele>
        <time>2020-10-17T14:35:27Z</time>
      </trkpt>
      <trkpt lat="39.644612000" lon="-8.608239000">
        <ele>167.400000</ele>
        <time>2020-10-17T14:35:28Z</time>
      </trkpt>
      <trkpt lat="39.644638000" lon="-8.608328000">
        <ele>167.200000</ele>
        <time>2020-10-17T14:35:29Z</time>
      </trkpt>
      <trkpt lat="39.644655000" lon="-8.608418000">
        <ele>167.400000</ele>
        <time>2020-10-17T14:35:30Z</time>
      </trkpt>
      <trkpt lat="39.644666000" lon="-8.608508000">
        <ele>167.400000</ele>
        <time>2020-10-17T14:35:31Z</time>
      </trkpt>
      <trkpt lat="39.644672000" lon="-8.608599000">
        <ele>167.200000</ele>
        <time>2020-10-17T14:35:32Z</time>
      </trkpt>
      <trkpt lat="39.644666000" lon="-8.608690000">
        <ele>167.200000</ele>
        <time>2020-10-17T14:35:33Z</time>
      </trkpt>
      <trkpt lat="39.644626000" lon="-8.608871000">
        <ele>167.200000</ele>
        <time>2020-10-17T14:35:35Z</time>
      </trkpt>
      <trkpt lat="39.644537000" lon="-8.609140000">
        <ele>167.200000</ele>
        <time>2020-10-17T14:35:38Z</time>
      </trkpt>
      <trkpt lat="39.644488000" lon="-8.609318000">
        <ele>167.200000</ele>
        <time>2020-10-17T14:35:40Z</time>
      </trkpt>
      <trkpt lat="39.644469000" lon="-8.609406000">
        <ele>167.200000</ele>
        <time>2020-10-17T14:35:41Z</time>
      </trkpt>
      <trkpt lat="39.644453000" lon="-8.609490000">
        <ele>167.200000</ele>
        <time>2020-10-17T14:35:42Z</time>
      </trkpt>
      <trkpt lat="39.644442000" lon="-8.609577000">
        <ele>167.200000</ele>
        <time>2020-10-17T14:35:43Z</time>
      </trkpt>
      <trkpt lat="39.644434000" lon="-8.609663000">
        <ele>167.200000</ele>
        <time>2020-10-17T14:35:44Z</time>
      </trkpt>
      <trkpt lat="39.644430000" lon="-8.609748000">
        <ele>167.000000</ele>
        <time>2020-10-17T14:35:45Z</time>
      </trkpt>
      <trkpt lat="39.644429000" lon="-8.609831000">
        <ele>167.200000</ele>
        <time>2020-10-17T14:35:46Z</time>
      </trkpt>
      <trkpt lat="39.644433000" lon="-8.609913000">
        <ele>167.200000</ele>
        <time>2020-10-17T14:35:47Z</time>
      </trkpt>
      <trkpt lat="39.644433000" lon="-8.609994000">
        <ele>167.200000</ele>
        <time>2020-10-17T14:35:48Z</time>
      </trkpt>
      <trkpt lat="39.644429000" lon="-8.610075000">
        <ele>167.200000</ele>
        <time>2020-10-17T14:35:49Z</time>
      </trkpt>
      <trkpt lat="39.644418000" lon="-8.610156000">
        <ele>167.200000</ele>
        <time>2020-10-17T14:35:50Z</time>
      </trkpt>
      <trkpt lat="39.644374000" lon="-8.610313000">
        <ele>167.200000</ele>
        <time>2020-10-17T14:35:52Z</time>
      </trkpt>
      <trkpt lat="39.644347000" lon="-8.610384000">
        <ele>167.400000</ele>
        <time>2020-10-17T14:35:53Z</time>
      </trkpt>
      <trkpt lat="39.644318000" lon="-8.610453000">
        <ele>167.600000</ele>
        <time>2020-10-17T14:35:54Z</time>
      </trkpt>
      <trkpt lat="39.644286000" lon="-8.610522000">
        <ele>167.600000</ele>
        <time>2020-10-17T14:35:55Z</time>
      </trkpt>
      <trkpt lat="39.644218000" lon="-8.610661000">
        <ele>168.000000</ele>
        <time>2020-10-17T14:35:57Z</time>
      </trkpt>
      <trkpt lat="39.644188000" lon="-8.610729000">
        <ele>168.000000</ele>
        <time>2020-10-17T14:35:58Z</time>
      </trkpt>
      <trkpt lat="39.644161000" lon="-8.610799000">
        <ele>168.000000</ele>
        <time>2020-10-17T14:35:59Z</time>
      </trkpt>
      <trkpt lat="39.644083000" lon="-8.611021000">
        <ele>168.000000</ele>
        <time>2020-10-17T14:36:02Z</time>
      </trkpt>
      <trkpt lat="39.643961000" lon="-8.611386000">
        <ele>168.000000</ele>
        <time>2020-10-17T14:36:07Z</time>
      </trkpt>
      <trkpt lat="39.643936000" lon="-8.611457000">
        <ele>168.200000</ele>
        <time>2020-10-17T14:36:08Z</time>
      </trkpt>
      <trkpt lat="39.643820000" lon="-8.611824000">
        <ele>168.400000</ele>
        <time>2020-10-17T14:36:13Z</time>
      </trkpt>
      <trkpt lat="39.643794000" lon="-8.611895000">
        <ele>168.600000</ele>
        <time>2020-10-17T14:36:14Z</time>
      </trkpt>
      <trkpt lat="39.643766000" lon="-8.611960000">
        <ele>168.600000</ele>
        <time>2020-10-17T14:36:15Z</time>
      </trkpt>
      <trkpt lat="39.643737000" lon="-8.612021000">
        <ele>168.600000</ele>
        <time>2020-10-17T14:36:16Z</time>
      </trkpt>
      <trkpt lat="39.643707000" lon="-8.612078000">
        <ele>168.800000</ele>
        <time>2020-10-17T14:36:17Z</time>
      </trkpt>
      <trkpt lat="39.643678000" lon="-8.612136000">
        <ele>168.800000</ele>
        <time>2020-10-17T14:36:18Z</time>
      </trkpt>
      <trkpt lat="39.643557000" lon="-8.612375000">
        <ele>168.600000</ele>
        <time>2020-10-17T14:36:22Z</time>
      </trkpt>
      <trkpt lat="39.643526000" lon="-8.612426000">
        <ele>168.800000</ele>
        <time>2020-10-17T14:36:23Z</time>
      </trkpt>
      <trkpt lat="39.643498000" lon="-8.612474000">
        <ele>169.000000</ele>
        <time>2020-10-17T14:36:24Z</time>
      </trkpt>
      <trkpt lat="39.643474000" lon="-8.612518000">
        <ele>169.000000</ele>
        <time>2020-10-17T14:36:25Z</time>
      </trkpt>
      <trkpt lat="39.643452000" lon="-8.612560000">
        <ele>168.800000</ele>
        <time>2020-10-17T14:36:26Z</time>
      </trkpt>
      <trkpt lat="39.643426000" lon="-8.612607000">
        <ele>169.200000</ele>
        <time>2020-10-17T14:36:27Z</time>
      </trkpt>
      <trkpt lat="39.643394000" lon="-8.612641000">
        <ele>169.400000</ele>
        <time>2020-10-17T14:36:28Z</time>
      </trkpt>
      <trkpt lat="39.643360000" lon="-8.612668000">
        <ele>169.400000</ele>
        <time>2020-10-17T14:36:29Z</time>
      </trkpt>
      <trkpt lat="39.643323000" lon="-8.612693000">
        <ele>169.600000</ele>
        <time>2020-10-17T14:36:30Z</time>
      </trkpt>
      <trkpt lat="39.643285000" lon="-8.612719000">
        <ele>169.800000</ele>
        <time>2020-10-17T14:36:31Z</time>
      </trkpt>
      <trkpt lat="39.643070000" lon="-8.612845000">
        <ele>170.200000</ele>
        <time>2020-10-17T14:36:36Z</time>
      </trkpt>
      <trkpt lat="39.643025000" lon="-8.612880000">
        <ele>170.200000</ele>
        <time>2020-10-17T14:36:37Z</time>
      </trkpt>
      <trkpt lat="39.642891000" lon="-8.612991000">
        <ele>170.400000</ele>
        <time>2020-10-17T14:36:40Z</time>
      </trkpt>
      <trkpt lat="39.642799000" lon="-8.613070000">
        <ele>170.400000</ele>
        <time>2020-10-17T14:36:42Z</time>
      </trkpt>
      <trkpt lat="39.642470000" lon="-8.613320000">
        <ele>170.600000</ele>
        <time>2020-10-17T14:36:49Z</time>
      </trkpt>
      <trkpt lat="39.642422000" lon="-8.613353000">
        <ele>170.800000</ele>
        <time>2020-10-17T14:36:50Z</time>
      </trkpt>
      <trkpt lat="39.642375000" lon="-8.613385000">
        <ele>171.000000</ele>
        <time>2020-10-17T14:36:51Z</time>
      </trkpt>
      <trkpt lat="39.642234000" lon="-8.613481000">
        <ele>171.000000</ele>
        <time>2020-10-17T14:36:54Z</time>
      </trkpt>
      <trkpt lat="39.642139000" lon="-8.613551000">
        <ele>171.200000</ele>
        <time>2020-10-17T14:36:56Z</time>
      </trkpt>
      <trkpt lat="39.642049000" lon="-8.613618000">
        <ele>171.200000</ele>
        <time>2020-10-17T14:36:58Z</time>
      </trkpt>
      <trkpt lat="39.642002000" lon="-8.613648000">
        <ele>171.400000</ele>
        <time>2020-10-17T14:36:59Z</time>
      </trkpt>
      <trkpt lat="39.641631000" lon="-8.613814000">
        <ele>171.600000</ele>
        <time>2020-10-17T14:37:06Z</time>
      </trkpt>
      <trkpt lat="39.641574000" lon="-8.613820000">
        <ele>171.800000</ele>
        <time>2020-10-17T14:37:07Z</time>
      </trkpt>
      <trkpt lat="39.641519000" lon="-8.613822000">
        <ele>171.800000</ele>
        <time>2020-10-17T14:37:08Z</time>
      </trkpt>
      <trkpt lat="39.641347000" lon="-8.613804000">
        <ele>171.800000</ele>
        <time>2020-10-17T14:37:11Z</time>
      </trkpt>
      <trkpt lat="39.641170000" lon="-8.613777000">
        <ele>172.000000</ele>
        <time>2020-10-17T14:37:14Z</time>
      </trkpt>
      <trkpt lat="39.640998000" lon="-8.613748000">
        <ele>172.400000</ele>
        <time>2020-10-17T14:37:17Z</time>
      </trkpt>
      <trkpt lat="39.640943000" lon="-8.613735000">
        <ele>172.400000</ele>
        <time>2020-10-17T14:37:18Z</time>
      </trkpt>
      <trkpt lat="39.640888000" lon="-8.613720000">
        <ele>172.400000</ele>
        <time>2020-10-17T14:37:19Z</time>
      </trkpt>
      <trkpt lat="39.640832000" lon="-8.613706000">
        <ele>172.400000</ele>
        <time>2020-10-17T14:37:20Z</time>
      </trkpt>
      <trkpt lat="39.640777000" lon="-8.613696000">
        <ele>172.400000</ele>
        <time>2020-10-17T14:37:21Z</time>
      </trkpt>
      <trkpt lat="39.640721000" lon="-8.613684000">
        <ele>172.400000</ele>
        <time>2020-10-17T14:37:22Z</time>
      </trkpt>
      <trkpt lat="39.640667000" lon="-8.613672000">
        <ele>172.400000</ele>
        <time>2020-10-17T14:37:23Z</time>
      </trkpt>
      <trkpt lat="39.640611000" lon="-8.613657000">
        <ele>172.400000</ele>
        <time>2020-10-17T14:37:24Z</time>
      </trkpt>
      <trkpt lat="39.640561000" lon="-8.613647000">
        <ele>172.400000</ele>
        <time>2020-10-17T14:37:25Z</time>
      </trkpt>
      <trkpt lat="39.640509000" lon="-8.613635000">
        <ele>172.400000</ele>
        <time>2020-10-17T14:37:26Z</time>
      </trkpt>
      <trkpt lat="39.640455000" lon="-8.613619000">
        <ele>172.400000</ele>
        <time>2020-10-17T14:37:27Z</time>
      </trkpt>
      <trkpt lat="39.640401000" lon="-8.613603000">
        <ele>172.400000</ele>
        <time>2020-10-17T14:37:28Z</time>
      </trkpt>
      <trkpt lat="39.640298000" lon="-8.613561000">
        <ele>172.400000</ele>
        <time>2020-10-17T14:37:29Z</time>
      </trkpt>
      <trkpt lat="39.638708000" lon="-8.614384000">
        <ele>183.400000</ele>
        <time>2020-10-17T14:38:59Z</time>
      </trkpt>
      <trkpt lat="39.638689000" lon="-8.614410000">
        <ele>183.400000</ele>
        <time>2020-10-17T14:39:00Z</time>
      </trkpt>
      <trkpt lat="39.638576000" lon="-8.614553000">
        <ele>184.000000</ele>
        <time>2020-10-17T14:39:06Z</time>
      </trkpt>
      <trkpt lat="39.638532000" lon="-8.614614000">
        <ele>185.200000</ele>
        <time>2020-10-17T14:39:08Z</time>
      </trkpt>
      <trkpt lat="39.638483000" lon="-8.614678000">
        <ele>186.000000</ele>
        <time>2020-10-17T14:39:10Z</time>
      </trkpt>
      <trkpt lat="39.638395000" lon="-8.614804000">
        <ele>186.400000</ele>
        <time>2020-10-17T14:39:14Z</time>
      </trkpt>
      <trkpt lat="39.638373000" lon="-8.614834000">
        <ele>186.600000</ele>
        <time>2020-10-17T14:39:15Z</time>
      </trkpt>
      <trkpt lat="39.638310000" lon="-8.614921000">
        <ele>187.200000</ele>
        <time>2020-10-17T14:39:18Z</time>
      </trkpt>
      <trkpt lat="39.638289000" lon="-8.614950000">
        <ele>187.400000</ele>
        <time>2020-10-17T14:39:19Z</time>
      </trkpt>
      <trkpt lat="39.638246000" lon="-8.615008000">
        <ele>187.800000</ele>
        <time>2020-10-17T14:39:21Z</time>
      </trkpt>
      <trkpt lat="39.638226000" lon="-8.615036000">
        <ele>188.200000</ele>
        <time>2020-10-17T14:39:22Z</time>
      </trkpt>
      <trkpt lat="39.638207000" lon="-8.615065000">
        <ele>188.400000</ele>
        <time>2020-10-17T14:39:23Z</time>
      </trkpt>
      <trkpt lat="39.638190000" lon="-8.615091000">
        <ele>188.600000</ele>
        <time>2020-10-17T14:39:24Z</time>
      </trkpt>
      <trkpt lat="39.638173000" lon="-8.615117000">
        <ele>188.800000</ele>
        <time>2020-10-17T14:39:25Z</time>
      </trkpt>
      <trkpt lat="39.638153000" lon="-8.615144000">
        <ele>189.200000</ele>
        <time>2020-10-17T14:39:26Z</time>
      </trkpt>
      <trkpt lat="39.638133000" lon="-8.615167000">
        <ele>189.200000</ele>
        <time>2020-10-17T14:39:27Z</time>
      </trkpt>
      <trkpt lat="39.638110000" lon="-8.615189000">
        <ele>189.600000</ele>
        <time>2020-10-17T14:39:28Z</time>
      </trkpt>
      <trkpt lat="39.638086000" lon="-8.615213000">
        <ele>190.000000</ele>
        <time>2020-10-17T14:39:29Z</time>
      </trkpt>
      <trkpt lat="39.638062000" lon="-8.615240000">
        <ele>190.200000</ele>
        <time>2020-10-17T14:39:30Z</time>
      </trkpt>
      <trkpt lat="39.638036000" lon="-8.615266000">
        <ele>190.600000</ele>
        <time>2020-10-17T14:39:31Z</time>
      </trkpt>
      <trkpt lat="39.638005000" lon="-8.615296000">
        <ele>191.000000</ele>
        <time>2020-10-17T14:39:32Z</time>
      </trkpt>
      <trkpt lat="39.637982000" lon="-8.615314000">
        <ele>191.400000</ele>
        <time>2020-10-17T14:39:33Z</time>
      </trkpt>
      <trkpt lat="39.637962000" lon="-8.615331000">
        <ele>191.400000</ele>
        <time>2020-10-17T14:39:34Z</time>
      </trkpt>
      <trkpt lat="39.637946000" lon="-8.615347000">
        <ele>191.600000</ele>
        <time>2020-10-17T14:39:35Z</time>
      </trkpt>
      <trkpt lat="39.637936000" lon="-8.615358000">
        <ele>191.800000</ele>
        <time>2020-10-17T14:39:36Z</time>
      </trkpt>
      <trkpt lat="39.637934000" lon="-8.615366000">
        <ele>192.200000</ele>
        <time>2020-10-17T14:39:37Z</time>
      </trkpt>
      <trkpt lat="39.637928000" lon="-8.615369000">
        <ele>192.400000</ele>
        <time>2020-10-17T14:39:39Z</time>
      </trkpt>
      <trkpt lat="39.637854000" lon="-8.615416000">
        <ele>193.000000</ele>
        <time>2020-10-17T14:40:37Z</time>
      </trkpt>
      <trkpt lat="39.637829000" lon="-8.615425000">
        <ele>193.200000</ele>
        <time>2020-10-17T14:40:38Z</time>
      </trkpt>
      <trkpt lat="39.637801000" lon="-8.615437000">
        <ele>193.200000</ele>
        <time>2020-10-17T14:40:39Z</time>
      </trkpt>
      <trkpt lat="39.637703000" lon="-8.615463000">
        <ele>193.200000</ele>
        <time>2020-10-17T14:40:42Z</time>
      </trkpt>
      <trkpt lat="39.637664000" lon="-8.615469000">
        <ele>193.200000</ele>
        <time>2020-10-17T14:40:43Z</time>
      </trkpt>
      <trkpt lat="39.637621000" lon="-8.615476000">
        <ele>193.200000</ele>
        <time>2020-10-17T14:40:44Z</time>
      </trkpt>
      <trkpt lat="39.637574000" lon="-8.615484000">
        <ele>193.000000</ele>
        <time>2020-10-17T14:40:45Z</time>
      </trkpt>
      <trkpt lat="39.637516000" lon="-8.615491000">
        <ele>193.200000</ele>
        <time>2020-10-17T14:40:46Z</time>
      </trkpt>
      <trkpt lat="39.637399000" lon="-8.615521000">
        <ele>193.000000</ele>
        <time>2020-10-17T14:40:48Z</time>
      </trkpt>
      <trkpt lat="39.637338000" lon="-8.615559000">
        <ele>193.000000</ele>
        <time>2020-10-17T14:40:49Z</time>
      </trkpt>
      <trkpt lat="39.637286000" lon="-8.615610000">
        <ele>193.200000</ele>
        <time>2020-10-17T14:40:50Z</time>
      </trkpt>
      <trkpt lat="39.637239000" lon="-8.615657000">
        <ele>193.000000</ele>
        <time>2020-10-17T14:40:51Z</time>
      </trkpt>
      <trkpt lat="39.637190000" lon="-8.615688000">
        <ele>193.000000</ele>
        <time>2020-10-17T14:40:52Z</time>
      </trkpt>
      <trkpt lat="39.637140000" lon="-8.615700000">
        <ele>192.200000</ele>
        <time>2020-10-17T14:40:53Z</time>
      </trkpt>
      <trkpt lat="39.637092000" lon="-8.615697000">
        <ele>191.800000</ele>
        <time>2020-10-17T14:40:54Z</time>
      </trkpt>
      <trkpt lat="39.637049000" lon="-8.615684000">
        <ele>191.800000</ele>
        <time>2020-10-17T14:40:55Z</time>
      </trkpt>
      <trkpt lat="39.637009000" lon="-8.615668000">
        <ele>191.400000</ele>
        <time>2020-10-17T14:40:56Z</time>
      </trkpt>
      <trkpt lat="39.636968000" lon="-8.615653000">
        <ele>191.000000</ele>
        <time>2020-10-17T14:40:57Z</time>
      </trkpt>
      <trkpt lat="39.636929000" lon="-8.615639000">
        <ele>190.600000</ele>
        <time>2020-10-17T14:40:58Z</time>
      </trkpt>
      <trkpt lat="39.636893000" lon="-8.615628000">
        <ele>190.400000</ele>
        <time>2020-10-17T14:40:59Z</time>
      </trkpt>
      <trkpt lat="39.636856000" lon="-8.615614000">
        <ele>190.200000</ele>
        <time>2020-10-17T14:41:00Z</time>
      </trkpt>
      <trkpt lat="39.636820000" lon="-8.615603000">
        <ele>190.200000</ele>
        <time>2020-10-17T14:41:01Z</time>
      </trkpt>
      <trkpt lat="39.636782000" lon="-8.615591000">
        <ele>190.000000</ele>
        <time>2020-10-17T14:41:02Z</time>
      </trkpt>
      <trkpt lat="39.636740000" lon="-8.615577000">
        <ele>190.000000</ele>
        <time>2020-10-17T14:41:03Z</time>
      </trkpt>
      <trkpt lat="39.636704000" lon="-8.615567000">
        <ele>190.000000</ele>
        <time>2020-10-17T14:41:04Z</time>
      </trkpt>
      <trkpt lat="39.636665000" lon="-8.615562000">
        <ele>190.200000</ele>
        <time>2020-10-17T14:41:05Z</time>
      </trkpt>
      <trkpt lat="39.636581000" lon="-8.615567000">
        <ele>190.000000</ele>
        <time>2020-10-17T14:41:07Z</time>
      </trkpt>
      <trkpt lat="39.636544000" lon="-8.615574000">
        <ele>190.000000</ele>
        <time>2020-10-17T14:41:08Z</time>
      </trkpt>
      <trkpt lat="39.636509000" lon="-8.615582000">
        <ele>190.200000</ele>
        <time>2020-10-17T14:41:09Z</time>
      </trkpt>
      <trkpt lat="39.636475000" lon="-8.615593000">
        <ele>190.600000</ele>
        <time>2020-10-17T14:41:10Z</time>
      </trkpt>
      <trkpt lat="39.636442000" lon="-8.615603000">
        <ele>191.000000</ele>
        <time>2020-10-17T14:41:11Z</time>
      </trkpt>
      <trkpt lat="39.636411000" lon="-8.615614000">
        <ele>191.200000</ele>
        <time>2020-10-17T14:41:12Z</time>
      </trkpt>
      <trkpt lat="39.636383000" lon="-8.615627000">
        <ele>191.400000</ele>
        <time>2020-10-17T14:41:13Z</time>
      </trkpt>
      <trkpt lat="39.636355000" lon="-8.615641000">
        <ele>191.400000</ele>
        <time>2020-10-17T14:41:14Z</time>
      </trkpt>
      <trkpt lat="39.636265000" lon="-8.615681000">
        <ele>192.200000</ele>
        <time>2020-10-17T14:41:17Z</time>
      </trkpt>
      <trkpt lat="39.636233000" lon="-8.615692000">
        <ele>192.600000</ele>
        <time>2020-10-17T14:41:18Z</time>
      </trkpt>
      <trkpt lat="39.636201000" lon="-8.615703000">
        <ele>192.800000</ele>
        <time>2020-10-17T14:41:19Z</time>
      </trkpt>
      <trkpt lat="39.636167000" lon="-8.615716000">
        <ele>192.800000</ele>
        <time>2020-10-17T14:41:20Z</time>
      </trkpt>
      <trkpt lat="39.636137000" lon="-8.615730000">
        <ele>193.200000</ele>
        <time>2020-10-17T14:41:21Z</time>
      </trkpt>
      <trkpt lat="39.636106000" lon="-8.615742000">
        <ele>193.000000</ele>
        <time>2020-10-17T14:41:22Z</time>
      </trkpt>
      <trkpt lat="39.636073000" lon="-8.615754000">
        <ele>193.400000</ele>
        <time>2020-10-17T14:41:23Z</time>
      </trkpt>
      <trkpt lat="39.636040000" lon="-8.615765000">
        <ele>193.400000</ele>
        <time>2020-10-17T14:41:24Z</time>
      </trkpt>
      <trkpt lat="39.636007000" lon="-8.615779000">
        <ele>193.600000</ele>
        <time>2020-10-17T14:41:25Z</time>
      </trkpt>
      <trkpt lat="39.635977000" lon="-8.615790000">
        <ele>193.800000</ele>
        <time>2020-10-17T14:41:26Z</time>
      </trkpt>
      <trkpt lat="39.635951000" lon="-8.615798000">
        <ele>193.800000</ele>
        <time>2020-10-17T14:41:27Z</time>
      </trkpt>
      <trkpt lat="39.635924000" lon="-8.615805000">
        <ele>194.000000</ele>
        <time>2020-10-17T14:41:28Z</time>
      </trkpt>
      <trkpt lat="39.635902000" lon="-8.615817000">
        <ele>194.200000</ele>
        <time>2020-10-17T14:41:29Z</time>
      </trkpt>
      <trkpt lat="39.635886000" lon="-8.615833000">
        <ele>194.400000</ele>
        <time>2020-10-17T14:41:30Z</time>
      </trkpt>
      <trkpt lat="39.635870000" lon="-8.615855000">
        <ele>194.600000</ele>
        <time>2020-10-17T14:41:31Z</time>
      </trkpt>
      <trkpt lat="39.635860000" lon="-8.615882000">
        <ele>194.800000</ele>
        <time>2020-10-17T14:41:32Z</time>
      </trkpt>
      <trkpt lat="39.635852000" lon="-8.615910000">
        <ele>195.000000</ele>
        <time>2020-10-17T14:41:33Z</time>
      </trkpt>
      <trkpt lat="39.635844000" lon="-8.615936000">
        <ele>195.000000</ele>
        <time>2020-10-17T14:41:34Z</time>
      </trkpt>
      <trkpt lat="39.635834000" lon="-8.615968000">
        <ele>195.400000</ele>
        <time>2020-10-17T14:41:35Z</time>
      </trkpt>
      <trkpt lat="39.635822000" lon="-8.616000000">
        <ele>195.800000</ele>
        <time>2020-10-17T14:41:36Z</time>
      </trkpt>
      <trkpt lat="39.635810000" lon="-8.616025000">
        <ele>195.800000</ele>
        <time>2020-10-17T14:41:37Z</time>
      </trkpt>
      <trkpt lat="39.635799000" lon="-8.616050000">
        <ele>195.800000</ele>
        <time>2020-10-17T14:41:38Z</time>
      </trkpt>
      <trkpt lat="39.635789000" lon="-8.616074000">
        <ele>196.000000</ele>
        <time>2020-10-17T14:41:39Z</time>
      </trkpt>
      <trkpt lat="39.635778000" lon="-8.616101000">
        <ele>196.400000</ele>
        <time>2020-10-17T14:41:40Z</time>
      </trkpt>
      <trkpt lat="39.635766000" lon="-8.616124000">
        <ele>196.600000</ele>
        <time>2020-10-17T14:41:41Z</time>
      </trkpt>
      <trkpt lat="39.635754000" lon="-8.616153000">
        <ele>196.800000</ele>
        <time>2020-10-17T14:41:42Z</time>
      </trkpt>
      <trkpt lat="39.635745000" lon="-8.616183000">
        <ele>197.200000</ele>
        <time>2020-10-17T14:41:43Z</time>
      </trkpt>
      <trkpt lat="39.635737000" lon="-8.616213000">
        <ele>197.400000</ele>
        <time>2020-10-17T14:41:44Z</time>
      </trkpt>
      <trkpt lat="39.635726000" lon="-8.616246000">
        <ele>197.400000</ele>
        <time>2020-10-17T14:41:45Z</time>
      </trkpt>
      <trkpt lat="39.635715000" lon="-8.616280000">
        <ele>197.600000</ele>
        <time>2020-10-17T14:41:46Z</time>
      </trkpt>
      <trkpt lat="39.635703000" lon="-8.616307000">
        <ele>198.000000</ele>
        <time>2020-10-17T14:41:47Z</time>
      </trkpt>
      <trkpt lat="39.635692000" lon="-8.616333000">
        <ele>198.200000</ele>
        <time>2020-10-17T14:41:48Z</time>
      </trkpt>
      <trkpt lat="39.635685000" lon="-8.616354000">
        <ele>198.600000</ele>
        <time>2020-10-17T14:41:49Z</time>
      </trkpt>
      <trkpt lat="39.635679000" lon="-8.616374000">
        <ele>198.800000</ele>
        <time>2020-10-17T14:41:50Z</time>
      </trkpt>
      <trkpt lat="39.635672000" lon="-8.616396000">
        <ele>198.800000</ele>
        <time>2020-10-17T14:41:51Z</time>
      </trkpt>
      <trkpt lat="39.635663000" lon="-8.616418000">
        <ele>199.200000</ele>
        <time>2020-10-17T14:41:52Z</time>
      </trkpt>
      <trkpt lat="39.635655000" lon="-8.616438000">
        <ele>199.600000</ele>
        <time>2020-10-17T14:41:53Z</time>
      </trkpt>
      <trkpt lat="39.635645000" lon="-8.616459000">
        <ele>200.000000</ele>
        <time>2020-10-17T14:41:54Z</time>
      </trkpt>
      <trkpt lat="39.635636000" lon="-8.616486000">
        <ele>200.000000</ele>
        <time>2020-10-17T14:41:55Z</time>
      </trkpt>
      <trkpt lat="39.635630000" lon="-8.616510000">
        <ele>200.200000</ele>
        <time>2020-10-17T14:41:56Z</time>
      </trkpt>
      <trkpt lat="39.635620000" lon="-8.616537000">
        <ele>200.400000</ele>
        <time>2020-10-17T14:41:57Z</time>
      </trkpt>
      <trkpt lat="39.635607000" lon="-8.616564000">
        <ele>200.600000</ele>
        <time>2020-10-17T14:41:58Z</time>
      </trkpt>
      <trkpt lat="39.635596000" lon="-8.616588000">
        <ele>200.600000</ele>
        <time>2020-10-17T14:41:59Z</time>
      </trkpt>
      <trkpt lat="39.635582000" lon="-8.616612000">
        <ele>200.800000</ele>
        <time>2020-10-17T14:42:00Z</time>
      </trkpt>
      <trkpt lat="39.635568000" lon="-8.616637000">
        <ele>201.200000</ele>
        <time>2020-10-17T14:42:01Z</time>
      </trkpt>
      <trkpt lat="39.635553000" lon="-8.616669000">
        <ele>201.200000</ele>
        <time>2020-10-17T14:42:02Z</time>
      </trkpt>
      <trkpt lat="39.635539000" lon="-8.616700000">
        <ele>201.600000</ele>
        <time>2020-10-17T14:42:03Z</time>
      </trkpt>
      <trkpt lat="39.635531000" lon="-8.616721000">
        <ele>201.800000</ele>
        <time>2020-10-17T14:42:04Z</time>
      </trkpt>
      <trkpt lat="39.635522000" lon="-8.616747000">
        <ele>202.200000</ele>
        <time>2020-10-17T14:42:05Z</time>
      </trkpt>
      <trkpt lat="39.635516000" lon="-8.616778000">
        <ele>202.600000</ele>
        <time>2020-10-17T14:42:06Z</time>
      </trkpt>
      <trkpt lat="39.635509000" lon="-8.616808000">
        <ele>202.800000</ele>
        <time>2020-10-17T14:42:07Z</time>
      </trkpt>
      <trkpt lat="39.635500000" lon="-8.616837000">
        <ele>203.200000</ele>
        <time>2020-10-17T14:42:08Z</time>
      </trkpt>
      <trkpt lat="39.635491000" lon="-8.616867000">
        <ele>203.600000</ele>
        <time>2020-10-17T14:42:09Z</time>
      </trkpt>
      <trkpt lat="39.635482000" lon="-8.616896000">
        <ele>203.800000</ele>
        <time>2020-10-17T14:42:10Z</time>
      </trkpt>
      <trkpt lat="39.635473000" lon="-8.616928000">
        <ele>204.000000</ele>
        <time>2020-10-17T14:42:11Z</time>
      </trkpt>
      <trkpt lat="39.635462000" lon="-8.616977000">
        <ele>204.400000</ele>
        <time>2020-10-17T14:42:12Z</time>
      </trkpt>
      <trkpt lat="39.635461000" lon="-8.617025000">
        <ele>204.400000</ele>
        <time>2020-10-17T14:42:13Z</time>
      </trkpt>
      <trkpt lat="39.635463000" lon="-8.617079000">
        <ele>204.600000</ele>
        <time>2020-10-17T14:42:14Z</time>
      </trkpt>
      <trkpt lat="39.635477000" lon="-8.617122000">
        <ele>204.600000</ele>
        <time>2020-10-17T14:42:15Z</time>
      </trkpt>
      <trkpt lat="39.635492000" lon="-8.617162000">
        <ele>205.000000</ele>
        <time>2020-10-17T14:42:16Z</time>
      </trkpt>
      <trkpt lat="39.635513000" lon="-8.617195000">
        <ele>205.200000</ele>
        <time>2020-10-17T14:42:17Z</time>
      </trkpt>
      <trkpt lat="39.635538000" lon="-8.617232000">
        <ele>205.600000</ele>
        <time>2020-10-17T14:42:18Z</time>
      </trkpt>
      <trkpt lat="39.635568000" lon="-8.617277000">
        <ele>205.800000</ele>
        <time>2020-10-17T14:42:19Z</time>
      </trkpt>
      <trkpt lat="39.635597000" lon="-8.617323000">
        <ele>206.000000</ele>
        <time>2020-10-17T14:42:20Z</time>
      </trkpt>
      <trkpt lat="39.635627000" lon="-8.617376000">
        <ele>206.000000</ele>
        <time>2020-10-17T14:42:21Z</time>
      </trkpt>
      <trkpt lat="39.635657000" lon="-8.617433000">
        <ele>206.000000</ele>
        <time>2020-10-17T14:42:22Z</time>
      </trkpt>
      <trkpt lat="39.635686000" lon="-8.617495000">
        <ele>206.000000</ele>
        <time>2020-10-17T14:42:23Z</time>
      </trkpt>
      <trkpt lat="39.635717000" lon="-8.617562000">
        <ele>206.200000</ele>
        <time>2020-10-17T14:42:24Z</time>
      </trkpt>
      <trkpt lat="39.635749000" lon="-8.617632000">
        <ele>206.200000</ele>
        <time>2020-10-17T14:42:25Z</time>
      </trkpt>
      <trkpt lat="39.635782000" lon="-8.617703000">
        <ele>206.200000</ele>
        <time>2020-10-17T14:42:26Z</time>
      </trkpt>
      <trkpt lat="39.635806000" lon="-8.617774000">
        <ele>206.200000</ele>
        <time>2020-10-17T14:42:27Z</time>
      </trkpt>
      <trkpt lat="39.635810000" lon="-8.617842000">
        <ele>206.000000</ele>
        <time>2020-10-17T14:42:28Z</time>
      </trkpt>
      <trkpt lat="39.635799000" lon="-8.617908000">
        <ele>206.000000</ele>
        <time>2020-10-17T14:42:29Z</time>
      </trkpt>
      <trkpt lat="39.635773000" lon="-8.617983000">
        <ele>206.200000</ele>
        <time>2020-10-17T14:42:30Z</time>
      </trkpt>
      <trkpt lat="39.635745000" lon="-8.618063000">
        <ele>205.800000</ele>
        <time>2020-10-17T14:42:31Z</time>
      </trkpt>
      <trkpt lat="39.635717000" lon="-8.618148000">
        <ele>205.600000</ele>
        <time>2020-10-17T14:42:32Z</time>
      </trkpt>
      <trkpt lat="39.635646000" lon="-8.618318000">
        <ele>205.000000</ele>
        <time>2020-10-17T14:42:34Z</time>
      </trkpt>
      <trkpt lat="39.635603000" lon="-8.618387000">
        <ele>204.400000</ele>
        <time>2020-10-17T14:42:35Z</time>
      </trkpt>
      <trkpt lat="39.635555000" lon="-8.618446000">
        <ele>204.000000</ele>
        <time>2020-10-17T14:42:36Z</time>
      </trkpt>
      <trkpt lat="39.635498000" lon="-8.618490000">
        <ele>203.200000</ele>
        <time>2020-10-17T14:42:37Z</time>
      </trkpt>
      <trkpt lat="39.635440000" lon="-8.618532000">
        <ele>203.000000</ele>
        <time>2020-10-17T14:42:38Z</time>
      </trkpt>
      <trkpt lat="39.635381000" lon="-8.618561000">
        <ele>202.400000</ele>
        <time>2020-10-17T14:42:39Z</time>
      </trkpt>
      <trkpt lat="39.635326000" lon="-8.618591000">
        <ele>201.800000</ele>
        <time>2020-10-17T14:42:40Z</time>
      </trkpt>
      <trkpt lat="39.635271000" lon="-8.618621000">
        <ele>201.200000</ele>
        <time>2020-10-17T14:42:41Z</time>
      </trkpt>
      <trkpt lat="39.635092000" lon="-8.618684000">
        <ele>200.800000</ele>
        <time>2020-10-17T14:42:44Z</time>
      </trkpt>
      <trkpt lat="39.635028000" lon="-8.618683000">
        <ele>200.600000</ele>
        <time>2020-10-17T14:42:45Z</time>
      </trkpt>
      <trkpt lat="39.634962000" lon="-8.618668000">
        <ele>200.400000</ele>
        <time>2020-10-17T14:42:46Z</time>
      </trkpt>
      <trkpt lat="39.634902000" lon="-8.618639000">
        <ele>200.400000</ele>
        <time>2020-10-17T14:42:47Z</time>
      </trkpt>
      <trkpt lat="39.634836000" lon="-8.618592000">
        <ele>200.400000</ele>
        <time>2020-10-17T14:42:48Z</time>
      </trkpt>
      <trkpt lat="39.634772000" lon="-8.618538000">
        <ele>200.200000</ele>
        <time>2020-10-17T14:42:49Z</time>
      </trkpt>
      <trkpt lat="39.634711000" lon="-8.618480000">
        <ele>200.200000</ele>
        <time>2020-10-17T14:42:50Z</time>
      </trkpt>
      <trkpt lat="39.634603000" lon="-8.618359000">
        <ele>200.000000</ele>
        <time>2020-10-17T14:42:52Z</time>
      </trkpt>
      <trkpt lat="39.634555000" lon="-8.618295000">
        <ele>200.000000</ele>
        <time>2020-10-17T14:42:53Z</time>
      </trkpt>
      <trkpt lat="39.634506000" lon="-8.618231000">
        <ele>199.600000</ele>
        <time>2020-10-17T14:42:54Z</time>
      </trkpt>
      <trkpt lat="39.634459000" lon="-8.618167000">
        <ele>199.400000</ele>
        <time>2020-10-17T14:42:55Z</time>
      </trkpt>
      <trkpt lat="39.634363000" lon="-8.618035000">
        <ele>199.000000</ele>
        <time>2020-10-17T14:42:57Z</time>
      </trkpt>
      <trkpt lat="39.634152000" lon="-8.617764000">
        <ele>198.600000</ele>
        <time>2020-10-17T14:43:01Z</time>
      </trkpt>
      <trkpt lat="39.633823000" lon="-8.617435000">
        <ele>198.400000</ele>
        <time>2020-10-17T14:43:06Z</time>
      </trkpt>
      <trkpt lat="39.633759000" lon="-8.617381000">
        <ele>198.400000</ele>
        <time>2020-10-17T14:43:07Z</time>
      </trkpt>
      <trkpt lat="39.633694000" lon="-8.617346000">
        <ele>198.200000</ele>
        <time>2020-10-17T14:43:08Z</time>
      </trkpt>
      <trkpt lat="39.633632000" lon="-8.617336000">
        <ele>198.200000</ele>
        <time>2020-10-17T14:43:09Z</time>
      </trkpt>
      <trkpt lat="39.633558000" lon="-8.617342000">
        <ele>198.000000</ele>
        <time>2020-10-17T14:43:10Z</time>
      </trkpt>
      <trkpt lat="39.633499000" lon="-8.617373000">
        <ele>197.600000</ele>
        <time>2020-10-17T14:43:11Z</time>
      </trkpt>
      <trkpt lat="39.633457000" lon="-8.617425000">
        <ele>197.200000</ele>
        <time>2020-10-17T14:43:12Z</time>
      </trkpt>
      <trkpt lat="39.633425000" lon="-8.617490000">
        <ele>197.000000</ele>
        <time>2020-10-17T14:43:13Z</time>
      </trkpt>
      <trkpt lat="39.633381000" lon="-8.617621000">
        <ele>196.600000</ele>
        <time>2020-10-17T14:43:15Z</time>
      </trkpt>
      <trkpt lat="39.633370000" lon="-8.617684000">
        <ele>196.800000</ele>
        <time>2020-10-17T14:43:16Z</time>
      </trkpt>
      <trkpt lat="39.633361000" lon="-8.617738000">
        <ele>196.800000</ele>
        <time>2020-10-17T14:43:17Z</time>
      </trkpt>
      <trkpt lat="39.633354000" lon="-8.617790000">
        <ele>196.600000</ele>
        <time>2020-10-17T14:43:18Z</time>
      </trkpt>
      <trkpt lat="39.633347000" lon="-8.617839000">
        <ele>196.600000</ele>
        <time>2020-10-17T14:43:19Z</time>
      </trkpt>
      <trkpt lat="39.633341000" lon="-8.617882000">
        <ele>196.600000</ele>
        <time>2020-10-17T14:43:20Z</time>
      </trkpt>
      <trkpt lat="39.633335000" lon="-8.617916000">
        <ele>196.600000</ele>
        <time>2020-10-17T14:43:21Z</time>
      </trkpt>
      <trkpt lat="39.633323000" lon="-8.617944000">
        <ele>196.600000</ele>
        <time>2020-10-17T14:43:22Z</time>
      </trkpt>
      <trkpt lat="39.633302000" lon="-8.617977000">
        <ele>196.600000</ele>
        <time>2020-10-17T14:43:23Z</time>
      </trkpt>
      <trkpt lat="39.633276000" lon="-8.618000000">
        <ele>196.600000</ele>
        <time>2020-10-17T14:43:24Z</time>
      </trkpt>
      <trkpt lat="39.633246000" lon="-8.618014000">
        <ele>197.000000</ele>
        <time>2020-10-17T14:43:25Z</time>
      </trkpt>
      <trkpt lat="39.633125000" lon="-8.617971000">
        <ele>198.000000</ele>
        <time>2020-10-17T14:43:29Z</time>
      </trkpt>
      <trkpt lat="39.633098000" lon="-8.617948000">
        <ele>198.400000</ele>
        <time>2020-10-17T14:43:30Z</time>
      </trkpt>
      <trkpt lat="39.633070000" lon="-8.617926000">
        <ele>198.800000</ele>
        <time>2020-10-17T14:43:31Z</time>
      </trkpt>
      <trkpt lat="39.633047000" lon="-8.617903000">
        <ele>199.000000</ele>
        <time>2020-10-17T14:43:32Z</time>
      </trkpt>
      <trkpt lat="39.633029000" lon="-8.617883000">
        <ele>199.200000</ele>
        <time>2020-10-17T14:43:33Z</time>
      </trkpt>
      <trkpt lat="39.633011000" lon="-8.617862000">
        <ele>199.400000</ele>
        <time>2020-10-17T14:43:34Z</time>
      </trkpt>
      <trkpt lat="39.632993000" lon="-8.617846000">
        <ele>199.400000</ele>
        <time>2020-10-17T14:43:35Z</time>
      </trkpt>
      <trkpt lat="39.632978000" lon="-8.617837000">
        <ele>199.600000</ele>
        <time>2020-10-17T14:43:36Z</time>
      </trkpt>
      <trkpt lat="39.632959000" lon="-8.617833000">
        <ele>199.600000</ele>
        <time>2020-10-17T14:43:37Z</time>
      </trkpt>
      <trkpt lat="39.632940000" lon="-8.617833000">
        <ele>199.600000</ele>
        <time>2020-10-17T14:43:38Z</time>
      </trkpt>
      <trkpt lat="39.632923000" lon="-8.617839000">
        <ele>200.000000</ele>
        <time>2020-10-17T14:43:39Z</time>
      </trkpt>
      <trkpt lat="39.632908000" lon="-8.617846000">
        <ele>200.200000</ele>
        <time>2020-10-17T14:43:40Z</time>
      </trkpt>
      <trkpt lat="39.632893000" lon="-8.617857000">
        <ele>200.600000</ele>
        <time>2020-10-17T14:43:41Z</time>
      </trkpt>
      <trkpt lat="39.632877000" lon="-8.617871000">
        <ele>200.800000</ele>
        <time>2020-10-17T14:43:42Z</time>
      </trkpt>
      <trkpt lat="39.632863000" lon="-8.617885000">
        <ele>201.200000</ele>
        <time>2020-10-17T14:43:43Z</time>
      </trkpt>
      <trkpt lat="39.632849000" lon="-8.617901000">
        <ele>201.800000</ele>
        <time>2020-10-17T14:43:44Z</time>
      </trkpt>
      <trkpt lat="39.632832000" lon="-8.617917000">
        <ele>201.800000</ele>
        <time>2020-10-17T14:43:45Z</time>
      </trkpt>
      <trkpt lat="39.632814000" lon="-8.617937000">
        <ele>202.000000</ele>
        <time>2020-10-17T14:43:46Z</time>
      </trkpt>
      <trkpt lat="39.632799000" lon="-8.617956000">
        <ele>202.400000</ele>
        <time>2020-10-17T14:43:47Z</time>
      </trkpt>
      <trkpt lat="39.632781000" lon="-8.617974000">
        <ele>202.600000</ele>
        <time>2020-10-17T14:43:48Z</time>
      </trkpt>
      <trkpt lat="39.632763000" lon="-8.617992000">
        <ele>203.000000</ele>
        <time>2020-10-17T14:43:49Z</time>
      </trkpt>
      <trkpt lat="39.632747000" lon="-8.618011000">
        <ele>203.200000</ele>
        <time>2020-10-17T14:43:50Z</time>
      </trkpt>
      <trkpt lat="39.632729000" lon="-8.618028000">
        <ele>203.400000</ele>
        <time>2020-10-17T14:43:51Z</time>
      </trkpt>
      <trkpt lat="39.632711000" lon="-8.618047000">
        <ele>203.800000</ele>
        <time>2020-10-17T14:43:52Z</time>
      </trkpt>
      <trkpt lat="39.632696000" lon="-8.618065000">
        <ele>204.000000</ele>
        <time>2020-10-17T14:43:53Z</time>
      </trkpt>
      <trkpt lat="39.632679000" lon="-8.618084000">
        <ele>204.400000</ele>
        <time>2020-10-17T14:43:54Z</time>
      </trkpt>
      <trkpt lat="39.632663000" lon="-8.618101000">
        <ele>204.600000</ele>
        <time>2020-10-17T14:43:55Z</time>
      </trkpt>
      <trkpt lat="39.632650000" lon="-8.618119000">
        <ele>205.000000</ele>
        <time>2020-10-17T14:43:56Z</time>
      </trkpt>
      <trkpt lat="39.632637000" lon="-8.618137000">
        <ele>205.400000</ele>
        <time>2020-10-17T14:43:57Z</time>
      </trkpt>
      <trkpt lat="39.632623000" lon="-8.618159000">
        <ele>205.800000</ele>
        <time>2020-10-17T14:43:58Z</time>
      </trkpt>
      <trkpt lat="39.632602000" lon="-8.618181000">
        <ele>206.000000</ele>
        <time>2020-10-17T14:43:59Z</time>
      </trkpt>
      <trkpt lat="39.632582000" lon="-8.618196000">
        <ele>206.400000</ele>
        <time>2020-10-17T14:44:00Z</time>
      </trkpt>
      <trkpt lat="39.632558000" lon="-8.618207000">
        <ele>206.600000</ele>
        <time>2020-10-17T14:44:01Z</time>
      </trkpt>
      <trkpt lat="39.632537000" lon="-8.618219000">
        <ele>206.800000</ele>
        <time>2020-10-17T14:44:02Z</time>
      </trkpt>
      <trkpt lat="39.632517000" lon="-8.618234000">
        <ele>207.000000</ele>
        <time>2020-10-17T14:44:03Z</time>
      </trkpt>
      <trkpt lat="39.632499000" lon="-8.618248000">
        <ele>207.200000</ele>
        <time>2020-10-17T14:44:04Z</time>
      </trkpt>
      <trkpt lat="39.632482000" lon="-8.618262000">
        <ele>207.400000</ele>
        <time>2020-10-17T14:44:05Z</time>
      </trkpt>
      <trkpt lat="39.632465000" lon="-8.618276000">
        <ele>207.400000</ele>
        <time>2020-10-17T14:44:06Z</time>
      </trkpt>
      <trkpt lat="39.632447000" lon="-8.618289000">
        <ele>207.800000</ele>
        <time>2020-10-17T14:44:07Z</time>
      </trkpt>
      <trkpt lat="39.632428000" lon="-8.618301000">
        <ele>208.000000</ele>
        <time>2020-10-17T14:44:08Z</time>
      </trkpt>
      <trkpt lat="39.632407000" lon="-8.618315000">
        <ele>208.200000</ele>
        <time>2020-10-17T14:44:09Z</time>
      </trkpt>
      <trkpt lat="39.632386000" lon="-8.618325000">
        <ele>208.200000</ele>
        <time>2020-10-17T14:44:10Z</time>
      </trkpt>
      <trkpt lat="39.632367000" lon="-8.618336000">
        <ele>208.400000</ele>
        <time>2020-10-17T14:44:11Z</time>
      </trkpt>
      <trkpt lat="39.632348000" lon="-8.618347000">
        <ele>208.400000</ele>
        <time>2020-10-17T14:44:12Z</time>
      </trkpt>
      <trkpt lat="39.632329000" lon="-8.618357000">
        <ele>208.400000</ele>
        <time>2020-10-17T14:44:13Z</time>
      </trkpt>
      <trkpt lat="39.632309000" lon="-8.618366000">
        <ele>208.800000</ele>
        <time>2020-10-17T14:44:14Z</time>
      </trkpt>
      <trkpt lat="39.632289000" lon="-8.618374000">
        <ele>209.000000</ele>
        <time>2020-10-17T14:44:15Z</time>
      </trkpt>
      <trkpt lat="39.632270000" lon="-8.618379000">
        <ele>209.200000</ele>
        <time>2020-10-17T14:44:16Z</time>
      </trkpt>
      <trkpt lat="39.632252000" lon="-8.618386000">
        <ele>209.400000</ele>
        <time>2020-10-17T14:44:17Z</time>
      </trkpt>
      <trkpt lat="39.632234000" lon="-8.618393000">
        <ele>209.800000</ele>
        <time>2020-10-17T14:44:18Z</time>
      </trkpt>
      <trkpt lat="39.632215000" lon="-8.618401000">
        <ele>210.000000</ele>
        <time>2020-10-17T14:44:19Z</time>
      </trkpt>
      <trkpt lat="39.632195000" lon="-8.618408000">
        <ele>210.200000</ele>
        <time>2020-10-17T14:44:20Z</time>
      </trkpt>
      <trkpt lat="39.632175000" lon="-8.618415000">
        <ele>210.400000</ele>
        <time>2020-10-17T14:44:21Z</time>
      </trkpt>
      <trkpt lat="39.632154000" lon="-8.618422000">
        <ele>210.600000</ele>
        <time>2020-10-17T14:44:22Z</time>
      </trkpt>
      <trkpt lat="39.632132000" lon="-8.618429000">
        <ele>210.600000</ele>
        <time>2020-10-17T14:44:23Z</time>
      </trkpt>
      <trkpt lat="39.632111000" lon="-8.618436000">
        <ele>210.800000</ele>
        <time>2020-10-17T14:44:24Z</time>
      </trkpt>
      <trkpt lat="39.632093000" lon="-8.618445000">
        <ele>210.800000</ele>
        <time>2020-10-17T14:44:25Z</time>
      </trkpt>
      <trkpt lat="39.632074000" lon="-8.618455000">
        <ele>211.000000</ele>
        <time>2020-10-17T14:44:26Z</time>
      </trkpt>
      <trkpt lat="39.632054000" lon="-8.618464000">
        <ele>211.000000</ele>
        <time>2020-10-17T14:44:27Z</time>
      </trkpt>
      <trkpt lat="39.632035000" lon="-8.618474000">
        <ele>211.200000</ele>
        <time>2020-10-17T14:44:28Z</time>
      </trkpt>
      <trkpt lat="39.632016000" lon="-8.618482000">
        <ele>211.800000</ele>
        <time>2020-10-17T14:44:29Z</time>
      </trkpt>
      <trkpt lat="39.631996000" lon="-8.618490000">
        <ele>211.800000</ele>
        <time>2020-10-17T14:44:30Z</time>
      </trkpt>
      <trkpt lat="39.631975000" lon="-8.618499000">
        <ele>212.000000</ele>
        <time>2020-10-17T14:44:31Z</time>
      </trkpt>
      <trkpt lat="39.631953000" lon="-8.618510000">
        <ele>212.400000</ele>
        <time>2020-10-17T14:44:32Z</time>
      </trkpt>
      <trkpt lat="39.631932000" lon="-8.618520000">
        <ele>212.400000</ele>
        <time>2020-10-17T14:44:33Z</time>
      </trkpt>
      <trkpt lat="39.631910000" lon="-8.618532000">
        <ele>212.400000</ele>
        <time>2020-10-17T14:44:34Z</time>
      </trkpt>
      <trkpt lat="39.631889000" lon="-8.618544000">
        <ele>212.800000</ele>
        <time>2020-10-17T14:44:35Z</time>
      </trkpt>
      <trkpt lat="39.631869000" lon="-8.618554000">
        <ele>212.800000</ele>
        <time>2020-10-17T14:44:36Z</time>
      </trkpt>
      <trkpt lat="39.631848000" lon="-8.618565000">
        <ele>213.000000</ele>
        <time>2020-10-17T14:44:37Z</time>
      </trkpt>
      <trkpt lat="39.631826000" lon="-8.618577000">
        <ele>213.200000</ele>
        <time>2020-10-17T14:44:38Z</time>
      </trkpt>
      <trkpt lat="39.631805000" lon="-8.618587000">
        <ele>213.400000</ele>
        <time>2020-10-17T14:44:39Z</time>
      </trkpt>
      <trkpt lat="39.631784000" lon="-8.618595000">
        <ele>213.400000</ele>
        <time>2020-10-17T14:44:40Z</time>
      </trkpt>
      <trkpt lat="39.631763000" lon="-8.618602000">
        <ele>213.400000</ele>
        <time>2020-10-17T14:44:41Z</time>
      </trkpt>
      <trkpt lat="39.631742000" lon="-8.618611000">
        <ele>213.600000</ele>
        <time>2020-10-17T14:44:42Z</time>
      </trkpt>
      <trkpt lat="39.631723000" lon="-8.618620000">
        <ele>213.800000</ele>
        <time>2020-10-17T14:44:43Z</time>
      </trkpt>
      <trkpt lat="39.631704000" lon="-8.618629000">
        <ele>214.000000</ele>
        <time>2020-10-17T14:44:44Z</time>
      </trkpt>
      <trkpt lat="39.631684000" lon="-8.618640000">
        <ele>214.200000</ele>
        <time>2020-10-17T14:44:45Z</time>
      </trkpt>
      <trkpt lat="39.631663000" lon="-8.618650000">
        <ele>214.000000</ele>
        <time>2020-10-17T14:44:46Z</time>
      </trkpt>
      <trkpt lat="39.631643000" lon="-8.618660000">
        <ele>214.400000</ele>
        <time>2020-10-17T14:44:47Z</time>
      </trkpt>
      <trkpt lat="39.631624000" lon="-8.618669000">
        <ele>214.600000</ele>
        <time>2020-10-17T14:44:48Z</time>
      </trkpt>
      <trkpt lat="39.631605000" lon="-8.618678000">
        <ele>214.600000</ele>
        <time>2020-10-17T14:44:49Z</time>
      </trkpt>
      <trkpt lat="39.631586000" lon="-8.618688000">
        <ele>214.800000</ele>
        <time>2020-10-17T14:44:50Z</time>
      </trkpt>
      <trkpt lat="39.631565000" lon="-8.618698000">
        <ele>214.800000</ele>
        <time>2020-10-17T14:44:51Z</time>
      </trkpt>
      <trkpt lat="39.631546000" lon="-8.618713000">
        <ele>215.000000</ele>
        <time>2020-10-17T14:44:52Z</time>
      </trkpt>
      <trkpt lat="39.631529000" lon="-8.618728000">
        <ele>215.200000</ele>
        <time>2020-10-17T14:44:53Z</time>
      </trkpt>
      <trkpt lat="39.631510000" lon="-8.618742000">
        <ele>215.400000</ele>
        <time>2020-10-17T14:44:54Z</time>
      </trkpt>
      <trkpt lat="39.631488000" lon="-8.618754000">
        <ele>215.600000</ele>
        <time>2020-10-17T14:44:55Z</time>
      </trkpt>
      <trkpt lat="39.631468000" lon="-8.618764000">
        <ele>215.800000</ele>
        <time>2020-10-17T14:44:56Z</time>
      </trkpt>
      <trkpt lat="39.631448000" lon="-8.618774000">
        <ele>216.000000</ele>
        <time>2020-10-17T14:44:57Z</time>
      </trkpt>
      <trkpt lat="39.631428000" lon="-8.618784000">
        <ele>216.200000</ele>
        <time>2020-10-17T14:44:58Z</time>
      </trkpt>
      <trkpt lat="39.631405000" lon="-8.618793000">
        <ele>216.200000</ele>
        <time>2020-10-17T14:44:59Z</time>
      </trkpt>
      <trkpt lat="39.631383000" lon="-8.618803000">
        <ele>216.400000</ele>
        <time>2020-10-17T14:45:00Z</time>
      </trkpt>
      <trkpt lat="39.631360000" lon="-8.618810000">
        <ele>216.600000</ele>
        <time>2020-10-17T14:45:01Z</time>
      </trkpt>
      <trkpt lat="39.631339000" lon="-8.618819000">
        <ele>217.000000</ele>
        <time>2020-10-17T14:45:02Z</time>
      </trkpt>
      <trkpt lat="39.631319000" lon="-8.618830000">
        <ele>217.200000</ele>
        <time>2020-10-17T14:45:03Z</time>
      </trkpt>
      <trkpt lat="39.631300000" lon="-8.618844000">
        <ele>217.200000</ele>
        <time>2020-10-17T14:45:04Z</time>
      </trkpt>
      <trkpt lat="39.631282000" lon="-8.618860000">
        <ele>217.400000</ele>
        <time>2020-10-17T14:45:05Z</time>
      </trkpt>
      <trkpt lat="39.631264000" lon="-8.618877000">
        <ele>217.600000</ele>
        <time>2020-10-17T14:45:06Z</time>
      </trkpt>
      <trkpt lat="39.631242000" lon="-8.618894000">
        <ele>217.600000</ele>
        <time>2020-10-17T14:45:07Z</time>
      </trkpt>
      <trkpt lat="39.631219000" lon="-8.618908000">
        <ele>218.000000</ele>
        <time>2020-10-17T14:45:08Z</time>
      </trkpt>
      <trkpt lat="39.631198000" lon="-8.618920000">
        <ele>218.000000</ele>
        <time>2020-10-17T14:45:09Z</time>
      </trkpt>
      <trkpt lat="39.631178000" lon="-8.618930000">
        <ele>218.000000</ele>
        <time>2020-10-17T14:45:10Z</time>
      </trkpt>
      <trkpt lat="39.631159000" lon="-8.618940000">
        <ele>218.000000</ele>
        <time>2020-10-17T14:45:11Z</time>
      </trkpt>
      <trkpt lat="39.631139000" lon="-8.618952000">
        <ele>218.200000</ele>
        <time>2020-10-17T14:45:12Z</time>
      </trkpt>
      <trkpt lat="39.631116000" lon="-8.618961000">
        <ele>218.400000</ele>
        <time>2020-10-17T14:45:13Z</time>
      </trkpt>
      <trkpt lat="39.631093000" lon="-8.618969000">
        <ele>218.800000</ele>
        <time>2020-10-17T14:45:14Z</time>
      </trkpt>
      <trkpt lat="39.631070000" lon="-8.618978000">
        <ele>219.000000</ele>
        <time>2020-10-17T14:45:15Z</time>
      </trkpt>
      <trkpt lat="39.631047000" lon="-8.618986000">
        <ele>219.200000</ele>
        <time>2020-10-17T14:45:16Z</time>
      </trkpt>
      <trkpt lat="39.631025000" lon="-8.618994000">
        <ele>219.400000</ele>
        <time>2020-10-17T14:45:17Z</time>
      </trkpt>
      <trkpt lat="39.631003000" lon="-8.619003000">
        <ele>219.400000</ele>
        <time>2020-10-17T14:45:18Z</time>
      </trkpt>
      <trkpt lat="39.630981000" lon="-8.619012000">
        <ele>219.800000</ele>
        <time>2020-10-17T14:45:19Z</time>
      </trkpt>
      <trkpt lat="39.630959000" lon="-8.619022000">
        <ele>220.000000</ele>
        <time>2020-10-17T14:45:20Z</time>
      </trkpt>
      <trkpt lat="39.630936000" lon="-8.619032000">
        <ele>220.200000</ele>
        <time>2020-10-17T14:45:21Z</time>
      </trkpt>
      <trkpt lat="39.630914000" lon="-8.619042000">
        <ele>220.600000</ele>
        <time>2020-10-17T14:45:22Z</time>
      </trkpt>
      <trkpt lat="39.630891000" lon="-8.619050000">
        <ele>220.600000</ele>
        <time>2020-10-17T14:45:23Z</time>
      </trkpt>
      <trkpt lat="39.630868000" lon="-8.619058000">
        <ele>221.000000</ele>
        <time>2020-10-17T14:45:24Z</time>
      </trkpt>
      <trkpt lat="39.630846000" lon="-8.619064000">
        <ele>221.200000</ele>
        <time>2020-10-17T14:45:25Z</time>
      </trkpt>
      <trkpt lat="39.630826000" lon="-8.619070000">
        <ele>221.600000</ele>
        <time>2020-10-17T14:45:26Z</time>
      </trkpt>
      <trkpt lat="39.630807000" lon="-8.619077000">
        <ele>221.600000</ele>
        <time>2020-10-17T14:45:27Z</time>
      </trkpt>
      <trkpt lat="39.630788000" lon="-8.619085000">
        <ele>221.800000</ele>
        <time>2020-10-17T14:45:28Z</time>
      </trkpt>
      <trkpt lat="39.630767000" lon="-8.619092000">
        <ele>222.000000</ele>
        <time>2020-10-17T14:45:29Z</time>
      </trkpt>
      <trkpt lat="39.630747000" lon="-8.619100000">
        <ele>222.200000</ele>
        <time>2020-10-17T14:45:30Z</time>
      </trkpt>
      <trkpt lat="39.630727000" lon="-8.619108000">
        <ele>222.200000</ele>
        <time>2020-10-17T14:45:31Z</time>
      </trkpt>
      <trkpt lat="39.630709000" lon="-8.619117000">
        <ele>222.400000</ele>
        <time>2020-10-17T14:45:32Z</time>
      </trkpt>
      <trkpt lat="39.630691000" lon="-8.619126000">
        <ele>222.800000</ele>
        <time>2020-10-17T14:45:33Z</time>
      </trkpt>
      <trkpt lat="39.630671000" lon="-8.619136000">
        <ele>223.200000</ele>
        <time>2020-10-17T14:45:34Z</time>
      </trkpt>
      <trkpt lat="39.630652000" lon="-8.619148000">
        <ele>223.400000</ele>
        <time>2020-10-17T14:45:35Z</time>
      </trkpt>
      <trkpt lat="39.630632000" lon="-8.619160000">
        <ele>223.600000</ele>
        <time>2020-10-17T14:45:36Z</time>
      </trkpt>
      <trkpt lat="39.630613000" lon="-8.619172000">
        <ele>223.800000</ele>
        <time>2020-10-17T14:45:37Z</time>
      </trkpt>
      <trkpt lat="39.630594000" lon="-8.619182000">
        <ele>223.800000</ele>
        <time>2020-10-17T14:45:38Z</time>
      </trkpt>
      <trkpt lat="39.630574000" lon="-8.619193000">
        <ele>224.000000</ele>
        <time>2020-10-17T14:45:39Z</time>
      </trkpt>
      <trkpt lat="39.630554000" lon="-8.619204000">
        <ele>224.200000</ele>
        <time>2020-10-17T14:45:40Z</time>
      </trkpt>
      <trkpt lat="39.630535000" lon="-8.619216000">
        <ele>224.400000</ele>
        <time>2020-10-17T14:45:41Z</time>
      </trkpt>
      <trkpt lat="39.630516000" lon="-8.619229000">
        <ele>224.800000</ele>
        <time>2020-10-17T14:45:42Z</time>
      </trkpt>
      <trkpt lat="39.630495000" lon="-8.619240000">
        <ele>224.800000</ele>
        <time>2020-10-17T14:45:43Z</time>
      </trkpt>
      <trkpt lat="39.630477000" lon="-8.619250000">
        <ele>225.200000</ele>
        <time>2020-10-17T14:45:44Z</time>
      </trkpt>
      <trkpt lat="39.630455000" lon="-8.619260000">
        <ele>225.400000</ele>
        <time>2020-10-17T14:45:45Z</time>
      </trkpt>
      <trkpt lat="39.630433000" lon="-8.619268000">
        <ele>225.600000</ele>
        <time>2020-10-17T14:45:46Z</time>
      </trkpt>
      <trkpt lat="39.630413000" lon="-8.619276000">
        <ele>225.800000</ele>
        <time>2020-10-17T14:45:47Z</time>
      </trkpt>
      <trkpt lat="39.630394000" lon="-8.619284000">
        <ele>226.200000</ele>
        <time>2020-10-17T14:45:48Z</time>
      </trkpt>
      <trkpt lat="39.630375000" lon="-8.619295000">
        <ele>226.400000</ele>
        <time>2020-10-17T14:45:49Z</time>
      </trkpt>
      <trkpt lat="39.630354000" lon="-8.619306000">
        <ele>226.400000</ele>
        <time>2020-10-17T14:45:50Z</time>
      </trkpt>
      <trkpt lat="39.630334000" lon="-8.619315000">
        <ele>226.400000</ele>
        <time>2020-10-17T14:45:51Z</time>
      </trkpt>
      <trkpt lat="39.630315000" lon="-8.619327000">
        <ele>226.400000</ele>
        <time>2020-10-17T14:45:52Z</time>
      </trkpt>
      <trkpt lat="39.630297000" lon="-8.619337000">
        <ele>226.800000</ele>
        <time>2020-10-17T14:45:53Z</time>
      </trkpt>
      <trkpt lat="39.630276000" lon="-8.619346000">
        <ele>226.800000</ele>
        <time>2020-10-17T14:45:54Z</time>
      </trkpt>
      <trkpt lat="39.630254000" lon="-8.619353000">
        <ele>226.800000</ele>
        <time>2020-10-17T14:45:55Z</time>
      </trkpt>
      <trkpt lat="39.630232000" lon="-8.619360000">
        <ele>227.200000</ele>
        <time>2020-10-17T14:45:56Z</time>
      </trkpt>
      <trkpt lat="39.630212000" lon="-8.619369000">
        <ele>227.200000</ele>
        <time>2020-10-17T14:45:57Z</time>
      </trkpt>
      <trkpt lat="39.630193000" lon="-8.619377000">
        <ele>227.400000</ele>
        <time>2020-10-17T14:45:58Z</time>
      </trkpt>
      <trkpt lat="39.630174000" lon="-8.619390000">
        <ele>227.600000</ele>
        <time>2020-10-17T14:45:59Z</time>
      </trkpt>
      <trkpt lat="39.630154000" lon="-8.619404000">
        <ele>227.800000</ele>
        <time>2020-10-17T14:46:00Z</time>
      </trkpt>
      <trkpt lat="39.630134000" lon="-8.619418000">
        <ele>228.000000</ele>
        <time>2020-10-17T14:46:01Z</time>
      </trkpt>
      <trkpt lat="39.630114000" lon="-8.619430000">
        <ele>228.400000</ele>
        <time>2020-10-17T14:46:02Z</time>
      </trkpt>
      <trkpt lat="39.630093000" lon="-8.619440000">
        <ele>228.800000</ele>
        <time>2020-10-17T14:46:03Z</time>
      </trkpt>
      <trkpt lat="39.630071000" lon="-8.619450000">
        <ele>228.800000</ele>
        <time>2020-10-17T14:46:04Z</time>
      </trkpt>
      <trkpt lat="39.630050000" lon="-8.619460000">
        <ele>229.200000</ele>
        <time>2020-10-17T14:46:05Z</time>
      </trkpt>
      <trkpt lat="39.630028000" lon="-8.619469000">
        <ele>229.400000</ele>
        <time>2020-10-17T14:46:06Z</time>
      </trkpt>
      <trkpt lat="39.630006000" lon="-8.619476000">
        <ele>229.600000</ele>
        <time>2020-10-17T14:46:07Z</time>
      </trkpt>
      <trkpt lat="39.629985000" lon="-8.619484000">
        <ele>230.000000</ele>
        <time>2020-10-17T14:46:08Z</time>
      </trkpt>
      <trkpt lat="39.629962000" lon="-8.619493000">
        <ele>229.800000</ele>
        <time>2020-10-17T14:46:09Z</time>
      </trkpt>
      <trkpt lat="39.629938000" lon="-8.619505000">
        <ele>230.000000</ele>
        <time>2020-10-17T14:46:10Z</time>
      </trkpt>
      <trkpt lat="39.629913000" lon="-8.619514000">
        <ele>230.000000</ele>
        <time>2020-10-17T14:46:11Z</time>
      </trkpt>
      <trkpt lat="39.629888000" lon="-8.619520000">
        <ele>230.200000</ele>
        <time>2020-10-17T14:46:12Z</time>
      </trkpt>
      <trkpt lat="39.629863000" lon="-8.619528000">
        <ele>230.200000</ele>
        <time>2020-10-17T14:46:13Z</time>
      </trkpt>
      <trkpt lat="39.629839000" lon="-8.619535000">
        <ele>230.400000</ele>
        <time>2020-10-17T14:46:14Z</time>
      </trkpt>
      <trkpt lat="39.629816000" lon="-8.619540000">
        <ele>230.600000</ele>
        <time>2020-10-17T14:46:15Z</time>
      </trkpt>
      <trkpt lat="39.629792000" lon="-8.619544000">
        <ele>230.800000</ele>
        <time>2020-10-17T14:46:16Z</time>
      </trkpt>
      <trkpt lat="39.629767000" lon="-8.619547000">
        <ele>230.800000</ele>
        <time>2020-10-17T14:46:17Z</time>
      </trkpt>
      <trkpt lat="39.629747000" lon="-8.619550000">
        <ele>231.200000</ele>
        <time>2020-10-17T14:46:18Z</time>
      </trkpt>
      <trkpt lat="39.629726000" lon="-8.619553000">
        <ele>231.200000</ele>
        <time>2020-10-17T14:46:19Z</time>
      </trkpt>
      <trkpt lat="39.629707000" lon="-8.619556000">
        <ele>231.400000</ele>
        <time>2020-10-17T14:46:20Z</time>
      </trkpt>
      <trkpt lat="39.629686000" lon="-8.619560000">
        <ele>231.600000</ele>
        <time>2020-10-17T14:46:21Z</time>
      </trkpt>
      <trkpt lat="39.629664000" lon="-8.619562000">
        <ele>231.800000</ele>
        <time>2020-10-17T14:46:22Z</time>
      </trkpt>
      <trkpt lat="39.629641000" lon="-8.619562000">
        <ele>231.800000</ele>
        <time>2020-10-17T14:46:23Z</time>
      </trkpt>
      <trkpt lat="39.629616000" lon="-8.619561000">
        <ele>232.200000</ele>
        <time>2020-10-17T14:46:24Z</time>
      </trkpt>
      <trkpt lat="39.629593000" lon="-8.619561000">
        <ele>232.400000</ele>
        <time>2020-10-17T14:46:25Z</time>
      </trkpt>
      <trkpt lat="39.629569000" lon="-8.619559000">
        <ele>232.600000</ele>
        <time>2020-10-17T14:46:26Z</time>
      </trkpt>
      <trkpt lat="39.629546000" lon="-8.619557000">
        <ele>232.600000</ele>
        <time>2020-10-17T14:46:27Z</time>
      </trkpt>
      <trkpt lat="39.629525000" lon="-8.619553000">
        <ele>232.800000</ele>
        <time>2020-10-17T14:46:28Z</time>
      </trkpt>
      <trkpt lat="39.629504000" lon="-8.619548000">
        <ele>233.000000</ele>
        <time>2020-10-17T14:46:29Z</time>
      </trkpt>
      <trkpt lat="39.629481000" lon="-8.619543000">
        <ele>233.200000</ele>
        <time>2020-10-17T14:46:30Z</time>
      </trkpt>
      <trkpt lat="39.629456000" lon="-8.619537000">
        <ele>233.600000</ele>
        <time>2020-10-17T14:46:31Z</time>
      </trkpt>
      <trkpt lat="39.629431000" lon="-8.619530000">
        <ele>233.800000</ele>
        <time>2020-10-17T14:46:32Z</time>
      </trkpt>
      <trkpt lat="39.629407000" lon="-8.619521000">
        <ele>233.800000</ele>
        <time>2020-10-17T14:46:33Z</time>
      </trkpt>
      <trkpt lat="39.629381000" lon="-8.619512000">
        <ele>233.800000</ele>
        <time>2020-10-17T14:46:34Z</time>
      </trkpt>
      <trkpt lat="39.629355000" lon="-8.619505000">
        <ele>234.000000</ele>
        <time>2020-10-17T14:46:35Z</time>
      </trkpt>
      <trkpt lat="39.629332000" lon="-8.619500000">
        <ele>234.200000</ele>
        <time>2020-10-17T14:46:36Z</time>
      </trkpt>
      <trkpt lat="39.629310000" lon="-8.619494000">
        <ele>234.400000</ele>
        <time>2020-10-17T14:46:37Z</time>
      </trkpt>
      <trkpt lat="39.629288000" lon="-8.619486000">
        <ele>234.600000</ele>
        <time>2020-10-17T14:46:38Z</time>
      </trkpt>
      <trkpt lat="39.629264000" lon="-8.619481000">
        <ele>234.600000</ele>
        <time>2020-10-17T14:46:39Z</time>
      </trkpt>
      <trkpt lat="39.629242000" lon="-8.619475000">
        <ele>234.800000</ele>
        <time>2020-10-17T14:46:40Z</time>
      </trkpt>
      <trkpt lat="39.629221000" lon="-8.619472000">
        <ele>235.000000</ele>
        <time>2020-10-17T14:46:41Z</time>
      </trkpt>
      <trkpt lat="39.629199000" lon="-8.619468000">
        <ele>235.000000</ele>
        <time>2020-10-17T14:46:42Z</time>
      </trkpt>
      <trkpt lat="39.629178000" lon="-8.619465000">
        <ele>235.200000</ele>
        <time>2020-10-17T14:46:43Z</time>
      </trkpt>
      <trkpt lat="39.629157000" lon="-8.619460000">
        <ele>235.200000</ele>
        <time>2020-10-17T14:46:44Z</time>
      </trkpt>
      <trkpt lat="39.629136000" lon="-8.619455000">
        <ele>235.400000</ele>
        <time>2020-10-17T14:46:45Z</time>
      </trkpt>
      <trkpt lat="39.629116000" lon="-8.619446000">
        <ele>235.400000</ele>
        <time>2020-10-17T14:46:46Z</time>
      </trkpt>
      <trkpt lat="39.629098000" lon="-8.619431000">
        <ele>235.600000</ele>
        <time>2020-10-17T14:46:47Z</time>
      </trkpt>
      <trkpt lat="39.629081000" lon="-8.619417000">
        <ele>235.800000</ele>
        <time>2020-10-17T14:46:48Z</time>
      </trkpt>
      <trkpt lat="39.629066000" lon="-8.619402000">
        <ele>236.000000</ele>
        <time>2020-10-17T14:46:49Z</time>
      </trkpt>
      <trkpt lat="39.629052000" lon="-8.619391000">
        <ele>236.000000</ele>
        <time>2020-10-17T14:46:50Z</time>
      </trkpt>
      <trkpt lat="39.629037000" lon="-8.619379000">
        <ele>236.200000</ele>
        <time>2020-10-17T14:46:51Z</time>
      </trkpt>
      <trkpt lat="39.629018000" lon="-8.619365000">
        <ele>236.400000</ele>
        <time>2020-10-17T14:46:52Z</time>
      </trkpt>
      <trkpt lat="39.628997000" lon="-8.619349000">
        <ele>236.600000</ele>
        <time>2020-10-17T14:46:53Z</time>
      </trkpt>
      <trkpt lat="39.628981000" lon="-8.619339000">
        <ele>237.000000</ele>
        <time>2020-10-17T14:46:54Z</time>
      </trkpt>
      <trkpt lat="39.628964000" lon="-8.619330000">
        <ele>237.200000</ele>
        <time>2020-10-17T14:46:55Z</time>
      </trkpt>
      <trkpt lat="39.628950000" lon="-8.619322000">
        <ele>237.200000</ele>
        <time>2020-10-17T14:46:56Z</time>
      </trkpt>
      <trkpt lat="39.628936000" lon="-8.619313000">
        <ele>237.600000</ele>
        <time>2020-10-17T14:46:57Z</time>
      </trkpt>
      <trkpt lat="39.628924000" lon="-8.619307000">
        <ele>237.600000</ele>
        <time>2020-10-17T14:46:58Z</time>
      </trkpt>
      <trkpt lat="39.628907000" lon="-8.619297000">
        <ele>237.800000</ele>
        <time>2020-10-17T14:46:59Z</time>
      </trkpt>
      <trkpt lat="39.628892000" lon="-8.619290000">
        <ele>238.000000</ele>
        <time>2020-10-17T14:47:00Z</time>
      </trkpt>
      <trkpt lat="39.628878000" lon="-8.619282000">
        <ele>238.400000</ele>
        <time>2020-10-17T14:47:01Z</time>
      </trkpt>
      <trkpt lat="39.628862000" lon="-8.619273000">
        <ele>238.600000</ele>
        <time>2020-10-17T14:47:02Z</time>
      </trkpt>
      <trkpt lat="39.628849000" lon="-8.619265000">
        <ele>238.800000</ele>
        <time>2020-10-17T14:47:03Z</time>
      </trkpt>
      <trkpt lat="39.628837000" lon="-8.619256000">
        <ele>239.000000</ele>
        <time>2020-10-17T14:47:04Z</time>
      </trkpt>
      <trkpt lat="39.628826000" lon="-8.619250000">
        <ele>239.400000</ele>
        <time>2020-10-17T14:47:05Z</time>
      </trkpt>
      <trkpt lat="39.628814000" lon="-8.619246000">
        <ele>239.800000</ele>
        <time>2020-10-17T14:47:06Z</time>
      </trkpt>
      <trkpt lat="39.628801000" lon="-8.619242000">
        <ele>240.000000</ele>
        <time>2020-10-17T14:47:07Z</time>
      </trkpt>
      <trkpt lat="39.628789000" lon="-8.619238000">
        <ele>240.400000</ele>
        <time>2020-10-17T14:47:08Z</time>
      </trkpt>
      <trkpt lat="39.628779000" lon="-8.619231000">
        <ele>240.600000</ele>
        <time>2020-10-17T14:47:09Z</time>
      </trkpt>
      <trkpt lat="39.628768000" lon="-8.619224000">
        <ele>241.000000</ele>
        <time>2020-10-17T14:47:10Z</time>
      </trkpt>
      <trkpt lat="39.628757000" lon="-8.619216000">
        <ele>241.400000</ele>
        <time>2020-10-17T14:47:11Z</time>
      </trkpt>
      <trkpt lat="39.628748000" lon="-8.619209000">
        <ele>241.400000</ele>
        <time>2020-10-17T14:47:12Z</time>
      </trkpt>
      <trkpt lat="39.628735000" lon="-8.619199000">
        <ele>242.000000</ele>
        <time>2020-10-17T14:47:13Z</time>
      </trkpt>
      <trkpt lat="39.628723000" lon="-8.619193000">
        <ele>242.400000</ele>
        <time>2020-10-17T14:47:14Z</time>
      </trkpt>
      <trkpt lat="39.628710000" lon="-8.619193000">
        <ele>242.400000</ele>
        <time>2020-10-17T14:47:15Z</time>
      </trkpt>
      <trkpt lat="39.628696000" lon="-8.619198000">
        <ele>242.800000</ele>
        <time>2020-10-17T14:47:16Z</time>
      </trkpt>
      <trkpt lat="39.628682000" lon="-8.619208000">
        <ele>242.800000</ele>
        <time>2020-10-17T14:47:17Z</time>
      </trkpt>
      <trkpt lat="39.628669000" lon="-8.619217000">
        <ele>243.000000</ele>
        <time>2020-10-17T14:47:18Z</time>
      </trkpt>
      <trkpt lat="39.628655000" lon="-8.619225000">
        <ele>243.600000</ele>
        <time>2020-10-17T14:47:19Z</time>
      </trkpt>
      <trkpt lat="39.628642000" lon="-8.619237000">
        <ele>244.200000</ele>
        <time>2020-10-17T14:47:20Z</time>
      </trkpt>
      <trkpt lat="39.628628000" lon="-8.619250000">
        <ele>244.400000</ele>
        <time>2020-10-17T14:47:21Z</time>
      </trkpt>
      <trkpt lat="39.628610000" lon="-8.619259000">
        <ele>244.600000</ele>
        <time>2020-10-17T14:47:22Z</time>
      </trkpt>
      <trkpt lat="39.628598000" lon="-8.619267000">
        <ele>244.800000</ele>
        <time>2020-10-17T14:47:23Z</time>
      </trkpt>
      <trkpt lat="39.628587000" lon="-8.619278000">
        <ele>244.800000</ele>
        <time>2020-10-17T14:47:24Z</time>
      </trkpt>
      <trkpt lat="39.628576000" lon="-8.619287000">
        <ele>245.000000</ele>
        <time>2020-10-17T14:47:25Z</time>
      </trkpt>
      <trkpt lat="39.628562000" lon="-8.619293000">
        <ele>245.000000</ele>
        <time>2020-10-17T14:47:26Z</time>
      </trkpt>
      <trkpt lat="39.628547000" lon="-8.619302000">
        <ele>245.200000</ele>
        <time>2020-10-17T14:47:27Z</time>
      </trkpt>
      <trkpt lat="39.628535000" lon="-8.619313000">
        <ele>245.400000</ele>
        <time>2020-10-17T14:47:28Z</time>
      </trkpt>
      <trkpt lat="39.628526000" lon="-8.619326000">
        <ele>245.600000</ele>
        <time>2020-10-17T14:47:29Z</time>
      </trkpt>
      <trkpt lat="39.628520000" lon="-8.619340000">
        <ele>245.600000</ele>
        <time>2020-10-17T14:47:30Z</time>
      </trkpt>
      <trkpt lat="39.628514000" lon="-8.619355000">
        <ele>245.800000</ele>
        <time>2020-10-17T14:47:31Z</time>
      </trkpt>
      <trkpt lat="39.628509000" lon="-8.619369000">
        <ele>246.200000</ele>
        <time>2020-10-17T14:47:32Z</time>
      </trkpt>
      <trkpt lat="39.628504000" lon="-8.619378000">
        <ele>246.200000</ele>
        <time>2020-10-17T14:47:33Z</time>
      </trkpt>
      <trkpt lat="39.628497000" lon="-8.619389000">
        <ele>246.400000</ele>
        <time>2020-10-17T14:47:34Z</time>
      </trkpt>
      <trkpt lat="39.628485000" lon="-8.619400000">
        <ele>246.800000</ele>
        <time>2020-10-17T14:47:35Z</time>
      </trkpt>
      <trkpt lat="39.628477000" lon="-8.619411000">
        <ele>247.000000</ele>
        <time>2020-10-17T14:47:36Z</time>
      </trkpt>
      <trkpt lat="39.628468000" lon="-8.619420000">
        <ele>247.200000</ele>
        <time>2020-10-17T14:47:37Z</time>
      </trkpt>
      <trkpt lat="39.628459000" lon="-8.619430000">
        <ele>247.200000</ele>
        <time>2020-10-17T14:47:38Z</time>
      </trkpt>
      <trkpt lat="39.628449000" lon="-8.619443000">
        <ele>247.400000</ele>
        <time>2020-10-17T14:47:39Z</time>
      </trkpt>
      <trkpt lat="39.628438000" lon="-8.619457000">
        <ele>247.600000</ele>
        <time>2020-10-17T14:47:40Z</time>
      </trkpt>
      <trkpt lat="39.628426000" lon="-8.619472000">
        <ele>247.800000</ele>
        <time>2020-10-17T14:47:41Z</time>
      </trkpt>
      <trkpt lat="39.628417000" lon="-8.619487000">
        <ele>248.000000</ele>
        <time>2020-10-17T14:47:42Z</time>
      </trkpt>
      <trkpt lat="39.628411000" lon="-8.619502000">
        <ele>248.200000</ele>
        <time>2020-10-17T14:47:43Z</time>
      </trkpt>
      <trkpt lat="39.628404000" lon="-8.619515000">
        <ele>248.400000</ele>
        <time>2020-10-17T14:47:44Z</time>
      </trkpt>
      <trkpt lat="39.628396000" lon="-8.619528000">
        <ele>248.400000</ele>
        <time>2020-10-17T14:47:45Z</time>
      </trkpt>
      <trkpt lat="39.628388000" lon="-8.619542000">
        <ele>248.600000</ele>
        <time>2020-10-17T14:47:46Z</time>
      </trkpt>
      <trkpt lat="39.628379000" lon="-8.619556000">
        <ele>248.800000</ele>
        <time>2020-10-17T14:47:47Z</time>
      </trkpt>
      <trkpt lat="39.628368000" lon="-8.619569000">
        <ele>249.000000</ele>
        <time>2020-10-17T14:47:48Z</time>
      </trkpt>
      <trkpt lat="39.628353000" lon="-8.619582000">
        <ele>249.200000</ele>
        <time>2020-10-17T14:47:49Z</time>
      </trkpt>
      <trkpt lat="39.628341000" lon="-8.619593000">
        <ele>249.600000</ele>
        <time>2020-10-17T14:47:50Z</time>
      </trkpt>
      <trkpt lat="39.628329000" lon="-8.619606000">
        <ele>249.800000</ele>
        <time>2020-10-17T14:47:51Z</time>
      </trkpt>
      <trkpt lat="39.628319000" lon="-8.619621000">
        <ele>250.200000</ele>
        <time>2020-10-17T14:47:52Z</time>
      </trkpt>
      <trkpt lat="39.628308000" lon="-8.619633000">
        <ele>250.400000</ele>
        <time>2020-10-17T14:47:53Z</time>
      </trkpt>
      <trkpt lat="39.628295000" lon="-8.619643000">
        <ele>251.000000</ele>
        <time>2020-10-17T14:47:54Z</time>
      </trkpt>
      <trkpt lat="39.628281000" lon="-8.619653000">
        <ele>251.000000</ele>
        <time>2020-10-17T14:47:55Z</time>
      </trkpt>
      <trkpt lat="39.628267000" lon="-8.619661000">
        <ele>251.200000</ele>
        <time>2020-10-17T14:47:56Z</time>
      </trkpt>
      <trkpt lat="39.628255000" lon="-8.619668000">
        <ele>251.600000</ele>
        <time>2020-10-17T14:47:57Z</time>
      </trkpt>
      <trkpt lat="39.628242000" lon="-8.619675000">
        <ele>252.000000</ele>
        <time>2020-10-17T14:47:58Z</time>
      </trkpt>
      <trkpt lat="39.628229000" lon="-8.619684000">
        <ele>252.000000</ele>
        <time>2020-10-17T14:47:59Z</time>
      </trkpt>
      <trkpt lat="39.628215000" lon="-8.619694000">
        <ele>252.200000</ele>
        <time>2020-10-17T14:48:00Z</time>
      </trkpt>
      <trkpt lat="39.628201000" lon="-8.619703000">
        <ele>252.400000</ele>
        <time>2020-10-17T14:48:01Z</time>
      </trkpt>
      <trkpt lat="39.628186000" lon="-8.619713000">
        <ele>252.600000</ele>
        <time>2020-10-17T14:48:02Z</time>
      </trkpt>
      <trkpt lat="39.628172000" lon="-8.619720000">
        <ele>252.800000</ele>
        <time>2020-10-17T14:48:03Z</time>
      </trkpt>
      <trkpt lat="39.628159000" lon="-8.619730000">
        <ele>253.000000</ele>
        <time>2020-10-17T14:48:04Z</time>
      </trkpt>
      <trkpt lat="39.628147000" lon="-8.619739000">
        <ele>253.000000</ele>
        <time>2020-10-17T14:48:05Z</time>
      </trkpt>
      <trkpt lat="39.628135000" lon="-8.619749000">
        <ele>253.200000</ele>
        <time>2020-10-17T14:48:06Z</time>
      </trkpt>
      <trkpt lat="39.628119000" lon="-8.619761000">
        <ele>253.200000</ele>
        <time>2020-10-17T14:48:07Z</time>
      </trkpt>
      <trkpt lat="39.628105000" lon="-8.619768000">
        <ele>253.400000</ele>
        <time>2020-10-17T14:48:08Z</time>
      </trkpt>
      <trkpt lat="39.628091000" lon="-8.619778000">
        <ele>253.600000</ele>
        <time>2020-10-17T14:48:09Z</time>
      </trkpt>
      <trkpt lat="39.628076000" lon="-8.619788000">
        <ele>253.800000</ele>
        <time>2020-10-17T14:48:10Z</time>
      </trkpt>
      <trkpt lat="39.628058000" lon="-8.619797000">
        <ele>254.000000</ele>
        <time>2020-10-17T14:48:11Z</time>
      </trkpt>
      <trkpt lat="39.628041000" lon="-8.619806000">
        <ele>254.200000</ele>
        <time>2020-10-17T14:48:12Z</time>
      </trkpt>
      <trkpt lat="39.628027000" lon="-8.619815000">
        <ele>254.400000</ele>
        <time>2020-10-17T14:48:13Z</time>
      </trkpt>
      <trkpt lat="39.628011000" lon="-8.619823000">
        <ele>254.600000</ele>
        <time>2020-10-17T14:48:14Z</time>
      </trkpt>
      <trkpt lat="39.627995000" lon="-8.619834000">
        <ele>254.800000</ele>
        <time>2020-10-17T14:48:15Z</time>
      </trkpt>
      <trkpt lat="39.627980000" lon="-8.619845000">
        <ele>255.000000</ele>
        <time>2020-10-17T14:48:16Z</time>
      </trkpt>
      <trkpt lat="39.627963000" lon="-8.619854000">
        <ele>255.200000</ele>
        <time>2020-10-17T14:48:17Z</time>
      </trkpt>
      <trkpt lat="39.627947000" lon="-8.619863000">
        <ele>255.600000</ele>
        <time>2020-10-17T14:48:18Z</time>
      </trkpt>
      <trkpt lat="39.627933000" lon="-8.619876000">
        <ele>255.600000</ele>
        <time>2020-10-17T14:48:19Z</time>
      </trkpt>
      <trkpt lat="39.627920000" lon="-8.619890000">
        <ele>255.600000</ele>
        <time>2020-10-17T14:48:20Z</time>
      </trkpt>
      <trkpt lat="39.627907000" lon="-8.619902000">
        <ele>256.000000</ele>
        <time>2020-10-17T14:48:21Z</time>
      </trkpt>
      <trkpt lat="39.627893000" lon="-8.619915000">
        <ele>256.400000</ele>
        <time>2020-10-17T14:48:22Z</time>
      </trkpt>
      <trkpt lat="39.627878000" lon="-8.619929000">
        <ele>256.600000</ele>
        <time>2020-10-17T14:48:23Z</time>
      </trkpt>
      <trkpt lat="39.627863000" lon="-8.619942000">
        <ele>256.800000</ele>
        <time>2020-10-17T14:48:24Z</time>
      </trkpt>
      <trkpt lat="39.627848000" lon="-8.619955000">
        <ele>256.800000</ele>
        <time>2020-10-17T14:48:25Z</time>
      </trkpt>
      <trkpt lat="39.627833000" lon="-8.619966000">
        <ele>257.200000</ele>
        <time>2020-10-17T14:48:26Z</time>
      </trkpt>
      <trkpt lat="39.627817000" lon="-8.619977000">
        <ele>257.400000</ele>
        <time>2020-10-17T14:48:27Z</time>
      </trkpt>
      <trkpt lat="39.627803000" lon="-8.619988000">
        <ele>257.600000</ele>
        <time>2020-10-17T14:48:28Z</time>
      </trkpt>
      <trkpt lat="39.627789000" lon="-8.620002000">
        <ele>257.600000</ele>
        <time>2020-10-17T14:48:29Z</time>
      </trkpt>
      <trkpt lat="39.627779000" lon="-8.620014000">
        <ele>257.800000</ele>
        <time>2020-10-17T14:48:30Z</time>
      </trkpt>
      <trkpt lat="39.627766000" lon="-8.620029000">
        <ele>258.000000</ele>
        <time>2020-10-17T14:48:31Z</time>
      </trkpt>
      <trkpt lat="39.627751000" lon="-8.620045000">
        <ele>258.000000</ele>
        <time>2020-10-17T14:48:32Z</time>
      </trkpt>
      <trkpt lat="39.627738000" lon="-8.620063000">
        <ele>258.200000</ele>
        <time>2020-10-17T14:48:33Z</time>
      </trkpt>
      <trkpt lat="39.627725000" lon="-8.620083000">
        <ele>258.200000</ele>
        <time>2020-10-17T14:48:34Z</time>
      </trkpt>
      <trkpt lat="39.627713000" lon="-8.620100000">
        <ele>258.400000</ele>
        <time>2020-10-17T14:48:35Z</time>
      </trkpt>
      <trkpt lat="39.627700000" lon="-8.620115000">
        <ele>258.400000</ele>
        <time>2020-10-17T14:48:36Z</time>
      </trkpt>
      <trkpt lat="39.627688000" lon="-8.620130000">
        <ele>258.800000</ele>
        <time>2020-10-17T14:48:37Z</time>
      </trkpt>
      <trkpt lat="39.627677000" lon="-8.620145000">
        <ele>258.800000</ele>
        <time>2020-10-17T14:48:38Z</time>
      </trkpt>
      <trkpt lat="39.627666000" lon="-8.620161000">
        <ele>259.000000</ele>
        <time>2020-10-17T14:48:39Z</time>
      </trkpt>
      <trkpt lat="39.627652000" lon="-8.620178000">
        <ele>259.200000</ele>
        <time>2020-10-17T14:48:40Z</time>
      </trkpt>
      <trkpt lat="39.627639000" lon="-8.620197000">
        <ele>259.200000</ele>
        <time>2020-10-17T14:48:41Z</time>
      </trkpt>
      <trkpt lat="39.627625000" lon="-8.620217000">
        <ele>259.200000</ele>
        <time>2020-10-17T14:48:42Z</time>
      </trkpt>
      <trkpt lat="39.627610000" lon="-8.620235000">
        <ele>259.400000</ele>
        <time>2020-10-17T14:48:43Z</time>
      </trkpt>
      <trkpt lat="39.627595000" lon="-8.620252000">
        <ele>259.600000</ele>
        <time>2020-10-17T14:48:44Z</time>
      </trkpt>
      <trkpt lat="39.627580000" lon="-8.620268000">
        <ele>260.000000</ele>
        <time>2020-10-17T14:48:45Z</time>
      </trkpt>
      <trkpt lat="39.627566000" lon="-8.620282000">
        <ele>260.000000</ele>
        <time>2020-10-17T14:48:46Z</time>
      </trkpt>
      <trkpt lat="39.627552000" lon="-8.620295000">
        <ele>260.200000</ele>
        <time>2020-10-17T14:48:47Z</time>
      </trkpt>
      <trkpt lat="39.627540000" lon="-8.620308000">
        <ele>260.400000</ele>
        <time>2020-10-17T14:48:48Z</time>
      </trkpt>
      <trkpt lat="39.627528000" lon="-8.620321000">
        <ele>260.600000</ele>
        <time>2020-10-17T14:48:49Z</time>
      </trkpt>
      <trkpt lat="39.627516000" lon="-8.620335000">
        <ele>261.000000</ele>
        <time>2020-10-17T14:48:50Z</time>
      </trkpt>
      <trkpt lat="39.627503000" lon="-8.620349000">
        <ele>261.000000</ele>
        <time>2020-10-17T14:48:51Z</time>
      </trkpt>
      <trkpt lat="39.627493000" lon="-8.620360000">
        <ele>261.200000</ele>
        <time>2020-10-17T14:48:52Z</time>
      </trkpt>
      <trkpt lat="39.627484000" lon="-8.620368000">
        <ele>261.400000</ele>
        <time>2020-10-17T14:48:53Z</time>
      </trkpt>
      <trkpt lat="39.627471000" lon="-8.620378000">
        <ele>261.400000</ele>
        <time>2020-10-17T14:48:54Z</time>
      </trkpt>
      <trkpt lat="39.627456000" lon="-8.620389000">
        <ele>261.600000</ele>
        <time>2020-10-17T14:48:55Z</time>
      </trkpt>
      <trkpt lat="39.627442000" lon="-8.620402000">
        <ele>261.800000</ele>
        <time>2020-10-17T14:48:56Z</time>
      </trkpt>
      <trkpt lat="39.627428000" lon="-8.620417000">
        <ele>262.000000</ele>
        <time>2020-10-17T14:48:57Z</time>
      </trkpt>
      <trkpt lat="39.627415000" lon="-8.620435000">
        <ele>262.200000</ele>
        <time>2020-10-17T14:48:58Z</time>
      </trkpt>
      <trkpt lat="39.627405000" lon="-8.620453000">
        <ele>262.400000</ele>
        <time>2020-10-17T14:48:59Z</time>
      </trkpt>
      <trkpt lat="39.627397000" lon="-8.620472000">
        <ele>262.800000</ele>
        <time>2020-10-17T14:49:00Z</time>
      </trkpt>
      <trkpt lat="39.627390000" lon="-8.620495000">
        <ele>263.000000</ele>
        <time>2020-10-17T14:49:01Z</time>
      </trkpt>
      <trkpt lat="39.627385000" lon="-8.620520000">
        <ele>263.400000</ele>
        <time>2020-10-17T14:49:02Z</time>
      </trkpt>
      <trkpt lat="39.627379000" lon="-8.620547000">
        <ele>263.400000</ele>
        <time>2020-10-17T14:49:03Z</time>
      </trkpt>
      <trkpt lat="39.627375000" lon="-8.620574000">
        <ele>263.800000</ele>
        <time>2020-10-17T14:49:04Z</time>
      </trkpt>
      <trkpt lat="39.627374000" lon="-8.620603000">
        <ele>263.800000</ele>
        <time>2020-10-17T14:49:05Z</time>
      </trkpt>
      <trkpt lat="39.627373000" lon="-8.620632000">
        <ele>264.200000</ele>
        <time>2020-10-17T14:49:06Z</time>
      </trkpt>
      <trkpt lat="39.627373000" lon="-8.620661000">
        <ele>264.400000</ele>
        <time>2020-10-17T14:49:07Z</time>
      </trkpt>
      <trkpt lat="39.627372000" lon="-8.620688000">
        <ele>264.600000</ele>
        <time>2020-10-17T14:49:08Z</time>
      </trkpt>
      <trkpt lat="39.627369000" lon="-8.620715000">
        <ele>264.800000</ele>
        <time>2020-10-17T14:49:09Z</time>
      </trkpt>
      <trkpt lat="39.627368000" lon="-8.620744000">
        <ele>265.000000</ele>
        <time>2020-10-17T14:49:10Z</time>
      </trkpt>
      <trkpt lat="39.627366000" lon="-8.620774000">
        <ele>265.400000</ele>
        <time>2020-10-17T14:49:11Z</time>
      </trkpt>
      <trkpt lat="39.627362000" lon="-8.620802000">
        <ele>265.600000</ele>
        <time>2020-10-17T14:49:12Z</time>
      </trkpt>
      <trkpt lat="39.627357000" lon="-8.620828000">
        <ele>265.800000</ele>
        <time>2020-10-17T14:49:13Z</time>
      </trkpt>
      <trkpt lat="39.627353000" lon="-8.620853000">
        <ele>266.200000</ele>
        <time>2020-10-17T14:49:14Z</time>
      </trkpt>
      <trkpt lat="39.627351000" lon="-8.620877000">
        <ele>266.200000</ele>
        <time>2020-10-17T14:49:15Z</time>
      </trkpt>
      <trkpt lat="39.627349000" lon="-8.620898000">
        <ele>266.800000</ele>
        <time>2020-10-17T14:49:16Z</time>
      </trkpt>
      <trkpt lat="39.627349000" lon="-8.620919000">
        <ele>267.000000</ele>
        <time>2020-10-17T14:49:17Z</time>
      </trkpt>
      <trkpt lat="39.627348000" lon="-8.620937000">
        <ele>267.200000</ele>
        <time>2020-10-17T14:49:18Z</time>
      </trkpt>
      <trkpt lat="39.627347000" lon="-8.620956000">
        <ele>267.400000</ele>
        <time>2020-10-17T14:49:19Z</time>
      </trkpt>
      <trkpt lat="39.627345000" lon="-8.620975000">
        <ele>267.600000</ele>
        <time>2020-10-17T14:49:20Z</time>
      </trkpt>
      <trkpt lat="39.627344000" lon="-8.620992000">
        <ele>267.800000</ele>
        <time>2020-10-17T14:49:21Z</time>
      </trkpt>
      <trkpt lat="39.627340000" lon="-8.621008000">
        <ele>268.400000</ele>
        <time>2020-10-17T14:49:22Z</time>
      </trkpt>
      <trkpt lat="39.627338000" lon="-8.621025000">
        <ele>268.600000</ele>
        <time>2020-10-17T14:49:23Z</time>
      </trkpt>
      <trkpt lat="39.627340000" lon="-8.621043000">
        <ele>268.600000</ele>
        <time>2020-10-17T14:49:24Z</time>
      </trkpt>
      <trkpt lat="39.627340000" lon="-8.621059000">
        <ele>268.800000</ele>
        <time>2020-10-17T14:49:25Z</time>
      </trkpt>
      <trkpt lat="39.627342000" lon="-8.621076000">
        <ele>269.000000</ele>
        <time>2020-10-17T14:49:26Z</time>
      </trkpt>
      <trkpt lat="39.627346000" lon="-8.621094000">
        <ele>269.400000</ele>
        <time>2020-10-17T14:49:27Z</time>
      </trkpt>
      <trkpt lat="39.627349000" lon="-8.621110000">
        <ele>269.600000</ele>
        <time>2020-10-17T14:49:28Z</time>
      </trkpt>
      <trkpt lat="39.627350000" lon="-8.621129000">
        <ele>269.800000</ele>
        <time>2020-10-17T14:49:29Z</time>
      </trkpt>
      <trkpt lat="39.627349000" lon="-8.621144000">
        <ele>270.200000</ele>
        <time>2020-10-17T14:49:30Z</time>
      </trkpt>
      <trkpt lat="39.627346000" lon="-8.621159000">
        <ele>270.600000</ele>
        <time>2020-10-17T14:49:31Z</time>
      </trkpt>
      <trkpt lat="39.627339000" lon="-8.621172000">
        <ele>271.000000</ele>
        <time>2020-10-17T14:49:32Z</time>
      </trkpt>
      <trkpt lat="39.627331000" lon="-8.621180000">
        <ele>271.000000</ele>
        <time>2020-10-17T14:49:33Z</time>
      </trkpt>
      <trkpt lat="39.627319000" lon="-8.621186000">
        <ele>271.200000</ele>
        <time>2020-10-17T14:49:34Z</time>
      </trkpt>
      <trkpt lat="39.627307000" lon="-8.621184000">
        <ele>271.600000</ele>
        <time>2020-10-17T14:49:35Z</time>
      </trkpt>
      <trkpt lat="39.627293000" lon="-8.621181000">
        <ele>271.800000</ele>
        <time>2020-10-17T14:49:36Z</time>
      </trkpt>
      <trkpt lat="39.627280000" lon="-8.621173000">
        <ele>272.200000</ele>
        <time>2020-10-17T14:49:37Z</time>
      </trkpt>
      <trkpt lat="39.627265000" lon="-8.621163000">
        <ele>272.400000</ele>
        <time>2020-10-17T14:49:38Z</time>
      </trkpt>
      <trkpt lat="39.627251000" lon="-8.621155000">
        <ele>272.800000</ele>
        <time>2020-10-17T14:49:39Z</time>
      </trkpt>
      <trkpt lat="39.627239000" lon="-8.621146000">
        <ele>273.000000</ele>
        <time>2020-10-17T14:49:40Z</time>
      </trkpt>
      <trkpt lat="39.627224000" lon="-8.621139000">
        <ele>273.200000</ele>
        <time>2020-10-17T14:49:41Z</time>
      </trkpt>
      <trkpt lat="39.627210000" lon="-8.621129000">
        <ele>273.800000</ele>
        <time>2020-10-17T14:49:42Z</time>
      </trkpt>
      <trkpt lat="39.627198000" lon="-8.621122000">
        <ele>274.000000</ele>
        <time>2020-10-17T14:49:43Z</time>
      </trkpt>
      <trkpt lat="39.627182000" lon="-8.621115000">
        <ele>274.400000</ele>
        <time>2020-10-17T14:49:44Z</time>
      </trkpt>
      <trkpt lat="39.627166000" lon="-8.621108000">
        <ele>274.400000</ele>
        <time>2020-10-17T14:49:45Z</time>
      </trkpt>
      <trkpt lat="39.627150000" lon="-8.621098000">
        <ele>274.600000</ele>
        <time>2020-10-17T14:49:46Z</time>
      </trkpt>
      <trkpt lat="39.627135000" lon="-8.621082000">
        <ele>274.800000</ele>
        <time>2020-10-17T14:49:47Z</time>
      </trkpt>
      <trkpt lat="39.627119000" lon="-8.621069000">
        <ele>275.000000</ele>
        <time>2020-10-17T14:49:48Z</time>
      </trkpt>
      <trkpt lat="39.627101000" lon="-8.621058000">
        <ele>275.000000</ele>
        <time>2020-10-17T14:49:49Z</time>
      </trkpt>
      <trkpt lat="39.627090000" lon="-8.621048000">
        <ele>275.000000</ele>
        <time>2020-10-17T14:49:50Z</time>
      </trkpt>
      <trkpt lat="39.627080000" lon="-8.621036000">
        <ele>275.200000</ele>
        <time>2020-10-17T14:49:51Z</time>
      </trkpt>
      <trkpt lat="39.627068000" lon="-8.621025000">
        <ele>275.000000</ele>
        <time>2020-10-17T14:49:52Z</time>
      </trkpt>
      <trkpt lat="39.627047000" lon="-8.621011000">
        <ele>275.200000</ele>
        <time>2020-10-17T14:49:53Z</time>
      </trkpt>
      <trkpt lat="39.627026000" lon="-8.620996000">
        <ele>275.400000</ele>
        <time>2020-10-17T14:49:54Z</time>
      </trkpt>
      <trkpt lat="39.627010000" lon="-8.620980000">
        <ele>275.400000</ele>
        <time>2020-10-17T14:49:55Z</time>
      </trkpt>
      <trkpt lat="39.626996000" lon="-8.620966000">
        <ele>275.600000</ele>
        <time>2020-10-17T14:49:56Z</time>
      </trkpt>
      <trkpt lat="39.626980000" lon="-8.620951000">
        <ele>275.800000</ele>
        <time>2020-10-17T14:49:57Z</time>
      </trkpt>
      <trkpt lat="39.626962000" lon="-8.620935000">
        <ele>276.000000</ele>
        <time>2020-10-17T14:49:58Z</time>
      </trkpt>
      <trkpt lat="39.626946000" lon="-8.620918000">
        <ele>276.200000</ele>
        <time>2020-10-17T14:49:59Z</time>
      </trkpt>
      <trkpt lat="39.626930000" lon="-8.620901000">
        <ele>276.200000</ele>
        <time>2020-10-17T14:50:00Z</time>
      </trkpt>
      <trkpt lat="39.626919000" lon="-8.620890000">
        <ele>276.600000</ele>
        <time>2020-10-17T14:50:01Z</time>
      </trkpt>
      <trkpt lat="39.626908000" lon="-8.620879000">
        <ele>276.800000</ele>
        <time>2020-10-17T14:50:02Z</time>
      </trkpt>
      <trkpt lat="39.626897000" lon="-8.620869000">
        <ele>277.000000</ele>
        <time>2020-10-17T14:50:03Z</time>
      </trkpt>
      <trkpt lat="39.626884000" lon="-8.620863000">
        <ele>277.200000</ele>
        <time>2020-10-17T14:50:04Z</time>
      </trkpt>
      <trkpt lat="39.626865000" lon="-8.620847000">
        <ele>277.400000</ele>
        <time>2020-10-17T14:50:05Z</time>
      </trkpt>
      <trkpt lat="39.626849000" lon="-8.620830000">
        <ele>277.400000</ele>
        <time>2020-10-17T14:50:06Z</time>
      </trkpt>
      <trkpt lat="39.626828000" lon="-8.620811000">
        <ele>277.400000</ele>
        <time>2020-10-17T14:50:07Z</time>
      </trkpt>
      <trkpt lat="39.626808000" lon="-8.620791000">
        <ele>277.600000</ele>
        <time>2020-10-17T14:50:08Z</time>
      </trkpt>
      <trkpt lat="39.626786000" lon="-8.620770000">
        <ele>277.800000</ele>
        <time>2020-10-17T14:50:09Z</time>
      </trkpt>
      <trkpt lat="39.626771000" lon="-8.620753000">
        <ele>278.200000</ele>
        <time>2020-10-17T14:50:10Z</time>
      </trkpt>
      <trkpt lat="39.626757000" lon="-8.620734000">
        <ele>278.400000</ele>
        <time>2020-10-17T14:50:11Z</time>
      </trkpt>
      <trkpt lat="39.626740000" lon="-8.620715000">
        <ele>278.400000</ele>
        <time>2020-10-17T14:50:12Z</time>
      </trkpt>
      <trkpt lat="39.626721000" lon="-8.620695000">
        <ele>278.600000</ele>
        <time>2020-10-17T14:50:13Z</time>
      </trkpt>
      <trkpt lat="39.626706000" lon="-8.620676000">
        <ele>278.800000</ele>
        <time>2020-10-17T14:50:14Z</time>
      </trkpt>
      <trkpt lat="39.626692000" lon="-8.620657000">
        <ele>278.800000</ele>
        <time>2020-10-17T14:50:15Z</time>
      </trkpt>
      <trkpt lat="39.626676000" lon="-8.620637000">
        <ele>279.000000</ele>
        <time>2020-10-17T14:50:16Z</time>
      </trkpt>
      <trkpt lat="39.626657000" lon="-8.620620000">
        <ele>279.200000</ele>
        <time>2020-10-17T14:50:17Z</time>
      </trkpt>
      <trkpt lat="39.626640000" lon="-8.620604000">
        <ele>279.400000</ele>
        <time>2020-10-17T14:50:18Z</time>
      </trkpt>
      <trkpt lat="39.626622000" lon="-8.620591000">
        <ele>279.800000</ele>
        <time>2020-10-17T14:50:19Z</time>
      </trkpt>
      <trkpt lat="39.626598000" lon="-8.620578000">
        <ele>279.800000</ele>
        <time>2020-10-17T14:50:20Z</time>
      </trkpt>
      <trkpt lat="39.626571000" lon="-8.620566000">
        <ele>280.000000</ele>
        <time>2020-10-17T14:50:21Z</time>
      </trkpt>
      <trkpt lat="39.626539000" lon="-8.620554000">
        <ele>280.200000</ele>
        <time>2020-10-17T14:50:22Z</time>
      </trkpt>
      <trkpt lat="39.626512000" lon="-8.620545000">
        <ele>280.200000</ele>
        <time>2020-10-17T14:50:23Z</time>
      </trkpt>
      <trkpt lat="39.626486000" lon="-8.620539000">
        <ele>280.200000</ele>
        <time>2020-10-17T14:50:24Z</time>
      </trkpt>
      <trkpt lat="39.626462000" lon="-8.620535000">
        <ele>280.400000</ele>
        <time>2020-10-17T14:50:25Z</time>
      </trkpt>
      <trkpt lat="39.626425000" lon="-8.620521000">
        <ele>280.400000</ele>
        <time>2020-10-17T14:50:26Z</time>
      </trkpt>
      <trkpt lat="39.626388000" lon="-8.620507000">
        <ele>280.600000</ele>
        <time>2020-10-17T14:50:27Z</time>
      </trkpt>
      <trkpt lat="39.626354000" lon="-8.620484000">
        <ele>280.600000</ele>
        <time>2020-10-17T14:50:28Z</time>
      </trkpt>
      <trkpt lat="39.626309000" lon="-8.620447000">
        <ele>280.600000</ele>
        <time>2020-10-17T14:50:29Z</time>
      </trkpt>
      <trkpt lat="39.626267000" lon="-8.620396000">
        <ele>280.600000</ele>
        <time>2020-10-17T14:50:30Z</time>
      </trkpt>
      <trkpt lat="39.626229000" lon="-8.620340000">
        <ele>280.600000</ele>
        <time>2020-10-17T14:50:31Z</time>
      </trkpt>
      <trkpt lat="39.626186000" lon="-8.620275000">
        <ele>280.600000</ele>
        <time>2020-10-17T14:50:32Z</time>
      </trkpt>
      <trkpt lat="39.626025000" lon="-8.620026000">
        <ele>280.600000</ele>
        <time>2020-10-17T14:50:36Z</time>
      </trkpt>
      <trkpt lat="39.625884000" lon="-8.619856000">
        <ele>280.400000</ele>
        <time>2020-10-17T14:50:39Z</time>
      </trkpt>
      <trkpt lat="39.625827000" lon="-8.619806000">
        <ele>280.200000</ele>
        <time>2020-10-17T14:50:40Z</time>
      </trkpt>
      <trkpt lat="39.625641000" lon="-8.619651000">
        <ele>279.200000</ele>
        <time>2020-10-17T14:50:43Z</time>
      </trkpt>
      <trkpt lat="39.625513000" lon="-8.619559000">
        <ele>278.800000</ele>
        <time>2020-10-17T14:50:45Z</time>
      </trkpt>
      <trkpt lat="39.625455000" lon="-8.619517000">
        <ele>278.600000</ele>
        <time>2020-10-17T14:50:46Z</time>
      </trkpt>
      <trkpt lat="39.625408000" lon="-8.619479000">
        <ele>278.200000</ele>
        <time>2020-10-17T14:50:47Z</time>
      </trkpt>
      <trkpt lat="39.625370000" lon="-8.619452000">
        <ele>278.000000</ele>
        <time>2020-10-17T14:50:48Z</time>
      </trkpt>
      <trkpt lat="39.625345000" lon="-8.619436000">
        <ele>278.000000</ele>
        <time>2020-10-17T14:50:49Z</time>
      </trkpt>
      <trkpt lat="39.625327000" lon="-8.619430000">
        <ele>277.800000</ele>
        <time>2020-10-17T14:50:50Z</time>
      </trkpt>
      <trkpt lat="39.625325000" lon="-8.619422000">
        <ele>277.400000</ele>
        <time>2020-10-17T14:50:51Z</time>
      </trkpt>
      <trkpt lat="39.625312000" lon="-8.619405000">
        <ele>277.000000</ele>
        <time>2020-10-17T14:50:52Z</time>
      </trkpt>
      <trkpt lat="39.625298000" lon="-8.619389000">
        <ele>276.400000</ele>
        <time>2020-10-17T14:50:53Z</time>
      </trkpt>
      <trkpt lat="39.625285000" lon="-8.619372000">
        <ele>274.800000</ele>
        <time>2020-10-17T14:51:08Z</time>
      </trkpt>
      <trkpt lat="39.625271000" lon="-8.619356000">
        <ele>274.600000</ele>
        <time>2020-10-17T14:51:09Z</time>
      </trkpt>
      <trkpt lat="39.625235000" lon="-8.619325000">
        <ele>274.800000</ele>
        <time>2020-10-17T14:51:10Z</time>
      </trkpt>
      <trkpt lat="39.625021000" lon="-8.619140000">
        <ele>274.600000</ele>
        <time>2020-10-17T14:51:15Z</time>
      </trkpt>
      <trkpt lat="39.624981000" lon="-8.619105000">
        <ele>274.400000</ele>
        <time>2020-10-17T14:51:16Z</time>
      </trkpt>
      <trkpt lat="39.624941000" lon="-8.619069000">
        <ele>274.600000</ele>
        <time>2020-10-17T14:51:17Z</time>
      </trkpt>
      <trkpt lat="39.624735000" lon="-8.618905000">
        <ele>274.200000</ele>
        <time>2020-10-17T14:51:22Z</time>
      </trkpt>
      <trkpt lat="39.624694000" lon="-8.618870000">
        <ele>274.200000</ele>
        <time>2020-10-17T14:51:23Z</time>
      </trkpt>
      <trkpt lat="39.624532000" lon="-8.618730000">
        <ele>273.800000</ele>
        <time>2020-10-17T14:51:27Z</time>
      </trkpt>
      <trkpt lat="39.624492000" lon="-8.618722000">
        <ele>273.600000</ele>
        <time>2020-10-17T14:51:28Z</time>
      </trkpt>
      <trkpt lat="39.624451000" lon="-8.618738000">
        <ele>273.800000</ele>
        <time>2020-10-17T14:51:29Z</time>
      </trkpt>
      <trkpt lat="39.624377000" lon="-8.618835000">
        <ele>273.600000</ele>
        <time>2020-10-17T14:51:31Z</time>
      </trkpt>
      <trkpt lat="39.624259000" lon="-8.619040000">
        <ele>273.400000</ele>
        <time>2020-10-17T14:51:34Z</time>
      </trkpt>
      <trkpt lat="39.624162000" lon="-8.619185000">
        <ele>273.000000</ele>
        <time>2020-10-17T14:51:36Z</time>
      </trkpt>
      <trkpt lat="39.623962000" lon="-8.619508000">
        <ele>272.000000</ele>
        <time>2020-10-17T14:51:40Z</time>
      </trkpt>
      <trkpt lat="39.623918000" lon="-8.619590000">
        <ele>271.400000</ele>
        <time>2020-10-17T14:51:41Z</time>
      </trkpt>
      <trkpt lat="39.623890000" lon="-8.619671000">
        <ele>271.000000</ele>
        <time>2020-10-17T14:51:42Z</time>
      </trkpt>
      <trkpt lat="39.623880000" lon="-8.619754000">
        <ele>270.800000</ele>
        <time>2020-10-17T14:51:43Z</time>
      </trkpt>
      <trkpt lat="39.623878000" lon="-8.619834000">
        <ele>270.400000</ele>
        <time>2020-10-17T14:51:44Z</time>
      </trkpt>
      <trkpt lat="39.623881000" lon="-8.619916000">
        <ele>269.800000</ele>
        <time>2020-10-17T14:51:45Z</time>
      </trkpt>
      <trkpt lat="39.623891000" lon="-8.619997000">
        <ele>269.400000</ele>
        <time>2020-10-17T14:51:46Z</time>
      </trkpt>
      <trkpt lat="39.623911000" lon="-8.620173000">
        <ele>268.200000</ele>
        <time>2020-10-17T14:51:48Z</time>
      </trkpt>
      <trkpt lat="39.623929000" lon="-8.620362000">
        <ele>267.600000</ele>
        <time>2020-10-17T14:51:50Z</time>
      </trkpt>
      <trkpt lat="39.623931000" lon="-8.620456000">
        <ele>267.200000</ele>
        <time>2020-10-17T14:51:51Z</time>
      </trkpt>
      <trkpt lat="39.623922000" lon="-8.620554000">
        <ele>267.000000</ele>
        <time>2020-10-17T14:51:52Z</time>
      </trkpt>
      <trkpt lat="39.623901000" lon="-8.620650000">
        <ele>266.800000</ele>
        <time>2020-10-17T14:51:53Z</time>
      </trkpt>
      <trkpt lat="39.623869000" lon="-8.620740000">
        <ele>266.400000</ele>
        <time>2020-10-17T14:51:54Z</time>
      </trkpt>
      <trkpt lat="39.623827000" lon="-8.620829000">
        <ele>265.800000</ele>
        <time>2020-10-17T14:51:55Z</time>
      </trkpt>
      <trkpt lat="39.623776000" lon="-8.620910000">
        <ele>265.400000</ele>
        <time>2020-10-17T14:51:56Z</time>
      </trkpt>
      <trkpt lat="39.623720000" lon="-8.620983000">
        <ele>264.800000</ele>
        <time>2020-10-17T14:51:57Z</time>
      </trkpt>
      <trkpt lat="39.623658000" lon="-8.621046000">
        <ele>264.200000</ele>
        <time>2020-10-17T14:51:58Z</time>
      </trkpt>
      <trkpt lat="39.623594000" lon="-8.621098000">
        <ele>263.400000</ele>
        <time>2020-10-17T14:51:59Z</time>
      </trkpt>
      <trkpt lat="39.623534000" lon="-8.621143000">
        <ele>263.400000</ele>
        <time>2020-10-17T14:52:00Z</time>
      </trkpt>
      <trkpt lat="39.623480000" lon="-8.621183000">
        <ele>262.600000</ele>
        <time>2020-10-17T14:52:01Z</time>
      </trkpt>
      <trkpt lat="39.623428000" lon="-8.621216000">
        <ele>262.000000</ele>
        <time>2020-10-17T14:52:02Z</time>
      </trkpt>
      <trkpt lat="39.623375000" lon="-8.621238000">
        <ele>261.200000</ele>
        <time>2020-10-17T14:52:03Z</time>
      </trkpt>
      <trkpt lat="39.623324000" lon="-8.621241000">
        <ele>260.400000</ele>
        <time>2020-10-17T14:52:04Z</time>
      </trkpt>
      <trkpt lat="39.623269000" lon="-8.621224000">
        <ele>259.600000</ele>
        <time>2020-10-17T14:52:05Z</time>
      </trkpt>
      <trkpt lat="39.623215000" lon="-8.621198000">
        <ele>258.800000</ele>
        <time>2020-10-17T14:52:06Z</time>
      </trkpt>
      <trkpt lat="39.623167000" lon="-8.621170000">
        <ele>258.200000</ele>
        <time>2020-10-17T14:52:07Z</time>
      </trkpt>
      <trkpt lat="39.623120000" lon="-8.621141000">
        <ele>257.600000</ele>
        <time>2020-10-17T14:52:08Z</time>
      </trkpt>
      <trkpt lat="39.622968000" lon="-8.621033000">
        <ele>255.600000</ele>
        <time>2020-10-17T14:52:11Z</time>
      </trkpt>
      <trkpt lat="39.622909000" lon="-8.621000000">
        <ele>255.200000</ele>
        <time>2020-10-17T14:52:12Z</time>
      </trkpt>
      <trkpt lat="39.622853000" lon="-8.620993000">
        <ele>254.600000</ele>
        <time>2020-10-17T14:52:13Z</time>
      </trkpt>
      <trkpt lat="39.622799000" lon="-8.621008000">
        <ele>254.400000</ele>
        <time>2020-10-17T14:52:14Z</time>
      </trkpt>
      <trkpt lat="39.622742000" lon="-8.621043000">
        <ele>253.600000</ele>
        <time>2020-10-17T14:52:15Z</time>
      </trkpt>
      <trkpt lat="39.622682000" lon="-8.621086000">
        <ele>253.400000</ele>
        <time>2020-10-17T14:52:16Z</time>
      </trkpt>
      <trkpt lat="39.622622000" lon="-8.621126000">
        <ele>253.400000</ele>
        <time>2020-10-17T14:52:17Z</time>
      </trkpt>
      <trkpt lat="39.622563000" lon="-8.621168000">
        <ele>253.200000</ele>
        <time>2020-10-17T14:52:18Z</time>
      </trkpt>
      <trkpt lat="39.622450000" lon="-8.621255000">
        <ele>253.000000</ele>
        <time>2020-10-17T14:52:20Z</time>
      </trkpt>
      <trkpt lat="39.622394000" lon="-8.621295000">
        <ele>252.800000</ele>
        <time>2020-10-17T14:52:21Z</time>
      </trkpt>
      <trkpt lat="39.622338000" lon="-8.621333000">
        <ele>252.800000</ele>
        <time>2020-10-17T14:52:22Z</time>
      </trkpt>
      <trkpt lat="39.622283000" lon="-8.621372000">
        <ele>252.800000</ele>
        <time>2020-10-17T14:52:23Z</time>
      </trkpt>
      <trkpt lat="39.622231000" lon="-8.621414000">
        <ele>252.200000</ele>
        <time>2020-10-17T14:52:24Z</time>
      </trkpt>
      <trkpt lat="39.622177000" lon="-8.621447000">
        <ele>252.000000</ele>
        <time>2020-10-17T14:52:25Z</time>
      </trkpt>
      <trkpt lat="39.622116000" lon="-8.621462000">
        <ele>251.400000</ele>
        <time>2020-10-17T14:52:26Z</time>
      </trkpt>
      <trkpt lat="39.622062000" lon="-8.621459000">
        <ele>251.200000</ele>
        <time>2020-10-17T14:52:27Z</time>
      </trkpt>
      <trkpt lat="39.622018000" lon="-8.621433000">
        <ele>251.000000</ele>
        <time>2020-10-17T14:52:28Z</time>
      </trkpt>
      <trkpt lat="39.621979000" lon="-8.621389000">
        <ele>250.800000</ele>
        <time>2020-10-17T14:52:29Z</time>
      </trkpt>
      <trkpt lat="39.621919000" lon="-8.621266000">
        <ele>250.600000</ele>
        <time>2020-10-17T14:52:31Z</time>
      </trkpt>
      <trkpt lat="39.621893000" lon="-8.621202000">
        <ele>250.400000</ele>
        <time>2020-10-17T14:52:32Z</time>
      </trkpt>
      <trkpt lat="39.621866000" lon="-8.621142000">
        <ele>250.400000</ele>
        <time>2020-10-17T14:52:33Z</time>
      </trkpt>
      <trkpt lat="39.621732000" lon="-8.620866000">
        <ele>250.000000</ele>
        <time>2020-10-17T14:52:37Z</time>
      </trkpt>
      <trkpt lat="39.621705000" lon="-8.620794000">
        <ele>250.000000</ele>
        <time>2020-10-17T14:52:38Z</time>
      </trkpt>
      <trkpt lat="39.621648000" lon="-8.620647000">
        <ele>249.600000</ele>
        <time>2020-10-17T14:52:40Z</time>
      </trkpt>
      <trkpt lat="39.621589000" lon="-8.620503000">
        <ele>249.400000</ele>
        <time>2020-10-17T14:52:42Z</time>
      </trkpt>
      <trkpt lat="39.621546000" lon="-8.620428000">
        <ele>249.400000</ele>
        <time>2020-10-17T14:52:43Z</time>
      </trkpt>
      <trkpt lat="39.621424000" lon="-8.620224000">
        <ele>249.200000</ele>
        <time>2020-10-17T14:52:46Z</time>
      </trkpt>
      <trkpt lat="39.621386000" lon="-8.620160000">
        <ele>249.200000</ele>
        <time>2020-10-17T14:52:47Z</time>
      </trkpt>
      <trkpt lat="39.621315000" lon="-8.620019000">
        <ele>249.000000</ele>
        <time>2020-10-17T14:52:49Z</time>
      </trkpt>
      <trkpt lat="39.621216000" lon="-8.619795000">
        <ele>248.000000</ele>
        <time>2020-10-17T14:52:52Z</time>
      </trkpt>
      <trkpt lat="39.621184000" lon="-8.619724000">
        <ele>247.800000</ele>
        <time>2020-10-17T14:52:53Z</time>
      </trkpt>
      <trkpt lat="39.621155000" lon="-8.619657000">
        <ele>247.800000</ele>
        <time>2020-10-17T14:52:54Z</time>
      </trkpt>
      <trkpt lat="39.621129000" lon="-8.619612000">
        <ele>247.600000</ele>
        <time>2020-10-17T14:52:55Z</time>
      </trkpt>
      <trkpt lat="39.621092000" lon="-8.619576000">
        <ele>247.400000</ele>
        <time>2020-10-17T14:52:56Z</time>
      </trkpt>
      <trkpt lat="39.621049000" lon="-8.619551000">
        <ele>247.400000</ele>
        <time>2020-10-17T14:52:57Z</time>
      </trkpt>
      <trkpt lat="39.621004000" lon="-8.619519000">
        <ele>247.200000</ele>
        <time>2020-10-17T14:52:58Z</time>
      </trkpt>
      <trkpt lat="39.620962000" lon="-8.619478000">
        <ele>247.200000</ele>
        <time>2020-10-17T14:52:59Z</time>
      </trkpt>
      <trkpt lat="39.620926000" lon="-8.619432000">
        <ele>247.200000</ele>
        <time>2020-10-17T14:53:00Z</time>
      </trkpt>
      <trkpt lat="39.620894000" lon="-8.619383000">
        <ele>247.200000</ele>
        <time>2020-10-17T14:53:01Z</time>
      </trkpt>
      <trkpt lat="39.620864000" lon="-8.619333000">
        <ele>247.000000</ele>
        <time>2020-10-17T14:53:02Z</time>
      </trkpt>
      <trkpt lat="39.620833000" lon="-8.619286000">
        <ele>246.800000</ele>
        <time>2020-10-17T14:53:03Z</time>
      </trkpt>
      <trkpt lat="39.620798000" lon="-8.619245000">
        <ele>246.600000</ele>
        <time>2020-10-17T14:53:04Z</time>
      </trkpt>
      <trkpt lat="39.620761000" lon="-8.619209000">
        <ele>246.600000</ele>
        <time>2020-10-17T14:53:05Z</time>
      </trkpt>
      <trkpt lat="39.620725000" lon="-8.619174000">
        <ele>246.600000</ele>
        <time>2020-10-17T14:53:06Z</time>
      </trkpt>
      <trkpt lat="39.620690000" lon="-8.619138000">
        <ele>246.600000</ele>
        <time>2020-10-17T14:53:07Z</time>
      </trkpt>
      <trkpt lat="39.620656000" lon="-8.619103000">
        <ele>246.600000</ele>
        <time>2020-10-17T14:53:08Z</time>
      </trkpt>
      <trkpt lat="39.620625000" lon="-8.619071000">
        <ele>246.200000</ele>
        <time>2020-10-17T14:53:09Z</time>
      </trkpt>
      <trkpt lat="39.620595000" lon="-8.619040000">
        <ele>246.200000</ele>
        <time>2020-10-17T14:53:10Z</time>
      </trkpt>
      <trkpt lat="39.620504000" lon="-8.618934000">
        <ele>245.600000</ele>
        <time>2020-10-17T14:53:13Z</time>
      </trkpt>
      <trkpt lat="39.620398000" lon="-8.618821000">
        <ele>245.400000</ele>
        <time>2020-10-17T14:53:16Z</time>
      </trkpt>
      <trkpt lat="39.620367000" lon="-8.618784000">
        <ele>245.000000</ele>
        <time>2020-10-17T14:53:17Z</time>
      </trkpt>
      <trkpt lat="39.620336000" lon="-8.618748000">
        <ele>245.000000</ele>
        <time>2020-10-17T14:53:18Z</time>
      </trkpt>
      <trkpt lat="39.620304000" lon="-8.618713000">
        <ele>245.000000</ele>
        <time>2020-10-17T14:53:19Z</time>
      </trkpt>
      <trkpt lat="39.620027000" lon="-8.618454000">
        <ele>244.600000</ele>
        <time>2020-10-17T14:53:26Z</time>
      </trkpt>
      <trkpt lat="39.619708000" lon="-8.618189000">
        <ele>244.200000</ele>
        <time>2020-10-17T14:53:33Z</time>
      </trkpt>
      <trkpt lat="39.619667000" lon="-8.618143000">
        <ele>244.200000</ele>
        <time>2020-10-17T14:53:34Z</time>
      </trkpt>
      <trkpt lat="39.619502000" lon="-8.617916000">
        <ele>244.200000</ele>
        <time>2020-10-17T14:53:38Z</time>
      </trkpt>
      <trkpt lat="39.619412000" lon="-8.617796000">
        <ele>244.200000</ele>
        <time>2020-10-17T14:53:40Z</time>
      </trkpt>
      <trkpt lat="39.619368000" lon="-8.617739000">
        <ele>244.200000</ele>
        <time>2020-10-17T14:53:41Z</time>
      </trkpt>
      <trkpt lat="39.619327000" lon="-8.617687000">
        <ele>244.000000</ele>
        <time>2020-10-17T14:53:42Z</time>
      </trkpt>
      <trkpt lat="39.619288000" lon="-8.617638000">
        <ele>243.800000</ele>
        <time>2020-10-17T14:53:43Z</time>
      </trkpt>
      <trkpt lat="39.619250000" lon="-8.617590000">
        <ele>243.600000</ele>
        <time>2020-10-17T14:53:44Z</time>
      </trkpt>
      <trkpt lat="39.619210000" lon="-8.617541000">
        <ele>243.600000</ele>
        <time>2020-10-17T14:53:45Z</time>
      </trkpt>
      <trkpt lat="39.619172000" lon="-8.617495000">
        <ele>243.600000</ele>
        <time>2020-10-17T14:53:46Z</time>
      </trkpt>
      <trkpt lat="39.619132000" lon="-8.617451000">
        <ele>243.600000</ele>
        <time>2020-10-17T14:53:47Z</time>
      </trkpt>
      <trkpt lat="39.619051000" lon="-8.617366000">
        <ele>243.200000</ele>
        <time>2020-10-17T14:53:49Z</time>
      </trkpt>
      <trkpt lat="39.618974000" lon="-8.617283000">
        <ele>243.200000</ele>
        <time>2020-10-17T14:53:51Z</time>
      </trkpt>
      <trkpt lat="39.618934000" lon="-8.617245000">
        <ele>243.000000</ele>
        <time>2020-10-17T14:53:52Z</time>
      </trkpt>
      <trkpt lat="39.618843000" lon="-8.617172000">
        <ele>242.800000</ele>
        <time>2020-10-17T14:53:54Z</time>
      </trkpt>
      <trkpt lat="39.618747000" lon="-8.617118000">
        <ele>242.600000</ele>
        <time>2020-10-17T14:53:56Z</time>
      </trkpt>
      <trkpt lat="39.618699000" lon="-8.617096000">
        <ele>242.600000</ele>
        <time>2020-10-17T14:53:57Z</time>
      </trkpt>
      <trkpt lat="39.618488000" lon="-8.616971000">
        <ele>241.800000</ele>
        <time>2020-10-17T14:54:01Z</time>
      </trkpt>
      <trkpt lat="39.618433000" lon="-8.616927000">
        <ele>241.600000</ele>
        <time>2020-10-17T14:54:02Z</time>
      </trkpt>
      <trkpt lat="39.618239000" lon="-8.616730000">
        <ele>241.200000</ele>
        <time>2020-10-17T14:54:06Z</time>
      </trkpt>
      <trkpt lat="39.618197000" lon="-8.616680000">
        <ele>241.200000</ele>
        <time>2020-10-17T14:54:07Z</time>
      </trkpt>
      <trkpt lat="39.618151000" lon="-8.616627000">
        <ele>241.200000</ele>
        <time>2020-10-17T14:54:08Z</time>
      </trkpt>
      <trkpt lat="39.618057000" lon="-8.616522000">
        <ele>241.000000</ele>
        <time>2020-10-17T14:54:10Z</time>
      </trkpt>
      <trkpt lat="39.617861000" lon="-8.616312000">
        <ele>240.800000</ele>
        <time>2020-10-17T14:54:14Z</time>
      </trkpt>
      <trkpt lat="39.617812000" lon="-8.616261000">
        <ele>240.600000</ele>
        <time>2020-10-17T14:54:15Z</time>
      </trkpt>
      <trkpt lat="39.617766000" lon="-8.616205000">
        <ele>240.600000</ele>
        <time>2020-10-17T14:54:16Z</time>
      </trkpt>
      <trkpt lat="39.617723000" lon="-8.616150000">
        <ele>240.600000</ele>
        <time>2020-10-17T14:54:17Z</time>
      </trkpt>
      <trkpt lat="39.617691000" lon="-8.616110000">
        <ele>240.400000</ele>
        <time>2020-10-17T14:54:18Z</time>
      </trkpt>
      <trkpt lat="39.617662000" lon="-8.616094000">
        <ele>240.400000</ele>
        <time>2020-10-17T14:54:19Z</time>
      </trkpt>
      <trkpt lat="39.617647000" lon="-8.616103000">
        <ele>240.200000</ele>
        <time>2020-10-17T14:54:20Z</time>
      </trkpt>
      <trkpt lat="39.617630000" lon="-8.616124000">
        <ele>240.200000</ele>
        <time>2020-10-17T14:54:21Z</time>
      </trkpt>
      <trkpt lat="39.617621000" lon="-8.616155000">
        <ele>240.000000</ele>
        <time>2020-10-17T14:54:22Z</time>
      </trkpt>
      <trkpt lat="39.617618000" lon="-8.616239000">
        <ele>239.600000</ele>
        <time>2020-10-17T14:54:24Z</time>
      </trkpt>
      <trkpt lat="39.617617000" lon="-8.616286000">
        <ele>239.600000</ele>
        <time>2020-10-17T14:54:25Z</time>
      </trkpt>
      <trkpt lat="39.617615000" lon="-8.616334000">
        <ele>239.600000</ele>
        <time>2020-10-17T14:54:26Z</time>
      </trkpt>
      <trkpt lat="39.617598000" lon="-8.616423000">
        <ele>239.600000</ele>
        <time>2020-10-17T14:54:28Z</time>
      </trkpt>
      <trkpt lat="39.617587000" lon="-8.616463000">
        <ele>239.600000</ele>
        <time>2020-10-17T14:54:29Z</time>
      </trkpt>
      <trkpt lat="39.617577000" lon="-8.616503000">
        <ele>239.600000</ele>
        <time>2020-10-17T14:54:30Z</time>
      </trkpt>
      <trkpt lat="39.617569000" lon="-8.616542000">
        <ele>239.600000</ele>
        <time>2020-10-17T14:54:31Z</time>
      </trkpt>
      <trkpt lat="39.617562000" lon="-8.616576000">
        <ele>239.600000</ele>
        <time>2020-10-17T14:54:32Z</time>
      </trkpt>
      <trkpt lat="39.617554000" lon="-8.616601000">
        <ele>239.600000</ele>
        <time>2020-10-17T14:54:33Z</time>
      </trkpt>
      <trkpt lat="39.617543000" lon="-8.616622000">
        <ele>239.800000</ele>
        <time>2020-10-17T14:54:34Z</time>
      </trkpt>
      <trkpt lat="39.617532000" lon="-8.616641000">
        <ele>240.200000</ele>
        <time>2020-10-17T14:54:35Z</time>
      </trkpt>
      <trkpt lat="39.617518000" lon="-8.616661000">
        <ele>240.200000</ele>
        <time>2020-10-17T14:54:36Z</time>
      </trkpt>
      <trkpt lat="39.617504000" lon="-8.616676000">
        <ele>240.400000</ele>
        <time>2020-10-17T14:54:37Z</time>
      </trkpt>
      <trkpt lat="39.617489000" lon="-8.616690000">
        <ele>240.400000</ele>
        <time>2020-10-17T14:54:38Z</time>
      </trkpt>
      <trkpt lat="39.617472000" lon="-8.616703000">
        <ele>240.400000</ele>
        <time>2020-10-17T14:54:39Z</time>
      </trkpt>
      <trkpt lat="39.617453000" lon="-8.616716000">
        <ele>240.800000</ele>
        <time>2020-10-17T14:54:40Z</time>
      </trkpt>
      <trkpt lat="39.617434000" lon="-8.616725000">
        <ele>241.200000</ele>
        <time>2020-10-17T14:54:41Z</time>
      </trkpt>
      <trkpt lat="39.617416000" lon="-8.616731000">
        <ele>241.600000</ele>
        <time>2020-10-17T14:54:42Z</time>
      </trkpt>
      <trkpt lat="39.617396000" lon="-8.616738000">
        <ele>241.800000</ele>
        <time>2020-10-17T14:54:43Z</time>
      </trkpt>
      <trkpt lat="39.617379000" lon="-8.616744000">
        <ele>242.200000</ele>
        <time>2020-10-17T14:54:44Z</time>
      </trkpt>
      <trkpt lat="39.617363000" lon="-8.616751000">
        <ele>242.600000</ele>
        <time>2020-10-17T14:54:45Z</time>
      </trkpt>
      <trkpt lat="39.617347000" lon="-8.616753000">
        <ele>242.800000</ele>
        <time>2020-10-17T14:54:46Z</time>
      </trkpt>
      <trkpt lat="39.617328000" lon="-8.616753000">
        <ele>242.800000</ele>
        <time>2020-10-17T14:54:47Z</time>
      </trkpt>
      <trkpt lat="39.617310000" lon="-8.616755000">
        <ele>243.200000</ele>
        <time>2020-10-17T14:54:48Z</time>
      </trkpt>
      <trkpt lat="39.617294000" lon="-8.616758000">
        <ele>243.600000</ele>
        <time>2020-10-17T14:54:49Z</time>
      </trkpt>
      <trkpt lat="39.617277000" lon="-8.616759000">
        <ele>243.800000</ele>
        <time>2020-10-17T14:54:50Z</time>
      </trkpt>
      <trkpt lat="39.617260000" lon="-8.616761000">
        <ele>244.400000</ele>
        <time>2020-10-17T14:54:51Z</time>
      </trkpt>
      <trkpt lat="39.617242000" lon="-8.616763000">
        <ele>244.600000</ele>
        <time>2020-10-17T14:54:52Z</time>
      </trkpt>
      <trkpt lat="39.617225000" lon="-8.616770000">
        <ele>244.800000</ele>
        <time>2020-10-17T14:54:53Z</time>
      </trkpt>
      <trkpt lat="39.617209000" lon="-8.616775000">
        <ele>245.000000</ele>
        <time>2020-10-17T14:54:54Z</time>
      </trkpt>
      <trkpt lat="39.617193000" lon="-8.616778000">
        <ele>245.400000</ele>
        <time>2020-10-17T14:54:55Z</time>
      </trkpt>
      <trkpt lat="39.617179000" lon="-8.616782000">
        <ele>245.800000</ele>
        <time>2020-10-17T14:54:56Z</time>
      </trkpt>
      <trkpt lat="39.617165000" lon="-8.616791000">
        <ele>245.800000</ele>
        <time>2020-10-17T14:54:57Z</time>
      </trkpt>
      <trkpt lat="39.617152000" lon="-8.616802000">
        <ele>246.200000</ele>
        <time>2020-10-17T14:54:58Z</time>
      </trkpt>
      <trkpt lat="39.617137000" lon="-8.616814000">
        <ele>246.200000</ele>
        <time>2020-10-17T14:54:59Z</time>
      </trkpt>
      <trkpt lat="39.617124000" lon="-8.616826000">
        <ele>246.400000</ele>
        <time>2020-10-17T14:55:00Z</time>
      </trkpt>
      <trkpt lat="39.617112000" lon="-8.616839000">
        <ele>246.600000</ele>
        <time>2020-10-17T14:55:01Z</time>
      </trkpt>
      <trkpt lat="39.617101000" lon="-8.616854000">
        <ele>247.000000</ele>
        <time>2020-10-17T14:55:02Z</time>
      </trkpt>
      <trkpt lat="39.617090000" lon="-8.616868000">
        <ele>247.200000</ele>
        <time>2020-10-17T14:55:03Z</time>
      </trkpt>
      <trkpt lat="39.617081000" lon="-8.616878000">
        <ele>247.200000</ele>
        <time>2020-10-17T14:55:04Z</time>
      </trkpt>
      <trkpt lat="39.617077000" lon="-8.616891000">
        <ele>247.400000</ele>
        <time>2020-10-17T14:55:05Z</time>
      </trkpt>
      <trkpt lat="39.617071000" lon="-8.616904000">
        <ele>247.800000</ele>
        <time>2020-10-17T14:55:06Z</time>
      </trkpt>
      <trkpt lat="39.617061000" lon="-8.616916000">
        <ele>247.800000</ele>
        <time>2020-10-17T14:55:07Z</time>
      </trkpt>
      <trkpt lat="39.617051000" lon="-8.616928000">
        <ele>248.200000</ele>
        <time>2020-10-17T14:55:08Z</time>
      </trkpt>
      <trkpt lat="39.617041000" lon="-8.616939000">
        <ele>248.200000</ele>
        <time>2020-10-17T14:55:09Z</time>
      </trkpt>
      <trkpt lat="39.617031000" lon="-8.616956000">
        <ele>248.800000</ele>
        <time>2020-10-17T14:55:10Z</time>
      </trkpt>
      <trkpt lat="39.617022000" lon="-8.616968000">
        <ele>249.200000</ele>
        <time>2020-10-17T14:55:11Z</time>
      </trkpt>
      <trkpt lat="39.617011000" lon="-8.616983000">
        <ele>249.400000</ele>
        <time>2020-10-17T14:55:12Z</time>
      </trkpt>
      <trkpt lat="39.617000000" lon="-8.616994000">
        <ele>249.600000</ele>
        <time>2020-10-17T14:55:13Z</time>
      </trkpt>
      <trkpt lat="39.616988000" lon="-8.617006000">
        <ele>249.800000</ele>
        <time>2020-10-17T14:55:14Z</time>
      </trkpt>
      <trkpt lat="39.616977000" lon="-8.617016000">
        <ele>250.000000</ele>
        <time>2020-10-17T14:55:15Z</time>
      </trkpt>
      <trkpt lat="39.616965000" lon="-8.617027000">
        <ele>250.200000</ele>
        <time>2020-10-17T14:55:16Z</time>
      </trkpt>
      <trkpt lat="39.616951000" lon="-8.617042000">
        <ele>250.600000</ele>
        <time>2020-10-17T14:55:17Z</time>
      </trkpt>
      <trkpt lat="39.616937000" lon="-8.617060000">
        <ele>250.800000</ele>
        <time>2020-10-17T14:55:18Z</time>
      </trkpt>
      <trkpt lat="39.616925000" lon="-8.617076000">
        <ele>251.000000</ele>
        <time>2020-10-17T14:55:19Z</time>
      </trkpt>
      <trkpt lat="39.616913000" lon="-8.617090000">
        <ele>251.000000</ele>
        <time>2020-10-17T14:55:20Z</time>
      </trkpt>
      <trkpt lat="39.616904000" lon="-8.617106000">
        <ele>251.400000</ele>
        <time>2020-10-17T14:55:21Z</time>
      </trkpt>
      <trkpt lat="39.616891000" lon="-8.617125000">
        <ele>251.800000</ele>
        <time>2020-10-17T14:55:22Z</time>
      </trkpt>
      <trkpt lat="39.616880000" lon="-8.617143000">
        <ele>252.000000</ele>
        <time>2020-10-17T14:55:23Z</time>
      </trkpt>
      <trkpt lat="39.616870000" lon="-8.617162000">
        <ele>252.200000</ele>
        <time>2020-10-17T14:55:24Z</time>
      </trkpt>
      <trkpt lat="39.616859000" lon="-8.617182000">
        <ele>252.600000</ele>
        <time>2020-10-17T14:55:25Z</time>
      </trkpt>
      <trkpt lat="39.616849000" lon="-8.617201000">
        <ele>252.800000</ele>
        <time>2020-10-17T14:55:26Z</time>
      </trkpt>
      <trkpt lat="39.616839000" lon="-8.617217000">
        <ele>253.200000</ele>
        <time>2020-10-17T14:55:27Z</time>
      </trkpt>
      <trkpt lat="39.616827000" lon="-8.617232000">
        <ele>253.200000</ele>
        <time>2020-10-17T14:55:28Z</time>
      </trkpt>
      <trkpt lat="39.616811000" lon="-8.617250000">
        <ele>253.400000</ele>
        <time>2020-10-17T14:55:29Z</time>
      </trkpt>
      <trkpt lat="39.616793000" lon="-8.617270000">
        <ele>253.800000</ele>
        <time>2020-10-17T14:55:30Z</time>
      </trkpt>
      <trkpt lat="39.616772000" lon="-8.617288000">
        <ele>254.000000</ele>
        <time>2020-10-17T14:55:31Z</time>
      </trkpt>
      <trkpt lat="39.616748000" lon="-8.617310000">
        <ele>254.200000</ele>
        <time>2020-10-17T14:55:32Z</time>
      </trkpt>
      <trkpt lat="39.616719000" lon="-8.617334000">
        <ele>254.400000</ele>
        <time>2020-10-17T14:55:33Z</time>
      </trkpt>
      <trkpt lat="39.616688000" lon="-8.617364000">
        <ele>254.400000</ele>
        <time>2020-10-17T14:55:34Z</time>
      </trkpt>
      <trkpt lat="39.616654000" lon="-8.617401000">
        <ele>254.400000</ele>
        <time>2020-10-17T14:55:35Z</time>
      </trkpt>
      <trkpt lat="39.616618000" lon="-8.617450000">
        <ele>254.200000</ele>
        <time>2020-10-17T14:55:36Z</time>
      </trkpt>
      <trkpt lat="39.616575000" lon="-8.617510000">
        <ele>254.200000</ele>
        <time>2020-10-17T14:55:37Z</time>
      </trkpt>
      <trkpt lat="39.616533000" lon="-8.617571000">
        <ele>254.400000</ele>
        <time>2020-10-17T14:55:38Z</time>
      </trkpt>
      <trkpt lat="39.616428000" lon="-8.617721000">
        <ele>254.400000</ele>
        <time>2020-10-17T14:55:40Z</time>
      </trkpt>
      <trkpt lat="39.616269000" lon="-8.617983000">
        <ele>254.200000</ele>
        <time>2020-10-17T14:55:43Z</time>
      </trkpt>
      <trkpt lat="39.616103000" lon="-8.618279000">
        <ele>252.800000</ele>
        <time>2020-10-17T14:55:46Z</time>
      </trkpt>
      <trkpt lat="39.616052000" lon="-8.618369000">
        <ele>252.400000</ele>
        <time>2020-10-17T14:55:47Z</time>
      </trkpt>
      <trkpt lat="39.616003000" lon="-8.618449000">
        <ele>251.600000</ele>
        <time>2020-10-17T14:55:48Z</time>
      </trkpt>
      <trkpt lat="39.615952000" lon="-8.618515000">
        <ele>250.800000</ele>
        <time>2020-10-17T14:55:49Z</time>
      </trkpt>
      <trkpt lat="39.615900000" lon="-8.618569000">
        <ele>250.000000</ele>
        <time>2020-10-17T14:55:50Z</time>
      </trkpt>
      <trkpt lat="39.615854000" lon="-8.618618000">
        <ele>249.400000</ele>
        <time>2020-10-17T14:55:51Z</time>
      </trkpt>
      <trkpt lat="39.615811000" lon="-8.618669000">
        <ele>248.400000</ele>
        <time>2020-10-17T14:55:52Z</time>
      </trkpt>
      <trkpt lat="39.615771000" lon="-8.618732000">
        <ele>248.000000</ele>
        <time>2020-10-17T14:55:53Z</time>
      </trkpt>
      <trkpt lat="39.615738000" lon="-8.618795000">
        <ele>247.200000</ele>
        <time>2020-10-17T14:55:54Z</time>
      </trkpt>
      <trkpt lat="39.615714000" lon="-8.618861000">
        <ele>246.800000</ele>
        <time>2020-10-17T14:55:55Z</time>
      </trkpt>
      <trkpt lat="39.615691000" lon="-8.618924000">
        <ele>246.400000</ele>
        <time>2020-10-17T14:55:56Z</time>
      </trkpt>
      <trkpt lat="39.615669000" lon="-8.618988000">
        <ele>246.000000</ele>
        <time>2020-10-17T14:55:57Z</time>
      </trkpt>
      <trkpt lat="39.615646000" lon="-8.619049000">
        <ele>245.800000</ele>
        <time>2020-10-17T14:55:58Z</time>
      </trkpt>
      <trkpt lat="39.615621000" lon="-8.619106000">
        <ele>245.400000</ele>
        <time>2020-10-17T14:55:59Z</time>
      </trkpt>
      <trkpt lat="39.615592000" lon="-8.619165000">
        <ele>245.000000</ele>
        <time>2020-10-17T14:56:00Z</time>
      </trkpt>
      <trkpt lat="39.615497000" lon="-8.619336000">
        <ele>244.200000</ele>
        <time>2020-10-17T14:56:03Z</time>
      </trkpt>
      <trkpt lat="39.615462000" lon="-8.619393000">
        <ele>244.400000</ele>
        <time>2020-10-17T14:56:04Z</time>
      </trkpt>
      <trkpt lat="39.615428000" lon="-8.619448000">
        <ele>244.000000</ele>
        <time>2020-10-17T14:56:05Z</time>
      </trkpt>
      <trkpt lat="39.615363000" lon="-8.619558000">
        <ele>244.200000</ele>
        <time>2020-10-17T14:56:07Z</time>
      </trkpt>
      <trkpt lat="39.615332000" lon="-8.619607000">
        <ele>244.000000</ele>
        <time>2020-10-17T14:56:08Z</time>
      </trkpt>
      <trkpt lat="39.615301000" lon="-8.619657000">
        <ele>244.000000</ele>
        <time>2020-10-17T14:56:09Z</time>
      </trkpt>
      <trkpt lat="39.615028000" lon="-8.620105000">
        <ele>244.200000</ele>
        <time>2020-10-17T14:56:17Z</time>
      </trkpt>
      <trkpt lat="39.614995000" lon="-8.620165000">
        <ele>244.200000</ele>
        <time>2020-10-17T14:56:18Z</time>
      </trkpt>
      <trkpt lat="39.614865000" lon="-8.620402000">
        <ele>244.200000</ele>
        <time>2020-10-17T14:56:22Z</time>
      </trkpt>
      <trkpt lat="39.614770000" lon="-8.620582000">
        <ele>244.200000</ele>
        <time>2020-10-17T14:56:25Z</time>
      </trkpt>
      <trkpt lat="39.614741000" lon="-8.620638000">
        <ele>244.000000</ele>
        <time>2020-10-17T14:56:26Z</time>
      </trkpt>
      <trkpt lat="39.614716000" lon="-8.620692000">
        <ele>244.200000</ele>
        <time>2020-10-17T14:56:27Z</time>
      </trkpt>
      <trkpt lat="39.614695000" lon="-8.620730000">
        <ele>244.200000</ele>
        <time>2020-10-17T14:56:28Z</time>
      </trkpt>
      <trkpt lat="39.614687000" lon="-8.620735000">
        <ele>244.200000</ele>
        <time>2020-10-17T14:56:29Z</time>
      </trkpt>
      <trkpt lat="39.614689000" lon="-8.620716000">
        <ele>244.200000</ele>
        <time>2020-10-17T14:56:30Z</time>
      </trkpt>
      <trkpt lat="39.614712000" lon="-8.620658000">
        <ele>244.000000</ele>
        <time>2020-10-17T14:56:32Z</time>
      </trkpt>
      <trkpt lat="39.614809000" lon="-8.620469000">
        <ele>244.200000</ele>
        <time>2020-10-17T14:56:36Z</time>
      </trkpt>
      <trkpt lat="39.614861000" lon="-8.620367000">
        <ele>244.000000</ele>
        <time>2020-10-17T14:56:38Z</time>
      </trkpt>
      <trkpt lat="39.614894000" lon="-8.620326000">
        <ele>244.000000</ele>
        <time>2020-10-17T14:56:39Z</time>
      </trkpt>
      <trkpt lat="39.614934000" lon="-8.620306000">
        <ele>243.800000</ele>
        <time>2020-10-17T14:56:40Z</time>
      </trkpt>
      <trkpt lat="39.614971000" lon="-8.620315000">
        <ele>243.800000</ele>
        <time>2020-10-17T14:56:41Z</time>
      </trkpt>
      <trkpt lat="39.615002000" lon="-8.620350000">
        <ele>243.800000</ele>
        <time>2020-10-17T14:56:42Z</time>
      </trkpt>
      <trkpt lat="39.615032000" lon="-8.620451000">
        <ele>243.800000</ele>
        <time>2020-10-17T14:56:44Z</time>
      </trkpt>
      <trkpt lat="39.615029000" lon="-8.620570000">
        <ele>243.800000</ele>
        <time>2020-10-17T14:56:46Z</time>
      </trkpt>
      <trkpt lat="39.615024000" lon="-8.620631000">
        <ele>243.800000</ele>
        <time>2020-10-17T14:56:47Z</time>
      </trkpt>
      <trkpt lat="39.615009000" lon="-8.620752000">
        <ele>243.800000</ele>
        <time>2020-10-17T14:56:49Z</time>
      </trkpt>
      <trkpt lat="39.614994000" lon="-8.620872000">
        <ele>243.800000</ele>
        <time>2020-10-17T14:56:51Z</time>
      </trkpt>
      <trkpt lat="39.614986000" lon="-8.620933000">
        <ele>244.000000</ele>
        <time>2020-10-17T14:56:52Z</time>
      </trkpt>
      <trkpt lat="39.614979000" lon="-8.620993000">
        <ele>244.200000</ele>
        <time>2020-10-17T14:56:53Z</time>
      </trkpt>
      <trkpt lat="39.614973000" lon="-8.621051000">
        <ele>244.400000</ele>
        <time>2020-10-17T14:56:54Z</time>
      </trkpt>
      <trkpt lat="39.614934000" lon="-8.621298000">
        <ele>244.600000</ele>
        <time>2020-10-17T14:56:58Z</time>
      </trkpt>
      <trkpt lat="39.614884000" lon="-8.621621000">
        <ele>245.600000</ele>
        <time>2020-10-17T14:57:03Z</time>
      </trkpt>
      <trkpt lat="39.614872000" lon="-8.621677000">
        <ele>245.800000</ele>
        <time>2020-10-17T14:57:04Z</time>
      </trkpt>
      <trkpt lat="39.614861000" lon="-8.621734000">
        <ele>245.800000</ele>
        <time>2020-10-17T14:57:05Z</time>
      </trkpt>
      <trkpt lat="39.614773000" lon="-8.622159000">
        <ele>246.000000</ele>
        <time>2020-10-17T14:57:12Z</time>
      </trkpt>
      <trkpt lat="39.614767000" lon="-8.622217000">
        <ele>246.000000</ele>
        <time>2020-10-17T14:57:13Z</time>
      </trkpt>
      <trkpt lat="39.614765000" lon="-8.622274000">
        <ele>246.200000</ele>
        <time>2020-10-17T14:57:14Z</time>
      </trkpt>
      <trkpt lat="39.614764000" lon="-8.622330000">
        <ele>246.200000</ele>
        <time>2020-10-17T14:57:15Z</time>
      </trkpt>
      <trkpt lat="39.614763000" lon="-8.622384000">
        <ele>246.400000</ele>
        <time>2020-10-17T14:57:16Z</time>
      </trkpt>
      <trkpt lat="39.614761000" lon="-8.622436000">
        <ele>246.600000</ele>
        <time>2020-10-17T14:57:17Z</time>
      </trkpt>
      <trkpt lat="39.614752000" lon="-8.622549000">
        <ele>246.800000</ele>
        <time>2020-10-17T14:57:19Z</time>
      </trkpt>
      <trkpt lat="39.614748000" lon="-8.622607000">
        <ele>247.000000</ele>
        <time>2020-10-17T14:57:20Z</time>
      </trkpt>
      <trkpt lat="39.614744000" lon="-8.622663000">
        <ele>247.000000</ele>
        <time>2020-10-17T14:57:21Z</time>
      </trkpt>
      <trkpt lat="39.614739000" lon="-8.622716000">
        <ele>247.000000</ele>
        <time>2020-10-17T14:57:22Z</time>
      </trkpt>
      <trkpt lat="39.614730000" lon="-8.622767000">
        <ele>247.200000</ele>
        <time>2020-10-17T14:57:23Z</time>
      </trkpt>
      <trkpt lat="39.614716000" lon="-8.622818000">
        <ele>247.400000</ele>
        <time>2020-10-17T14:57:24Z</time>
      </trkpt>
      <trkpt lat="39.614701000" lon="-8.622867000">
        <ele>247.800000</ele>
        <time>2020-10-17T14:57:25Z</time>
      </trkpt>
      <trkpt lat="39.614686000" lon="-8.622916000">
        <ele>248.000000</ele>
        <time>2020-10-17T14:57:26Z</time>
      </trkpt>
      <trkpt lat="39.614671000" lon="-8.622963000">
        <ele>248.200000</ele>
        <time>2020-10-17T14:57:27Z</time>
      </trkpt>
      <trkpt lat="39.614655000" lon="-8.623009000">
        <ele>248.200000</ele>
        <time>2020-10-17T14:57:28Z</time>
      </trkpt>
      <trkpt lat="39.614639000" lon="-8.623056000">
        <ele>248.200000</ele>
        <time>2020-10-17T14:57:29Z</time>
      </trkpt>
      <trkpt lat="39.614623000" lon="-8.623105000">
        <ele>248.400000</ele>
        <time>2020-10-17T14:57:30Z</time>
      </trkpt>
      <trkpt lat="39.614606000" lon="-8.623155000">
        <ele>248.400000</ele>
        <time>2020-10-17T14:57:31Z</time>
      </trkpt>
      <trkpt lat="39.614588000" lon="-8.623208000">
        <ele>248.400000</ele>
        <time>2020-10-17T14:57:32Z</time>
      </trkpt>
      <trkpt lat="39.614570000" lon="-8.623265000">
        <ele>248.800000</ele>
        <time>2020-10-17T14:57:33Z</time>
      </trkpt>
      <trkpt lat="39.614550000" lon="-8.623323000">
        <ele>249.200000</ele>
        <time>2020-10-17T14:57:34Z</time>
      </trkpt>
      <trkpt lat="39.614532000" lon="-8.623376000">
        <ele>249.600000</ele>
        <time>2020-10-17T14:57:35Z</time>
      </trkpt>
      <trkpt lat="39.614514000" lon="-8.623430000">
        <ele>249.800000</ele>
        <time>2020-10-17T14:57:36Z</time>
      </trkpt>
      <trkpt lat="39.614496000" lon="-8.623487000">
        <ele>250.000000</ele>
        <time>2020-10-17T14:57:37Z</time>
      </trkpt>
      <trkpt lat="39.614478000" lon="-8.623542000">
        <ele>250.200000</ele>
        <time>2020-10-17T14:57:38Z</time>
      </trkpt>
      <trkpt lat="39.614460000" lon="-8.623596000">
        <ele>250.200000</ele>
        <time>2020-10-17T14:57:39Z</time>
      </trkpt>
      <trkpt lat="39.614443000" lon="-8.623649000">
        <ele>250.400000</ele>
        <time>2020-10-17T14:57:40Z</time>
      </trkpt>
      <trkpt lat="39.614431000" lon="-8.623703000">
        <ele>250.400000</ele>
        <time>2020-10-17T14:57:41Z</time>
      </trkpt>
      <trkpt lat="39.614419000" lon="-8.623756000">
        <ele>250.600000</ele>
        <time>2020-10-17T14:57:42Z</time>
      </trkpt>
      <trkpt lat="39.614405000" lon="-8.623808000">
        <ele>250.600000</ele>
        <time>2020-10-17T14:57:43Z</time>
      </trkpt>
      <trkpt lat="39.614391000" lon="-8.623859000">
        <ele>250.600000</ele>
        <time>2020-10-17T14:57:44Z</time>
      </trkpt>
      <trkpt lat="39.614379000" lon="-8.623912000">
        <ele>250.800000</ele>
        <time>2020-10-17T14:57:45Z</time>
      </trkpt>
      <trkpt lat="39.614369000" lon="-8.623967000">
        <ele>250.600000</ele>
        <time>2020-10-17T14:57:46Z</time>
      </trkpt>
      <trkpt lat="39.614355000" lon="-8.624075000">
        <ele>250.800000</ele>
        <time>2020-10-17T14:57:48Z</time>
      </trkpt>
      <trkpt lat="39.614352000" lon="-8.624131000">
        <ele>250.800000</ele>
        <time>2020-10-17T14:57:49Z</time>
      </trkpt>
      <trkpt lat="39.614350000" lon="-8.624185000">
        <ele>250.800000</ele>
        <time>2020-10-17T14:57:50Z</time>
      </trkpt>
      <trkpt lat="39.614347000" lon="-8.624295000">
        <ele>250.800000</ele>
        <time>2020-10-17T14:57:52Z</time>
      </trkpt>
      <trkpt lat="39.614348000" lon="-8.624347000">
        <ele>251.000000</ele>
        <time>2020-10-17T14:57:53Z</time>
      </trkpt>
      <trkpt lat="39.614350000" lon="-8.624399000">
        <ele>251.000000</ele>
        <time>2020-10-17T14:57:54Z</time>
      </trkpt>
      <trkpt lat="39.614358000" lon="-8.624498000">
        <ele>251.000000</ele>
        <time>2020-10-17T14:57:56Z</time>
      </trkpt>
      <trkpt lat="39.614359000" lon="-8.624547000">
        <ele>251.200000</ele>
        <time>2020-10-17T14:57:57Z</time>
      </trkpt>
      <trkpt lat="39.614371000" lon="-8.624970000">
        <ele>252.200000</ele>
        <time>2020-10-17T14:58:05Z</time>
      </trkpt>
      <trkpt lat="39.614374000" lon="-8.625022000">
        <ele>252.400000</ele>
        <time>2020-10-17T14:58:06Z</time>
      </trkpt>
      <trkpt lat="39.614376000" lon="-8.625238000">
        <ele>252.800000</ele>
        <time>2020-10-17T14:58:10Z</time>
      </trkpt>
      <trkpt lat="39.614377000" lon="-8.625290000">
        <ele>252.600000</ele>
        <time>2020-10-17T14:58:11Z</time>
      </trkpt>
      <trkpt lat="39.614384000" lon="-8.625396000">
        <ele>252.800000</ele>
        <time>2020-10-17T14:58:13Z</time>
      </trkpt>
      <trkpt lat="39.614388000" lon="-8.625447000">
        <ele>252.800000</ele>
        <time>2020-10-17T14:58:14Z</time>
      </trkpt>
      <trkpt lat="39.614392000" lon="-8.625498000">
        <ele>253.000000</ele>
        <time>2020-10-17T14:58:15Z</time>
      </trkpt>
      <trkpt lat="39.614396000" lon="-8.625550000">
        <ele>253.000000</ele>
        <time>2020-10-17T14:58:16Z</time>
      </trkpt>
      <trkpt lat="39.614402000" lon="-8.625603000">
        <ele>253.400000</ele>
        <time>2020-10-17T14:58:17Z</time>
      </trkpt>
      <trkpt lat="39.614408000" lon="-8.625656000">
        <ele>253.400000</ele>
        <time>2020-10-17T14:58:18Z</time>
      </trkpt>
      <trkpt lat="39.614414000" lon="-8.625710000">
        <ele>253.400000</ele>
        <time>2020-10-17T14:58:19Z</time>
      </trkpt>
      <trkpt lat="39.614418000" lon="-8.625764000">
        <ele>253.600000</ele>
        <time>2020-10-17T14:58:20Z</time>
      </trkpt>
      <trkpt lat="39.614420000" lon="-8.625819000">
        <ele>253.800000</ele>
        <time>2020-10-17T14:58:21Z</time>
      </trkpt>
      <trkpt lat="39.614422000" lon="-8.625873000">
        <ele>253.800000</ele>
        <time>2020-10-17T14:58:22Z</time>
      </trkpt>
      <trkpt lat="39.614426000" lon="-8.625926000">
        <ele>253.800000</ele>
        <time>2020-10-17T14:58:23Z</time>
      </trkpt>
      <trkpt lat="39.614430000" lon="-8.625979000">
        <ele>254.200000</ele>
        <time>2020-10-17T14:58:24Z</time>
      </trkpt>
      <trkpt lat="39.614433000" lon="-8.626032000">
        <ele>254.200000</ele>
        <time>2020-10-17T14:58:25Z</time>
      </trkpt>
      <trkpt lat="39.614435000" lon="-8.626087000">
        <ele>254.400000</ele>
        <time>2020-10-17T14:58:26Z</time>
      </trkpt>
      <trkpt lat="39.614438000" lon="-8.626196000">
        <ele>254.400000</ele>
        <time>2020-10-17T14:58:28Z</time>
      </trkpt>
      <trkpt lat="39.614442000" lon="-8.626249000">
        <ele>254.600000</ele>
        <time>2020-10-17T14:58:29Z</time>
      </trkpt>
      <trkpt lat="39.614447000" lon="-8.626300000">
        <ele>254.800000</ele>
        <time>2020-10-17T14:58:30Z</time>
      </trkpt>
      <trkpt lat="39.614452000" lon="-8.626351000">
        <ele>254.800000</ele>
        <time>2020-10-17T14:58:31Z</time>
      </trkpt>
      <trkpt lat="39.614457000" lon="-8.626401000">
        <ele>254.800000</ele>
        <time>2020-10-17T14:58:32Z</time>
      </trkpt>
      <trkpt lat="39.614479000" lon="-8.626675000">
        <ele>255.200000</ele>
        <time>2020-10-17T14:58:37Z</time>
      </trkpt>
      <trkpt lat="39.614492000" lon="-8.626948000">
        <ele>255.400000</ele>
        <time>2020-10-17T14:58:41Z</time>
      </trkpt>
      <trkpt lat="39.614496000" lon="-8.627094000">
        <ele>255.400000</ele>
        <time>2020-10-17T14:58:43Z</time>
      </trkpt>
      <trkpt lat="39.614486000" lon="-8.627239000">
        <ele>255.400000</ele>
        <time>2020-10-17T14:58:45Z</time>
      </trkpt>
      <trkpt lat="39.614452000" lon="-8.627599000">
        <ele>255.000000</ele>
        <time>2020-10-17T14:58:50Z</time>
      </trkpt>
      <trkpt lat="39.614445000" lon="-8.627672000">
        <ele>254.600000</ele>
        <time>2020-10-17T14:58:51Z</time>
      </trkpt>
      <trkpt lat="39.614431000" lon="-8.627817000">
        <ele>254.400000</ele>
        <time>2020-10-17T14:58:53Z</time>
      </trkpt>
      <trkpt lat="39.614426000" lon="-8.627887000">
        <ele>254.200000</ele>
        <time>2020-10-17T14:58:54Z</time>
      </trkpt>
      <trkpt lat="39.614420000" lon="-8.627958000">
        <ele>254.200000</ele>
        <time>2020-10-17T14:58:55Z</time>
      </trkpt>
      <trkpt lat="39.614402000" lon="-8.628171000">
        <ele>254.200000</ele>
        <time>2020-10-17T14:58:58Z</time>
      </trkpt>
      <trkpt lat="39.614398000" lon="-8.628241000">
        <ele>254.000000</ele>
        <time>2020-10-17T14:58:59Z</time>
      </trkpt>
      <trkpt lat="39.614391000" lon="-8.628380000">
        <ele>254.200000</ele>
        <time>2020-10-17T14:59:01Z</time>
      </trkpt>
      <trkpt lat="39.614386000" lon="-8.628448000">
        <ele>254.000000</ele>
        <time>2020-10-17T14:59:02Z</time>
      </trkpt>
      <trkpt lat="39.614380000" lon="-8.628585000">
        <ele>254.000000</ele>
        <time>2020-10-17T14:59:04Z</time>
      </trkpt>
      <trkpt lat="39.614380000" lon="-8.628653000">
        <ele>254.000000</ele>
        <time>2020-10-17T14:59:05Z</time>
      </trkpt>
      <trkpt lat="39.614378000" lon="-8.628791000">
        <ele>254.000000</ele>
        <time>2020-10-17T14:59:07Z</time>
      </trkpt>
      <trkpt lat="39.614378000" lon="-8.628858000">
        <ele>254.000000</ele>
        <time>2020-10-17T14:59:08Z</time>
      </trkpt>
      <trkpt lat="39.614380000" lon="-8.628925000">
        <ele>254.000000</ele>
        <time>2020-10-17T14:59:09Z</time>
      </trkpt>
      <trkpt lat="39.614384000" lon="-8.628990000">
        <ele>254.000000</ele>
        <time>2020-10-17T14:59:10Z</time>
      </trkpt>
      <trkpt lat="39.614387000" lon="-8.629055000">
        <ele>254.000000</ele>
        <time>2020-10-17T14:59:11Z</time>
      </trkpt>
      <trkpt lat="39.614391000" lon="-8.629188000">
        <ele>254.200000</ele>
        <time>2020-10-17T14:59:13Z</time>
      </trkpt>
      <trkpt lat="39.614392000" lon="-8.629255000">
        <ele>254.200000</ele>
        <time>2020-10-17T14:59:14Z</time>
      </trkpt>
      <trkpt lat="39.614394000" lon="-8.629384000">
        <ele>254.200000</ele>
        <time>2020-10-17T14:59:16Z</time>
      </trkpt>
      <trkpt lat="39.614396000" lon="-8.629446000">
        <ele>254.000000</ele>
        <time>2020-10-17T14:59:17Z</time>
      </trkpt>
      <trkpt lat="39.614407000" lon="-8.629572000">
        <ele>254.600000</ele>
        <time>2020-10-17T14:59:19Z</time>
      </trkpt>
      <trkpt lat="39.614427000" lon="-8.629695000">
        <ele>254.800000</ele>
        <time>2020-10-17T14:59:21Z</time>
      </trkpt>
      <trkpt lat="39.614449000" lon="-8.629817000">
        <ele>255.000000</ele>
        <time>2020-10-17T14:59:23Z</time>
      </trkpt>
      <trkpt lat="39.614474000" lon="-8.629938000">
        <ele>255.000000</ele>
        <time>2020-10-17T14:59:25Z</time>
      </trkpt>
      <trkpt lat="39.614488000" lon="-8.629999000">
        <ele>255.200000</ele>
        <time>2020-10-17T14:59:26Z</time>
      </trkpt>
      <trkpt lat="39.614501000" lon="-8.630058000">
        <ele>255.200000</ele>
        <time>2020-10-17T14:59:27Z</time>
      </trkpt>
      <trkpt lat="39.614529000" lon="-8.630240000">
        <ele>255.400000</ele>
        <time>2020-10-17T14:59:30Z</time>
      </trkpt>
      <trkpt lat="39.614558000" lon="-8.630485000">
        <ele>256.000000</ele>
        <time>2020-10-17T14:59:34Z</time>
      </trkpt>
      <trkpt lat="39.614571000" lon="-8.630611000">
        <ele>256.200000</ele>
        <time>2020-10-17T14:59:36Z</time>
      </trkpt>
      <trkpt lat="39.614581000" lon="-8.630741000">
        <ele>256.400000</ele>
        <time>2020-10-17T14:59:38Z</time>
      </trkpt>
      <trkpt lat="39.614592000" lon="-8.630871000">
        <ele>256.600000</ele>
        <time>2020-10-17T14:59:40Z</time>
      </trkpt>
      <trkpt lat="39.614596000" lon="-8.630932000">
        <ele>256.600000</ele>
        <time>2020-10-17T14:59:41Z</time>
      </trkpt>
      <trkpt lat="39.614599000" lon="-8.630992000">
        <ele>256.600000</ele>
        <time>2020-10-17T14:59:42Z</time>
      </trkpt>
      <trkpt lat="39.614604000" lon="-8.631051000">
        <ele>256.600000</ele>
        <time>2020-10-17T14:59:43Z</time>
      </trkpt>
      <trkpt lat="39.614612000" lon="-8.631112000">
        <ele>256.800000</ele>
        <time>2020-10-17T14:59:44Z</time>
      </trkpt>
      <trkpt lat="39.614620000" lon="-8.631173000">
        <ele>256.800000</ele>
        <time>2020-10-17T14:59:45Z</time>
      </trkpt>
      <trkpt lat="39.614626000" lon="-8.631233000">
        <ele>257.000000</ele>
        <time>2020-10-17T14:59:46Z</time>
      </trkpt>
      <trkpt lat="39.614633000" lon="-8.631293000">
        <ele>257.200000</ele>
        <time>2020-10-17T14:59:47Z</time>
      </trkpt>
      <trkpt lat="39.614640000" lon="-8.631352000">
        <ele>257.200000</ele>
        <time>2020-10-17T14:59:48Z</time>
      </trkpt>
      <trkpt lat="39.614646000" lon="-8.631412000">
        <ele>257.200000</ele>
        <time>2020-10-17T14:59:49Z</time>
      </trkpt>
      <trkpt lat="39.614652000" lon="-8.631468000">
        <ele>257.800000</ele>
        <time>2020-10-17T14:59:50Z</time>
      </trkpt>
      <trkpt lat="39.614658000" lon="-8.631526000">
        <ele>258.000000</ele>
        <time>2020-10-17T14:59:51Z</time>
      </trkpt>
      <trkpt lat="39.614666000" lon="-8.631586000">
        <ele>258.200000</ele>
        <time>2020-10-17T14:59:52Z</time>
      </trkpt>
      <trkpt lat="39.614671000" lon="-8.631646000">
        <ele>258.400000</ele>
        <time>2020-10-17T14:59:53Z</time>
      </trkpt>
      <trkpt lat="39.614678000" lon="-8.631706000">
        <ele>258.400000</ele>
        <time>2020-10-17T14:59:54Z</time>
      </trkpt>
      <trkpt lat="39.614685000" lon="-8.631764000">
        <ele>258.600000</ele>
        <time>2020-10-17T14:59:55Z</time>
      </trkpt>
      <trkpt lat="39.614694000" lon="-8.631823000">
        <ele>258.600000</ele>
        <time>2020-10-17T14:59:56Z</time>
      </trkpt>
      <trkpt lat="39.614705000" lon="-8.631884000">
        <ele>258.600000</ele>
        <time>2020-10-17T14:59:57Z</time>
      </trkpt>
      <trkpt lat="39.614715000" lon="-8.631946000">
        <ele>258.800000</ele>
        <time>2020-10-17T14:59:58Z</time>
      </trkpt>
      <trkpt lat="39.614722000" lon="-8.632007000">
        <ele>258.800000</ele>
        <time>2020-10-17T14:59:59Z</time>
      </trkpt>
      <trkpt lat="39.614727000" lon="-8.632071000">
        <ele>258.800000</ele>
        <time>2020-10-17T15:00:00Z</time>
      </trkpt>
      <trkpt lat="39.614732000" lon="-8.632138000">
        <ele>258.800000</ele>
        <time>2020-10-17T15:00:01Z</time>
      </trkpt>
      <trkpt lat="39.614737000" lon="-8.632205000">
        <ele>258.800000</ele>
        <time>2020-10-17T15:00:02Z</time>
      </trkpt>
      <trkpt lat="39.614741000" lon="-8.632268000">
        <ele>258.800000</ele>
        <time>2020-10-17T15:00:03Z</time>
      </trkpt>
      <trkpt lat="39.614747000" lon="-8.632330000">
        <ele>259.000000</ele>
        <time>2020-10-17T15:00:04Z</time>
      </trkpt>
      <trkpt lat="39.614755000" lon="-8.632391000">
        <ele>259.200000</ele>
        <time>2020-10-17T15:00:05Z</time>
      </trkpt>
      <trkpt lat="39.614765000" lon="-8.632449000">
        <ele>259.200000</ele>
        <time>2020-10-17T15:00:06Z</time>
      </trkpt>
      <trkpt lat="39.614773000" lon="-8.632507000">
        <ele>259.200000</ele>
        <time>2020-10-17T15:00:07Z</time>
      </trkpt>
      <trkpt lat="39.614781000" lon="-8.632562000">
        <ele>259.400000</ele>
        <time>2020-10-17T15:00:08Z</time>
      </trkpt>
      <trkpt lat="39.614788000" lon="-8.632616000">
        <ele>259.600000</ele>
        <time>2020-10-17T15:00:09Z</time>
      </trkpt>
      <trkpt lat="39.614795000" lon="-8.632669000">
        <ele>260.000000</ele>
        <time>2020-10-17T15:00:10Z</time>
      </trkpt>
      <trkpt lat="39.614805000" lon="-8.632723000">
        <ele>260.000000</ele>
        <time>2020-10-17T15:00:11Z</time>
      </trkpt>
      <trkpt lat="39.614814000" lon="-8.632780000">
        <ele>260.200000</ele>
        <time>2020-10-17T15:00:12Z</time>
      </trkpt>
      <trkpt lat="39.614822000" lon="-8.632838000">
        <ele>260.400000</ele>
        <time>2020-10-17T15:00:13Z</time>
      </trkpt>
      <trkpt lat="39.614830000" lon="-8.632895000">
        <ele>260.600000</ele>
        <time>2020-10-17T15:00:14Z</time>
      </trkpt>
      <trkpt lat="39.614834000" lon="-8.632954000">
        <ele>260.600000</ele>
        <time>2020-10-17T15:00:15Z</time>
      </trkpt>
      <trkpt lat="39.614834000" lon="-8.633014000">
        <ele>260.600000</ele>
        <time>2020-10-17T15:00:16Z</time>
      </trkpt>
      <trkpt lat="39.614834000" lon="-8.633075000">
        <ele>260.400000</ele>
        <time>2020-10-17T15:00:17Z</time>
      </trkpt>
      <trkpt lat="39.614831000" lon="-8.633135000">
        <ele>260.400000</ele>
        <time>2020-10-17T15:00:18Z</time>
      </trkpt>
      <trkpt lat="39.614824000" lon="-8.633192000">
        <ele>260.600000</ele>
        <time>2020-10-17T15:00:19Z</time>
      </trkpt>
      <trkpt lat="39.614816000" lon="-8.633249000">
        <ele>260.600000</ele>
        <time>2020-10-17T15:00:20Z</time>
      </trkpt>
      <trkpt lat="39.614808000" lon="-8.633304000">
        <ele>260.800000</ele>
        <time>2020-10-17T15:00:21Z</time>
      </trkpt>
      <trkpt lat="39.614802000" lon="-8.633358000">
        <ele>260.800000</ele>
        <time>2020-10-17T15:00:22Z</time>
      </trkpt>
      <trkpt lat="39.614790000" lon="-8.633467000">
        <ele>261.000000</ele>
        <time>2020-10-17T15:00:24Z</time>
      </trkpt>
      <trkpt lat="39.614783000" lon="-8.633578000">
        <ele>261.400000</ele>
        <time>2020-10-17T15:00:26Z</time>
      </trkpt>
      <trkpt lat="39.614784000" lon="-8.633634000">
        <ele>261.400000</ele>
        <time>2020-10-17T15:00:27Z</time>
      </trkpt>
      <trkpt lat="39.614786000" lon="-8.633690000">
        <ele>261.200000</ele>
        <time>2020-10-17T15:00:28Z</time>
      </trkpt>
      <trkpt lat="39.614789000" lon="-8.633745000">
        <ele>261.600000</ele>
        <time>2020-10-17T15:00:29Z</time>
      </trkpt>
      <trkpt lat="39.614794000" lon="-8.633801000">
        <ele>261.800000</ele>
        <time>2020-10-17T15:00:30Z</time>
      </trkpt>
      <trkpt lat="39.614802000" lon="-8.633856000">
        <ele>262.000000</ele>
        <time>2020-10-17T15:00:31Z</time>
      </trkpt>
      <trkpt lat="39.614811000" lon="-8.633911000">
        <ele>262.000000</ele>
        <time>2020-10-17T15:00:32Z</time>
      </trkpt>
      <trkpt lat="39.614820000" lon="-8.633967000">
        <ele>262.000000</ele>
        <time>2020-10-17T15:00:33Z</time>
      </trkpt>
      <trkpt lat="39.614831000" lon="-8.634021000">
        <ele>262.200000</ele>
        <time>2020-10-17T15:00:34Z</time>
      </trkpt>
      <trkpt lat="39.614843000" lon="-8.634074000">
        <ele>262.400000</ele>
        <time>2020-10-17T15:00:35Z</time>
      </trkpt>
      <trkpt lat="39.614855000" lon="-8.634128000">
        <ele>262.400000</ele>
        <time>2020-10-17T15:00:36Z</time>
      </trkpt>
      <trkpt lat="39.614879000" lon="-8.634236000">
        <ele>262.600000</ele>
        <time>2020-10-17T15:00:38Z</time>
      </trkpt>
      <trkpt lat="39.614907000" lon="-8.634344000">
        <ele>262.800000</ele>
        <time>2020-10-17T15:00:40Z</time>
      </trkpt>
      <trkpt lat="39.614920000" lon="-8.634397000">
        <ele>262.800000</ele>
        <time>2020-10-17T15:00:41Z</time>
      </trkpt>
      <trkpt lat="39.614931000" lon="-8.634447000">
        <ele>262.800000</ele>
        <time>2020-10-17T15:00:42Z</time>
      </trkpt>
      <trkpt lat="39.614965000" lon="-8.634602000">
        <ele>263.000000</ele>
        <time>2020-10-17T15:00:45Z</time>
      </trkpt>
      <trkpt lat="39.614976000" lon="-8.634655000">
        <ele>263.000000</ele>
        <time>2020-10-17T15:00:46Z</time>
      </trkpt>
      <trkpt lat="39.614997000" lon="-8.634754000">
        <ele>263.400000</ele>
        <time>2020-10-17T15:00:48Z</time>
      </trkpt>
      <trkpt lat="39.615009000" lon="-8.634803000">
        <ele>263.600000</ele>
        <time>2020-10-17T15:00:49Z</time>
      </trkpt>
      <trkpt lat="39.615019000" lon="-8.634851000">
        <ele>263.600000</ele>
        <time>2020-10-17T15:00:50Z</time>
      </trkpt>
      <trkpt lat="39.615028000" lon="-8.634900000">
        <ele>263.600000</ele>
        <time>2020-10-17T15:00:51Z</time>
      </trkpt>
      <trkpt lat="39.615034000" lon="-8.634949000">
        <ele>263.600000</ele>
        <time>2020-10-17T15:00:52Z</time>
      </trkpt>
      <trkpt lat="39.615043000" lon="-8.634995000">
        <ele>263.600000</ele>
        <time>2020-10-17T15:00:53Z</time>
      </trkpt>
      <trkpt lat="39.615052000" lon="-8.635042000">
        <ele>263.800000</ele>
        <time>2020-10-17T15:00:54Z</time>
      </trkpt>
      <trkpt lat="39.615055000" lon="-8.635087000">
        <ele>264.000000</ele>
        <time>2020-10-17T15:00:55Z</time>
      </trkpt>
      <trkpt lat="39.615059000" lon="-8.635130000">
        <ele>264.200000</ele>
        <time>2020-10-17T15:00:56Z</time>
      </trkpt>
      <trkpt lat="39.615063000" lon="-8.635173000">
        <ele>264.400000</ele>
        <time>2020-10-17T15:00:57Z</time>
      </trkpt>
      <trkpt lat="39.615067000" lon="-8.635216000">
        <ele>264.400000</ele>
        <time>2020-10-17T15:00:58Z</time>
      </trkpt>
      <trkpt lat="39.615069000" lon="-8.635260000">
        <ele>264.600000</ele>
        <time>2020-10-17T15:00:59Z</time>
      </trkpt>
      <trkpt lat="39.615071000" lon="-8.635306000">
        <ele>264.600000</ele>
        <time>2020-10-17T15:01:00Z</time>
      </trkpt>
      <trkpt lat="39.615071000" lon="-8.635353000">
        <ele>264.600000</ele>
        <time>2020-10-17T15:01:01Z</time>
      </trkpt>
      <trkpt lat="39.615069000" lon="-8.635402000">
        <ele>264.600000</ele>
        <time>2020-10-17T15:01:02Z</time>
      </trkpt>
      <trkpt lat="39.615070000" lon="-8.635451000">
        <ele>264.800000</ele>
        <time>2020-10-17T15:01:03Z</time>
      </trkpt>
      <trkpt lat="39.615070000" lon="-8.635501000">
        <ele>265.000000</ele>
        <time>2020-10-17T15:01:04Z</time>
      </trkpt>
      <trkpt lat="39.615069000" lon="-8.635553000">
        <ele>265.200000</ele>
        <time>2020-10-17T15:01:05Z</time>
      </trkpt>
      <trkpt lat="39.615065000" lon="-8.635607000">
        <ele>265.200000</ele>
        <time>2020-10-17T15:01:06Z</time>
      </trkpt>
      <trkpt lat="39.615059000" lon="-8.635661000">
        <ele>265.400000</ele>
        <time>2020-10-17T15:01:07Z</time>
      </trkpt>
      <trkpt lat="39.615054000" lon="-8.635713000">
        <ele>265.600000</ele>
        <time>2020-10-17T15:01:08Z</time>
      </trkpt>
      <trkpt lat="39.615050000" lon="-8.635767000">
        <ele>265.600000</ele>
        <time>2020-10-17T15:01:09Z</time>
      </trkpt>
      <trkpt lat="39.615048000" lon="-8.635822000">
        <ele>265.800000</ele>
        <time>2020-10-17T15:01:10Z</time>
      </trkpt>
      <trkpt lat="39.615047000" lon="-8.635877000">
        <ele>265.800000</ele>
        <time>2020-10-17T15:01:11Z</time>
      </trkpt>
      <trkpt lat="39.615048000" lon="-8.635932000">
        <ele>266.000000</ele>
        <time>2020-10-17T15:01:12Z</time>
      </trkpt>
      <trkpt lat="39.615048000" lon="-8.635987000">
        <ele>266.200000</ele>
        <time>2020-10-17T15:01:13Z</time>
      </trkpt>
      <trkpt lat="39.615050000" lon="-8.636044000">
        <ele>266.400000</ele>
        <time>2020-10-17T15:01:14Z</time>
      </trkpt>
      <trkpt lat="39.615051000" lon="-8.636101000">
        <ele>266.400000</ele>
        <time>2020-10-17T15:01:15Z</time>
      </trkpt>
      <trkpt lat="39.615054000" lon="-8.636158000">
        <ele>266.600000</ele>
        <time>2020-10-17T15:01:16Z</time>
      </trkpt>
      <trkpt lat="39.615058000" lon="-8.636215000">
        <ele>266.600000</ele>
        <time>2020-10-17T15:01:17Z</time>
      </trkpt>
      <trkpt lat="39.615063000" lon="-8.636271000">
        <ele>266.800000</ele>
        <time>2020-10-17T15:01:18Z</time>
      </trkpt>
      <trkpt lat="39.615067000" lon="-8.636329000">
        <ele>266.800000</ele>
        <time>2020-10-17T15:01:19Z</time>
      </trkpt>
      <trkpt lat="39.615075000" lon="-8.636443000">
        <ele>267.000000</ele>
        <time>2020-10-17T15:01:21Z</time>
      </trkpt>
      <trkpt lat="39.615081000" lon="-8.636498000">
        <ele>267.000000</ele>
        <time>2020-10-17T15:01:22Z</time>
      </trkpt>
      <trkpt lat="39.615086000" lon="-8.636553000">
        <ele>266.800000</ele>
        <time>2020-10-17T15:01:23Z</time>
      </trkpt>
      <trkpt lat="39.615093000" lon="-8.636606000">
        <ele>266.800000</ele>
        <time>2020-10-17T15:01:24Z</time>
      </trkpt>
      <trkpt lat="39.615110000" lon="-8.636822000">
        <ele>267.200000</ele>
        <time>2020-10-17T15:01:28Z</time>
      </trkpt>
      <trkpt lat="39.615125000" lon="-8.636984000">
        <ele>267.600000</ele>
        <time>2020-10-17T15:01:31Z</time>
      </trkpt>
      <trkpt lat="39.615129000" lon="-8.637036000">
        <ele>267.800000</ele>
        <time>2020-10-17T15:01:32Z</time>
      </trkpt>
      <trkpt lat="39.615134000" lon="-8.637088000">
        <ele>267.800000</ele>
        <time>2020-10-17T15:01:33Z</time>
      </trkpt>
      <trkpt lat="39.615154000" lon="-8.637448000">
        <ele>268.400000</ele>
        <time>2020-10-17T15:01:40Z</time>
      </trkpt>
      <trkpt lat="39.615173000" lon="-8.637664000">
        <ele>268.800000</ele>
        <time>2020-10-17T15:01:44Z</time>
      </trkpt>
      <trkpt lat="39.615178000" lon="-8.637716000">
        <ele>268.600000</ele>
        <time>2020-10-17T15:01:45Z</time>
      </trkpt>
      <trkpt lat="39.615180000" lon="-8.637770000">
        <ele>268.800000</ele>
        <time>2020-10-17T15:01:46Z</time>
      </trkpt>
      <trkpt lat="39.615188000" lon="-8.637878000">
        <ele>269.000000</ele>
        <time>2020-10-17T15:01:48Z</time>
      </trkpt>
      <trkpt lat="39.615191000" lon="-8.637929000">
        <ele>269.200000</ele>
        <time>2020-10-17T15:01:49Z</time>
      </trkpt>
      <trkpt lat="39.615194000" lon="-8.637981000">
        <ele>269.200000</ele>
        <time>2020-10-17T15:01:50Z</time>
      </trkpt>
      <trkpt lat="39.615203000" lon="-8.638084000">
        <ele>269.200000</ele>
        <time>2020-10-17T15:01:52Z</time>
      </trkpt>
      <trkpt lat="39.615206000" lon="-8.638136000">
        <ele>269.200000</ele>
        <time>2020-10-17T15:01:53Z</time>
      </trkpt>
      <trkpt lat="39.615229000" lon="-8.638528000">
        <ele>269.600000</ele>
        <time>2020-10-17T15:02:00Z</time>
      </trkpt>
      <trkpt lat="39.615230000" lon="-8.638582000">
        <ele>269.800000</ele>
        <time>2020-10-17T15:02:01Z</time>
      </trkpt>
      <trkpt lat="39.615232000" lon="-8.638633000">
        <ele>269.800000</ele>
        <time>2020-10-17T15:02:02Z</time>
      </trkpt>
      <trkpt lat="39.615233000" lon="-8.638683000">
        <ele>269.800000</ele>
        <time>2020-10-17T15:02:03Z</time>
      </trkpt>
      <trkpt lat="39.615234000" lon="-8.638732000">
        <ele>269.800000</ele>
        <time>2020-10-17T15:02:04Z</time>
      </trkpt>
      <trkpt lat="39.615235000" lon="-8.638778000">
        <ele>269.800000</ele>
        <time>2020-10-17T15:02:05Z</time>
      </trkpt>
      <trkpt lat="39.615235000" lon="-8.638820000">
        <ele>270.000000</ele>
        <time>2020-10-17T15:02:06Z</time>
      </trkpt>
      <trkpt lat="39.615237000" lon="-8.638859000">
        <ele>270.200000</ele>
        <time>2020-10-17T15:02:07Z</time>
      </trkpt>
      <trkpt lat="39.615238000" lon="-8.638898000">
        <ele>270.200000</ele>
        <time>2020-10-17T15:02:08Z</time>
      </trkpt>
      <trkpt lat="39.615226000" lon="-8.639171000">
        <ele>270.400000</ele>
        <time>2020-10-17T15:02:14Z</time>
      </trkpt>
      <trkpt lat="39.615226000" lon="-8.639216000">
        <ele>270.400000</ele>
        <time>2020-10-17T15:02:15Z</time>
      </trkpt>
      <trkpt lat="39.615225000" lon="-8.639257000">
        <ele>270.600000</ele>
        <time>2020-10-17T15:02:16Z</time>
      </trkpt>
      <trkpt lat="39.615224000" lon="-8.639299000">
        <ele>270.800000</ele>
        <time>2020-10-17T15:02:17Z</time>
      </trkpt>
      <trkpt lat="39.615220000" lon="-8.639338000">
        <ele>271.000000</ele>
        <time>2020-10-17T15:02:18Z</time>
      </trkpt>
      <trkpt lat="39.615219000" lon="-8.639374000">
        <ele>271.000000</ele>
        <time>2020-10-17T15:02:19Z</time>
      </trkpt>
      <trkpt lat="39.615216000" lon="-8.639407000">
        <ele>271.000000</ele>
        <time>2020-10-17T15:02:20Z</time>
      </trkpt>
      <trkpt lat="39.615212000" lon="-8.639441000">
        <ele>271.000000</ele>
        <time>2020-10-17T15:02:21Z</time>
      </trkpt>
      <trkpt lat="39.615210000" lon="-8.639473000">
        <ele>271.000000</ele>
        <time>2020-10-17T15:02:22Z</time>
      </trkpt>
      <trkpt lat="39.615210000" lon="-8.639506000">
        <ele>271.200000</ele>
        <time>2020-10-17T15:02:23Z</time>
      </trkpt>
      <trkpt lat="39.615210000" lon="-8.639537000">
        <ele>271.400000</ele>
        <time>2020-10-17T15:02:24Z</time>
      </trkpt>
      <trkpt lat="39.615212000" lon="-8.639572000">
        <ele>271.400000</ele>
        <time>2020-10-17T15:02:25Z</time>
      </trkpt>
      <trkpt lat="39.615214000" lon="-8.639609000">
        <ele>271.600000</ele>
        <time>2020-10-17T15:02:26Z</time>
      </trkpt>
      <trkpt lat="39.615220000" lon="-8.639642000">
        <ele>271.800000</ele>
        <time>2020-10-17T15:02:27Z</time>
      </trkpt>
      <trkpt lat="39.615231000" lon="-8.639674000">
        <ele>272.200000</ele>
        <time>2020-10-17T15:02:28Z</time>
      </trkpt>
      <trkpt lat="39.615244000" lon="-8.639700000">
        <ele>272.200000</ele>
        <time>2020-10-17T15:02:29Z</time>
      </trkpt>
      <trkpt lat="39.615262000" lon="-8.639729000">
        <ele>272.600000</ele>
        <time>2020-10-17T15:02:30Z</time>
      </trkpt>
      <trkpt lat="39.615286000" lon="-8.639748000">
        <ele>272.400000</ele>
        <time>2020-10-17T15:02:31Z</time>
      </trkpt>
      <trkpt lat="39.615313000" lon="-8.639756000">
        <ele>272.800000</ele>
        <time>2020-10-17T15:02:32Z</time>
      </trkpt>
      <trkpt lat="39.615343000" lon="-8.639764000">
        <ele>273.000000</ele>
        <time>2020-10-17T15:02:33Z</time>
      </trkpt>
      <trkpt lat="39.615376000" lon="-8.639779000">
        <ele>273.400000</ele>
        <time>2020-10-17T15:02:34Z</time>
      </trkpt>
      <trkpt lat="39.615408000" lon="-8.639802000">
        <ele>273.200000</ele>
        <time>2020-10-17T15:02:35Z</time>
      </trkpt>
      <trkpt lat="39.615440000" lon="-8.639828000">
        <ele>273.400000</ele>
        <time>2020-10-17T15:02:36Z</time>
      </trkpt>
      <trkpt lat="39.615472000" lon="-8.639861000">
        <ele>273.400000</ele>
        <time>2020-10-17T15:02:37Z</time>
      </trkpt>
      <trkpt lat="39.615506000" lon="-8.639900000">
        <ele>273.400000</ele>
        <time>2020-10-17T15:02:38Z</time>
      </trkpt>
      <trkpt lat="39.615540000" lon="-8.639938000">
        <ele>273.600000</ele>
        <time>2020-10-17T15:02:39Z</time>
      </trkpt>
      <trkpt lat="39.615572000" lon="-8.639972000">
        <ele>273.400000</ele>
        <time>2020-10-17T15:02:40Z</time>
      </trkpt>
      <trkpt lat="39.615603000" lon="-8.640002000">
        <ele>273.400000</ele>
        <time>2020-10-17T15:02:41Z</time>
      </trkpt>
      <trkpt lat="39.615633000" lon="-8.640031000">
        <ele>273.400000</ele>
        <time>2020-10-17T15:02:42Z</time>
      </trkpt>
      <trkpt lat="39.615663000" lon="-8.640061000">
        <ele>273.600000</ele>
        <time>2020-10-17T15:02:43Z</time>
      </trkpt>
      <trkpt lat="39.615691000" lon="-8.640091000">
        <ele>273.800000</ele>
        <time>2020-10-17T15:02:44Z</time>
      </trkpt>
      <trkpt lat="39.615720000" lon="-8.640122000">
        <ele>273.800000</ele>
        <time>2020-10-17T15:02:45Z</time>
      </trkpt>
      <trkpt lat="39.615744000" lon="-8.640147000">
        <ele>273.800000</ele>
        <time>2020-10-17T15:02:46Z</time>
      </trkpt>
      <trkpt lat="39.615763000" lon="-8.640167000">
        <ele>273.800000</ele>
        <time>2020-10-17T15:02:47Z</time>
      </trkpt>
      <trkpt lat="39.615779000" lon="-8.640181000">
        <ele>274.000000</ele>
        <time>2020-10-17T15:02:48Z</time>
      </trkpt>
      <trkpt lat="39.615790000" lon="-8.640192000">
        <ele>274.000000</ele>
        <time>2020-10-17T15:02:49Z</time>
      </trkpt>
      <trkpt lat="39.615798000" lon="-8.640206000">
        <ele>274.000000</ele>
        <time>2020-10-17T15:02:50Z</time>
      </trkpt>
      <trkpt lat="39.615811000" lon="-8.640248000">
        <ele>273.800000</ele>
        <time>2020-10-17T15:02:52Z</time>
      </trkpt>
      <trkpt lat="39.615816000" lon="-8.640271000">
        <ele>274.000000</ele>
        <time>2020-10-17T15:02:53Z</time>
      </trkpt>
      <trkpt lat="39.615822000" lon="-8.640298000">
        <ele>273.800000</ele>
        <time>2020-10-17T15:02:54Z</time>
      </trkpt>
      <trkpt lat="39.615832000" lon="-8.640326000">
        <ele>273.800000</ele>
        <time>2020-10-17T15:02:55Z</time>
      </trkpt>
      <trkpt lat="39.615844000" lon="-8.640358000">
        <ele>274.000000</ele>
        <time>2020-10-17T15:02:56Z</time>
      </trkpt>
      <trkpt lat="39.615854000" lon="-8.640392000">
        <ele>274.000000</ele>
        <time>2020-10-17T15:02:57Z</time>
      </trkpt>
      <trkpt lat="39.615872000" lon="-8.640538000">
        <ele>274.200000</ele>
        <time>2020-10-17T15:03:01Z</time>
      </trkpt>
      <trkpt lat="39.615874000" lon="-8.640574000">
        <ele>274.400000</ele>
        <time>2020-10-17T15:03:02Z</time>
      </trkpt>
      <trkpt lat="39.615876000" lon="-8.640649000">
        <ele>274.400000</ele>
        <time>2020-10-17T15:03:04Z</time>
      </trkpt>
      <trkpt lat="39.615883000" lon="-8.640722000">
        <ele>274.600000</ele>
        <time>2020-10-17T15:03:06Z</time>
      </trkpt>
      <trkpt lat="39.615882000" lon="-8.640755000">
        <ele>274.600000</ele>
        <time>2020-10-17T15:03:07Z</time>
      </trkpt>
      <trkpt lat="39.615884000" lon="-8.640788000">
        <ele>274.600000</ele>
        <time>2020-10-17T15:03:08Z</time>
      </trkpt>
      <trkpt lat="39.615888000" lon="-8.640822000">
        <ele>274.800000</ele>
        <time>2020-10-17T15:03:09Z</time>
      </trkpt>
      <trkpt lat="39.615893000" lon="-8.640850000">
        <ele>275.000000</ele>
        <time>2020-10-17T15:03:10Z</time>
      </trkpt>
      <trkpt lat="39.615901000" lon="-8.640878000">
        <ele>275.200000</ele>
        <time>2020-10-17T15:03:11Z</time>
      </trkpt>
      <trkpt lat="39.615916000" lon="-8.640907000">
        <ele>275.200000</ele>
        <time>2020-10-17T15:03:12Z</time>
      </trkpt>
      <trkpt lat="39.615922000" lon="-8.640934000">
        <ele>275.200000</ele>
        <time>2020-10-17T15:03:13Z</time>
      </trkpt>
      <trkpt lat="39.615930000" lon="-8.640959000">
        <ele>275.400000</ele>
        <time>2020-10-17T15:03:14Z</time>
      </trkpt>
      <trkpt lat="39.615938000" lon="-8.640984000">
        <ele>275.600000</ele>
        <time>2020-10-17T15:03:15Z</time>
      </trkpt>
      <trkpt lat="39.615953000" lon="-8.641009000">
        <ele>275.600000</ele>
        <time>2020-10-17T15:03:16Z</time>
      </trkpt>
      <trkpt lat="39.615972000" lon="-8.641035000">
        <ele>276.000000</ele>
        <time>2020-10-17T15:03:17Z</time>
      </trkpt>
      <trkpt lat="39.615995000" lon="-8.641053000">
        <ele>276.200000</ele>
        <time>2020-10-17T15:03:18Z</time>
      </trkpt>
      <trkpt lat="39.616018000" lon="-8.641074000">
        <ele>276.400000</ele>
        <time>2020-10-17T15:03:19Z</time>
      </trkpt>
      <trkpt lat="39.616036000" lon="-8.641093000">
        <ele>276.600000</ele>
        <time>2020-10-17T15:03:20Z</time>
      </trkpt>
      <trkpt lat="39.616055000" lon="-8.641114000">
        <ele>276.800000</ele>
        <time>2020-10-17T15:03:21Z</time>
      </trkpt>
      <trkpt lat="39.616076000" lon="-8.641135000">
        <ele>276.800000</ele>
        <time>2020-10-17T15:03:22Z</time>
      </trkpt>
      <trkpt lat="39.616095000" lon="-8.641156000">
        <ele>277.000000</ele>
        <time>2020-10-17T15:03:23Z</time>
      </trkpt>
      <trkpt lat="39.616110000" lon="-8.641176000">
        <ele>277.200000</ele>
        <time>2020-10-17T15:03:24Z</time>
      </trkpt>
      <trkpt lat="39.616120000" lon="-8.641195000">
        <ele>277.200000</ele>
        <time>2020-10-17T15:03:25Z</time>
      </trkpt>
      <trkpt lat="39.616129000" lon="-8.641218000">
        <ele>277.400000</ele>
        <time>2020-10-17T15:03:26Z</time>
      </trkpt>
      <trkpt lat="39.616134000" lon="-8.641241000">
        <ele>277.400000</ele>
        <time>2020-10-17T15:03:27Z</time>
      </trkpt>
      <trkpt lat="39.616136000" lon="-8.641265000">
        <ele>277.400000</ele>
        <time>2020-10-17T15:03:28Z</time>
      </trkpt>
      <trkpt lat="39.616138000" lon="-8.641287000">
        <ele>277.600000</ele>
        <time>2020-10-17T15:03:29Z</time>
      </trkpt>
      <trkpt lat="39.616138000" lon="-8.641311000">
        <ele>277.800000</ele>
        <time>2020-10-17T15:03:30Z</time>
      </trkpt>
      <trkpt lat="39.616138000" lon="-8.641333000">
        <ele>277.800000</ele>
        <time>2020-10-17T15:03:31Z</time>
      </trkpt>
      <trkpt lat="39.616136000" lon="-8.641357000">
        <ele>278.200000</ele>
        <time>2020-10-17T15:03:32Z</time>
      </trkpt>
      <trkpt lat="39.616135000" lon="-8.641389000">
        <ele>278.200000</ele>
        <time>2020-10-17T15:03:33Z</time>
      </trkpt>
      <trkpt lat="39.616136000" lon="-8.641420000">
        <ele>278.600000</ele>
        <time>2020-10-17T15:03:34Z</time>
      </trkpt>
      <trkpt lat="39.616135000" lon="-8.641456000">
        <ele>278.800000</ele>
        <time>2020-10-17T15:03:35Z</time>
      </trkpt>
      <trkpt lat="39.616136000" lon="-8.641493000">
        <ele>279.000000</ele>
        <time>2020-10-17T15:03:36Z</time>
      </trkpt>
      <trkpt lat="39.616134000" lon="-8.641532000">
        <ele>279.000000</ele>
        <time>2020-10-17T15:03:37Z</time>
      </trkpt>
      <trkpt lat="39.616135000" lon="-8.641569000">
        <ele>279.200000</ele>
        <time>2020-10-17T15:03:38Z</time>
      </trkpt>
      <trkpt lat="39.616135000" lon="-8.641605000">
        <ele>279.400000</ele>
        <time>2020-10-17T15:03:39Z</time>
      </trkpt>
      <trkpt lat="39.616138000" lon="-8.641640000">
        <ele>279.600000</ele>
        <time>2020-10-17T15:03:40Z</time>
      </trkpt>
      <trkpt lat="39.616143000" lon="-8.641671000">
        <ele>279.800000</ele>
        <time>2020-10-17T15:03:41Z</time>
      </trkpt>
      <trkpt lat="39.616149000" lon="-8.641701000">
        <ele>279.800000</ele>
        <time>2020-10-17T15:03:42Z</time>
      </trkpt>
      <trkpt lat="39.616154000" lon="-8.641731000">
        <ele>279.800000</ele>
        <time>2020-10-17T15:03:43Z</time>
      </trkpt>
      <trkpt lat="39.616159000" lon="-8.641754000">
        <ele>280.000000</ele>
        <time>2020-10-17T15:03:44Z</time>
      </trkpt>
      <trkpt lat="39.616165000" lon="-8.641774000">
        <ele>280.000000</ele>
        <time>2020-10-17T15:03:45Z</time>
      </trkpt>
      <trkpt lat="39.616169000" lon="-8.641793000">
        <ele>280.000000</ele>
        <time>2020-10-17T15:03:46Z</time>
      </trkpt>
      <trkpt lat="39.616172000" lon="-8.641813000">
        <ele>280.200000</ele>
        <time>2020-10-17T15:03:47Z</time>
      </trkpt>
      <trkpt lat="39.616169000" lon="-8.641834000">
        <ele>280.200000</ele>
        <time>2020-10-17T15:03:48Z</time>
      </trkpt>
      <trkpt lat="39.616163000" lon="-8.641855000">
        <ele>280.200000</ele>
        <time>2020-10-17T15:03:49Z</time>
      </trkpt>
      <trkpt lat="39.616154000" lon="-8.641877000">
        <ele>280.200000</ele>
        <time>2020-10-17T15:03:50Z</time>
      </trkpt>
      <trkpt lat="39.616143000" lon="-8.641898000">
        <ele>280.200000</ele>
        <time>2020-10-17T15:03:51Z</time>
      </trkpt>
      <trkpt lat="39.616130000" lon="-8.641916000">
        <ele>280.400000</ele>
        <time>2020-10-17T15:03:52Z</time>
      </trkpt>
      <trkpt lat="39.616113000" lon="-8.641939000">
        <ele>280.600000</ele>
        <time>2020-10-17T15:03:53Z</time>
      </trkpt>
      <trkpt lat="39.616099000" lon="-8.641960000">
        <ele>281.000000</ele>
        <time>2020-10-17T15:03:54Z</time>
      </trkpt>
      <trkpt lat="39.616082000" lon="-8.641985000">
        <ele>281.200000</ele>
        <time>2020-10-17T15:03:55Z</time>
      </trkpt>
      <trkpt lat="39.616062000" lon="-8.642008000">
        <ele>281.200000</ele>
        <time>2020-10-17T15:03:56Z</time>
      </trkpt>
      <trkpt lat="39.616039000" lon="-8.642033000">
        <ele>281.200000</ele>
        <time>2020-10-17T15:03:57Z</time>
      </trkpt>
      <trkpt lat="39.616013000" lon="-8.642060000">
        <ele>281.600000</ele>
        <time>2020-10-17T15:03:58Z</time>
      </trkpt>
      <trkpt lat="39.615993000" lon="-8.642084000">
        <ele>281.600000</ele>
        <time>2020-10-17T15:03:59Z</time>
      </trkpt>
      <trkpt lat="39.615979000" lon="-8.642108000">
        <ele>281.600000</ele>
        <time>2020-10-17T15:04:00Z</time>
      </trkpt>
      <trkpt lat="39.615967000" lon="-8.642136000">
        <ele>281.600000</ele>
        <time>2020-10-17T15:04:01Z</time>
      </trkpt>
      <trkpt lat="39.615957000" lon="-8.642164000">
        <ele>281.600000</ele>
        <time>2020-10-17T15:04:02Z</time>
      </trkpt>
      <trkpt lat="39.615940000" lon="-8.642225000">
        <ele>281.600000</ele>
        <time>2020-10-17T15:04:04Z</time>
      </trkpt>
      <trkpt lat="39.615930000" lon="-8.642250000">
        <ele>281.800000</ele>
        <time>2020-10-17T15:04:05Z</time>
      </trkpt>
      <trkpt lat="39.615911000" lon="-8.642305000">
        <ele>281.600000</ele>
        <time>2020-10-17T15:04:07Z</time>
      </trkpt>
      <trkpt lat="39.615898000" lon="-8.642332000">
        <ele>281.600000</ele>
        <time>2020-10-17T15:04:08Z</time>
      </trkpt>
      <trkpt lat="39.615889000" lon="-8.642358000">
        <ele>281.800000</ele>
        <time>2020-10-17T15:04:09Z</time>
      </trkpt>
      <trkpt lat="39.615868000" lon="-8.642408000">
        <ele>281.800000</ele>
        <time>2020-10-17T15:04:11Z</time>
      </trkpt>
      <trkpt lat="39.615851000" lon="-8.642429000">
        <ele>281.600000</ele>
        <time>2020-10-17T15:04:12Z</time>
      </trkpt>
      <trkpt lat="39.615835000" lon="-8.642445000">
        <ele>282.000000</ele>
        <time>2020-10-17T15:04:13Z</time>
      </trkpt>
      <trkpt lat="39.615825000" lon="-8.642460000">
        <ele>282.000000</ele>
        <time>2020-10-17T15:04:14Z</time>
      </trkpt>
      <trkpt lat="39.615814000" lon="-8.642472000">
        <ele>282.000000</ele>
        <time>2020-10-17T15:04:15Z</time>
      </trkpt>
      <trkpt lat="39.615809000" lon="-8.642485000">
        <ele>282.000000</ele>
        <time>2020-10-17T15:04:16Z</time>
      </trkpt>
      <trkpt lat="39.615803000" lon="-8.642502000">
        <ele>282.200000</ele>
        <time>2020-10-17T15:04:17Z</time>
      </trkpt>
      <trkpt lat="39.615798000" lon="-8.642525000">
        <ele>282.400000</ele>
        <time>2020-10-17T15:04:18Z</time>
      </trkpt>
      <trkpt lat="39.615792000" lon="-8.642550000">
        <ele>282.400000</ele>
        <time>2020-10-17T15:04:19Z</time>
      </trkpt>
      <trkpt lat="39.615784000" lon="-8.642575000">
        <ele>282.400000</ele>
        <time>2020-10-17T15:04:20Z</time>
      </trkpt>
      <trkpt lat="39.615776000" lon="-8.642598000">
        <ele>282.600000</ele>
        <time>2020-10-17T15:04:21Z</time>
      </trkpt>
      <trkpt lat="39.615764000" lon="-8.642625000">
        <ele>282.600000</ele>
        <time>2020-10-17T15:04:22Z</time>
      </trkpt>
      <trkpt lat="39.615753000" lon="-8.642655000">
        <ele>283.200000</ele>
        <time>2020-10-17T15:04:23Z</time>
      </trkpt>
      <trkpt lat="39.615741000" lon="-8.642689000">
        <ele>283.600000</ele>
        <time>2020-10-17T15:04:24Z</time>
      </trkpt>
      <trkpt lat="39.615726000" lon="-8.642724000">
        <ele>283.800000</ele>
        <time>2020-10-17T15:04:25Z</time>
      </trkpt>
      <trkpt lat="39.615713000" lon="-8.642760000">
        <ele>284.000000</ele>
        <time>2020-10-17T15:04:26Z</time>
      </trkpt>
      <trkpt lat="39.615706000" lon="-8.642785000">
        <ele>284.000000</ele>
        <time>2020-10-17T15:04:27Z</time>
      </trkpt>
      <trkpt lat="39.615697000" lon="-8.642816000">
        <ele>284.000000</ele>
        <time>2020-10-17T15:04:28Z</time>
      </trkpt>
      <trkpt lat="39.615700000" lon="-8.642841000">
        <ele>284.200000</ele>
        <time>2020-10-17T15:04:29Z</time>
      </trkpt>
      <trkpt lat="39.615704000" lon="-8.642867000">
        <ele>284.200000</ele>
        <time>2020-10-17T15:04:30Z</time>
      </trkpt>
      <trkpt lat="39.615706000" lon="-8.642894000">
        <ele>284.400000</ele>
        <time>2020-10-17T15:04:31Z</time>
      </trkpt>
      <trkpt lat="39.615703000" lon="-8.642918000">
        <ele>284.400000</ele>
        <time>2020-10-17T15:04:32Z</time>
      </trkpt>
      <trkpt lat="39.615699000" lon="-8.642938000">
        <ele>284.400000</ele>
        <time>2020-10-17T15:04:33Z</time>
      </trkpt>
      <trkpt lat="39.615693000" lon="-8.642954000">
        <ele>284.400000</ele>
        <time>2020-10-17T15:04:34Z</time>
      </trkpt>
      <trkpt lat="39.615685000" lon="-8.642971000">
        <ele>284.600000</ele>
        <time>2020-10-17T15:04:35Z</time>
      </trkpt>
      <trkpt lat="39.615677000" lon="-8.642987000">
        <ele>284.600000</ele>
        <time>2020-10-17T15:04:36Z</time>
      </trkpt>
      <trkpt lat="39.615665000" lon="-8.642996000">
        <ele>284.600000</ele>
        <time>2020-10-17T15:04:37Z</time>
      </trkpt>
      <trkpt lat="39.615652000" lon="-8.643005000">
        <ele>284.600000</ele>
        <time>2020-10-17T15:04:38Z</time>
      </trkpt>
      <trkpt lat="39.615636000" lon="-8.643020000">
        <ele>284.600000</ele>
        <time>2020-10-17T15:04:39Z</time>
      </trkpt>
      <trkpt lat="39.615627000" lon="-8.643035000">
        <ele>284.800000</ele>
        <time>2020-10-17T15:04:40Z</time>
      </trkpt>
      <trkpt lat="39.615619000" lon="-8.643052000">
        <ele>284.800000</ele>
        <time>2020-10-17T15:04:41Z</time>
      </trkpt>
      <trkpt lat="39.615608000" lon="-8.643072000">
        <ele>284.800000</ele>
        <time>2020-10-17T15:04:42Z</time>
      </trkpt>
      <trkpt lat="39.615597000" lon="-8.643093000">
        <ele>284.800000</ele>
        <time>2020-10-17T15:04:43Z</time>
      </trkpt>
      <trkpt lat="39.615589000" lon="-8.643112000">
        <ele>285.000000</ele>
        <time>2020-10-17T15:04:44Z</time>
      </trkpt>
      <trkpt lat="39.615578000" lon="-8.643126000">
        <ele>285.200000</ele>
        <time>2020-10-17T15:04:45Z</time>
      </trkpt>
      <trkpt lat="39.615570000" lon="-8.643138000">
        <ele>285.600000</ele>
        <time>2020-10-17T15:04:46Z</time>
      </trkpt>
      <trkpt lat="39.615562000" lon="-8.643152000">
        <ele>285.600000</ele>
        <time>2020-10-17T15:04:47Z</time>
      </trkpt>
      <trkpt lat="39.615556000" lon="-8.643168000">
        <ele>285.600000</ele>
        <time>2020-10-17T15:04:48Z</time>
      </trkpt>
      <trkpt lat="39.615555000" lon="-8.643191000">
        <ele>286.000000</ele>
        <time>2020-10-17T15:04:49Z</time>
      </trkpt>
      <trkpt lat="39.615560000" lon="-8.643214000">
        <ele>286.000000</ele>
        <time>2020-10-17T15:04:50Z</time>
      </trkpt>
      <trkpt lat="39.615564000" lon="-8.643235000">
        <ele>286.400000</ele>
        <time>2020-10-17T15:04:51Z</time>
      </trkpt>
      <trkpt lat="39.615564000" lon="-8.643261000">
        <ele>286.600000</ele>
        <time>2020-10-17T15:04:52Z</time>
      </trkpt>
      <trkpt lat="39.615565000" lon="-8.643288000">
        <ele>286.600000</ele>
        <time>2020-10-17T15:04:53Z</time>
      </trkpt>
      <trkpt lat="39.615565000" lon="-8.643312000">
        <ele>286.600000</ele>
        <time>2020-10-17T15:04:54Z</time>
      </trkpt>
      <trkpt lat="39.615566000" lon="-8.643331000">
        <ele>286.600000</ele>
        <time>2020-10-17T15:04:55Z</time>
      </trkpt>
      <trkpt lat="39.615566000" lon="-8.643350000">
        <ele>286.800000</ele>
        <time>2020-10-17T15:04:56Z</time>
      </trkpt>
      <trkpt lat="39.615564000" lon="-8.643367000">
        <ele>287.000000</ele>
        <time>2020-10-17T15:04:57Z</time>
      </trkpt>
      <trkpt lat="39.615562000" lon="-8.643384000">
        <ele>287.000000</ele>
        <time>2020-10-17T15:04:58Z</time>
      </trkpt>
      <trkpt lat="39.615560000" lon="-8.643421000">
        <ele>287.000000</ele>
        <time>2020-10-17T15:05:00Z</time>
      </trkpt>
      <trkpt lat="39.615568000" lon="-8.643448000">
        <ele>287.000000</ele>
        <time>2020-10-17T15:05:01Z</time>
      </trkpt>
      <trkpt lat="39.615578000" lon="-8.643480000">
        <ele>287.200000</ele>
        <time>2020-10-17T15:05:02Z</time>
      </trkpt>
      <trkpt lat="39.615584000" lon="-8.643510000">
        <ele>287.400000</ele>
        <time>2020-10-17T15:05:03Z</time>
      </trkpt>
      <trkpt lat="39.615586000" lon="-8.643537000">
        <ele>287.200000</ele>
        <time>2020-10-17T15:05:04Z</time>
      </trkpt>
      <trkpt lat="39.615580000" lon="-8.643563000">
        <ele>287.200000</ele>
        <time>2020-10-17T15:05:05Z</time>
      </trkpt>
      <trkpt lat="39.615579000" lon="-8.643586000">
        <ele>287.400000</ele>
        <time>2020-10-17T15:05:06Z</time>
      </trkpt>
      <trkpt lat="39.615575000" lon="-8.643609000">
        <ele>287.200000</ele>
        <time>2020-10-17T15:05:07Z</time>
      </trkpt>
      <trkpt lat="39.615582000" lon="-8.643660000">
        <ele>287.200000</ele>
        <time>2020-10-17T15:05:09Z</time>
      </trkpt>
      <trkpt lat="39.615579000" lon="-8.643680000">
        <ele>287.400000</ele>
        <time>2020-10-17T15:05:10Z</time>
      </trkpt>
      <trkpt lat="39.615574000" lon="-8.643697000">
        <ele>287.400000</ele>
        <time>2020-10-17T15:05:11Z</time>
      </trkpt>
      <trkpt lat="39.615558000" lon="-8.643785000">
        <ele>287.600000</ele>
        <time>2020-10-17T15:05:14Z</time>
      </trkpt>
      <trkpt lat="39.615557000" lon="-8.643843000">
        <ele>287.800000</ele>
        <time>2020-10-17T15:05:16Z</time>
      </trkpt>
      <trkpt lat="39.615549000" lon="-8.643872000">
        <ele>288.000000</ele>
        <time>2020-10-17T15:05:17Z</time>
      </trkpt>
      <trkpt lat="39.615543000" lon="-8.643898000">
        <ele>288.000000</ele>
        <time>2020-10-17T15:05:18Z</time>
      </trkpt>
      <trkpt lat="39.615543000" lon="-8.643923000">
        <ele>288.200000</ele>
        <time>2020-10-17T15:05:19Z</time>
      </trkpt>
      <trkpt lat="39.615548000" lon="-8.643945000">
        <ele>288.400000</ele>
        <time>2020-10-17T15:05:20Z</time>
      </trkpt>
      <trkpt lat="39.615559000" lon="-8.643963000">
        <ele>288.200000</ele>
        <time>2020-10-17T15:05:21Z</time>
      </trkpt>
      <trkpt lat="39.615566000" lon="-8.643980000">
        <ele>288.400000</ele>
        <time>2020-10-17T15:05:22Z</time>
      </trkpt>
      <trkpt lat="39.615570000" lon="-8.643996000">
        <ele>288.400000</ele>
        <time>2020-10-17T15:05:23Z</time>
      </trkpt>
      <trkpt lat="39.615571000" lon="-8.644011000">
        <ele>288.600000</ele>
        <time>2020-10-17T15:05:24Z</time>
      </trkpt>
      <trkpt lat="39.615570000" lon="-8.644030000">
        <ele>288.400000</ele>
        <time>2020-10-17T15:05:25Z</time>
      </trkpt>
      <trkpt lat="39.615566000" lon="-8.644049000">
        <ele>288.600000</ele>
        <time>2020-10-17T15:05:26Z</time>
      </trkpt>
      <trkpt lat="39.615565000" lon="-8.644065000">
        <ele>288.800000</ele>
        <time>2020-10-17T15:05:27Z</time>
      </trkpt>
      <trkpt lat="39.615559000" lon="-8.644084000">
        <ele>288.800000</ele>
        <time>2020-10-17T15:05:28Z</time>
      </trkpt>
      <trkpt lat="39.615551000" lon="-8.644102000">
        <ele>288.800000</ele>
        <time>2020-10-17T15:05:29Z</time>
      </trkpt>
      <trkpt lat="39.615543000" lon="-8.644118000">
        <ele>289.000000</ele>
        <time>2020-10-17T15:05:30Z</time>
      </trkpt>
      <trkpt lat="39.615535000" lon="-8.644138000">
        <ele>289.200000</ele>
        <time>2020-10-17T15:05:31Z</time>
      </trkpt>
      <trkpt lat="39.615527000" lon="-8.644160000">
        <ele>289.200000</ele>
        <time>2020-10-17T15:05:32Z</time>
      </trkpt>
      <trkpt lat="39.615523000" lon="-8.644182000">
        <ele>289.600000</ele>
        <time>2020-10-17T15:05:33Z</time>
      </trkpt>
      <trkpt lat="39.615523000" lon="-8.644207000">
        <ele>290.000000</ele>
        <time>2020-10-17T15:05:34Z</time>
      </trkpt>
      <trkpt lat="39.615532000" lon="-8.644231000">
        <ele>290.000000</ele>
        <time>2020-10-17T15:05:35Z</time>
      </trkpt>
      <trkpt lat="39.615543000" lon="-8.644259000">
        <ele>290.000000</ele>
        <time>2020-10-17T15:05:36Z</time>
      </trkpt>
      <trkpt lat="39.615555000" lon="-8.644294000">
        <ele>290.000000</ele>
        <time>2020-10-17T15:05:37Z</time>
      </trkpt>
      <trkpt lat="39.615565000" lon="-8.644332000">
        <ele>290.000000</ele>
        <time>2020-10-17T15:05:38Z</time>
      </trkpt>
      <trkpt lat="39.615575000" lon="-8.644367000">
        <ele>290.200000</ele>
        <time>2020-10-17T15:05:39Z</time>
      </trkpt>
      <trkpt lat="39.615577000" lon="-8.644396000">
        <ele>290.400000</ele>
        <time>2020-10-17T15:05:40Z</time>
      </trkpt>
      <trkpt lat="39.615584000" lon="-8.644428000">
        <ele>290.400000</ele>
        <time>2020-10-17T15:05:41Z</time>
      </trkpt>
      <trkpt lat="39.615592000" lon="-8.644457000">
        <ele>290.400000</ele>
        <time>2020-10-17T15:05:42Z</time>
      </trkpt>
      <trkpt lat="39.615601000" lon="-8.644485000">
        <ele>290.600000</ele>
        <time>2020-10-17T15:05:43Z</time>
      </trkpt>
      <trkpt lat="39.615614000" lon="-8.644514000">
        <ele>290.600000</ele>
        <time>2020-10-17T15:05:44Z</time>
      </trkpt>
      <trkpt lat="39.615626000" lon="-8.644542000">
        <ele>290.800000</ele>
        <time>2020-10-17T15:05:45Z</time>
      </trkpt>
      <trkpt lat="39.615633000" lon="-8.644573000">
        <ele>290.800000</ele>
        <time>2020-10-17T15:05:46Z</time>
      </trkpt>
      <trkpt lat="39.615640000" lon="-8.644603000">
        <ele>290.600000</ele>
        <time>2020-10-17T15:05:47Z</time>
      </trkpt>
      <trkpt lat="39.615656000" lon="-8.644628000">
        <ele>291.000000</ele>
        <time>2020-10-17T15:05:48Z</time>
      </trkpt>
      <trkpt lat="39.615674000" lon="-8.644649000">
        <ele>290.800000</ele>
        <time>2020-10-17T15:05:49Z</time>
      </trkpt>
      <trkpt lat="39.615691000" lon="-8.644668000">
        <ele>291.200000</ele>
        <time>2020-10-17T15:05:50Z</time>
      </trkpt>
      <trkpt lat="39.615705000" lon="-8.644689000">
        <ele>291.200000</ele>
        <time>2020-10-17T15:05:51Z</time>
      </trkpt>
      <trkpt lat="39.615717000" lon="-8.644708000">
        <ele>291.400000</ele>
        <time>2020-10-17T15:05:52Z</time>
      </trkpt>
      <trkpt lat="39.615725000" lon="-8.644725000">
        <ele>291.600000</ele>
        <time>2020-10-17T15:05:53Z</time>
      </trkpt>
      <trkpt lat="39.615733000" lon="-8.644741000">
        <ele>291.600000</ele>
        <time>2020-10-17T15:05:54Z</time>
      </trkpt>
      <trkpt lat="39.615740000" lon="-8.644757000">
        <ele>291.600000</ele>
        <time>2020-10-17T15:05:55Z</time>
      </trkpt>
      <trkpt lat="39.615745000" lon="-8.644773000">
        <ele>291.600000</ele>
        <time>2020-10-17T15:05:56Z</time>
      </trkpt>
      <trkpt lat="39.615753000" lon="-8.644791000">
        <ele>291.600000</ele>
        <time>2020-10-17T15:05:57Z</time>
      </trkpt>
      <trkpt lat="39.615754000" lon="-8.644799000">
        <ele>291.800000</ele>
        <time>2020-10-17T15:05:58Z</time>
      </trkpt>
      <trkpt lat="39.615760000" lon="-8.644805000">
        <ele>291.800000</ele>
        <time>2020-10-17T15:05:59Z</time>
      </trkpt>
      <trkpt lat="39.615764000" lon="-8.644811000">
        <ele>292.200000</ele>
        <time>2020-10-17T15:06:01Z</time>
      </trkpt>
      <trkpt lat="39.615887000" lon="-8.645111000">
        <ele>295.200000</ele>
        <time>2020-10-17T15:06:31Z</time>
      </trkpt>
      <trkpt lat="39.615895000" lon="-8.645127000">
        <ele>295.000000</ele>
        <time>2020-10-17T15:06:32Z</time>
      </trkpt>
      <trkpt lat="39.615918000" lon="-8.645180000">
        <ele>295.200000</ele>
        <time>2020-10-17T15:06:35Z</time>
      </trkpt>
      <trkpt lat="39.615943000" lon="-8.645248000">
        <ele>295.200000</ele>
        <time>2020-10-17T15:06:38Z</time>
      </trkpt>
      <trkpt lat="39.615951000" lon="-8.645264000">
        <ele>295.200000</ele>
        <time>2020-10-17T15:06:39Z</time>
      </trkpt>
      <trkpt lat="39.615959000" lon="-8.645282000">
        <ele>295.400000</ele>
        <time>2020-10-17T15:06:40Z</time>
      </trkpt>
      <trkpt lat="39.615964000" lon="-8.645296000">
        <ele>295.400000</ele>
        <time>2020-10-17T15:06:41Z</time>
      </trkpt>
      <trkpt lat="39.615962000" lon="-8.645301000">
        <ele>295.400000</ele>
        <time>2020-10-17T15:06:42Z</time>
      </trkpt>
      <trkpt lat="39.615962000" lon="-8.645308000">
        <ele>295.400000</ele>
        <time>2020-10-17T15:06:43Z</time>
      </trkpt>
      <trkpt lat="39.615958000" lon="-8.645317000">
        <ele>295.600000</ele>
        <time>2020-10-17T15:06:45Z</time>
      </trkpt>
      <trkpt lat="39.616223000" lon="-8.645600000">
        <ele>299.800000</ele>
        <time>2020-10-17T15:08:43Z</time>
      </trkpt>
      <trkpt lat="39.616221000" lon="-8.645621000">
        <ele>300.000000</ele>
        <time>2020-10-17T15:08:44Z</time>
      </trkpt>
      <trkpt lat="39.616221000" lon="-8.645643000">
        <ele>300.000000</ele>
        <time>2020-10-17T15:08:45Z</time>
      </trkpt>
      <trkpt lat="39.616224000" lon="-8.645662000">
        <ele>300.000000</ele>
        <time>2020-10-17T15:08:46Z</time>
      </trkpt>
      <trkpt lat="39.616230000" lon="-8.645678000">
        <ele>300.000000</ele>
        <time>2020-10-17T15:08:47Z</time>
      </trkpt>
      <trkpt lat="39.616240000" lon="-8.645692000">
        <ele>300.000000</ele>
        <time>2020-10-17T15:08:48Z</time>
      </trkpt>
      <trkpt lat="39.616251000" lon="-8.645700000">
        <ele>300.000000</ele>
        <time>2020-10-17T15:08:49Z</time>
      </trkpt>
      <trkpt lat="39.616264000" lon="-8.645702000">
        <ele>300.200000</ele>
        <time>2020-10-17T15:08:50Z</time>
      </trkpt>
      <trkpt lat="39.616338000" lon="-8.645697000">
        <ele>300.200000</ele>
        <time>2020-10-17T15:08:54Z</time>
      </trkpt>
      <trkpt lat="39.616357000" lon="-8.645709000">
        <ele>300.400000</ele>
        <time>2020-10-17T15:08:55Z</time>
      </trkpt>
      <trkpt lat="39.616371000" lon="-8.645726000">
        <ele>300.400000</ele>
        <time>2020-10-17T15:08:56Z</time>
      </trkpt>
      <trkpt lat="39.616385000" lon="-8.645746000">
        <ele>300.400000</ele>
        <time>2020-10-17T15:08:57Z</time>
      </trkpt>
      <trkpt lat="39.616400000" lon="-8.645769000">
        <ele>300.600000</ele>
        <time>2020-10-17T15:08:58Z</time>
      </trkpt>
      <trkpt lat="39.616414000" lon="-8.645796000">
        <ele>300.800000</ele>
        <time>2020-10-17T15:08:59Z</time>
      </trkpt>
      <trkpt lat="39.616417000" lon="-8.645821000">
        <ele>300.800000</ele>
        <time>2020-10-17T15:09:00Z</time>
      </trkpt>
      <trkpt lat="39.616415000" lon="-8.645845000">
        <ele>300.800000</ele>
        <time>2020-10-17T15:09:01Z</time>
      </trkpt>
      <trkpt lat="39.616410000" lon="-8.645870000">
        <ele>300.800000</ele>
        <time>2020-10-17T15:09:02Z</time>
      </trkpt>
      <trkpt lat="39.616409000" lon="-8.645896000">
        <ele>300.800000</ele>
        <time>2020-10-17T15:09:03Z</time>
      </trkpt>
      <trkpt lat="39.616416000" lon="-8.645947000">
        <ele>301.200000</ele>
        <time>2020-10-17T15:09:05Z</time>
      </trkpt>
      <trkpt lat="39.616418000" lon="-8.645970000">
        <ele>301.200000</ele>
        <time>2020-10-17T15:09:06Z</time>
      </trkpt>
      <trkpt lat="39.616419000" lon="-8.645993000">
        <ele>301.200000</ele>
        <time>2020-10-17T15:09:07Z</time>
      </trkpt>
      <trkpt lat="39.616415000" lon="-8.646011000">
        <ele>301.400000</ele>
        <time>2020-10-17T15:09:08Z</time>
      </trkpt>
      <trkpt lat="39.616407000" lon="-8.646027000">
        <ele>301.200000</ele>
        <time>2020-10-17T15:09:09Z</time>
      </trkpt>
      <trkpt lat="39.616398000" lon="-8.646039000">
        <ele>301.400000</ele>
        <time>2020-10-17T15:09:10Z</time>
      </trkpt>
      <trkpt lat="39.616388000" lon="-8.646047000">
        <ele>301.400000</ele>
        <time>2020-10-17T15:09:11Z</time>
      </trkpt>
      <trkpt lat="39.616374000" lon="-8.646052000">
        <ele>301.600000</ele>
        <time>2020-10-17T15:09:12Z</time>
      </trkpt>
      <trkpt lat="39.616362000" lon="-8.646058000">
        <ele>301.600000</ele>
        <time>2020-10-17T15:09:13Z</time>
      </trkpt>
      <trkpt lat="39.616351000" lon="-8.646064000">
        <ele>301.800000</ele>
        <time>2020-10-17T15:09:14Z</time>
      </trkpt>
      <trkpt lat="39.616342000" lon="-8.646073000">
        <ele>302.000000</ele>
        <time>2020-10-17T15:09:15Z</time>
      </trkpt>
      <trkpt lat="39.616336000" lon="-8.646089000">
        <ele>302.000000</ele>
        <time>2020-10-17T15:09:16Z</time>
      </trkpt>
      <trkpt lat="39.616332000" lon="-8.646109000">
        <ele>302.400000</ele>
        <time>2020-10-17T15:09:17Z</time>
      </trkpt>
      <trkpt lat="39.616328000" lon="-8.646131000">
        <ele>302.600000</ele>
        <time>2020-10-17T15:09:18Z</time>
      </trkpt>
      <trkpt lat="39.616329000" lon="-8.646154000">
        <ele>302.800000</ele>
        <time>2020-10-17T15:09:19Z</time>
      </trkpt>
      <trkpt lat="39.616329000" lon="-8.646177000">
        <ele>303.000000</ele>
        <time>2020-10-17T15:09:20Z</time>
      </trkpt>
      <trkpt lat="39.616330000" lon="-8.646201000">
        <ele>303.400000</ele>
        <time>2020-10-17T15:09:21Z</time>
      </trkpt>
      <trkpt lat="39.616329000" lon="-8.646225000">
        <ele>303.800000</ele>
        <time>2020-10-17T15:09:22Z</time>
      </trkpt>
      <trkpt lat="39.616327000" lon="-8.646250000">
        <ele>304.000000</ele>
        <time>2020-10-17T15:09:23Z</time>
      </trkpt>
      <trkpt lat="39.616320000" lon="-8.646273000">
        <ele>304.400000</ele>
        <time>2020-10-17T15:09:24Z</time>
      </trkpt>
      <trkpt lat="39.616314000" lon="-8.646292000">
        <ele>304.600000</ele>
        <time>2020-10-17T15:09:25Z</time>
      </trkpt>
      <trkpt lat="39.616314000" lon="-8.646314000">
        <ele>305.200000</ele>
        <time>2020-10-17T15:09:26Z</time>
      </trkpt>
      <trkpt lat="39.616311000" lon="-8.646333000">
        <ele>305.400000</ele>
        <time>2020-10-17T15:09:27Z</time>
      </trkpt>
      <trkpt lat="39.616308000" lon="-8.646355000">
        <ele>305.400000</ele>
        <time>2020-10-17T15:09:28Z</time>
      </trkpt>
      <trkpt lat="39.616302000" lon="-8.646379000">
        <ele>305.800000</ele>
        <time>2020-10-17T15:09:29Z</time>
      </trkpt>
      <trkpt lat="39.616302000" lon="-8.646403000">
        <ele>305.800000</ele>
        <time>2020-10-17T15:09:30Z</time>
      </trkpt>
      <trkpt lat="39.616299000" lon="-8.646424000">
        <ele>306.000000</ele>
        <time>2020-10-17T15:09:31Z</time>
      </trkpt>
      <trkpt lat="39.616297000" lon="-8.646444000">
        <ele>306.200000</ele>
        <time>2020-10-17T15:09:32Z</time>
      </trkpt>
      <trkpt lat="39.616296000" lon="-8.646465000">
        <ele>306.400000</ele>
        <time>2020-10-17T15:09:33Z</time>
      </trkpt>
      <trkpt lat="39.616296000" lon="-8.646485000">
        <ele>306.800000</ele>
        <time>2020-10-17T15:09:34Z</time>
      </trkpt>
      <trkpt lat="39.616297000" lon="-8.646505000">
        <ele>307.200000</ele>
        <time>2020-10-17T15:09:35Z</time>
      </trkpt>
      <trkpt lat="39.616300000" lon="-8.646527000">
        <ele>307.600000</ele>
        <time>2020-10-17T15:09:36Z</time>
      </trkpt>
      <trkpt lat="39.616302000" lon="-8.646548000">
        <ele>307.600000</ele>
        <time>2020-10-17T15:09:37Z</time>
      </trkpt>
      <trkpt lat="39.616305000" lon="-8.646567000">
        <ele>307.800000</ele>
        <time>2020-10-17T15:09:38Z</time>
      </trkpt>
      <trkpt lat="39.616306000" lon="-8.646586000">
        <ele>308.000000</ele>
        <time>2020-10-17T15:09:39Z</time>
      </trkpt>
      <trkpt lat="39.616309000" lon="-8.646606000">
        <ele>308.200000</ele>
        <time>2020-10-17T15:09:40Z</time>
      </trkpt>
      <trkpt lat="39.616309000" lon="-8.646623000">
        <ele>308.400000</ele>
        <time>2020-10-17T15:09:41Z</time>
      </trkpt>
      <trkpt lat="39.616310000" lon="-8.646640000">
        <ele>308.600000</ele>
        <time>2020-10-17T15:09:42Z</time>
      </trkpt>
      <trkpt lat="39.616310000" lon="-8.646657000">
        <ele>308.600000</ele>
        <time>2020-10-17T15:09:43Z</time>
      </trkpt>
      <trkpt lat="39.616308000" lon="-8.646679000">
        <ele>308.600000</ele>
        <time>2020-10-17T15:09:44Z</time>
      </trkpt>
      <trkpt lat="39.616306000" lon="-8.646698000">
        <ele>308.800000</ele>
        <time>2020-10-17T15:09:45Z</time>
      </trkpt>
      <trkpt lat="39.616304000" lon="-8.646716000">
        <ele>309.000000</ele>
        <time>2020-10-17T15:09:46Z</time>
      </trkpt>
      <trkpt lat="39.616300000" lon="-8.646732000">
        <ele>309.200000</ele>
        <time>2020-10-17T15:09:47Z</time>
      </trkpt>
      <trkpt lat="39.616298000" lon="-8.646750000">
        <ele>309.200000</ele>
        <time>2020-10-17T15:09:48Z</time>
      </trkpt>
      <trkpt lat="39.616294000" lon="-8.646770000">
        <ele>309.200000</ele>
        <time>2020-10-17T15:09:49Z</time>
      </trkpt>
      <trkpt lat="39.616291000" lon="-8.646790000">
        <ele>309.400000</ele>
        <time>2020-10-17T15:09:50Z</time>
      </trkpt>
      <trkpt lat="39.616293000" lon="-8.646811000">
        <ele>309.600000</ele>
        <time>2020-10-17T15:09:51Z</time>
      </trkpt>
      <trkpt lat="39.616295000" lon="-8.646832000">
        <ele>309.600000</ele>
        <time>2020-10-17T15:09:52Z</time>
      </trkpt>
      <trkpt lat="39.616297000" lon="-8.646851000">
        <ele>309.800000</ele>
        <time>2020-10-17T15:09:53Z</time>
      </trkpt>
      <trkpt lat="39.616299000" lon="-8.646870000">
        <ele>310.200000</ele>
        <time>2020-10-17T15:09:54Z</time>
      </trkpt>
      <trkpt lat="39.616297000" lon="-8.646889000">
        <ele>310.400000</ele>
        <time>2020-10-17T15:09:55Z</time>
      </trkpt>
      <trkpt lat="39.616294000" lon="-8.646906000">
        <ele>310.800000</ele>
        <time>2020-10-17T15:09:56Z</time>
      </trkpt>
      <trkpt lat="39.616293000" lon="-8.646924000">
        <ele>311.000000</ele>
        <time>2020-10-17T15:09:57Z</time>
      </trkpt>
      <trkpt lat="39.616295000" lon="-8.646942000">
        <ele>311.200000</ele>
        <time>2020-10-17T15:09:58Z</time>
      </trkpt>
      <trkpt lat="39.616298000" lon="-8.646963000">
        <ele>311.400000</ele>
        <time>2020-10-17T15:09:59Z</time>
      </trkpt>
      <trkpt lat="39.616300000" lon="-8.646982000">
        <ele>311.600000</ele>
        <time>2020-10-17T15:10:00Z</time>
      </trkpt>
      <trkpt lat="39.616305000" lon="-8.647000000">
        <ele>311.600000</ele>
        <time>2020-10-17T15:10:01Z</time>
      </trkpt>
      <trkpt lat="39.616314000" lon="-8.647022000">
        <ele>311.800000</ele>
        <time>2020-10-17T15:10:02Z</time>
      </trkpt>
      <trkpt lat="39.616330000" lon="-8.647052000">
        <ele>311.800000</ele>
        <time>2020-10-17T15:10:03Z</time>
      </trkpt>
      <trkpt lat="39.616348000" lon="-8.647084000">
        <ele>312.000000</ele>
        <time>2020-10-17T15:10:04Z</time>
      </trkpt>
      <trkpt lat="39.616372000" lon="-8.647119000">
        <ele>312.200000</ele>
        <time>2020-10-17T15:10:05Z</time>
      </trkpt>
      <trkpt lat="39.616397000" lon="-8.647152000">
        <ele>312.200000</ele>
        <time>2020-10-17T15:10:06Z</time>
      </trkpt>
      <trkpt lat="39.616427000" lon="-8.647186000">
        <ele>312.200000</ele>
        <time>2020-10-17T15:10:07Z</time>
      </trkpt>
      <trkpt lat="39.616461000" lon="-8.647221000">
        <ele>312.000000</ele>
        <time>2020-10-17T15:10:08Z</time>
      </trkpt>
      <trkpt lat="39.616527000" lon="-8.647278000">
        <ele>312.000000</ele>
        <time>2020-10-17T15:10:10Z</time>
      </trkpt>
      <trkpt lat="39.616554000" lon="-8.647302000">
        <ele>312.000000</ele>
        <time>2020-10-17T15:10:11Z</time>
      </trkpt>
      <trkpt lat="39.616578000" lon="-8.647327000">
        <ele>312.000000</ele>
        <time>2020-10-17T15:10:12Z</time>
      </trkpt>
      <trkpt lat="39.616601000" lon="-8.647352000">
        <ele>312.000000</ele>
        <time>2020-10-17T15:10:13Z</time>
      </trkpt>
      <trkpt lat="39.616623000" lon="-8.647376000">
        <ele>311.800000</ele>
        <time>2020-10-17T15:10:14Z</time>
      </trkpt>
      <trkpt lat="39.616641000" lon="-8.647398000">
        <ele>311.600000</ele>
        <time>2020-10-17T15:10:15Z</time>
      </trkpt>
      <trkpt lat="39.616677000" lon="-8.647446000">
        <ele>311.600000</ele>
        <time>2020-10-17T15:10:17Z</time>
      </trkpt>
      <trkpt lat="39.616690000" lon="-8.647469000">
        <ele>311.600000</ele>
        <time>2020-10-17T15:10:18Z</time>
      </trkpt>
      <trkpt lat="39.616701000" lon="-8.647486000">
        <ele>311.600000</ele>
        <time>2020-10-17T15:10:19Z</time>
      </trkpt>
      <trkpt lat="39.616713000" lon="-8.647504000">
        <ele>311.600000</ele>
        <time>2020-10-17T15:10:20Z</time>
      </trkpt>
      <trkpt lat="39.616738000" lon="-8.647549000">
        <ele>311.400000</ele>
        <time>2020-10-17T15:10:22Z</time>
      </trkpt>
      <trkpt lat="39.616763000" lon="-8.647593000">
        <ele>311.400000</ele>
        <time>2020-10-17T15:10:24Z</time>
      </trkpt>
      <trkpt lat="39.616776000" lon="-8.647611000">
        <ele>311.600000</ele>
        <time>2020-10-17T15:10:25Z</time>
      </trkpt>
      <trkpt lat="39.616789000" lon="-8.647628000">
        <ele>311.800000</ele>
        <time>2020-10-17T15:10:26Z</time>
      </trkpt>
      <trkpt lat="39.616801000" lon="-8.647648000">
        <ele>312.000000</ele>
        <time>2020-10-17T15:10:27Z</time>
      </trkpt>
      <trkpt lat="39.616811000" lon="-8.647666000">
        <ele>312.000000</ele>
        <time>2020-10-17T15:10:28Z</time>
      </trkpt>
      <trkpt lat="39.616822000" lon="-8.647683000">
        <ele>312.200000</ele>
        <time>2020-10-17T15:10:29Z</time>
      </trkpt>
      <trkpt lat="39.616831000" lon="-8.647700000">
        <ele>312.200000</ele>
        <time>2020-10-17T15:10:30Z</time>
      </trkpt>
      <trkpt lat="39.616839000" lon="-8.647714000">
        <ele>312.400000</ele>
        <time>2020-10-17T15:10:31Z</time>
      </trkpt>
      <trkpt lat="39.616848000" lon="-8.647726000">
        <ele>312.400000</ele>
        <time>2020-10-17T15:10:32Z</time>
      </trkpt>
      <trkpt lat="39.616860000" lon="-8.647739000">
        <ele>312.800000</ele>
        <time>2020-10-17T15:10:33Z</time>
      </trkpt>
      <trkpt lat="39.616871000" lon="-8.647749000">
        <ele>313.000000</ele>
        <time>2020-10-17T15:10:34Z</time>
      </trkpt>
      <trkpt lat="39.616884000" lon="-8.647760000">
        <ele>313.000000</ele>
        <time>2020-10-17T15:10:35Z</time>
      </trkpt>
      <trkpt lat="39.616895000" lon="-8.647767000">
        <ele>313.400000</ele>
        <time>2020-10-17T15:10:36Z</time>
      </trkpt>
      <trkpt lat="39.616911000" lon="-8.647776000">
        <ele>313.600000</ele>
        <time>2020-10-17T15:10:37Z</time>
      </trkpt>
      <trkpt lat="39.616929000" lon="-8.647787000">
        <ele>313.800000</ele>
        <time>2020-10-17T15:10:38Z</time>
      </trkpt>
      <trkpt lat="39.616946000" lon="-8.647798000">
        <ele>314.000000</ele>
        <time>2020-10-17T15:10:39Z</time>
      </trkpt>
      <trkpt lat="39.616965000" lon="-8.647807000">
        <ele>314.200000</ele>
        <time>2020-10-17T15:10:40Z</time>
      </trkpt>
      <trkpt lat="39.616982000" lon="-8.647816000">
        <ele>314.200000</ele>
        <time>2020-10-17T15:10:41Z</time>
      </trkpt>
      <trkpt lat="39.617000000" lon="-8.647828000">
        <ele>314.600000</ele>
        <time>2020-10-17T15:10:42Z</time>
      </trkpt>
      <trkpt lat="39.617015000" lon="-8.647843000">
        <ele>315.000000</ele>
        <time>2020-10-17T15:10:43Z</time>
      </trkpt>
      <trkpt lat="39.617028000" lon="-8.647860000">
        <ele>315.200000</ele>
        <time>2020-10-17T15:10:44Z</time>
      </trkpt>
      <trkpt lat="39.617042000" lon="-8.647881000">
        <ele>315.400000</ele>
        <time>2020-10-17T15:10:45Z</time>
      </trkpt>
      <trkpt lat="39.617057000" lon="-8.647903000">
        <ele>315.400000</ele>
        <time>2020-10-17T15:10:46Z</time>
      </trkpt>
      <trkpt lat="39.617063000" lon="-8.647922000">
        <ele>315.600000</ele>
        <time>2020-10-17T15:10:47Z</time>
      </trkpt>
      <trkpt lat="39.617072000" lon="-8.647945000">
        <ele>315.600000</ele>
        <time>2020-10-17T15:10:48Z</time>
      </trkpt>
      <trkpt lat="39.617083000" lon="-8.647969000">
        <ele>315.800000</ele>
        <time>2020-10-17T15:10:49Z</time>
      </trkpt>
      <trkpt lat="39.617099000" lon="-8.647995000">
        <ele>315.800000</ele>
        <time>2020-10-17T15:10:50Z</time>
      </trkpt>
      <trkpt lat="39.617112000" lon="-8.648016000">
        <ele>315.800000</ele>
        <time>2020-10-17T15:10:51Z</time>
      </trkpt>
      <trkpt lat="39.617122000" lon="-8.648039000">
        <ele>315.800000</ele>
        <time>2020-10-17T15:10:52Z</time>
      </trkpt>
      <trkpt lat="39.617132000" lon="-8.648061000">
        <ele>315.800000</ele>
        <time>2020-10-17T15:10:53Z</time>
      </trkpt>
      <trkpt lat="39.617142000" lon="-8.648079000">
        <ele>315.800000</ele>
        <time>2020-10-17T15:10:54Z</time>
      </trkpt>
      <trkpt lat="39.617155000" lon="-8.648098000">
        <ele>316.000000</ele>
        <time>2020-10-17T15:10:55Z</time>
      </trkpt>
      <trkpt lat="39.617163000" lon="-8.648113000">
        <ele>316.200000</ele>
        <time>2020-10-17T15:10:56Z</time>
      </trkpt>
      <trkpt lat="39.617173000" lon="-8.648131000">
        <ele>316.600000</ele>
        <time>2020-10-17T15:10:57Z</time>
      </trkpt>
      <trkpt lat="39.617178000" lon="-8.648151000">
        <ele>316.600000</ele>
        <time>2020-10-17T15:10:58Z</time>
      </trkpt>
      <trkpt lat="39.617187000" lon="-8.648177000">
        <ele>316.800000</ele>
        <time>2020-10-17T15:10:59Z</time>
      </trkpt>
      <trkpt lat="39.617198000" lon="-8.648203000">
        <ele>316.800000</ele>
        <time>2020-10-17T15:11:00Z</time>
      </trkpt>
      <trkpt lat="39.617206000" lon="-8.648225000">
        <ele>317.000000</ele>
        <time>2020-10-17T15:11:01Z</time>
      </trkpt>
      <trkpt lat="39.617216000" lon="-8.648252000">
        <ele>317.200000</ele>
        <time>2020-10-17T15:11:02Z</time>
      </trkpt>
      <trkpt lat="39.617225000" lon="-8.648279000">
        <ele>317.200000</ele>
        <time>2020-10-17T15:11:03Z</time>
      </trkpt>
      <trkpt lat="39.617235000" lon="-8.648304000">
        <ele>317.400000</ele>
        <time>2020-10-17T15:11:04Z</time>
      </trkpt>
      <trkpt lat="39.617244000" lon="-8.648327000">
        <ele>317.600000</ele>
        <time>2020-10-17T15:11:05Z</time>
      </trkpt>
      <trkpt lat="39.617255000" lon="-8.648353000">
        <ele>317.800000</ele>
        <time>2020-10-17T15:11:06Z</time>
      </trkpt>
      <trkpt lat="39.617265000" lon="-8.648376000">
        <ele>317.800000</ele>
        <time>2020-10-17T15:11:07Z</time>
      </trkpt>
      <trkpt lat="39.617277000" lon="-8.648399000">
        <ele>318.000000</ele>
        <time>2020-10-17T15:11:08Z</time>
      </trkpt>
      <trkpt lat="39.617290000" lon="-8.648426000">
        <ele>318.000000</ele>
        <time>2020-10-17T15:11:09Z</time>
      </trkpt>
      <trkpt lat="39.617298000" lon="-8.648453000">
        <ele>318.200000</ele>
        <time>2020-10-17T15:11:10Z</time>
      </trkpt>
      <trkpt lat="39.617307000" lon="-8.648482000">
        <ele>318.400000</ele>
        <time>2020-10-17T15:11:11Z</time>
      </trkpt>
      <trkpt lat="39.617317000" lon="-8.648511000">
        <ele>318.800000</ele>
        <time>2020-10-17T15:11:12Z</time>
      </trkpt>
      <trkpt lat="39.617326000" lon="-8.648537000">
        <ele>318.800000</ele>
        <time>2020-10-17T15:11:13Z</time>
      </trkpt>
      <trkpt lat="39.617335000" lon="-8.648563000">
        <ele>318.800000</ele>
        <time>2020-10-17T15:11:14Z</time>
      </trkpt>
      <trkpt lat="39.617341000" lon="-8.648583000">
        <ele>319.000000</ele>
        <time>2020-10-17T15:11:15Z</time>
      </trkpt>
      <trkpt lat="39.617343000" lon="-8.648602000">
        <ele>319.000000</ele>
        <time>2020-10-17T15:11:16Z</time>
      </trkpt>
      <trkpt lat="39.617343000" lon="-8.648623000">
        <ele>319.200000</ele>
        <time>2020-10-17T15:11:17Z</time>
      </trkpt>
      <trkpt lat="39.617345000" lon="-8.648645000">
        <ele>319.600000</ele>
        <time>2020-10-17T15:11:18Z</time>
      </trkpt>
      <trkpt lat="39.617348000" lon="-8.648664000">
        <ele>319.800000</ele>
        <time>2020-10-17T15:11:19Z</time>
      </trkpt>
      <trkpt lat="39.617357000" lon="-8.648682000">
        <ele>320.200000</ele>
        <time>2020-10-17T15:11:20Z</time>
      </trkpt>
      <trkpt lat="39.617360000" lon="-8.648700000">
        <ele>320.200000</ele>
        <time>2020-10-17T15:11:21Z</time>
      </trkpt>
      <trkpt lat="39.617369000" lon="-8.648720000">
        <ele>320.400000</ele>
        <time>2020-10-17T15:11:22Z</time>
      </trkpt>
      <trkpt lat="39.617369000" lon="-8.648738000">
        <ele>320.600000</ele>
        <time>2020-10-17T15:11:23Z</time>
      </trkpt>
      <trkpt lat="39.617369000" lon="-8.648754000">
        <ele>321.000000</ele>
        <time>2020-10-17T15:11:24Z</time>
      </trkpt>
      <trkpt lat="39.617368000" lon="-8.648769000">
        <ele>321.200000</ele>
        <time>2020-10-17T15:11:25Z</time>
      </trkpt>
      <trkpt lat="39.617368000" lon="-8.648783000">
        <ele>321.600000</ele>
        <time>2020-10-17T15:11:26Z</time>
      </trkpt>
      <trkpt lat="39.617368000" lon="-8.648799000">
        <ele>321.600000</ele>
        <time>2020-10-17T15:11:27Z</time>
      </trkpt>
      <trkpt lat="39.617369000" lon="-8.648818000">
        <ele>322.000000</ele>
        <time>2020-10-17T15:11:28Z</time>
      </trkpt>
      <trkpt lat="39.617372000" lon="-8.648834000">
        <ele>322.200000</ele>
        <time>2020-10-17T15:11:29Z</time>
      </trkpt>
      <trkpt lat="39.617377000" lon="-8.648849000">
        <ele>322.600000</ele>
        <time>2020-10-17T15:11:30Z</time>
      </trkpt>
      <trkpt lat="39.617382000" lon="-8.648859000">
        <ele>322.600000</ele>
        <time>2020-10-17T15:11:31Z</time>
      </trkpt>
      <trkpt lat="39.617388000" lon="-8.648869000">
        <ele>323.000000</ele>
        <time>2020-10-17T15:11:32Z</time>
      </trkpt>
      <trkpt lat="39.617393000" lon="-8.648874000">
        <ele>323.000000</ele>
        <time>2020-10-17T15:11:33Z</time>
      </trkpt>
      <trkpt lat="39.617402000" lon="-8.648877000">
        <ele>323.400000</ele>
        <time>2020-10-17T15:11:34Z</time>
      </trkpt>
      <trkpt lat="39.617417000" lon="-8.648875000">
        <ele>323.600000</ele>
        <time>2020-10-17T15:11:35Z</time>
      </trkpt>
      <trkpt lat="39.617433000" lon="-8.648866000">
        <ele>323.600000</ele>
        <time>2020-10-17T15:11:36Z</time>
      </trkpt>
      <trkpt lat="39.617444000" lon="-8.648850000">
        <ele>323.800000</ele>
        <time>2020-10-17T15:11:37Z</time>
      </trkpt>
      <trkpt lat="39.617453000" lon="-8.648823000">
        <ele>323.800000</ele>
        <time>2020-10-17T15:11:38Z</time>
      </trkpt>
      <trkpt lat="39.617464000" lon="-8.648796000">
        <ele>324.200000</ele>
        <time>2020-10-17T15:11:39Z</time>
      </trkpt>
      <trkpt lat="39.617476000" lon="-8.648771000">
        <ele>324.200000</ele>
        <time>2020-10-17T15:11:40Z</time>
      </trkpt>
      <trkpt lat="39.617491000" lon="-8.648752000">
        <ele>324.400000</ele>
        <time>2020-10-17T15:11:41Z</time>
      </trkpt>
      <trkpt lat="39.617509000" lon="-8.648736000">
        <ele>324.600000</ele>
        <time>2020-10-17T15:11:42Z</time>
      </trkpt>
      <trkpt lat="39.617529000" lon="-8.648725000">
        <ele>324.600000</ele>
        <time>2020-10-17T15:11:43Z</time>
      </trkpt>
      <trkpt lat="39.617548000" lon="-8.648718000">
        <ele>325.000000</ele>
        <time>2020-10-17T15:11:44Z</time>
      </trkpt>
      <trkpt lat="39.617564000" lon="-8.648715000">
        <ele>325.000000</ele>
        <time>2020-10-17T15:11:45Z</time>
      </trkpt>
      <trkpt lat="39.617580000" lon="-8.648714000">
        <ele>325.200000</ele>
        <time>2020-10-17T15:11:46Z</time>
      </trkpt>
      <trkpt lat="39.617595000" lon="-8.648716000">
        <ele>325.200000</ele>
        <time>2020-10-17T15:11:47Z</time>
      </trkpt>
      <trkpt lat="39.617609000" lon="-8.648719000">
        <ele>325.200000</ele>
        <time>2020-10-17T15:11:48Z</time>
      </trkpt>
      <trkpt lat="39.617619000" lon="-8.648723000">
        <ele>325.200000</ele>
        <time>2020-10-17T15:11:49Z</time>
      </trkpt>
      <trkpt lat="39.617628000" lon="-8.648725000">
        <ele>325.400000</ele>
        <time>2020-10-17T15:11:50Z</time>
      </trkpt>
      <trkpt lat="39.617638000" lon="-8.648728000">
        <ele>325.400000</ele>
        <time>2020-10-17T15:11:51Z</time>
      </trkpt>
      <trkpt lat="39.617651000" lon="-8.648734000">
        <ele>325.400000</ele>
        <time>2020-10-17T15:11:52Z</time>
      </trkpt>
      <trkpt lat="39.617663000" lon="-8.648739000">
        <ele>325.800000</ele>
        <time>2020-10-17T15:11:53Z</time>
      </trkpt>
      <trkpt lat="39.617675000" lon="-8.648743000">
        <ele>326.000000</ele>
        <time>2020-10-17T15:11:54Z</time>
      </trkpt>
      <trkpt lat="39.617686000" lon="-8.648747000">
        <ele>326.200000</ele>
        <time>2020-10-17T15:11:55Z</time>
      </trkpt>
      <trkpt lat="39.617697000" lon="-8.648752000">
        <ele>326.400000</ele>
        <time>2020-10-17T15:11:56Z</time>
      </trkpt>
      <trkpt lat="39.617709000" lon="-8.648756000">
        <ele>326.400000</ele>
        <time>2020-10-17T15:11:57Z</time>
      </trkpt>
      <trkpt lat="39.617720000" lon="-8.648761000">
        <ele>326.600000</ele>
        <time>2020-10-17T15:11:58Z</time>
      </trkpt>
      <trkpt lat="39.617731000" lon="-8.648768000">
        <ele>326.600000</ele>
        <time>2020-10-17T15:11:59Z</time>
      </trkpt>
      <trkpt lat="39.617740000" lon="-8.648773000">
        <ele>327.000000</ele>
        <time>2020-10-17T15:12:00Z</time>
      </trkpt>
      <trkpt lat="39.617750000" lon="-8.648778000">
        <ele>327.200000</ele>
        <time>2020-10-17T15:12:01Z</time>
      </trkpt>
      <trkpt lat="39.617760000" lon="-8.648782000">
        <ele>327.400000</ele>
        <time>2020-10-17T15:12:02Z</time>
      </trkpt>
      <trkpt lat="39.617769000" lon="-8.648783000">
        <ele>327.600000</ele>
        <time>2020-10-17T15:12:03Z</time>
      </trkpt>
      <trkpt lat="39.617776000" lon="-8.648783000">
        <ele>327.800000</ele>
        <time>2020-10-17T15:12:04Z</time>
      </trkpt>
      <trkpt lat="39.617778000" lon="-8.648782000">
        <ele>328.400000</ele>
        <time>2020-10-17T15:12:06Z</time>
      </trkpt>
      <trkpt lat="39.617809000" lon="-8.648990000">
        <ele>333.200000</ele>
        <time>2020-10-17T15:12:48Z</time>
      </trkpt>
      <trkpt lat="39.617804000" lon="-8.649003000">
        <ele>333.600000</ele>
        <time>2020-10-17T15:12:49Z</time>
      </trkpt>
      <trkpt lat="39.617800000" lon="-8.649015000">
        <ele>333.600000</ele>
        <time>2020-10-17T15:12:50Z</time>
      </trkpt>
      <trkpt lat="39.617798000" lon="-8.649029000">
        <ele>333.600000</ele>
        <time>2020-10-17T15:12:51Z</time>
      </trkpt>
      <trkpt lat="39.617796000" lon="-8.649045000">
        <ele>333.800000</ele>
        <time>2020-10-17T15:12:52Z</time>
      </trkpt>
      <trkpt lat="39.617793000" lon="-8.649061000">
        <ele>334.200000</ele>
        <time>2020-10-17T15:12:53Z</time>
      </trkpt>
      <trkpt lat="39.617794000" lon="-8.649079000">
        <ele>334.400000</ele>
        <time>2020-10-17T15:12:54Z</time>
      </trkpt>
      <trkpt lat="39.617792000" lon="-8.649094000">
        <ele>334.400000</ele>
        <time>2020-10-17T15:12:55Z</time>
      </trkpt>
      <trkpt lat="39.617793000" lon="-8.649110000">
        <ele>334.800000</ele>
        <time>2020-10-17T15:12:56Z</time>
      </trkpt>
      <trkpt lat="39.617795000" lon="-8.649126000">
        <ele>334.800000</ele>
        <time>2020-10-17T15:12:57Z</time>
      </trkpt>
      <trkpt lat="39.617798000" lon="-8.649137000">
        <ele>335.200000</ele>
        <time>2020-10-17T15:12:58Z</time>
      </trkpt>
      <trkpt lat="39.617802000" lon="-8.649146000">
        <ele>335.400000</ele>
        <time>2020-10-17T15:12:59Z</time>
      </trkpt>
      <trkpt lat="39.617806000" lon="-8.649149000">
        <ele>335.800000</ele>
        <time>2020-10-17T15:13:00Z</time>
      </trkpt>
      <trkpt lat="39.617809000" lon="-8.649155000">
        <ele>335.800000</ele>
        <time>2020-10-17T15:13:01Z</time>
      </trkpt>
      <trkpt lat="39.617813000" lon="-8.649160000">
        <ele>336.000000</ele>
        <time>2020-10-17T15:13:02Z</time>
      </trkpt>
      <trkpt lat="39.617818000" lon="-8.649163000">
        <ele>336.400000</ele>
        <time>2020-10-17T15:13:03Z</time>
      </trkpt>
      <trkpt lat="39.617822000" lon="-8.649167000">
        <ele>336.400000</ele>
        <time>2020-10-17T15:13:04Z</time>
      </trkpt>
      <trkpt lat="39.617825000" lon="-8.649167000">
        <ele>336.600000</ele>
        <time>2020-10-17T15:13:05Z</time>
      </trkpt>
      <trkpt lat="39.617861000" lon="-8.649631000">
        <ele>342.600000</ele>
        <time>2020-10-17T15:14:08Z</time>
      </trkpt>
      <trkpt lat="39.617858000" lon="-8.649690000">
        <ele>342.600000</ele>
        <time>2020-10-17T15:14:11Z</time>
      </trkpt>
      <trkpt lat="39.617854000" lon="-8.649734000">
        <ele>342.800000</ele>
        <time>2020-10-17T15:14:13Z</time>
      </trkpt>
      <trkpt lat="39.617855000" lon="-8.649753000">
        <ele>342.800000</ele>
        <time>2020-10-17T15:14:14Z</time>
      </trkpt>
      <trkpt lat="39.617867000" lon="-8.649839000">
        <ele>343.200000</ele>
        <time>2020-10-17T15:14:18Z</time>
      </trkpt>
      <trkpt lat="39.617867000" lon="-8.649857000">
        <ele>343.600000</ele>
        <time>2020-10-17T15:14:19Z</time>
      </trkpt>
      <trkpt lat="39.617869000" lon="-8.649875000">
        <ele>343.600000</ele>
        <time>2020-10-17T15:14:20Z</time>
      </trkpt>
      <trkpt lat="39.617865000" lon="-8.649940000">
        <ele>343.800000</ele>
        <time>2020-10-17T15:14:23Z</time>
      </trkpt>
      <trkpt lat="39.617865000" lon="-8.649960000">
        <ele>343.800000</ele>
        <time>2020-10-17T15:14:24Z</time>
      </trkpt>
      <trkpt lat="39.617864000" lon="-8.649979000">
        <ele>343.800000</ele>
        <time>2020-10-17T15:14:25Z</time>
      </trkpt>
      <trkpt lat="39.617863000" lon="-8.649997000">
        <ele>344.200000</ele>
        <time>2020-10-17T15:14:26Z</time>
      </trkpt>
      <trkpt lat="39.617860000" lon="-8.650016000">
        <ele>344.400000</ele>
        <time>2020-10-17T15:14:27Z</time>
      </trkpt>
      <trkpt lat="39.617857000" lon="-8.650035000">
        <ele>344.400000</ele>
        <time>2020-10-17T15:14:28Z</time>
      </trkpt>
      <trkpt lat="39.617856000" lon="-8.650057000">
        <ele>344.600000</ele>
        <time>2020-10-17T15:14:29Z</time>
      </trkpt>
      <trkpt lat="39.617855000" lon="-8.650078000">
        <ele>344.600000</ele>
        <time>2020-10-17T15:14:30Z</time>
      </trkpt>
      <trkpt lat="39.617854000" lon="-8.650100000">
        <ele>345.000000</ele>
        <time>2020-10-17T15:14:31Z</time>
      </trkpt>
      <trkpt lat="39.617854000" lon="-8.650120000">
        <ele>345.200000</ele>
        <time>2020-10-17T15:14:32Z</time>
      </trkpt>
      <trkpt lat="39.617854000" lon="-8.650138000">
        <ele>345.200000</ele>
        <time>2020-10-17T15:14:33Z</time>
      </trkpt>
      <trkpt lat="39.617855000" lon="-8.650155000">
        <ele>345.600000</ele>
        <time>2020-10-17T15:14:34Z</time>
      </trkpt>
      <trkpt lat="39.617856000" lon="-8.650170000">
        <ele>345.600000</ele>
        <time>2020-10-17T15:14:35Z</time>
      </trkpt>
      <trkpt lat="39.617856000" lon="-8.650187000">
        <ele>345.800000</ele>
        <time>2020-10-17T15:14:36Z</time>
      </trkpt>
      <trkpt lat="39.617857000" lon="-8.650204000">
        <ele>346.000000</ele>
        <time>2020-10-17T15:14:37Z</time>
      </trkpt>
      <trkpt lat="39.617857000" lon="-8.650217000">
        <ele>345.800000</ele>
        <time>2020-10-17T15:14:38Z</time>
      </trkpt>
      <trkpt lat="39.617857000" lon="-8.650231000">
        <ele>345.800000</ele>
        <time>2020-10-17T15:14:39Z</time>
      </trkpt>
      <trkpt lat="39.617858000" lon="-8.650247000">
        <ele>346.000000</ele>
        <time>2020-10-17T15:14:40Z</time>
      </trkpt>
      <trkpt lat="39.617858000" lon="-8.650263000">
        <ele>346.200000</ele>
        <time>2020-10-17T15:14:41Z</time>
      </trkpt>
      <trkpt lat="39.617858000" lon="-8.650280000">
        <ele>346.200000</ele>
        <time>2020-10-17T15:14:42Z</time>
      </trkpt>
      <trkpt lat="39.617858000" lon="-8.650297000">
        <ele>346.400000</ele>
        <time>2020-10-17T15:14:43Z</time>
      </trkpt>
      <trkpt lat="39.617857000" lon="-8.650311000">
        <ele>346.600000</ele>
        <time>2020-10-17T15:14:44Z</time>
      </trkpt>
      <trkpt lat="39.617855000" lon="-8.650327000">
        <ele>346.800000</ele>
        <time>2020-10-17T15:14:45Z</time>
      </trkpt>
      <trkpt lat="39.617853000" lon="-8.650338000">
        <ele>347.000000</ele>
        <time>2020-10-17T15:14:47Z</time>
      </trkpt>
      <trkpt lat="39.617680000" lon="-8.650705000">
        <ele>354.400000</ele>
        <time>2020-10-17T15:22:20Z</time>
      </trkpt>
      <trkpt lat="39.617670000" lon="-8.650725000">
        <ele>354.400000</ele>
        <time>2020-10-17T15:22:21Z</time>
      </trkpt>
      <trkpt lat="39.617638000" lon="-8.650785000">
        <ele>354.400000</ele>
        <time>2020-10-17T15:22:24Z</time>
      </trkpt>
      <trkpt lat="39.617629000" lon="-8.650803000">
        <ele>354.600000</ele>
        <time>2020-10-17T15:22:25Z</time>
      </trkpt>
      <trkpt lat="39.617574000" lon="-8.650907000">
        <ele>354.800000</ele>
        <time>2020-10-17T15:22:29Z</time>
      </trkpt>
      <trkpt lat="39.617544000" lon="-8.650963000">
        <ele>355.200000</ele>
        <time>2020-10-17T15:22:31Z</time>
      </trkpt>
      <trkpt lat="39.617527000" lon="-8.650997000">
        <ele>355.400000</ele>
        <time>2020-10-17T15:22:32Z</time>
      </trkpt>
      <trkpt lat="39.617503000" lon="-8.651028000">
        <ele>355.600000</ele>
        <time>2020-10-17T15:22:33Z</time>
      </trkpt>
      <trkpt lat="39.617473000" lon="-8.651051000">
        <ele>356.000000</ele>
        <time>2020-10-17T15:22:34Z</time>
      </trkpt>
      <trkpt lat="39.617448000" lon="-8.651079000">
        <ele>356.400000</ele>
        <time>2020-10-17T15:22:35Z</time>
      </trkpt>
      <trkpt lat="39.617425000" lon="-8.651111000">
        <ele>356.400000</ele>
        <time>2020-10-17T15:22:36Z</time>
      </trkpt>
      <trkpt lat="39.617407000" lon="-8.651147000">
        <ele>356.600000</ele>
        <time>2020-10-17T15:22:37Z</time>
      </trkpt>
      <trkpt lat="39.617391000" lon="-8.651183000">
        <ele>356.800000</ele>
        <time>2020-10-17T15:22:38Z</time>
      </trkpt>
      <trkpt lat="39.617376000" lon="-8.651218000">
        <ele>356.800000</ele>
        <time>2020-10-17T15:22:39Z</time>
      </trkpt>
      <trkpt lat="39.617363000" lon="-8.651252000">
        <ele>357.000000</ele>
        <time>2020-10-17T15:22:40Z</time>
      </trkpt>
      <trkpt lat="39.617347000" lon="-8.651284000">
        <ele>357.200000</ele>
        <time>2020-10-17T15:22:41Z</time>
      </trkpt>
      <trkpt lat="39.617329000" lon="-8.651317000">
        <ele>357.200000</ele>
        <time>2020-10-17T15:22:42Z</time>
      </trkpt>
      <trkpt lat="39.617313000" lon="-8.651351000">
        <ele>357.400000</ele>
        <time>2020-10-17T15:22:43Z</time>
      </trkpt>
      <trkpt lat="39.617299000" lon="-8.651387000">
        <ele>357.400000</ele>
        <time>2020-10-17T15:22:44Z</time>
      </trkpt>
      <trkpt lat="39.617282000" lon="-8.651424000">
        <ele>357.600000</ele>
        <time>2020-10-17T15:22:45Z</time>
      </trkpt>
      <trkpt lat="39.617261000" lon="-8.651461000">
        <ele>357.800000</ele>
        <time>2020-10-17T15:22:46Z</time>
      </trkpt>
      <trkpt lat="39.617249000" lon="-8.651500000">
        <ele>358.000000</ele>
        <time>2020-10-17T15:22:47Z</time>
      </trkpt>
      <trkpt lat="39.617239000" lon="-8.651543000">
        <ele>358.400000</ele>
        <time>2020-10-17T15:22:48Z</time>
      </trkpt>
      <trkpt lat="39.617238000" lon="-8.651584000">
        <ele>358.600000</ele>
        <time>2020-10-17T15:22:49Z</time>
      </trkpt>
      <trkpt lat="39.617247000" lon="-8.651621000">
        <ele>358.600000</ele>
        <time>2020-10-17T15:22:50Z</time>
      </trkpt>
      <trkpt lat="39.617264000" lon="-8.651655000">
        <ele>358.800000</ele>
        <time>2020-10-17T15:22:51Z</time>
      </trkpt>
      <trkpt lat="39.617285000" lon="-8.651684000">
        <ele>359.200000</ele>
        <time>2020-10-17T15:22:52Z</time>
      </trkpt>
      <trkpt lat="39.617305000" lon="-8.651709000">
        <ele>359.400000</ele>
        <time>2020-10-17T15:22:53Z</time>
      </trkpt>
      <trkpt lat="39.617327000" lon="-8.651732000">
        <ele>359.400000</ele>
        <time>2020-10-17T15:22:54Z</time>
      </trkpt>
      <trkpt lat="39.617353000" lon="-8.651757000">
        <ele>359.400000</ele>
        <time>2020-10-17T15:22:55Z</time>
      </trkpt>
      <trkpt lat="39.617381000" lon="-8.651782000">
        <ele>359.600000</ele>
        <time>2020-10-17T15:22:56Z</time>
      </trkpt>
      <trkpt lat="39.617416000" lon="-8.651809000">
        <ele>359.600000</ele>
        <time>2020-10-17T15:22:57Z</time>
      </trkpt>
      <trkpt lat="39.617450000" lon="-8.651834000">
        <ele>359.600000</ele>
        <time>2020-10-17T15:22:58Z</time>
      </trkpt>
      <trkpt lat="39.617484000" lon="-8.651859000">
        <ele>359.800000</ele>
        <time>2020-10-17T15:22:59Z</time>
      </trkpt>
      <trkpt lat="39.617519000" lon="-8.651884000">
        <ele>360.000000</ele>
        <time>2020-10-17T15:23:00Z</time>
      </trkpt>
      <trkpt lat="39.617551000" lon="-8.651911000">
        <ele>360.000000</ele>
        <time>2020-10-17T15:23:01Z</time>
      </trkpt>
      <trkpt lat="39.617582000" lon="-8.651940000">
        <ele>360.000000</ele>
        <time>2020-10-17T15:23:02Z</time>
      </trkpt>
      <trkpt lat="39.617615000" lon="-8.651975000">
        <ele>360.000000</ele>
        <time>2020-10-17T15:23:03Z</time>
      </trkpt>
      <trkpt lat="39.617638000" lon="-8.652004000">
        <ele>360.000000</ele>
        <time>2020-10-17T15:23:04Z</time>
      </trkpt>
      <trkpt lat="39.617658000" lon="-8.652037000">
        <ele>360.200000</ele>
        <time>2020-10-17T15:23:05Z</time>
      </trkpt>
      <trkpt lat="39.617667000" lon="-8.652075000">
        <ele>360.400000</ele>
        <time>2020-10-17T15:23:06Z</time>
      </trkpt>
      <trkpt lat="39.617667000" lon="-8.652114000">
        <ele>360.600000</ele>
        <time>2020-10-17T15:23:07Z</time>
      </trkpt>
      <trkpt lat="39.617656000" lon="-8.652155000">
        <ele>360.600000</ele>
        <time>2020-10-17T15:23:08Z</time>
      </trkpt>
      <trkpt lat="39.617576000" lon="-8.652322000">
        <ele>361.000000</ele>
        <time>2020-10-17T15:23:12Z</time>
      </trkpt>
      <trkpt lat="39.617556000" lon="-8.652368000">
        <ele>361.000000</ele>
        <time>2020-10-17T15:23:13Z</time>
      </trkpt>
      <trkpt lat="39.617473000" lon="-8.652477000">
        <ele>361.000000</ele>
        <time>2020-10-17T15:23:16Z</time>
      </trkpt>
      <trkpt lat="39.617435000" lon="-8.652504000">
        <ele>361.000000</ele>
        <time>2020-10-17T15:23:17Z</time>
      </trkpt>
      <trkpt lat="39.617386000" lon="-8.652529000">
        <ele>361.000000</ele>
        <time>2020-10-17T15:23:18Z</time>
      </trkpt>
      <trkpt lat="39.617339000" lon="-8.652551000">
        <ele>361.000000</ele>
        <time>2020-10-17T15:23:19Z</time>
      </trkpt>
      <trkpt lat="39.617176000" lon="-8.652625000">
        <ele>360.600000</ele>
        <time>2020-10-17T15:23:22Z</time>
      </trkpt>
      <trkpt lat="39.617111000" lon="-8.652657000">
        <ele>360.600000</ele>
        <time>2020-10-17T15:23:23Z</time>
      </trkpt>
      <trkpt lat="39.616910000" lon="-8.652756000">
        <ele>360.000000</ele>
        <time>2020-10-17T15:23:26Z</time>
      </trkpt>
      <trkpt lat="39.616688000" lon="-8.652859000">
        <ele>359.600000</ele>
        <time>2020-10-17T15:23:29Z</time>
      </trkpt>
      <trkpt lat="39.616517000" lon="-8.652934000">
        <ele>358.600000</ele>
        <time>2020-10-17T15:23:31Z</time>
      </trkpt>
      <trkpt lat="39.616438000" lon="-8.652974000">
        <ele>358.200000</ele>
        <time>2020-10-17T15:23:32Z</time>
      </trkpt>
      <trkpt lat="39.616370000" lon="-8.653021000">
        <ele>358.000000</ele>
        <time>2020-10-17T15:23:33Z</time>
      </trkpt>
      <trkpt lat="39.616312000" lon="-8.653076000">
        <ele>357.600000</ele>
        <time>2020-10-17T15:23:34Z</time>
      </trkpt>
      <trkpt lat="39.616268000" lon="-8.653148000">
        <ele>357.000000</ele>
        <time>2020-10-17T15:23:35Z</time>
      </trkpt>
      <trkpt lat="39.616232000" lon="-8.653230000">
        <ele>356.800000</ele>
        <time>2020-10-17T15:23:36Z</time>
      </trkpt>
      <trkpt lat="39.616196000" lon="-8.653314000">
        <ele>356.200000</ele>
        <time>2020-10-17T15:23:37Z</time>
      </trkpt>
      <trkpt lat="39.615986000" lon="-8.653715000">
        <ele>353.600000</ele>
        <time>2020-10-17T15:23:42Z</time>
      </trkpt>
      <trkpt lat="39.615889000" lon="-8.653870000">
        <ele>352.600000</ele>
        <time>2020-10-17T15:23:44Z</time>
      </trkpt>
      <trkpt lat="39.615841000" lon="-8.653943000">
        <ele>352.200000</ele>
        <time>2020-10-17T15:23:45Z</time>
      </trkpt>
      <trkpt lat="39.615694000" lon="-8.654171000">
        <ele>350.400000</ele>
        <time>2020-10-17T15:23:48Z</time>
      </trkpt>
      <trkpt lat="39.615543000" lon="-8.654419000">
        <ele>349.400000</ele>
        <time>2020-10-17T15:23:51Z</time>
      </trkpt>
      <trkpt lat="39.615491000" lon="-8.654502000">
        <ele>349.200000</ele>
        <time>2020-10-17T15:23:52Z</time>
      </trkpt>
      <trkpt lat="39.615374000" lon="-8.654668000">
        <ele>348.200000</ele>
        <time>2020-10-17T15:23:54Z</time>
      </trkpt>
      <trkpt lat="39.615262000" lon="-8.654831000">
        <ele>347.400000</ele>
        <time>2020-10-17T15:23:56Z</time>
      </trkpt>
      <trkpt lat="39.615207000" lon="-8.654909000">
        <ele>346.800000</ele>
        <time>2020-10-17T15:23:57Z</time>
      </trkpt>
      <trkpt lat="39.615151000" lon="-8.654988000">
        <ele>346.400000</ele>
        <time>2020-10-17T15:23:58Z</time>
      </trkpt>
      <trkpt lat="39.615097000" lon="-8.655063000">
        <ele>345.800000</ele>
        <time>2020-10-17T15:23:59Z</time>
      </trkpt>
      <trkpt lat="39.615044000" lon="-8.655138000">
        <ele>345.400000</ele>
        <time>2020-10-17T15:24:00Z</time>
      </trkpt>
      <trkpt lat="39.614992000" lon="-8.655211000">
        <ele>345.400000</ele>
        <time>2020-10-17T15:24:01Z</time>
      </trkpt>
      <trkpt lat="39.614939000" lon="-8.655282000">
        <ele>345.000000</ele>
        <time>2020-10-17T15:24:02Z</time>
      </trkpt>
      <trkpt lat="39.614888000" lon="-8.655352000">
        <ele>344.600000</ele>
        <time>2020-10-17T15:24:03Z</time>
      </trkpt>
      <trkpt lat="39.614840000" lon="-8.655421000">
        <ele>344.200000</ele>
        <time>2020-10-17T15:24:04Z</time>
      </trkpt>
      <trkpt lat="39.614793000" lon="-8.655489000">
        <ele>343.800000</ele>
        <time>2020-10-17T15:24:05Z</time>
      </trkpt>
      <trkpt lat="39.614745000" lon="-8.655555000">
        <ele>343.800000</ele>
        <time>2020-10-17T15:24:06Z</time>
      </trkpt>
      <trkpt lat="39.614695000" lon="-8.655620000">
        <ele>343.600000</ele>
        <time>2020-10-17T15:24:07Z</time>
      </trkpt>
      <trkpt lat="39.614649000" lon="-8.655683000">
        <ele>343.600000</ele>
        <time>2020-10-17T15:24:08Z</time>
      </trkpt>
      <trkpt lat="39.614603000" lon="-8.655746000">
        <ele>343.800000</ele>
        <time>2020-10-17T15:24:09Z</time>
      </trkpt>
      <trkpt lat="39.614558000" lon="-8.655807000">
        <ele>343.600000</ele>
        <time>2020-10-17T15:24:10Z</time>
      </trkpt>
      <trkpt lat="39.614513000" lon="-8.655867000">
        <ele>343.600000</ele>
        <time>2020-10-17T15:24:11Z</time>
      </trkpt>
      <trkpt lat="39.614472000" lon="-8.655926000">
        <ele>343.600000</ele>
        <time>2020-10-17T15:24:12Z</time>
      </trkpt>
      <trkpt lat="39.614434000" lon="-8.655985000">
        <ele>343.600000</ele>
        <time>2020-10-17T15:24:13Z</time>
      </trkpt>
      <trkpt lat="39.614395000" lon="-8.656044000">
        <ele>343.600000</ele>
        <time>2020-10-17T15:24:14Z</time>
      </trkpt>
      <trkpt lat="39.614353000" lon="-8.656101000">
        <ele>343.600000</ele>
        <time>2020-10-17T15:24:15Z</time>
      </trkpt>
      <trkpt lat="39.614310000" lon="-8.656152000">
        <ele>343.800000</ele>
        <time>2020-10-17T15:24:16Z</time>
      </trkpt>
      <trkpt lat="39.614271000" lon="-8.656207000">
        <ele>343.800000</ele>
        <time>2020-10-17T15:24:17Z</time>
      </trkpt>
      <trkpt lat="39.614229000" lon="-8.656257000">
        <ele>344.000000</ele>
        <time>2020-10-17T15:24:18Z</time>
      </trkpt>
      <trkpt lat="39.614188000" lon="-8.656308000">
        <ele>344.200000</ele>
        <time>2020-10-17T15:24:19Z</time>
      </trkpt>
      <trkpt lat="39.614150000" lon="-8.656361000">
        <ele>344.200000</ele>
        <time>2020-10-17T15:24:20Z</time>
      </trkpt>
      <trkpt lat="39.614113000" lon="-8.656415000">
        <ele>344.200000</ele>
        <time>2020-10-17T15:24:21Z</time>
      </trkpt>
      <trkpt lat="39.613999000" lon="-8.656572000">
        <ele>344.400000</ele>
        <time>2020-10-17T15:24:24Z</time>
      </trkpt>
      <trkpt lat="39.613964000" lon="-8.656625000">
        <ele>344.800000</ele>
        <time>2020-10-17T15:24:25Z</time>
      </trkpt>
      <trkpt lat="39.613887000" lon="-8.656729000">
        <ele>344.800000</ele>
        <time>2020-10-17T15:24:27Z</time>
      </trkpt>
      <trkpt lat="39.613814000" lon="-8.656834000">
        <ele>345.000000</ele>
        <time>2020-10-17T15:24:29Z</time>
      </trkpt>
      <trkpt lat="39.613778000" lon="-8.656885000">
        <ele>345.000000</ele>
        <time>2020-10-17T15:24:30Z</time>
      </trkpt>
      <trkpt lat="39.613742000" lon="-8.656934000">
        <ele>345.200000</ele>
        <time>2020-10-17T15:24:31Z</time>
      </trkpt>
      <trkpt lat="39.613705000" lon="-8.656984000">
        <ele>345.200000</ele>
        <time>2020-10-17T15:24:32Z</time>
      </trkpt>
      <trkpt lat="39.613590000" lon="-8.657136000">
        <ele>345.200000</ele>
        <time>2020-10-17T15:24:35Z</time>
      </trkpt>
      <trkpt lat="39.613553000" lon="-8.657187000">
        <ele>345.400000</ele>
        <time>2020-10-17T15:24:36Z</time>
      </trkpt>
      <trkpt lat="39.613516000" lon="-8.657233000">
        <ele>345.400000</ele>
        <time>2020-10-17T15:24:37Z</time>
      </trkpt>
      <trkpt lat="39.613482000" lon="-8.657279000">
        <ele>345.400000</ele>
        <time>2020-10-17T15:24:38Z</time>
      </trkpt>
      <trkpt lat="39.613449000" lon="-8.657324000">
        <ele>345.600000</ele>
        <time>2020-10-17T15:24:39Z</time>
      </trkpt>
      <trkpt lat="39.613417000" lon="-8.657370000">
        <ele>345.600000</ele>
        <time>2020-10-17T15:24:40Z</time>
      </trkpt>
      <trkpt lat="39.613355000" lon="-8.657463000">
        <ele>345.800000</ele>
        <time>2020-10-17T15:24:42Z</time>
      </trkpt>
      <trkpt lat="39.613296000" lon="-8.657557000">
        <ele>345.800000</ele>
        <time>2020-10-17T15:24:44Z</time>
      </trkpt>
      <trkpt lat="39.613267000" lon="-8.657603000">
        <ele>346.200000</ele>
        <time>2020-10-17T15:24:45Z</time>
      </trkpt>
      <trkpt lat="39.613238000" lon="-8.657648000">
        <ele>346.200000</ele>
        <time>2020-10-17T15:24:46Z</time>
      </trkpt>
      <trkpt lat="39.613212000" lon="-8.657694000">
        <ele>346.600000</ele>
        <time>2020-10-17T15:24:47Z</time>
      </trkpt>
      <trkpt lat="39.613184000" lon="-8.657740000">
        <ele>346.800000</ele>
        <time>2020-10-17T15:24:48Z</time>
      </trkpt>
      <trkpt lat="39.613156000" lon="-8.657781000">
        <ele>347.000000</ele>
        <time>2020-10-17T15:24:49Z</time>
      </trkpt>
      <trkpt lat="39.613129000" lon="-8.657820000">
        <ele>347.000000</ele>
        <time>2020-10-17T15:24:50Z</time>
      </trkpt>
      <trkpt lat="39.613103000" lon="-8.657857000">
        <ele>347.200000</ele>
        <time>2020-10-17T15:24:51Z</time>
      </trkpt>
      <trkpt lat="39.613074000" lon="-8.657894000">
        <ele>347.200000</ele>
        <time>2020-10-17T15:24:52Z</time>
      </trkpt>
      <trkpt lat="39.613047000" lon="-8.657932000">
        <ele>347.400000</ele>
        <time>2020-10-17T15:24:53Z</time>
      </trkpt>
      <trkpt lat="39.613019000" lon="-8.657973000">
        <ele>347.600000</ele>
        <time>2020-10-17T15:24:54Z</time>
      </trkpt>
      <trkpt lat="39.612992000" lon="-8.658014000">
        <ele>347.600000</ele>
        <time>2020-10-17T15:24:55Z</time>
      </trkpt>
      <trkpt lat="39.612962000" lon="-8.658049000">
        <ele>348.000000</ele>
        <time>2020-10-17T15:24:56Z</time>
      </trkpt>
      <trkpt lat="39.612932000" lon="-8.658083000">
        <ele>348.000000</ele>
        <time>2020-10-17T15:24:57Z</time>
      </trkpt>
      <trkpt lat="39.612904000" lon="-8.658117000">
        <ele>348.000000</ele>
        <time>2020-10-17T15:24:58Z</time>
      </trkpt>
      <trkpt lat="39.612874000" lon="-8.658154000">
        <ele>348.200000</ele>
        <time>2020-10-17T15:24:59Z</time>
      </trkpt>
      <trkpt lat="39.612845000" lon="-8.658192000">
        <ele>348.200000</ele>
        <time>2020-10-17T15:25:00Z</time>
      </trkpt>
      <trkpt lat="39.612817000" lon="-8.658229000">
        <ele>348.400000</ele>
        <time>2020-10-17T15:25:01Z</time>
      </trkpt>
      <trkpt lat="39.612785000" lon="-8.658265000">
        <ele>348.600000</ele>
        <time>2020-10-17T15:25:02Z</time>
      </trkpt>
      <trkpt lat="39.612753000" lon="-8.658299000">
        <ele>348.600000</ele>
        <time>2020-10-17T15:25:03Z</time>
      </trkpt>
      <trkpt lat="39.612721000" lon="-8.658332000">
        <ele>348.800000</ele>
        <time>2020-10-17T15:25:04Z</time>
      </trkpt>
      <trkpt lat="39.612692000" lon="-8.658369000">
        <ele>348.800000</ele>
        <time>2020-10-17T15:25:05Z</time>
      </trkpt>
      <trkpt lat="39.612660000" lon="-8.658405000">
        <ele>348.800000</ele>
        <time>2020-10-17T15:25:06Z</time>
      </trkpt>
      <trkpt lat="39.612630000" lon="-8.658443000">
        <ele>349.000000</ele>
        <time>2020-10-17T15:25:07Z</time>
      </trkpt>
      <trkpt lat="39.612600000" lon="-8.658480000">
        <ele>349.200000</ele>
        <time>2020-10-17T15:25:08Z</time>
      </trkpt>
      <trkpt lat="39.612569000" lon="-8.658516000">
        <ele>349.000000</ele>
        <time>2020-10-17T15:25:09Z</time>
      </trkpt>
      <trkpt lat="39.612537000" lon="-8.658554000">
        <ele>349.400000</ele>
        <time>2020-10-17T15:25:10Z</time>
      </trkpt>
      <trkpt lat="39.612501000" lon="-8.658588000">
        <ele>349.800000</ele>
        <time>2020-10-17T15:25:11Z</time>
      </trkpt>
      <trkpt lat="39.612472000" lon="-8.658628000">
        <ele>350.000000</ele>
        <time>2020-10-17T15:25:12Z</time>
      </trkpt>
      <trkpt lat="39.612443000" lon="-8.658670000">
        <ele>350.200000</ele>
        <time>2020-10-17T15:25:13Z</time>
      </trkpt>
      <trkpt lat="39.612413000" lon="-8.658710000">
        <ele>350.400000</ele>
        <time>2020-10-17T15:25:14Z</time>
      </trkpt>
      <trkpt lat="39.612381000" lon="-8.658753000">
        <ele>350.400000</ele>
        <time>2020-10-17T15:25:15Z</time>
      </trkpt>
      <trkpt lat="39.612350000" lon="-8.658795000">
        <ele>350.400000</ele>
        <time>2020-10-17T15:25:16Z</time>
      </trkpt>
      <trkpt lat="39.612320000" lon="-8.658835000">
        <ele>350.600000</ele>
        <time>2020-10-17T15:25:17Z</time>
      </trkpt>
      <trkpt lat="39.612290000" lon="-8.658876000">
        <ele>350.800000</ele>
        <time>2020-10-17T15:25:18Z</time>
      </trkpt>
      <trkpt lat="39.612261000" lon="-8.658916000">
        <ele>351.000000</ele>
        <time>2020-10-17T15:25:19Z</time>
      </trkpt>
      <trkpt lat="39.612232000" lon="-8.658956000">
        <ele>350.800000</ele>
        <time>2020-10-17T15:25:20Z</time>
      </trkpt>
      <trkpt lat="39.612201000" lon="-8.658995000">
        <ele>351.000000</ele>
        <time>2020-10-17T15:25:21Z</time>
      </trkpt>
      <trkpt lat="39.612169000" lon="-8.659035000">
        <ele>351.000000</ele>
        <time>2020-10-17T15:25:22Z</time>
      </trkpt>
      <trkpt lat="39.612139000" lon="-8.659078000">
        <ele>351.000000</ele>
        <time>2020-10-17T15:25:23Z</time>
      </trkpt>
      <trkpt lat="39.611880000" lon="-8.659425000">
        <ele>351.400000</ele>
        <time>2020-10-17T15:25:31Z</time>
      </trkpt>
      <trkpt lat="39.611785000" lon="-8.659577000">
        <ele>351.400000</ele>
        <time>2020-10-17T15:25:34Z</time>
      </trkpt>
      <trkpt lat="39.611783000" lon="-8.659649000">
        <ele>351.600000</ele>
        <time>2020-10-17T15:25:35Z</time>
      </trkpt>
      <trkpt lat="39.611793000" lon="-8.659705000">
        <ele>351.600000</ele>
        <time>2020-10-17T15:25:36Z</time>
      </trkpt>
      <trkpt lat="39.611821000" lon="-8.659751000">
        <ele>351.600000</ele>
        <time>2020-10-17T15:25:37Z</time>
      </trkpt>
      <trkpt lat="39.611874000" lon="-8.659788000">
        <ele>351.600000</ele>
        <time>2020-10-17T15:25:38Z</time>
      </trkpt>
      <trkpt lat="39.611987000" lon="-8.659839000">
        <ele>351.600000</ele>
        <time>2020-10-17T15:25:40Z</time>
      </trkpt>
      <trkpt lat="39.612045000" lon="-8.659857000">
        <ele>351.600000</ele>
        <time>2020-10-17T15:25:41Z</time>
      </trkpt>
      <trkpt lat="39.612103000" lon="-8.659875000">
        <ele>351.200000</ele>
        <time>2020-10-17T15:25:42Z</time>
      </trkpt>
      <trkpt lat="39.612276000" lon="-8.659924000">
        <ele>350.400000</ele>
        <time>2020-10-17T15:25:45Z</time>
      </trkpt>
      <trkpt lat="39.612331000" lon="-8.659939000">
        <ele>350.600000</ele>
        <time>2020-10-17T15:25:46Z</time>
      </trkpt>
      <trkpt lat="39.612445000" lon="-8.659970000">
        <ele>350.400000</ele>
        <time>2020-10-17T15:25:48Z</time>
      </trkpt>
      <trkpt lat="39.612504000" lon="-8.659985000">
        <ele>350.600000</ele>
        <time>2020-10-17T15:25:49Z</time>
      </trkpt>
      <trkpt lat="39.612917000" lon="-8.660094000">
        <ele>350.600000</ele>
        <time>2020-10-17T15:25:56Z</time>
      </trkpt>
      <trkpt lat="39.613039000" lon="-8.660129000">
        <ele>350.800000</ele>
        <time>2020-10-17T15:25:58Z</time>
      </trkpt>
      <trkpt lat="39.613286000" lon="-8.660211000">
        <ele>351.000000</ele>
        <time>2020-10-17T15:26:02Z</time>
      </trkpt>
      <trkpt lat="39.613349000" lon="-8.660233000">
        <ele>351.000000</ele>
        <time>2020-10-17T15:26:03Z</time>
      </trkpt>
      <trkpt lat="39.613602000" lon="-8.660311000">
        <ele>351.200000</ele>
        <time>2020-10-17T15:26:07Z</time>
      </trkpt>
      <trkpt lat="39.613665000" lon="-8.660328000">
        <ele>351.200000</ele>
        <time>2020-10-17T15:26:08Z</time>
      </trkpt>
      <trkpt lat="39.613851000" lon="-8.660385000">
        <ele>351.200000</ele>
        <time>2020-10-17T15:26:11Z</time>
      </trkpt>
      <trkpt lat="39.614102000" lon="-8.660464000">
        <ele>351.600000</ele>
        <time>2020-10-17T15:26:15Z</time>
      </trkpt>
      <trkpt lat="39.614294000" lon="-8.660521000">
        <ele>351.600000</ele>
        <time>2020-10-17T15:26:18Z</time>
      </trkpt>
      <trkpt lat="39.614422000" lon="-8.660564000">
        <ele>351.600000</ele>
        <time>2020-10-17T15:26:20Z</time>
      </trkpt>
      <trkpt lat="39.614486000" lon="-8.660583000">
        <ele>351.800000</ele>
        <time>2020-10-17T15:26:21Z</time>
      </trkpt>
      <trkpt lat="39.614613000" lon="-8.660623000">
        <ele>351.600000</ele>
        <time>2020-10-17T15:26:23Z</time>
      </trkpt>
      <trkpt lat="39.614804000" lon="-8.660676000">
        <ele>351.800000</ele>
        <time>2020-10-17T15:26:26Z</time>
      </trkpt>
      <trkpt lat="39.615060000" lon="-8.660755000">
        <ele>352.000000</ele>
        <time>2020-10-17T15:26:30Z</time>
      </trkpt>
      <trkpt lat="39.615124000" lon="-8.660775000">
        <ele>352.000000</ele>
        <time>2020-10-17T15:26:31Z</time>
      </trkpt>
      <trkpt lat="39.615187000" lon="-8.660793000">
        <ele>352.000000</ele>
        <time>2020-10-17T15:26:32Z</time>
      </trkpt>
      <trkpt lat="39.615248000" lon="-8.660812000">
        <ele>352.200000</ele>
        <time>2020-10-17T15:26:33Z</time>
      </trkpt>
      <trkpt lat="39.615310000" lon="-8.660830000">
        <ele>352.200000</ele>
        <time>2020-10-17T15:26:34Z</time>
      </trkpt>
      <trkpt lat="39.615627000" lon="-8.660919000">
        <ele>352.400000</ele>
        <time>2020-10-17T15:26:39Z</time>
      </trkpt>
      <trkpt lat="39.615759000" lon="-8.660958000">
        <ele>352.400000</ele>
        <time>2020-10-17T15:26:41Z</time>
      </trkpt>
      <trkpt lat="39.615951000" lon="-8.661013000">
        <ele>352.400000</ele>
        <time>2020-10-17T15:26:44Z</time>
      </trkpt>
      <trkpt lat="39.616015000" lon="-8.661028000">
        <ele>352.400000</ele>
        <time>2020-10-17T15:26:45Z</time>
      </trkpt>
      <trkpt lat="39.616080000" lon="-8.661046000">
        <ele>352.400000</ele>
        <time>2020-10-17T15:26:46Z</time>
      </trkpt>
      <trkpt lat="39.616146000" lon="-8.661063000">
        <ele>352.400000</ele>
        <time>2020-10-17T15:26:47Z</time>
      </trkpt>
      <trkpt lat="39.616209000" lon="-8.661081000">
        <ele>352.600000</ele>
        <time>2020-10-17T15:26:48Z</time>
      </trkpt>
      <trkpt lat="39.616400000" lon="-8.661143000">
        <ele>352.600000</ele>
        <time>2020-10-17T15:26:51Z</time>
      </trkpt>
      <trkpt lat="39.616532000" lon="-8.661183000">
        <ele>352.400000</ele>
        <time>2020-10-17T15:26:53Z</time>
      </trkpt>
      <trkpt lat="39.616596000" lon="-8.661202000">
        <ele>352.400000</ele>
        <time>2020-10-17T15:26:54Z</time>
      </trkpt>
      <trkpt lat="39.616796000" lon="-8.661265000">
        <ele>352.600000</ele>
        <time>2020-10-17T15:26:57Z</time>
      </trkpt>
      <trkpt lat="39.616860000" lon="-8.661285000">
        <ele>352.800000</ele>
        <time>2020-10-17T15:26:58Z</time>
      </trkpt>
      <trkpt lat="39.616925000" lon="-8.661303000">
        <ele>352.800000</ele>
        <time>2020-10-17T15:26:59Z</time>
      </trkpt>
      <trkpt lat="39.617119000" lon="-8.661360000">
        <ele>352.800000</ele>
        <time>2020-10-17T15:27:02Z</time>
      </trkpt>
      <trkpt lat="39.617253000" lon="-8.661398000">
        <ele>352.800000</ele>
        <time>2020-10-17T15:27:04Z</time>
      </trkpt>
      <trkpt lat="39.617317000" lon="-8.661418000">
        <ele>353.000000</ele>
        <time>2020-10-17T15:27:05Z</time>
      </trkpt>
      <trkpt lat="39.617576000" lon="-8.661507000">
        <ele>352.800000</ele>
        <time>2020-10-17T15:27:09Z</time>
      </trkpt>
      <trkpt lat="39.617642000" lon="-8.661529000">
        <ele>353.000000</ele>
        <time>2020-10-17T15:27:10Z</time>
      </trkpt>
      <trkpt lat="39.617976000" lon="-8.661634000">
        <ele>353.200000</ele>
        <time>2020-10-17T15:27:15Z</time>
      </trkpt>
      <trkpt lat="39.618113000" lon="-8.661674000">
        <ele>353.200000</ele>
        <time>2020-10-17T15:27:17Z</time>
      </trkpt>
      <trkpt lat="39.618249000" lon="-8.661711000">
        <ele>353.200000</ele>
        <time>2020-10-17T15:27:19Z</time>
      </trkpt>
      <trkpt lat="39.618667000" lon="-8.661837000">
        <ele>353.200000</ele>
        <time>2020-10-17T15:27:25Z</time>
      </trkpt>
      <trkpt lat="39.618735000" lon="-8.661847000">
        <ele>353.200000</ele>
        <time>2020-10-17T15:27:26Z</time>
      </trkpt>
      <trkpt lat="39.618802000" lon="-8.661865000">
        <ele>353.000000</ele>
        <time>2020-10-17T15:27:27Z</time>
      </trkpt>
      <trkpt lat="39.618866000" lon="-8.661891000">
        <ele>353.000000</ele>
        <time>2020-10-17T15:27:28Z</time>
      </trkpt>
      <trkpt lat="39.618924000" lon="-8.661920000">
        <ele>353.000000</ele>
        <time>2020-10-17T15:27:29Z</time>
      </trkpt>
      <trkpt lat="39.618976000" lon="-8.661945000">
        <ele>353.000000</ele>
        <time>2020-10-17T15:27:30Z</time>
      </trkpt>
      <trkpt lat="39.619024000" lon="-8.661969000">
        <ele>352.800000</ele>
        <time>2020-10-17T15:27:31Z</time>
      </trkpt>
      <trkpt lat="39.619068000" lon="-8.661992000">
        <ele>353.000000</ele>
        <time>2020-10-17T15:27:32Z</time>
      </trkpt>
      <trkpt lat="39.619115000" lon="-8.662019000">
        <ele>353.000000</ele>
        <time>2020-10-17T15:27:33Z</time>
      </trkpt>
      <trkpt lat="39.619160000" lon="-8.662043000">
        <ele>353.000000</ele>
        <time>2020-10-17T15:27:34Z</time>
      </trkpt>
      <trkpt lat="39.619206000" lon="-8.662069000">
        <ele>352.800000</ele>
        <time>2020-10-17T15:27:35Z</time>
      </trkpt>
      <trkpt lat="39.619250000" lon="-8.662097000">
        <ele>352.800000</ele>
        <time>2020-10-17T15:27:36Z</time>
      </trkpt>
      <trkpt lat="39.619560000" lon="-8.662296000">
        <ele>352.200000</ele>
        <time>2020-10-17T15:27:42Z</time>
      </trkpt>
      <trkpt lat="39.619861000" lon="-8.662483000">
        <ele>351.600000</ele>
        <time>2020-10-17T15:27:47Z</time>
      </trkpt>
      <trkpt lat="39.619981000" lon="-8.662561000">
        <ele>351.600000</ele>
        <time>2020-10-17T15:27:49Z</time>
      </trkpt>
      <trkpt lat="39.620044000" lon="-8.662601000">
        <ele>351.600000</ele>
        <time>2020-10-17T15:27:50Z</time>
      </trkpt>
      <trkpt lat="39.620430000" lon="-8.662821000">
        <ele>351.200000</ele>
        <time>2020-10-17T15:27:56Z</time>
      </trkpt>
      <trkpt lat="39.620491000" lon="-8.662859000">
        <ele>351.200000</ele>
        <time>2020-10-17T15:27:57Z</time>
      </trkpt>
      <trkpt lat="39.620549000" lon="-8.662895000">
        <ele>351.200000</ele>
        <time>2020-10-17T15:27:58Z</time>
      </trkpt>
      <trkpt lat="39.620606000" lon="-8.662929000">
        <ele>351.200000</ele>
        <time>2020-10-17T15:27:59Z</time>
      </trkpt>
      <trkpt lat="39.620659000" lon="-8.662963000">
        <ele>351.200000</ele>
        <time>2020-10-17T15:28:00Z</time>
      </trkpt>
      <trkpt lat="39.620713000" lon="-8.662995000">
        <ele>351.400000</ele>
        <time>2020-10-17T15:28:01Z</time>
      </trkpt>
      <trkpt lat="39.620823000" lon="-8.663060000">
        <ele>351.200000</ele>
        <time>2020-10-17T15:28:03Z</time>
      </trkpt>
      <trkpt lat="39.620878000" lon="-8.663092000">
        <ele>351.400000</ele>
        <time>2020-10-17T15:28:04Z</time>
      </trkpt>
      <trkpt lat="39.620931000" lon="-8.663125000">
        <ele>351.400000</ele>
        <time>2020-10-17T15:28:05Z</time>
      </trkpt>
      <trkpt lat="39.620982000" lon="-8.663158000">
        <ele>351.600000</ele>
        <time>2020-10-17T15:28:06Z</time>
      </trkpt>
      <trkpt lat="39.621249000" lon="-8.663328000">
        <ele>351.800000</ele>
        <time>2020-10-17T15:28:11Z</time>
      </trkpt>
      <trkpt lat="39.621358000" lon="-8.663392000">
        <ele>352.000000</ele>
        <time>2020-10-17T15:28:13Z</time>
      </trkpt>
      <trkpt lat="39.621466000" lon="-8.663451000">
        <ele>352.400000</ele>
        <time>2020-10-17T15:28:15Z</time>
      </trkpt>
      <trkpt lat="39.621738000" lon="-8.663619000">
        <ele>352.800000</ele>
        <time>2020-10-17T15:28:20Z</time>
      </trkpt>
      <trkpt lat="39.621792000" lon="-8.663650000">
        <ele>353.000000</ele>
        <time>2020-10-17T15:28:21Z</time>
      </trkpt>
      <trkpt lat="39.621957000" lon="-8.663750000">
        <ele>353.200000</ele>
        <time>2020-10-17T15:28:24Z</time>
      </trkpt>
      <trkpt lat="39.622066000" lon="-8.663812000">
        <ele>353.400000</ele>
        <time>2020-10-17T15:28:26Z</time>
      </trkpt>
      <trkpt lat="39.622238000" lon="-8.663912000">
        <ele>353.600000</ele>
        <time>2020-10-17T15:28:29Z</time>
      </trkpt>
      <trkpt lat="39.622717000" lon="-8.664196000">
        <ele>353.800000</ele>
        <time>2020-10-17T15:28:37Z</time>
      </trkpt>
      <trkpt lat="39.623108000" lon="-8.664433000">
        <ele>353.800000</ele>
        <time>2020-10-17T15:28:43Z</time>
      </trkpt>
      <trkpt lat="39.623175000" lon="-8.664472000">
        <ele>353.800000</ele>
        <time>2020-10-17T15:28:44Z</time>
      </trkpt>
      <trkpt lat="39.623302000" lon="-8.664553000">
        <ele>353.600000</ele>
        <time>2020-10-17T15:28:46Z</time>
      </trkpt>
      <trkpt lat="39.623363000" lon="-8.664593000">
        <ele>353.600000</ele>
        <time>2020-10-17T15:28:47Z</time>
      </trkpt>
      <trkpt lat="39.623421000" lon="-8.664628000">
        <ele>353.600000</ele>
        <time>2020-10-17T15:28:48Z</time>
      </trkpt>
      <trkpt lat="39.623612000" lon="-8.664745000">
        <ele>353.400000</ele>
        <time>2020-10-17T15:28:51Z</time>
      </trkpt>
      <trkpt lat="39.623676000" lon="-8.664781000">
        <ele>353.600000</ele>
        <time>2020-10-17T15:28:52Z</time>
      </trkpt>
      <trkpt lat="39.623804000" lon="-8.664860000">
        <ele>353.600000</ele>
        <time>2020-10-17T15:28:54Z</time>
      </trkpt>
      <trkpt lat="39.623868000" lon="-8.664897000">
        <ele>353.400000</ele>
        <time>2020-10-17T15:28:55Z</time>
      </trkpt>
      <trkpt lat="39.623927000" lon="-8.664937000">
        <ele>353.200000</ele>
        <time>2020-10-17T15:28:56Z</time>
      </trkpt>
      <trkpt lat="39.624051000" lon="-8.665020000">
        <ele>353.200000</ele>
        <time>2020-10-17T15:28:58Z</time>
      </trkpt>
      <trkpt lat="39.624112000" lon="-8.665054000">
        <ele>353.200000</ele>
        <time>2020-10-17T15:28:59Z</time>
      </trkpt>
      <trkpt lat="39.624171000" lon="-8.665088000">
        <ele>353.000000</ele>
        <time>2020-10-17T15:29:00Z</time>
      </trkpt>
      <trkpt lat="39.624232000" lon="-8.665120000">
        <ele>353.000000</ele>
        <time>2020-10-17T15:29:01Z</time>
      </trkpt>
      <trkpt lat="39.624291000" lon="-8.665154000">
        <ele>352.800000</ele>
        <time>2020-10-17T15:29:02Z</time>
      </trkpt>
      <trkpt lat="39.624344000" lon="-8.665189000">
        <ele>352.800000</ele>
        <time>2020-10-17T15:29:03Z</time>
      </trkpt>
      <trkpt lat="39.624462000" lon="-8.665264000">
        <ele>352.800000</ele>
        <time>2020-10-17T15:29:05Z</time>
      </trkpt>
      <trkpt lat="39.624652000" lon="-8.665375000">
        <ele>352.600000</ele>
        <time>2020-10-17T15:29:08Z</time>
      </trkpt>
      <trkpt lat="39.624711000" lon="-8.665413000">
        <ele>352.400000</ele>
        <time>2020-10-17T15:29:09Z</time>
      </trkpt>
      <trkpt lat="39.624765000" lon="-8.665448000">
        <ele>352.600000</ele>
        <time>2020-10-17T15:29:10Z</time>
      </trkpt>
      <trkpt lat="39.624819000" lon="-8.665482000">
        <ele>352.400000</ele>
        <time>2020-10-17T15:29:11Z</time>
      </trkpt>
      <trkpt lat="39.624872000" lon="-8.665518000">
        <ele>352.400000</ele>
        <time>2020-10-17T15:29:12Z</time>
      </trkpt>
      <trkpt lat="39.624925000" lon="-8.665552000">
        <ele>352.400000</ele>
        <time>2020-10-17T15:29:13Z</time>
      </trkpt>
      <trkpt lat="39.624977000" lon="-8.665585000">
        <ele>352.600000</ele>
        <time>2020-10-17T15:29:14Z</time>
      </trkpt>
      <trkpt lat="39.625027000" lon="-8.665614000">
        <ele>352.600000</ele>
        <time>2020-10-17T15:29:15Z</time>
      </trkpt>
      <trkpt lat="39.625073000" lon="-8.665641000">
        <ele>352.600000</ele>
        <time>2020-10-17T15:29:16Z</time>
      </trkpt>
      <trkpt lat="39.625115000" lon="-8.665664000">
        <ele>352.600000</ele>
        <time>2020-10-17T15:29:17Z</time>
      </trkpt>
      <trkpt lat="39.625155000" lon="-8.665680000">
        <ele>352.800000</ele>
        <time>2020-10-17T15:29:18Z</time>
      </trkpt>
      <trkpt lat="39.625191000" lon="-8.665683000">
        <ele>352.800000</ele>
        <time>2020-10-17T15:29:19Z</time>
      </trkpt>
      <trkpt lat="39.625232000" lon="-8.665678000">
        <ele>352.800000</ele>
        <time>2020-10-17T15:29:20Z</time>
      </trkpt>
      <trkpt lat="39.625273000" lon="-8.665666000">
        <ele>352.800000</ele>
        <time>2020-10-17T15:29:21Z</time>
      </trkpt>
      <trkpt lat="39.625317000" lon="-8.665650000">
        <ele>353.000000</ele>
        <time>2020-10-17T15:29:22Z</time>
      </trkpt>
      <trkpt lat="39.625456000" lon="-8.665596000">
        <ele>353.400000</ele>
        <time>2020-10-17T15:29:25Z</time>
      </trkpt>
      <trkpt lat="39.625562000" lon="-8.665596000">
        <ele>353.600000</ele>
        <time>2020-10-17T15:29:27Z</time>
      </trkpt>
      <trkpt lat="39.625617000" lon="-8.665612000">
        <ele>353.800000</ele>
        <time>2020-10-17T15:29:28Z</time>
      </trkpt>
      <trkpt lat="39.625670000" lon="-8.665635000">
        <ele>353.800000</ele>
        <time>2020-10-17T15:29:29Z</time>
      </trkpt>
      <trkpt lat="39.625718000" lon="-8.665666000">
        <ele>354.000000</ele>
        <time>2020-10-17T15:29:30Z</time>
      </trkpt>
      <trkpt lat="39.625760000" lon="-8.665707000">
        <ele>354.200000</ele>
        <time>2020-10-17T15:29:31Z</time>
      </trkpt>
      <trkpt lat="39.625796000" lon="-8.665761000">
        <ele>354.200000</ele>
        <time>2020-10-17T15:29:32Z</time>
      </trkpt>
      <trkpt lat="39.625825000" lon="-8.665825000">
        <ele>354.400000</ele>
        <time>2020-10-17T15:29:33Z</time>
      </trkpt>
      <trkpt lat="39.625844000" lon="-8.665891000">
        <ele>354.400000</ele>
        <time>2020-10-17T15:29:34Z</time>
      </trkpt>
      <trkpt lat="39.625856000" lon="-8.665960000">
        <ele>354.400000</ele>
        <time>2020-10-17T15:29:35Z</time>
      </trkpt>
      <trkpt lat="39.625867000" lon="-8.666035000">
        <ele>354.400000</ele>
        <time>2020-10-17T15:29:36Z</time>
      </trkpt>
      <trkpt lat="39.625869000" lon="-8.666113000">
        <ele>354.600000</ele>
        <time>2020-10-17T15:29:37Z</time>
      </trkpt>
      <trkpt lat="39.625868000" lon="-8.666272000">
        <ele>354.400000</ele>
        <time>2020-10-17T15:29:39Z</time>
      </trkpt>
      <trkpt lat="39.625877000" lon="-8.666340000">
        <ele>354.400000</ele>
        <time>2020-10-17T15:29:40Z</time>
      </trkpt>
      <trkpt lat="39.625902000" lon="-8.666405000">
        <ele>354.400000</ele>
        <time>2020-10-17T15:29:41Z</time>
      </trkpt>
      <trkpt lat="39.625934000" lon="-8.666466000">
        <ele>354.600000</ele>
        <time>2020-10-17T15:29:42Z</time>
      </trkpt>
      <trkpt lat="39.625970000" lon="-8.666520000">
        <ele>354.600000</ele>
        <time>2020-10-17T15:29:43Z</time>
      </trkpt>
      <trkpt lat="39.626008000" lon="-8.666579000">
        <ele>354.400000</ele>
        <time>2020-10-17T15:29:44Z</time>
      </trkpt>
      <trkpt lat="39.626122000" lon="-8.666762000">
        <ele>354.600000</ele>
        <time>2020-10-17T15:29:47Z</time>
      </trkpt>
      <trkpt lat="39.626155000" lon="-8.666822000">
        <ele>354.400000</ele>
        <time>2020-10-17T15:29:48Z</time>
      </trkpt>
      <trkpt lat="39.626347000" lon="-8.667120000">
        <ele>354.400000</ele>
        <time>2020-10-17T15:29:53Z</time>
      </trkpt>
      <trkpt lat="39.626381000" lon="-8.667177000">
        <ele>354.400000</ele>
        <time>2020-10-17T15:29:54Z</time>
      </trkpt>
      <trkpt lat="39.626456000" lon="-8.667293000">
        <ele>354.200000</ele>
        <time>2020-10-17T15:29:56Z</time>
      </trkpt>
      <trkpt lat="39.626494000" lon="-8.667349000">
        <ele>354.200000</ele>
        <time>2020-10-17T15:29:57Z</time>
      </trkpt>
      <trkpt lat="39.626574000" lon="-8.667471000">
        <ele>354.000000</ele>
        <time>2020-10-17T15:29:59Z</time>
      </trkpt>
      <trkpt lat="39.626617000" lon="-8.667534000">
        <ele>354.000000</ele>
        <time>2020-10-17T15:30:00Z</time>
      </trkpt>
      <trkpt lat="39.626787000" lon="-8.667809000">
        <ele>353.600000</ele>
        <time>2020-10-17T15:30:04Z</time>
      </trkpt>
      <trkpt lat="39.626885000" lon="-8.667954000">
        <ele>353.400000</ele>
        <time>2020-10-17T15:30:06Z</time>
      </trkpt>
      <trkpt lat="39.626927000" lon="-8.668020000">
        <ele>353.400000</ele>
        <time>2020-10-17T15:30:07Z</time>
      </trkpt>
      <trkpt lat="39.627057000" lon="-8.668235000">
        <ele>353.000000</ele>
        <time>2020-10-17T15:30:10Z</time>
      </trkpt>
      <trkpt lat="39.627100000" lon="-8.668304000">
        <ele>353.000000</ele>
        <time>2020-10-17T15:30:11Z</time>
      </trkpt>
      <trkpt lat="39.627146000" lon="-8.668367000">
        <ele>352.800000</ele>
        <time>2020-10-17T15:30:12Z</time>
      </trkpt>
      <trkpt lat="39.627189000" lon="-8.668426000">
        <ele>352.400000</ele>
        <time>2020-10-17T15:30:13Z</time>
      </trkpt>
      <trkpt lat="39.627237000" lon="-8.668485000">
        <ele>352.000000</ele>
        <time>2020-10-17T15:30:14Z</time>
      </trkpt>
      <trkpt lat="39.627339000" lon="-8.668617000">
        <ele>351.800000</ele>
        <time>2020-10-17T15:30:16Z</time>
      </trkpt>
      <trkpt lat="39.627412000" lon="-8.668769000">
        <ele>351.600000</ele>
        <time>2020-10-17T15:30:18Z</time>
      </trkpt>
      <trkpt lat="39.627442000" lon="-8.668843000">
        <ele>351.400000</ele>
        <time>2020-10-17T15:30:19Z</time>
      </trkpt>
      <trkpt lat="39.627559000" lon="-8.669257000">
        <ele>350.600000</ele>
        <time>2020-10-17T15:30:24Z</time>
      </trkpt>
      <trkpt lat="39.627577000" lon="-8.669430000">
        <ele>350.200000</ele>
        <time>2020-10-17T15:30:26Z</time>
      </trkpt>
      <trkpt lat="39.627565000" lon="-8.669707000">
        <ele>349.800000</ele>
        <time>2020-10-17T15:30:29Z</time>
      </trkpt>
      <trkpt lat="39.627529000" lon="-8.669989000">
        <ele>349.200000</ele>
        <time>2020-10-17T15:30:32Z</time>
      </trkpt>
      <trkpt lat="39.627499000" lon="-8.670172000">
        <ele>349.000000</ele>
        <time>2020-10-17T15:30:34Z</time>
      </trkpt>
      <trkpt lat="39.627481000" lon="-8.670258000">
        <ele>348.800000</ele>
        <time>2020-10-17T15:30:35Z</time>
      </trkpt>
      <trkpt lat="39.627466000" lon="-8.670344000">
        <ele>348.800000</ele>
        <time>2020-10-17T15:30:36Z</time>
      </trkpt>
      <trkpt lat="39.627450000" lon="-8.670429000">
        <ele>348.800000</ele>
        <time>2020-10-17T15:30:37Z</time>
      </trkpt>
      <trkpt lat="39.627433000" lon="-8.670513000">
        <ele>348.600000</ele>
        <time>2020-10-17T15:30:38Z</time>
      </trkpt>
      <trkpt lat="39.627399000" lon="-8.670676000">
        <ele>348.200000</ele>
        <time>2020-10-17T15:30:40Z</time>
      </trkpt>
      <trkpt lat="39.627383000" lon="-8.670756000">
        <ele>348.000000</ele>
        <time>2020-10-17T15:30:41Z</time>
      </trkpt>
      <trkpt lat="39.627368000" lon="-8.670829000">
        <ele>348.000000</ele>
        <time>2020-10-17T15:30:42Z</time>
      </trkpt>
      <trkpt lat="39.627354000" lon="-8.670897000">
        <ele>347.800000</ele>
        <time>2020-10-17T15:30:43Z</time>
      </trkpt>
      <trkpt lat="39.627339000" lon="-8.670957000">
        <ele>347.600000</ele>
        <time>2020-10-17T15:30:44Z</time>
      </trkpt>
      <trkpt lat="39.627325000" lon="-8.671012000">
        <ele>347.600000</ele>
        <time>2020-10-17T15:30:45Z</time>
      </trkpt>
      <trkpt lat="39.627314000" lon="-8.671062000">
        <ele>347.600000</ele>
        <time>2020-10-17T15:30:46Z</time>
      </trkpt>
      <trkpt lat="39.627298000" lon="-8.671104000">
        <ele>347.600000</ele>
        <time>2020-10-17T15:30:47Z</time>
      </trkpt>
      <trkpt lat="39.627265000" lon="-8.671119000">
        <ele>347.200000</ele>
        <time>2020-10-17T15:30:48Z</time>
      </trkpt>
      <trkpt lat="39.627236000" lon="-8.671134000">
        <ele>347.000000</ele>
        <time>2020-10-17T15:30:49Z</time>
      </trkpt>
      <trkpt lat="39.627213000" lon="-8.671154000">
        <ele>346.600000</ele>
        <time>2020-10-17T15:30:50Z</time>
      </trkpt>
      <trkpt lat="39.627182000" lon="-8.671171000">
        <ele>346.800000</ele>
        <time>2020-10-17T15:30:51Z</time>
      </trkpt>
      <trkpt lat="39.627149000" lon="-8.671197000">
        <ele>346.600000</ele>
        <time>2020-10-17T15:30:52Z</time>
      </trkpt>
      <trkpt lat="39.627068000" lon="-8.671274000">
        <ele>346.200000</ele>
        <time>2020-10-17T15:30:54Z</time>
      </trkpt>
      <trkpt lat="39.627026000" lon="-8.671320000">
        <ele>346.200000</ele>
        <time>2020-10-17T15:30:55Z</time>
      </trkpt>
      <trkpt lat="39.626954000" lon="-8.671438000">
        <ele>346.000000</ele>
        <time>2020-10-17T15:30:57Z</time>
      </trkpt>
      <trkpt lat="39.626927000" lon="-8.671507000">
        <ele>346.000000</ele>
        <time>2020-10-17T15:30:58Z</time>
      </trkpt>
      <trkpt lat="39.626909000" lon="-8.671581000">
        <ele>345.800000</ele>
        <time>2020-10-17T15:30:59Z</time>
      </trkpt>
      <trkpt lat="39.626904000" lon="-8.671661000">
        <ele>345.800000</ele>
        <time>2020-10-17T15:31:00Z</time>
      </trkpt>
      <trkpt lat="39.626892000" lon="-8.671743000">
        <ele>345.800000</ele>
        <time>2020-10-17T15:31:01Z</time>
      </trkpt>
      <trkpt lat="39.626876000" lon="-8.671823000">
        <ele>345.600000</ele>
        <time>2020-10-17T15:31:02Z</time>
      </trkpt>
      <trkpt lat="39.626865000" lon="-8.671903000">
        <ele>345.800000</ele>
        <time>2020-10-17T15:31:03Z</time>
      </trkpt>
      <trkpt lat="39.626855000" lon="-8.671983000">
        <ele>345.800000</ele>
        <time>2020-10-17T15:31:04Z</time>
      </trkpt>
      <trkpt lat="39.626843000" lon="-8.672063000">
        <ele>345.800000</ele>
        <time>2020-10-17T15:31:05Z</time>
      </trkpt>
      <trkpt lat="39.626828000" lon="-8.672136000">
        <ele>345.800000</ele>
        <time>2020-10-17T15:31:06Z</time>
      </trkpt>
      <trkpt lat="39.626813000" lon="-8.672208000">
        <ele>345.600000</ele>
        <time>2020-10-17T15:31:07Z</time>
      </trkpt>
      <trkpt lat="39.626798000" lon="-8.672274000">
        <ele>345.800000</ele>
        <time>2020-10-17T15:31:08Z</time>
      </trkpt>
      <trkpt lat="39.626784000" lon="-8.672341000">
        <ele>345.600000</ele>
        <time>2020-10-17T15:31:09Z</time>
      </trkpt>
      <trkpt lat="39.626753000" lon="-8.672475000">
        <ele>345.800000</ele>
        <time>2020-10-17T15:31:11Z</time>
      </trkpt>
      <trkpt lat="39.626711000" lon="-8.672599000">
        <ele>346.000000</ele>
        <time>2020-10-17T15:31:13Z</time>
      </trkpt>
      <trkpt lat="39.626704000" lon="-8.672667000">
        <ele>346.200000</ele>
        <time>2020-10-17T15:31:14Z</time>
      </trkpt>
      <trkpt lat="39.626695000" lon="-8.672731000">
        <ele>346.200000</ele>
        <time>2020-10-17T15:31:15Z</time>
      </trkpt>
      <trkpt lat="39.626678000" lon="-8.672792000">
        <ele>346.200000</ele>
        <time>2020-10-17T15:31:16Z</time>
      </trkpt>
      <trkpt lat="39.626646000" lon="-8.672914000">
        <ele>346.600000</ele>
        <time>2020-10-17T15:31:18Z</time>
      </trkpt>
      <trkpt lat="39.626621000" lon="-8.673121000">
        <ele>346.800000</ele>
        <time>2020-10-17T15:31:21Z</time>
      </trkpt>
      <trkpt lat="39.626610000" lon="-8.673185000">
        <ele>347.000000</ele>
        <time>2020-10-17T15:31:22Z</time>
      </trkpt>
      <trkpt lat="39.626607000" lon="-8.673252000">
        <ele>347.200000</ele>
        <time>2020-10-17T15:31:23Z</time>
      </trkpt>
      <trkpt lat="39.626593000" lon="-8.673455000">
        <ele>347.400000</ele>
        <time>2020-10-17T15:31:26Z</time>
      </trkpt>
      <trkpt lat="39.626592000" lon="-8.673719000">
        <ele>347.600000</ele>
        <time>2020-10-17T15:31:30Z</time>
      </trkpt>
      <trkpt lat="39.626589000" lon="-8.673785000">
        <ele>347.600000</ele>
        <time>2020-10-17T15:31:31Z</time>
      </trkpt>
      <trkpt lat="39.626589000" lon="-8.673850000">
        <ele>347.800000</ele>
        <time>2020-10-17T15:31:32Z</time>
      </trkpt>
      <trkpt lat="39.626595000" lon="-8.673915000">
        <ele>348.000000</ele>
        <time>2020-10-17T15:31:33Z</time>
      </trkpt>
      <trkpt lat="39.626604000" lon="-8.674049000">
        <ele>348.000000</ele>
        <time>2020-10-17T15:31:35Z</time>
      </trkpt>
      <trkpt lat="39.626614000" lon="-8.674112000">
        <ele>348.200000</ele>
        <time>2020-10-17T15:31:36Z</time>
      </trkpt>
      <trkpt lat="39.626674000" lon="-8.674303000">
        <ele>348.400000</ele>
        <time>2020-10-17T15:31:39Z</time>
      </trkpt>
      <trkpt lat="39.626700000" lon="-8.674361000">
        <ele>348.600000</ele>
        <time>2020-10-17T15:31:40Z</time>
      </trkpt>
      <trkpt lat="39.626729000" lon="-8.674423000">
        <ele>348.800000</ele>
        <time>2020-10-17T15:31:41Z</time>
      </trkpt>
      <trkpt lat="39.626916000" lon="-8.674747000">
        <ele>349.200000</ele>
        <time>2020-10-17T15:31:46Z</time>
      </trkpt>
      <trkpt lat="39.626954000" lon="-8.674802000">
        <ele>349.200000</ele>
        <time>2020-10-17T15:31:47Z</time>
      </trkpt>
      <trkpt lat="39.626993000" lon="-8.674854000">
        <ele>349.400000</ele>
        <time>2020-10-17T15:31:48Z</time>
      </trkpt>
      <trkpt lat="39.627032000" lon="-8.674905000">
        <ele>349.400000</ele>
        <time>2020-10-17T15:31:49Z</time>
      </trkpt>
      <trkpt lat="39.627199000" lon="-8.675107000">
        <ele>349.600000</ele>
        <time>2020-10-17T15:31:53Z</time>
      </trkpt>
      <trkpt lat="39.627239000" lon="-8.675157000">
        <ele>349.600000</ele>
        <time>2020-10-17T15:31:54Z</time>
      </trkpt>
      <trkpt lat="39.627279000" lon="-8.675205000">
        <ele>349.800000</ele>
        <time>2020-10-17T15:31:55Z</time>
      </trkpt>
      <trkpt lat="39.627314000" lon="-8.675253000">
        <ele>350.000000</ele>
        <time>2020-10-17T15:31:56Z</time>
      </trkpt>
      <trkpt lat="39.627349000" lon="-8.675302000">
        <ele>350.200000</ele>
        <time>2020-10-17T15:31:57Z</time>
      </trkpt>
      <trkpt lat="39.627383000" lon="-8.675351000">
        <ele>350.200000</ele>
        <time>2020-10-17T15:31:58Z</time>
      </trkpt>
      <trkpt lat="39.627453000" lon="-8.675455000">
        <ele>350.400000</ele>
        <time>2020-10-17T15:32:00Z</time>
      </trkpt>
      <trkpt lat="39.627517000" lon="-8.675553000">
        <ele>350.600000</ele>
        <time>2020-10-17T15:32:02Z</time>
      </trkpt>
      <trkpt lat="39.627552000" lon="-8.675599000">
        <ele>350.600000</ele>
        <time>2020-10-17T15:32:03Z</time>
      </trkpt>
      <trkpt lat="39.627585000" lon="-8.675649000">
        <ele>350.800000</ele>
        <time>2020-10-17T15:32:04Z</time>
      </trkpt>
      <trkpt lat="39.627615000" lon="-8.675702000">
        <ele>350.800000</ele>
        <time>2020-10-17T15:32:05Z</time>
      </trkpt>
      <trkpt lat="39.627636000" lon="-8.675749000">
        <ele>351.000000</ele>
        <time>2020-10-17T15:32:06Z</time>
      </trkpt>
      <trkpt lat="39.627662000" lon="-8.675790000">
        <ele>351.000000</ele>
        <time>2020-10-17T15:32:07Z</time>
      </trkpt>
      <trkpt lat="39.627693000" lon="-8.675832000">
        <ele>351.000000</ele>
        <time>2020-10-17T15:32:08Z</time>
      </trkpt>
      <trkpt lat="39.627771000" lon="-8.675895000">
        <ele>350.800000</ele>
        <time>2020-10-17T15:32:10Z</time>
      </trkpt>
      <trkpt lat="39.627823000" lon="-8.675915000">
        <ele>351.200000</ele>
        <time>2020-10-17T15:32:11Z</time>
      </trkpt>
      <trkpt lat="39.627879000" lon="-8.675927000">
        <ele>351.000000</ele>
        <time>2020-10-17T15:32:12Z</time>
      </trkpt>
      <trkpt lat="39.627935000" lon="-8.675935000">
        <ele>351.200000</ele>
        <time>2020-10-17T15:32:13Z</time>
      </trkpt>
      <trkpt lat="39.627990000" lon="-8.675946000">
        <ele>351.200000</ele>
        <time>2020-10-17T15:32:14Z</time>
      </trkpt>
      <trkpt lat="39.628146000" lon="-8.675958000">
        <ele>351.200000</ele>
        <time>2020-10-17T15:32:17Z</time>
      </trkpt>
      <trkpt lat="39.628191000" lon="-8.675951000">
        <ele>351.200000</ele>
        <time>2020-10-17T15:32:18Z</time>
      </trkpt>
      <trkpt lat="39.628235000" lon="-8.675938000">
        <ele>351.200000</ele>
        <time>2020-10-17T15:32:19Z</time>
      </trkpt>
      <trkpt lat="39.628274000" lon="-8.675919000">
        <ele>351.200000</ele>
        <time>2020-10-17T15:32:20Z</time>
      </trkpt>
      <trkpt lat="39.628308000" lon="-8.675901000">
        <ele>351.400000</ele>
        <time>2020-10-17T15:32:21Z</time>
      </trkpt>
      <trkpt lat="39.628335000" lon="-8.675884000">
        <ele>351.400000</ele>
        <time>2020-10-17T15:32:22Z</time>
      </trkpt>
      <trkpt lat="39.628356000" lon="-8.675863000">
        <ele>351.200000</ele>
        <time>2020-10-17T15:32:23Z</time>
      </trkpt>
      <trkpt lat="39.628373000" lon="-8.675844000">
        <ele>351.200000</ele>
        <time>2020-10-17T15:32:24Z</time>
      </trkpt>
      <trkpt lat="39.628383000" lon="-8.675830000">
        <ele>351.200000</ele>
        <time>2020-10-17T15:32:25Z</time>
      </trkpt>
      <trkpt lat="39.628390000" lon="-8.675825000">
        <ele>351.200000</ele>
        <time>2020-10-17T15:32:26Z</time>
      </trkpt>
      <trkpt lat="39.628395000" lon="-8.675819000">
        <ele>351.200000</ele>
        <time>2020-10-17T15:32:28Z</time>
      </trkpt>
      <trkpt lat="39.628429000" lon="-8.675774000">
        <ele>351.000000</ele>
        <time>2020-10-17T15:33:09Z</time>
      </trkpt>
      <trkpt lat="39.628441000" lon="-8.675747000">
        <ele>351.200000</ele>
        <time>2020-10-17T15:33:10Z</time>
      </trkpt>
      <trkpt lat="39.628505000" lon="-8.675604000">
        <ele>351.000000</ele>
        <time>2020-10-17T15:33:14Z</time>
      </trkpt>
      <trkpt lat="39.628530000" lon="-8.675561000">
        <ele>351.200000</ele>
        <time>2020-10-17T15:33:15Z</time>
      </trkpt>
      <trkpt lat="39.628574000" lon="-8.675466000">
        <ele>351.200000</ele>
        <time>2020-10-17T15:33:17Z</time>
      </trkpt>
      <trkpt lat="39.628736000" lon="-8.675230000">
        <ele>351.200000</ele>
        <time>2020-10-17T15:33:22Z</time>
      </trkpt>
      <trkpt lat="39.628787000" lon="-8.675189000">
        <ele>351.200000</ele>
        <time>2020-10-17T15:33:23Z</time>
      </trkpt>
      <trkpt lat="39.628830000" lon="-8.675153000">
        <ele>351.000000</ele>
        <time>2020-10-17T15:33:24Z</time>
      </trkpt>
      <trkpt lat="39.628881000" lon="-8.675121000">
        <ele>350.800000</ele>
        <time>2020-10-17T15:33:25Z</time>
      </trkpt>
      <trkpt lat="39.628976000" lon="-8.675064000">
        <ele>350.400000</ele>
        <time>2020-10-17T15:33:27Z</time>
      </trkpt>
      <trkpt lat="39.629029000" lon="-8.675030000">
        <ele>350.200000</ele>
        <time>2020-10-17T15:33:28Z</time>
      </trkpt>
      <trkpt lat="39.629068000" lon="-8.674997000">
        <ele>350.200000</ele>
        <time>2020-10-17T15:33:29Z</time>
      </trkpt>
      <trkpt lat="39.629113000" lon="-8.674970000">
        <ele>350.400000</ele>
        <time>2020-10-17T15:33:30Z</time>
      </trkpt>
      <trkpt lat="39.629212000" lon="-8.674924000">
        <ele>350.200000</ele>
        <time>2020-10-17T15:33:32Z</time>
      </trkpt>
      <trkpt lat="39.629349000" lon="-8.674813000">
        <ele>350.000000</ele>
        <time>2020-10-17T15:33:35Z</time>
      </trkpt>
      <trkpt lat="39.629387000" lon="-8.674771000">
        <ele>350.200000</ele>
        <time>2020-10-17T15:33:36Z</time>
      </trkpt>
      <trkpt lat="39.629396000" lon="-8.674723000">
        <ele>350.200000</ele>
        <time>2020-10-17T15:33:37Z</time>
      </trkpt>
      <trkpt lat="39.629416000" lon="-8.674681000">
        <ele>350.400000</ele>
        <time>2020-10-17T15:33:38Z</time>
      </trkpt>
      <trkpt lat="39.629446000" lon="-8.674644000">
        <ele>350.400000</ele>
        <time>2020-10-17T15:33:39Z</time>
      </trkpt>
      <trkpt lat="39.629498000" lon="-8.674567000">
        <ele>350.600000</ele>
        <time>2020-10-17T15:33:41Z</time>
      </trkpt>
      <trkpt lat="39.629515000" lon="-8.674528000">
        <ele>350.800000</ele>
        <time>2020-10-17T15:33:42Z</time>
      </trkpt>
      <trkpt lat="39.629547000" lon="-8.674498000">
        <ele>350.800000</ele>
        <time>2020-10-17T15:33:43Z</time>
      </trkpt>
      <trkpt lat="39.629574000" lon="-8.674470000">
        <ele>350.800000</ele>
        <time>2020-10-17T15:33:44Z</time>
      </trkpt>
      <trkpt lat="39.629594000" lon="-8.674440000">
        <ele>351.200000</ele>
        <time>2020-10-17T15:33:45Z</time>
      </trkpt>
      <trkpt lat="39.629724000" lon="-8.674358000">
        <ele>351.600000</ele>
        <time>2020-10-17T15:33:49Z</time>
      </trkpt>
      <trkpt lat="39.629759000" lon="-8.674342000">
        <ele>351.600000</ele>
        <time>2020-10-17T15:33:50Z</time>
      </trkpt>
      <trkpt lat="39.629841000" lon="-8.674318000">
        <ele>352.000000</ele>
        <time>2020-10-17T15:33:52Z</time>
      </trkpt>
      <trkpt lat="39.629884000" lon="-8.674310000">
        <ele>352.000000</ele>
        <time>2020-10-17T15:33:53Z</time>
      </trkpt>
      <trkpt lat="39.629919000" lon="-8.674304000">
        <ele>352.200000</ele>
        <time>2020-10-17T15:33:54Z</time>
      </trkpt>
      <trkpt lat="39.629948000" lon="-8.674296000">
        <ele>352.200000</ele>
        <time>2020-10-17T15:33:55Z</time>
      </trkpt>
      <trkpt lat="39.629976000" lon="-8.674288000">
        <ele>352.400000</ele>
        <time>2020-10-17T15:33:56Z</time>
      </trkpt>
      <trkpt lat="39.630003000" lon="-8.674281000">
        <ele>352.600000</ele>
        <time>2020-10-17T15:33:57Z</time>
      </trkpt>
      <trkpt lat="39.630026000" lon="-8.674277000">
        <ele>352.600000</ele>
        <time>2020-10-17T15:33:58Z</time>
      </trkpt>
      <trkpt lat="39.630043000" lon="-8.674274000">
        <ele>352.800000</ele>
        <time>2020-10-17T15:33:59Z</time>
      </trkpt>
      <trkpt lat="39.630052000" lon="-8.674277000">
        <ele>352.800000</ele>
        <time>2020-10-17T15:34:00Z</time>
      </trkpt>
      <trkpt lat="39.630053000" lon="-8.674279000">
        <ele>352.800000</ele>
        <time>2020-10-17T15:34:02Z</time>
      </trkpt>
      <trkpt lat="39.630064000" lon="-8.674355000">
        <ele>353.200000</ele>
        <time>2020-10-17T15:42:46Z</time>
      </trkpt>
      <trkpt lat="39.630078000" lon="-8.674377000">
        <ele>353.200000</ele>
        <time>2020-10-17T15:42:47Z</time>
      </trkpt>
      <trkpt lat="39.630093000" lon="-8.674405000">
        <ele>353.200000</ele>
        <time>2020-10-17T15:42:48Z</time>
      </trkpt>
      <trkpt lat="39.630108000" lon="-8.674437000">
        <ele>353.400000</ele>
        <time>2020-10-17T15:42:49Z</time>
      </trkpt>
      <trkpt lat="39.630183000" lon="-8.674559000">
        <ele>353.400000</ele>
        <time>2020-10-17T15:42:53Z</time>
      </trkpt>
      <trkpt lat="39.630201000" lon="-8.674589000">
        <ele>353.400000</ele>
        <time>2020-10-17T15:42:54Z</time>
      </trkpt>
      <trkpt lat="39.630218000" lon="-8.674619000">
        <ele>353.400000</ele>
        <time>2020-10-17T15:42:55Z</time>
      </trkpt>
      <trkpt lat="39.630277000" lon="-8.674821000">
        <ele>353.600000</ele>
        <time>2020-10-17T15:43:00Z</time>
      </trkpt>
      <trkpt lat="39.630292000" lon="-8.674906000">
        <ele>353.600000</ele>
        <time>2020-10-17T15:43:02Z</time>
      </trkpt>
      <trkpt lat="39.630273000" lon="-8.675091000">
        <ele>353.600000</ele>
        <time>2020-10-17T15:43:06Z</time>
      </trkpt>
      <trkpt lat="39.630174000" lon="-8.675386000">
        <ele>353.400000</ele>
        <time>2020-10-17T15:43:12Z</time>
      </trkpt>
      <trkpt lat="39.630121000" lon="-8.675571000">
        <ele>353.200000</ele>
        <time>2020-10-17T15:43:15Z</time>
      </trkpt>
      <trkpt lat="39.630037000" lon="-8.675804000">
        <ele>352.800000</ele>
        <time>2020-10-17T15:43:19Z</time>
      </trkpt>
      <trkpt lat="39.630015000" lon="-8.675861000">
        <ele>353.000000</ele>
        <time>2020-10-17T15:43:20Z</time>
      </trkpt>
      <trkpt lat="39.629936000" lon="-8.676032000">
        <ele>352.400000</ele>
        <time>2020-10-17T15:43:23Z</time>
      </trkpt>
      <trkpt lat="39.629837000" lon="-8.676191000">
        <ele>351.800000</ele>
        <time>2020-10-17T15:43:26Z</time>
      </trkpt>
      <trkpt lat="39.629746000" lon="-8.676364000">
        <ele>351.800000</ele>
        <time>2020-10-17T15:43:29Z</time>
      </trkpt>
      <trkpt lat="39.629712000" lon="-8.676419000">
        <ele>351.800000</ele>
        <time>2020-10-17T15:43:30Z</time>
      </trkpt>
      <trkpt lat="39.629676000" lon="-8.676466000">
        <ele>351.400000</ele>
        <time>2020-10-17T15:43:31Z</time>
      </trkpt>
      <trkpt lat="39.629642000" lon="-8.676509000">
        <ele>351.400000</ele>
        <time>2020-10-17T15:43:32Z</time>
      </trkpt>
      <trkpt lat="39.629619000" lon="-8.676551000">
        <ele>351.200000</ele>
        <time>2020-10-17T15:43:33Z</time>
      </trkpt>
      <trkpt lat="39.629592000" lon="-8.676590000">
        <ele>351.200000</ele>
        <time>2020-10-17T15:43:34Z</time>
      </trkpt>
      <trkpt lat="39.629564000" lon="-8.676627000">
        <ele>350.800000</ele>
        <time>2020-10-17T15:43:35Z</time>
      </trkpt>
      <trkpt lat="39.629540000" lon="-8.676664000">
        <ele>350.800000</ele>
        <time>2020-10-17T15:43:36Z</time>
      </trkpt>
      <trkpt lat="39.629520000" lon="-8.676703000">
        <ele>350.600000</ele>
        <time>2020-10-17T15:43:37Z</time>
      </trkpt>
      <trkpt lat="39.629501000" lon="-8.676741000">
        <ele>350.600000</ele>
        <time>2020-10-17T15:43:38Z</time>
      </trkpt>
      <trkpt lat="39.629483000" lon="-8.676781000">
        <ele>350.600000</ele>
        <time>2020-10-17T15:43:39Z</time>
      </trkpt>
      <trkpt lat="39.629464000" lon="-8.676817000">
        <ele>350.600000</ele>
        <time>2020-10-17T15:43:40Z</time>
      </trkpt>
      <trkpt lat="39.629447000" lon="-8.676854000">
        <ele>350.600000</ele>
        <time>2020-10-17T15:43:41Z</time>
      </trkpt>
      <trkpt lat="39.629426000" lon="-8.676884000">
        <ele>350.600000</ele>
        <time>2020-10-17T15:43:42Z</time>
      </trkpt>
      <trkpt lat="39.629367000" lon="-8.676944000">
        <ele>351.000000</ele>
        <time>2020-10-17T15:43:44Z</time>
      </trkpt>
      <trkpt lat="39.629276000" lon="-8.677066000">
        <ele>351.200000</ele>
        <time>2020-10-17T15:43:47Z</time>
      </trkpt>
      <trkpt lat="39.629260000" lon="-8.677111000">
        <ele>351.200000</ele>
        <time>2020-10-17T15:43:48Z</time>
      </trkpt>
      <trkpt lat="39.629243000" lon="-8.677156000">
        <ele>351.400000</ele>
        <time>2020-10-17T15:43:49Z</time>
      </trkpt>
      <trkpt lat="39.629233000" lon="-8.677206000">
        <ele>351.400000</ele>
        <time>2020-10-17T15:43:50Z</time>
      </trkpt>
      <trkpt lat="39.629231000" lon="-8.677261000">
        <ele>351.400000</ele>
        <time>2020-10-17T15:43:51Z</time>
      </trkpt>
      <trkpt lat="39.629225000" lon="-8.677313000">
        <ele>351.600000</ele>
        <time>2020-10-17T15:43:52Z</time>
      </trkpt>
      <trkpt lat="39.629223000" lon="-8.677479000">
        <ele>351.600000</ele>
        <time>2020-10-17T15:43:55Z</time>
      </trkpt>
      <trkpt lat="39.629219000" lon="-8.677533000">
        <ele>351.600000</ele>
        <time>2020-10-17T15:43:56Z</time>
      </trkpt>
      <trkpt lat="39.629222000" lon="-8.677644000">
        <ele>351.600000</ele>
        <time>2020-10-17T15:43:58Z</time>
      </trkpt>
      <trkpt lat="39.629232000" lon="-8.677694000">
        <ele>351.600000</ele>
        <time>2020-10-17T15:43:59Z</time>
      </trkpt>
      <trkpt lat="39.629248000" lon="-8.677740000">
        <ele>351.600000</ele>
        <time>2020-10-17T15:44:00Z</time>
      </trkpt>
      <trkpt lat="39.629268000" lon="-8.677784000">
        <ele>351.600000</ele>
        <time>2020-10-17T15:44:01Z</time>
      </trkpt>
      <trkpt lat="39.629295000" lon="-8.677827000">
        <ele>351.600000</ele>
        <time>2020-10-17T15:44:02Z</time>
      </trkpt>
      <trkpt lat="39.629320000" lon="-8.677863000">
        <ele>351.400000</ele>
        <time>2020-10-17T15:44:03Z</time>
      </trkpt>
      <trkpt lat="39.629342000" lon="-8.677893000">
        <ele>351.600000</ele>
        <time>2020-10-17T15:44:04Z</time>
      </trkpt>
      <trkpt lat="39.629405000" lon="-8.677950000">
        <ele>351.400000</ele>
        <time>2020-10-17T15:44:06Z</time>
      </trkpt>
      <trkpt lat="39.629534000" lon="-8.678085000">
        <ele>351.400000</ele>
        <time>2020-10-17T15:44:10Z</time>
      </trkpt>
      <trkpt lat="39.629627000" lon="-8.678192000">
        <ele>351.400000</ele>
        <time>2020-10-17T15:44:13Z</time>
      </trkpt>
      <trkpt lat="39.629719000" lon="-8.678311000">
        <ele>351.200000</ele>
        <time>2020-10-17T15:44:16Z</time>
      </trkpt>
      <trkpt lat="39.629782000" lon="-8.678397000">
        <ele>351.400000</ele>
        <time>2020-10-17T15:44:18Z</time>
      </trkpt>
      <trkpt lat="39.629813000" lon="-8.678437000">
        <ele>351.400000</ele>
        <time>2020-10-17T15:44:19Z</time>
      </trkpt>
      <trkpt lat="39.629876000" lon="-8.678531000">
        <ele>351.200000</ele>
        <time>2020-10-17T15:44:21Z</time>
      </trkpt>
      <trkpt lat="39.629971000" lon="-8.678705000">
        <ele>351.200000</ele>
        <time>2020-10-17T15:44:24Z</time>
      </trkpt>
      <trkpt lat="39.630012000" lon="-8.678757000">
        <ele>351.400000</ele>
        <time>2020-10-17T15:44:25Z</time>
      </trkpt>
      <trkpt lat="39.630061000" lon="-8.678806000">
        <ele>351.200000</ele>
        <time>2020-10-17T15:44:26Z</time>
      </trkpt>
      <trkpt lat="39.630107000" lon="-8.678851000">
        <ele>351.200000</ele>
        <time>2020-10-17T15:44:27Z</time>
      </trkpt>
      <trkpt lat="39.630153000" lon="-8.678888000">
        <ele>351.200000</ele>
        <time>2020-10-17T15:44:28Z</time>
      </trkpt>
      <trkpt lat="39.630198000" lon="-8.678924000">
        <ele>351.000000</ele>
        <time>2020-10-17T15:44:29Z</time>
      </trkpt>
      <trkpt lat="39.630331000" lon="-8.679059000">
        <ele>350.400000</ele>
        <time>2020-10-17T15:44:32Z</time>
      </trkpt>
      <trkpt lat="39.630410000" lon="-8.679152000">
        <ele>350.200000</ele>
        <time>2020-10-17T15:44:34Z</time>
      </trkpt>
      <trkpt lat="39.630570000" lon="-8.679348000">
        <ele>349.800000</ele>
        <time>2020-10-17T15:44:38Z</time>
      </trkpt>
      <trkpt lat="39.630609000" lon="-8.679398000">
        <ele>349.600000</ele>
        <time>2020-10-17T15:44:39Z</time>
      </trkpt>
      <trkpt lat="39.630647000" lon="-8.679452000">
        <ele>349.600000</ele>
        <time>2020-10-17T15:44:40Z</time>
      </trkpt>
      <trkpt lat="39.630685000" lon="-8.679503000">
        <ele>349.400000</ele>
        <time>2020-10-17T15:44:41Z</time>
      </trkpt>
      <trkpt lat="39.630728000" lon="-8.679559000">
        <ele>349.400000</ele>
        <time>2020-10-17T15:44:42Z</time>
      </trkpt>
      <trkpt lat="39.630766000" lon="-8.679609000">
        <ele>349.200000</ele>
        <time>2020-10-17T15:44:43Z</time>
      </trkpt>
      <trkpt lat="39.630799000" lon="-8.679654000">
        <ele>349.200000</ele>
        <time>2020-10-17T15:44:44Z</time>
      </trkpt>
      <trkpt lat="39.630963000" lon="-8.679850000">
        <ele>348.800000</ele>
        <time>2020-10-17T15:44:48Z</time>
      </trkpt>
      <trkpt lat="39.631123000" lon="-8.680057000">
        <ele>348.400000</ele>
        <time>2020-10-17T15:44:52Z</time>
      </trkpt>
      <trkpt lat="39.631198000" lon="-8.680169000">
        <ele>348.200000</ele>
        <time>2020-10-17T15:44:54Z</time>
      </trkpt>
      <trkpt lat="39.631236000" lon="-8.680214000">
        <ele>348.000000</ele>
        <time>2020-10-17T15:44:55Z</time>
      </trkpt>
      <trkpt lat="39.631279000" lon="-8.680249000">
        <ele>348.200000</ele>
        <time>2020-10-17T15:44:56Z</time>
      </trkpt>
      <trkpt lat="39.631324000" lon="-8.680274000">
        <ele>348.200000</ele>
        <time>2020-10-17T15:44:57Z</time>
      </trkpt>
      <trkpt lat="39.631373000" lon="-8.680284000">
        <ele>348.200000</ele>
        <time>2020-10-17T15:44:58Z</time>
      </trkpt>
      <trkpt lat="39.631427000" lon="-8.680286000">
        <ele>348.000000</ele>
        <time>2020-10-17T15:44:59Z</time>
      </trkpt>
      <trkpt lat="39.631476000" lon="-8.680299000">
        <ele>348.200000</ele>
        <time>2020-10-17T15:45:00Z</time>
      </trkpt>
      <trkpt lat="39.631523000" lon="-8.680321000">
        <ele>348.000000</ele>
        <time>2020-10-17T15:45:01Z</time>
      </trkpt>
      <trkpt lat="39.631566000" lon="-8.680351000">
        <ele>348.200000</ele>
        <time>2020-10-17T15:45:02Z</time>
      </trkpt>
      <trkpt lat="39.631608000" lon="-8.680385000">
        <ele>348.000000</ele>
        <time>2020-10-17T15:45:03Z</time>
      </trkpt>
      <trkpt lat="39.631644000" lon="-8.680417000">
        <ele>348.000000</ele>
        <time>2020-10-17T15:45:04Z</time>
      </trkpt>
      <trkpt lat="39.631676000" lon="-8.680449000">
        <ele>348.000000</ele>
        <time>2020-10-17T15:45:05Z</time>
      </trkpt>
      <trkpt lat="39.631711000" lon="-8.680491000">
        <ele>348.000000</ele>
        <time>2020-10-17T15:45:06Z</time>
      </trkpt>
      <trkpt lat="39.631780000" lon="-8.680574000">
        <ele>348.000000</ele>
        <time>2020-10-17T15:45:08Z</time>
      </trkpt>
      <trkpt lat="39.631809000" lon="-8.680617000">
        <ele>348.000000</ele>
        <time>2020-10-17T15:45:09Z</time>
      </trkpt>
      <trkpt lat="39.631869000" lon="-8.680703000">
        <ele>348.200000</ele>
        <time>2020-10-17T15:45:11Z</time>
      </trkpt>
      <trkpt lat="39.631886000" lon="-8.680732000">
        <ele>348.200000</ele>
        <time>2020-10-17T15:45:12Z</time>
      </trkpt>
      <trkpt lat="39.631910000" lon="-8.680767000">
        <ele>348.200000</ele>
        <time>2020-10-17T15:45:13Z</time>
      </trkpt>
      <trkpt lat="39.631933000" lon="-8.680798000">
        <ele>348.000000</ele>
        <time>2020-10-17T15:45:14Z</time>
      </trkpt>
      <trkpt lat="39.631950000" lon="-8.680821000">
        <ele>348.000000</ele>
        <time>2020-10-17T15:45:15Z</time>
      </trkpt>
      <trkpt lat="39.631971000" lon="-8.680850000">
        <ele>348.200000</ele>
        <time>2020-10-17T15:45:16Z</time>
      </trkpt>
      <trkpt lat="39.631997000" lon="-8.680886000">
        <ele>348.200000</ele>
        <time>2020-10-17T15:45:17Z</time>
      </trkpt>
      <trkpt lat="39.632057000" lon="-8.680963000">
        <ele>348.200000</ele>
        <time>2020-10-17T15:45:19Z</time>
      </trkpt>
      <trkpt lat="39.632179000" lon="-8.681126000">
        <ele>348.800000</ele>
        <time>2020-10-17T15:45:23Z</time>
      </trkpt>
      <trkpt lat="39.632213000" lon="-8.681168000">
        <ele>348.800000</ele>
        <time>2020-10-17T15:45:24Z</time>
      </trkpt>
      <trkpt lat="39.632281000" lon="-8.681248000">
        <ele>348.800000</ele>
        <time>2020-10-17T15:45:26Z</time>
      </trkpt>
      <trkpt lat="39.632347000" lon="-8.681327000">
        <ele>349.000000</ele>
        <time>2020-10-17T15:45:28Z</time>
      </trkpt>
      <trkpt lat="39.632409000" lon="-8.681411000">
        <ele>349.200000</ele>
        <time>2020-10-17T15:45:30Z</time>
      </trkpt>
      <trkpt lat="39.632471000" lon="-8.681490000">
        <ele>349.200000</ele>
        <time>2020-10-17T15:45:32Z</time>
      </trkpt>
      <trkpt lat="39.632606000" lon="-8.681665000">
        <ele>349.400000</ele>
        <time>2020-10-17T15:45:36Z</time>
      </trkpt>
      <trkpt lat="39.632638000" lon="-8.681706000">
        <ele>349.600000</ele>
        <time>2020-10-17T15:45:37Z</time>
      </trkpt>
      <trkpt lat="39.632704000" lon="-8.681787000">
        <ele>349.800000</ele>
        <time>2020-10-17T15:45:39Z</time>
      </trkpt>
      <trkpt lat="39.632736000" lon="-8.681825000">
        <ele>350.000000</ele>
        <time>2020-10-17T15:45:40Z</time>
      </trkpt>
      <trkpt lat="39.632801000" lon="-8.681914000">
        <ele>350.200000</ele>
        <time>2020-10-17T15:45:42Z</time>
      </trkpt>
      <trkpt lat="39.632833000" lon="-8.681952000">
        <ele>350.400000</ele>
        <time>2020-10-17T15:45:43Z</time>
      </trkpt>
      <trkpt lat="39.632903000" lon="-8.682031000">
        <ele>350.600000</ele>
        <time>2020-10-17T15:45:45Z</time>
      </trkpt>
      <trkpt lat="39.632934000" lon="-8.682068000">
        <ele>350.600000</ele>
        <time>2020-10-17T15:45:46Z</time>
      </trkpt>
      <trkpt lat="39.632965000" lon="-8.682101000">
        <ele>350.600000</ele>
        <time>2020-10-17T15:45:47Z</time>
      </trkpt>
      <trkpt lat="39.632991000" lon="-8.682141000">
        <ele>350.600000</ele>
        <time>2020-10-17T15:45:48Z</time>
      </trkpt>
      <trkpt lat="39.633084000" lon="-8.682253000">
        <ele>350.600000</ele>
        <time>2020-10-17T15:45:51Z</time>
      </trkpt>
      <trkpt lat="39.633112000" lon="-8.682290000">
        <ele>350.600000</ele>
        <time>2020-10-17T15:45:52Z</time>
      </trkpt>
      <trkpt lat="39.633139000" lon="-8.682333000">
        <ele>350.600000</ele>
        <time>2020-10-17T15:45:53Z</time>
      </trkpt>
      <trkpt lat="39.633223000" lon="-8.682410000">
        <ele>350.800000</ele>
        <time>2020-10-17T15:45:55Z</time>
      </trkpt>
      <trkpt lat="39.633269000" lon="-8.682450000">
        <ele>351.000000</ele>
        <time>2020-10-17T15:45:56Z</time>
      </trkpt>
      <trkpt lat="39.633348000" lon="-8.682533000">
        <ele>351.000000</ele>
        <time>2020-10-17T15:45:58Z</time>
      </trkpt>
      <trkpt lat="39.633379000" lon="-8.682581000">
        <ele>351.000000</ele>
        <time>2020-10-17T15:45:59Z</time>
      </trkpt>
      <trkpt lat="39.633441000" lon="-8.682682000">
        <ele>351.200000</ele>
        <time>2020-10-17T15:46:01Z</time>
      </trkpt>
      <trkpt lat="39.633469000" lon="-8.682748000">
        <ele>351.200000</ele>
        <time>2020-10-17T15:46:02Z</time>
      </trkpt>
      <trkpt lat="39.633495000" lon="-8.682801000">
        <ele>351.200000</ele>
        <time>2020-10-17T15:46:03Z</time>
      </trkpt>
      <trkpt lat="39.633523000" lon="-8.682847000">
        <ele>351.200000</ele>
        <time>2020-10-17T15:46:04Z</time>
      </trkpt>
      <trkpt lat="39.633559000" lon="-8.682892000">
        <ele>351.200000</ele>
        <time>2020-10-17T15:46:05Z</time>
      </trkpt>
      <trkpt lat="39.633841000" lon="-8.683256000">
        <ele>351.000000</ele>
        <time>2020-10-17T15:46:12Z</time>
      </trkpt>
      <trkpt lat="39.633865000" lon="-8.683313000">
        <ele>350.800000</ele>
        <time>2020-10-17T15:46:13Z</time>
      </trkpt>
      <trkpt lat="39.633880000" lon="-8.683381000">
        <ele>350.800000</ele>
        <time>2020-10-17T15:46:14Z</time>
      </trkpt>
      <trkpt lat="39.633895000" lon="-8.683459000">
        <ele>350.800000</ele>
        <time>2020-10-17T15:46:15Z</time>
      </trkpt>
      <trkpt lat="39.633902000" lon="-8.683531000">
        <ele>350.600000</ele>
        <time>2020-10-17T15:46:16Z</time>
      </trkpt>
      <trkpt lat="39.633909000" lon="-8.683609000">
        <ele>350.600000</ele>
        <time>2020-10-17T15:46:17Z</time>
      </trkpt>
      <trkpt lat="39.633915000" lon="-8.683759000">
        <ele>350.800000</ele>
        <time>2020-10-17T15:46:19Z</time>
      </trkpt>
      <trkpt lat="39.633927000" lon="-8.683830000">
        <ele>350.400000</ele>
        <time>2020-10-17T15:46:20Z</time>
      </trkpt>
      <trkpt lat="39.633941000" lon="-8.683896000">
        <ele>350.600000</ele>
        <time>2020-10-17T15:46:21Z</time>
      </trkpt>
      <trkpt lat="39.633960000" lon="-8.683956000">
        <ele>350.600000</ele>
        <time>2020-10-17T15:46:22Z</time>
      </trkpt>
      <trkpt lat="39.633984000" lon="-8.684012000">
        <ele>350.600000</ele>
        <time>2020-10-17T15:46:23Z</time>
      </trkpt>
      <trkpt lat="39.634042000" lon="-8.684137000">
        <ele>350.600000</ele>
        <time>2020-10-17T15:46:25Z</time>
      </trkpt>
      <trkpt lat="39.634070000" lon="-8.684192000">
        <ele>350.400000</ele>
        <time>2020-10-17T15:46:26Z</time>
      </trkpt>
      <trkpt lat="39.634104000" lon="-8.684241000">
        <ele>350.400000</ele>
        <time>2020-10-17T15:46:27Z</time>
      </trkpt>
      <trkpt lat="39.634224000" lon="-8.684364000">
        <ele>350.400000</ele>
        <time>2020-10-17T15:46:30Z</time>
      </trkpt>
      <trkpt lat="39.634378000" lon="-8.684435000">
        <ele>350.400000</ele>
        <time>2020-10-17T15:46:33Z</time>
      </trkpt>
      <trkpt lat="39.634428000" lon="-8.684448000">
        <ele>350.200000</ele>
        <time>2020-10-17T15:46:34Z</time>
      </trkpt>
      <trkpt lat="39.634471000" lon="-8.684453000">
        <ele>350.200000</ele>
        <time>2020-10-17T15:46:35Z</time>
      </trkpt>
      <trkpt lat="39.634511000" lon="-8.684459000">
        <ele>350.400000</ele>
        <time>2020-10-17T15:46:36Z</time>
      </trkpt>
      <trkpt lat="39.634544000" lon="-8.684465000">
        <ele>350.200000</ele>
        <time>2020-10-17T15:46:37Z</time>
      </trkpt>
      <trkpt lat="39.634581000" lon="-8.684475000">
        <ele>350.400000</ele>
        <time>2020-10-17T15:46:38Z</time>
      </trkpt>
      <trkpt lat="39.634612000" lon="-8.684488000">
        <ele>350.200000</ele>
        <time>2020-10-17T15:46:39Z</time>
      </trkpt>
      <trkpt lat="39.634637000" lon="-8.684509000">
        <ele>350.400000</ele>
        <time>2020-10-17T15:46:40Z</time>
      </trkpt>
      <trkpt lat="39.634664000" lon="-8.684536000">
        <ele>350.200000</ele>
        <time>2020-10-17T15:46:41Z</time>
      </trkpt>
      <trkpt lat="39.634691000" lon="-8.684561000">
        <ele>350.400000</ele>
        <time>2020-10-17T15:46:42Z</time>
      </trkpt>
      <trkpt lat="39.634719000" lon="-8.684584000">
        <ele>350.400000</ele>
        <time>2020-10-17T15:46:43Z</time>
      </trkpt>
      <trkpt lat="39.634742000" lon="-8.684598000">
        <ele>350.200000</ele>
        <time>2020-10-17T15:46:44Z</time>
      </trkpt>
      <trkpt lat="39.634762000" lon="-8.684606000">
        <ele>350.200000</ele>
        <time>2020-10-17T15:46:45Z</time>
      </trkpt>
      <trkpt lat="39.634777000" lon="-8.684610000">
        <ele>350.400000</ele>
        <time>2020-10-17T15:46:46Z</time>
      </trkpt>
      <trkpt lat="39.634788000" lon="-8.684611000">
        <ele>350.200000</ele>
        <time>2020-10-17T15:46:47Z</time>
      </trkpt>
      <trkpt lat="39.634790000" lon="-8.684609000">
        <ele>350.400000</ele>
        <time>2020-10-17T15:46:48Z</time>
      </trkpt>
      <trkpt lat="39.634795000" lon="-8.684609000">
        <ele>350.400000</ele>
        <time>2020-10-17T15:46:49Z</time>
      </trkpt>
      <trkpt lat="39.634807000" lon="-8.684616000">
        <ele>350.200000</ele>
        <time>2020-10-17T15:46:50Z</time>
      </trkpt>
      <trkpt lat="39.634814000" lon="-8.684620000">
        <ele>350.200000</ele>
        <time>2020-10-17T15:46:51Z</time>
      </trkpt>
      <trkpt lat="39.634828000" lon="-8.684630000">
        <ele>350.200000</ele>
        <time>2020-10-17T15:46:53Z</time>
      </trkpt>
      <trkpt lat="39.634758000" lon="-8.684780000">
        <ele>349.400000</ele>
        <time>2020-10-17T16:05:25Z</time>
      </trkpt>
      <trkpt lat="39.634764000" lon="-8.684815000">
        <ele>349.600000</ele>
        <time>2020-10-17T16:05:26Z</time>
      </trkpt>
      <trkpt lat="39.634799000" lon="-8.684977000">
        <ele>349.600000</ele>
        <time>2020-10-17T16:05:30Z</time>
      </trkpt>
      <trkpt lat="39.634816000" lon="-8.685112000">
        <ele>349.600000</ele>
        <time>2020-10-17T16:05:33Z</time>
      </trkpt>
      <trkpt lat="39.634828000" lon="-8.685201000">
        <ele>349.600000</ele>
        <time>2020-10-17T16:05:35Z</time>
      </trkpt>
      <trkpt lat="39.634869000" lon="-8.685426000">
        <ele>349.800000</ele>
        <time>2020-10-17T16:05:40Z</time>
      </trkpt>
      <trkpt lat="39.634878000" lon="-8.685467000">
        <ele>349.800000</ele>
        <time>2020-10-17T16:05:41Z</time>
      </trkpt>
      <trkpt lat="39.634888000" lon="-8.685508000">
        <ele>349.800000</ele>
        <time>2020-10-17T16:05:42Z</time>
      </trkpt>
      <trkpt lat="39.634919000" lon="-8.685632000">
        <ele>350.200000</ele>
        <time>2020-10-17T16:05:45Z</time>
      </trkpt>
      <trkpt lat="39.634942000" lon="-8.685761000">
        <ele>350.400000</ele>
        <time>2020-10-17T16:05:48Z</time>
      </trkpt>
      <trkpt lat="39.634948000" lon="-8.685800000">
        <ele>350.600000</ele>
        <time>2020-10-17T16:05:49Z</time>
      </trkpt>
      <trkpt lat="39.634953000" lon="-8.685839000">
        <ele>350.800000</ele>
        <time>2020-10-17T16:05:50Z</time>
      </trkpt>
      <trkpt lat="39.634960000" lon="-8.685877000">
        <ele>351.000000</ele>
        <time>2020-10-17T16:05:51Z</time>
      </trkpt>
      <trkpt lat="39.634967000" lon="-8.685915000">
        <ele>350.800000</ele>
        <time>2020-10-17T16:05:52Z</time>
      </trkpt>
      <trkpt lat="39.634977000" lon="-8.686037000">
        <ele>351.200000</ele>
        <time>2020-10-17T16:05:55Z</time>
      </trkpt>
      <trkpt lat="39.634981000" lon="-8.686079000">
        <ele>351.600000</ele>
        <time>2020-10-17T16:05:56Z</time>
      </trkpt>
      <trkpt lat="39.634982000" lon="-8.686119000">
        <ele>351.600000</ele>
        <time>2020-10-17T16:05:57Z</time>
      </trkpt>
      <trkpt lat="39.634984000" lon="-8.686162000">
        <ele>351.800000</ele>
        <time>2020-10-17T16:05:58Z</time>
      </trkpt>
      <trkpt lat="39.634985000" lon="-8.686207000">
        <ele>351.800000</ele>
        <time>2020-10-17T16:05:59Z</time>
      </trkpt>
      <trkpt lat="39.634986000" lon="-8.686249000">
        <ele>352.000000</ele>
        <time>2020-10-17T16:06:00Z</time>
      </trkpt>
      <trkpt lat="39.634989000" lon="-8.686292000">
        <ele>352.200000</ele>
        <time>2020-10-17T16:06:01Z</time>
      </trkpt>
      <trkpt lat="39.634993000" lon="-8.686338000">
        <ele>352.400000</ele>
        <time>2020-10-17T16:06:02Z</time>
      </trkpt>
      <trkpt lat="39.634999000" lon="-8.686385000">
        <ele>352.600000</ele>
        <time>2020-10-17T16:06:03Z</time>
      </trkpt>
      <trkpt lat="39.635005000" lon="-8.686430000">
        <ele>352.800000</ele>
        <time>2020-10-17T16:06:04Z</time>
      </trkpt>
      <trkpt lat="39.635008000" lon="-8.686481000">
        <ele>353.000000</ele>
        <time>2020-10-17T16:06:05Z</time>
      </trkpt>
      <trkpt lat="39.635011000" lon="-8.686530000">
        <ele>353.200000</ele>
        <time>2020-10-17T16:06:06Z</time>
      </trkpt>
      <trkpt lat="39.635013000" lon="-8.686578000">
        <ele>353.000000</ele>
        <time>2020-10-17T16:06:07Z</time>
      </trkpt>
      <trkpt lat="39.635015000" lon="-8.686625000">
        <ele>353.200000</ele>
        <time>2020-10-17T16:06:08Z</time>
      </trkpt>
      <trkpt lat="39.635020000" lon="-8.686672000">
        <ele>353.600000</ele>
        <time>2020-10-17T16:06:09Z</time>
      </trkpt>
      <trkpt lat="39.635026000" lon="-8.686721000">
        <ele>353.400000</ele>
        <time>2020-10-17T16:06:10Z</time>
      </trkpt>
      <trkpt lat="39.635031000" lon="-8.686768000">
        <ele>353.600000</ele>
        <time>2020-10-17T16:06:11Z</time>
      </trkpt>
      <trkpt lat="39.635037000" lon="-8.686819000">
        <ele>353.800000</ele>
        <time>2020-10-17T16:06:12Z</time>
      </trkpt>
      <trkpt lat="39.635043000" lon="-8.686872000">
        <ele>354.000000</ele>
        <time>2020-10-17T16:06:13Z</time>
      </trkpt>
      <trkpt lat="39.635045000" lon="-8.686924000">
        <ele>354.200000</ele>
        <time>2020-10-17T16:06:14Z</time>
      </trkpt>
      <trkpt lat="39.635049000" lon="-8.686981000">
        <ele>354.200000</ele>
        <time>2020-10-17T16:06:15Z</time>
      </trkpt>
      <trkpt lat="39.635049000" lon="-8.687037000">
        <ele>354.200000</ele>
        <time>2020-10-17T16:06:16Z</time>
      </trkpt>
      <trkpt lat="39.635053000" lon="-8.687093000">
        <ele>354.400000</ele>
        <time>2020-10-17T16:06:17Z</time>
      </trkpt>
      <trkpt lat="39.635056000" lon="-8.687148000">
        <ele>354.400000</ele>
        <time>2020-10-17T16:06:18Z</time>
      </trkpt>
      <trkpt lat="39.635057000" lon="-8.687206000">
        <ele>354.600000</ele>
        <time>2020-10-17T16:06:19Z</time>
      </trkpt>
      <trkpt lat="39.635058000" lon="-8.687264000">
        <ele>354.600000</ele>
        <time>2020-10-17T16:06:20Z</time>
      </trkpt>
      <trkpt lat="39.635061000" lon="-8.687325000">
        <ele>354.800000</ele>
        <time>2020-10-17T16:06:21Z</time>
      </trkpt>
      <trkpt lat="39.635076000" lon="-8.687645000">
        <ele>354.800000</ele>
        <time>2020-10-17T16:06:26Z</time>
      </trkpt>
      <trkpt lat="39.635082000" lon="-8.687709000">
        <ele>355.000000</ele>
        <time>2020-10-17T16:06:27Z</time>
      </trkpt>
      <trkpt lat="39.635086000" lon="-8.687773000">
        <ele>355.000000</ele>
        <time>2020-10-17T16:06:28Z</time>
      </trkpt>
      <trkpt lat="39.635149000" lon="-8.688253000">
        <ele>355.000000</ele>
        <time>2020-10-17T16:06:35Z</time>
      </trkpt>
      <trkpt lat="39.635176000" lon="-8.688383000">
        <ele>355.000000</ele>
        <time>2020-10-17T16:06:37Z</time>
      </trkpt>
      <trkpt lat="39.635188000" lon="-8.688445000">
        <ele>355.000000</ele>
        <time>2020-10-17T16:06:38Z</time>
      </trkpt>
      <trkpt lat="39.635202000" lon="-8.688508000">
        <ele>355.000000</ele>
        <time>2020-10-17T16:06:39Z</time>
      </trkpt>
      <trkpt lat="39.635213000" lon="-8.688570000">
        <ele>355.000000</ele>
        <time>2020-10-17T16:06:40Z</time>
      </trkpt>
      <trkpt lat="39.635225000" lon="-8.688633000">
        <ele>355.000000</ele>
        <time>2020-10-17T16:06:41Z</time>
      </trkpt>
      <trkpt lat="39.635248000" lon="-8.688760000">
        <ele>355.200000</ele>
        <time>2020-10-17T16:06:43Z</time>
      </trkpt>
      <trkpt lat="39.635338000" lon="-8.689224000">
        <ele>355.200000</ele>
        <time>2020-10-17T16:06:50Z</time>
      </trkpt>
      <trkpt lat="39.635348000" lon="-8.689288000">
        <ele>355.200000</ele>
        <time>2020-10-17T16:06:51Z</time>
      </trkpt>
      <trkpt lat="39.635379000" lon="-8.689488000">
        <ele>355.200000</ele>
        <time>2020-10-17T16:06:54Z</time>
      </trkpt>
      <trkpt lat="39.635387000" lon="-8.689553000">
        <ele>355.200000</ele>
        <time>2020-10-17T16:06:55Z</time>
      </trkpt>
      <trkpt lat="39.635393000" lon="-8.689613000">
        <ele>355.200000</ele>
        <time>2020-10-17T16:06:56Z</time>
      </trkpt>
      <trkpt lat="39.635402000" lon="-8.689676000">
        <ele>355.400000</ele>
        <time>2020-10-17T16:06:57Z</time>
      </trkpt>
      <trkpt lat="39.635412000" lon="-8.689737000">
        <ele>355.400000</ele>
        <time>2020-10-17T16:06:58Z</time>
      </trkpt>
      <trkpt lat="39.635502000" lon="-8.690105000">
        <ele>355.400000</ele>
        <time>2020-10-17T16:07:03Z</time>
      </trkpt>
      <trkpt lat="39.635531000" lon="-8.690244000">
        <ele>355.600000</ele>
        <time>2020-10-17T16:07:05Z</time>
      </trkpt>
      <trkpt lat="39.635543000" lon="-8.690308000">
        <ele>355.800000</ele>
        <time>2020-10-17T16:07:06Z</time>
      </trkpt>
      <trkpt lat="39.635555000" lon="-8.690371000">
        <ele>355.600000</ele>
        <time>2020-10-17T16:07:07Z</time>
      </trkpt>
      <trkpt lat="39.635589000" lon="-8.690569000">
        <ele>355.800000</ele>
        <time>2020-10-17T16:07:10Z</time>
      </trkpt>
      <trkpt lat="39.635615000" lon="-8.690700000">
        <ele>355.800000</ele>
        <time>2020-10-17T16:07:12Z</time>
      </trkpt>
      <trkpt lat="39.635629000" lon="-8.690763000">
        <ele>356.000000</ele>
        <time>2020-10-17T16:07:13Z</time>
      </trkpt>
      <trkpt lat="39.635644000" lon="-8.690826000">
        <ele>356.000000</ele>
        <time>2020-10-17T16:07:14Z</time>
      </trkpt>
      <trkpt lat="39.635668000" lon="-8.690950000">
        <ele>356.000000</ele>
        <time>2020-10-17T16:07:16Z</time>
      </trkpt>
      <trkpt lat="39.635683000" lon="-8.691014000">
        <ele>356.000000</ele>
        <time>2020-10-17T16:07:17Z</time>
      </trkpt>
      <trkpt lat="39.635705000" lon="-8.691140000">
        <ele>356.000000</ele>
        <time>2020-10-17T16:07:19Z</time>
      </trkpt>
      <trkpt lat="39.635713000" lon="-8.691200000">
        <ele>356.000000</ele>
        <time>2020-10-17T16:07:20Z</time>
      </trkpt>
      <trkpt lat="39.635721000" lon="-8.691260000">
        <ele>356.200000</ele>
        <time>2020-10-17T16:07:21Z</time>
      </trkpt>
      <trkpt lat="39.635772000" lon="-8.691656000">
        <ele>356.200000</ele>
        <time>2020-10-17T16:07:27Z</time>
      </trkpt>
      <trkpt lat="39.635854000" lon="-8.692096000">
        <ele>356.200000</ele>
        <time>2020-10-17T16:07:33Z</time>
      </trkpt>
      <trkpt lat="39.635866000" lon="-8.692168000">
        <ele>356.200000</ele>
        <time>2020-10-17T16:07:34Z</time>
      </trkpt>
      <trkpt lat="39.635880000" lon="-8.692240000">
        <ele>356.400000</ele>
        <time>2020-10-17T16:07:35Z</time>
      </trkpt>
      <trkpt lat="39.635933000" lon="-8.692463000">
        <ele>356.200000</ele>
        <time>2020-10-17T16:07:38Z</time>
      </trkpt>
      <trkpt lat="39.635941000" lon="-8.692526000">
        <ele>356.200000</ele>
        <time>2020-10-17T16:07:39Z</time>
      </trkpt>
      <trkpt lat="39.635955000" lon="-8.692598000">
        <ele>356.200000</ele>
        <time>2020-10-17T16:07:40Z</time>
      </trkpt>
      <trkpt lat="39.635974000" lon="-8.692677000">
        <ele>356.200000</ele>
        <time>2020-10-17T16:07:41Z</time>
      </trkpt>
      <trkpt lat="39.636016000" lon="-8.692885000">
        <ele>356.200000</ele>
        <time>2020-10-17T16:07:44Z</time>
      </trkpt>
      <trkpt lat="39.636022000" lon="-8.692945000">
        <ele>356.200000</ele>
        <time>2020-10-17T16:07:45Z</time>
      </trkpt>
      <trkpt lat="39.636032000" lon="-8.693014000">
        <ele>356.400000</ele>
        <time>2020-10-17T16:07:46Z</time>
      </trkpt>
      <trkpt lat="39.636039000" lon="-8.693078000">
        <ele>356.200000</ele>
        <time>2020-10-17T16:07:47Z</time>
      </trkpt>
      <trkpt lat="39.636122000" lon="-8.693502000">
        <ele>356.400000</ele>
        <time>2020-10-17T16:07:53Z</time>
      </trkpt>
      <trkpt lat="39.636154000" lon="-8.693884000">
        <ele>356.600000</ele>
        <time>2020-10-17T16:07:58Z</time>
      </trkpt>
      <trkpt lat="39.636156000" lon="-8.694052000">
        <ele>356.600000</ele>
        <time>2020-10-17T16:08:00Z</time>
      </trkpt>
      <trkpt lat="39.636154000" lon="-8.694130000">
        <ele>356.600000</ele>
        <time>2020-10-17T16:08:01Z</time>
      </trkpt>
      <trkpt lat="39.636146000" lon="-8.694284000">
        <ele>356.600000</ele>
        <time>2020-10-17T16:08:03Z</time>
      </trkpt>
      <trkpt lat="39.636138000" lon="-8.694437000">
        <ele>356.600000</ele>
        <time>2020-10-17T16:08:05Z</time>
      </trkpt>
      <trkpt lat="39.636130000" lon="-8.694507000">
        <ele>356.600000</ele>
        <time>2020-10-17T16:08:06Z</time>
      </trkpt>
      <trkpt lat="39.636122000" lon="-8.694578000">
        <ele>356.400000</ele>
        <time>2020-10-17T16:08:07Z</time>
      </trkpt>
      <trkpt lat="39.636089000" lon="-8.694948000">
        <ele>356.200000</ele>
        <time>2020-10-17T16:08:12Z</time>
      </trkpt>
      <trkpt lat="39.636083000" lon="-8.695020000">
        <ele>356.400000</ele>
        <time>2020-10-17T16:08:13Z</time>
      </trkpt>
      <trkpt lat="39.636078000" lon="-8.695093000">
        <ele>356.200000</ele>
        <time>2020-10-17T16:08:14Z</time>
      </trkpt>
      <trkpt lat="39.636060000" lon="-8.695314000">
        <ele>356.200000</ele>
        <time>2020-10-17T16:08:17Z</time>
      </trkpt>
      <trkpt lat="39.636053000" lon="-8.695387000">
        <ele>356.200000</ele>
        <time>2020-10-17T16:08:18Z</time>
      </trkpt>
      <trkpt lat="39.636049000" lon="-8.695458000">
        <ele>356.200000</ele>
        <time>2020-10-17T16:08:19Z</time>
      </trkpt>
      <trkpt lat="39.636048000" lon="-8.695530000">
        <ele>356.200000</ele>
        <time>2020-10-17T16:08:20Z</time>
      </trkpt>
      <trkpt lat="39.636044000" lon="-8.695601000">
        <ele>356.200000</ele>
        <time>2020-10-17T16:08:21Z</time>
      </trkpt>
      <trkpt lat="39.636042000" lon="-8.695671000">
        <ele>356.200000</ele>
        <time>2020-10-17T16:08:22Z</time>
      </trkpt>
      <trkpt lat="39.636035000" lon="-8.695737000">
        <ele>356.200000</ele>
        <time>2020-10-17T16:08:23Z</time>
      </trkpt>
      <trkpt lat="39.636032000" lon="-8.695807000">
        <ele>356.200000</ele>
        <time>2020-10-17T16:08:24Z</time>
      </trkpt>
      <trkpt lat="39.636031000" lon="-8.695874000">
        <ele>356.200000</ele>
        <time>2020-10-17T16:08:25Z</time>
      </trkpt>
      <trkpt lat="39.636029000" lon="-8.695939000">
        <ele>356.200000</ele>
        <time>2020-10-17T16:08:26Z</time>
      </trkpt>
      <trkpt lat="39.636025000" lon="-8.696001000">
        <ele>356.400000</ele>
        <time>2020-10-17T16:08:27Z</time>
      </trkpt>
      <trkpt lat="39.636020000" lon="-8.696063000">
        <ele>356.400000</ele>
        <time>2020-10-17T16:08:28Z</time>
      </trkpt>
      <trkpt lat="39.636017000" lon="-8.696124000">
        <ele>356.600000</ele>
        <time>2020-10-17T16:08:29Z</time>
      </trkpt>
      <trkpt lat="39.636016000" lon="-8.696184000">
        <ele>356.800000</ele>
        <time>2020-10-17T16:08:30Z</time>
      </trkpt>
      <trkpt lat="39.636015000" lon="-8.696242000">
        <ele>356.600000</ele>
        <time>2020-10-17T16:08:31Z</time>
      </trkpt>
      <trkpt lat="39.636014000" lon="-8.696301000">
        <ele>356.800000</ele>
        <time>2020-10-17T16:08:32Z</time>
      </trkpt>
      <trkpt lat="39.636013000" lon="-8.696358000">
        <ele>357.000000</ele>
        <time>2020-10-17T16:08:33Z</time>
      </trkpt>
      <trkpt lat="39.636009000" lon="-8.696414000">
        <ele>357.200000</ele>
        <time>2020-10-17T16:08:34Z</time>
      </trkpt>
      <trkpt lat="39.636005000" lon="-8.696469000">
        <ele>357.000000</ele>
        <time>2020-10-17T16:08:35Z</time>
      </trkpt>
      <trkpt lat="39.636002000" lon="-8.696523000">
        <ele>357.400000</ele>
        <time>2020-10-17T16:08:36Z</time>
      </trkpt>
      <trkpt lat="39.636003000" lon="-8.696575000">
        <ele>357.600000</ele>
        <time>2020-10-17T16:08:37Z</time>
      </trkpt>
      <trkpt lat="39.636003000" lon="-8.696625000">
        <ele>357.600000</ele>
        <time>2020-10-17T16:08:38Z</time>
      </trkpt>
      <trkpt lat="39.636002000" lon="-8.696672000">
        <ele>357.800000</ele>
        <time>2020-10-17T16:08:39Z</time>
      </trkpt>
      <trkpt lat="39.636002000" lon="-8.696717000">
        <ele>358.000000</ele>
        <time>2020-10-17T16:08:40Z</time>
      </trkpt>
      <trkpt lat="39.636004000" lon="-8.696760000">
        <ele>358.000000</ele>
        <time>2020-10-17T16:08:41Z</time>
      </trkpt>
      <trkpt lat="39.636005000" lon="-8.696802000">
        <ele>358.400000</ele>
        <time>2020-10-17T16:08:42Z</time>
      </trkpt>
      <trkpt lat="39.636006000" lon="-8.696841000">
        <ele>358.400000</ele>
        <time>2020-10-17T16:08:43Z</time>
      </trkpt>
      <trkpt lat="39.636007000" lon="-8.696879000">
        <ele>358.400000</ele>
        <time>2020-10-17T16:08:44Z</time>
      </trkpt>
      <trkpt lat="39.636010000" lon="-8.696919000">
        <ele>358.600000</ele>
        <time>2020-10-17T16:08:45Z</time>
      </trkpt>
      <trkpt lat="39.636011000" lon="-8.696958000">
        <ele>358.800000</ele>
        <time>2020-10-17T16:08:46Z</time>
      </trkpt>
      <trkpt lat="39.636012000" lon="-8.696999000">
        <ele>359.200000</ele>
        <time>2020-10-17T16:08:47Z</time>
      </trkpt>
      <trkpt lat="39.636013000" lon="-8.697038000">
        <ele>359.400000</ele>
        <time>2020-10-17T16:08:48Z</time>
      </trkpt>
      <trkpt lat="39.636013000" lon="-8.697077000">
        <ele>359.600000</ele>
        <time>2020-10-17T16:08:49Z</time>
      </trkpt>
      <trkpt lat="39.636014000" lon="-8.697116000">
        <ele>359.800000</ele>
        <time>2020-10-17T16:08:50Z</time>
      </trkpt>
      <trkpt lat="39.636017000" lon="-8.697156000">
        <ele>360.000000</ele>
        <time>2020-10-17T16:08:51Z</time>
      </trkpt>
      <trkpt lat="39.636019000" lon="-8.697196000">
        <ele>360.200000</ele>
        <time>2020-10-17T16:08:52Z</time>
      </trkpt>
      <trkpt lat="39.636022000" lon="-8.697236000">
        <ele>360.600000</ele>
        <time>2020-10-17T16:08:53Z</time>
      </trkpt>
      <trkpt lat="39.636026000" lon="-8.697275000">
        <ele>360.600000</ele>
        <time>2020-10-17T16:08:54Z</time>
      </trkpt>
      <trkpt lat="39.636030000" lon="-8.697314000">
        <ele>360.800000</ele>
        <time>2020-10-17T16:08:55Z</time>
      </trkpt>
      <trkpt lat="39.636034000" lon="-8.697356000">
        <ele>361.200000</ele>
        <time>2020-10-17T16:08:56Z</time>
      </trkpt>
      <trkpt lat="39.636038000" lon="-8.697397000">
        <ele>361.400000</ele>
        <time>2020-10-17T16:08:57Z</time>
      </trkpt>
      <trkpt lat="39.636042000" lon="-8.697439000">
        <ele>361.800000</ele>
        <time>2020-10-17T16:08:58Z</time>
      </trkpt>
      <trkpt lat="39.636048000" lon="-8.697479000">
        <ele>362.000000</ele>
        <time>2020-10-17T16:08:59Z</time>
      </trkpt>
      <trkpt lat="39.636053000" lon="-8.697520000">
        <ele>362.200000</ele>
        <time>2020-10-17T16:09:00Z</time>
      </trkpt>
      <trkpt lat="39.636058000" lon="-8.697561000">
        <ele>362.200000</ele>
        <time>2020-10-17T16:09:01Z</time>
      </trkpt>
      <trkpt lat="39.636067000" lon="-8.697603000">
        <ele>362.400000</ele>
        <time>2020-10-17T16:09:02Z</time>
      </trkpt>
      <trkpt lat="39.636075000" lon="-8.697642000">
        <ele>362.800000</ele>
        <time>2020-10-17T16:09:03Z</time>
      </trkpt>
      <trkpt lat="39.636081000" lon="-8.697681000">
        <ele>363.000000</ele>
        <time>2020-10-17T16:09:04Z</time>
      </trkpt>
      <trkpt lat="39.636086000" lon="-8.697722000">
        <ele>363.000000</ele>
        <time>2020-10-17T16:09:05Z</time>
      </trkpt>
      <trkpt lat="39.636091000" lon="-8.697761000">
        <ele>363.400000</ele>
        <time>2020-10-17T16:09:06Z</time>
      </trkpt>
      <trkpt lat="39.636093000" lon="-8.697803000">
        <ele>363.400000</ele>
        <time>2020-10-17T16:09:07Z</time>
      </trkpt>
      <trkpt lat="39.636098000" lon="-8.697846000">
        <ele>363.600000</ele>
        <time>2020-10-17T16:09:08Z</time>
      </trkpt>
      <trkpt lat="39.636103000" lon="-8.697888000">
        <ele>363.800000</ele>
        <time>2020-10-17T16:09:09Z</time>
      </trkpt>
      <trkpt lat="39.636109000" lon="-8.697930000">
        <ele>364.200000</ele>
        <time>2020-10-17T16:09:10Z</time>
      </trkpt>
      <trkpt lat="39.636114000" lon="-8.697972000">
        <ele>364.400000</ele>
        <time>2020-10-17T16:09:11Z</time>
      </trkpt>
      <trkpt lat="39.636121000" lon="-8.698012000">
        <ele>364.400000</ele>
        <time>2020-10-17T16:09:12Z</time>
      </trkpt>
      <trkpt lat="39.636128000" lon="-8.698053000">
        <ele>364.800000</ele>
        <time>2020-10-17T16:09:13Z</time>
      </trkpt>
      <trkpt lat="39.636137000" lon="-8.698097000">
        <ele>364.800000</ele>
        <time>2020-10-17T16:09:14Z</time>
      </trkpt>
      <trkpt lat="39.636146000" lon="-8.698140000">
        <ele>365.000000</ele>
        <time>2020-10-17T16:09:15Z</time>
      </trkpt>
      <trkpt lat="39.636156000" lon="-8.698185000">
        <ele>365.000000</ele>
        <time>2020-10-17T16:09:16Z</time>
      </trkpt>
      <trkpt lat="39.636165000" lon="-8.698227000">
        <ele>365.200000</ele>
        <time>2020-10-17T16:09:17Z</time>
      </trkpt>
      <trkpt lat="39.636174000" lon="-8.698271000">
        <ele>365.200000</ele>
        <time>2020-10-17T16:09:18Z</time>
      </trkpt>
      <trkpt lat="39.636182000" lon="-8.698316000">
        <ele>365.600000</ele>
        <time>2020-10-17T16:09:19Z</time>
      </trkpt>
      <trkpt lat="39.636190000" lon="-8.698359000">
        <ele>365.600000</ele>
        <time>2020-10-17T16:09:20Z</time>
      </trkpt>
      <trkpt lat="39.636196000" lon="-8.698400000">
        <ele>365.800000</ele>
        <time>2020-10-17T16:09:21Z</time>
      </trkpt>
      <trkpt lat="39.636204000" lon="-8.698444000">
        <ele>366.000000</ele>
        <time>2020-10-17T16:09:22Z</time>
      </trkpt>
      <trkpt lat="39.636213000" lon="-8.698491000">
        <ele>366.400000</ele>
        <time>2020-10-17T16:09:23Z</time>
      </trkpt>
      <trkpt lat="39.636223000" lon="-8.698537000">
        <ele>366.400000</ele>
        <time>2020-10-17T16:09:24Z</time>
      </trkpt>
      <trkpt lat="39.636231000" lon="-8.698580000">
        <ele>366.800000</ele>
        <time>2020-10-17T16:09:25Z</time>
      </trkpt>
      <trkpt lat="39.636240000" lon="-8.698625000">
        <ele>366.800000</ele>
        <time>2020-10-17T16:09:26Z</time>
      </trkpt>
      <trkpt lat="39.636248000" lon="-8.698675000">
        <ele>366.800000</ele>
        <time>2020-10-17T16:09:27Z</time>
      </trkpt>
      <trkpt lat="39.636255000" lon="-8.698726000">
        <ele>366.800000</ele>
        <time>2020-10-17T16:09:28Z</time>
      </trkpt>
      <trkpt lat="39.636263000" lon="-8.698783000">
        <ele>367.200000</ele>
        <time>2020-10-17T16:09:29Z</time>
      </trkpt>
      <trkpt lat="39.636269000" lon="-8.698840000">
        <ele>367.400000</ele>
        <time>2020-10-17T16:09:30Z</time>
      </trkpt>
      <trkpt lat="39.636277000" lon="-8.698897000">
        <ele>367.400000</ele>
        <time>2020-10-17T16:09:31Z</time>
      </trkpt>
      <trkpt lat="39.636286000" lon="-8.698952000">
        <ele>367.600000</ele>
        <time>2020-10-17T16:09:32Z</time>
      </trkpt>
      <trkpt lat="39.636296000" lon="-8.699009000">
        <ele>367.600000</ele>
        <time>2020-10-17T16:09:33Z</time>
      </trkpt>
      <trkpt lat="39.636306000" lon="-8.699067000">
        <ele>367.600000</ele>
        <time>2020-10-17T16:09:34Z</time>
      </trkpt>
      <trkpt lat="39.636315000" lon="-8.699124000">
        <ele>367.800000</ele>
        <time>2020-10-17T16:09:35Z</time>
      </trkpt>
      <trkpt lat="39.636328000" lon="-8.699187000">
        <ele>368.000000</ele>
        <time>2020-10-17T16:09:36Z</time>
      </trkpt>
      <trkpt lat="39.636341000" lon="-8.699250000">
        <ele>368.000000</ele>
        <time>2020-10-17T16:09:37Z</time>
      </trkpt>
      <trkpt lat="39.636354000" lon="-8.699313000">
        <ele>368.200000</ele>
        <time>2020-10-17T16:09:38Z</time>
      </trkpt>
      <trkpt lat="39.636367000" lon="-8.699376000">
        <ele>368.200000</ele>
        <time>2020-10-17T16:09:39Z</time>
      </trkpt>
      <trkpt lat="39.636381000" lon="-8.699440000">
        <ele>368.200000</ele>
        <time>2020-10-17T16:09:40Z</time>
      </trkpt>
      <trkpt lat="39.636395000" lon="-8.699503000">
        <ele>368.400000</ele>
        <time>2020-10-17T16:09:41Z</time>
      </trkpt>
      <trkpt lat="39.636440000" lon="-8.699707000">
        <ele>368.600000</ele>
        <time>2020-10-17T16:09:44Z</time>
      </trkpt>
      <trkpt lat="39.636506000" lon="-8.699986000">
        <ele>368.400000</ele>
        <time>2020-10-17T16:09:48Z</time>
      </trkpt>
      <trkpt lat="39.636595000" lon="-8.700276000">
        <ele>368.600000</ele>
        <time>2020-10-17T16:09:52Z</time>
      </trkpt>
      <trkpt lat="39.636677000" lon="-8.700497000">
        <ele>368.600000</ele>
        <time>2020-10-17T16:09:55Z</time>
      </trkpt>
      <trkpt lat="39.636737000" lon="-8.700649000">
        <ele>368.200000</ele>
        <time>2020-10-17T16:09:57Z</time>
      </trkpt>
      <trkpt lat="39.636801000" lon="-8.700799000">
        <ele>368.200000</ele>
        <time>2020-10-17T16:09:59Z</time>
      </trkpt>
      <trkpt lat="39.636900000" lon="-8.701022000">
        <ele>367.800000</ele>
        <time>2020-10-17T16:10:02Z</time>
      </trkpt>
      <trkpt lat="39.636967000" lon="-8.701170000">
        <ele>367.400000</ele>
        <time>2020-10-17T16:10:04Z</time>
      </trkpt>
      <trkpt lat="39.637176000" lon="-8.701629000">
        <ele>366.400000</ele>
        <time>2020-10-17T16:10:10Z</time>
      </trkpt>
      <trkpt lat="39.637209000" lon="-8.701700000">
        <ele>366.200000</ele>
        <time>2020-10-17T16:10:11Z</time>
      </trkpt>
      <trkpt lat="39.637241000" lon="-8.701768000">
        <ele>366.000000</ele>
        <time>2020-10-17T16:10:12Z</time>
      </trkpt>
      <trkpt lat="39.637277000" lon="-8.701838000">
        <ele>366.000000</ele>
        <time>2020-10-17T16:10:13Z</time>
      </trkpt>
      <trkpt lat="39.637456000" lon="-8.702208000">
        <ele>365.200000</ele>
        <time>2020-10-17T16:10:18Z</time>
      </trkpt>
      <trkpt lat="39.637489000" lon="-8.702279000">
        <ele>365.200000</ele>
        <time>2020-10-17T16:10:19Z</time>
      </trkpt>
      <trkpt lat="39.637521000" lon="-8.702350000">
        <ele>365.200000</ele>
        <time>2020-10-17T16:10:20Z</time>
      </trkpt>
      <trkpt lat="39.637587000" lon="-8.702489000">
        <ele>365.200000</ele>
        <time>2020-10-17T16:10:22Z</time>
      </trkpt>
      <trkpt lat="39.637615000" lon="-8.702555000">
        <ele>365.000000</ele>
        <time>2020-10-17T16:10:23Z</time>
      </trkpt>
      <trkpt lat="39.637639000" lon="-8.702617000">
        <ele>365.000000</ele>
        <time>2020-10-17T16:10:24Z</time>
      </trkpt>
      <trkpt lat="39.637660000" lon="-8.702681000">
        <ele>365.200000</ele>
        <time>2020-10-17T16:10:25Z</time>
      </trkpt>
      <trkpt lat="39.637755000" lon="-8.702951000">
        <ele>365.000000</ele>
        <time>2020-10-17T16:10:29Z</time>
      </trkpt>
      <trkpt lat="39.637860000" lon="-8.703160000">
        <ele>365.000000</ele>
        <time>2020-10-17T16:10:32Z</time>
      </trkpt>
      <trkpt lat="39.637954000" lon="-8.703366000">
        <ele>365.200000</ele>
        <time>2020-10-17T16:10:35Z</time>
      </trkpt>
      <trkpt lat="39.637985000" lon="-8.703432000">
        <ele>365.000000</ele>
        <time>2020-10-17T16:10:36Z</time>
      </trkpt>
      <trkpt lat="39.638131000" lon="-8.703714000">
        <ele>365.200000</ele>
        <time>2020-10-17T16:10:40Z</time>
      </trkpt>
      <trkpt lat="39.638155000" lon="-8.703776000">
        <ele>365.400000</ele>
        <time>2020-10-17T16:10:41Z</time>
      </trkpt>
      <trkpt lat="39.638330000" lon="-8.704159000">
        <ele>365.800000</ele>
        <time>2020-10-17T16:10:46Z</time>
      </trkpt>
      <trkpt lat="39.638400000" lon="-8.704311000">
        <ele>365.800000</ele>
        <time>2020-10-17T16:10:48Z</time>
      </trkpt>
      <trkpt lat="39.638460000" lon="-8.704474000">
        <ele>366.000000</ele>
        <time>2020-10-17T16:10:50Z</time>
      </trkpt>
      <trkpt lat="39.638483000" lon="-8.704547000">
        <ele>366.000000</ele>
        <time>2020-10-17T16:10:51Z</time>
      </trkpt>
      <trkpt lat="39.638507000" lon="-8.704618000">
        <ele>366.000000</ele>
        <time>2020-10-17T16:10:52Z</time>
      </trkpt>
      <trkpt lat="39.638522000" lon="-8.704685000">
        <ele>366.000000</ele>
        <time>2020-10-17T16:10:53Z</time>
      </trkpt>
      <trkpt lat="39.638536000" lon="-8.704754000">
        <ele>366.000000</ele>
        <time>2020-10-17T16:10:54Z</time>
      </trkpt>
      <trkpt lat="39.638551000" lon="-8.704828000">
        <ele>366.000000</ele>
        <time>2020-10-17T16:10:55Z</time>
      </trkpt>
      <trkpt lat="39.638595000" lon="-8.705067000">
        <ele>366.400000</ele>
        <time>2020-10-17T16:10:58Z</time>
      </trkpt>
      <trkpt lat="39.638636000" lon="-8.705421000">
        <ele>366.400000</ele>
        <time>2020-10-17T16:11:02Z</time>
      </trkpt>
      <trkpt lat="39.638640000" lon="-8.705499000">
        <ele>366.600000</ele>
        <time>2020-10-17T16:11:03Z</time>
      </trkpt>
      <trkpt lat="39.638651000" lon="-8.705580000">
        <ele>366.600000</ele>
        <time>2020-10-17T16:11:04Z</time>
      </trkpt>
      <trkpt lat="39.638660000" lon="-8.705662000">
        <ele>366.600000</ele>
        <time>2020-10-17T16:11:05Z</time>
      </trkpt>
      <trkpt lat="39.638662000" lon="-8.705734000">
        <ele>366.600000</ele>
        <time>2020-10-17T16:11:06Z</time>
      </trkpt>
      <trkpt lat="39.638665000" lon="-8.705801000">
        <ele>366.600000</ele>
        <time>2020-10-17T16:11:07Z</time>
      </trkpt>
      <trkpt lat="39.638672000" lon="-8.705870000">
        <ele>366.800000</ele>
        <time>2020-10-17T16:11:08Z</time>
      </trkpt>
      <trkpt lat="39.638675000" lon="-8.705941000">
        <ele>366.800000</ele>
        <time>2020-10-17T16:11:09Z</time>
      </trkpt>
      <trkpt lat="39.638687000" lon="-8.706077000">
        <ele>367.000000</ele>
        <time>2020-10-17T16:11:11Z</time>
      </trkpt>
      <trkpt lat="39.638697000" lon="-8.706152000">
        <ele>367.200000</ele>
        <time>2020-10-17T16:11:12Z</time>
      </trkpt>
      <trkpt lat="39.638705000" lon="-8.706227000">
        <ele>367.200000</ele>
        <time>2020-10-17T16:11:13Z</time>
      </trkpt>
      <trkpt lat="39.638713000" lon="-8.706298000">
        <ele>367.600000</ele>
        <time>2020-10-17T16:11:14Z</time>
      </trkpt>
      <trkpt lat="39.638720000" lon="-8.706370000">
        <ele>367.600000</ele>
        <time>2020-10-17T16:11:15Z</time>
      </trkpt>
      <trkpt lat="39.638726000" lon="-8.706439000">
        <ele>367.800000</ele>
        <time>2020-10-17T16:11:16Z</time>
      </trkpt>
      <trkpt lat="39.638732000" lon="-8.706506000">
        <ele>368.200000</ele>
        <time>2020-10-17T16:11:17Z</time>
      </trkpt>
      <trkpt lat="39.638736000" lon="-8.706572000">
        <ele>368.400000</ele>
        <time>2020-10-17T16:11:18Z</time>
      </trkpt>
      <trkpt lat="39.638743000" lon="-8.706640000">
        <ele>368.600000</ele>
        <time>2020-10-17T16:11:19Z</time>
      </trkpt>
      <trkpt lat="39.638748000" lon="-8.706709000">
        <ele>368.800000</ele>
        <time>2020-10-17T16:11:20Z</time>
      </trkpt>
      <trkpt lat="39.638754000" lon="-8.706774000">
        <ele>368.800000</ele>
        <time>2020-10-17T16:11:21Z</time>
      </trkpt>
      <trkpt lat="39.638758000" lon="-8.706834000">
        <ele>369.000000</ele>
        <time>2020-10-17T16:11:22Z</time>
      </trkpt>
      <trkpt lat="39.638765000" lon="-8.706899000">
        <ele>369.200000</ele>
        <time>2020-10-17T16:11:23Z</time>
      </trkpt>
      <trkpt lat="39.638770000" lon="-8.706961000">
        <ele>369.600000</ele>
        <time>2020-10-17T16:11:24Z</time>
      </trkpt>
      <trkpt lat="39.638774000" lon="-8.707025000">
        <ele>369.800000</ele>
        <time>2020-10-17T16:11:25Z</time>
      </trkpt>
      <trkpt lat="39.638778000" lon="-8.707089000">
        <ele>369.800000</ele>
        <time>2020-10-17T16:11:26Z</time>
      </trkpt>
      <trkpt lat="39.638780000" lon="-8.707150000">
        <ele>370.200000</ele>
        <time>2020-10-17T16:11:27Z</time>
      </trkpt>
      <trkpt lat="39.638785000" lon="-8.707210000">
        <ele>370.400000</ele>
        <time>2020-10-17T16:11:28Z</time>
      </trkpt>
      <trkpt lat="39.638792000" lon="-8.707271000">
        <ele>370.600000</ele>
        <time>2020-10-17T16:11:29Z</time>
      </trkpt>
      <trkpt lat="39.638798000" lon="-8.707333000">
        <ele>371.000000</ele>
        <time>2020-10-17T16:11:30Z</time>
      </trkpt>
      <trkpt lat="39.638801000" lon="-8.707396000">
        <ele>371.200000</ele>
        <time>2020-10-17T16:11:31Z</time>
      </trkpt>
      <trkpt lat="39.638805000" lon="-8.707461000">
        <ele>371.200000</ele>
        <time>2020-10-17T16:11:32Z</time>
      </trkpt>
      <trkpt lat="39.638802000" lon="-8.707530000">
        <ele>371.400000</ele>
        <time>2020-10-17T16:11:33Z</time>
      </trkpt>
      <trkpt lat="39.638803000" lon="-8.707602000">
        <ele>371.600000</ele>
        <time>2020-10-17T16:11:34Z</time>
      </trkpt>
      <trkpt lat="39.638803000" lon="-8.707673000">
        <ele>371.600000</ele>
        <time>2020-10-17T16:11:35Z</time>
      </trkpt>
      <trkpt lat="39.638801000" lon="-8.707747000">
        <ele>371.600000</ele>
        <time>2020-10-17T16:11:36Z</time>
      </trkpt>
      <trkpt lat="39.638798000" lon="-8.707814000">
        <ele>371.600000</ele>
        <time>2020-10-17T16:11:37Z</time>
      </trkpt>
      <trkpt lat="39.638792000" lon="-8.707879000">
        <ele>371.800000</ele>
        <time>2020-10-17T16:11:38Z</time>
      </trkpt>
      <trkpt lat="39.638786000" lon="-8.707939000">
        <ele>371.800000</ele>
        <time>2020-10-17T16:11:39Z</time>
      </trkpt>
      <trkpt lat="39.638784000" lon="-8.708003000">
        <ele>371.800000</ele>
        <time>2020-10-17T16:11:40Z</time>
      </trkpt>
      <trkpt lat="39.638785000" lon="-8.708077000">
        <ele>371.800000</ele>
        <time>2020-10-17T16:11:41Z</time>
      </trkpt>
      <trkpt lat="39.638789000" lon="-8.708307000">
        <ele>371.800000</ele>
        <time>2020-10-17T16:11:44Z</time>
      </trkpt>
      <trkpt lat="39.638791000" lon="-8.708454000">
        <ele>371.800000</ele>
        <time>2020-10-17T16:11:46Z</time>
      </trkpt>
      <trkpt lat="39.638789000" lon="-8.708519000">
        <ele>371.800000</ele>
        <time>2020-10-17T16:11:47Z</time>
      </trkpt>
      <trkpt lat="39.638790000" lon="-8.708588000">
        <ele>371.800000</ele>
        <time>2020-10-17T16:11:48Z</time>
      </trkpt>
      <trkpt lat="39.638793000" lon="-8.708655000">
        <ele>372.000000</ele>
        <time>2020-10-17T16:11:49Z</time>
      </trkpt>
      <trkpt lat="39.638798000" lon="-8.708721000">
        <ele>372.000000</ele>
        <time>2020-10-17T16:11:50Z</time>
      </trkpt>
      <trkpt lat="39.638799000" lon="-8.708778000">
        <ele>372.000000</ele>
        <time>2020-10-17T16:11:51Z</time>
      </trkpt>
      <trkpt lat="39.638802000" lon="-8.708838000">
        <ele>371.800000</ele>
        <time>2020-10-17T16:11:52Z</time>
      </trkpt>
      <trkpt lat="39.638814000" lon="-8.709035000">
        <ele>372.000000</ele>
        <time>2020-10-17T16:11:55Z</time>
      </trkpt>
      <trkpt lat="39.638816000" lon="-8.709100000">
        <ele>372.000000</ele>
        <time>2020-10-17T16:11:56Z</time>
      </trkpt>
      <trkpt lat="39.638819000" lon="-8.709160000">
        <ele>372.000000</ele>
        <time>2020-10-17T16:11:57Z</time>
      </trkpt>
      <trkpt lat="39.638823000" lon="-8.709218000">
        <ele>372.000000</ele>
        <time>2020-10-17T16:11:58Z</time>
      </trkpt>
      <trkpt lat="39.638832000" lon="-8.709339000">
        <ele>372.400000</ele>
        <time>2020-10-17T16:12:00Z</time>
      </trkpt>
      <trkpt lat="39.638837000" lon="-8.709401000">
        <ele>372.600000</ele>
        <time>2020-10-17T16:12:01Z</time>
      </trkpt>
      <trkpt lat="39.638839000" lon="-8.709470000">
        <ele>372.600000</ele>
        <time>2020-10-17T16:12:02Z</time>
      </trkpt>
      <trkpt lat="39.638842000" lon="-8.709540000">
        <ele>373.000000</ele>
        <time>2020-10-17T16:12:03Z</time>
      </trkpt>
      <trkpt lat="39.638847000" lon="-8.709604000">
        <ele>373.400000</ele>
        <time>2020-10-17T16:12:04Z</time>
      </trkpt>
      <trkpt lat="39.638849000" lon="-8.709665000">
        <ele>373.600000</ele>
        <time>2020-10-17T16:12:05Z</time>
      </trkpt>
      <trkpt lat="39.638851000" lon="-8.709727000">
        <ele>373.600000</ele>
        <time>2020-10-17T16:12:06Z</time>
      </trkpt>
      <trkpt lat="39.638852000" lon="-8.709789000">
        <ele>374.200000</ele>
        <time>2020-10-17T16:12:07Z</time>
      </trkpt>
      <trkpt lat="39.638851000" lon="-8.709851000">
        <ele>374.200000</ele>
        <time>2020-10-17T16:12:08Z</time>
      </trkpt>
      <trkpt lat="39.638848000" lon="-8.709912000">
        <ele>374.400000</ele>
        <time>2020-10-17T16:12:09Z</time>
      </trkpt>
      <trkpt lat="39.638846000" lon="-8.709971000">
        <ele>374.800000</ele>
        <time>2020-10-17T16:12:10Z</time>
      </trkpt>
      <trkpt lat="39.638846000" lon="-8.710029000">
        <ele>375.000000</ele>
        <time>2020-10-17T16:12:11Z</time>
      </trkpt>
      <trkpt lat="39.638845000" lon="-8.710086000">
        <ele>375.200000</ele>
        <time>2020-10-17T16:12:12Z</time>
      </trkpt>
      <trkpt lat="39.638846000" lon="-8.710148000">
        <ele>375.600000</ele>
        <time>2020-10-17T16:12:13Z</time>
      </trkpt>
      <trkpt lat="39.638853000" lon="-8.710220000">
        <ele>375.800000</ele>
        <time>2020-10-17T16:12:14Z</time>
      </trkpt>
      <trkpt lat="39.638858000" lon="-8.710292000">
        <ele>376.000000</ele>
        <time>2020-10-17T16:12:15Z</time>
      </trkpt>
      <trkpt lat="39.638867000" lon="-8.710364000">
        <ele>376.000000</ele>
        <time>2020-10-17T16:12:16Z</time>
      </trkpt>
      <trkpt lat="39.638871000" lon="-8.710434000">
        <ele>376.000000</ele>
        <time>2020-10-17T16:12:17Z</time>
      </trkpt>
      <trkpt lat="39.638877000" lon="-8.710506000">
        <ele>376.200000</ele>
        <time>2020-10-17T16:12:18Z</time>
      </trkpt>
      <trkpt lat="39.638880000" lon="-8.710576000">
        <ele>376.200000</ele>
        <time>2020-10-17T16:12:19Z</time>
      </trkpt>
      <trkpt lat="39.638883000" lon="-8.710647000">
        <ele>376.200000</ele>
        <time>2020-10-17T16:12:20Z</time>
      </trkpt>
      <trkpt lat="39.638891000" lon="-8.710719000">
        <ele>376.200000</ele>
        <time>2020-10-17T16:12:21Z</time>
      </trkpt>
      <trkpt lat="39.638895000" lon="-8.710792000">
        <ele>376.200000</ele>
        <time>2020-10-17T16:12:22Z</time>
      </trkpt>
      <trkpt lat="39.638899000" lon="-8.710865000">
        <ele>376.400000</ele>
        <time>2020-10-17T16:12:23Z</time>
      </trkpt>
      <trkpt lat="39.638902000" lon="-8.710938000">
        <ele>376.600000</ele>
        <time>2020-10-17T16:12:24Z</time>
      </trkpt>
      <trkpt lat="39.638905000" lon="-8.711007000">
        <ele>376.600000</ele>
        <time>2020-10-17T16:12:25Z</time>
      </trkpt>
      <trkpt lat="39.638916000" lon="-8.711364000">
        <ele>376.600000</ele>
        <time>2020-10-17T16:12:30Z</time>
      </trkpt>
      <trkpt lat="39.638917000" lon="-8.711431000">
        <ele>376.600000</ele>
        <time>2020-10-17T16:12:31Z</time>
      </trkpt>
      <trkpt lat="39.638917000" lon="-8.711497000">
        <ele>376.800000</ele>
        <time>2020-10-17T16:12:32Z</time>
      </trkpt>
      <trkpt lat="39.638921000" lon="-8.711634000">
        <ele>376.600000</ele>
        <time>2020-10-17T16:12:34Z</time>
      </trkpt>
      <trkpt lat="39.638928000" lon="-8.711767000">
        <ele>376.800000</ele>
        <time>2020-10-17T16:12:36Z</time>
      </trkpt>
      <trkpt lat="39.638932000" lon="-8.711829000">
        <ele>376.800000</ele>
        <time>2020-10-17T16:12:37Z</time>
      </trkpt>
      <trkpt lat="39.638937000" lon="-8.711891000">
        <ele>376.800000</ele>
        <time>2020-10-17T16:12:38Z</time>
      </trkpt>
      <trkpt lat="39.638942000" lon="-8.711950000">
        <ele>376.800000</ele>
        <time>2020-10-17T16:12:39Z</time>
      </trkpt>
      <trkpt lat="39.638950000" lon="-8.712010000">
        <ele>376.800000</ele>
        <time>2020-10-17T16:12:40Z</time>
      </trkpt>
      <trkpt lat="39.638961000" lon="-8.712070000">
        <ele>377.000000</ele>
        <time>2020-10-17T16:12:41Z</time>
      </trkpt>
      <trkpt lat="39.638962000" lon="-8.712133000">
        <ele>377.000000</ele>
        <time>2020-10-17T16:12:42Z</time>
      </trkpt>
      <trkpt lat="39.638963000" lon="-8.712195000">
        <ele>377.200000</ele>
        <time>2020-10-17T16:12:43Z</time>
      </trkpt>
      <trkpt lat="39.638962000" lon="-8.712254000">
        <ele>377.200000</ele>
        <time>2020-10-17T16:12:44Z</time>
      </trkpt>
      <trkpt lat="39.638961000" lon="-8.712311000">
        <ele>377.400000</ele>
        <time>2020-10-17T16:12:45Z</time>
      </trkpt>
      <trkpt lat="39.638951000" lon="-8.712422000">
        <ele>377.600000</ele>
        <time>2020-10-17T16:12:47Z</time>
      </trkpt>
      <trkpt lat="39.638948000" lon="-8.712470000">
        <ele>377.800000</ele>
        <time>2020-10-17T16:12:48Z</time>
      </trkpt>
      <trkpt lat="39.638950000" lon="-8.712528000">
        <ele>377.800000</ele>
        <time>2020-10-17T16:12:49Z</time>
      </trkpt>
      <trkpt lat="39.638950000" lon="-8.712578000">
        <ele>378.200000</ele>
        <time>2020-10-17T16:12:50Z</time>
      </trkpt>
      <trkpt lat="39.638953000" lon="-8.712637000">
        <ele>378.200000</ele>
        <time>2020-10-17T16:12:51Z</time>
      </trkpt>
      <trkpt lat="39.638954000" lon="-8.712697000">
        <ele>378.800000</ele>
        <time>2020-10-17T16:12:52Z</time>
      </trkpt>
      <trkpt lat="39.638955000" lon="-8.712753000">
        <ele>379.000000</ele>
        <time>2020-10-17T16:12:53Z</time>
      </trkpt>
      <trkpt lat="39.638954000" lon="-8.712812000">
        <ele>379.000000</ele>
        <time>2020-10-17T16:12:54Z</time>
      </trkpt>
      <trkpt lat="39.638953000" lon="-8.712872000">
        <ele>379.400000</ele>
        <time>2020-10-17T16:12:55Z</time>
      </trkpt>
      <trkpt lat="39.638946000" lon="-8.712938000">
        <ele>379.400000</ele>
        <time>2020-10-17T16:12:56Z</time>
      </trkpt>
      <trkpt lat="39.638937000" lon="-8.713003000">
        <ele>379.600000</ele>
        <time>2020-10-17T16:12:57Z</time>
      </trkpt>
      <trkpt lat="39.638930000" lon="-8.713069000">
        <ele>379.800000</ele>
        <time>2020-10-17T16:12:58Z</time>
      </trkpt>
      <trkpt lat="39.638923000" lon="-8.713133000">
        <ele>380.200000</ele>
        <time>2020-10-17T16:12:59Z</time>
      </trkpt>
      <trkpt lat="39.638914000" lon="-8.713200000">
        <ele>380.200000</ele>
        <time>2020-10-17T16:13:00Z</time>
      </trkpt>
      <trkpt lat="39.638905000" lon="-8.713274000">
        <ele>380.600000</ele>
        <time>2020-10-17T16:13:01Z</time>
      </trkpt>
      <trkpt lat="39.638897000" lon="-8.713346000">
        <ele>380.800000</ele>
        <time>2020-10-17T16:13:02Z</time>
      </trkpt>
      <trkpt lat="39.638888000" lon="-8.713419000">
        <ele>381.000000</ele>
        <time>2020-10-17T16:13:03Z</time>
      </trkpt>
      <trkpt lat="39.638876000" lon="-8.713492000">
        <ele>381.200000</ele>
        <time>2020-10-17T16:13:04Z</time>
      </trkpt>
      <trkpt lat="39.638866000" lon="-8.713564000">
        <ele>381.400000</ele>
        <time>2020-10-17T16:13:05Z</time>
      </trkpt>
      <trkpt lat="39.638856000" lon="-8.713637000">
        <ele>381.600000</ele>
        <time>2020-10-17T16:13:06Z</time>
      </trkpt>
      <trkpt lat="39.638842000" lon="-8.713713000">
        <ele>382.000000</ele>
        <time>2020-10-17T16:13:07Z</time>
      </trkpt>
      <trkpt lat="39.638828000" lon="-8.713789000">
        <ele>382.200000</ele>
        <time>2020-10-17T16:13:08Z</time>
      </trkpt>
      <trkpt lat="39.638816000" lon="-8.713862000">
        <ele>382.200000</ele>
        <time>2020-10-17T16:13:09Z</time>
      </trkpt>
      <trkpt lat="39.638806000" lon="-8.713935000">
        <ele>382.400000</ele>
        <time>2020-10-17T16:13:10Z</time>
      </trkpt>
      <trkpt lat="39.638794000" lon="-8.714006000">
        <ele>382.600000</ele>
        <time>2020-10-17T16:13:11Z</time>
      </trkpt>
      <trkpt lat="39.638785000" lon="-8.714076000">
        <ele>382.400000</ele>
        <time>2020-10-17T16:13:12Z</time>
      </trkpt>
      <trkpt lat="39.638777000" lon="-8.714146000">
        <ele>382.600000</ele>
        <time>2020-10-17T16:13:13Z</time>
      </trkpt>
      <trkpt lat="39.638768000" lon="-8.714214000">
        <ele>382.600000</ele>
        <time>2020-10-17T16:13:14Z</time>
      </trkpt>
      <trkpt lat="39.638760000" lon="-8.714283000">
        <ele>382.800000</ele>
        <time>2020-10-17T16:13:15Z</time>
      </trkpt>
      <trkpt lat="39.638752000" lon="-8.714353000">
        <ele>382.800000</ele>
        <time>2020-10-17T16:13:16Z</time>
      </trkpt>
      <trkpt lat="39.638743000" lon="-8.714421000">
        <ele>382.800000</ele>
        <time>2020-10-17T16:13:17Z</time>
      </trkpt>
      <trkpt lat="39.638732000" lon="-8.714487000">
        <ele>382.800000</ele>
        <time>2020-10-17T16:13:18Z</time>
      </trkpt>
      <trkpt lat="39.638671000" lon="-8.714899000">
        <ele>383.000000</ele>
        <time>2020-10-17T16:13:24Z</time>
      </trkpt>
      <trkpt lat="39.638585000" lon="-8.715382000">
        <ele>383.000000</ele>
        <time>2020-10-17T16:13:31Z</time>
      </trkpt>
      <trkpt lat="39.638573000" lon="-8.715451000">
        <ele>383.000000</ele>
        <time>2020-10-17T16:13:32Z</time>
      </trkpt>
      <trkpt lat="39.638510000" lon="-8.715809000">
        <ele>383.200000</ele>
        <time>2020-10-17T16:13:37Z</time>
      </trkpt>
      <trkpt lat="39.638488000" lon="-8.715955000">
        <ele>383.000000</ele>
        <time>2020-10-17T16:13:39Z</time>
      </trkpt>
      <trkpt lat="39.638478000" lon="-8.716028000">
        <ele>383.200000</ele>
        <time>2020-10-17T16:13:40Z</time>
      </trkpt>
      <trkpt lat="39.638466000" lon="-8.716099000">
        <ele>383.200000</ele>
        <time>2020-10-17T16:13:41Z</time>
      </trkpt>
      <trkpt lat="39.638458000" lon="-8.716170000">
        <ele>383.200000</ele>
        <time>2020-10-17T16:13:42Z</time>
      </trkpt>
      <trkpt lat="39.638423000" lon="-8.716387000">
        <ele>383.200000</ele>
        <time>2020-10-17T16:13:45Z</time>
      </trkpt>
      <trkpt lat="39.638399000" lon="-8.716535000">
        <ele>383.400000</ele>
        <time>2020-10-17T16:13:47Z</time>
      </trkpt>
      <trkpt lat="39.638377000" lon="-8.716684000">
        <ele>383.400000</ele>
        <time>2020-10-17T16:13:49Z</time>
      </trkpt>
      <trkpt lat="39.638367000" lon="-8.716757000">
        <ele>383.400000</ele>
        <time>2020-10-17T16:13:50Z</time>
      </trkpt>
      <trkpt lat="39.638347000" lon="-8.716902000">
        <ele>383.400000</ele>
        <time>2020-10-17T16:13:52Z</time>
      </trkpt>
      <trkpt lat="39.638276000" lon="-8.717346000">
        <ele>383.400000</ele>
        <time>2020-10-17T16:13:58Z</time>
      </trkpt>
      <trkpt lat="39.638244000" lon="-8.717494000">
        <ele>383.400000</ele>
        <time>2020-10-17T16:14:00Z</time>
      </trkpt>
      <trkpt lat="39.638229000" lon="-8.717566000">
        <ele>383.400000</ele>
        <time>2020-10-17T16:14:01Z</time>
      </trkpt>
      <trkpt lat="39.638211000" lon="-8.717636000">
        <ele>383.400000</ele>
        <time>2020-10-17T16:14:02Z</time>
      </trkpt>
      <trkpt lat="39.638190000" lon="-8.717704000">
        <ele>383.600000</ele>
        <time>2020-10-17T16:14:03Z</time>
      </trkpt>
      <trkpt lat="39.638164000" lon="-8.717769000">
        <ele>383.600000</ele>
        <time>2020-10-17T16:14:04Z</time>
      </trkpt>
      <trkpt lat="39.638109000" lon="-8.717892000">
        <ele>383.800000</ele>
        <time>2020-10-17T16:14:06Z</time>
      </trkpt>
      <trkpt lat="39.638082000" lon="-8.717951000">
        <ele>383.800000</ele>
        <time>2020-10-17T16:14:07Z</time>
      </trkpt>
      <trkpt lat="39.638052000" lon="-8.718007000">
        <ele>383.800000</ele>
        <time>2020-10-17T16:14:08Z</time>
      </trkpt>
      <trkpt lat="39.637970000" lon="-8.718120000">
        <ele>384.000000</ele>
        <time>2020-10-17T16:14:10Z</time>
      </trkpt>
      <trkpt lat="39.637714000" lon="-8.718468000">
        <ele>384.000000</ele>
        <time>2020-10-17T16:14:16Z</time>
      </trkpt>
      <trkpt lat="39.637671000" lon="-8.718521000">
        <ele>384.000000</ele>
        <time>2020-10-17T16:14:17Z</time>
      </trkpt>
      <trkpt lat="39.637631000" lon="-8.718575000">
        <ele>383.800000</ele>
        <time>2020-10-17T16:14:18Z</time>
      </trkpt>
      <trkpt lat="39.637450000" lon="-8.718803000">
        <ele>384.000000</ele>
        <time>2020-10-17T16:14:22Z</time>
      </trkpt>
      <trkpt lat="39.637408000" lon="-8.718857000">
        <ele>384.000000</ele>
        <time>2020-10-17T16:14:23Z</time>
      </trkpt>
      <trkpt lat="39.637370000" lon="-8.718912000">
        <ele>384.000000</ele>
        <time>2020-10-17T16:14:24Z</time>
      </trkpt>
      <trkpt lat="39.637286000" lon="-8.719022000">
        <ele>384.000000</ele>
        <time>2020-10-17T16:14:26Z</time>
      </trkpt>
      <trkpt lat="39.637250000" lon="-8.719074000">
        <ele>384.000000</ele>
        <time>2020-10-17T16:14:27Z</time>
      </trkpt>
      <trkpt lat="39.637215000" lon="-8.719127000">
        <ele>384.000000</ele>
        <time>2020-10-17T16:14:28Z</time>
      </trkpt>
      <trkpt lat="39.637181000" lon="-8.719177000">
        <ele>384.000000</ele>
        <time>2020-10-17T16:14:29Z</time>
      </trkpt>
      <trkpt lat="39.637059000" lon="-8.719345000">
        <ele>384.000000</ele>
        <time>2020-10-17T16:14:32Z</time>
      </trkpt>
      <trkpt lat="39.637024000" lon="-8.719402000">
        <ele>384.000000</ele>
        <time>2020-10-17T16:14:33Z</time>
      </trkpt>
      <trkpt lat="39.636996000" lon="-8.719456000">
        <ele>384.000000</ele>
        <time>2020-10-17T16:14:34Z</time>
      </trkpt>
      <trkpt lat="39.636971000" lon="-8.719510000">
        <ele>384.000000</ele>
        <time>2020-10-17T16:14:35Z</time>
      </trkpt>
      <trkpt lat="39.636944000" lon="-8.719563000">
        <ele>384.000000</ele>
        <time>2020-10-17T16:14:36Z</time>
      </trkpt>
      <trkpt lat="39.636911000" lon="-8.719616000">
        <ele>384.000000</ele>
        <time>2020-10-17T16:14:37Z</time>
      </trkpt>
      <trkpt lat="39.636686000" lon="-8.719884000">
        <ele>384.200000</ele>
        <time>2020-10-17T16:14:42Z</time>
      </trkpt>
      <trkpt lat="39.636504000" lon="-8.720093000">
        <ele>384.400000</ele>
        <time>2020-10-17T16:14:46Z</time>
      </trkpt>
      <trkpt lat="39.636417000" lon="-8.720203000">
        <ele>384.400000</ele>
        <time>2020-10-17T16:14:48Z</time>
      </trkpt>
      <trkpt lat="39.636381000" lon="-8.720256000">
        <ele>384.400000</ele>
        <time>2020-10-17T16:14:49Z</time>
      </trkpt>
      <trkpt lat="39.636345000" lon="-8.720308000">
        <ele>384.400000</ele>
        <time>2020-10-17T16:14:50Z</time>
      </trkpt>
      <trkpt lat="39.636308000" lon="-8.720362000">
        <ele>384.400000</ele>
        <time>2020-10-17T16:14:51Z</time>
      </trkpt>
      <trkpt lat="39.636273000" lon="-8.720416000">
        <ele>384.600000</ele>
        <time>2020-10-17T16:14:52Z</time>
      </trkpt>
      <trkpt lat="39.636231000" lon="-8.720472000">
        <ele>384.400000</ele>
        <time>2020-10-17T16:14:53Z</time>
      </trkpt>
      <trkpt lat="39.636131000" lon="-8.720596000">
        <ele>384.600000</ele>
        <time>2020-10-17T16:14:55Z</time>
      </trkpt>
      <trkpt lat="39.635992000" lon="-8.720775000">
        <ele>384.600000</ele>
        <time>2020-10-17T16:14:58Z</time>
      </trkpt>
      <trkpt lat="39.635798000" lon="-8.721085000">
        <ele>384.600000</ele>
        <time>2020-10-17T16:15:03Z</time>
      </trkpt>
      <trkpt lat="39.635778000" lon="-8.721160000">
        <ele>384.600000</ele>
        <time>2020-10-17T16:15:04Z</time>
      </trkpt>
      <trkpt lat="39.635765000" lon="-8.721243000">
        <ele>384.400000</ele>
        <time>2020-10-17T16:15:05Z</time>
      </trkpt>
      <trkpt lat="39.635765000" lon="-8.721331000">
        <ele>384.600000</ele>
        <time>2020-10-17T16:15:06Z</time>
      </trkpt>
      <trkpt lat="39.635777000" lon="-8.721416000">
        <ele>384.600000</ele>
        <time>2020-10-17T16:15:07Z</time>
      </trkpt>
      <trkpt lat="39.635801000" lon="-8.721495000">
        <ele>384.600000</ele>
        <time>2020-10-17T16:15:08Z</time>
      </trkpt>
      <trkpt lat="39.635828000" lon="-8.721574000">
        <ele>384.600000</ele>
        <time>2020-10-17T16:15:09Z</time>
      </trkpt>
      <trkpt lat="39.635869000" lon="-8.721649000">
        <ele>384.600000</ele>
        <time>2020-10-17T16:15:10Z</time>
      </trkpt>
      <trkpt lat="39.635919000" lon="-8.721720000">
        <ele>384.400000</ele>
        <time>2020-10-17T16:15:11Z</time>
      </trkpt>
      <trkpt lat="39.635974000" lon="-8.721784000">
        <ele>384.600000</ele>
        <time>2020-10-17T16:15:12Z</time>
      </trkpt>
      <trkpt lat="39.636134000" lon="-8.721984000">
        <ele>384.200000</ele>
        <time>2020-10-17T16:15:15Z</time>
      </trkpt>
      <trkpt lat="39.636306000" lon="-8.722192000">
        <ele>383.600000</ele>
        <time>2020-10-17T16:15:18Z</time>
      </trkpt>
      <trkpt lat="39.636368000" lon="-8.722261000">
        <ele>383.400000</ele>
        <time>2020-10-17T16:15:19Z</time>
      </trkpt>
      <trkpt lat="39.636504000" lon="-8.722402000">
        <ele>383.200000</ele>
        <time>2020-10-17T16:15:21Z</time>
      </trkpt>
      <trkpt lat="39.636644000" lon="-8.722529000">
        <ele>382.800000</ele>
        <time>2020-10-17T16:15:23Z</time>
      </trkpt>
      <trkpt lat="39.636714000" lon="-8.722589000">
        <ele>382.600000</ele>
        <time>2020-10-17T16:15:24Z</time>
      </trkpt>
      <trkpt lat="39.636787000" lon="-8.722649000">
        <ele>382.400000</ele>
        <time>2020-10-17T16:15:25Z</time>
      </trkpt>
      <trkpt lat="39.637021000" lon="-8.722825000">
        <ele>381.200000</ele>
        <time>2020-10-17T16:15:28Z</time>
      </trkpt>
      <trkpt lat="39.637194000" lon="-8.722927000">
        <ele>380.800000</ele>
        <time>2020-10-17T16:15:30Z</time>
      </trkpt>
      <trkpt lat="39.637284000" lon="-8.722959000">
        <ele>380.400000</ele>
        <time>2020-10-17T16:15:31Z</time>
      </trkpt>
      <trkpt lat="39.637474000" lon="-8.722995000">
        <ele>379.200000</ele>
        <time>2020-10-17T16:15:33Z</time>
      </trkpt>
      <trkpt lat="39.637672000" lon="-8.723046000">
        <ele>378.200000</ele>
        <time>2020-10-17T16:15:35Z</time>
      </trkpt>
      <trkpt lat="39.637762000" lon="-8.723109000">
        <ele>377.400000</ele>
        <time>2020-10-17T16:15:36Z</time>
      </trkpt>
      <trkpt lat="39.637833000" lon="-8.723196000">
        <ele>377.000000</ele>
        <time>2020-10-17T16:15:37Z</time>
      </trkpt>
      <trkpt lat="39.637891000" lon="-8.723299000">
        <ele>376.200000</ele>
        <time>2020-10-17T16:15:38Z</time>
      </trkpt>
      <trkpt lat="39.637929000" lon="-8.723407000">
        <ele>375.800000</ele>
        <time>2020-10-17T16:15:39Z</time>
      </trkpt>
      <trkpt lat="39.637949000" lon="-8.723519000">
        <ele>375.000000</ele>
        <time>2020-10-17T16:15:40Z</time>
      </trkpt>
      <trkpt lat="39.637936000" lon="-8.723648000">
        <ele>374.600000</ele>
        <time>2020-10-17T16:15:41Z</time>
      </trkpt>
      <trkpt lat="39.637924000" lon="-8.723775000">
        <ele>374.000000</ele>
        <time>2020-10-17T16:15:42Z</time>
      </trkpt>
      <trkpt lat="39.637916000" lon="-8.723894000">
        <ele>373.600000</ele>
        <time>2020-10-17T16:15:43Z</time>
      </trkpt>
      <trkpt lat="39.637909000" lon="-8.724010000">
        <ele>373.000000</ele>
        <time>2020-10-17T16:15:44Z</time>
      </trkpt>
      <trkpt lat="39.637898000" lon="-8.724126000">
        <ele>372.200000</ele>
        <time>2020-10-17T16:15:45Z</time>
      </trkpt>
      <trkpt lat="39.637886000" lon="-8.724238000">
        <ele>372.000000</ele>
        <time>2020-10-17T16:15:46Z</time>
      </trkpt>
      <trkpt lat="39.637873000" lon="-8.724347000">
        <ele>371.600000</ele>
        <time>2020-10-17T16:15:47Z</time>
      </trkpt>
      <trkpt lat="39.637848000" lon="-8.724561000">
        <ele>371.000000</ele>
        <time>2020-10-17T16:15:49Z</time>
      </trkpt>
      <trkpt lat="39.637837000" lon="-8.724665000">
        <ele>371.000000</ele>
        <time>2020-10-17T16:15:50Z</time>
      </trkpt>
      <trkpt lat="39.637826000" lon="-8.724770000">
        <ele>371.000000</ele>
        <time>2020-10-17T16:15:51Z</time>
      </trkpt>
      <trkpt lat="39.637814000" lon="-8.724873000">
        <ele>370.800000</ele>
        <time>2020-10-17T16:15:52Z</time>
      </trkpt>
      <trkpt lat="39.637794000" lon="-8.725077000">
        <ele>370.800000</ele>
        <time>2020-10-17T16:15:54Z</time>
      </trkpt>
      <trkpt lat="39.637782000" lon="-8.725178000">
        <ele>370.600000</ele>
        <time>2020-10-17T16:15:55Z</time>
      </trkpt>
      <trkpt lat="39.637771000" lon="-8.725280000">
        <ele>370.600000</ele>
        <time>2020-10-17T16:15:56Z</time>
      </trkpt>
      <trkpt lat="39.637749000" lon="-8.725484000">
        <ele>370.200000</ele>
        <time>2020-10-17T16:15:58Z</time>
      </trkpt>
      <trkpt lat="39.637725000" lon="-8.725683000">
        <ele>369.800000</ele>
        <time>2020-10-17T16:16:00Z</time>
      </trkpt>
      <trkpt lat="39.637704000" lon="-8.725781000">
        <ele>369.800000</ele>
        <time>2020-10-17T16:16:01Z</time>
      </trkpt>
      <trkpt lat="39.637628000" lon="-8.725965000">
        <ele>369.600000</ele>
        <time>2020-10-17T16:16:03Z</time>
      </trkpt>
      <trkpt lat="39.637577000" lon="-8.726042000">
        <ele>369.400000</ele>
        <time>2020-10-17T16:16:04Z</time>
      </trkpt>
      <trkpt lat="39.637519000" lon="-8.726113000">
        <ele>369.200000</ele>
        <time>2020-10-17T16:16:05Z</time>
      </trkpt>
      <trkpt lat="39.637400000" lon="-8.726245000">
        <ele>368.800000</ele>
        <time>2020-10-17T16:16:07Z</time>
      </trkpt>
      <trkpt lat="39.637274000" lon="-8.726382000">
        <ele>368.000000</ele>
        <time>2020-10-17T16:16:09Z</time>
      </trkpt>
      <trkpt lat="39.637154000" lon="-8.726523000">
        <ele>367.600000</ele>
        <time>2020-10-17T16:16:11Z</time>
      </trkpt>
      <trkpt lat="39.637103000" lon="-8.726601000">
        <ele>367.600000</ele>
        <time>2020-10-17T16:16:12Z</time>
      </trkpt>
      <trkpt lat="39.637055000" lon="-8.726690000">
        <ele>367.400000</ele>
        <time>2020-10-17T16:16:13Z</time>
      </trkpt>
      <trkpt lat="39.637021000" lon="-8.726778000">
        <ele>367.000000</ele>
        <time>2020-10-17T16:16:14Z</time>
      </trkpt>
      <trkpt lat="39.636919000" lon="-8.727077000">
        <ele>366.000000</ele>
        <time>2020-10-17T16:16:17Z</time>
      </trkpt>
      <trkpt lat="39.636782000" lon="-8.727500000">
        <ele>364.400000</ele>
        <time>2020-10-17T16:16:21Z</time>
      </trkpt>
      <trkpt lat="39.636752000" lon="-8.727604000">
        <ele>364.000000</ele>
        <time>2020-10-17T16:16:22Z</time>
      </trkpt>
      <trkpt lat="39.636697000" lon="-8.727817000">
        <ele>363.400000</ele>
        <time>2020-10-17T16:16:24Z</time>
      </trkpt>
      <trkpt lat="39.636679000" lon="-8.727925000">
        <ele>363.400000</ele>
        <time>2020-10-17T16:16:25Z</time>
      </trkpt>
      <trkpt lat="39.636667000" lon="-8.728032000">
        <ele>363.000000</ele>
        <time>2020-10-17T16:16:26Z</time>
      </trkpt>
      <trkpt lat="39.636651000" lon="-8.728253000">
        <ele>362.200000</ele>
        <time>2020-10-17T16:16:28Z</time>
      </trkpt>
      <trkpt lat="39.636647000" lon="-8.728487000">
        <ele>361.600000</ele>
        <time>2020-10-17T16:16:30Z</time>
      </trkpt>
      <trkpt lat="39.636647000" lon="-8.728605000">
        <ele>361.200000</ele>
        <time>2020-10-17T16:16:31Z</time>
      </trkpt>
      <trkpt lat="39.636642000" lon="-8.729087000">
        <ele>360.200000</ele>
        <time>2020-10-17T16:16:35Z</time>
      </trkpt>
      <trkpt lat="39.636641000" lon="-8.729330000">
        <ele>359.400000</ele>
        <time>2020-10-17T16:16:37Z</time>
      </trkpt>
      <trkpt lat="39.636636000" lon="-8.729573000">
        <ele>358.800000</ele>
        <time>2020-10-17T16:16:39Z</time>
      </trkpt>
      <trkpt lat="39.636632000" lon="-8.729817000">
        <ele>358.200000</ele>
        <time>2020-10-17T16:16:41Z</time>
      </trkpt>
      <trkpt lat="39.636632000" lon="-8.729936000">
        <ele>357.600000</ele>
        <time>2020-10-17T16:16:42Z</time>
      </trkpt>
      <trkpt lat="39.636638000" lon="-8.730050000">
        <ele>357.400000</ele>
        <time>2020-10-17T16:16:43Z</time>
      </trkpt>
      <trkpt lat="39.636663000" lon="-8.730166000">
        <ele>357.000000</ele>
        <time>2020-10-17T16:16:44Z</time>
      </trkpt>
      <trkpt lat="39.636697000" lon="-8.730269000">
        <ele>356.600000</ele>
        <time>2020-10-17T16:16:45Z</time>
      </trkpt>
      <trkpt lat="39.636736000" lon="-8.730359000">
        <ele>356.200000</ele>
        <time>2020-10-17T16:16:46Z</time>
      </trkpt>
      <trkpt lat="39.636785000" lon="-8.730430000">
        <ele>355.800000</ele>
        <time>2020-10-17T16:16:47Z</time>
      </trkpt>
      <trkpt lat="39.636846000" lon="-8.730485000">
        <ele>355.400000</ele>
        <time>2020-10-17T16:16:48Z</time>
      </trkpt>
      <trkpt lat="39.636930000" lon="-8.730518000">
        <ele>355.000000</ele>
        <time>2020-10-17T16:16:49Z</time>
      </trkpt>
      <trkpt lat="39.637019000" lon="-8.730538000">
        <ele>354.600000</ele>
        <time>2020-10-17T16:16:50Z</time>
      </trkpt>
      <trkpt lat="39.637107000" lon="-8.730558000">
        <ele>354.400000</ele>
        <time>2020-10-17T16:16:51Z</time>
      </trkpt>
      <trkpt lat="39.637196000" lon="-8.730579000">
        <ele>353.800000</ele>
        <time>2020-10-17T16:16:52Z</time>
      </trkpt>
      <trkpt lat="39.637276000" lon="-8.730602000">
        <ele>353.400000</ele>
        <time>2020-10-17T16:16:53Z</time>
      </trkpt>
      <trkpt lat="39.637625000" lon="-8.730720000">
        <ele>353.000000</ele>
        <time>2020-10-17T16:16:57Z</time>
      </trkpt>
      <trkpt lat="39.637712000" lon="-8.730753000">
        <ele>352.800000</ele>
        <time>2020-10-17T16:16:58Z</time>
      </trkpt>
      <trkpt lat="39.637898000" lon="-8.730815000">
        <ele>352.800000</ele>
        <time>2020-10-17T16:17:00Z</time>
      </trkpt>
      <trkpt lat="39.638073000" lon="-8.730877000">
        <ele>352.400000</ele>
        <time>2020-10-17T16:17:02Z</time>
      </trkpt>
      <trkpt lat="39.638246000" lon="-8.730942000">
        <ele>351.600000</ele>
        <time>2020-10-17T16:17:04Z</time>
      </trkpt>
      <trkpt lat="39.638500000" lon="-8.731030000">
        <ele>350.800000</ele>
        <time>2020-10-17T16:17:07Z</time>
      </trkpt>
      <trkpt lat="39.638581000" lon="-8.731059000">
        <ele>350.400000</ele>
        <time>2020-10-17T16:17:08Z</time>
      </trkpt>
      <trkpt lat="39.638657000" lon="-8.731089000">
        <ele>350.000000</ele>
        <time>2020-10-17T16:17:09Z</time>
      </trkpt>
      <trkpt lat="39.638736000" lon="-8.731121000">
        <ele>349.600000</ele>
        <time>2020-10-17T16:17:10Z</time>
      </trkpt>
      <trkpt lat="39.638994000" lon="-8.731202000">
        <ele>348.400000</ele>
        <time>2020-10-17T16:17:13Z</time>
      </trkpt>
      <trkpt lat="39.639360000" lon="-8.731248000">
        <ele>347.400000</ele>
        <time>2020-10-17T16:17:17Z</time>
      </trkpt>
      <trkpt lat="39.639447000" lon="-8.731255000">
        <ele>347.000000</ele>
        <time>2020-10-17T16:17:18Z</time>
      </trkpt>
      <trkpt lat="39.639624000" lon="-8.731273000">
        <ele>346.200000</ele>
        <time>2020-10-17T16:17:20Z</time>
      </trkpt>
      <trkpt lat="39.639796000" lon="-8.731290000">
        <ele>345.400000</ele>
        <time>2020-10-17T16:17:22Z</time>
      </trkpt>
      <trkpt lat="39.639878000" lon="-8.731311000">
        <ele>345.000000</ele>
        <time>2020-10-17T16:17:23Z</time>
      </trkpt>
      <trkpt lat="39.640032000" lon="-8.731407000">
        <ele>344.200000</ele>
        <time>2020-10-17T16:17:25Z</time>
      </trkpt>
      <trkpt lat="39.640092000" lon="-8.731487000">
        <ele>343.800000</ele>
        <time>2020-10-17T16:17:26Z</time>
      </trkpt>
      <trkpt lat="39.640131000" lon="-8.731590000">
        <ele>343.200000</ele>
        <time>2020-10-17T16:17:27Z</time>
      </trkpt>
      <trkpt lat="39.640154000" lon="-8.731697000">
        <ele>343.000000</ele>
        <time>2020-10-17T16:17:28Z</time>
      </trkpt>
      <trkpt lat="39.640166000" lon="-8.731807000">
        <ele>342.600000</ele>
        <time>2020-10-17T16:17:29Z</time>
      </trkpt>
      <trkpt lat="39.640163000" lon="-8.731914000">
        <ele>342.000000</ele>
        <time>2020-10-17T16:17:30Z</time>
      </trkpt>
      <trkpt lat="39.640151000" lon="-8.732016000">
        <ele>341.600000</ele>
        <time>2020-10-17T16:17:31Z</time>
      </trkpt>
      <trkpt lat="39.640126000" lon="-8.732107000">
        <ele>341.200000</ele>
        <time>2020-10-17T16:17:32Z</time>
      </trkpt>
      <trkpt lat="39.640088000" lon="-8.732187000">
        <ele>340.600000</ele>
        <time>2020-10-17T16:17:33Z</time>
      </trkpt>
      <trkpt lat="39.640042000" lon="-8.732262000">
        <ele>340.400000</ele>
        <time>2020-10-17T16:17:34Z</time>
      </trkpt>
      <trkpt lat="39.639993000" lon="-8.732330000">
        <ele>339.800000</ele>
        <time>2020-10-17T16:17:35Z</time>
      </trkpt>
      <trkpt lat="39.639934000" lon="-8.732396000">
        <ele>339.600000</ele>
        <time>2020-10-17T16:17:36Z</time>
      </trkpt>
      <trkpt lat="39.639813000" lon="-8.732522000">
        <ele>339.400000</ele>
        <time>2020-10-17T16:17:38Z</time>
      </trkpt>
      <trkpt lat="39.639755000" lon="-8.732583000">
        <ele>339.400000</ele>
        <time>2020-10-17T16:17:39Z</time>
      </trkpt>
      <trkpt lat="39.639629000" lon="-8.732705000">
        <ele>339.200000</ele>
        <time>2020-10-17T16:17:41Z</time>
      </trkpt>
      <trkpt lat="39.639513000" lon="-8.732821000">
        <ele>339.200000</ele>
        <time>2020-10-17T16:17:43Z</time>
      </trkpt>
      <trkpt lat="39.639456000" lon="-8.732877000">
        <ele>339.200000</ele>
        <time>2020-10-17T16:17:44Z</time>
      </trkpt>
      <trkpt lat="39.639276000" lon="-8.733058000">
        <ele>339.200000</ele>
        <time>2020-10-17T16:17:47Z</time>
      </trkpt>
      <trkpt lat="39.639219000" lon="-8.733122000">
        <ele>339.000000</ele>
        <time>2020-10-17T16:17:48Z</time>
      </trkpt>
      <trkpt lat="39.639107000" lon="-8.733242000">
        <ele>339.000000</ele>
        <time>2020-10-17T16:17:50Z</time>
      </trkpt>
      <trkpt lat="39.639051000" lon="-8.733301000">
        <ele>339.000000</ele>
        <time>2020-10-17T16:17:51Z</time>
      </trkpt>
      <trkpt lat="39.638828000" lon="-8.733547000">
        <ele>338.600000</ele>
        <time>2020-10-17T16:17:55Z</time>
      </trkpt>
      <trkpt lat="39.638771000" lon="-8.733606000">
        <ele>338.800000</ele>
        <time>2020-10-17T16:17:56Z</time>
      </trkpt>
      <trkpt lat="39.638707000" lon="-8.733666000">
        <ele>338.600000</ele>
        <time>2020-10-17T16:17:57Z</time>
      </trkpt>
      <trkpt lat="39.638592000" lon="-8.733782000">
        <ele>338.400000</ele>
        <time>2020-10-17T16:17:59Z</time>
      </trkpt>
      <trkpt lat="39.638540000" lon="-8.733839000">
        <ele>338.400000</ele>
        <time>2020-10-17T16:18:00Z</time>
      </trkpt>
      <trkpt lat="39.638485000" lon="-8.733897000">
        <ele>338.200000</ele>
        <time>2020-10-17T16:18:01Z</time>
      </trkpt>
      <trkpt lat="39.638373000" lon="-8.734016000">
        <ele>338.200000</ele>
        <time>2020-10-17T16:18:03Z</time>
      </trkpt>
      <trkpt lat="39.637973000" lon="-8.734436000">
        <ele>337.600000</ele>
        <time>2020-10-17T16:18:10Z</time>
      </trkpt>
      <trkpt lat="39.637916000" lon="-8.734497000">
        <ele>337.400000</ele>
        <time>2020-10-17T16:18:11Z</time>
      </trkpt>
      <trkpt lat="39.637863000" lon="-8.734559000">
        <ele>337.400000</ele>
        <time>2020-10-17T16:18:12Z</time>
      </trkpt>
      <trkpt lat="39.637714000" lon="-8.734758000">
        <ele>337.200000</ele>
        <time>2020-10-17T16:18:15Z</time>
      </trkpt>
      <trkpt lat="39.637637000" lon="-8.734912000">
        <ele>337.000000</ele>
        <time>2020-10-17T16:18:17Z</time>
      </trkpt>
      <trkpt lat="39.637607000" lon="-8.734997000">
        <ele>336.800000</ele>
        <time>2020-10-17T16:18:18Z</time>
      </trkpt>
      <trkpt lat="39.637589000" lon="-8.735087000">
        <ele>336.800000</ele>
        <time>2020-10-17T16:18:19Z</time>
      </trkpt>
      <trkpt lat="39.637578000" lon="-8.735178000">
        <ele>336.800000</ele>
        <time>2020-10-17T16:18:20Z</time>
      </trkpt>
      <trkpt lat="39.637571000" lon="-8.735267000">
        <ele>336.800000</ele>
        <time>2020-10-17T16:18:21Z</time>
      </trkpt>
      <trkpt lat="39.637567000" lon="-8.735354000">
        <ele>336.600000</ele>
        <time>2020-10-17T16:18:22Z</time>
      </trkpt>
      <trkpt lat="39.637565000" lon="-8.735530000">
        <ele>336.600000</ele>
        <time>2020-10-17T16:18:24Z</time>
      </trkpt>
      <trkpt lat="39.637580000" lon="-8.735807000">
        <ele>336.400000</ele>
        <time>2020-10-17T16:18:27Z</time>
      </trkpt>
      <trkpt lat="39.637652000" lon="-8.736366000">
        <ele>336.200000</ele>
        <time>2020-10-17T16:18:33Z</time>
      </trkpt>
      <trkpt lat="39.637673000" lon="-8.736457000">
        <ele>336.200000</ele>
        <time>2020-10-17T16:18:34Z</time>
      </trkpt>
      <trkpt lat="39.637695000" lon="-8.736544000">
        <ele>336.200000</ele>
        <time>2020-10-17T16:18:35Z</time>
      </trkpt>
      <trkpt lat="39.637858000" lon="-8.737278000">
        <ele>335.600000</ele>
        <time>2020-10-17T16:18:43Z</time>
      </trkpt>
      <trkpt lat="39.637887000" lon="-8.737956000">
        <ele>335.400000</ele>
        <time>2020-10-17T16:18:50Z</time>
      </trkpt>
      <trkpt lat="39.637902000" lon="-8.738245000">
        <ele>335.200000</ele>
        <time>2020-10-17T16:18:53Z</time>
      </trkpt>
      <trkpt lat="39.637911000" lon="-8.738341000">
        <ele>335.000000</ele>
        <time>2020-10-17T16:18:54Z</time>
      </trkpt>
      <trkpt lat="39.637922000" lon="-8.738433000">
        <ele>335.000000</ele>
        <time>2020-10-17T16:18:55Z</time>
      </trkpt>
      <trkpt lat="39.637959000" lon="-8.738610000">
        <ele>335.000000</ele>
        <time>2020-10-17T16:18:57Z</time>
      </trkpt>
      <trkpt lat="39.638135000" lon="-8.739134000">
        <ele>334.600000</ele>
        <time>2020-10-17T16:19:03Z</time>
      </trkpt>
      <trkpt lat="39.638303000" lon="-8.739568000">
        <ele>334.400000</ele>
        <time>2020-10-17T16:19:08Z</time>
      </trkpt>
      <trkpt lat="39.638334000" lon="-8.739651000">
        <ele>334.200000</ele>
        <time>2020-10-17T16:19:09Z</time>
      </trkpt>
      <trkpt lat="39.638368000" lon="-8.739734000">
        <ele>334.200000</ele>
        <time>2020-10-17T16:19:10Z</time>
      </trkpt>
      <trkpt lat="39.638405000" lon="-8.739815000">
        <ele>334.200000</ele>
        <time>2020-10-17T16:19:11Z</time>
      </trkpt>
      <trkpt lat="39.638491000" lon="-8.739978000">
        <ele>334.000000</ele>
        <time>2020-10-17T16:19:13Z</time>
      </trkpt>
      <trkpt lat="39.638543000" lon="-8.740051000">
        <ele>333.800000</ele>
        <time>2020-10-17T16:19:14Z</time>
      </trkpt>
      <trkpt lat="39.638602000" lon="-8.740122000">
        <ele>333.600000</ele>
        <time>2020-10-17T16:19:15Z</time>
      </trkpt>
      <trkpt lat="39.638664000" lon="-8.740191000">
        <ele>333.600000</ele>
        <time>2020-10-17T16:19:16Z</time>
      </trkpt>
      <trkpt lat="39.638780000" lon="-8.740327000">
        <ele>333.400000</ele>
        <time>2020-10-17T16:19:18Z</time>
      </trkpt>
      <trkpt lat="39.638839000" lon="-8.740393000">
        <ele>333.200000</ele>
        <time>2020-10-17T16:19:19Z</time>
      </trkpt>
      <trkpt lat="39.639015000" lon="-8.740590000">
        <ele>332.800000</ele>
        <time>2020-10-17T16:19:22Z</time>
      </trkpt>
      <trkpt lat="39.639147000" lon="-8.740706000">
        <ele>332.400000</ele>
        <time>2020-10-17T16:19:24Z</time>
      </trkpt>
      <trkpt lat="39.639216000" lon="-8.740755000">
        <ele>332.400000</ele>
        <time>2020-10-17T16:19:25Z</time>
      </trkpt>
      <trkpt lat="39.639364000" lon="-8.740819000">
        <ele>332.200000</ele>
        <time>2020-10-17T16:19:27Z</time>
      </trkpt>
      <trkpt lat="39.639441000" lon="-8.740825000">
        <ele>332.000000</ele>
        <time>2020-10-17T16:19:28Z</time>
      </trkpt>
      <trkpt lat="39.639514000" lon="-8.740820000">
        <ele>331.800000</ele>
        <time>2020-10-17T16:19:29Z</time>
      </trkpt>
      <trkpt lat="39.639583000" lon="-8.740802000">
        <ele>331.800000</ele>
        <time>2020-10-17T16:19:30Z</time>
      </trkpt>
      <trkpt lat="39.639653000" lon="-8.740774000">
        <ele>331.600000</ele>
        <time>2020-10-17T16:19:31Z</time>
      </trkpt>
      <trkpt lat="39.639726000" lon="-8.740743000">
        <ele>331.400000</ele>
        <time>2020-10-17T16:19:32Z</time>
      </trkpt>
      <trkpt lat="39.639803000" lon="-8.740705000">
        <ele>331.000000</ele>
        <time>2020-10-17T16:19:33Z</time>
      </trkpt>
      <trkpt lat="39.639960000" lon="-8.740624000">
        <ele>330.000000</ele>
        <time>2020-10-17T16:19:35Z</time>
      </trkpt>
      <trkpt lat="39.640128000" lon="-8.740535000">
        <ele>329.600000</ele>
        <time>2020-10-17T16:19:37Z</time>
      </trkpt>
      <trkpt lat="39.640210000" lon="-8.740496000">
        <ele>329.400000</ele>
        <time>2020-10-17T16:19:38Z</time>
      </trkpt>
      <trkpt lat="39.640380000" lon="-8.740412000">
        <ele>328.600000</ele>
        <time>2020-10-17T16:19:40Z</time>
      </trkpt>
      <trkpt lat="39.640570000" lon="-8.740355000">
        <ele>327.800000</ele>
        <time>2020-10-17T16:19:42Z</time>
      </trkpt>
      <trkpt lat="39.640667000" lon="-8.740363000">
        <ele>327.400000</ele>
        <time>2020-10-17T16:19:43Z</time>
      </trkpt>
      <trkpt lat="39.640749000" lon="-8.740406000">
        <ele>327.000000</ele>
        <time>2020-10-17T16:19:44Z</time>
      </trkpt>
      <trkpt lat="39.640817000" lon="-8.740481000">
        <ele>326.200000</ele>
        <time>2020-10-17T16:19:45Z</time>
      </trkpt>
      <trkpt lat="39.640861000" lon="-8.740578000">
        <ele>326.200000</ele>
        <time>2020-10-17T16:19:46Z</time>
      </trkpt>
      <trkpt lat="39.640896000" lon="-8.740690000">
        <ele>325.800000</ele>
        <time>2020-10-17T16:19:47Z</time>
      </trkpt>
      <trkpt lat="39.640920000" lon="-8.740802000">
        <ele>325.400000</ele>
        <time>2020-10-17T16:19:48Z</time>
      </trkpt>
      <trkpt lat="39.640928000" lon="-8.740913000">
        <ele>325.000000</ele>
        <time>2020-10-17T16:19:49Z</time>
      </trkpt>
      <trkpt lat="39.640926000" lon="-8.741016000">
        <ele>324.400000</ele>
        <time>2020-10-17T16:19:50Z</time>
      </trkpt>
      <trkpt lat="39.640918000" lon="-8.741115000">
        <ele>324.200000</ele>
        <time>2020-10-17T16:19:51Z</time>
      </trkpt>
      <trkpt lat="39.640903000" lon="-8.741206000">
        <ele>323.600000</ele>
        <time>2020-10-17T16:19:52Z</time>
      </trkpt>
      <trkpt lat="39.640875000" lon="-8.741292000">
        <ele>323.200000</ele>
        <time>2020-10-17T16:19:53Z</time>
      </trkpt>
      <trkpt lat="39.640837000" lon="-8.741370000">
        <ele>322.800000</ele>
        <time>2020-10-17T16:19:54Z</time>
      </trkpt>
      <trkpt lat="39.640790000" lon="-8.741444000">
        <ele>322.400000</ele>
        <time>2020-10-17T16:19:55Z</time>
      </trkpt>
      <trkpt lat="39.640736000" lon="-8.741517000">
        <ele>322.200000</ele>
        <time>2020-10-17T16:19:56Z</time>
      </trkpt>
      <trkpt lat="39.640627000" lon="-8.741652000">
        <ele>322.000000</ele>
        <time>2020-10-17T16:19:58Z</time>
      </trkpt>
      <trkpt lat="39.640516000" lon="-8.741784000">
        <ele>322.000000</ele>
        <time>2020-10-17T16:20:00Z</time>
      </trkpt>
      <trkpt lat="39.640466000" lon="-8.741843000">
        <ele>322.000000</ele>
        <time>2020-10-17T16:20:01Z</time>
      </trkpt>
      <trkpt lat="39.640416000" lon="-8.741899000">
        <ele>322.200000</ele>
        <time>2020-10-17T16:20:02Z</time>
      </trkpt>
      <trkpt lat="39.640371000" lon="-8.741952000">
        <ele>322.200000</ele>
        <time>2020-10-17T16:20:03Z</time>
      </trkpt>
      <trkpt lat="39.640328000" lon="-8.742010000">
        <ele>322.000000</ele>
        <time>2020-10-17T16:20:04Z</time>
      </trkpt>
      <trkpt lat="39.640292000" lon="-8.742067000">
        <ele>322.000000</ele>
        <time>2020-10-17T16:20:05Z</time>
      </trkpt>
      <trkpt lat="39.640266000" lon="-8.742120000">
        <ele>322.200000</ele>
        <time>2020-10-17T16:20:06Z</time>
      </trkpt>
      <trkpt lat="39.640246000" lon="-8.742174000">
        <ele>322.200000</ele>
        <time>2020-10-17T16:20:07Z</time>
      </trkpt>
      <trkpt lat="39.640230000" lon="-8.742232000">
        <ele>322.200000</ele>
        <time>2020-10-17T16:20:08Z</time>
      </trkpt>
      <trkpt lat="39.640219000" lon="-8.742296000">
        <ele>322.400000</ele>
        <time>2020-10-17T16:20:09Z</time>
      </trkpt>
      <trkpt lat="39.640213000" lon="-8.742356000">
        <ele>322.200000</ele>
        <time>2020-10-17T16:20:10Z</time>
      </trkpt>
      <trkpt lat="39.640206000" lon="-8.742483000">
        <ele>322.800000</ele>
        <time>2020-10-17T16:20:12Z</time>
      </trkpt>
      <trkpt lat="39.640205000" lon="-8.742549000">
        <ele>323.000000</ele>
        <time>2020-10-17T16:20:13Z</time>
      </trkpt>
      <trkpt lat="39.640194000" lon="-8.742923000">
        <ele>324.000000</ele>
        <time>2020-10-17T16:20:18Z</time>
      </trkpt>
      <trkpt lat="39.640184000" lon="-8.743187000">
        <ele>324.400000</ele>
        <time>2020-10-17T16:20:21Z</time>
      </trkpt>
      <trkpt lat="39.640180000" lon="-8.743270000">
        <ele>324.600000</ele>
        <time>2020-10-17T16:20:22Z</time>
      </trkpt>
      <trkpt lat="39.640169000" lon="-8.743352000">
        <ele>324.600000</ele>
        <time>2020-10-17T16:20:23Z</time>
      </trkpt>
      <trkpt lat="39.640158000" lon="-8.743442000">
        <ele>324.600000</ele>
        <time>2020-10-17T16:20:24Z</time>
      </trkpt>
      <trkpt lat="39.640149000" lon="-8.743535000">
        <ele>324.600000</ele>
        <time>2020-10-17T16:20:25Z</time>
      </trkpt>
      <trkpt lat="39.640089000" lon="-8.743914000">
        <ele>324.600000</ele>
        <time>2020-10-17T16:20:29Z</time>
      </trkpt>
      <trkpt lat="39.640061000" lon="-8.744005000">
        <ele>324.400000</ele>
        <time>2020-10-17T16:20:30Z</time>
      </trkpt>
      <trkpt lat="39.639857000" lon="-8.744425000">
        <ele>323.200000</ele>
        <time>2020-10-17T16:20:35Z</time>
      </trkpt>
      <trkpt lat="39.639822000" lon="-8.744499000">
        <ele>323.000000</ele>
        <time>2020-10-17T16:20:36Z</time>
      </trkpt>
      <trkpt lat="39.639784000" lon="-8.744572000">
        <ele>322.600000</ele>
        <time>2020-10-17T16:20:37Z</time>
      </trkpt>
      <trkpt lat="39.639746000" lon="-8.744644000">
        <ele>322.400000</ele>
        <time>2020-10-17T16:20:38Z</time>
      </trkpt>
      <trkpt lat="39.639711000" lon="-8.744712000">
        <ele>322.200000</ele>
        <time>2020-10-17T16:20:39Z</time>
      </trkpt>
      <trkpt lat="39.639677000" lon="-8.744775000">
        <ele>322.200000</ele>
        <time>2020-10-17T16:20:40Z</time>
      </trkpt>
      <trkpt lat="39.639644000" lon="-8.744831000">
        <ele>322.000000</ele>
        <time>2020-10-17T16:20:41Z</time>
      </trkpt>
      <trkpt lat="39.639615000" lon="-8.744884000">
        <ele>322.000000</ele>
        <time>2020-10-17T16:20:42Z</time>
      </trkpt>
      <trkpt lat="39.639589000" lon="-8.744935000">
        <ele>322.000000</ele>
        <time>2020-10-17T16:20:43Z</time>
      </trkpt>
      <trkpt lat="39.639563000" lon="-8.744988000">
        <ele>322.000000</ele>
        <time>2020-10-17T16:20:44Z</time>
      </trkpt>
      <trkpt lat="39.639539000" lon="-8.745040000">
        <ele>322.000000</ele>
        <time>2020-10-17T16:20:45Z</time>
      </trkpt>
      <trkpt lat="39.639514000" lon="-8.745092000">
        <ele>322.000000</ele>
        <time>2020-10-17T16:20:46Z</time>
      </trkpt>
      <trkpt lat="39.639489000" lon="-8.745141000">
        <ele>322.000000</ele>
        <time>2020-10-17T16:20:47Z</time>
      </trkpt>
      <trkpt lat="39.639465000" lon="-8.745188000">
        <ele>322.200000</ele>
        <time>2020-10-17T16:20:48Z</time>
      </trkpt>
      <trkpt lat="39.639445000" lon="-8.745233000">
        <ele>322.400000</ele>
        <time>2020-10-17T16:20:49Z</time>
      </trkpt>
      <trkpt lat="39.639422000" lon="-8.745276000">
        <ele>322.400000</ele>
        <time>2020-10-17T16:20:50Z</time>
      </trkpt>
      <trkpt lat="39.639401000" lon="-8.745317000">
        <ele>322.800000</ele>
        <time>2020-10-17T16:20:51Z</time>
      </trkpt>
      <trkpt lat="39.639382000" lon="-8.745361000">
        <ele>323.000000</ele>
        <time>2020-10-17T16:20:52Z</time>
      </trkpt>
      <trkpt lat="39.639364000" lon="-8.745403000">
        <ele>323.600000</ele>
        <time>2020-10-17T16:20:53Z</time>
      </trkpt>
      <trkpt lat="39.639350000" lon="-8.745446000">
        <ele>323.600000</ele>
        <time>2020-10-17T16:20:54Z</time>
      </trkpt>
      <trkpt lat="39.639329000" lon="-8.745492000">
        <ele>323.800000</ele>
        <time>2020-10-17T16:20:55Z</time>
      </trkpt>
      <trkpt lat="39.639310000" lon="-8.745540000">
        <ele>324.200000</ele>
        <time>2020-10-17T16:20:56Z</time>
      </trkpt>
      <trkpt lat="39.639289000" lon="-8.745591000">
        <ele>324.600000</ele>
        <time>2020-10-17T16:20:57Z</time>
      </trkpt>
      <trkpt lat="39.639268000" lon="-8.745643000">
        <ele>324.800000</ele>
        <time>2020-10-17T16:20:58Z</time>
      </trkpt>
      <trkpt lat="39.639249000" lon="-8.745699000">
        <ele>325.000000</ele>
        <time>2020-10-17T16:20:59Z</time>
      </trkpt>
      <trkpt lat="39.639237000" lon="-8.745756000">
        <ele>325.200000</ele>
        <time>2020-10-17T16:21:00Z</time>
      </trkpt>
      <trkpt lat="39.639223000" lon="-8.745814000">
        <ele>325.400000</ele>
        <time>2020-10-17T16:21:01Z</time>
      </trkpt>
      <trkpt lat="39.639210000" lon="-8.745869000">
        <ele>325.600000</ele>
        <time>2020-10-17T16:21:02Z</time>
      </trkpt>
      <trkpt lat="39.639197000" lon="-8.745925000">
        <ele>325.800000</ele>
        <time>2020-10-17T16:21:03Z</time>
      </trkpt>
      <trkpt lat="39.639180000" lon="-8.745984000">
        <ele>325.800000</ele>
        <time>2020-10-17T16:21:04Z</time>
      </trkpt>
      <trkpt lat="39.639173000" lon="-8.746046000">
        <ele>326.200000</ele>
        <time>2020-10-17T16:21:05Z</time>
      </trkpt>
      <trkpt lat="39.639162000" lon="-8.746107000">
        <ele>326.200000</ele>
        <time>2020-10-17T16:21:06Z</time>
      </trkpt>
      <trkpt lat="39.639148000" lon="-8.746168000">
        <ele>326.200000</ele>
        <time>2020-10-17T16:21:07Z</time>
      </trkpt>
      <trkpt lat="39.639134000" lon="-8.746228000">
        <ele>326.400000</ele>
        <time>2020-10-17T16:21:08Z</time>
      </trkpt>
      <trkpt lat="39.639119000" lon="-8.746289000">
        <ele>326.800000</ele>
        <time>2020-10-17T16:21:09Z</time>
      </trkpt>
      <trkpt lat="39.639104000" lon="-8.746350000">
        <ele>326.800000</ele>
        <time>2020-10-17T16:21:10Z</time>
      </trkpt>
      <trkpt lat="39.639088000" lon="-8.746412000">
        <ele>326.800000</ele>
        <time>2020-10-17T16:21:11Z</time>
      </trkpt>
      <trkpt lat="39.639072000" lon="-8.746475000">
        <ele>327.000000</ele>
        <time>2020-10-17T16:21:12Z</time>
      </trkpt>
      <trkpt lat="39.639055000" lon="-8.746532000">
        <ele>326.800000</ele>
        <time>2020-10-17T16:21:13Z</time>
      </trkpt>
      <trkpt lat="39.639039000" lon="-8.746591000">
        <ele>327.000000</ele>
        <time>2020-10-17T16:21:14Z</time>
      </trkpt>
      <trkpt lat="39.639026000" lon="-8.746646000">
        <ele>327.200000</ele>
        <time>2020-10-17T16:21:15Z</time>
      </trkpt>
      <trkpt lat="39.639016000" lon="-8.746700000">
        <ele>327.600000</ele>
        <time>2020-10-17T16:21:16Z</time>
      </trkpt>
      <trkpt lat="39.639009000" lon="-8.746759000">
        <ele>327.600000</ele>
        <time>2020-10-17T16:21:17Z</time>
      </trkpt>
      <trkpt lat="39.639000000" lon="-8.746813000">
        <ele>327.800000</ele>
        <time>2020-10-17T16:21:18Z</time>
      </trkpt>
      <trkpt lat="39.638989000" lon="-8.746868000">
        <ele>327.800000</ele>
        <time>2020-10-17T16:21:19Z</time>
      </trkpt>
      <trkpt lat="39.638976000" lon="-8.746924000">
        <ele>328.000000</ele>
        <time>2020-10-17T16:21:20Z</time>
      </trkpt>
      <trkpt lat="39.638958000" lon="-8.746981000">
        <ele>328.000000</ele>
        <time>2020-10-17T16:21:21Z</time>
      </trkpt>
      <trkpt lat="39.638936000" lon="-8.747038000">
        <ele>328.200000</ele>
        <time>2020-10-17T16:21:22Z</time>
      </trkpt>
      <trkpt lat="39.638915000" lon="-8.747092000">
        <ele>328.200000</ele>
        <time>2020-10-17T16:21:23Z</time>
      </trkpt>
      <trkpt lat="39.638894000" lon="-8.747146000">
        <ele>328.600000</ele>
        <time>2020-10-17T16:21:24Z</time>
      </trkpt>
      <trkpt lat="39.638871000" lon="-8.747205000">
        <ele>328.600000</ele>
        <time>2020-10-17T16:21:25Z</time>
      </trkpt>
      <trkpt lat="39.638846000" lon="-8.747262000">
        <ele>328.800000</ele>
        <time>2020-10-17T16:21:26Z</time>
      </trkpt>
      <trkpt lat="39.638811000" lon="-8.747325000">
        <ele>329.000000</ele>
        <time>2020-10-17T16:21:27Z</time>
      </trkpt>
      <trkpt lat="39.638770000" lon="-8.747393000">
        <ele>329.000000</ele>
        <time>2020-10-17T16:21:28Z</time>
      </trkpt>
      <trkpt lat="39.638731000" lon="-8.747457000">
        <ele>329.200000</ele>
        <time>2020-10-17T16:21:29Z</time>
      </trkpt>
      <trkpt lat="39.638702000" lon="-8.747518000">
        <ele>329.200000</ele>
        <time>2020-10-17T16:21:30Z</time>
      </trkpt>
      <trkpt lat="39.638671000" lon="-8.747578000">
        <ele>329.400000</ele>
        <time>2020-10-17T16:21:31Z</time>
      </trkpt>
      <trkpt lat="39.638642000" lon="-8.747636000">
        <ele>329.400000</ele>
        <time>2020-10-17T16:21:32Z</time>
      </trkpt>
      <trkpt lat="39.638614000" lon="-8.747693000">
        <ele>329.400000</ele>
        <time>2020-10-17T16:21:33Z</time>
      </trkpt>
      <trkpt lat="39.638589000" lon="-8.747750000">
        <ele>329.600000</ele>
        <time>2020-10-17T16:21:34Z</time>
      </trkpt>
      <trkpt lat="39.638565000" lon="-8.747806000">
        <ele>329.600000</ele>
        <time>2020-10-17T16:21:35Z</time>
      </trkpt>
      <trkpt lat="39.638540000" lon="-8.747861000">
        <ele>329.800000</ele>
        <time>2020-10-17T16:21:36Z</time>
      </trkpt>
      <trkpt lat="39.638513000" lon="-8.747919000">
        <ele>330.000000</ele>
        <time>2020-10-17T16:21:37Z</time>
      </trkpt>
      <trkpt lat="39.638485000" lon="-8.747978000">
        <ele>330.000000</ele>
        <time>2020-10-17T16:21:38Z</time>
      </trkpt>
      <trkpt lat="39.638458000" lon="-8.748036000">
        <ele>330.000000</ele>
        <time>2020-10-17T16:21:39Z</time>
      </trkpt>
      <trkpt lat="39.638433000" lon="-8.748094000">
        <ele>330.200000</ele>
        <time>2020-10-17T16:21:40Z</time>
      </trkpt>
      <trkpt lat="39.638408000" lon="-8.748150000">
        <ele>330.400000</ele>
        <time>2020-10-17T16:21:41Z</time>
      </trkpt>
      <trkpt lat="39.638383000" lon="-8.748208000">
        <ele>330.600000</ele>
        <time>2020-10-17T16:21:42Z</time>
      </trkpt>
      <trkpt lat="39.638359000" lon="-8.748264000">
        <ele>330.600000</ele>
        <time>2020-10-17T16:21:43Z</time>
      </trkpt>
      <trkpt lat="39.638334000" lon="-8.748323000">
        <ele>330.600000</ele>
        <time>2020-10-17T16:21:44Z</time>
      </trkpt>
      <trkpt lat="39.638314000" lon="-8.748382000">
        <ele>330.800000</ele>
        <time>2020-10-17T16:21:45Z</time>
      </trkpt>
      <trkpt lat="39.638296000" lon="-8.748443000">
        <ele>330.800000</ele>
        <time>2020-10-17T16:21:46Z</time>
      </trkpt>
      <trkpt lat="39.638280000" lon="-8.748504000">
        <ele>331.000000</ele>
        <time>2020-10-17T16:21:47Z</time>
      </trkpt>
      <trkpt lat="39.638265000" lon="-8.748567000">
        <ele>331.000000</ele>
        <time>2020-10-17T16:21:48Z</time>
      </trkpt>
      <trkpt lat="39.638247000" lon="-8.748629000">
        <ele>331.200000</ele>
        <time>2020-10-17T16:21:49Z</time>
      </trkpt>
      <trkpt lat="39.638235000" lon="-8.748690000">
        <ele>331.200000</ele>
        <time>2020-10-17T16:21:50Z</time>
      </trkpt>
      <trkpt lat="39.638220000" lon="-8.748880000">
        <ele>331.400000</ele>
        <time>2020-10-17T16:21:53Z</time>
      </trkpt>
      <trkpt lat="39.638214000" lon="-8.748939000">
        <ele>331.600000</ele>
        <time>2020-10-17T16:21:54Z</time>
      </trkpt>
      <trkpt lat="39.638209000" lon="-8.748998000">
        <ele>331.600000</ele>
        <time>2020-10-17T16:21:55Z</time>
      </trkpt>
      <trkpt lat="39.638199000" lon="-8.749287000">
        <ele>331.800000</ele>
        <time>2020-10-17T16:21:59Z</time>
      </trkpt>
      <trkpt lat="39.638202000" lon="-8.749524000">
        <ele>332.000000</ele>
        <time>2020-10-17T16:22:02Z</time>
      </trkpt>
      <trkpt lat="39.638213000" lon="-8.749605000">
        <ele>332.000000</ele>
        <time>2020-10-17T16:22:03Z</time>
      </trkpt>
      <trkpt lat="39.638220000" lon="-8.749762000">
        <ele>332.000000</ele>
        <time>2020-10-17T16:22:05Z</time>
      </trkpt>
      <trkpt lat="39.638231000" lon="-8.749841000">
        <ele>332.000000</ele>
        <time>2020-10-17T16:22:06Z</time>
      </trkpt>
      <trkpt lat="39.638269000" lon="-8.750007000">
        <ele>332.000000</ele>
        <time>2020-10-17T16:22:08Z</time>
      </trkpt>
      <trkpt lat="39.638293000" lon="-8.750080000">
        <ele>332.000000</ele>
        <time>2020-10-17T16:22:09Z</time>
      </trkpt>
      <trkpt lat="39.638381000" lon="-8.750405000">
        <ele>332.000000</ele>
        <time>2020-10-17T16:22:13Z</time>
      </trkpt>
      <trkpt lat="39.638394000" lon="-8.750565000">
        <ele>332.000000</ele>
        <time>2020-10-17T16:22:15Z</time>
      </trkpt>
      <trkpt lat="39.638384000" lon="-8.750639000">
        <ele>331.800000</ele>
        <time>2020-10-17T16:22:16Z</time>
      </trkpt>
      <trkpt lat="39.638367000" lon="-8.750709000">
        <ele>331.800000</ele>
        <time>2020-10-17T16:22:17Z</time>
      </trkpt>
      <trkpt lat="39.638339000" lon="-8.750774000">
        <ele>331.600000</ele>
        <time>2020-10-17T16:22:18Z</time>
      </trkpt>
      <trkpt lat="39.638293000" lon="-8.750832000">
        <ele>331.600000</ele>
        <time>2020-10-17T16:22:19Z</time>
      </trkpt>
      <trkpt lat="39.638239000" lon="-8.750882000">
        <ele>331.600000</ele>
        <time>2020-10-17T16:22:20Z</time>
      </trkpt>
      <trkpt lat="39.638183000" lon="-8.750927000">
        <ele>331.400000</ele>
        <time>2020-10-17T16:22:21Z</time>
      </trkpt>
      <trkpt lat="39.638126000" lon="-8.750968000">
        <ele>331.600000</ele>
        <time>2020-10-17T16:22:22Z</time>
      </trkpt>
      <trkpt lat="39.637908000" lon="-8.751168000">
        <ele>331.400000</ele>
        <time>2020-10-17T16:22:26Z</time>
      </trkpt>
      <trkpt lat="39.637711000" lon="-8.751514000">
        <ele>331.200000</ele>
        <time>2020-10-17T16:22:31Z</time>
      </trkpt>
      <trkpt lat="39.637678000" lon="-8.751587000">
        <ele>331.200000</ele>
        <time>2020-10-17T16:22:32Z</time>
      </trkpt>
      <trkpt lat="39.637538000" lon="-8.751885000">
        <ele>331.000000</ele>
        <time>2020-10-17T16:22:36Z</time>
      </trkpt>
      <trkpt lat="39.637507000" lon="-8.751953000">
        <ele>330.800000</ele>
        <time>2020-10-17T16:22:37Z</time>
      </trkpt>
      <trkpt lat="39.637437000" lon="-8.752095000">
        <ele>330.800000</ele>
        <time>2020-10-17T16:22:39Z</time>
      </trkpt>
      <trkpt lat="39.637302000" lon="-8.752493000">
        <ele>330.600000</ele>
        <time>2020-10-17T16:22:44Z</time>
      </trkpt>
      <trkpt lat="39.637285000" lon="-8.752578000">
        <ele>330.600000</ele>
        <time>2020-10-17T16:22:45Z</time>
      </trkpt>
      <trkpt lat="39.637262000" lon="-8.752754000">
        <ele>330.400000</ele>
        <time>2020-10-17T16:22:47Z</time>
      </trkpt>
      <trkpt lat="39.637251000" lon="-8.752937000">
        <ele>330.200000</ele>
        <time>2020-10-17T16:22:49Z</time>
      </trkpt>
      <trkpt lat="39.637236000" lon="-8.753125000">
        <ele>330.000000</ele>
        <time>2020-10-17T16:22:51Z</time>
      </trkpt>
      <trkpt lat="39.637225000" lon="-8.753216000">
        <ele>329.800000</ele>
        <time>2020-10-17T16:22:52Z</time>
      </trkpt>
      <trkpt lat="39.637199000" lon="-8.753301000">
        <ele>329.600000</ele>
        <time>2020-10-17T16:22:53Z</time>
      </trkpt>
      <trkpt lat="39.637165000" lon="-8.753376000">
        <ele>329.400000</ele>
        <time>2020-10-17T16:22:54Z</time>
      </trkpt>
      <trkpt lat="39.637126000" lon="-8.753439000">
        <ele>329.200000</ele>
        <time>2020-10-17T16:22:55Z</time>
      </trkpt>
      <trkpt lat="39.637073000" lon="-8.753492000">
        <ele>329.000000</ele>
        <time>2020-10-17T16:22:56Z</time>
      </trkpt>
      <trkpt lat="39.637017000" lon="-8.753528000">
        <ele>329.000000</ele>
        <time>2020-10-17T16:22:57Z</time>
      </trkpt>
      <trkpt lat="39.636957000" lon="-8.753552000">
        <ele>328.800000</ele>
        <time>2020-10-17T16:22:58Z</time>
      </trkpt>
      <trkpt lat="39.636897000" lon="-8.753570000">
        <ele>328.200000</ele>
        <time>2020-10-17T16:22:59Z</time>
      </trkpt>
      <trkpt lat="39.636836000" lon="-8.753586000">
        <ele>328.000000</ele>
        <time>2020-10-17T16:23:00Z</time>
      </trkpt>
      <trkpt lat="39.636775000" lon="-8.753599000">
        <ele>327.800000</ele>
        <time>2020-10-17T16:23:01Z</time>
      </trkpt>
      <trkpt lat="39.636586000" lon="-8.753640000">
        <ele>327.400000</ele>
        <time>2020-10-17T16:23:04Z</time>
      </trkpt>
      <trkpt lat="39.636468000" lon="-8.753665000">
        <ele>327.400000</ele>
        <time>2020-10-17T16:23:06Z</time>
      </trkpt>
      <trkpt lat="39.636222000" lon="-8.753749000">
        <ele>327.400000</ele>
        <time>2020-10-17T16:23:10Z</time>
      </trkpt>
      <trkpt lat="39.636165000" lon="-8.753783000">
        <ele>327.200000</ele>
        <time>2020-10-17T16:23:11Z</time>
      </trkpt>
      <trkpt lat="39.636059000" lon="-8.753862000">
        <ele>327.200000</ele>
        <time>2020-10-17T16:23:13Z</time>
      </trkpt>
      <trkpt lat="39.636018000" lon="-8.753920000">
        <ele>327.200000</ele>
        <time>2020-10-17T16:23:14Z</time>
      </trkpt>
      <trkpt lat="39.635976000" lon="-8.753975000">
        <ele>327.200000</ele>
        <time>2020-10-17T16:23:15Z</time>
      </trkpt>
      <trkpt lat="39.635940000" lon="-8.754032000">
        <ele>327.200000</ele>
        <time>2020-10-17T16:23:16Z</time>
      </trkpt>
      <trkpt lat="39.635910000" lon="-8.754088000">
        <ele>327.400000</ele>
        <time>2020-10-17T16:23:17Z</time>
      </trkpt>
      <trkpt lat="39.635878000" lon="-8.754141000">
        <ele>327.400000</ele>
        <time>2020-10-17T16:23:18Z</time>
      </trkpt>
      <trkpt lat="39.635845000" lon="-8.754198000">
        <ele>327.400000</ele>
        <time>2020-10-17T16:23:19Z</time>
      </trkpt>
      <trkpt lat="39.635815000" lon="-8.754259000">
        <ele>327.400000</ele>
        <time>2020-10-17T16:23:20Z</time>
      </trkpt>
      <trkpt lat="39.635540000" lon="-8.754778000">
        <ele>327.400000</ele>
        <time>2020-10-17T16:23:28Z</time>
      </trkpt>
      <trkpt lat="39.635506000" lon="-8.754843000">
        <ele>327.400000</ele>
        <time>2020-10-17T16:23:29Z</time>
      </trkpt>
      <trkpt lat="39.635473000" lon="-8.754904000">
        <ele>327.400000</ele>
        <time>2020-10-17T16:23:30Z</time>
      </trkpt>
      <trkpt lat="39.635371000" lon="-8.755118000">
        <ele>327.400000</ele>
        <time>2020-10-17T16:23:33Z</time>
      </trkpt>
      <trkpt lat="39.635319000" lon="-8.755284000">
        <ele>327.400000</ele>
        <time>2020-10-17T16:23:35Z</time>
      </trkpt>
      <trkpt lat="39.635296000" lon="-8.755456000">
        <ele>327.400000</ele>
        <time>2020-10-17T16:23:37Z</time>
      </trkpt>
      <trkpt lat="39.635299000" lon="-8.755538000">
        <ele>327.400000</ele>
        <time>2020-10-17T16:23:38Z</time>
      </trkpt>
      <trkpt lat="39.635307000" lon="-8.755627000">
        <ele>327.400000</ele>
        <time>2020-10-17T16:23:39Z</time>
      </trkpt>
      <trkpt lat="39.635431000" lon="-8.756184000">
        <ele>326.200000</ele>
        <time>2020-10-17T16:23:45Z</time>
      </trkpt>
      <trkpt lat="39.635462000" lon="-8.756266000">
        <ele>326.200000</ele>
        <time>2020-10-17T16:23:46Z</time>
      </trkpt>
      <trkpt lat="39.635552000" lon="-8.756416000">
        <ele>325.800000</ele>
        <time>2020-10-17T16:23:48Z</time>
      </trkpt>
      <trkpt lat="39.635601000" lon="-8.756481000">
        <ele>325.600000</ele>
        <time>2020-10-17T16:23:49Z</time>
      </trkpt>
      <trkpt lat="39.635653000" lon="-8.756539000">
        <ele>325.600000</ele>
        <time>2020-10-17T16:23:50Z</time>
      </trkpt>
      <trkpt lat="39.635708000" lon="-8.756586000">
        <ele>325.400000</ele>
        <time>2020-10-17T16:23:51Z</time>
      </trkpt>
      <trkpt lat="39.635769000" lon="-8.756629000">
        <ele>325.200000</ele>
        <time>2020-10-17T16:23:52Z</time>
      </trkpt>
      <trkpt lat="39.635838000" lon="-8.756663000">
        <ele>324.800000</ele>
        <time>2020-10-17T16:23:53Z</time>
      </trkpt>
      <trkpt lat="39.635909000" lon="-8.756693000">
        <ele>324.800000</ele>
        <time>2020-10-17T16:23:54Z</time>
      </trkpt>
      <trkpt lat="39.636127000" lon="-8.756783000">
        <ele>323.800000</ele>
        <time>2020-10-17T16:23:57Z</time>
      </trkpt>
      <trkpt lat="39.636365000" lon="-8.756880000">
        <ele>323.000000</ele>
        <time>2020-10-17T16:24:00Z</time>
      </trkpt>
      <trkpt lat="39.636686000" lon="-8.757004000">
        <ele>322.200000</ele>
        <time>2020-10-17T16:24:04Z</time>
      </trkpt>
      <trkpt lat="39.636934000" lon="-8.757102000">
        <ele>321.200000</ele>
        <time>2020-10-17T16:24:07Z</time>
      </trkpt>
      <trkpt lat="39.637015000" lon="-8.757134000">
        <ele>321.000000</ele>
        <time>2020-10-17T16:24:08Z</time>
      </trkpt>
      <trkpt lat="39.637100000" lon="-8.757166000">
        <ele>320.600000</ele>
        <time>2020-10-17T16:24:09Z</time>
      </trkpt>
      <trkpt lat="39.637358000" lon="-8.757251000">
        <ele>319.400000</ele>
        <time>2020-10-17T16:24:12Z</time>
      </trkpt>
      <trkpt lat="39.637451000" lon="-8.757266000">
        <ele>319.000000</ele>
        <time>2020-10-17T16:24:13Z</time>
      </trkpt>
      <trkpt lat="39.637546000" lon="-8.757274000">
        <ele>318.800000</ele>
        <time>2020-10-17T16:24:14Z</time>
      </trkpt>
      <trkpt lat="39.637641000" lon="-8.757273000">
        <ele>318.400000</ele>
        <time>2020-10-17T16:24:15Z</time>
      </trkpt>
      <trkpt lat="39.637738000" lon="-8.757261000">
        <ele>318.000000</ele>
        <time>2020-10-17T16:24:16Z</time>
      </trkpt>
      <trkpt lat="39.637931000" lon="-8.757213000">
        <ele>316.600000</ele>
        <time>2020-10-17T16:24:18Z</time>
      </trkpt>
      <trkpt lat="39.638030000" lon="-8.757184000">
        <ele>316.200000</ele>
        <time>2020-10-17T16:24:19Z</time>
      </trkpt>
      <trkpt lat="39.638131000" lon="-8.757150000">
        <ele>316.000000</ele>
        <time>2020-10-17T16:24:20Z</time>
      </trkpt>
      <trkpt lat="39.638236000" lon="-8.757117000">
        <ele>315.400000</ele>
        <time>2020-10-17T16:24:21Z</time>
      </trkpt>
      <trkpt lat="39.638552000" lon="-8.757015000">
        <ele>314.200000</ele>
        <time>2020-10-17T16:24:24Z</time>
      </trkpt>
      <trkpt lat="39.638659000" lon="-8.756979000">
        <ele>313.600000</ele>
        <time>2020-10-17T16:24:25Z</time>
      </trkpt>
      <trkpt lat="39.638767000" lon="-8.756943000">
        <ele>313.000000</ele>
        <time>2020-10-17T16:24:26Z</time>
      </trkpt>
      <trkpt lat="39.638872000" lon="-8.756909000">
        <ele>312.400000</ele>
        <time>2020-10-17T16:24:27Z</time>
      </trkpt>
      <trkpt lat="39.639087000" lon="-8.756843000">
        <ele>310.800000</ele>
        <time>2020-10-17T16:24:29Z</time>
      </trkpt>
      <trkpt lat="39.639308000" lon="-8.756777000">
        <ele>309.200000</ele>
        <time>2020-10-17T16:24:31Z</time>
      </trkpt>
      <trkpt lat="39.639527000" lon="-8.756703000">
        <ele>307.600000</ele>
        <time>2020-10-17T16:24:33Z</time>
      </trkpt>
      <trkpt lat="39.639633000" lon="-8.756651000">
        <ele>306.600000</ele>
        <time>2020-10-17T16:24:34Z</time>
      </trkpt>
      <trkpt lat="39.639736000" lon="-8.756579000">
        <ele>305.800000</ele>
        <time>2020-10-17T16:24:35Z</time>
      </trkpt>
      <trkpt lat="39.639926000" lon="-8.756390000">
        <ele>304.200000</ele>
        <time>2020-10-17T16:24:37Z</time>
      </trkpt>
      <trkpt lat="39.640017000" lon="-8.756301000">
        <ele>303.400000</ele>
        <time>2020-10-17T16:24:38Z</time>
      </trkpt>
      <trkpt lat="39.640115000" lon="-8.756245000">
        <ele>302.600000</ele>
        <time>2020-10-17T16:24:39Z</time>
      </trkpt>
      <trkpt lat="39.640222000" lon="-8.756223000">
        <ele>301.800000</ele>
        <time>2020-10-17T16:24:40Z</time>
      </trkpt>
      <trkpt lat="39.640334000" lon="-8.756248000">
        <ele>301.000000</ele>
        <time>2020-10-17T16:24:41Z</time>
      </trkpt>
      <trkpt lat="39.640443000" lon="-8.756298000">
        <ele>299.800000</ele>
        <time>2020-10-17T16:24:42Z</time>
      </trkpt>
      <trkpt lat="39.640546000" lon="-8.756361000">
        <ele>299.000000</ele>
        <time>2020-10-17T16:24:43Z</time>
      </trkpt>
      <trkpt lat="39.640644000" lon="-8.756434000">
        <ele>299.000000</ele>
        <time>2020-10-17T16:24:44Z</time>
      </trkpt>
      <trkpt lat="39.640747000" lon="-8.756510000">
        <ele>297.600000</ele>
        <time>2020-10-17T16:24:45Z</time>
      </trkpt>
      <trkpt lat="39.640849000" lon="-8.756580000">
        <ele>296.800000</ele>
        <time>2020-10-17T16:24:46Z</time>
      </trkpt>
      <trkpt lat="39.640954000" lon="-8.756637000">
        <ele>296.200000</ele>
        <time>2020-10-17T16:24:47Z</time>
      </trkpt>
      <trkpt lat="39.641065000" lon="-8.756675000">
        <ele>295.400000</ele>
        <time>2020-10-17T16:24:48Z</time>
      </trkpt>
      <trkpt lat="39.641179000" lon="-8.756702000">
        <ele>294.800000</ele>
        <time>2020-10-17T16:24:49Z</time>
      </trkpt>
      <trkpt lat="39.641291000" lon="-8.756723000">
        <ele>293.800000</ele>
        <time>2020-10-17T16:24:50Z</time>
      </trkpt>
      <trkpt lat="39.641406000" lon="-8.756739000">
        <ele>292.800000</ele>
        <time>2020-10-17T16:24:51Z</time>
      </trkpt>
      <trkpt lat="39.641521000" lon="-8.756752000">
        <ele>292.000000</ele>
        <time>2020-10-17T16:24:52Z</time>
      </trkpt>
      <trkpt lat="39.641755000" lon="-8.756774000">
        <ele>290.200000</ele>
        <time>2020-10-17T16:24:54Z</time>
      </trkpt>
      <trkpt lat="39.641876000" lon="-8.756776000">
        <ele>289.200000</ele>
        <time>2020-10-17T16:24:55Z</time>
      </trkpt>
      <trkpt lat="39.641996000" lon="-8.756776000">
        <ele>288.000000</ele>
        <time>2020-10-17T16:24:56Z</time>
      </trkpt>
      <trkpt lat="39.642115000" lon="-8.756772000">
        <ele>287.200000</ele>
        <time>2020-10-17T16:24:57Z</time>
      </trkpt>
      <trkpt lat="39.642357000" lon="-8.756763000">
        <ele>285.400000</ele>
        <time>2020-10-17T16:24:59Z</time>
      </trkpt>
      <trkpt lat="39.642594000" lon="-8.756753000">
        <ele>283.400000</ele>
        <time>2020-10-17T16:25:01Z</time>
      </trkpt>
      <trkpt lat="39.642714000" lon="-8.756747000">
        <ele>282.800000</ele>
        <time>2020-10-17T16:25:02Z</time>
      </trkpt>
      <trkpt lat="39.642837000" lon="-8.756741000">
        <ele>281.800000</ele>
        <time>2020-10-17T16:25:03Z</time>
      </trkpt>
      <trkpt lat="39.642955000" lon="-8.756737000">
        <ele>281.000000</ele>
        <time>2020-10-17T16:25:04Z</time>
      </trkpt>
      <trkpt lat="39.643074000" lon="-8.756728000">
        <ele>279.800000</ele>
        <time>2020-10-17T16:25:05Z</time>
      </trkpt>
      <trkpt lat="39.643441000" lon="-8.756719000">
        <ele>278.200000</ele>
        <time>2020-10-17T16:25:08Z</time>
      </trkpt>
      <trkpt lat="39.643561000" lon="-8.756735000">
        <ele>277.600000</ele>
        <time>2020-10-17T16:25:09Z</time>
      </trkpt>
      <trkpt lat="39.643679000" lon="-8.756773000">
        <ele>276.600000</ele>
        <time>2020-10-17T16:25:10Z</time>
      </trkpt>
      <trkpt lat="39.643794000" lon="-8.756831000">
        <ele>275.800000</ele>
        <time>2020-10-17T16:25:11Z</time>
      </trkpt>
      <trkpt lat="39.643908000" lon="-8.756891000">
        <ele>274.800000</ele>
        <time>2020-10-17T16:25:12Z</time>
      </trkpt>
      <trkpt lat="39.644024000" lon="-8.756938000">
        <ele>274.000000</ele>
        <time>2020-10-17T16:25:13Z</time>
      </trkpt>
      <trkpt lat="39.644142000" lon="-8.756961000">
        <ele>273.000000</ele>
        <time>2020-10-17T16:25:14Z</time>
      </trkpt>
      <trkpt lat="39.644261000" lon="-8.756949000">
        <ele>272.200000</ele>
        <time>2020-10-17T16:25:15Z</time>
      </trkpt>
      <trkpt lat="39.644378000" lon="-8.756888000">
        <ele>271.400000</ele>
        <time>2020-10-17T16:25:16Z</time>
      </trkpt>
      <trkpt lat="39.644482000" lon="-8.756787000">
        <ele>270.600000</ele>
        <time>2020-10-17T16:25:17Z</time>
      </trkpt>
      <trkpt lat="39.644569000" lon="-8.756671000">
        <ele>269.800000</ele>
        <time>2020-10-17T16:25:18Z</time>
      </trkpt>
      <trkpt lat="39.644647000" lon="-8.756554000">
        <ele>268.800000</ele>
        <time>2020-10-17T16:25:19Z</time>
      </trkpt>
      <trkpt lat="39.644727000" lon="-8.756453000">
        <ele>267.800000</ele>
        <time>2020-10-17T16:25:20Z</time>
      </trkpt>
      <trkpt lat="39.644818000" lon="-8.756392000">
        <ele>266.800000</ele>
        <time>2020-10-17T16:25:21Z</time>
      </trkpt>
      <trkpt lat="39.644918000" lon="-8.756373000">
        <ele>265.600000</ele>
        <time>2020-10-17T16:25:22Z</time>
      </trkpt>
      <trkpt lat="39.644999000" lon="-8.756372000">
        <ele>264.600000</ele>
        <time>2020-10-17T16:25:23Z</time>
      </trkpt>
      <trkpt lat="39.645089000" lon="-8.756415000">
        <ele>263.400000</ele>
        <time>2020-10-17T16:25:24Z</time>
      </trkpt>
      <trkpt lat="39.645164000" lon="-8.756452000">
        <ele>262.000000</ele>
        <time>2020-10-17T16:25:25Z</time>
      </trkpt>
      <trkpt lat="39.645217000" lon="-8.756499000">
        <ele>261.200000</ele>
        <time>2020-10-17T16:25:26Z</time>
      </trkpt>
      <trkpt lat="39.645234000" lon="-8.756546000">
        <ele>261.200000</ele>
        <time>2020-10-17T16:25:27Z</time>
      </trkpt>
      <trkpt lat="39.645255000" lon="-8.756579000">
        <ele>260.400000</ele>
        <time>2020-10-17T16:25:28Z</time>
      </trkpt>
      <trkpt lat="39.645103000" lon="-8.756716000">
        <ele>259.800000</ele>
        <time>2020-10-17T16:25:29Z</time>
      </trkpt>
      <trkpt lat="39.644974000" lon="-8.756838000">
        <ele>259.200000</ele>
        <time>2020-10-17T16:25:30Z</time>
      </trkpt>
      <trkpt lat="39.644716000" lon="-8.757083000">
        <ele>258.400000</ele>
        <time>2020-10-17T16:25:31Z</time>
      </trkpt>
      <trkpt lat="39.644597000" lon="-8.757177000">
        <ele>257.400000</ele>
        <time>2020-10-17T16:25:32Z</time>
      </trkpt>
      <trkpt lat="39.644479000" lon="-8.757267000">
        <ele>256.800000</ele>
        <time>2020-10-17T16:25:33Z</time>
      </trkpt>
      <trkpt lat="39.644366000" lon="-8.757340000">
        <ele>255.800000</ele>
        <time>2020-10-17T16:25:34Z</time>
      </trkpt>
      <trkpt lat="39.644255000" lon="-8.757392000">
        <ele>254.600000</ele>
        <time>2020-10-17T16:25:35Z</time>
      </trkpt>
      <trkpt lat="39.644153000" lon="-8.757429000">
        <ele>254.000000</ele>
        <time>2020-10-17T16:25:36Z</time>
      </trkpt>
      <trkpt lat="39.643953000" lon="-8.757477000">
        <ele>252.200000</ele>
        <time>2020-10-17T16:25:38Z</time>
      </trkpt>
      <trkpt lat="39.643751000" lon="-8.757511000">
        <ele>250.400000</ele>
        <time>2020-10-17T16:25:40Z</time>
      </trkpt>
      <trkpt lat="39.643647000" lon="-8.757528000">
        <ele>249.800000</ele>
        <time>2020-10-17T16:25:41Z</time>
      </trkpt>
      <trkpt lat="39.643539000" lon="-8.757542000">
        <ele>249.200000</ele>
        <time>2020-10-17T16:25:42Z</time>
      </trkpt>
      <trkpt lat="39.643326000" lon="-8.757569000">
        <ele>248.800000</ele>
        <time>2020-10-17T16:25:44Z</time>
      </trkpt>
      <trkpt lat="39.643109000" lon="-8.757597000">
        <ele>248.200000</ele>
        <time>2020-10-17T16:25:46Z</time>
      </trkpt>
      <trkpt lat="39.642998000" lon="-8.757610000">
        <ele>247.600000</ele>
        <time>2020-10-17T16:25:47Z</time>
      </trkpt>
      <trkpt lat="39.642885000" lon="-8.757629000">
        <ele>247.000000</ele>
        <time>2020-10-17T16:25:48Z</time>
      </trkpt>
      <trkpt lat="39.642656000" lon="-8.757697000">
        <ele>246.200000</ele>
        <time>2020-10-17T16:25:50Z</time>
      </trkpt>
      <trkpt lat="39.642546000" lon="-8.757751000">
        <ele>245.000000</ele>
        <time>2020-10-17T16:25:51Z</time>
      </trkpt>
      <trkpt lat="39.642448000" lon="-8.757821000">
        <ele>244.000000</ele>
        <time>2020-10-17T16:25:52Z</time>
      </trkpt>
      <trkpt lat="39.642362000" lon="-8.757903000">
        <ele>243.000000</ele>
        <time>2020-10-17T16:25:53Z</time>
      </trkpt>
      <trkpt lat="39.642301000" lon="-8.757999000">
        <ele>242.200000</ele>
        <time>2020-10-17T16:25:54Z</time>
      </trkpt>
      <trkpt lat="39.642265000" lon="-8.758117000">
        <ele>241.200000</ele>
        <time>2020-10-17T16:25:55Z</time>
      </trkpt>
      <trkpt lat="39.642253000" lon="-8.758254000">
        <ele>240.600000</ele>
        <time>2020-10-17T16:25:56Z</time>
      </trkpt>
      <trkpt lat="39.642288000" lon="-8.758384000">
        <ele>240.000000</ele>
        <time>2020-10-17T16:25:57Z</time>
      </trkpt>
      <trkpt lat="39.642324000" lon="-8.758513000">
        <ele>239.000000</ele>
        <time>2020-10-17T16:25:58Z</time>
      </trkpt>
      <trkpt lat="39.642366000" lon="-8.758640000">
        <ele>238.000000</ele>
        <time>2020-10-17T16:25:59Z</time>
      </trkpt>
      <trkpt lat="39.642420000" lon="-8.758765000">
        <ele>237.000000</ele>
        <time>2020-10-17T16:26:00Z</time>
      </trkpt>
      <trkpt lat="39.642473000" lon="-8.758895000">
        <ele>236.200000</ele>
        <time>2020-10-17T16:26:01Z</time>
      </trkpt>
      <trkpt lat="39.642528000" lon="-8.759027000">
        <ele>235.400000</ele>
        <time>2020-10-17T16:26:02Z</time>
      </trkpt>
      <trkpt lat="39.642578000" lon="-8.759158000">
        <ele>234.400000</ele>
        <time>2020-10-17T16:26:03Z</time>
      </trkpt>
      <trkpt lat="39.642634000" lon="-8.759294000">
        <ele>233.600000</ele>
        <time>2020-10-17T16:26:04Z</time>
      </trkpt>
      <trkpt lat="39.642740000" lon="-8.759562000">
        <ele>231.400000</ele>
        <time>2020-10-17T16:26:06Z</time>
      </trkpt>
      <trkpt lat="39.642852000" lon="-8.759831000">
        <ele>230.000000</ele>
        <time>2020-10-17T16:26:08Z</time>
      </trkpt>
      <trkpt lat="39.642906000" lon="-8.759963000">
        <ele>229.200000</ele>
        <time>2020-10-17T16:26:09Z</time>
      </trkpt>
      <trkpt lat="39.643009000" lon="-8.760228000">
        <ele>228.400000</ele>
        <time>2020-10-17T16:26:11Z</time>
      </trkpt>
      <trkpt lat="39.643102000" lon="-8.760511000">
        <ele>226.600000</ele>
        <time>2020-10-17T16:26:13Z</time>
      </trkpt>
      <trkpt lat="39.643124000" lon="-8.760659000">
        <ele>226.000000</ele>
        <time>2020-10-17T16:26:14Z</time>
      </trkpt>
      <trkpt lat="39.643141000" lon="-8.760811000">
        <ele>225.000000</ele>
        <time>2020-10-17T16:26:15Z</time>
      </trkpt>
      <trkpt lat="39.643161000" lon="-8.761112000">
        <ele>223.200000</ele>
        <time>2020-10-17T16:26:17Z</time>
      </trkpt>
      <trkpt lat="39.643193000" lon="-8.761433000">
        <ele>221.400000</ele>
        <time>2020-10-17T16:26:19Z</time>
      </trkpt>
      <trkpt lat="39.643199000" lon="-8.761584000">
        <ele>220.000000</ele>
        <time>2020-10-17T16:26:20Z</time>
      </trkpt>
      <trkpt lat="39.643202000" lon="-8.761731000">
        <ele>219.200000</ele>
        <time>2020-10-17T16:26:21Z</time>
      </trkpt>
      <trkpt lat="39.643207000" lon="-8.761869000">
        <ele>218.400000</ele>
        <time>2020-10-17T16:26:22Z</time>
      </trkpt>
      <trkpt lat="39.643211000" lon="-8.761987000">
        <ele>217.600000</ele>
        <time>2020-10-17T16:26:23Z</time>
      </trkpt>
      <trkpt lat="39.643213000" lon="-8.762079000">
        <ele>216.400000</ele>
        <time>2020-10-17T16:26:24Z</time>
      </trkpt>
      <trkpt lat="39.643224000" lon="-8.762153000">
        <ele>215.400000</ele>
        <time>2020-10-17T16:26:25Z</time>
      </trkpt>
      <trkpt lat="39.643242000" lon="-8.762190000">
        <ele>214.600000</ele>
        <time>2020-10-17T16:26:26Z</time>
      </trkpt>
      <trkpt lat="39.643277000" lon="-8.762209000">
        <ele>213.600000</ele>
        <time>2020-10-17T16:26:27Z</time>
      </trkpt>
      <trkpt lat="39.643319000" lon="-8.762200000">
        <ele>212.800000</ele>
        <time>2020-10-17T16:26:28Z</time>
      </trkpt>
      <trkpt lat="39.643369000" lon="-8.762171000">
        <ele>211.800000</ele>
        <time>2020-10-17T16:26:29Z</time>
      </trkpt>
      <trkpt lat="39.643425000" lon="-8.762141000">
        <ele>211.000000</ele>
        <time>2020-10-17T16:26:30Z</time>
      </trkpt>
      <trkpt lat="39.643546000" lon="-8.762093000">
        <ele>210.400000</ele>
        <time>2020-10-17T16:26:32Z</time>
      </trkpt>
      <trkpt lat="39.643609000" lon="-8.762076000">
        <ele>209.800000</ele>
        <time>2020-10-17T16:26:33Z</time>
      </trkpt>
      <trkpt lat="39.643671000" lon="-8.762074000">
        <ele>209.400000</ele>
        <time>2020-10-17T16:26:34Z</time>
      </trkpt>
      <trkpt lat="39.643735000" lon="-8.762089000">
        <ele>209.200000</ele>
        <time>2020-10-17T16:26:35Z</time>
      </trkpt>
      <trkpt lat="39.643798000" lon="-8.762117000">
        <ele>208.800000</ele>
        <time>2020-10-17T16:26:36Z</time>
      </trkpt>
      <trkpt lat="39.643862000" lon="-8.762155000">
        <ele>208.400000</ele>
        <time>2020-10-17T16:26:37Z</time>
      </trkpt>
      <trkpt lat="39.643923000" lon="-8.762204000">
        <ele>208.200000</ele>
        <time>2020-10-17T16:26:38Z</time>
      </trkpt>
      <trkpt lat="39.643977000" lon="-8.762266000">
        <ele>207.800000</ele>
        <time>2020-10-17T16:26:39Z</time>
      </trkpt>
      <trkpt lat="39.644028000" lon="-8.762335000">
        <ele>207.600000</ele>
        <time>2020-10-17T16:26:40Z</time>
      </trkpt>
      <trkpt lat="39.644076000" lon="-8.762408000">
        <ele>207.000000</ele>
        <time>2020-10-17T16:26:41Z</time>
      </trkpt>
      <trkpt lat="39.644124000" lon="-8.762486000">
        <ele>206.200000</ele>
        <time>2020-10-17T16:26:42Z</time>
      </trkpt>
      <trkpt lat="39.644228000" lon="-8.762652000">
        <ele>204.600000</ele>
        <time>2020-10-17T16:26:44Z</time>
      </trkpt>
      <trkpt lat="39.644283000" lon="-8.762740000">
        <ele>203.800000</ele>
        <time>2020-10-17T16:26:45Z</time>
      </trkpt>
      <trkpt lat="39.644341000" lon="-8.762830000">
        <ele>203.200000</ele>
        <time>2020-10-17T16:26:46Z</time>
      </trkpt>
      <trkpt lat="39.644462000" lon="-8.763015000">
        <ele>201.200000</ele>
        <time>2020-10-17T16:26:48Z</time>
      </trkpt>
      <trkpt lat="39.644531000" lon="-8.763111000">
        <ele>200.400000</ele>
        <time>2020-10-17T16:26:49Z</time>
      </trkpt>
      <trkpt lat="39.644604000" lon="-8.763207000">
        <ele>199.400000</ele>
        <time>2020-10-17T16:26:50Z</time>
      </trkpt>
      <trkpt lat="39.644680000" lon="-8.763300000">
        <ele>198.200000</ele>
        <time>2020-10-17T16:26:51Z</time>
      </trkpt>
      <trkpt lat="39.644832000" lon="-8.763483000">
        <ele>197.200000</ele>
        <time>2020-10-17T16:26:53Z</time>
      </trkpt>
      <trkpt lat="39.644909000" lon="-8.763576000">
        <ele>196.400000</ele>
        <time>2020-10-17T16:26:54Z</time>
      </trkpt>
      <trkpt lat="39.644978000" lon="-8.763660000">
        <ele>195.200000</ele>
        <time>2020-10-17T16:26:55Z</time>
      </trkpt>
      <trkpt lat="39.645040000" lon="-8.763739000">
        <ele>194.200000</ele>
        <time>2020-10-17T16:26:56Z</time>
      </trkpt>
      <trkpt lat="39.645094000" lon="-8.763806000">
        <ele>193.200000</ele>
        <time>2020-10-17T16:26:57Z</time>
      </trkpt>
      <trkpt lat="39.645140000" lon="-8.763864000">
        <ele>192.000000</ele>
        <time>2020-10-17T16:26:58Z</time>
      </trkpt>
      <trkpt lat="39.645180000" lon="-8.763913000">
        <ele>190.800000</ele>
        <time>2020-10-17T16:26:59Z</time>
      </trkpt>
      <trkpt lat="39.645216000" lon="-8.763957000">
        <ele>190.000000</ele>
        <time>2020-10-17T16:27:00Z</time>
      </trkpt>
      <trkpt lat="39.645256000" lon="-8.763999000">
        <ele>188.600000</ele>
        <time>2020-10-17T16:27:01Z</time>
      </trkpt>
      <trkpt lat="39.645296000" lon="-8.764041000">
        <ele>187.600000</ele>
        <time>2020-10-17T16:27:02Z</time>
      </trkpt>
      <trkpt lat="39.645392000" lon="-8.764118000">
        <ele>185.800000</ele>
        <time>2020-10-17T16:27:04Z</time>
      </trkpt>
      <trkpt lat="39.645447000" lon="-8.764145000">
        <ele>185.000000</ele>
        <time>2020-10-17T16:27:05Z</time>
      </trkpt>
      <trkpt lat="39.645508000" lon="-8.764169000">
        <ele>184.600000</ele>
        <time>2020-10-17T16:27:06Z</time>
      </trkpt>
      <trkpt lat="39.645715000" lon="-8.764247000">
        <ele>183.000000</ele>
        <time>2020-10-17T16:27:09Z</time>
      </trkpt>
      <trkpt lat="39.645789000" lon="-8.764276000">
        <ele>182.400000</ele>
        <time>2020-10-17T16:27:10Z</time>
      </trkpt>
      <trkpt lat="39.645872000" lon="-8.764310000">
        <ele>181.800000</ele>
        <time>2020-10-17T16:27:11Z</time>
      </trkpt>
      <trkpt lat="39.646035000" lon="-8.764384000">
        <ele>181.000000</ele>
        <time>2020-10-17T16:27:13Z</time>
      </trkpt>
      <trkpt lat="39.646202000" lon="-8.764481000">
        <ele>180.400000</ele>
        <time>2020-10-17T16:27:15Z</time>
      </trkpt>
      <trkpt lat="39.646284000" lon="-8.764535000">
        <ele>179.600000</ele>
        <time>2020-10-17T16:27:16Z</time>
      </trkpt>
      <trkpt lat="39.646453000" lon="-8.764652000">
        <ele>178.800000</ele>
        <time>2020-10-17T16:27:18Z</time>
      </trkpt>
      <trkpt lat="39.646539000" lon="-8.764714000">
        <ele>178.400000</ele>
        <time>2020-10-17T16:27:19Z</time>
      </trkpt>
      <trkpt lat="39.646709000" lon="-8.764859000">
        <ele>177.000000</ele>
        <time>2020-10-17T16:27:21Z</time>
      </trkpt>
      <trkpt lat="39.646788000" lon="-8.764943000">
        <ele>176.400000</ele>
        <time>2020-10-17T16:27:22Z</time>
      </trkpt>
      <trkpt lat="39.646865000" lon="-8.765030000">
        <ele>175.600000</ele>
        <time>2020-10-17T16:27:23Z</time>
      </trkpt>
      <trkpt lat="39.646939000" lon="-8.765116000">
        <ele>174.800000</ele>
        <time>2020-10-17T16:27:24Z</time>
      </trkpt>
      <trkpt lat="39.647012000" lon="-8.765197000">
        <ele>174.400000</ele>
        <time>2020-10-17T16:27:25Z</time>
      </trkpt>
      <trkpt lat="39.647078000" lon="-8.765270000">
        <ele>173.400000</ele>
        <time>2020-10-17T16:27:26Z</time>
      </trkpt>
      <trkpt lat="39.647137000" lon="-8.765342000">
        <ele>172.600000</ele>
        <time>2020-10-17T16:27:27Z</time>
      </trkpt>
      <trkpt lat="39.647191000" lon="-8.765419000">
        <ele>171.400000</ele>
        <time>2020-10-17T16:27:28Z</time>
      </trkpt>
      <trkpt lat="39.647238000" lon="-8.765504000">
        <ele>170.800000</ele>
        <time>2020-10-17T16:27:29Z</time>
      </trkpt>
      <trkpt lat="39.647280000" lon="-8.765596000">
        <ele>170.400000</ele>
        <time>2020-10-17T16:27:30Z</time>
      </trkpt>
      <trkpt lat="39.647314000" lon="-8.765692000">
        <ele>170.000000</ele>
        <time>2020-10-17T16:27:31Z</time>
      </trkpt>
      <trkpt lat="39.647341000" lon="-8.765790000">
        <ele>168.800000</ele>
        <time>2020-10-17T16:27:32Z</time>
      </trkpt>
      <trkpt lat="39.647362000" lon="-8.765893000">
        <ele>167.800000</ele>
        <time>2020-10-17T16:27:33Z</time>
      </trkpt>
      <trkpt lat="39.647402000" lon="-8.766225000">
        <ele>166.800000</ele>
        <time>2020-10-17T16:27:36Z</time>
      </trkpt>
      <trkpt lat="39.647423000" lon="-8.766459000">
        <ele>165.600000</ele>
        <time>2020-10-17T16:27:38Z</time>
      </trkpt>
      <trkpt lat="39.647464000" lon="-8.766682000">
        <ele>164.400000</ele>
        <time>2020-10-17T16:27:40Z</time>
      </trkpt>
      <trkpt lat="39.647500000" lon="-8.766774000">
        <ele>163.800000</ele>
        <time>2020-10-17T16:27:41Z</time>
      </trkpt>
      <trkpt lat="39.647541000" lon="-8.766852000">
        <ele>162.800000</ele>
        <time>2020-10-17T16:27:42Z</time>
      </trkpt>
      <trkpt lat="39.647584000" lon="-8.766919000">
        <ele>162.400000</ele>
        <time>2020-10-17T16:27:43Z</time>
      </trkpt>
      <trkpt lat="39.647614000" lon="-8.766988000">
        <ele>161.800000</ele>
        <time>2020-10-17T16:27:44Z</time>
      </trkpt>
      <trkpt lat="39.647634000" lon="-8.767058000">
        <ele>161.200000</ele>
        <time>2020-10-17T16:27:45Z</time>
      </trkpt>
      <trkpt lat="39.647638000" lon="-8.767122000">
        <ele>160.400000</ele>
        <time>2020-10-17T16:27:46Z</time>
      </trkpt>
      <trkpt lat="39.647633000" lon="-8.767188000">
        <ele>160.000000</ele>
        <time>2020-10-17T16:27:47Z</time>
      </trkpt>
      <trkpt lat="39.647626000" lon="-8.767256000">
        <ele>159.600000</ele>
        <time>2020-10-17T16:27:48Z</time>
      </trkpt>
      <trkpt lat="39.647618000" lon="-8.767320000">
        <ele>159.400000</ele>
        <time>2020-10-17T16:27:49Z</time>
      </trkpt>
      <trkpt lat="39.647611000" lon="-8.767381000">
        <ele>159.200000</ele>
        <time>2020-10-17T16:27:50Z</time>
      </trkpt>
      <trkpt lat="39.647601000" lon="-8.767444000">
        <ele>159.200000</ele>
        <time>2020-10-17T16:27:51Z</time>
      </trkpt>
      <trkpt lat="39.647531000" lon="-8.767840000">
        <ele>159.000000</ele>
        <time>2020-10-17T16:27:57Z</time>
      </trkpt>
      <trkpt lat="39.647512000" lon="-8.767904000">
        <ele>159.000000</ele>
        <time>2020-10-17T16:27:58Z</time>
      </trkpt>
      <trkpt lat="39.647465000" lon="-8.768033000">
        <ele>158.800000</ele>
        <time>2020-10-17T16:28:00Z</time>
      </trkpt>
      <trkpt lat="39.647353000" lon="-8.768321000">
        <ele>159.000000</ele>
        <time>2020-10-17T16:28:04Z</time>
      </trkpt>
      <trkpt lat="39.647301000" lon="-8.768492000">
        <ele>158.800000</ele>
        <time>2020-10-17T16:28:06Z</time>
      </trkpt>
      <trkpt lat="39.647253000" lon="-8.768686000">
        <ele>158.800000</ele>
        <time>2020-10-17T16:28:08Z</time>
      </trkpt>
      <trkpt lat="39.647226000" lon="-8.768785000">
        <ele>158.800000</ele>
        <time>2020-10-17T16:28:09Z</time>
      </trkpt>
      <trkpt lat="39.647203000" lon="-8.768883000">
        <ele>158.600000</ele>
        <time>2020-10-17T16:28:10Z</time>
      </trkpt>
      <trkpt lat="39.647177000" lon="-8.768974000">
        <ele>158.600000</ele>
        <time>2020-10-17T16:28:11Z</time>
      </trkpt>
      <trkpt lat="39.647159000" lon="-8.769058000">
        <ele>158.400000</ele>
        <time>2020-10-17T16:28:12Z</time>
      </trkpt>
      <trkpt lat="39.647159000" lon="-8.769126000">
        <ele>158.000000</ele>
        <time>2020-10-17T16:28:13Z</time>
      </trkpt>
      <trkpt lat="39.647172000" lon="-8.769187000">
        <ele>157.400000</ele>
        <time>2020-10-17T16:28:14Z</time>
      </trkpt>
      <trkpt lat="39.647197000" lon="-8.769230000">
        <ele>156.800000</ele>
        <time>2020-10-17T16:28:15Z</time>
      </trkpt>
      <trkpt lat="39.647235000" lon="-8.769254000">
        <ele>156.000000</ele>
        <time>2020-10-17T16:28:16Z</time>
      </trkpt>
      <trkpt lat="39.647278000" lon="-8.769273000">
        <ele>156.000000</ele>
        <time>2020-10-17T16:28:17Z</time>
      </trkpt>
      <trkpt lat="39.647322000" lon="-8.769295000">
        <ele>155.200000</ele>
        <time>2020-10-17T16:28:18Z</time>
      </trkpt>
      <trkpt lat="39.647365000" lon="-8.769322000">
        <ele>154.400000</ele>
        <time>2020-10-17T16:28:19Z</time>
      </trkpt>
      <trkpt lat="39.647405000" lon="-8.769357000">
        <ele>154.000000</ele>
        <time>2020-10-17T16:28:20Z</time>
      </trkpt>
      <trkpt lat="39.647439000" lon="-8.769399000">
        <ele>153.800000</ele>
        <time>2020-10-17T16:28:21Z</time>
      </trkpt>
      <trkpt lat="39.647465000" lon="-8.769451000">
        <ele>153.400000</ele>
        <time>2020-10-17T16:28:22Z</time>
      </trkpt>
      <trkpt lat="39.647480000" lon="-8.769508000">
        <ele>153.200000</ele>
        <time>2020-10-17T16:28:23Z</time>
      </trkpt>
      <trkpt lat="39.647487000" lon="-8.769571000">
        <ele>153.000000</ele>
        <time>2020-10-17T16:28:24Z</time>
      </trkpt>
      <trkpt lat="39.647486000" lon="-8.769636000">
        <ele>153.000000</ele>
        <time>2020-10-17T16:28:25Z</time>
      </trkpt>
      <trkpt lat="39.647480000" lon="-8.769699000">
        <ele>153.000000</ele>
        <time>2020-10-17T16:28:26Z</time>
      </trkpt>
      <trkpt lat="39.647474000" lon="-8.769762000">
        <ele>153.000000</ele>
        <time>2020-10-17T16:28:27Z</time>
      </trkpt>
      <trkpt lat="39.647468000" lon="-8.769826000">
        <ele>153.000000</ele>
        <time>2020-10-17T16:28:28Z</time>
      </trkpt>
      <trkpt lat="39.647462000" lon="-8.769885000">
        <ele>153.000000</ele>
        <time>2020-10-17T16:28:29Z</time>
      </trkpt>
      <trkpt lat="39.647453000" lon="-8.769939000">
        <ele>153.000000</ele>
        <time>2020-10-17T16:28:30Z</time>
      </trkpt>
      <trkpt lat="39.647445000" lon="-8.769989000">
        <ele>153.000000</ele>
        <time>2020-10-17T16:28:31Z</time>
      </trkpt>
      <trkpt lat="39.647440000" lon="-8.770040000">
        <ele>153.000000</ele>
        <time>2020-10-17T16:28:32Z</time>
      </trkpt>
      <trkpt lat="39.647436000" lon="-8.770089000">
        <ele>153.000000</ele>
        <time>2020-10-17T16:28:33Z</time>
      </trkpt>
      <trkpt lat="39.647431000" lon="-8.770138000">
        <ele>153.000000</ele>
        <time>2020-10-17T16:28:34Z</time>
      </trkpt>
      <trkpt lat="39.647430000" lon="-8.770186000">
        <ele>153.000000</ele>
        <time>2020-10-17T16:28:35Z</time>
      </trkpt>
      <trkpt lat="39.647429000" lon="-8.770232000">
        <ele>153.200000</ele>
        <time>2020-10-17T16:28:36Z</time>
      </trkpt>
      <trkpt lat="39.647429000" lon="-8.770277000">
        <ele>153.400000</ele>
        <time>2020-10-17T16:28:37Z</time>
      </trkpt>
      <trkpt lat="39.647428000" lon="-8.770322000">
        <ele>153.400000</ele>
        <time>2020-10-17T16:28:38Z</time>
      </trkpt>
      <trkpt lat="39.647429000" lon="-8.770363000">
        <ele>153.600000</ele>
        <time>2020-10-17T16:28:39Z</time>
      </trkpt>
      <trkpt lat="39.647433000" lon="-8.770401000">
        <ele>153.600000</ele>
        <time>2020-10-17T16:28:40Z</time>
      </trkpt>
      <trkpt lat="39.647441000" lon="-8.770436000">
        <ele>153.800000</ele>
        <time>2020-10-17T16:28:41Z</time>
      </trkpt>
      <trkpt lat="39.647451000" lon="-8.770467000">
        <ele>154.200000</ele>
        <time>2020-10-17T16:28:42Z</time>
      </trkpt>
      <trkpt lat="39.647462000" lon="-8.770500000">
        <ele>154.400000</ele>
        <time>2020-10-17T16:28:43Z</time>
      </trkpt>
      <trkpt lat="39.647473000" lon="-8.770532000">
        <ele>154.600000</ele>
        <time>2020-10-17T16:28:44Z</time>
      </trkpt>
      <trkpt lat="39.647486000" lon="-8.770561000">
        <ele>155.000000</ele>
        <time>2020-10-17T16:28:45Z</time>
      </trkpt>
      <trkpt lat="39.647496000" lon="-8.770589000">
        <ele>155.400000</ele>
        <time>2020-10-17T16:28:46Z</time>
      </trkpt>
      <trkpt lat="39.647504000" lon="-8.770615000">
        <ele>156.000000</ele>
        <time>2020-10-17T16:28:47Z</time>
      </trkpt>
      <trkpt lat="39.647514000" lon="-8.770644000">
        <ele>156.000000</ele>
        <time>2020-10-17T16:28:48Z</time>
      </trkpt>
      <trkpt lat="39.647534000" lon="-8.770670000">
        <ele>156.400000</ele>
        <time>2020-10-17T16:28:49Z</time>
      </trkpt>
      <trkpt lat="39.647552000" lon="-8.770696000">
        <ele>156.400000</ele>
        <time>2020-10-17T16:28:50Z</time>
      </trkpt>
      <trkpt lat="39.647574000" lon="-8.770722000">
        <ele>157.000000</ele>
        <time>2020-10-17T16:28:51Z</time>
      </trkpt>
      <trkpt lat="39.647596000" lon="-8.770745000">
        <ele>157.400000</ele>
        <time>2020-10-17T16:28:52Z</time>
      </trkpt>
      <trkpt lat="39.647618000" lon="-8.770762000">
        <ele>157.800000</ele>
        <time>2020-10-17T16:28:53Z</time>
      </trkpt>
      <trkpt lat="39.647641000" lon="-8.770769000">
        <ele>158.400000</ele>
        <time>2020-10-17T16:28:54Z</time>
      </trkpt>
      <trkpt lat="39.647667000" lon="-8.770769000">
        <ele>158.400000</ele>
        <time>2020-10-17T16:28:55Z</time>
      </trkpt>
      <trkpt lat="39.647696000" lon="-8.770764000">
        <ele>158.800000</ele>
        <time>2020-10-17T16:28:56Z</time>
      </trkpt>
      <trkpt lat="39.647728000" lon="-8.770758000">
        <ele>158.800000</ele>
        <time>2020-10-17T16:28:57Z</time>
      </trkpt>
      <trkpt lat="39.647760000" lon="-8.770752000">
        <ele>159.000000</ele>
        <time>2020-10-17T16:28:58Z</time>
      </trkpt>
      <trkpt lat="39.647791000" lon="-8.770748000">
        <ele>159.200000</ele>
        <time>2020-10-17T16:28:59Z</time>
      </trkpt>
      <trkpt lat="39.647823000" lon="-8.770745000">
        <ele>159.200000</ele>
        <time>2020-10-17T16:29:00Z</time>
      </trkpt>
      <trkpt lat="39.647857000" lon="-8.770741000">
        <ele>159.400000</ele>
        <time>2020-10-17T16:29:01Z</time>
      </trkpt>
      <trkpt lat="39.647892000" lon="-8.770734000">
        <ele>159.400000</ele>
        <time>2020-10-17T16:29:02Z</time>
      </trkpt>
      <trkpt lat="39.647930000" lon="-8.770725000">
        <ele>159.400000</ele>
        <time>2020-10-17T16:29:03Z</time>
      </trkpt>
      <trkpt lat="39.647969000" lon="-8.770719000">
        <ele>159.800000</ele>
        <time>2020-10-17T16:29:04Z</time>
      </trkpt>
      <trkpt lat="39.648006000" lon="-8.770712000">
        <ele>159.800000</ele>
        <time>2020-10-17T16:29:05Z</time>
      </trkpt>
      <trkpt lat="39.648043000" lon="-8.770705000">
        <ele>160.200000</ele>
        <time>2020-10-17T16:29:06Z</time>
      </trkpt>
      <trkpt lat="39.648083000" lon="-8.770698000">
        <ele>160.400000</ele>
        <time>2020-10-17T16:29:07Z</time>
      </trkpt>
      <trkpt lat="39.648122000" lon="-8.770691000">
        <ele>160.400000</ele>
        <time>2020-10-17T16:29:08Z</time>
      </trkpt>
      <trkpt lat="39.648161000" lon="-8.770683000">
        <ele>160.400000</ele>
        <time>2020-10-17T16:29:09Z</time>
      </trkpt>
      <trkpt lat="39.648201000" lon="-8.770675000">
        <ele>160.400000</ele>
        <time>2020-10-17T16:29:10Z</time>
      </trkpt>
      <trkpt lat="39.648242000" lon="-8.770664000">
        <ele>160.400000</ele>
        <time>2020-10-17T16:29:11Z</time>
      </trkpt>
      <trkpt lat="39.648285000" lon="-8.770655000">
        <ele>160.600000</ele>
        <time>2020-10-17T16:29:12Z</time>
      </trkpt>
      <trkpt lat="39.648328000" lon="-8.770645000">
        <ele>160.600000</ele>
        <time>2020-10-17T16:29:13Z</time>
      </trkpt>
      <trkpt lat="39.648371000" lon="-8.770634000">
        <ele>160.800000</ele>
        <time>2020-10-17T16:29:14Z</time>
      </trkpt>
      <trkpt lat="39.648414000" lon="-8.770623000">
        <ele>160.600000</ele>
        <time>2020-10-17T16:29:15Z</time>
      </trkpt>
      <trkpt lat="39.648457000" lon="-8.770614000">
        <ele>160.800000</ele>
        <time>2020-10-17T16:29:16Z</time>
      </trkpt>
      <trkpt lat="39.648499000" lon="-8.770605000">
        <ele>160.800000</ele>
        <time>2020-10-17T16:29:17Z</time>
      </trkpt>
      <trkpt lat="39.648541000" lon="-8.770598000">
        <ele>161.000000</ele>
        <time>2020-10-17T16:29:18Z</time>
      </trkpt>
      <trkpt lat="39.648719000" lon="-8.770560000">
        <ele>161.200000</ele>
        <time>2020-10-17T16:29:22Z</time>
      </trkpt>
      <trkpt lat="39.648808000" lon="-8.770540000">
        <ele>161.400000</ele>
        <time>2020-10-17T16:29:24Z</time>
      </trkpt>
      <trkpt lat="39.648850000" lon="-8.770530000">
        <ele>161.400000</ele>
        <time>2020-10-17T16:29:25Z</time>
      </trkpt>
      <trkpt lat="39.648937000" lon="-8.770511000">
        <ele>161.400000</ele>
        <time>2020-10-17T16:29:27Z</time>
      </trkpt>
      <trkpt lat="39.648981000" lon="-8.770504000">
        <ele>161.600000</ele>
        <time>2020-10-17T16:29:28Z</time>
      </trkpt>
      <trkpt lat="39.649162000" lon="-8.770473000">
        <ele>162.200000</ele>
        <time>2020-10-17T16:29:32Z</time>
      </trkpt>
      <trkpt lat="39.649204000" lon="-8.770466000">
        <ele>162.200000</ele>
        <time>2020-10-17T16:29:33Z</time>
      </trkpt>
      <trkpt lat="39.649330000" lon="-8.770437000">
        <ele>162.400000</ele>
        <time>2020-10-17T16:29:36Z</time>
      </trkpt>
      <trkpt lat="39.649370000" lon="-8.770442000">
        <ele>162.400000</ele>
        <time>2020-10-17T16:29:37Z</time>
      </trkpt>
      <trkpt lat="39.649407000" lon="-8.770455000">
        <ele>162.600000</ele>
        <time>2020-10-17T16:29:38Z</time>
      </trkpt>
      <trkpt lat="39.649440000" lon="-8.770477000">
        <ele>162.800000</ele>
        <time>2020-10-17T16:29:39Z</time>
      </trkpt>
      <trkpt lat="39.649470000" lon="-8.770505000">
        <ele>162.800000</ele>
        <time>2020-10-17T16:29:40Z</time>
      </trkpt>
      <trkpt lat="39.649497000" lon="-8.770536000">
        <ele>162.800000</ele>
        <time>2020-10-17T16:29:41Z</time>
      </trkpt>
      <trkpt lat="39.649522000" lon="-8.770565000">
        <ele>162.800000</ele>
        <time>2020-10-17T16:29:42Z</time>
      </trkpt>
      <trkpt lat="39.649543000" lon="-8.770597000">
        <ele>162.800000</ele>
        <time>2020-10-17T16:29:43Z</time>
      </trkpt>
      <trkpt lat="39.649564000" lon="-8.770628000">
        <ele>163.000000</ele>
        <time>2020-10-17T16:29:44Z</time>
      </trkpt>
      <trkpt lat="39.649585000" lon="-8.770658000">
        <ele>163.000000</ele>
        <time>2020-10-17T16:29:45Z</time>
      </trkpt>
      <trkpt lat="39.649604000" lon="-8.770688000">
        <ele>163.200000</ele>
        <time>2020-10-17T16:29:46Z</time>
      </trkpt>
      <trkpt lat="39.649620000" lon="-8.770720000">
        <ele>163.400000</ele>
        <time>2020-10-17T16:29:47Z</time>
      </trkpt>
      <trkpt lat="39.649635000" lon="-8.770752000">
        <ele>163.400000</ele>
        <time>2020-10-17T16:29:48Z</time>
      </trkpt>
      <trkpt lat="39.649651000" lon="-8.770785000">
        <ele>163.600000</ele>
        <time>2020-10-17T16:29:49Z</time>
      </trkpt>
      <trkpt lat="39.649664000" lon="-8.770819000">
        <ele>164.000000</ele>
        <time>2020-10-17T16:29:50Z</time>
      </trkpt>
      <trkpt lat="39.649676000" lon="-8.770856000">
        <ele>164.200000</ele>
        <time>2020-10-17T16:29:51Z</time>
      </trkpt>
      <trkpt lat="39.649689000" lon="-8.770890000">
        <ele>164.400000</ele>
        <time>2020-10-17T16:29:52Z</time>
      </trkpt>
      <trkpt lat="39.649703000" lon="-8.770924000">
        <ele>164.600000</ele>
        <time>2020-10-17T16:29:53Z</time>
      </trkpt>
      <trkpt lat="39.649719000" lon="-8.770961000">
        <ele>164.800000</ele>
        <time>2020-10-17T16:29:54Z</time>
      </trkpt>
      <trkpt lat="39.649737000" lon="-8.771000000">
        <ele>165.000000</ele>
        <time>2020-10-17T16:29:55Z</time>
      </trkpt>
      <trkpt lat="39.649754000" lon="-8.771035000">
        <ele>165.000000</ele>
        <time>2020-10-17T16:29:56Z</time>
      </trkpt>
      <trkpt lat="39.649773000" lon="-8.771072000">
        <ele>165.000000</ele>
        <time>2020-10-17T16:29:57Z</time>
      </trkpt>
      <trkpt lat="39.649794000" lon="-8.771107000">
        <ele>165.400000</ele>
        <time>2020-10-17T16:29:58Z</time>
      </trkpt>
      <trkpt lat="39.649814000" lon="-8.771142000">
        <ele>165.400000</ele>
        <time>2020-10-17T16:29:59Z</time>
      </trkpt>
      <trkpt lat="39.649835000" lon="-8.771177000">
        <ele>165.600000</ele>
        <time>2020-10-17T16:30:00Z</time>
      </trkpt>
      <trkpt lat="39.649860000" lon="-8.771213000">
        <ele>165.800000</ele>
        <time>2020-10-17T16:30:01Z</time>
      </trkpt>
      <trkpt lat="39.649887000" lon="-8.771247000">
        <ele>166.000000</ele>
        <time>2020-10-17T16:30:02Z</time>
      </trkpt>
      <trkpt lat="39.649916000" lon="-8.771280000">
        <ele>166.200000</ele>
        <time>2020-10-17T16:30:03Z</time>
      </trkpt>
      <trkpt lat="39.649948000" lon="-8.771313000">
        <ele>166.200000</ele>
        <time>2020-10-17T16:30:04Z</time>
      </trkpt>
      <trkpt lat="39.649980000" lon="-8.771348000">
        <ele>166.200000</ele>
        <time>2020-10-17T16:30:05Z</time>
      </trkpt>
      <trkpt lat="39.650012000" lon="-8.771386000">
        <ele>166.400000</ele>
        <time>2020-10-17T16:30:06Z</time>
      </trkpt>
      <trkpt lat="39.650045000" lon="-8.771432000">
        <ele>166.600000</ele>
        <time>2020-10-17T16:30:07Z</time>
      </trkpt>
      <trkpt lat="39.650077000" lon="-8.771479000">
        <ele>166.600000</ele>
        <time>2020-10-17T16:30:08Z</time>
      </trkpt>
      <trkpt lat="39.650108000" lon="-8.771529000">
        <ele>166.800000</ele>
        <time>2020-10-17T16:30:09Z</time>
      </trkpt>
      <trkpt lat="39.650138000" lon="-8.771581000">
        <ele>166.800000</ele>
        <time>2020-10-17T16:30:10Z</time>
      </trkpt>
      <trkpt lat="39.650170000" lon="-8.771633000">
        <ele>166.800000</ele>
        <time>2020-10-17T16:30:11Z</time>
      </trkpt>
      <trkpt lat="39.650206000" lon="-8.771686000">
        <ele>166.800000</ele>
        <time>2020-10-17T16:30:12Z</time>
      </trkpt>
      <trkpt lat="39.650247000" lon="-8.771735000">
        <ele>166.800000</ele>
        <time>2020-10-17T16:30:13Z</time>
      </trkpt>
      <trkpt lat="39.650334000" lon="-8.771821000">
        <ele>166.800000</ele>
        <time>2020-10-17T16:30:15Z</time>
      </trkpt>
      <trkpt lat="39.650381000" lon="-8.771858000">
        <ele>166.800000</ele>
        <time>2020-10-17T16:30:16Z</time>
      </trkpt>
      <trkpt lat="39.650436000" lon="-8.771888000">
        <ele>167.000000</ele>
        <time>2020-10-17T16:30:17Z</time>
      </trkpt>
      <trkpt lat="39.650492000" lon="-8.771913000">
        <ele>166.800000</ele>
        <time>2020-10-17T16:30:18Z</time>
      </trkpt>
      <trkpt lat="39.650549000" lon="-8.771927000">
        <ele>166.800000</ele>
        <time>2020-10-17T16:30:19Z</time>
      </trkpt>
      <trkpt lat="39.650611000" lon="-8.771916000">
        <ele>166.600000</ele>
        <time>2020-10-17T16:30:20Z</time>
      </trkpt>
      <trkpt lat="39.650665000" lon="-8.771887000">
        <ele>166.400000</ele>
        <time>2020-10-17T16:30:21Z</time>
      </trkpt>
      <trkpt lat="39.650712000" lon="-8.771843000">
        <ele>166.200000</ele>
        <time>2020-10-17T16:30:22Z</time>
      </trkpt>
      <trkpt lat="39.650751000" lon="-8.771789000">
        <ele>166.000000</ele>
        <time>2020-10-17T16:30:23Z</time>
      </trkpt>
      <trkpt lat="39.650790000" lon="-8.771737000">
        <ele>166.000000</ele>
        <time>2020-10-17T16:30:24Z</time>
      </trkpt>
      <trkpt lat="39.650826000" lon="-8.771683000">
        <ele>165.800000</ele>
        <time>2020-10-17T16:30:25Z</time>
      </trkpt>
      <trkpt lat="39.650861000" lon="-8.771630000">
        <ele>165.800000</ele>
        <time>2020-10-17T16:30:26Z</time>
      </trkpt>
      <trkpt lat="39.650897000" lon="-8.771583000">
        <ele>165.800000</ele>
        <time>2020-10-17T16:30:27Z</time>
      </trkpt>
      <trkpt lat="39.650937000" lon="-8.771547000">
        <ele>165.400000</ele>
        <time>2020-10-17T16:30:28Z</time>
      </trkpt>
      <trkpt lat="39.650983000" lon="-8.771528000">
        <ele>165.400000</ele>
        <time>2020-10-17T16:30:29Z</time>
      </trkpt>
      <trkpt lat="39.651031000" lon="-8.771525000">
        <ele>165.400000</ele>
        <time>2020-10-17T16:30:30Z</time>
      </trkpt>
      <trkpt lat="39.651127000" lon="-8.771562000">
        <ele>165.000000</ele>
        <time>2020-10-17T16:30:32Z</time>
      </trkpt>
      <trkpt lat="39.651174000" lon="-8.771594000">
        <ele>165.000000</ele>
        <time>2020-10-17T16:30:33Z</time>
      </trkpt>
      <trkpt lat="39.651222000" lon="-8.771634000">
        <ele>165.000000</ele>
        <time>2020-10-17T16:30:34Z</time>
      </trkpt>
      <trkpt lat="39.651331000" lon="-8.771734000">
        <ele>164.800000</ele>
        <time>2020-10-17T16:30:36Z</time>
      </trkpt>
      <trkpt lat="39.651447000" lon="-8.771855000">
        <ele>164.800000</ele>
        <time>2020-10-17T16:30:38Z</time>
      </trkpt>
      <trkpt lat="39.651510000" lon="-8.771918000">
        <ele>164.800000</ele>
        <time>2020-10-17T16:30:39Z</time>
      </trkpt>
      <trkpt lat="39.651645000" lon="-8.772047000">
        <ele>164.600000</ele>
        <time>2020-10-17T16:30:41Z</time>
      </trkpt>
      <trkpt lat="39.651824000" lon="-8.772277000">
        <ele>163.600000</ele>
        <time>2020-10-17T16:30:44Z</time>
      </trkpt>
      <trkpt lat="39.651866000" lon="-8.772376000">
        <ele>163.200000</ele>
        <time>2020-10-17T16:30:45Z</time>
      </trkpt>
      <trkpt lat="39.651894000" lon="-8.772482000">
        <ele>162.800000</ele>
        <time>2020-10-17T16:30:46Z</time>
      </trkpt>
      <trkpt lat="39.651919000" lon="-8.772592000">
        <ele>162.800000</ele>
        <time>2020-10-17T16:30:47Z</time>
      </trkpt>
      <trkpt lat="39.651945000" lon="-8.772703000">
        <ele>162.200000</ele>
        <time>2020-10-17T16:30:48Z</time>
      </trkpt>
      <trkpt lat="39.652017000" lon="-8.773032000">
        <ele>160.000000</ele>
        <time>2020-10-17T16:30:51Z</time>
      </trkpt>
      <trkpt lat="39.652092000" lon="-8.773367000">
        <ele>158.400000</ele>
        <time>2020-10-17T16:30:54Z</time>
      </trkpt>
      <trkpt lat="39.652113000" lon="-8.773472000">
        <ele>157.800000</ele>
        <time>2020-10-17T16:30:55Z</time>
      </trkpt>
      <trkpt lat="39.652136000" lon="-8.773577000">
        <ele>157.400000</ele>
        <time>2020-10-17T16:30:56Z</time>
      </trkpt>
      <trkpt lat="39.652163000" lon="-8.773681000">
        <ele>156.600000</ele>
        <time>2020-10-17T16:30:57Z</time>
      </trkpt>
      <trkpt lat="39.652197000" lon="-8.773782000">
        <ele>156.200000</ele>
        <time>2020-10-17T16:30:58Z</time>
      </trkpt>
      <trkpt lat="39.652242000" lon="-8.773872000">
        <ele>155.800000</ele>
        <time>2020-10-17T16:30:59Z</time>
      </trkpt>
      <trkpt lat="39.652294000" lon="-8.773944000">
        <ele>155.400000</ele>
        <time>2020-10-17T16:31:00Z</time>
      </trkpt>
      <trkpt lat="39.652349000" lon="-8.774000000">
        <ele>155.000000</ele>
        <time>2020-10-17T16:31:01Z</time>
      </trkpt>
      <trkpt lat="39.652410000" lon="-8.774027000">
        <ele>154.800000</ele>
        <time>2020-10-17T16:31:02Z</time>
      </trkpt>
      <trkpt lat="39.652469000" lon="-8.774052000">
        <ele>154.800000</ele>
        <time>2020-10-17T16:31:03Z</time>
      </trkpt>
      <trkpt lat="39.652529000" lon="-8.774071000">
        <ele>154.600000</ele>
        <time>2020-10-17T16:31:04Z</time>
      </trkpt>
      <trkpt lat="39.652592000" lon="-8.774082000">
        <ele>154.600000</ele>
        <time>2020-10-17T16:31:05Z</time>
      </trkpt>
      <trkpt lat="39.652615000" lon="-8.774084000">
        <ele>154.600000</ele>
        <time>2020-10-17T16:31:06Z</time>
      </trkpt>
      <trkpt lat="39.652639000" lon="-8.774087000">
        <ele>154.800000</ele>
        <time>2020-10-17T16:31:07Z</time>
      </trkpt>
      <trkpt lat="39.652662000" lon="-8.774089000">
        <ele>154.800000</ele>
        <time>2020-10-17T16:31:08Z</time>
      </trkpt>
      <trkpt lat="39.652685000" lon="-8.774091000">
        <ele>154.800000</ele>
        <time>2020-10-17T16:31:09Z</time>
      </trkpt>
      <trkpt lat="39.652709000" lon="-8.774093000">
        <ele>154.600000</ele>
        <time>2020-10-17T16:31:10Z</time>
      </trkpt>
      <trkpt lat="39.652732000" lon="-8.774096000">
        <ele>154.600000</ele>
        <time>2020-10-17T16:31:11Z</time>
      </trkpt>
      <trkpt lat="39.652756000" lon="-8.774098000">
        <ele>155.000000</ele>
        <time>2020-10-17T16:31:12Z</time>
      </trkpt>
      <trkpt lat="39.652779000" lon="-8.774100000">
        <ele>155.200000</ele>
        <time>2020-10-17T16:31:13Z</time>
      </trkpt>
      <trkpt lat="39.652802000" lon="-8.774103000">
        <ele>155.400000</ele>
        <time>2020-10-17T16:31:14Z</time>
      </trkpt>
      <trkpt lat="39.652826000" lon="-8.774105000">
        <ele>155.600000</ele>
        <time>2020-10-17T16:31:15Z</time>
      </trkpt>
      <trkpt lat="39.652849000" lon="-8.774107000">
        <ele>155.800000</ele>
        <time>2020-10-17T16:31:16Z</time>
      </trkpt>
      <trkpt lat="39.652872000" lon="-8.774109000">
        <ele>156.600000</ele>
        <time>2020-10-17T16:31:18Z</time>
      </trkpt>
      <trkpt lat="39.652896000" lon="-8.774112000">
        <ele>156.800000</ele>
        <time>2020-10-17T16:31:19Z</time>
      </trkpt>
      <trkpt lat="39.652919000" lon="-8.774114000">
        <ele>157.000000</ele>
        <time>2020-10-17T16:31:20Z</time>
      </trkpt>
      <trkpt lat="39.653245000" lon="-8.774146000">
        <ele>157.200000</ele>
        <time>2020-10-17T16:31:21Z</time>
      </trkpt>
      <trkpt lat="39.653387000" lon="-8.774236000">
        <ele>157.800000</ele>
        <time>2020-10-17T16:31:24Z</time>
      </trkpt>
      <trkpt lat="39.653444000" lon="-8.774262000">
        <ele>158.000000</ele>
        <time>2020-10-17T16:31:25Z</time>
      </trkpt>
      <trkpt lat="39.653627000" lon="-8.774370000">
        <ele>158.800000</ele>
        <time>2020-10-17T16:31:28Z</time>
      </trkpt>
      <trkpt lat="39.653689000" lon="-8.774412000">
        <ele>158.800000</ele>
        <time>2020-10-17T16:31:29Z</time>
      </trkpt>
      <trkpt lat="39.653746000" lon="-8.774450000">
        <ele>159.000000</ele>
        <time>2020-10-17T16:31:30Z</time>
      </trkpt>
      <trkpt lat="39.653807000" lon="-8.774486000">
        <ele>159.200000</ele>
        <time>2020-10-17T16:31:31Z</time>
      </trkpt>
      <trkpt lat="39.653867000" lon="-8.774520000">
        <ele>159.200000</ele>
        <time>2020-10-17T16:31:32Z</time>
      </trkpt>
      <trkpt lat="39.653929000" lon="-8.774554000">
        <ele>159.200000</ele>
        <time>2020-10-17T16:31:33Z</time>
      </trkpt>
      <trkpt lat="39.653996000" lon="-8.774593000">
        <ele>159.200000</ele>
        <time>2020-10-17T16:31:34Z</time>
      </trkpt>
      <trkpt lat="39.654066000" lon="-8.774635000">
        <ele>159.200000</ele>
        <time>2020-10-17T16:31:35Z</time>
      </trkpt>
      <trkpt lat="39.654138000" lon="-8.774676000">
        <ele>159.200000</ele>
        <time>2020-10-17T16:31:36Z</time>
      </trkpt>
      <trkpt lat="39.654214000" lon="-8.774714000">
        <ele>159.200000</ele>
        <time>2020-10-17T16:31:37Z</time>
      </trkpt>
      <trkpt lat="39.654373000" lon="-8.774778000">
        <ele>159.200000</ele>
        <time>2020-10-17T16:31:39Z</time>
      </trkpt>
      <trkpt lat="39.654546000" lon="-8.774836000">
        <ele>159.000000</ele>
        <time>2020-10-17T16:31:41Z</time>
      </trkpt>
      <trkpt lat="39.654628000" lon="-8.774874000">
        <ele>159.000000</ele>
        <time>2020-10-17T16:31:42Z</time>
      </trkpt>
      <trkpt lat="39.654713000" lon="-8.774918000">
        <ele>158.600000</ele>
        <time>2020-10-17T16:31:43Z</time>
      </trkpt>
      <trkpt lat="39.654808000" lon="-8.774958000">
        <ele>158.000000</ele>
        <time>2020-10-17T16:31:44Z</time>
      </trkpt>
      <trkpt lat="39.654900000" lon="-8.774988000">
        <ele>157.200000</ele>
        <time>2020-10-17T16:31:45Z</time>
      </trkpt>
      <trkpt lat="39.655078000" lon="-8.775026000">
        <ele>156.400000</ele>
        <time>2020-10-17T16:31:47Z</time>
      </trkpt>
      <trkpt lat="39.655168000" lon="-8.775031000">
        <ele>155.800000</ele>
        <time>2020-10-17T16:31:48Z</time>
      </trkpt>
      <trkpt lat="39.655257000" lon="-8.775021000">
        <ele>155.000000</ele>
        <time>2020-10-17T16:31:49Z</time>
      </trkpt>
      <trkpt lat="39.655345000" lon="-8.775006000">
        <ele>154.000000</ele>
        <time>2020-10-17T16:31:50Z</time>
      </trkpt>
      <trkpt lat="39.655436000" lon="-8.774993000">
        <ele>154.000000</ele>
        <time>2020-10-17T16:31:51Z</time>
      </trkpt>
      <trkpt lat="39.655528000" lon="-8.774982000">
        <ele>153.400000</ele>
        <time>2020-10-17T16:31:52Z</time>
      </trkpt>
      <trkpt lat="39.655714000" lon="-8.774975000">
        <ele>151.600000</ele>
        <time>2020-10-17T16:31:54Z</time>
      </trkpt>
      <trkpt lat="39.655806000" lon="-8.774975000">
        <ele>151.000000</ele>
        <time>2020-10-17T16:31:55Z</time>
      </trkpt>
      <trkpt lat="39.655892000" lon="-8.774980000">
        <ele>150.600000</ele>
        <time>2020-10-17T16:31:56Z</time>
      </trkpt>
      <trkpt lat="39.655970000" lon="-8.775000000">
        <ele>150.400000</ele>
        <time>2020-10-17T16:31:57Z</time>
      </trkpt>
      <trkpt lat="39.656042000" lon="-8.775037000">
        <ele>149.800000</ele>
        <time>2020-10-17T16:31:58Z</time>
      </trkpt>
      <trkpt lat="39.656109000" lon="-8.775086000">
        <ele>148.600000</ele>
        <time>2020-10-17T16:31:59Z</time>
      </trkpt>
      <trkpt lat="39.656174000" lon="-8.775143000">
        <ele>147.600000</ele>
        <time>2020-10-17T16:32:00Z</time>
      </trkpt>
      <trkpt lat="39.656221000" lon="-8.775218000">
        <ele>147.000000</ele>
        <time>2020-10-17T16:32:01Z</time>
      </trkpt>
      <trkpt lat="39.656261000" lon="-8.775301000">
        <ele>146.600000</ele>
        <time>2020-10-17T16:32:02Z</time>
      </trkpt>
      <trkpt lat="39.656300000" lon="-8.775386000">
        <ele>146.400000</ele>
        <time>2020-10-17T16:32:03Z</time>
      </trkpt>
      <trkpt lat="39.656343000" lon="-8.775476000">
        <ele>146.000000</ele>
        <time>2020-10-17T16:32:04Z</time>
      </trkpt>
      <trkpt lat="39.656390000" lon="-8.775560000">
        <ele>146.000000</ele>
        <time>2020-10-17T16:32:05Z</time>
      </trkpt>
      <trkpt lat="39.656453000" lon="-8.775626000">
        <ele>145.400000</ele>
        <time>2020-10-17T16:32:06Z</time>
      </trkpt>
      <trkpt lat="39.656523000" lon="-8.775658000">
        <ele>145.000000</ele>
        <time>2020-10-17T16:32:07Z</time>
      </trkpt>
      <trkpt lat="39.656589000" lon="-8.775670000">
        <ele>144.600000</ele>
        <time>2020-10-17T16:32:08Z</time>
      </trkpt>
      <trkpt lat="39.656657000" lon="-8.775665000">
        <ele>144.400000</ele>
        <time>2020-10-17T16:32:09Z</time>
      </trkpt>
      <trkpt lat="39.656724000" lon="-8.775651000">
        <ele>144.000000</ele>
        <time>2020-10-17T16:32:10Z</time>
      </trkpt>
      <trkpt lat="39.656794000" lon="-8.775645000">
        <ele>143.600000</ele>
        <time>2020-10-17T16:32:11Z</time>
      </trkpt>
      <trkpt lat="39.656931000" lon="-8.775665000">
        <ele>143.200000</ele>
        <time>2020-10-17T16:32:13Z</time>
      </trkpt>
      <trkpt lat="39.656997000" lon="-8.775685000">
        <ele>143.000000</ele>
        <time>2020-10-17T16:32:14Z</time>
      </trkpt>
      <trkpt lat="39.657063000" lon="-8.775708000">
        <ele>142.800000</ele>
        <time>2020-10-17T16:32:15Z</time>
      </trkpt>
      <trkpt lat="39.657191000" lon="-8.775772000">
        <ele>142.800000</ele>
        <time>2020-10-17T16:32:17Z</time>
      </trkpt>
      <trkpt lat="39.657375000" lon="-8.775881000">
        <ele>142.400000</ele>
        <time>2020-10-17T16:32:20Z</time>
      </trkpt>
      <trkpt lat="39.657441000" lon="-8.775914000">
        <ele>142.000000</ele>
        <time>2020-10-17T16:32:21Z</time>
      </trkpt>
      <trkpt lat="39.657504000" lon="-8.775938000">
        <ele>141.400000</ele>
        <time>2020-10-17T16:32:22Z</time>
      </trkpt>
      <trkpt lat="39.657566000" lon="-8.775956000">
        <ele>141.200000</ele>
        <time>2020-10-17T16:32:23Z</time>
      </trkpt>
      <trkpt lat="39.657628000" lon="-8.775970000">
        <ele>141.200000</ele>
        <time>2020-10-17T16:32:24Z</time>
      </trkpt>
      <trkpt lat="39.657690000" lon="-8.775978000">
        <ele>141.000000</ele>
        <time>2020-10-17T16:32:25Z</time>
      </trkpt>
      <trkpt lat="39.657754000" lon="-8.775979000">
        <ele>140.600000</ele>
        <time>2020-10-17T16:32:26Z</time>
      </trkpt>
      <trkpt lat="39.657890000" lon="-8.775979000">
        <ele>140.200000</ele>
        <time>2020-10-17T16:32:28Z</time>
      </trkpt>
      <trkpt lat="39.657959000" lon="-8.775989000">
        <ele>140.000000</ele>
        <time>2020-10-17T16:32:29Z</time>
      </trkpt>
      <trkpt lat="39.658027000" lon="-8.776007000">
        <ele>139.600000</ele>
        <time>2020-10-17T16:32:30Z</time>
      </trkpt>
      <trkpt lat="39.658224000" lon="-8.776102000">
        <ele>139.400000</ele>
        <time>2020-10-17T16:32:33Z</time>
      </trkpt>
      <trkpt lat="39.658363000" lon="-8.776171000">
        <ele>139.000000</ele>
        <time>2020-10-17T16:32:35Z</time>
      </trkpt>
      <trkpt lat="39.658504000" lon="-8.776236000">
        <ele>138.400000</ele>
        <time>2020-10-17T16:32:37Z</time>
      </trkpt>
      <trkpt lat="39.658653000" lon="-8.776289000">
        <ele>138.000000</ele>
        <time>2020-10-17T16:32:39Z</time>
      </trkpt>
      <trkpt lat="39.658731000" lon="-8.776305000">
        <ele>138.000000</ele>
        <time>2020-10-17T16:32:40Z</time>
      </trkpt>
      <trkpt lat="39.658804000" lon="-8.776316000">
        <ele>137.800000</ele>
        <time>2020-10-17T16:32:41Z</time>
      </trkpt>
      <trkpt lat="39.658875000" lon="-8.776325000">
        <ele>137.400000</ele>
        <time>2020-10-17T16:32:42Z</time>
      </trkpt>
      <trkpt lat="39.658944000" lon="-8.776334000">
        <ele>137.200000</ele>
        <time>2020-10-17T16:32:43Z</time>
      </trkpt>
      <trkpt lat="39.659009000" lon="-8.776347000">
        <ele>136.800000</ele>
        <time>2020-10-17T16:32:44Z</time>
      </trkpt>
      <trkpt lat="39.659077000" lon="-8.776365000">
        <ele>136.400000</ele>
        <time>2020-10-17T16:32:45Z</time>
      </trkpt>
      <trkpt lat="39.659142000" lon="-8.776386000">
        <ele>135.800000</ele>
        <time>2020-10-17T16:32:46Z</time>
      </trkpt>
      <trkpt lat="39.659206000" lon="-8.776413000">
        <ele>135.200000</ele>
        <time>2020-10-17T16:32:47Z</time>
      </trkpt>
      <trkpt lat="39.659399000" lon="-8.776511000">
        <ele>134.600000</ele>
        <time>2020-10-17T16:32:50Z</time>
      </trkpt>
      <trkpt lat="39.659470000" lon="-8.776533000">
        <ele>134.400000</ele>
        <time>2020-10-17T16:32:51Z</time>
      </trkpt>
      <trkpt lat="39.659540000" lon="-8.776551000">
        <ele>134.400000</ele>
        <time>2020-10-17T16:32:52Z</time>
      </trkpt>
      <trkpt lat="39.659604000" lon="-8.776570000">
        <ele>134.200000</ele>
        <time>2020-10-17T16:32:53Z</time>
      </trkpt>
      <trkpt lat="39.659668000" lon="-8.776597000">
        <ele>134.200000</ele>
        <time>2020-10-17T16:32:54Z</time>
      </trkpt>
      <trkpt lat="39.659802000" lon="-8.776646000">
        <ele>134.200000</ele>
        <time>2020-10-17T16:32:56Z</time>
      </trkpt>
      <trkpt lat="39.659874000" lon="-8.776651000">
        <ele>134.200000</ele>
        <time>2020-10-17T16:32:57Z</time>
      </trkpt>
      <trkpt lat="39.660163000" lon="-8.776691000">
        <ele>133.000000</ele>
        <time>2020-10-17T16:33:01Z</time>
      </trkpt>
      <trkpt lat="39.660230000" lon="-8.776720000">
        <ele>132.200000</ele>
        <time>2020-10-17T16:33:02Z</time>
      </trkpt>
      <trkpt lat="39.660296000" lon="-8.776757000">
        <ele>131.400000</ele>
        <time>2020-10-17T16:33:03Z</time>
      </trkpt>
      <trkpt lat="39.660358000" lon="-8.776802000">
        <ele>130.800000</ele>
        <time>2020-10-17T16:33:04Z</time>
      </trkpt>
      <trkpt lat="39.660417000" lon="-8.776855000">
        <ele>130.400000</ele>
        <time>2020-10-17T16:33:05Z</time>
      </trkpt>
      <trkpt lat="39.660470000" lon="-8.776911000">
        <ele>130.000000</ele>
        <time>2020-10-17T16:33:06Z</time>
      </trkpt>
      <trkpt lat="39.660520000" lon="-8.776967000">
        <ele>129.800000</ele>
        <time>2020-10-17T16:33:07Z</time>
      </trkpt>
      <trkpt lat="39.660568000" lon="-8.777022000">
        <ele>129.600000</ele>
        <time>2020-10-17T16:33:08Z</time>
      </trkpt>
      <trkpt lat="39.660885000" lon="-8.777366000">
        <ele>129.200000</ele>
        <time>2020-10-17T16:33:14Z</time>
      </trkpt>
      <trkpt lat="39.660937000" lon="-8.777425000">
        <ele>129.200000</ele>
        <time>2020-10-17T16:33:15Z</time>
      </trkpt>
      <trkpt lat="39.661224000" lon="-8.777725000">
        <ele>129.000000</ele>
        <time>2020-10-17T16:33:20Z</time>
      </trkpt>
      <trkpt lat="39.661344000" lon="-8.777857000">
        <ele>129.000000</ele>
        <time>2020-10-17T16:33:22Z</time>
      </trkpt>
      <trkpt lat="39.661461000" lon="-8.777974000">
        <ele>128.800000</ele>
        <time>2020-10-17T16:33:24Z</time>
      </trkpt>
      <trkpt lat="39.661521000" lon="-8.778033000">
        <ele>128.600000</ele>
        <time>2020-10-17T16:33:25Z</time>
      </trkpt>
      <trkpt lat="39.661646000" lon="-8.778152000">
        <ele>128.600000</ele>
        <time>2020-10-17T16:33:27Z</time>
      </trkpt>
      <trkpt lat="39.661761000" lon="-8.778281000">
        <ele>128.000000</ele>
        <time>2020-10-17T16:33:29Z</time>
      </trkpt>
      <trkpt lat="39.661815000" lon="-8.778349000">
        <ele>127.800000</ele>
        <time>2020-10-17T16:33:30Z</time>
      </trkpt>
      <trkpt lat="39.661989000" lon="-8.778541000">
        <ele>127.200000</ele>
        <time>2020-10-17T16:33:33Z</time>
      </trkpt>
      <trkpt lat="39.662169000" lon="-8.778735000">
        <ele>126.000000</ele>
        <time>2020-10-17T16:33:36Z</time>
      </trkpt>
      <trkpt lat="39.662290000" lon="-8.778874000">
        <ele>125.200000</ele>
        <time>2020-10-17T16:33:38Z</time>
      </trkpt>
      <trkpt lat="39.662413000" lon="-8.779022000">
        <ele>125.000000</ele>
        <time>2020-10-17T16:33:40Z</time>
      </trkpt>
      <trkpt lat="39.662636000" lon="-8.779332000">
        <ele>124.200000</ele>
        <time>2020-10-17T16:33:44Z</time>
      </trkpt>
      <trkpt lat="39.662684000" lon="-8.779411000">
        <ele>124.000000</ele>
        <time>2020-10-17T16:33:45Z</time>
      </trkpt>
      <trkpt lat="39.662733000" lon="-8.779490000">
        <ele>123.400000</ele>
        <time>2020-10-17T16:33:46Z</time>
      </trkpt>
      <trkpt lat="39.662889000" lon="-8.779720000">
        <ele>122.200000</ele>
        <time>2020-10-17T16:33:49Z</time>
      </trkpt>
      <trkpt lat="39.662993000" lon="-8.779876000">
        <ele>122.000000</ele>
        <time>2020-10-17T16:33:51Z</time>
      </trkpt>
      <trkpt lat="39.663040000" lon="-8.779957000">
        <ele>121.800000</ele>
        <time>2020-10-17T16:33:52Z</time>
      </trkpt>
      <trkpt lat="39.663187000" lon="-8.780197000">
        <ele>121.000000</ele>
        <time>2020-10-17T16:33:55Z</time>
      </trkpt>
      <trkpt lat="39.663287000" lon="-8.780353000">
        <ele>120.600000</ele>
        <time>2020-10-17T16:33:57Z</time>
      </trkpt>
      <trkpt lat="39.663390000" lon="-8.780508000">
        <ele>120.000000</ele>
        <time>2020-10-17T16:33:59Z</time>
      </trkpt>
      <trkpt lat="39.663439000" lon="-8.780583000">
        <ele>120.000000</ele>
        <time>2020-10-17T16:34:00Z</time>
      </trkpt>
      <trkpt lat="39.663589000" lon="-8.780812000">
        <ele>119.800000</ele>
        <time>2020-10-17T16:34:03Z</time>
      </trkpt>
      <trkpt lat="39.663635000" lon="-8.780888000">
        <ele>119.600000</ele>
        <time>2020-10-17T16:34:04Z</time>
      </trkpt>
      <trkpt lat="39.663839000" lon="-8.781190000">
        <ele>118.800000</ele>
        <time>2020-10-17T16:34:08Z</time>
      </trkpt>
      <trkpt lat="39.663942000" lon="-8.781343000">
        <ele>118.400000</ele>
        <time>2020-10-17T16:34:10Z</time>
      </trkpt>
      <trkpt lat="39.664201000" lon="-8.781729000">
        <ele>117.800000</ele>
        <time>2020-10-17T16:34:15Z</time>
      </trkpt>
      <trkpt lat="39.664302000" lon="-8.781880000">
        <ele>117.600000</ele>
        <time>2020-10-17T16:34:17Z</time>
      </trkpt>
      <trkpt lat="39.664401000" lon="-8.782031000">
        <ele>117.400000</ele>
        <time>2020-10-17T16:34:19Z</time>
      </trkpt>
      <trkpt lat="39.664449000" lon="-8.782106000">
        <ele>117.400000</ele>
        <time>2020-10-17T16:34:20Z</time>
      </trkpt>
      <trkpt lat="39.664497000" lon="-8.782180000">
        <ele>117.200000</ele>
        <time>2020-10-17T16:34:21Z</time>
      </trkpt>
      <trkpt lat="39.664695000" lon="-8.782478000">
        <ele>117.000000</ele>
        <time>2020-10-17T16:34:25Z</time>
      </trkpt>
      <trkpt lat="39.664741000" lon="-8.782552000">
        <ele>117.000000</ele>
        <time>2020-10-17T16:34:26Z</time>
      </trkpt>
      <trkpt lat="39.664786000" lon="-8.782627000">
        <ele>116.800000</ele>
        <time>2020-10-17T16:34:27Z</time>
      </trkpt>
      <trkpt lat="39.664831000" lon="-8.782699000">
        <ele>116.800000</ele>
        <time>2020-10-17T16:34:28Z</time>
      </trkpt>
      <trkpt lat="39.664976000" lon="-8.782900000">
        <ele>116.400000</ele>
        <time>2020-10-17T16:34:31Z</time>
      </trkpt>
      <trkpt lat="39.665020000" lon="-8.782968000">
        <ele>116.600000</ele>
        <time>2020-10-17T16:34:32Z</time>
      </trkpt>
      <trkpt lat="39.665061000" lon="-8.783036000">
        <ele>116.400000</ele>
        <time>2020-10-17T16:34:33Z</time>
      </trkpt>
      <trkpt lat="39.665101000" lon="-8.783099000">
        <ele>116.600000</ele>
        <time>2020-10-17T16:34:34Z</time>
      </trkpt>
      <trkpt lat="39.665143000" lon="-8.783163000">
        <ele>116.600000</ele>
        <time>2020-10-17T16:34:35Z</time>
      </trkpt>
      <trkpt lat="39.665187000" lon="-8.783225000">
        <ele>116.400000</ele>
        <time>2020-10-17T16:34:36Z</time>
      </trkpt>
      <trkpt lat="39.665277000" lon="-8.783354000">
        <ele>116.400000</ele>
        <time>2020-10-17T16:34:38Z</time>
      </trkpt>
      <trkpt lat="39.665323000" lon="-8.783414000">
        <ele>116.600000</ele>
        <time>2020-10-17T16:34:39Z</time>
      </trkpt>
      <trkpt lat="39.665376000" lon="-8.783465000">
        <ele>116.400000</ele>
        <time>2020-10-17T16:34:40Z</time>
      </trkpt>
      <trkpt lat="39.665432000" lon="-8.783508000">
        <ele>116.400000</ele>
        <time>2020-10-17T16:34:41Z</time>
      </trkpt>
      <trkpt lat="39.665494000" lon="-8.783535000">
        <ele>116.400000</ele>
        <time>2020-10-17T16:34:42Z</time>
      </trkpt>
      <trkpt lat="39.665557000" lon="-8.783552000">
        <ele>116.600000</ele>
        <time>2020-10-17T16:34:43Z</time>
      </trkpt>
      <trkpt lat="39.665621000" lon="-8.783562000">
        <ele>116.600000</ele>
        <time>2020-10-17T16:34:44Z</time>
      </trkpt>
      <trkpt lat="39.665879000" lon="-8.783557000">
        <ele>116.600000</ele>
        <time>2020-10-17T16:34:48Z</time>
      </trkpt>
      <trkpt lat="39.665942000" lon="-8.783556000">
        <ele>116.800000</ele>
        <time>2020-10-17T16:34:49Z</time>
      </trkpt>
      <trkpt lat="39.666004000" lon="-8.783556000">
        <ele>116.600000</ele>
        <time>2020-10-17T16:34:50Z</time>
      </trkpt>
      <trkpt lat="39.666064000" lon="-8.783555000">
        <ele>116.600000</ele>
        <time>2020-10-17T16:34:51Z</time>
      </trkpt>
      <trkpt lat="39.666126000" lon="-8.783554000">
        <ele>116.600000</ele>
        <time>2020-10-17T16:34:52Z</time>
      </trkpt>
      <trkpt lat="39.666518000" lon="-8.783555000">
        <ele>116.600000</ele>
        <time>2020-10-17T16:34:58Z</time>
      </trkpt>
      <trkpt lat="39.666583000" lon="-8.783557000">
        <ele>116.400000</ele>
        <time>2020-10-17T16:34:59Z</time>
      </trkpt>
      <trkpt lat="39.666649000" lon="-8.783557000">
        <ele>116.400000</ele>
        <time>2020-10-17T16:35:00Z</time>
      </trkpt>
      <trkpt lat="39.666713000" lon="-8.783557000">
        <ele>116.200000</ele>
        <time>2020-10-17T16:35:01Z</time>
      </trkpt>
      <trkpt lat="39.666908000" lon="-8.783562000">
        <ele>116.000000</ele>
        <time>2020-10-17T16:35:04Z</time>
      </trkpt>
      <trkpt lat="39.667035000" lon="-8.783564000">
        <ele>115.800000</ele>
        <time>2020-10-17T16:35:06Z</time>
      </trkpt>
      <trkpt lat="39.667096000" lon="-8.783568000">
        <ele>115.600000</ele>
        <time>2020-10-17T16:35:07Z</time>
      </trkpt>
      <trkpt lat="39.667157000" lon="-8.783578000">
        <ele>115.400000</ele>
        <time>2020-10-17T16:35:08Z</time>
      </trkpt>
      <trkpt lat="39.667212000" lon="-8.783599000">
        <ele>115.200000</ele>
        <time>2020-10-17T16:35:09Z</time>
      </trkpt>
      <trkpt lat="39.667264000" lon="-8.783626000">
        <ele>115.200000</ele>
        <time>2020-10-17T16:35:10Z</time>
      </trkpt>
      <trkpt lat="39.667315000" lon="-8.783661000">
        <ele>115.000000</ele>
        <time>2020-10-17T16:35:11Z</time>
      </trkpt>
      <trkpt lat="39.667356000" lon="-8.783702000">
        <ele>115.000000</ele>
        <time>2020-10-17T16:35:12Z</time>
      </trkpt>
      <trkpt lat="39.667392000" lon="-8.783748000">
        <ele>115.000000</ele>
        <time>2020-10-17T16:35:13Z</time>
      </trkpt>
      <trkpt lat="39.667424000" lon="-8.783794000">
        <ele>114.800000</ele>
        <time>2020-10-17T16:35:14Z</time>
      </trkpt>
      <trkpt lat="39.667457000" lon="-8.783838000">
        <ele>114.600000</ele>
        <time>2020-10-17T16:35:15Z</time>
      </trkpt>
      <trkpt lat="39.667489000" lon="-8.783884000">
        <ele>114.800000</ele>
        <time>2020-10-17T16:35:16Z</time>
      </trkpt>
      <trkpt lat="39.667521000" lon="-8.783930000">
        <ele>114.800000</ele>
        <time>2020-10-17T16:35:17Z</time>
      </trkpt>
      <trkpt lat="39.667553000" lon="-8.783971000">
        <ele>114.600000</ele>
        <time>2020-10-17T16:35:18Z</time>
      </trkpt>
      <trkpt lat="39.667581000" lon="-8.784009000">
        <ele>114.800000</ele>
        <time>2020-10-17T16:35:19Z</time>
      </trkpt>
      <trkpt lat="39.667607000" lon="-8.784048000">
        <ele>114.600000</ele>
        <time>2020-10-17T16:35:20Z</time>
      </trkpt>
      <trkpt lat="39.667635000" lon="-8.784090000">
        <ele>114.600000</ele>
        <time>2020-10-17T16:35:21Z</time>
      </trkpt>
      <trkpt lat="39.667696000" lon="-8.784173000">
        <ele>114.400000</ele>
        <time>2020-10-17T16:35:23Z</time>
      </trkpt>
      <trkpt lat="39.667723000" lon="-8.784214000">
        <ele>114.400000</ele>
        <time>2020-10-17T16:35:24Z</time>
      </trkpt>
      <trkpt lat="39.667856000" lon="-8.784379000">
        <ele>114.400000</ele>
        <time>2020-10-17T16:35:28Z</time>
      </trkpt>
      <trkpt lat="39.667921000" lon="-8.784472000">
        <ele>114.400000</ele>
        <time>2020-10-17T16:35:30Z</time>
      </trkpt>
      <trkpt lat="39.667954000" lon="-8.784512000">
        <ele>114.200000</ele>
        <time>2020-10-17T16:35:31Z</time>
      </trkpt>
      <trkpt lat="39.668086000" lon="-8.784674000">
        <ele>114.000000</ele>
        <time>2020-10-17T16:35:35Z</time>
      </trkpt>
      <trkpt lat="39.668152000" lon="-8.784765000">
        <ele>113.800000</ele>
        <time>2020-10-17T16:35:37Z</time>
      </trkpt>
      <trkpt lat="39.668178000" lon="-8.784819000">
        <ele>113.800000</ele>
        <time>2020-10-17T16:35:38Z</time>
      </trkpt>
      <trkpt lat="39.668237000" lon="-8.785004000">
        <ele>113.600000</ele>
        <time>2020-10-17T16:35:41Z</time>
      </trkpt>
      <trkpt lat="39.668247000" lon="-8.785074000">
        <ele>113.400000</ele>
        <time>2020-10-17T16:35:42Z</time>
      </trkpt>
      <trkpt lat="39.668252000" lon="-8.785144000">
        <ele>113.400000</ele>
        <time>2020-10-17T16:35:43Z</time>
      </trkpt>
      <trkpt lat="39.668254000" lon="-8.785217000">
        <ele>113.400000</ele>
        <time>2020-10-17T16:35:44Z</time>
      </trkpt>
      <trkpt lat="39.668263000" lon="-8.785535000">
        <ele>113.400000</ele>
        <time>2020-10-17T16:35:48Z</time>
      </trkpt>
      <trkpt lat="39.668266000" lon="-8.785611000">
        <ele>113.200000</ele>
        <time>2020-10-17T16:35:49Z</time>
      </trkpt>
      <trkpt lat="39.668270000" lon="-8.785687000">
        <ele>113.200000</ele>
        <time>2020-10-17T16:35:50Z</time>
      </trkpt>
      <trkpt lat="39.668273000" lon="-8.785759000">
        <ele>113.200000</ele>
        <time>2020-10-17T16:35:51Z</time>
      </trkpt>
      <trkpt lat="39.668292000" lon="-8.786091000">
        <ele>112.200000</ele>
        <time>2020-10-17T16:35:55Z</time>
      </trkpt>
      <trkpt lat="39.668297000" lon="-8.786177000">
        <ele>112.000000</ele>
        <time>2020-10-17T16:35:56Z</time>
      </trkpt>
      <trkpt lat="39.668309000" lon="-8.786650000">
        <ele>111.800000</ele>
        <time>2020-10-17T16:36:01Z</time>
      </trkpt>
      <trkpt lat="39.668326000" lon="-8.786740000">
        <ele>111.800000</ele>
        <time>2020-10-17T16:36:02Z</time>
      </trkpt>
      <trkpt lat="39.668356000" lon="-8.786818000">
        <ele>111.600000</ele>
        <time>2020-10-17T16:36:03Z</time>
      </trkpt>
      <trkpt lat="39.668402000" lon="-8.786876000">
        <ele>111.600000</ele>
        <time>2020-10-17T16:36:04Z</time>
      </trkpt>
      <trkpt lat="39.668457000" lon="-8.786913000">
        <ele>111.400000</ele>
        <time>2020-10-17T16:36:05Z</time>
      </trkpt>
      <trkpt lat="39.668530000" lon="-8.786926000">
        <ele>111.200000</ele>
        <time>2020-10-17T16:36:06Z</time>
      </trkpt>
      <trkpt lat="39.668680000" lon="-8.786946000">
        <ele>111.000000</ele>
        <time>2020-10-17T16:36:08Z</time>
      </trkpt>
      <trkpt lat="39.668824000" lon="-8.786978000">
        <ele>111.000000</ele>
        <time>2020-10-17T16:36:10Z</time>
      </trkpt>
      <trkpt lat="39.669212000" lon="-8.787008000">
        <ele>110.400000</ele>
        <time>2020-10-17T16:36:15Z</time>
      </trkpt>
      <trkpt lat="39.669529000" lon="-8.786958000">
        <ele>110.000000</ele>
        <time>2020-10-17T16:36:19Z</time>
      </trkpt>
      <trkpt lat="39.669682000" lon="-8.786927000">
        <ele>109.600000</ele>
        <time>2020-10-17T16:36:21Z</time>
      </trkpt>
      <trkpt lat="39.669759000" lon="-8.786905000">
        <ele>109.400000</ele>
        <time>2020-10-17T16:36:22Z</time>
      </trkpt>
      <trkpt lat="39.669835000" lon="-8.786885000">
        <ele>109.400000</ele>
        <time>2020-10-17T16:36:23Z</time>
      </trkpt>
      <trkpt lat="39.669907000" lon="-8.786871000">
        <ele>109.200000</ele>
        <time>2020-10-17T16:36:24Z</time>
      </trkpt>
      <trkpt lat="39.669977000" lon="-8.786860000">
        <ele>109.400000</ele>
        <time>2020-10-17T16:36:25Z</time>
      </trkpt>
      <trkpt lat="39.670047000" lon="-8.786850000">
        <ele>109.400000</ele>
        <time>2020-10-17T16:36:26Z</time>
      </trkpt>
      <trkpt lat="39.670400000" lon="-8.786889000">
        <ele>109.200000</ele>
        <time>2020-10-17T16:36:31Z</time>
      </trkpt>
      <trkpt lat="39.670689000" lon="-8.786948000">
        <ele>109.000000</ele>
        <time>2020-10-17T16:36:35Z</time>
      </trkpt>
      <trkpt lat="39.670759000" lon="-8.786964000">
        <ele>109.000000</ele>
        <time>2020-10-17T16:36:36Z</time>
      </trkpt>
      <trkpt lat="39.670829000" lon="-8.786982000">
        <ele>109.000000</ele>
        <time>2020-10-17T16:36:37Z</time>
      </trkpt>
      <trkpt lat="39.671190000" lon="-8.787063000">
        <ele>108.600000</ele>
        <time>2020-10-17T16:36:42Z</time>
      </trkpt>
      <trkpt lat="39.671484000" lon="-8.787117000">
        <ele>108.200000</ele>
        <time>2020-10-17T16:36:46Z</time>
      </trkpt>
      <trkpt lat="39.671553000" lon="-8.787130000">
        <ele>108.000000</ele>
        <time>2020-10-17T16:36:47Z</time>
      </trkpt>
      <trkpt lat="39.671763000" lon="-8.787134000">
        <ele>108.000000</ele>
        <time>2020-10-17T16:36:50Z</time>
      </trkpt>
      <trkpt lat="39.672124000" lon="-8.787062000">
        <ele>107.600000</ele>
        <time>2020-10-17T16:36:55Z</time>
      </trkpt>
      <trkpt lat="39.672270000" lon="-8.787024000">
        <ele>107.200000</ele>
        <time>2020-10-17T16:36:57Z</time>
      </trkpt>
      <trkpt lat="39.672646000" lon="-8.786935000">
        <ele>106.800000</ele>
        <time>2020-10-17T16:37:02Z</time>
      </trkpt>
      <trkpt lat="39.672720000" lon="-8.786919000">
        <ele>106.800000</ele>
        <time>2020-10-17T16:37:03Z</time>
      </trkpt>
      <trkpt lat="39.672790000" lon="-8.786904000">
        <ele>106.800000</ele>
        <time>2020-10-17T16:37:04Z</time>
      </trkpt>
      <trkpt lat="39.673076000" lon="-8.786824000">
        <ele>106.400000</ele>
        <time>2020-10-17T16:37:08Z</time>
      </trkpt>
      <trkpt lat="39.673146000" lon="-8.786802000">
        <ele>106.400000</ele>
        <time>2020-10-17T16:37:09Z</time>
      </trkpt>
      <trkpt lat="39.673214000" lon="-8.786780000">
        <ele>106.200000</ele>
        <time>2020-10-17T16:37:10Z</time>
      </trkpt>
      <trkpt lat="39.673282000" lon="-8.786762000">
        <ele>106.200000</ele>
        <time>2020-10-17T16:37:11Z</time>
      </trkpt>
      <trkpt lat="39.673704000" lon="-8.786640000">
        <ele>106.000000</ele>
        <time>2020-10-17T16:37:17Z</time>
      </trkpt>
      <trkpt lat="39.673772000" lon="-8.786620000">
        <ele>106.000000</ele>
        <time>2020-10-17T16:37:18Z</time>
      </trkpt>
      <trkpt lat="39.674051000" lon="-8.786546000">
        <ele>105.600000</ele>
        <time>2020-10-17T16:37:22Z</time>
      </trkpt>
      <trkpt lat="39.674330000" lon="-8.786437000">
        <ele>105.200000</ele>
        <time>2020-10-17T16:37:26Z</time>
      </trkpt>
      <trkpt lat="39.674399000" lon="-8.786407000">
        <ele>105.200000</ele>
        <time>2020-10-17T16:37:27Z</time>
      </trkpt>
      <trkpt lat="39.674805000" lon="-8.786201000">
        <ele>104.600000</ele>
        <time>2020-10-17T16:37:33Z</time>
      </trkpt>
      <trkpt lat="39.674867000" lon="-8.786145000">
        <ele>104.600000</ele>
        <time>2020-10-17T16:37:34Z</time>
      </trkpt>
      <trkpt lat="39.674920000" lon="-8.786079000">
        <ele>104.800000</ele>
        <time>2020-10-17T16:37:35Z</time>
      </trkpt>
      <trkpt lat="39.674965000" lon="-8.786005000">
        <ele>104.800000</ele>
        <time>2020-10-17T16:37:36Z</time>
      </trkpt>
      <trkpt lat="39.675000000" lon="-8.785925000">
        <ele>104.800000</ele>
        <time>2020-10-17T16:37:37Z</time>
      </trkpt>
      <trkpt lat="39.675024000" lon="-8.785844000">
        <ele>104.800000</ele>
        <time>2020-10-17T16:37:38Z</time>
      </trkpt>
      <trkpt lat="39.675041000" lon="-8.785762000">
        <ele>104.800000</ele>
        <time>2020-10-17T16:37:39Z</time>
      </trkpt>
      <trkpt lat="39.675057000" lon="-8.785681000">
        <ele>104.800000</ele>
        <time>2020-10-17T16:37:40Z</time>
      </trkpt>
      <trkpt lat="39.675073000" lon="-8.785602000">
        <ele>104.600000</ele>
        <time>2020-10-17T16:37:41Z</time>
      </trkpt>
      <trkpt lat="39.675088000" lon="-8.785523000">
        <ele>104.800000</ele>
        <time>2020-10-17T16:37:42Z</time>
      </trkpt>
      <trkpt lat="39.675098000" lon="-8.785442000">
        <ele>104.800000</ele>
        <time>2020-10-17T16:37:43Z</time>
      </trkpt>
      <trkpt lat="39.675109000" lon="-8.785362000">
        <ele>104.800000</ele>
        <time>2020-10-17T16:37:44Z</time>
      </trkpt>
      <trkpt lat="39.675121000" lon="-8.785283000">
        <ele>104.800000</ele>
        <time>2020-10-17T16:37:45Z</time>
      </trkpt>
      <trkpt lat="39.675134000" lon="-8.785207000">
        <ele>104.800000</ele>
        <time>2020-10-17T16:37:46Z</time>
      </trkpt>
      <trkpt lat="39.675148000" lon="-8.785136000">
        <ele>105.000000</ele>
        <time>2020-10-17T16:37:47Z</time>
      </trkpt>
      <trkpt lat="39.675161000" lon="-8.785066000">
        <ele>105.200000</ele>
        <time>2020-10-17T16:37:48Z</time>
      </trkpt>
      <trkpt lat="39.675175000" lon="-8.784995000">
        <ele>105.400000</ele>
        <time>2020-10-17T16:37:49Z</time>
      </trkpt>
      <trkpt lat="39.675196000" lon="-8.784926000">
        <ele>105.400000</ele>
        <time>2020-10-17T16:37:50Z</time>
      </trkpt>
      <trkpt lat="39.675222000" lon="-8.784861000">
        <ele>105.600000</ele>
        <time>2020-10-17T16:37:51Z</time>
      </trkpt>
      <trkpt lat="39.675249000" lon="-8.784806000">
        <ele>106.000000</ele>
        <time>2020-10-17T16:37:52Z</time>
      </trkpt>
      <trkpt lat="39.675281000" lon="-8.784757000">
        <ele>106.000000</ele>
        <time>2020-10-17T16:37:53Z</time>
      </trkpt>
      <trkpt lat="39.675324000" lon="-8.784712000">
        <ele>106.200000</ele>
        <time>2020-10-17T16:37:54Z</time>
      </trkpt>
      <trkpt lat="39.675365000" lon="-8.784674000">
        <ele>106.400000</ele>
        <time>2020-10-17T16:37:55Z</time>
      </trkpt>
      <trkpt lat="39.675406000" lon="-8.784642000">
        <ele>106.400000</ele>
        <time>2020-10-17T16:37:56Z</time>
      </trkpt>
      <trkpt lat="39.675446000" lon="-8.784621000">
        <ele>106.400000</ele>
        <time>2020-10-17T16:37:57Z</time>
      </trkpt>
      <trkpt lat="39.675483000" lon="-8.784606000">
        <ele>106.600000</ele>
        <time>2020-10-17T16:37:58Z</time>
      </trkpt>
      <trkpt lat="39.675522000" lon="-8.784591000">
        <ele>106.800000</ele>
        <time>2020-10-17T16:37:59Z</time>
      </trkpt>
      <trkpt lat="39.675564000" lon="-8.784573000">
        <ele>107.200000</ele>
        <time>2020-10-17T16:38:00Z</time>
      </trkpt>
      <trkpt lat="39.675606000" lon="-8.784560000">
        <ele>107.400000</ele>
        <time>2020-10-17T16:38:01Z</time>
      </trkpt>
      <trkpt lat="39.675647000" lon="-8.784551000">
        <ele>107.800000</ele>
        <time>2020-10-17T16:38:02Z</time>
      </trkpt>
      <trkpt lat="39.675690000" lon="-8.784536000">
        <ele>108.000000</ele>
        <time>2020-10-17T16:38:03Z</time>
      </trkpt>
      <trkpt lat="39.675731000" lon="-8.784518000">
        <ele>108.200000</ele>
        <time>2020-10-17T16:38:04Z</time>
      </trkpt>
      <trkpt lat="39.675769000" lon="-8.784500000">
        <ele>108.400000</ele>
        <time>2020-10-17T16:38:05Z</time>
      </trkpt>
      <trkpt lat="39.675806000" lon="-8.784486000">
        <ele>108.800000</ele>
        <time>2020-10-17T16:38:06Z</time>
      </trkpt>
      <trkpt lat="39.675843000" lon="-8.784474000">
        <ele>108.800000</ele>
        <time>2020-10-17T16:38:07Z</time>
      </trkpt>
      <trkpt lat="39.675882000" lon="-8.784461000">
        <ele>109.200000</ele>
        <time>2020-10-17T16:38:08Z</time>
      </trkpt>
      <trkpt lat="39.675923000" lon="-8.784447000">
        <ele>109.200000</ele>
        <time>2020-10-17T16:38:09Z</time>
      </trkpt>
      <trkpt lat="39.675961000" lon="-8.784428000">
        <ele>109.600000</ele>
        <time>2020-10-17T16:38:10Z</time>
      </trkpt>
      <trkpt lat="39.675996000" lon="-8.784411000">
        <ele>109.800000</ele>
        <time>2020-10-17T16:38:11Z</time>
      </trkpt>
      <trkpt lat="39.676031000" lon="-8.784398000">
        <ele>110.200000</ele>
        <time>2020-10-17T16:38:12Z</time>
      </trkpt>
      <trkpt lat="39.676068000" lon="-8.784383000">
        <ele>110.400000</ele>
        <time>2020-10-17T16:38:13Z</time>
      </trkpt>
      <trkpt lat="39.676103000" lon="-8.784370000">
        <ele>110.600000</ele>
        <time>2020-10-17T16:38:14Z</time>
      </trkpt>
      <trkpt lat="39.676137000" lon="-8.784355000">
        <ele>110.800000</ele>
        <time>2020-10-17T16:38:15Z</time>
      </trkpt>
      <trkpt lat="39.676172000" lon="-8.784340000">
        <ele>110.800000</ele>
        <time>2020-10-17T16:38:16Z</time>
      </trkpt>
      <trkpt lat="39.676210000" lon="-8.784324000">
        <ele>111.200000</ele>
        <time>2020-10-17T16:38:17Z</time>
      </trkpt>
      <trkpt lat="39.676245000" lon="-8.784314000">
        <ele>111.400000</ele>
        <time>2020-10-17T16:38:18Z</time>
      </trkpt>
      <trkpt lat="39.676281000" lon="-8.784299000">
        <ele>111.600000</ele>
        <time>2020-10-17T16:38:19Z</time>
      </trkpt>
      <trkpt lat="39.676319000" lon="-8.784285000">
        <ele>111.800000</ele>
        <time>2020-10-17T16:38:20Z</time>
      </trkpt>
      <trkpt lat="39.676360000" lon="-8.784270000">
        <ele>112.200000</ele>
        <time>2020-10-17T16:38:21Z</time>
      </trkpt>
      <trkpt lat="39.676396000" lon="-8.784256000">
        <ele>112.200000</ele>
        <time>2020-10-17T16:38:22Z</time>
      </trkpt>
      <trkpt lat="39.676431000" lon="-8.784243000">
        <ele>112.800000</ele>
        <time>2020-10-17T16:38:23Z</time>
      </trkpt>
      <trkpt lat="39.676469000" lon="-8.784227000">
        <ele>112.800000</ele>
        <time>2020-10-17T16:38:24Z</time>
      </trkpt>
      <trkpt lat="39.676509000" lon="-8.784211000">
        <ele>113.200000</ele>
        <time>2020-10-17T16:38:25Z</time>
      </trkpt>
      <trkpt lat="39.676549000" lon="-8.784197000">
        <ele>113.400000</ele>
        <time>2020-10-17T16:38:26Z</time>
      </trkpt>
      <trkpt lat="39.676590000" lon="-8.784180000">
        <ele>113.600000</ele>
        <time>2020-10-17T16:38:27Z</time>
      </trkpt>
      <trkpt lat="39.676623000" lon="-8.784163000">
        <ele>113.800000</ele>
        <time>2020-10-17T16:38:28Z</time>
      </trkpt>
      <trkpt lat="39.676660000" lon="-8.784152000">
        <ele>114.200000</ele>
        <time>2020-10-17T16:38:29Z</time>
      </trkpt>
      <trkpt lat="39.676701000" lon="-8.784138000">
        <ele>114.400000</ele>
        <time>2020-10-17T16:38:30Z</time>
      </trkpt>
      <trkpt lat="39.676740000" lon="-8.784128000">
        <ele>114.600000</ele>
        <time>2020-10-17T16:38:31Z</time>
      </trkpt>
      <trkpt lat="39.676776000" lon="-8.784115000">
        <ele>114.800000</ele>
        <time>2020-10-17T16:38:32Z</time>
      </trkpt>
      <trkpt lat="39.676810000" lon="-8.784103000">
        <ele>115.000000</ele>
        <time>2020-10-17T16:38:33Z</time>
      </trkpt>
      <trkpt lat="39.676847000" lon="-8.784085000">
        <ele>115.200000</ele>
        <time>2020-10-17T16:38:34Z</time>
      </trkpt>
      <trkpt lat="39.676885000" lon="-8.784068000">
        <ele>115.600000</ele>
        <time>2020-10-17T16:38:35Z</time>
      </trkpt>
      <trkpt lat="39.676926000" lon="-8.784053000">
        <ele>115.600000</ele>
        <time>2020-10-17T16:38:36Z</time>
      </trkpt>
      <trkpt lat="39.676971000" lon="-8.784039000">
        <ele>115.600000</ele>
        <time>2020-10-17T16:38:37Z</time>
      </trkpt>
      <trkpt lat="39.677011000" lon="-8.784027000">
        <ele>116.000000</ele>
        <time>2020-10-17T16:38:38Z</time>
      </trkpt>
      <trkpt lat="39.677051000" lon="-8.784014000">
        <ele>116.400000</ele>
        <time>2020-10-17T16:38:39Z</time>
      </trkpt>
      <trkpt lat="39.677087000" lon="-8.784011000">
        <ele>116.600000</ele>
        <time>2020-10-17T16:38:40Z</time>
      </trkpt>
      <trkpt lat="39.677123000" lon="-8.784008000">
        <ele>117.000000</ele>
        <time>2020-10-17T16:38:41Z</time>
      </trkpt>
      <trkpt lat="39.677163000" lon="-8.784005000">
        <ele>117.200000</ele>
        <time>2020-10-17T16:38:42Z</time>
      </trkpt>
      <trkpt lat="39.677205000" lon="-8.783999000">
        <ele>117.400000</ele>
        <time>2020-10-17T16:38:43Z</time>
      </trkpt>
      <trkpt lat="39.677246000" lon="-8.784001000">
        <ele>117.800000</ele>
        <time>2020-10-17T16:38:44Z</time>
      </trkpt>
      <trkpt lat="39.677286000" lon="-8.784002000">
        <ele>118.000000</ele>
        <time>2020-10-17T16:38:45Z</time>
      </trkpt>
      <trkpt lat="39.677327000" lon="-8.784005000">
        <ele>118.400000</ele>
        <time>2020-10-17T16:38:46Z</time>
      </trkpt>
      <trkpt lat="39.677370000" lon="-8.784001000">
        <ele>118.800000</ele>
        <time>2020-10-17T16:38:47Z</time>
      </trkpt>
      <trkpt lat="39.677414000" lon="-8.783993000">
        <ele>119.200000</ele>
        <time>2020-10-17T16:38:48Z</time>
      </trkpt>
      <trkpt lat="39.677457000" lon="-8.783988000">
        <ele>119.400000</ele>
        <time>2020-10-17T16:38:49Z</time>
      </trkpt>
      <trkpt lat="39.677504000" lon="-8.783979000">
        <ele>119.800000</ele>
        <time>2020-10-17T16:38:50Z</time>
      </trkpt>
      <trkpt lat="39.677547000" lon="-8.783973000">
        <ele>120.000000</ele>
        <time>2020-10-17T16:38:51Z</time>
      </trkpt>
      <trkpt lat="39.677594000" lon="-8.783970000">
        <ele>120.000000</ele>
        <time>2020-10-17T16:38:52Z</time>
      </trkpt>
      <trkpt lat="39.677649000" lon="-8.783971000">
        <ele>120.200000</ele>
        <time>2020-10-17T16:38:53Z</time>
      </trkpt>
      <trkpt lat="39.677709000" lon="-8.783974000">
        <ele>120.200000</ele>
        <time>2020-10-17T16:38:54Z</time>
      </trkpt>
      <trkpt lat="39.677775000" lon="-8.783979000">
        <ele>120.400000</ele>
        <time>2020-10-17T16:38:55Z</time>
      </trkpt>
      <trkpt lat="39.677847000" lon="-8.783982000">
        <ele>120.400000</ele>
        <time>2020-10-17T16:38:56Z</time>
      </trkpt>
      <trkpt lat="39.677923000" lon="-8.783977000">
        <ele>120.400000</ele>
        <time>2020-10-17T16:38:57Z</time>
      </trkpt>
      <trkpt lat="39.677999000" lon="-8.783970000">
        <ele>120.400000</ele>
        <time>2020-10-17T16:38:58Z</time>
      </trkpt>
      <trkpt lat="39.678266000" lon="-8.783946000">
        <ele>120.400000</ele>
        <time>2020-10-17T16:39:01Z</time>
      </trkpt>
      <trkpt lat="39.678364000" lon="-8.783949000">
        <ele>120.400000</ele>
        <time>2020-10-17T16:39:02Z</time>
      </trkpt>
      <trkpt lat="39.678469000" lon="-8.783958000">
        <ele>120.200000</ele>
        <time>2020-10-17T16:39:03Z</time>
      </trkpt>
      <trkpt lat="39.678576000" lon="-8.783975000">
        <ele>120.000000</ele>
        <time>2020-10-17T16:39:04Z</time>
      </trkpt>
      <trkpt lat="39.678786000" lon="-8.784011000">
        <ele>118.800000</ele>
        <time>2020-10-17T16:39:06Z</time>
      </trkpt>
      <trkpt lat="39.678889000" lon="-8.784030000">
        <ele>118.200000</ele>
        <time>2020-10-17T16:39:07Z</time>
      </trkpt>
      <trkpt lat="39.678993000" lon="-8.784047000">
        <ele>117.400000</ele>
        <time>2020-10-17T16:39:08Z</time>
      </trkpt>
      <trkpt lat="39.679208000" lon="-8.784056000">
        <ele>116.000000</ele>
        <time>2020-10-17T16:39:10Z</time>
      </trkpt>
      <trkpt lat="39.679314000" lon="-8.784041000">
        <ele>115.000000</ele>
        <time>2020-10-17T16:39:11Z</time>
      </trkpt>
      <trkpt lat="39.679520000" lon="-8.783942000">
        <ele>113.400000</ele>
        <time>2020-10-17T16:39:13Z</time>
      </trkpt>
      <trkpt lat="39.679619000" lon="-8.783871000">
        <ele>112.600000</ele>
        <time>2020-10-17T16:39:14Z</time>
      </trkpt>
      <trkpt lat="39.679827000" lon="-8.783682000">
        <ele>110.800000</ele>
        <time>2020-10-17T16:39:16Z</time>
      </trkpt>
      <trkpt lat="39.680006000" lon="-8.783460000">
        <ele>109.200000</ele>
        <time>2020-10-17T16:39:18Z</time>
      </trkpt>
      <trkpt lat="39.680285000" lon="-8.783112000">
        <ele>107.200000</ele>
        <time>2020-10-17T16:39:21Z</time>
      </trkpt>
      <trkpt lat="39.680381000" lon="-8.783010000">
        <ele>106.600000</ele>
        <time>2020-10-17T16:39:22Z</time>
      </trkpt>
      <trkpt lat="39.680481000" lon="-8.782914000">
        <ele>105.400000</ele>
        <time>2020-10-17T16:39:23Z</time>
      </trkpt>
      <trkpt lat="39.680573000" lon="-8.782830000">
        <ele>104.200000</ele>
        <time>2020-10-17T16:39:24Z</time>
      </trkpt>
      <trkpt lat="39.680663000" lon="-8.782753000">
        <ele>103.200000</ele>
        <time>2020-10-17T16:39:25Z</time>
      </trkpt>
      <trkpt lat="39.680753000" lon="-8.782678000">
        <ele>102.200000</ele>
        <time>2020-10-17T16:39:26Z</time>
      </trkpt>
      <trkpt lat="39.680841000" lon="-8.782606000">
        <ele>101.000000</ele>
        <time>2020-10-17T16:39:27Z</time>
      </trkpt>
      <trkpt lat="39.680929000" lon="-8.782537000">
        <ele>100.200000</ele>
        <time>2020-10-17T16:39:28Z</time>
      </trkpt>
      <trkpt lat="39.681014000" lon="-8.782473000">
        <ele>99.400000</ele>
        <time>2020-10-17T16:39:29Z</time>
      </trkpt>
      <trkpt lat="39.681097000" lon="-8.782408000">
        <ele>98.800000</ele>
        <time>2020-10-17T16:39:30Z</time>
      </trkpt>
      <trkpt lat="39.681176000" lon="-8.782342000">
        <ele>98.000000</ele>
        <time>2020-10-17T16:39:31Z</time>
      </trkpt>
      <trkpt lat="39.681253000" lon="-8.782270000">
        <ele>97.800000</ele>
        <time>2020-10-17T16:39:32Z</time>
      </trkpt>
      <trkpt lat="39.681326000" lon="-8.782196000">
        <ele>97.600000</ele>
        <time>2020-10-17T16:39:33Z</time>
      </trkpt>
      <trkpt lat="39.681395000" lon="-8.782122000">
        <ele>97.400000</ele>
        <time>2020-10-17T16:39:34Z</time>
      </trkpt>
      <trkpt lat="39.681461000" lon="-8.782050000">
        <ele>97.200000</ele>
        <time>2020-10-17T16:39:35Z</time>
      </trkpt>
      <trkpt lat="39.681528000" lon="-8.781982000">
        <ele>97.200000</ele>
        <time>2020-10-17T16:39:36Z</time>
      </trkpt>
      <trkpt lat="39.681598000" lon="-8.781914000">
        <ele>97.200000</ele>
        <time>2020-10-17T16:39:37Z</time>
      </trkpt>
      <trkpt lat="39.681743000" lon="-8.781790000">
        <ele>97.000000</ele>
        <time>2020-10-17T16:39:39Z</time>
      </trkpt>
      <trkpt lat="39.681816000" lon="-8.781729000">
        <ele>97.000000</ele>
        <time>2020-10-17T16:39:40Z</time>
      </trkpt>
      <trkpt lat="39.682036000" lon="-8.781558000">
        <ele>96.800000</ele>
        <time>2020-10-17T16:39:43Z</time>
      </trkpt>
      <trkpt lat="39.682106000" lon="-8.781504000">
        <ele>96.800000</ele>
        <time>2020-10-17T16:39:44Z</time>
      </trkpt>
      <trkpt lat="39.682174000" lon="-8.781450000">
        <ele>96.600000</ele>
        <time>2020-10-17T16:39:45Z</time>
      </trkpt>
      <trkpt lat="39.682241000" lon="-8.781391000">
        <ele>96.600000</ele>
        <time>2020-10-17T16:39:46Z</time>
      </trkpt>
      <trkpt lat="39.682603000" lon="-8.781047000">
        <ele>95.800000</ele>
        <time>2020-10-17T16:39:51Z</time>
      </trkpt>
      <trkpt lat="39.682672000" lon="-8.780981000">
        <ele>95.600000</ele>
        <time>2020-10-17T16:39:52Z</time>
      </trkpt>
      <trkpt lat="39.682740000" lon="-8.780919000">
        <ele>95.400000</ele>
        <time>2020-10-17T16:39:53Z</time>
      </trkpt>
      <trkpt lat="39.682809000" lon="-8.780860000">
        <ele>95.400000</ele>
        <time>2020-10-17T16:39:54Z</time>
      </trkpt>
      <trkpt lat="39.682878000" lon="-8.780814000">
        <ele>95.400000</ele>
        <time>2020-10-17T16:39:55Z</time>
      </trkpt>
      <trkpt lat="39.682956000" lon="-8.780781000">
        <ele>95.400000</ele>
        <time>2020-10-17T16:39:56Z</time>
      </trkpt>
      <trkpt lat="39.683033000" lon="-8.780755000">
        <ele>95.400000</ele>
        <time>2020-10-17T16:39:57Z</time>
      </trkpt>
      <trkpt lat="39.683107000" lon="-8.780741000">
        <ele>95.600000</ele>
        <time>2020-10-17T16:39:58Z</time>
      </trkpt>
      <trkpt lat="39.683337000" lon="-8.780746000">
        <ele>95.400000</ele>
        <time>2020-10-17T16:40:01Z</time>
      </trkpt>
      <trkpt lat="39.683661000" lon="-8.780766000">
        <ele>95.400000</ele>
        <time>2020-10-17T16:40:05Z</time>
      </trkpt>
      <trkpt lat="39.683905000" lon="-8.780773000">
        <ele>95.200000</ele>
        <time>2020-10-17T16:40:08Z</time>
      </trkpt>
      <trkpt lat="39.683981000" lon="-8.780777000">
        <ele>95.200000</ele>
        <time>2020-10-17T16:40:09Z</time>
      </trkpt>
      <trkpt lat="39.684059000" lon="-8.780780000">
        <ele>95.000000</ele>
        <time>2020-10-17T16:40:10Z</time>
      </trkpt>
      <trkpt lat="39.684134000" lon="-8.780782000">
        <ele>95.000000</ele>
        <time>2020-10-17T16:40:11Z</time>
      </trkpt>
      <trkpt lat="39.684204000" lon="-8.780785000">
        <ele>95.200000</ele>
        <time>2020-10-17T16:40:12Z</time>
      </trkpt>
      <trkpt lat="39.684271000" lon="-8.780792000">
        <ele>95.200000</ele>
        <time>2020-10-17T16:40:13Z</time>
      </trkpt>
      <trkpt lat="39.684334000" lon="-8.780799000">
        <ele>95.000000</ele>
        <time>2020-10-17T16:40:14Z</time>
      </trkpt>
      <trkpt lat="39.684400000" lon="-8.780796000">
        <ele>95.000000</ele>
        <time>2020-10-17T16:40:15Z</time>
      </trkpt>
      <trkpt lat="39.684458000" lon="-8.780785000">
        <ele>95.000000</ele>
        <time>2020-10-17T16:40:16Z</time>
      </trkpt>
      <trkpt lat="39.684512000" lon="-8.780770000">
        <ele>94.800000</ele>
        <time>2020-10-17T16:40:17Z</time>
      </trkpt>
      <trkpt lat="39.684563000" lon="-8.780758000">
        <ele>95.000000</ele>
        <time>2020-10-17T16:40:18Z</time>
      </trkpt>
      <trkpt lat="39.684612000" lon="-8.780747000">
        <ele>95.000000</ele>
        <time>2020-10-17T16:40:19Z</time>
      </trkpt>
      <trkpt lat="39.684659000" lon="-8.780734000">
        <ele>95.000000</ele>
        <time>2020-10-17T16:40:20Z</time>
      </trkpt>
      <trkpt lat="39.684707000" lon="-8.780722000">
        <ele>95.000000</ele>
        <time>2020-10-17T16:40:21Z</time>
      </trkpt>
      <trkpt lat="39.684753000" lon="-8.780710000">
        <ele>95.000000</ele>
        <time>2020-10-17T16:40:22Z</time>
      </trkpt>
      <trkpt lat="39.684795000" lon="-8.780695000">
        <ele>95.000000</ele>
        <time>2020-10-17T16:40:23Z</time>
      </trkpt>
      <trkpt lat="39.684834000" lon="-8.780682000">
        <ele>95.000000</ele>
        <time>2020-10-17T16:40:24Z</time>
      </trkpt>
      <trkpt lat="39.684873000" lon="-8.780670000">
        <ele>95.000000</ele>
        <time>2020-10-17T16:40:25Z</time>
      </trkpt>
      <trkpt lat="39.684913000" lon="-8.780657000">
        <ele>95.000000</ele>
        <time>2020-10-17T16:40:26Z</time>
      </trkpt>
      <trkpt lat="39.685162000" lon="-8.780582000">
        <ele>95.200000</ele>
        <time>2020-10-17T16:40:32Z</time>
      </trkpt>
      <trkpt lat="39.685200000" lon="-8.780564000">
        <ele>95.200000</ele>
        <time>2020-10-17T16:40:33Z</time>
      </trkpt>
      <trkpt lat="39.685242000" lon="-8.780548000">
        <ele>95.400000</ele>
        <time>2020-10-17T16:40:34Z</time>
      </trkpt>
      <trkpt lat="39.685279000" lon="-8.780530000">
        <ele>95.400000</ele>
        <time>2020-10-17T16:40:35Z</time>
      </trkpt>
      <trkpt lat="39.685451000" lon="-8.780456000">
        <ele>95.400000</ele>
        <time>2020-10-17T16:40:39Z</time>
      </trkpt>
      <trkpt lat="39.685649000" lon="-8.780390000">
        <ele>95.400000</ele>
        <time>2020-10-17T16:40:43Z</time>
      </trkpt>
      <trkpt lat="39.685700000" lon="-8.780379000">
        <ele>95.400000</ele>
        <time>2020-10-17T16:40:44Z</time>
      </trkpt>
      <trkpt lat="39.685799000" lon="-8.780354000">
        <ele>95.600000</ele>
        <time>2020-10-17T16:40:46Z</time>
      </trkpt>
      <trkpt lat="39.685846000" lon="-8.780343000">
        <ele>95.400000</ele>
        <time>2020-10-17T16:40:47Z</time>
      </trkpt>
      <trkpt lat="39.685895000" lon="-8.780334000">
        <ele>95.400000</ele>
        <time>2020-10-17T16:40:48Z</time>
      </trkpt>
      <trkpt lat="39.685944000" lon="-8.780319000">
        <ele>95.600000</ele>
        <time>2020-10-17T16:40:49Z</time>
      </trkpt>
      <trkpt lat="39.685991000" lon="-8.780306000">
        <ele>95.600000</ele>
        <time>2020-10-17T16:40:50Z</time>
      </trkpt>
      <trkpt lat="39.686044000" lon="-8.780298000">
        <ele>95.600000</ele>
        <time>2020-10-17T16:40:51Z</time>
      </trkpt>
      <trkpt lat="39.686093000" lon="-8.780286000">
        <ele>95.800000</ele>
        <time>2020-10-17T16:40:52Z</time>
      </trkpt>
      <trkpt lat="39.686139000" lon="-8.780273000">
        <ele>96.000000</ele>
        <time>2020-10-17T16:40:53Z</time>
      </trkpt>
      <trkpt lat="39.686185000" lon="-8.780255000">
        <ele>96.200000</ele>
        <time>2020-10-17T16:40:54Z</time>
      </trkpt>
      <trkpt lat="39.686277000" lon="-8.780221000">
        <ele>96.600000</ele>
        <time>2020-10-17T16:40:56Z</time>
      </trkpt>
      <trkpt lat="39.686325000" lon="-8.780204000">
        <ele>96.800000</ele>
        <time>2020-10-17T16:40:57Z</time>
      </trkpt>
      <trkpt lat="39.686371000" lon="-8.780187000">
        <ele>96.800000</ele>
        <time>2020-10-17T16:40:58Z</time>
      </trkpt>
      <trkpt lat="39.686420000" lon="-8.780171000">
        <ele>97.000000</ele>
        <time>2020-10-17T16:40:59Z</time>
      </trkpt>
      <trkpt lat="39.686470000" lon="-8.780156000">
        <ele>97.400000</ele>
        <time>2020-10-17T16:41:00Z</time>
      </trkpt>
      <trkpt lat="39.686522000" lon="-8.780141000">
        <ele>97.800000</ele>
        <time>2020-10-17T16:41:01Z</time>
      </trkpt>
      <trkpt lat="39.686577000" lon="-8.780128000">
        <ele>98.000000</ele>
        <time>2020-10-17T16:41:02Z</time>
      </trkpt>
      <trkpt lat="39.686637000" lon="-8.780115000">
        <ele>98.000000</ele>
        <time>2020-10-17T16:41:03Z</time>
      </trkpt>
      <trkpt lat="39.686696000" lon="-8.780106000">
        <ele>98.400000</ele>
        <time>2020-10-17T16:41:04Z</time>
      </trkpt>
      <trkpt lat="39.686757000" lon="-8.780101000">
        <ele>98.600000</ele>
        <time>2020-10-17T16:41:05Z</time>
      </trkpt>
      <trkpt lat="39.686816000" lon="-8.780100000">
        <ele>99.000000</ele>
        <time>2020-10-17T16:41:06Z</time>
      </trkpt>
      <trkpt lat="39.686875000" lon="-8.780106000">
        <ele>99.000000</ele>
        <time>2020-10-17T16:41:07Z</time>
      </trkpt>
      <trkpt lat="39.686937000" lon="-8.780116000">
        <ele>99.000000</ele>
        <time>2020-10-17T16:41:08Z</time>
      </trkpt>
      <trkpt lat="39.687001000" lon="-8.780131000">
        <ele>99.200000</ele>
        <time>2020-10-17T16:41:09Z</time>
      </trkpt>
      <trkpt lat="39.687066000" lon="-8.780155000">
        <ele>99.200000</ele>
        <time>2020-10-17T16:41:10Z</time>
      </trkpt>
      <trkpt lat="39.687133000" lon="-8.780185000">
        <ele>99.200000</ele>
        <time>2020-10-17T16:41:11Z</time>
      </trkpt>
      <trkpt lat="39.687198000" lon="-8.780219000">
        <ele>99.200000</ele>
        <time>2020-10-17T16:41:12Z</time>
      </trkpt>
      <trkpt lat="39.687265000" lon="-8.780258000">
        <ele>99.200000</ele>
        <time>2020-10-17T16:41:13Z</time>
      </trkpt>
      <trkpt lat="39.687532000" lon="-8.780442000">
        <ele>99.200000</ele>
        <time>2020-10-17T16:41:17Z</time>
      </trkpt>
      <trkpt lat="39.687594000" lon="-8.780493000">
        <ele>98.800000</ele>
        <time>2020-10-17T16:41:18Z</time>
      </trkpt>
      <trkpt lat="39.687658000" lon="-8.780550000">
        <ele>98.800000</ele>
        <time>2020-10-17T16:41:19Z</time>
      </trkpt>
      <trkpt lat="39.687721000" lon="-8.780610000">
        <ele>98.400000</ele>
        <time>2020-10-17T16:41:20Z</time>
      </trkpt>
      <trkpt lat="39.687856000" lon="-8.780734000">
        <ele>98.000000</ele>
        <time>2020-10-17T16:41:22Z</time>
      </trkpt>
      <trkpt lat="39.687985000" lon="-8.780877000">
        <ele>97.800000</ele>
        <time>2020-10-17T16:41:24Z</time>
      </trkpt>
      <trkpt lat="39.688113000" lon="-8.781025000">
        <ele>97.400000</ele>
        <time>2020-10-17T16:41:26Z</time>
      </trkpt>
      <trkpt lat="39.688179000" lon="-8.781098000">
        <ele>97.200000</ele>
        <time>2020-10-17T16:41:27Z</time>
      </trkpt>
      <trkpt lat="39.688392000" lon="-8.781303000">
        <ele>96.400000</ele>
        <time>2020-10-17T16:41:30Z</time>
      </trkpt>
      <trkpt lat="39.688466000" lon="-8.781363000">
        <ele>96.000000</ele>
        <time>2020-10-17T16:41:31Z</time>
      </trkpt>
      <trkpt lat="39.688539000" lon="-8.781418000">
        <ele>95.800000</ele>
        <time>2020-10-17T16:41:32Z</time>
      </trkpt>
      <trkpt lat="39.688611000" lon="-8.781475000">
        <ele>95.200000</ele>
        <time>2020-10-17T16:41:33Z</time>
      </trkpt>
      <trkpt lat="39.688683000" lon="-8.781532000">
        <ele>94.600000</ele>
        <time>2020-10-17T16:41:34Z</time>
      </trkpt>
      <trkpt lat="39.688755000" lon="-8.781586000">
        <ele>94.200000</ele>
        <time>2020-10-17T16:41:35Z</time>
      </trkpt>
      <trkpt lat="39.688824000" lon="-8.781638000">
        <ele>93.800000</ele>
        <time>2020-10-17T16:41:36Z</time>
      </trkpt>
      <trkpt lat="39.688895000" lon="-8.781687000">
        <ele>93.400000</ele>
        <time>2020-10-17T16:41:37Z</time>
      </trkpt>
      <trkpt lat="39.688968000" lon="-8.781732000">
        <ele>93.000000</ele>
        <time>2020-10-17T16:41:38Z</time>
      </trkpt>
      <trkpt lat="39.689037000" lon="-8.781775000">
        <ele>92.800000</ele>
        <time>2020-10-17T16:41:39Z</time>
      </trkpt>
      <trkpt lat="39.689112000" lon="-8.781816000">
        <ele>92.600000</ele>
        <time>2020-10-17T16:41:40Z</time>
      </trkpt>
      <trkpt lat="39.689339000" lon="-8.781896000">
        <ele>92.400000</ele>
        <time>2020-10-17T16:41:43Z</time>
      </trkpt>
      <trkpt lat="39.689419000" lon="-8.781909000">
        <ele>92.400000</ele>
        <time>2020-10-17T16:41:44Z</time>
      </trkpt>
      <trkpt lat="39.689654000" lon="-8.781919000">
        <ele>92.200000</ele>
        <time>2020-10-17T16:41:47Z</time>
      </trkpt>
      <trkpt lat="39.689809000" lon="-8.781913000">
        <ele>91.800000</ele>
        <time>2020-10-17T16:41:49Z</time>
      </trkpt>
      <trkpt lat="39.689965000" lon="-8.781903000">
        <ele>91.600000</ele>
        <time>2020-10-17T16:41:51Z</time>
      </trkpt>
      <trkpt lat="39.690285000" lon="-8.781890000">
        <ele>90.800000</ele>
        <time>2020-10-17T16:41:55Z</time>
      </trkpt>
      <trkpt lat="39.690365000" lon="-8.781891000">
        <ele>90.800000</ele>
        <time>2020-10-17T16:41:56Z</time>
      </trkpt>
      <trkpt lat="39.690442000" lon="-8.781896000">
        <ele>90.600000</ele>
        <time>2020-10-17T16:41:57Z</time>
      </trkpt>
      <trkpt lat="39.690516000" lon="-8.781900000">
        <ele>90.400000</ele>
        <time>2020-10-17T16:41:58Z</time>
      </trkpt>
      <trkpt lat="39.690588000" lon="-8.781905000">
        <ele>90.400000</ele>
        <time>2020-10-17T16:41:59Z</time>
      </trkpt>
      <trkpt lat="39.690718000" lon="-8.781922000">
        <ele>90.000000</ele>
        <time>2020-10-17T16:42:01Z</time>
      </trkpt>
      <trkpt lat="39.690780000" lon="-8.781932000">
        <ele>90.000000</ele>
        <time>2020-10-17T16:42:02Z</time>
      </trkpt>
      <trkpt lat="39.690846000" lon="-8.781938000">
        <ele>90.000000</ele>
        <time>2020-10-17T16:42:03Z</time>
      </trkpt>
      <trkpt lat="39.690912000" lon="-8.781946000">
        <ele>90.000000</ele>
        <time>2020-10-17T16:42:04Z</time>
      </trkpt>
      <trkpt lat="39.690977000" lon="-8.781955000">
        <ele>90.200000</ele>
        <time>2020-10-17T16:42:05Z</time>
      </trkpt>
      <trkpt lat="39.691038000" lon="-8.781969000">
        <ele>90.000000</ele>
        <time>2020-10-17T16:42:06Z</time>
      </trkpt>
      <trkpt lat="39.691101000" lon="-8.781982000">
        <ele>90.000000</ele>
        <time>2020-10-17T16:42:07Z</time>
      </trkpt>
      <trkpt lat="39.691298000" lon="-8.782023000">
        <ele>90.200000</ele>
        <time>2020-10-17T16:42:10Z</time>
      </trkpt>
      <trkpt lat="39.691361000" lon="-8.782036000">
        <ele>90.200000</ele>
        <time>2020-10-17T16:42:11Z</time>
      </trkpt>
      <trkpt lat="39.691424000" lon="-8.782048000">
        <ele>90.400000</ele>
        <time>2020-10-17T16:42:12Z</time>
      </trkpt>
      <trkpt lat="39.691546000" lon="-8.782068000">
        <ele>91.000000</ele>
        <time>2020-10-17T16:42:14Z</time>
      </trkpt>
      <trkpt lat="39.691668000" lon="-8.782091000">
        <ele>91.400000</ele>
        <time>2020-10-17T16:42:16Z</time>
      </trkpt>
      <trkpt lat="39.691730000" lon="-8.782103000">
        <ele>91.800000</ele>
        <time>2020-10-17T16:42:17Z</time>
      </trkpt>
      <trkpt lat="39.691793000" lon="-8.782116000">
        <ele>92.000000</ele>
        <time>2020-10-17T16:42:18Z</time>
      </trkpt>
      <trkpt lat="39.691854000" lon="-8.782130000">
        <ele>92.200000</ele>
        <time>2020-10-17T16:42:19Z</time>
      </trkpt>
      <trkpt lat="39.691917000" lon="-8.782144000">
        <ele>92.600000</ele>
        <time>2020-10-17T16:42:20Z</time>
      </trkpt>
      <trkpt lat="39.691983000" lon="-8.782156000">
        <ele>92.800000</ele>
        <time>2020-10-17T16:42:21Z</time>
      </trkpt>
      <trkpt lat="39.692051000" lon="-8.782167000">
        <ele>93.200000</ele>
        <time>2020-10-17T16:42:22Z</time>
      </trkpt>
      <trkpt lat="39.692119000" lon="-8.782178000">
        <ele>93.400000</ele>
        <time>2020-10-17T16:42:23Z</time>
      </trkpt>
      <trkpt lat="39.692189000" lon="-8.782192000">
        <ele>93.600000</ele>
        <time>2020-10-17T16:42:24Z</time>
      </trkpt>
      <trkpt lat="39.692258000" lon="-8.782205000">
        <ele>94.000000</ele>
        <time>2020-10-17T16:42:25Z</time>
      </trkpt>
      <trkpt lat="39.692326000" lon="-8.782219000">
        <ele>94.200000</ele>
        <time>2020-10-17T16:42:26Z</time>
      </trkpt>
      <trkpt lat="39.692394000" lon="-8.782236000">
        <ele>94.200000</ele>
        <time>2020-10-17T16:42:27Z</time>
      </trkpt>
      <trkpt lat="39.692463000" lon="-8.782251000">
        <ele>94.200000</ele>
        <time>2020-10-17T16:42:28Z</time>
      </trkpt>
      <trkpt lat="39.692530000" lon="-8.782266000">
        <ele>94.400000</ele>
        <time>2020-10-17T16:42:29Z</time>
      </trkpt>
      <trkpt lat="39.692597000" lon="-8.782281000">
        <ele>94.400000</ele>
        <time>2020-10-17T16:42:30Z</time>
      </trkpt>
      <trkpt lat="39.692667000" lon="-8.782295000">
        <ele>94.400000</ele>
        <time>2020-10-17T16:42:31Z</time>
      </trkpt>
      <trkpt lat="39.692738000" lon="-8.782309000">
        <ele>94.400000</ele>
        <time>2020-10-17T16:42:32Z</time>
      </trkpt>
      <trkpt lat="39.692811000" lon="-8.782325000">
        <ele>94.400000</ele>
        <time>2020-10-17T16:42:33Z</time>
      </trkpt>
      <trkpt lat="39.692887000" lon="-8.782343000">
        <ele>94.400000</ele>
        <time>2020-10-17T16:42:34Z</time>
      </trkpt>
      <trkpt lat="39.693117000" lon="-8.782397000">
        <ele>94.400000</ele>
        <time>2020-10-17T16:42:37Z</time>
      </trkpt>
      <trkpt lat="39.693355000" lon="-8.782457000">
        <ele>94.400000</ele>
        <time>2020-10-17T16:42:40Z</time>
      </trkpt>
      <trkpt lat="39.693437000" lon="-8.782484000">
        <ele>94.000000</ele>
        <time>2020-10-17T16:42:41Z</time>
      </trkpt>
      <trkpt lat="39.693513000" lon="-8.782520000">
        <ele>94.000000</ele>
        <time>2020-10-17T16:42:42Z</time>
      </trkpt>
      <trkpt lat="39.693587000" lon="-8.782564000">
        <ele>93.600000</ele>
        <time>2020-10-17T16:42:43Z</time>
      </trkpt>
      <trkpt lat="39.693726000" lon="-8.782674000">
        <ele>92.800000</ele>
        <time>2020-10-17T16:42:45Z</time>
      </trkpt>
      <trkpt lat="39.693850000" lon="-8.782823000">
        <ele>92.000000</ele>
        <time>2020-10-17T16:42:47Z</time>
      </trkpt>
      <trkpt lat="39.693951000" lon="-8.783001000">
        <ele>91.200000</ele>
        <time>2020-10-17T16:42:49Z</time>
      </trkpt>
      <trkpt lat="39.694045000" lon="-8.783185000">
        <ele>90.400000</ele>
        <time>2020-10-17T16:42:51Z</time>
      </trkpt>
      <trkpt lat="39.694093000" lon="-8.783276000">
        <ele>89.600000</ele>
        <time>2020-10-17T16:42:52Z</time>
      </trkpt>
      <trkpt lat="39.694142000" lon="-8.783360000">
        <ele>89.400000</ele>
        <time>2020-10-17T16:42:53Z</time>
      </trkpt>
      <trkpt lat="39.694195000" lon="-8.783437000">
        <ele>89.400000</ele>
        <time>2020-10-17T16:42:54Z</time>
      </trkpt>
      <trkpt lat="39.694251000" lon="-8.783508000">
        <ele>89.000000</ele>
        <time>2020-10-17T16:42:55Z</time>
      </trkpt>
      <trkpt lat="39.694313000" lon="-8.783565000">
        <ele>88.400000</ele>
        <time>2020-10-17T16:42:56Z</time>
      </trkpt>
      <trkpt lat="39.694383000" lon="-8.783608000">
        <ele>87.800000</ele>
        <time>2020-10-17T16:42:57Z</time>
      </trkpt>
      <trkpt lat="39.694450000" lon="-8.783648000">
        <ele>87.600000</ele>
        <time>2020-10-17T16:42:58Z</time>
      </trkpt>
      <trkpt lat="39.694516000" lon="-8.783680000">
        <ele>87.200000</ele>
        <time>2020-10-17T16:42:59Z</time>
      </trkpt>
      <trkpt lat="39.694584000" lon="-8.783705000">
        <ele>87.200000</ele>
        <time>2020-10-17T16:43:00Z</time>
      </trkpt>
      <trkpt lat="39.694653000" lon="-8.783729000">
        <ele>86.800000</ele>
        <time>2020-10-17T16:43:01Z</time>
      </trkpt>
      <trkpt lat="39.694719000" lon="-8.783754000">
        <ele>87.000000</ele>
        <time>2020-10-17T16:43:02Z</time>
      </trkpt>
      <trkpt lat="39.694786000" lon="-8.783784000">
        <ele>87.000000</ele>
        <time>2020-10-17T16:43:03Z</time>
      </trkpt>
      <trkpt lat="39.694914000" lon="-8.783859000">
        <ele>86.800000</ele>
        <time>2020-10-17T16:43:05Z</time>
      </trkpt>
      <trkpt lat="39.694972000" lon="-8.783901000">
        <ele>86.600000</ele>
        <time>2020-10-17T16:43:06Z</time>
      </trkpt>
      <trkpt lat="39.695153000" lon="-8.784042000">
        <ele>86.600000</ele>
        <time>2020-10-17T16:43:09Z</time>
      </trkpt>
      <trkpt lat="39.695208000" lon="-8.784101000">
        <ele>86.600000</ele>
        <time>2020-10-17T16:43:10Z</time>
      </trkpt>
      <trkpt lat="39.695306000" lon="-8.784231000">
        <ele>86.600000</ele>
        <time>2020-10-17T16:43:12Z</time>
      </trkpt>
      <trkpt lat="39.695346000" lon="-8.784301000">
        <ele>86.600000</ele>
        <time>2020-10-17T16:43:13Z</time>
      </trkpt>
      <trkpt lat="39.695373000" lon="-8.784376000">
        <ele>86.600000</ele>
        <time>2020-10-17T16:43:14Z</time>
      </trkpt>
      <trkpt lat="39.695396000" lon="-8.784459000">
        <ele>86.600000</ele>
        <time>2020-10-17T16:43:15Z</time>
      </trkpt>
      <trkpt lat="39.695414000" lon="-8.784548000">
        <ele>86.600000</ele>
        <time>2020-10-17T16:43:16Z</time>
      </trkpt>
      <trkpt lat="39.695466000" lon="-8.784910000">
        <ele>86.400000</ele>
        <time>2020-10-17T16:43:20Z</time>
      </trkpt>
      <trkpt lat="39.695530000" lon="-8.785271000">
        <ele>86.000000</ele>
        <time>2020-10-17T16:43:24Z</time>
      </trkpt>
      <trkpt lat="39.695554000" lon="-8.785355000">
        <ele>86.000000</ele>
        <time>2020-10-17T16:43:25Z</time>
      </trkpt>
      <trkpt lat="39.695581000" lon="-8.785438000">
        <ele>85.800000</ele>
        <time>2020-10-17T16:43:26Z</time>
      </trkpt>
      <trkpt lat="39.695608000" lon="-8.785520000">
        <ele>85.800000</ele>
        <time>2020-10-17T16:43:27Z</time>
      </trkpt>
      <trkpt lat="39.695652000" lon="-8.785684000">
        <ele>85.600000</ele>
        <time>2020-10-17T16:43:29Z</time>
      </trkpt>
      <trkpt lat="39.695667000" lon="-8.785770000">
        <ele>85.600000</ele>
        <time>2020-10-17T16:43:30Z</time>
      </trkpt>
      <trkpt lat="39.695694000" lon="-8.785945000">
        <ele>85.600000</ele>
        <time>2020-10-17T16:43:32Z</time>
      </trkpt>
      <trkpt lat="39.695703000" lon="-8.786033000">
        <ele>85.800000</ele>
        <time>2020-10-17T16:43:33Z</time>
      </trkpt>
      <trkpt lat="39.695801000" lon="-8.786652000">
        <ele>85.600000</ele>
        <time>2020-10-17T16:43:40Z</time>
      </trkpt>
      <trkpt lat="39.695886000" lon="-8.786916000">
        <ele>85.200000</ele>
        <time>2020-10-17T16:43:43Z</time>
      </trkpt>
      <trkpt lat="39.695928000" lon="-8.786994000">
        <ele>85.400000</ele>
        <time>2020-10-17T16:43:44Z</time>
      </trkpt>
      <trkpt lat="39.695978000" lon="-8.787062000">
        <ele>85.400000</ele>
        <time>2020-10-17T16:43:45Z</time>
      </trkpt>
      <trkpt lat="39.696033000" lon="-8.787121000">
        <ele>85.400000</ele>
        <time>2020-10-17T16:43:46Z</time>
      </trkpt>
      <trkpt lat="39.696090000" lon="-8.787173000">
        <ele>85.200000</ele>
        <time>2020-10-17T16:43:47Z</time>
      </trkpt>
      <trkpt lat="39.696148000" lon="-8.787213000">
        <ele>85.200000</ele>
        <time>2020-10-17T16:43:48Z</time>
      </trkpt>
      <trkpt lat="39.696212000" lon="-8.787247000">
        <ele>85.200000</ele>
        <time>2020-10-17T16:43:49Z</time>
      </trkpt>
      <trkpt lat="39.696485000" lon="-8.787362000">
        <ele>85.000000</ele>
        <time>2020-10-17T16:43:53Z</time>
      </trkpt>
      <trkpt lat="39.696832000" lon="-8.787486000">
        <ele>84.800000</ele>
        <time>2020-10-17T16:43:58Z</time>
      </trkpt>
      <trkpt lat="39.696901000" lon="-8.787506000">
        <ele>85.000000</ele>
        <time>2020-10-17T16:43:59Z</time>
      </trkpt>
      <trkpt lat="39.696972000" lon="-8.787515000">
        <ele>85.000000</ele>
        <time>2020-10-17T16:44:00Z</time>
      </trkpt>
      <trkpt lat="39.697192000" lon="-8.787552000">
        <ele>84.800000</ele>
        <time>2020-10-17T16:44:03Z</time>
      </trkpt>
      <trkpt lat="39.697267000" lon="-8.787567000">
        <ele>84.800000</ele>
        <time>2020-10-17T16:44:04Z</time>
      </trkpt>
      <trkpt lat="39.697340000" lon="-8.787581000">
        <ele>84.800000</ele>
        <time>2020-10-17T16:44:05Z</time>
      </trkpt>
      <trkpt lat="39.697407000" lon="-8.787589000">
        <ele>84.800000</ele>
        <time>2020-10-17T16:44:06Z</time>
      </trkpt>
      <trkpt lat="39.697473000" lon="-8.787599000">
        <ele>84.800000</ele>
        <time>2020-10-17T16:44:07Z</time>
      </trkpt>
      <trkpt lat="39.697542000" lon="-8.787611000">
        <ele>84.600000</ele>
        <time>2020-10-17T16:44:08Z</time>
      </trkpt>
      <trkpt lat="39.697609000" lon="-8.787623000">
        <ele>84.400000</ele>
        <time>2020-10-17T16:44:09Z</time>
      </trkpt>
      <trkpt lat="39.698096000" lon="-8.787775000">
        <ele>83.800000</ele>
        <time>2020-10-17T16:44:16Z</time>
      </trkpt>
      <trkpt lat="39.698354000" lon="-8.787924000">
        <ele>83.800000</ele>
        <time>2020-10-17T16:44:20Z</time>
      </trkpt>
      <trkpt lat="39.698420000" lon="-8.787964000">
        <ele>83.600000</ele>
        <time>2020-10-17T16:44:21Z</time>
      </trkpt>
      <trkpt lat="39.698608000" lon="-8.788087000">
        <ele>83.600000</ele>
        <time>2020-10-17T16:44:24Z</time>
      </trkpt>
      <trkpt lat="39.698804000" lon="-8.788219000">
        <ele>83.400000</ele>
        <time>2020-10-17T16:44:27Z</time>
      </trkpt>
      <trkpt lat="39.698937000" lon="-8.788304000">
        <ele>83.400000</ele>
        <time>2020-10-17T16:44:29Z</time>
      </trkpt>
      <trkpt lat="39.699391000" lon="-8.788614000">
        <ele>82.800000</ele>
        <time>2020-10-17T16:44:36Z</time>
      </trkpt>
      <trkpt lat="39.699453000" lon="-8.788658000">
        <ele>83.000000</ele>
        <time>2020-10-17T16:44:37Z</time>
      </trkpt>
      <trkpt lat="39.699579000" lon="-8.788744000">
        <ele>82.800000</ele>
        <time>2020-10-17T16:44:39Z</time>
      </trkpt>
      <trkpt lat="39.699644000" lon="-8.788784000">
        <ele>82.800000</ele>
        <time>2020-10-17T16:44:40Z</time>
      </trkpt>
      <trkpt lat="39.699706000" lon="-8.788820000">
        <ele>82.800000</ele>
        <time>2020-10-17T16:44:41Z</time>
      </trkpt>
      <trkpt lat="39.699768000" lon="-8.788846000">
        <ele>82.800000</ele>
        <time>2020-10-17T16:44:42Z</time>
      </trkpt>
      <trkpt lat="39.699831000" lon="-8.788859000">
        <ele>82.800000</ele>
        <time>2020-10-17T16:44:43Z</time>
      </trkpt>
      <trkpt lat="39.699892000" lon="-8.788860000">
        <ele>82.800000</ele>
        <time>2020-10-17T16:44:44Z</time>
      </trkpt>
      <trkpt lat="39.699949000" lon="-8.788857000">
        <ele>82.800000</ele>
        <time>2020-10-17T16:44:45Z</time>
      </trkpt>
      <trkpt lat="39.700002000" lon="-8.788865000">
        <ele>82.800000</ele>
        <time>2020-10-17T16:44:46Z</time>
      </trkpt>
      <trkpt lat="39.700053000" lon="-8.788888000">
        <ele>82.800000</ele>
        <time>2020-10-17T16:44:47Z</time>
      </trkpt>
      <trkpt lat="39.700100000" lon="-8.788923000">
        <ele>82.600000</ele>
        <time>2020-10-17T16:44:48Z</time>
      </trkpt>
      <trkpt lat="39.700133000" lon="-8.788985000">
        <ele>82.600000</ele>
        <time>2020-10-17T16:44:49Z</time>
      </trkpt>
      <trkpt lat="39.700169000" lon="-8.789044000">
        <ele>82.600000</ele>
        <time>2020-10-17T16:44:50Z</time>
      </trkpt>
      <trkpt lat="39.700207000" lon="-8.789101000">
        <ele>82.600000</ele>
        <time>2020-10-17T16:44:51Z</time>
      </trkpt>
      <trkpt lat="39.700308000" lon="-8.789200000">
        <ele>82.600000</ele>
        <time>2020-10-17T16:44:53Z</time>
      </trkpt>
      <trkpt lat="39.700363000" lon="-8.789244000">
        <ele>82.600000</ele>
        <time>2020-10-17T16:44:54Z</time>
      </trkpt>
      <trkpt lat="39.700603000" lon="-8.789425000">
        <ele>82.400000</ele>
        <time>2020-10-17T16:44:58Z</time>
      </trkpt>
      <trkpt lat="39.700662000" lon="-8.789477000">
        <ele>82.600000</ele>
        <time>2020-10-17T16:44:59Z</time>
      </trkpt>
      <trkpt lat="39.700719000" lon="-8.789528000">
        <ele>82.600000</ele>
        <time>2020-10-17T16:45:00Z</time>
      </trkpt>
      <trkpt lat="39.700774000" lon="-8.789580000">
        <ele>82.400000</ele>
        <time>2020-10-17T16:45:01Z</time>
      </trkpt>
      <trkpt lat="39.701155000" lon="-8.789974000">
        <ele>82.000000</ele>
        <time>2020-10-17T16:45:08Z</time>
      </trkpt>
      <trkpt lat="39.701261000" lon="-8.790089000">
        <ele>82.000000</ele>
        <time>2020-10-17T16:45:10Z</time>
      </trkpt>
      <trkpt lat="39.701363000" lon="-8.790210000">
        <ele>82.000000</ele>
        <time>2020-10-17T16:45:12Z</time>
      </trkpt>
      <trkpt lat="39.701503000" lon="-8.790409000">
        <ele>81.800000</ele>
        <time>2020-10-17T16:45:15Z</time>
      </trkpt>
      <trkpt lat="39.701549000" lon="-8.790476000">
        <ele>81.800000</ele>
        <time>2020-10-17T16:45:16Z</time>
      </trkpt>
      <trkpt lat="39.701791000" lon="-8.790789000">
        <ele>81.600000</ele>
        <time>2020-10-17T16:45:21Z</time>
      </trkpt>
      <trkpt lat="39.701839000" lon="-8.790854000">
        <ele>81.600000</ele>
        <time>2020-10-17T16:45:22Z</time>
      </trkpt>
      <trkpt lat="39.702105000" lon="-8.791184000">
        <ele>81.600000</ele>
        <time>2020-10-17T16:45:27Z</time>
      </trkpt>
      <trkpt lat="39.702208000" lon="-8.791327000">
        <ele>81.600000</ele>
        <time>2020-10-17T16:45:29Z</time>
      </trkpt>
      <trkpt lat="39.702311000" lon="-8.791463000">
        <ele>81.600000</ele>
        <time>2020-10-17T16:45:31Z</time>
      </trkpt>
      <trkpt lat="39.702363000" lon="-8.791528000">
        <ele>81.600000</ele>
        <time>2020-10-17T16:45:32Z</time>
      </trkpt>
      <trkpt lat="39.702414000" lon="-8.791592000">
        <ele>81.600000</ele>
        <time>2020-10-17T16:45:33Z</time>
      </trkpt>
      <trkpt lat="39.702626000" lon="-8.791836000">
        <ele>81.400000</ele>
        <time>2020-10-17T16:45:37Z</time>
      </trkpt>
      <trkpt lat="39.703063000" lon="-8.792327000">
        <ele>81.200000</ele>
        <time>2020-10-17T16:45:45Z</time>
      </trkpt>
      <trkpt lat="39.703122000" lon="-8.792382000">
        <ele>81.200000</ele>
        <time>2020-10-17T16:45:46Z</time>
      </trkpt>
      <trkpt lat="39.703380000" lon="-8.792580000">
        <ele>81.200000</ele>
        <time>2020-10-17T16:45:50Z</time>
      </trkpt>
      <trkpt lat="39.703445000" lon="-8.792621000">
        <ele>81.200000</ele>
        <time>2020-10-17T16:45:51Z</time>
      </trkpt>
      <trkpt lat="39.703789000" lon="-8.792797000">
        <ele>81.200000</ele>
        <time>2020-10-17T16:45:56Z</time>
      </trkpt>
      <trkpt lat="39.703858000" lon="-8.792828000">
        <ele>81.200000</ele>
        <time>2020-10-17T16:45:57Z</time>
      </trkpt>
      <trkpt lat="39.703928000" lon="-8.792853000">
        <ele>81.000000</ele>
        <time>2020-10-17T16:45:58Z</time>
      </trkpt>
      <trkpt lat="39.704069000" lon="-8.792901000">
        <ele>81.200000</ele>
        <time>2020-10-17T16:46:00Z</time>
      </trkpt>
      <trkpt lat="39.704138000" lon="-8.792920000">
        <ele>81.000000</ele>
        <time>2020-10-17T16:46:01Z</time>
      </trkpt>
      <trkpt lat="39.704279000" lon="-8.792948000">
        <ele>81.000000</ele>
        <time>2020-10-17T16:46:03Z</time>
      </trkpt>
      <trkpt lat="39.704349000" lon="-8.792956000">
        <ele>80.800000</ele>
        <time>2020-10-17T16:46:04Z</time>
      </trkpt>
      <trkpt lat="39.704718000" lon="-8.792964000">
        <ele>80.600000</ele>
        <time>2020-10-17T16:46:09Z</time>
      </trkpt>
      <trkpt lat="39.704790000" lon="-8.792961000">
        <ele>80.400000</ele>
        <time>2020-10-17T16:46:10Z</time>
      </trkpt>
      <trkpt lat="39.704866000" lon="-8.792957000">
        <ele>80.400000</ele>
        <time>2020-10-17T16:46:11Z</time>
      </trkpt>
      <trkpt lat="39.705092000" lon="-8.792951000">
        <ele>80.200000</ele>
        <time>2020-10-17T16:46:14Z</time>
      </trkpt>
      <trkpt lat="39.705165000" lon="-8.792951000">
        <ele>80.000000</ele>
        <time>2020-10-17T16:46:15Z</time>
      </trkpt>
      <trkpt lat="39.705530000" lon="-8.792941000">
        <ele>80.000000</ele>
        <time>2020-10-17T16:46:20Z</time>
      </trkpt>
      <trkpt lat="39.705988000" lon="-8.792931000">
        <ele>79.800000</ele>
        <time>2020-10-17T16:46:26Z</time>
      </trkpt>
      <trkpt lat="39.706064000" lon="-8.792932000">
        <ele>79.600000</ele>
        <time>2020-10-17T16:46:27Z</time>
      </trkpt>
      <trkpt lat="39.706140000" lon="-8.792934000">
        <ele>79.600000</ele>
        <time>2020-10-17T16:46:28Z</time>
      </trkpt>
      <trkpt lat="39.706444000" lon="-8.792930000">
        <ele>79.400000</ele>
        <time>2020-10-17T16:46:32Z</time>
      </trkpt>
      <trkpt lat="39.706516000" lon="-8.792930000">
        <ele>79.400000</ele>
        <time>2020-10-17T16:46:33Z</time>
      </trkpt>
      <trkpt lat="39.706740000" lon="-8.792933000">
        <ele>79.200000</ele>
        <time>2020-10-17T16:46:36Z</time>
      </trkpt>
      <trkpt lat="39.706817000" lon="-8.792931000">
        <ele>79.200000</ele>
        <time>2020-10-17T16:46:37Z</time>
      </trkpt>
      <trkpt lat="39.706969000" lon="-8.792929000">
        <ele>79.200000</ele>
        <time>2020-10-17T16:46:39Z</time>
      </trkpt>
      <trkpt lat="39.707192000" lon="-8.792930000">
        <ele>79.000000</ele>
        <time>2020-10-17T16:46:42Z</time>
      </trkpt>
      <trkpt lat="39.707265000" lon="-8.792927000">
        <ele>79.000000</ele>
        <time>2020-10-17T16:46:43Z</time>
      </trkpt>
      <trkpt lat="39.707644000" lon="-8.792915000">
        <ele>78.800000</ele>
        <time>2020-10-17T16:46:48Z</time>
      </trkpt>
      <trkpt lat="39.707720000" lon="-8.792912000">
        <ele>78.600000</ele>
        <time>2020-10-17T16:46:49Z</time>
      </trkpt>
      <trkpt lat="39.707795000" lon="-8.792910000">
        <ele>78.600000</ele>
        <time>2020-10-17T16:46:50Z</time>
      </trkpt>
      <trkpt lat="39.707868000" lon="-8.792907000">
        <ele>78.600000</ele>
        <time>2020-10-17T16:46:51Z</time>
      </trkpt>
      <trkpt lat="39.707942000" lon="-8.792903000">
        <ele>78.600000</ele>
        <time>2020-10-17T16:46:52Z</time>
      </trkpt>
      <trkpt lat="39.708167000" lon="-8.792879000">
        <ele>78.400000</ele>
        <time>2020-10-17T16:46:55Z</time>
      </trkpt>
      <trkpt lat="39.708239000" lon="-8.792868000">
        <ele>78.200000</ele>
        <time>2020-10-17T16:46:56Z</time>
      </trkpt>
      <trkpt lat="39.708463000" lon="-8.792808000">
        <ele>78.200000</ele>
        <time>2020-10-17T16:46:59Z</time>
      </trkpt>
      <trkpt lat="39.708681000" lon="-8.792729000">
        <ele>78.000000</ele>
        <time>2020-10-17T16:47:02Z</time>
      </trkpt>
      <trkpt lat="39.708821000" lon="-8.792670000">
        <ele>77.800000</ele>
        <time>2020-10-17T16:47:04Z</time>
      </trkpt>
      <trkpt lat="39.708957000" lon="-8.792607000">
        <ele>77.800000</ele>
        <time>2020-10-17T16:47:06Z</time>
      </trkpt>
      <trkpt lat="39.709022000" lon="-8.792571000">
        <ele>77.600000</ele>
        <time>2020-10-17T16:47:07Z</time>
      </trkpt>
      <trkpt lat="39.709474000" lon="-8.792222000">
        <ele>77.600000</ele>
        <time>2020-10-17T16:47:14Z</time>
      </trkpt>
      <trkpt lat="39.709716000" lon="-8.791951000">
        <ele>77.600000</ele>
        <time>2020-10-17T16:47:18Z</time>
      </trkpt>
      <trkpt lat="39.709775000" lon="-8.791884000">
        <ele>77.400000</ele>
        <time>2020-10-17T16:47:19Z</time>
      </trkpt>
      <trkpt lat="39.709833000" lon="-8.791818000">
        <ele>77.600000</ele>
        <time>2020-10-17T16:47:20Z</time>
      </trkpt>
      <trkpt lat="39.709890000" lon="-8.791747000">
        <ele>77.400000</ele>
        <time>2020-10-17T16:47:21Z</time>
      </trkpt>
      <trkpt lat="39.709945000" lon="-8.791676000">
        <ele>77.400000</ele>
        <time>2020-10-17T16:47:22Z</time>
      </trkpt>
      <trkpt lat="39.709998000" lon="-8.791604000">
        <ele>77.400000</ele>
        <time>2020-10-17T16:47:23Z</time>
      </trkpt>
      <trkpt lat="39.710052000" lon="-8.791535000">
        <ele>77.400000</ele>
        <time>2020-10-17T16:47:24Z</time>
      </trkpt>
      <trkpt lat="39.710278000" lon="-8.791266000">
        <ele>77.200000</ele>
        <time>2020-10-17T16:47:28Z</time>
      </trkpt>
      <trkpt lat="39.710333000" lon="-8.791201000">
        <ele>77.200000</ele>
        <time>2020-10-17T16:47:29Z</time>
      </trkpt>
      <trkpt lat="39.710386000" lon="-8.791136000">
        <ele>77.200000</ele>
        <time>2020-10-17T16:47:30Z</time>
      </trkpt>
      <trkpt lat="39.710439000" lon="-8.791072000">
        <ele>77.200000</ele>
        <time>2020-10-17T16:47:31Z</time>
      </trkpt>
      <trkpt lat="39.710492000" lon="-8.791009000">
        <ele>77.000000</ele>
        <time>2020-10-17T16:47:32Z</time>
      </trkpt>
      <trkpt lat="39.710666000" lon="-8.790805000">
        <ele>77.000000</ele>
        <time>2020-10-17T16:47:35Z</time>
      </trkpt>
      <trkpt lat="39.710719000" lon="-8.790740000">
        <ele>77.000000</ele>
        <time>2020-10-17T16:47:36Z</time>
      </trkpt>
      <trkpt lat="39.710881000" lon="-8.790542000">
        <ele>77.000000</ele>
        <time>2020-10-17T16:47:39Z</time>
      </trkpt>
      <trkpt lat="39.710933000" lon="-8.790480000">
        <ele>76.800000</ele>
        <time>2020-10-17T16:47:40Z</time>
      </trkpt>
      <trkpt lat="39.710987000" lon="-8.790416000">
        <ele>76.800000</ele>
        <time>2020-10-17T16:47:41Z</time>
      </trkpt>
      <trkpt lat="39.711094000" lon="-8.790287000">
        <ele>76.800000</ele>
        <time>2020-10-17T16:47:43Z</time>
      </trkpt>
      <trkpt lat="39.711145000" lon="-8.790224000">
        <ele>76.800000</ele>
        <time>2020-10-17T16:47:44Z</time>
      </trkpt>
      <trkpt lat="39.711199000" lon="-8.790163000">
        <ele>76.600000</ele>
        <time>2020-10-17T16:47:45Z</time>
      </trkpt>
      <trkpt lat="39.711248000" lon="-8.790103000">
        <ele>76.600000</ele>
        <time>2020-10-17T16:47:46Z</time>
      </trkpt>
      <trkpt lat="39.711302000" lon="-8.790039000">
        <ele>76.800000</ele>
        <time>2020-10-17T16:47:47Z</time>
      </trkpt>
      <trkpt lat="39.711356000" lon="-8.789977000">
        <ele>76.600000</ele>
        <time>2020-10-17T16:47:48Z</time>
      </trkpt>
      <trkpt lat="39.711406000" lon="-8.789919000">
        <ele>76.600000</ele>
        <time>2020-10-17T16:47:49Z</time>
      </trkpt>
      <trkpt lat="39.711458000" lon="-8.789861000">
        <ele>76.400000</ele>
        <time>2020-10-17T16:47:50Z</time>
      </trkpt>
      <trkpt lat="39.711513000" lon="-8.789812000">
        <ele>76.400000</ele>
        <time>2020-10-17T16:47:51Z</time>
      </trkpt>
      <trkpt lat="39.711713000" lon="-8.789638000">
        <ele>76.400000</ele>
        <time>2020-10-17T16:47:54Z</time>
      </trkpt>
      <trkpt lat="39.711777000" lon="-8.789583000">
        <ele>76.400000</ele>
        <time>2020-10-17T16:47:55Z</time>
      </trkpt>
      <trkpt lat="39.711837000" lon="-8.789534000">
        <ele>76.200000</ele>
        <time>2020-10-17T16:47:56Z</time>
      </trkpt>
      <trkpt lat="39.711901000" lon="-8.789486000">
        <ele>76.400000</ele>
        <time>2020-10-17T16:47:57Z</time>
      </trkpt>
      <trkpt lat="39.712041000" lon="-8.789399000">
        <ele>76.200000</ele>
        <time>2020-10-17T16:47:59Z</time>
      </trkpt>
      <trkpt lat="39.712114000" lon="-8.789356000">
        <ele>76.200000</ele>
        <time>2020-10-17T16:48:00Z</time>
      </trkpt>
      <trkpt lat="39.712555000" lon="-8.789120000">
        <ele>76.000000</ele>
        <time>2020-10-17T16:48:06Z</time>
      </trkpt>
      <trkpt lat="39.712873000" lon="-8.788988000">
        <ele>75.800000</ele>
        <time>2020-10-17T16:48:10Z</time>
      </trkpt>
      <trkpt lat="39.713043000" lon="-8.788947000">
        <ele>75.800000</ele>
        <time>2020-10-17T16:48:12Z</time>
      </trkpt>
      <trkpt lat="39.713480000" lon="-8.788912000">
        <ele>75.600000</ele>
        <time>2020-10-17T16:48:17Z</time>
      </trkpt>
      <trkpt lat="39.713662000" lon="-8.788907000">
        <ele>75.200000</ele>
        <time>2020-10-17T16:48:19Z</time>
      </trkpt>
      <trkpt lat="39.713754000" lon="-8.788906000">
        <ele>75.000000</ele>
        <time>2020-10-17T16:48:20Z</time>
      </trkpt>
      <trkpt lat="39.714027000" lon="-8.788913000">
        <ele>74.600000</ele>
        <time>2020-10-17T16:48:23Z</time>
      </trkpt>
      <trkpt lat="39.714114000" lon="-8.788914000">
        <ele>74.600000</ele>
        <time>2020-10-17T16:48:24Z</time>
      </trkpt>
      <trkpt lat="39.714200000" lon="-8.788914000">
        <ele>74.400000</ele>
        <time>2020-10-17T16:48:25Z</time>
      </trkpt>
      <trkpt lat="39.714375000" lon="-8.788912000">
        <ele>74.200000</ele>
        <time>2020-10-17T16:48:27Z</time>
      </trkpt>
      <trkpt lat="39.714458000" lon="-8.788912000">
        <ele>74.000000</ele>
        <time>2020-10-17T16:48:28Z</time>
      </trkpt>
      <trkpt lat="39.714877000" lon="-8.788911000">
        <ele>73.600000</ele>
        <time>2020-10-17T16:48:33Z</time>
      </trkpt>
      <trkpt lat="39.714959000" lon="-8.788910000">
        <ele>73.600000</ele>
        <time>2020-10-17T16:48:34Z</time>
      </trkpt>
      <trkpt lat="39.715298000" lon="-8.788907000">
        <ele>73.200000</ele>
        <time>2020-10-17T16:48:38Z</time>
      </trkpt>
      <trkpt lat="39.715473000" lon="-8.788909000">
        <ele>73.000000</ele>
        <time>2020-10-17T16:48:40Z</time>
      </trkpt>
      <trkpt lat="39.715650000" lon="-8.788906000">
        <ele>72.600000</ele>
        <time>2020-10-17T16:48:42Z</time>
      </trkpt>
      <trkpt lat="39.715823000" lon="-8.788911000">
        <ele>72.400000</ele>
        <time>2020-10-17T16:48:44Z</time>
      </trkpt>
      <trkpt lat="39.715906000" lon="-8.788911000">
        <ele>72.200000</ele>
        <time>2020-10-17T16:48:45Z</time>
      </trkpt>
      <trkpt lat="39.715988000" lon="-8.788910000">
        <ele>72.200000</ele>
        <time>2020-10-17T16:48:46Z</time>
      </trkpt>
      <trkpt lat="39.716073000" lon="-8.788909000">
        <ele>72.200000</ele>
        <time>2020-10-17T16:48:47Z</time>
      </trkpt>
      <trkpt lat="39.716155000" lon="-8.788909000">
        <ele>71.800000</ele>
        <time>2020-10-17T16:48:48Z</time>
      </trkpt>
      <trkpt lat="39.716238000" lon="-8.788909000">
        <ele>71.800000</ele>
        <time>2020-10-17T16:48:49Z</time>
      </trkpt>
      <trkpt lat="39.716736000" lon="-8.788906000">
        <ele>71.600000</ele>
        <time>2020-10-17T16:48:55Z</time>
      </trkpt>
      <trkpt lat="39.716818000" lon="-8.788909000">
        <ele>71.400000</ele>
        <time>2020-10-17T16:48:56Z</time>
      </trkpt>
      <trkpt lat="39.716898000" lon="-8.788911000">
        <ele>71.200000</ele>
        <time>2020-10-17T16:48:57Z</time>
      </trkpt>
      <trkpt lat="39.716978000" lon="-8.788911000">
        <ele>71.000000</ele>
        <time>2020-10-17T16:48:58Z</time>
      </trkpt>
      <trkpt lat="39.717058000" lon="-8.788910000">
        <ele>71.000000</ele>
        <time>2020-10-17T16:48:59Z</time>
      </trkpt>
      <trkpt lat="39.717386000" lon="-8.788913000">
        <ele>70.400000</ele>
        <time>2020-10-17T16:49:03Z</time>
      </trkpt>
      <trkpt lat="39.717467000" lon="-8.788916000">
        <ele>70.400000</ele>
        <time>2020-10-17T16:49:04Z</time>
      </trkpt>
      <trkpt lat="39.717546000" lon="-8.788921000">
        <ele>70.400000</ele>
        <time>2020-10-17T16:49:05Z</time>
      </trkpt>
      <trkpt lat="39.717622000" lon="-8.788929000">
        <ele>70.200000</ele>
        <time>2020-10-17T16:49:06Z</time>
      </trkpt>
      <trkpt lat="39.717854000" lon="-8.788987000">
        <ele>69.800000</ele>
        <time>2020-10-17T16:49:09Z</time>
      </trkpt>
      <trkpt lat="39.718160000" lon="-8.789119000">
        <ele>69.600000</ele>
        <time>2020-10-17T16:49:13Z</time>
      </trkpt>
      <trkpt lat="39.718309000" lon="-8.789208000">
        <ele>69.400000</ele>
        <time>2020-10-17T16:49:15Z</time>
      </trkpt>
      <trkpt lat="39.718379000" lon="-8.789256000">
        <ele>69.400000</ele>
        <time>2020-10-17T16:49:16Z</time>
      </trkpt>
      <trkpt lat="39.718448000" lon="-8.789305000">
        <ele>69.400000</ele>
        <time>2020-10-17T16:49:17Z</time>
      </trkpt>
      <trkpt lat="39.718517000" lon="-8.789354000">
        <ele>69.200000</ele>
        <time>2020-10-17T16:49:18Z</time>
      </trkpt>
      <trkpt lat="39.718581000" lon="-8.789403000">
        <ele>69.200000</ele>
        <time>2020-10-17T16:49:19Z</time>
      </trkpt>
      <trkpt lat="39.718641000" lon="-8.789456000">
        <ele>69.200000</ele>
        <time>2020-10-17T16:49:20Z</time>
      </trkpt>
      <trkpt lat="39.718702000" lon="-8.789511000">
        <ele>69.000000</ele>
        <time>2020-10-17T16:49:21Z</time>
      </trkpt>
      <trkpt lat="39.718758000" lon="-8.789571000">
        <ele>68.800000</ele>
        <time>2020-10-17T16:49:22Z</time>
      </trkpt>
      <trkpt lat="39.718814000" lon="-8.789632000">
        <ele>68.800000</ele>
        <time>2020-10-17T16:49:23Z</time>
      </trkpt>
      <trkpt lat="39.718866000" lon="-8.789696000">
        <ele>68.600000</ele>
        <time>2020-10-17T16:49:24Z</time>
      </trkpt>
      <trkpt lat="39.718916000" lon="-8.789760000">
        <ele>68.600000</ele>
        <time>2020-10-17T16:49:25Z</time>
      </trkpt>
      <trkpt lat="39.718967000" lon="-8.789830000">
        <ele>68.600000</ele>
        <time>2020-10-17T16:49:26Z</time>
      </trkpt>
      <trkpt lat="39.719019000" lon="-8.789901000">
        <ele>68.600000</ele>
        <time>2020-10-17T16:49:27Z</time>
      </trkpt>
      <trkpt lat="39.719210000" lon="-8.790211000">
        <ele>68.600000</ele>
        <time>2020-10-17T16:49:31Z</time>
      </trkpt>
      <trkpt lat="39.719250000" lon="-8.790292000">
        <ele>68.600000</ele>
        <time>2020-10-17T16:49:32Z</time>
      </trkpt>
      <trkpt lat="39.719284000" lon="-8.790373000">
        <ele>68.600000</ele>
        <time>2020-10-17T16:49:33Z</time>
      </trkpt>
      <trkpt lat="39.719350000" lon="-8.790535000">
        <ele>68.600000</ele>
        <time>2020-10-17T16:49:35Z</time>
      </trkpt>
      <trkpt lat="39.719372000" lon="-8.790613000">
        <ele>68.600000</ele>
        <time>2020-10-17T16:49:36Z</time>
      </trkpt>
      <trkpt lat="39.719397000" lon="-8.790696000">
        <ele>68.800000</ele>
        <time>2020-10-17T16:49:37Z</time>
      </trkpt>
      <trkpt lat="39.719443000" lon="-8.790872000">
        <ele>68.800000</ele>
        <time>2020-10-17T16:49:39Z</time>
      </trkpt>
      <trkpt lat="39.719598000" lon="-8.791336000">
        <ele>69.000000</ele>
        <time>2020-10-17T16:49:44Z</time>
      </trkpt>
      <trkpt lat="39.719626000" lon="-8.791425000">
        <ele>69.200000</ele>
        <time>2020-10-17T16:49:45Z</time>
      </trkpt>
      <trkpt lat="39.719656000" lon="-8.791514000">
        <ele>69.200000</ele>
        <time>2020-10-17T16:49:46Z</time>
      </trkpt>
      <trkpt lat="39.719684000" lon="-8.791601000">
        <ele>69.400000</ele>
        <time>2020-10-17T16:49:47Z</time>
      </trkpt>
      <trkpt lat="39.719741000" lon="-8.791772000">
        <ele>69.600000</ele>
        <time>2020-10-17T16:49:49Z</time>
      </trkpt>
      <trkpt lat="39.719896000" lon="-8.792203000">
        <ele>70.000000</ele>
        <time>2020-10-17T16:49:54Z</time>
      </trkpt>
      <trkpt lat="39.719925000" lon="-8.792290000">
        <ele>70.200000</ele>
        <time>2020-10-17T16:49:55Z</time>
      </trkpt>
      <trkpt lat="39.720154000" lon="-8.792794000">
        <ele>70.600000</ele>
        <time>2020-10-17T16:50:01Z</time>
      </trkpt>
      <trkpt lat="39.720196000" lon="-8.792875000">
        <ele>70.600000</ele>
        <time>2020-10-17T16:50:02Z</time>
      </trkpt>
      <trkpt lat="39.720237000" lon="-8.792949000">
        <ele>70.800000</ele>
        <time>2020-10-17T16:50:03Z</time>
      </trkpt>
      <trkpt lat="39.720279000" lon="-8.793021000">
        <ele>70.600000</ele>
        <time>2020-10-17T16:50:04Z</time>
      </trkpt>
      <trkpt lat="39.720322000" lon="-8.793087000">
        <ele>70.800000</ele>
        <time>2020-10-17T16:50:05Z</time>
      </trkpt>
      <trkpt lat="39.720365000" lon="-8.793150000">
        <ele>71.200000</ele>
        <time>2020-10-17T16:50:06Z</time>
      </trkpt>
      <trkpt lat="39.720413000" lon="-8.793211000">
        <ele>71.200000</ele>
        <time>2020-10-17T16:50:07Z</time>
      </trkpt>
      <trkpt lat="39.720462000" lon="-8.793264000">
        <ele>71.200000</ele>
        <time>2020-10-17T16:50:08Z</time>
      </trkpt>
      <trkpt lat="39.720510000" lon="-8.793317000">
        <ele>71.400000</ele>
        <time>2020-10-17T16:50:09Z</time>
      </trkpt>
      <trkpt lat="39.720557000" lon="-8.793372000">
        <ele>71.600000</ele>
        <time>2020-10-17T16:50:10Z</time>
      </trkpt>
      <trkpt lat="39.720603000" lon="-8.793428000">
        <ele>71.600000</ele>
        <time>2020-10-17T16:50:11Z</time>
      </trkpt>
      <trkpt lat="39.720705000" lon="-8.793542000">
        <ele>71.600000</ele>
        <time>2020-10-17T16:50:13Z</time>
      </trkpt>
      <trkpt lat="39.720933000" lon="-8.793759000">
        <ele>71.800000</ele>
        <time>2020-10-17T16:50:17Z</time>
      </trkpt>
      <trkpt lat="39.720991000" lon="-8.793805000">
        <ele>71.600000</ele>
        <time>2020-10-17T16:50:18Z</time>
      </trkpt>
      <trkpt lat="39.721053000" lon="-8.793850000">
        <ele>71.600000</ele>
        <time>2020-10-17T16:50:19Z</time>
      </trkpt>
      <trkpt lat="39.721237000" lon="-8.793985000">
        <ele>71.800000</ele>
        <time>2020-10-17T16:50:22Z</time>
      </trkpt>
      <trkpt lat="39.721300000" lon="-8.794029000">
        <ele>71.600000</ele>
        <time>2020-10-17T16:50:23Z</time>
      </trkpt>
      <trkpt lat="39.721363000" lon="-8.794070000">
        <ele>71.600000</ele>
        <time>2020-10-17T16:50:24Z</time>
      </trkpt>
      <trkpt lat="39.721562000" lon="-8.794200000">
        <ele>71.600000</ele>
        <time>2020-10-17T16:50:27Z</time>
      </trkpt>
      <trkpt lat="39.721624000" lon="-8.794242000">
        <ele>71.400000</ele>
        <time>2020-10-17T16:50:28Z</time>
      </trkpt>
      <trkpt lat="39.721968000" lon="-8.794458000">
        <ele>71.000000</ele>
        <time>2020-10-17T16:50:33Z</time>
      </trkpt>
      <trkpt lat="39.722106000" lon="-8.794548000">
        <ele>71.000000</ele>
        <time>2020-10-17T16:50:35Z</time>
      </trkpt>
      <trkpt lat="39.722394000" lon="-8.794743000">
        <ele>70.800000</ele>
        <time>2020-10-17T16:50:39Z</time>
      </trkpt>
      <trkpt lat="39.722599000" lon="-8.794887000">
        <ele>70.800000</ele>
        <time>2020-10-17T16:50:42Z</time>
      </trkpt>
      <trkpt lat="39.722738000" lon="-8.794982000">
        <ele>70.800000</ele>
        <time>2020-10-17T16:50:44Z</time>
      </trkpt>
      <trkpt lat="39.722960000" lon="-8.795131000">
        <ele>70.600000</ele>
        <time>2020-10-17T16:50:47Z</time>
      </trkpt>
      <trkpt lat="39.723100000" lon="-8.795241000">
        <ele>70.400000</ele>
        <time>2020-10-17T16:50:49Z</time>
      </trkpt>
      <trkpt lat="39.723174000" lon="-8.795292000">
        <ele>70.600000</ele>
        <time>2020-10-17T16:50:50Z</time>
      </trkpt>
      <trkpt lat="39.723243000" lon="-8.795342000">
        <ele>70.400000</ele>
        <time>2020-10-17T16:50:51Z</time>
      </trkpt>
      <trkpt lat="39.723310000" lon="-8.795386000">
        <ele>70.400000</ele>
        <time>2020-10-17T16:50:52Z</time>
      </trkpt>
      <trkpt lat="39.723373000" lon="-8.795429000">
        <ele>70.400000</ele>
        <time>2020-10-17T16:50:53Z</time>
      </trkpt>
      <trkpt lat="39.723437000" lon="-8.795471000">
        <ele>70.200000</ele>
        <time>2020-10-17T16:50:54Z</time>
      </trkpt>
      <trkpt lat="39.723498000" lon="-8.795516000">
        <ele>70.200000</ele>
        <time>2020-10-17T16:50:55Z</time>
      </trkpt>
      <trkpt lat="39.723938000" lon="-8.795770000">
        <ele>69.600000</ele>
        <time>2020-10-17T16:51:01Z</time>
      </trkpt>
      <trkpt lat="39.724085000" lon="-8.795864000">
        <ele>69.400000</ele>
        <time>2020-10-17T16:51:03Z</time>
      </trkpt>
      <trkpt lat="39.724151000" lon="-8.795909000">
        <ele>69.400000</ele>
        <time>2020-10-17T16:51:04Z</time>
      </trkpt>
      <trkpt lat="39.724221000" lon="-8.795949000">
        <ele>69.400000</ele>
        <time>2020-10-17T16:51:05Z</time>
      </trkpt>
      <trkpt lat="39.724291000" lon="-8.795991000">
        <ele>69.400000</ele>
        <time>2020-10-17T16:51:06Z</time>
      </trkpt>
      <trkpt lat="39.724365000" lon="-8.796039000">
        <ele>69.400000</ele>
        <time>2020-10-17T16:51:07Z</time>
      </trkpt>
      <trkpt lat="39.724508000" lon="-8.796134000">
        <ele>69.200000</ele>
        <time>2020-10-17T16:51:09Z</time>
      </trkpt>
      <trkpt lat="39.724577000" lon="-8.796177000">
        <ele>69.200000</ele>
        <time>2020-10-17T16:51:10Z</time>
      </trkpt>
      <trkpt lat="39.724734000" lon="-8.796265000">
        <ele>69.000000</ele>
        <time>2020-10-17T16:51:12Z</time>
      </trkpt>
      <trkpt lat="39.725042000" lon="-8.796434000">
        <ele>68.800000</ele>
        <time>2020-10-17T16:51:16Z</time>
      </trkpt>
      <trkpt lat="39.725276000" lon="-8.796563000">
        <ele>68.600000</ele>
        <time>2020-10-17T16:51:19Z</time>
      </trkpt>
      <trkpt lat="39.725361000" lon="-8.796597000">
        <ele>68.600000</ele>
        <time>2020-10-17T16:51:20Z</time>
      </trkpt>
      <trkpt lat="39.725683000" lon="-8.796756000">
        <ele>68.200000</ele>
        <time>2020-10-17T16:51:24Z</time>
      </trkpt>
      <trkpt lat="39.725763000" lon="-8.796798000">
        <ele>68.200000</ele>
        <time>2020-10-17T16:51:25Z</time>
      </trkpt>
      <trkpt lat="39.725844000" lon="-8.796839000">
        <ele>68.000000</ele>
        <time>2020-10-17T16:51:26Z</time>
      </trkpt>
      <trkpt lat="39.726004000" lon="-8.796915000">
        <ele>67.800000</ele>
        <time>2020-10-17T16:51:28Z</time>
      </trkpt>
      <trkpt lat="39.726235000" lon="-8.797036000">
        <ele>67.400000</ele>
        <time>2020-10-17T16:51:31Z</time>
      </trkpt>
      <trkpt lat="39.726312000" lon="-8.797075000">
        <ele>67.400000</ele>
        <time>2020-10-17T16:51:32Z</time>
      </trkpt>
      <trkpt lat="39.726464000" lon="-8.797154000">
        <ele>66.800000</ele>
        <time>2020-10-17T16:51:34Z</time>
      </trkpt>
      <trkpt lat="39.726539000" lon="-8.797192000">
        <ele>66.800000</ele>
        <time>2020-10-17T16:51:35Z</time>
      </trkpt>
      <trkpt lat="39.726769000" lon="-8.797300000">
        <ele>66.200000</ele>
        <time>2020-10-17T16:51:38Z</time>
      </trkpt>
      <trkpt lat="39.726850000" lon="-8.797334000">
        <ele>66.200000</ele>
        <time>2020-10-17T16:51:39Z</time>
      </trkpt>
      <trkpt lat="39.726926000" lon="-8.797367000">
        <ele>66.000000</ele>
        <time>2020-10-17T16:51:40Z</time>
      </trkpt>
      <trkpt lat="39.726997000" lon="-8.797398000">
        <ele>66.200000</ele>
        <time>2020-10-17T16:51:41Z</time>
      </trkpt>
      <trkpt lat="39.727148000" lon="-8.797466000">
        <ele>66.000000</ele>
        <time>2020-10-17T16:51:43Z</time>
      </trkpt>
      <trkpt lat="39.727300000" lon="-8.797520000">
        <ele>66.200000</ele>
        <time>2020-10-17T16:51:45Z</time>
      </trkpt>
      <trkpt lat="39.727373000" lon="-8.797541000">
        <ele>66.200000</ele>
        <time>2020-10-17T16:51:46Z</time>
      </trkpt>
      <trkpt lat="39.727446000" lon="-8.797554000">
        <ele>66.200000</ele>
        <time>2020-10-17T16:51:47Z</time>
      </trkpt>
      <trkpt lat="39.727515000" lon="-8.797546000">
        <ele>66.200000</ele>
        <time>2020-10-17T16:51:48Z</time>
      </trkpt>
      <trkpt lat="39.727581000" lon="-8.797525000">
        <ele>66.400000</ele>
        <time>2020-10-17T16:51:49Z</time>
      </trkpt>
      <trkpt lat="39.727729000" lon="-8.797495000">
        <ele>66.800000</ele>
        <time>2020-10-17T16:51:51Z</time>
      </trkpt>
      <trkpt lat="39.727795000" lon="-8.797514000">
        <ele>67.000000</ele>
        <time>2020-10-17T16:51:52Z</time>
      </trkpt>
      <trkpt lat="39.727864000" lon="-8.797548000">
        <ele>67.000000</ele>
        <time>2020-10-17T16:51:53Z</time>
      </trkpt>
      <trkpt lat="39.727927000" lon="-8.797594000">
        <ele>67.000000</ele>
        <time>2020-10-17T16:51:54Z</time>
      </trkpt>
      <trkpt lat="39.727985000" lon="-8.797646000">
        <ele>67.000000</ele>
        <time>2020-10-17T16:51:55Z</time>
      </trkpt>
      <trkpt lat="39.728041000" lon="-8.797701000">
        <ele>67.000000</ele>
        <time>2020-10-17T16:51:56Z</time>
      </trkpt>
      <trkpt lat="39.728162000" lon="-8.797792000">
        <ele>67.000000</ele>
        <time>2020-10-17T16:51:58Z</time>
      </trkpt>
      <trkpt lat="39.728297000" lon="-8.797840000">
        <ele>67.000000</ele>
        <time>2020-10-17T16:52:00Z</time>
      </trkpt>
      <trkpt lat="39.728370000" lon="-8.797852000">
        <ele>67.000000</ele>
        <time>2020-10-17T16:52:01Z</time>
      </trkpt>
      <trkpt lat="39.728529000" lon="-8.797871000">
        <ele>66.800000</ele>
        <time>2020-10-17T16:52:03Z</time>
      </trkpt>
      <trkpt lat="39.728696000" lon="-8.797886000">
        <ele>66.400000</ele>
        <time>2020-10-17T16:52:05Z</time>
      </trkpt>
      <trkpt lat="39.728865000" lon="-8.797902000">
        <ele>66.400000</ele>
        <time>2020-10-17T16:52:07Z</time>
      </trkpt>
      <trkpt lat="39.728947000" lon="-8.797910000">
        <ele>66.400000</ele>
        <time>2020-10-17T16:52:08Z</time>
      </trkpt>
      <trkpt lat="39.729109000" lon="-8.797919000">
        <ele>65.800000</ele>
        <time>2020-10-17T16:52:10Z</time>
      </trkpt>
      <trkpt lat="39.729187000" lon="-8.797922000">
        <ele>65.400000</ele>
        <time>2020-10-17T16:52:11Z</time>
      </trkpt>
      <trkpt lat="39.729264000" lon="-8.797923000">
        <ele>65.200000</ele>
        <time>2020-10-17T16:52:12Z</time>
      </trkpt>
      <trkpt lat="39.729417000" lon="-8.797926000">
        <ele>64.200000</ele>
        <time>2020-10-17T16:52:14Z</time>
      </trkpt>
      <trkpt lat="39.729486000" lon="-8.797933000">
        <ele>63.800000</ele>
        <time>2020-10-17T16:52:15Z</time>
      </trkpt>
      <trkpt lat="39.729551000" lon="-8.797937000">
        <ele>63.400000</ele>
        <time>2020-10-17T16:52:16Z</time>
      </trkpt>
      <trkpt lat="39.729695000" lon="-8.797943000">
        <ele>63.200000</ele>
        <time>2020-10-17T16:52:18Z</time>
      </trkpt>
      <trkpt lat="39.729756000" lon="-8.797960000">
        <ele>63.000000</ele>
        <time>2020-10-17T16:52:19Z</time>
      </trkpt>
      <trkpt lat="39.729824000" lon="-8.797970000">
        <ele>62.800000</ele>
        <time>2020-10-17T16:52:20Z</time>
      </trkpt>
      <trkpt lat="39.730025000" lon="-8.798001000">
        <ele>62.600000</ele>
        <time>2020-10-17T16:52:23Z</time>
      </trkpt>
      <trkpt lat="39.730435000" lon="-8.798014000">
        <ele>62.200000</ele>
        <time>2020-10-17T16:52:28Z</time>
      </trkpt>
      <trkpt lat="39.730586000" lon="-8.798051000">
        <ele>62.200000</ele>
        <time>2020-10-17T16:52:30Z</time>
      </trkpt>
      <trkpt lat="39.730662000" lon="-8.798074000">
        <ele>62.200000</ele>
        <time>2020-10-17T16:52:31Z</time>
      </trkpt>
      <trkpt lat="39.730735000" lon="-8.798103000">
        <ele>62.200000</ele>
        <time>2020-10-17T16:52:32Z</time>
      </trkpt>
      <trkpt lat="39.730949000" lon="-8.798205000">
        <ele>62.000000</ele>
        <time>2020-10-17T16:52:35Z</time>
      </trkpt>
      <trkpt lat="39.731450000" lon="-8.798445000">
        <ele>62.000000</ele>
        <time>2020-10-17T16:52:42Z</time>
      </trkpt>
      <trkpt lat="39.731517000" lon="-8.798478000">
        <ele>62.000000</ele>
        <time>2020-10-17T16:52:43Z</time>
      </trkpt>
      <trkpt lat="39.731586000" lon="-8.798509000">
        <ele>62.000000</ele>
        <time>2020-10-17T16:52:44Z</time>
      </trkpt>
      <trkpt lat="39.731655000" lon="-8.798540000">
        <ele>62.000000</ele>
        <time>2020-10-17T16:52:45Z</time>
      </trkpt>
      <trkpt lat="39.731861000" lon="-8.798631000">
        <ele>61.800000</ele>
        <time>2020-10-17T16:52:48Z</time>
      </trkpt>
      <trkpt lat="39.731925000" lon="-8.798663000">
        <ele>61.800000</ele>
        <time>2020-10-17T16:52:49Z</time>
      </trkpt>
      <trkpt lat="39.731989000" lon="-8.798694000">
        <ele>61.800000</ele>
        <time>2020-10-17T16:52:50Z</time>
      </trkpt>
      <trkpt lat="39.732200000" lon="-8.798775000">
        <ele>61.600000</ele>
        <time>2020-10-17T16:52:53Z</time>
      </trkpt>
      <trkpt lat="39.732278000" lon="-8.798801000">
        <ele>61.400000</ele>
        <time>2020-10-17T16:52:54Z</time>
      </trkpt>
      <trkpt lat="39.732440000" lon="-8.798856000">
        <ele>61.400000</ele>
        <time>2020-10-17T16:52:56Z</time>
      </trkpt>
      <trkpt lat="39.732510000" lon="-8.798887000">
        <ele>61.400000</ele>
        <time>2020-10-17T16:52:57Z</time>
      </trkpt>
      <trkpt lat="39.732580000" lon="-8.798916000">
        <ele>61.200000</ele>
        <time>2020-10-17T16:52:58Z</time>
      </trkpt>
      <trkpt lat="39.732650000" lon="-8.798946000">
        <ele>61.200000</ele>
        <time>2020-10-17T16:52:59Z</time>
      </trkpt>
      <trkpt lat="39.732715000" lon="-8.798976000">
        <ele>61.400000</ele>
        <time>2020-10-17T16:53:00Z</time>
      </trkpt>
      <trkpt lat="39.732778000" lon="-8.799006000">
        <ele>61.200000</ele>
        <time>2020-10-17T16:53:01Z</time>
      </trkpt>
      <trkpt lat="39.732839000" lon="-8.799032000">
        <ele>61.000000</ele>
        <time>2020-10-17T16:53:02Z</time>
      </trkpt>
      <trkpt lat="39.732897000" lon="-8.799057000">
        <ele>61.000000</ele>
        <time>2020-10-17T16:53:03Z</time>
      </trkpt>
      <trkpt lat="39.732951000" lon="-8.799077000">
        <ele>61.000000</ele>
        <time>2020-10-17T16:53:04Z</time>
      </trkpt>
      <trkpt lat="39.732999000" lon="-8.799092000">
        <ele>61.000000</ele>
        <time>2020-10-17T16:53:05Z</time>
      </trkpt>
      <trkpt lat="39.733043000" lon="-8.799099000">
        <ele>61.000000</ele>
        <time>2020-10-17T16:53:06Z</time>
      </trkpt>
      <trkpt lat="39.733065000" lon="-8.799104000">
        <ele>60.800000</ele>
        <time>2020-10-17T16:53:07Z</time>
      </trkpt>
      <trkpt lat="39.733087000" lon="-8.799102000">
        <ele>60.800000</ele>
        <time>2020-10-17T16:53:08Z</time>
      </trkpt>
      <trkpt lat="39.733106000" lon="-8.799101000">
        <ele>60.800000</ele>
        <time>2020-10-17T16:53:09Z</time>
      </trkpt>
      <trkpt lat="39.733130000" lon="-8.799100000">
        <ele>60.800000</ele>
        <time>2020-10-17T16:53:10Z</time>
      </trkpt>
      <trkpt lat="39.733218000" lon="-8.799107000">
        <ele>60.400000</ele>
        <time>2020-10-17T16:53:14Z</time>
      </trkpt>
      <trkpt lat="39.733288000" lon="-8.799118000">
        <ele>60.200000</ele>
        <time>2020-10-17T16:53:16Z</time>
      </trkpt>
      <trkpt lat="39.733371000" lon="-8.799130000">
        <ele>60.200000</ele>
        <time>2020-10-17T16:53:19Z</time>
      </trkpt>
      <trkpt lat="39.733399000" lon="-8.799141000">
        <ele>60.200000</ele>
        <time>2020-10-17T16:53:20Z</time>
      </trkpt>
      <trkpt lat="39.733449000" lon="-8.799148000">
        <ele>60.200000</ele>
        <time>2020-10-17T16:53:21Z</time>
      </trkpt>
      <trkpt lat="39.733514000" lon="-8.799160000">
        <ele>60.200000</ele>
        <time>2020-10-17T16:53:22Z</time>
      </trkpt>
      <trkpt lat="39.733632000" lon="-8.799179000">
        <ele>60.000000</ele>
        <time>2020-10-17T16:53:24Z</time>
      </trkpt>
      <trkpt lat="39.733890000" lon="-8.799185000">
        <ele>60.200000</ele>
        <time>2020-10-17T16:53:28Z</time>
      </trkpt>
      <trkpt lat="39.734011000" lon="-8.799183000">
        <ele>60.200000</ele>
        <time>2020-10-17T16:53:30Z</time>
      </trkpt>
      <trkpt lat="39.734069000" lon="-8.799189000">
        <ele>60.000000</ele>
        <time>2020-10-17T16:53:31Z</time>
      </trkpt>
      <trkpt lat="39.734124000" lon="-8.799204000">
        <ele>60.200000</ele>
        <time>2020-10-17T16:53:32Z</time>
      </trkpt>
      <trkpt lat="39.734244000" lon="-8.799208000">
        <ele>60.000000</ele>
        <time>2020-10-17T16:53:34Z</time>
      </trkpt>
      <trkpt lat="39.734303000" lon="-8.799209000">
        <ele>60.000000</ele>
        <time>2020-10-17T16:53:35Z</time>
      </trkpt>
      <trkpt lat="39.734481000" lon="-8.799218000">
        <ele>60.200000</ele>
        <time>2020-10-17T16:53:38Z</time>
      </trkpt>
      <trkpt lat="39.734731000" lon="-8.799254000">
        <ele>59.800000</ele>
        <time>2020-10-17T16:53:42Z</time>
      </trkpt>
      <trkpt lat="39.734781000" lon="-8.799272000">
        <ele>59.800000</ele>
        <time>2020-10-17T16:53:43Z</time>
      </trkpt>
      <trkpt lat="39.734832000" lon="-8.799281000">
        <ele>59.600000</ele>
        <time>2020-10-17T16:53:44Z</time>
      </trkpt>
      <trkpt lat="39.734877000" lon="-8.799293000">
        <ele>59.600000</ele>
        <time>2020-10-17T16:53:45Z</time>
      </trkpt>
      <trkpt lat="39.734922000" lon="-8.799293000">
        <ele>59.400000</ele>
        <time>2020-10-17T16:53:46Z</time>
      </trkpt>
      <trkpt lat="39.734960000" lon="-8.799304000">
        <ele>59.600000</ele>
        <time>2020-10-17T16:53:47Z</time>
      </trkpt>
      <trkpt lat="39.735011000" lon="-8.799297000">
        <ele>59.400000</ele>
        <time>2020-10-17T16:53:48Z</time>
      </trkpt>
      <trkpt lat="39.735064000" lon="-8.799275000">
        <ele>59.200000</ele>
        <time>2020-10-17T16:53:49Z</time>
      </trkpt>
      <trkpt lat="39.735115000" lon="-8.799254000">
        <ele>59.400000</ele>
        <time>2020-10-17T16:53:50Z</time>
      </trkpt>
      <trkpt lat="39.735167000" lon="-8.799228000">
        <ele>59.400000</ele>
        <time>2020-10-17T16:53:51Z</time>
      </trkpt>
      <trkpt lat="39.735220000" lon="-8.799199000">
        <ele>59.200000</ele>
        <time>2020-10-17T16:53:52Z</time>
      </trkpt>
      <trkpt lat="39.735371000" lon="-8.799103000">
        <ele>59.000000</ele>
        <time>2020-10-17T16:53:54Z</time>
      </trkpt>
      <trkpt lat="39.735448000" lon="-8.799090000">
        <ele>59.000000</ele>
        <time>2020-10-17T16:53:55Z</time>
      </trkpt>
      <trkpt lat="39.735519000" lon="-8.799092000">
        <ele>59.200000</ele>
        <time>2020-10-17T16:53:56Z</time>
      </trkpt>
      <trkpt lat="39.735573000" lon="-8.799108000">
        <ele>59.000000</ele>
        <time>2020-10-17T16:53:57Z</time>
      </trkpt>
      <trkpt lat="39.735634000" lon="-8.799139000">
        <ele>59.200000</ele>
        <time>2020-10-17T16:53:58Z</time>
      </trkpt>
      <trkpt lat="39.735722000" lon="-8.799165000">
        <ele>59.000000</ele>
        <time>2020-10-17T16:53:59Z</time>
      </trkpt>
      <trkpt lat="39.735787000" lon="-8.799178000">
        <ele>59.000000</ele>
        <time>2020-10-17T16:54:00Z</time>
      </trkpt>
      <trkpt lat="39.735852000" lon="-8.799186000">
        <ele>59.000000</ele>
        <time>2020-10-17T16:54:01Z</time>
      </trkpt>
      <trkpt lat="39.735920000" lon="-8.799185000">
        <ele>58.800000</ele>
        <time>2020-10-17T16:54:02Z</time>
      </trkpt>
      <trkpt lat="39.735977000" lon="-8.799184000">
        <ele>58.800000</ele>
        <time>2020-10-17T16:54:03Z</time>
      </trkpt>
      <trkpt lat="39.736035000" lon="-8.799165000">
        <ele>58.800000</ele>
        <time>2020-10-17T16:54:04Z</time>
      </trkpt>
      <trkpt lat="39.736088000" lon="-8.799136000">
        <ele>59.000000</ele>
        <time>2020-10-17T16:54:05Z</time>
      </trkpt>
      <trkpt lat="39.736135000" lon="-8.799097000">
        <ele>58.800000</ele>
        <time>2020-10-17T16:54:06Z</time>
      </trkpt>
      <trkpt lat="39.736181000" lon="-8.799056000">
        <ele>59.000000</ele>
        <time>2020-10-17T16:54:07Z</time>
      </trkpt>
      <trkpt lat="39.736233000" lon="-8.799010000">
        <ele>58.800000</ele>
        <time>2020-10-17T16:54:08Z</time>
      </trkpt>
      <trkpt lat="39.736287000" lon="-8.798952000">
        <ele>58.800000</ele>
        <time>2020-10-17T16:54:09Z</time>
      </trkpt>
      <trkpt lat="39.736376000" lon="-8.798844000">
        <ele>58.600000</ele>
        <time>2020-10-17T16:54:11Z</time>
      </trkpt>
      <trkpt lat="39.736425000" lon="-8.798796000">
        <ele>58.600000</ele>
        <time>2020-10-17T16:54:12Z</time>
      </trkpt>
      <trkpt lat="39.736476000" lon="-8.798749000">
        <ele>58.600000</ele>
        <time>2020-10-17T16:54:13Z</time>
      </trkpt>
      <trkpt lat="39.736529000" lon="-8.798707000">
        <ele>58.400000</ele>
        <time>2020-10-17T16:54:14Z</time>
      </trkpt>
      <trkpt lat="39.736687000" lon="-8.798592000">
        <ele>58.400000</ele>
        <time>2020-10-17T16:54:17Z</time>
      </trkpt>
      <trkpt lat="39.736747000" lon="-8.798544000">
        <ele>58.000000</ele>
        <time>2020-10-17T16:54:18Z</time>
      </trkpt>
      <trkpt lat="39.737004000" lon="-8.798373000">
        <ele>57.000000</ele>
        <time>2020-10-17T16:54:22Z</time>
      </trkpt>
      <trkpt lat="39.737070000" lon="-8.798334000">
        <ele>56.600000</ele>
        <time>2020-10-17T16:54:23Z</time>
      </trkpt>
      <trkpt lat="39.737284000" lon="-8.798239000">
        <ele>56.000000</ele>
        <time>2020-10-17T16:54:26Z</time>
      </trkpt>
      <trkpt lat="39.737352000" lon="-8.798216000">
        <ele>55.800000</ele>
        <time>2020-10-17T16:54:27Z</time>
      </trkpt>
      <trkpt lat="39.737423000" lon="-8.798183000">
        <ele>55.400000</ele>
        <time>2020-10-17T16:54:28Z</time>
      </trkpt>
      <trkpt lat="39.737489000" lon="-8.798144000">
        <ele>55.400000</ele>
        <time>2020-10-17T16:54:29Z</time>
      </trkpt>
      <trkpt lat="39.737557000" lon="-8.798088000">
        <ele>55.000000</ele>
        <time>2020-10-17T16:54:30Z</time>
      </trkpt>
      <trkpt lat="39.737621000" lon="-8.798052000">
        <ele>55.000000</ele>
        <time>2020-10-17T16:54:31Z</time>
      </trkpt>
      <trkpt lat="39.737687000" lon="-8.798021000">
        <ele>54.600000</ele>
        <time>2020-10-17T16:54:32Z</time>
      </trkpt>
      <trkpt lat="39.737753000" lon="-8.797993000">
        <ele>54.400000</ele>
        <time>2020-10-17T16:54:33Z</time>
      </trkpt>
      <trkpt lat="39.737820000" lon="-8.797959000">
        <ele>54.200000</ele>
        <time>2020-10-17T16:54:34Z</time>
      </trkpt>
      <trkpt lat="39.738121000" lon="-8.797852000">
        <ele>54.200000</ele>
        <time>2020-10-17T16:54:38Z</time>
      </trkpt>
      <trkpt lat="39.738514000" lon="-8.797815000">
        <ele>53.600000</ele>
        <time>2020-10-17T16:54:43Z</time>
      </trkpt>
      <trkpt lat="39.738589000" lon="-8.797814000">
        <ele>53.000000</ele>
        <time>2020-10-17T16:54:44Z</time>
      </trkpt>
      <trkpt lat="39.738993000" lon="-8.797886000">
        <ele>52.200000</ele>
        <time>2020-10-17T16:54:49Z</time>
      </trkpt>
      <trkpt lat="39.739139000" lon="-8.797966000">
        <ele>52.000000</ele>
        <time>2020-10-17T16:54:51Z</time>
      </trkpt>
      <trkpt lat="39.739204000" lon="-8.798022000">
        <ele>51.800000</ele>
        <time>2020-10-17T16:54:52Z</time>
      </trkpt>
      <trkpt lat="39.739267000" lon="-8.798083000">
        <ele>51.600000</ele>
        <time>2020-10-17T16:54:53Z</time>
      </trkpt>
      <trkpt lat="39.739318000" lon="-8.798152000">
        <ele>51.600000</ele>
        <time>2020-10-17T16:54:54Z</time>
      </trkpt>
      <trkpt lat="39.739361000" lon="-8.798227000">
        <ele>51.400000</ele>
        <time>2020-10-17T16:54:55Z</time>
      </trkpt>
      <trkpt lat="39.739403000" lon="-8.798303000">
        <ele>51.200000</ele>
        <time>2020-10-17T16:54:56Z</time>
      </trkpt>
      <trkpt lat="39.739445000" lon="-8.798382000">
        <ele>51.200000</ele>
        <time>2020-10-17T16:54:57Z</time>
      </trkpt>
      <trkpt lat="39.739499000" lon="-8.798575000">
        <ele>51.000000</ele>
        <time>2020-10-17T16:54:59Z</time>
      </trkpt>
      <trkpt lat="39.739529000" lon="-8.798671000">
        <ele>51.000000</ele>
        <time>2020-10-17T16:55:00Z</time>
      </trkpt>
      <trkpt lat="39.739586000" lon="-8.798852000">
        <ele>50.600000</ele>
        <time>2020-10-17T16:55:02Z</time>
      </trkpt>
      <trkpt lat="39.739705000" lon="-8.799200000">
        <ele>50.400000</ele>
        <time>2020-10-17T16:55:06Z</time>
      </trkpt>
      <trkpt lat="39.739735000" lon="-8.799285000">
        <ele>50.000000</ele>
        <time>2020-10-17T16:55:07Z</time>
      </trkpt>
      <trkpt lat="39.739774000" lon="-8.799370000">
        <ele>50.200000</ele>
        <time>2020-10-17T16:55:08Z</time>
      </trkpt>
      <trkpt lat="39.739829000" lon="-8.799537000">
        <ele>50.000000</ele>
        <time>2020-10-17T16:55:10Z</time>
      </trkpt>
      <trkpt lat="39.739848000" lon="-8.799602000">
        <ele>50.000000</ele>
        <time>2020-10-17T16:55:11Z</time>
      </trkpt>
      <trkpt lat="39.739880000" lon="-8.799645000">
        <ele>50.000000</ele>
        <time>2020-10-17T16:55:12Z</time>
      </trkpt>
      <trkpt lat="39.739901000" lon="-8.799678000">
        <ele>50.000000</ele>
        <time>2020-10-17T16:55:13Z</time>
      </trkpt>
      <trkpt lat="39.739928000" lon="-8.799692000">
        <ele>49.800000</ele>
        <time>2020-10-17T16:55:14Z</time>
      </trkpt>
      <trkpt lat="39.739946000" lon="-8.799698000">
        <ele>49.800000</ele>
        <time>2020-10-17T16:55:15Z</time>
      </trkpt>
      <trkpt lat="39.739968000" lon="-8.799696000">
        <ele>49.800000</ele>
        <time>2020-10-17T16:55:16Z</time>
      </trkpt>
      <trkpt lat="39.739983000" lon="-8.799683000">
        <ele>49.800000</ele>
        <time>2020-10-17T16:55:17Z</time>
      </trkpt>
      <trkpt lat="39.740020000" lon="-8.799634000">
        <ele>49.800000</ele>
        <time>2020-10-17T16:55:19Z</time>
      </trkpt>
      <trkpt lat="39.740045000" lon="-8.799609000">
        <ele>49.600000</ele>
        <time>2020-10-17T16:55:20Z</time>
      </trkpt>
      <trkpt lat="39.740075000" lon="-8.799580000">
        <ele>49.800000</ele>
        <time>2020-10-17T16:55:21Z</time>
      </trkpt>
      <trkpt lat="39.740152000" lon="-8.799504000">
        <ele>49.600000</ele>
        <time>2020-10-17T16:55:23Z</time>
      </trkpt>
      <trkpt lat="39.740194000" lon="-8.799472000">
        <ele>49.800000</ele>
        <time>2020-10-17T16:55:24Z</time>
      </trkpt>
      <trkpt lat="39.740244000" lon="-8.799444000">
        <ele>49.600000</ele>
        <time>2020-10-17T16:55:25Z</time>
      </trkpt>
      <trkpt lat="39.740412000" lon="-8.799399000">
        <ele>50.000000</ele>
        <time>2020-10-17T16:55:28Z</time>
      </trkpt>
      <trkpt lat="39.740752000" lon="-8.799324000">
        <ele>50.200000</ele>
        <time>2020-10-17T16:55:33Z</time>
      </trkpt>
      <trkpt lat="39.740815000" lon="-8.799298000">
        <ele>50.200000</ele>
        <time>2020-10-17T16:55:34Z</time>
      </trkpt>
      <trkpt lat="39.740872000" lon="-8.799263000">
        <ele>50.400000</ele>
        <time>2020-10-17T16:55:35Z</time>
      </trkpt>
      <trkpt lat="39.740915000" lon="-8.799220000">
        <ele>50.200000</ele>
        <time>2020-10-17T16:55:36Z</time>
      </trkpt>
      <trkpt lat="39.740943000" lon="-8.799175000">
        <ele>50.400000</ele>
        <time>2020-10-17T16:55:37Z</time>
      </trkpt>
      <trkpt lat="39.740966000" lon="-8.799133000">
        <ele>50.400000</ele>
        <time>2020-10-17T16:55:38Z</time>
      </trkpt>
      <trkpt lat="39.740990000" lon="-8.799090000">
        <ele>50.400000</ele>
        <time>2020-10-17T16:55:39Z</time>
      </trkpt>
      <trkpt lat="39.741011000" lon="-8.799052000">
        <ele>50.400000</ele>
        <time>2020-10-17T16:55:40Z</time>
      </trkpt>
      <trkpt lat="39.741031000" lon="-8.799015000">
        <ele>50.400000</ele>
        <time>2020-10-17T16:55:41Z</time>
      </trkpt>
      <trkpt lat="39.741054000" lon="-8.798980000">
        <ele>50.600000</ele>
        <time>2020-10-17T16:55:42Z</time>
      </trkpt>
      <trkpt lat="39.741082000" lon="-8.798953000">
        <ele>50.800000</ele>
        <time>2020-10-17T16:55:43Z</time>
      </trkpt>
      <trkpt lat="39.741115000" lon="-8.798931000">
        <ele>51.400000</ele>
        <time>2020-10-17T16:55:44Z</time>
      </trkpt>
      <trkpt lat="39.741149000" lon="-8.798921000">
        <ele>51.800000</ele>
        <time>2020-10-17T16:55:45Z</time>
      </trkpt>
      <trkpt lat="39.741185000" lon="-8.798927000">
        <ele>52.200000</ele>
        <time>2020-10-17T16:55:46Z</time>
      </trkpt>
      <trkpt lat="39.741223000" lon="-8.798953000">
        <ele>52.200000</ele>
        <time>2020-10-17T16:55:47Z</time>
      </trkpt>
      <trkpt lat="39.741251000" lon="-8.798987000">
        <ele>52.600000</ele>
        <time>2020-10-17T16:55:48Z</time>
      </trkpt>
      <trkpt lat="39.741282000" lon="-8.799022000">
        <ele>52.600000</ele>
        <time>2020-10-17T16:55:49Z</time>
      </trkpt>
      <trkpt lat="39.741304000" lon="-8.799067000">
        <ele>52.600000</ele>
        <time>2020-10-17T16:55:50Z</time>
      </trkpt>
      <trkpt lat="39.741317000" lon="-8.799123000">
        <ele>52.800000</ele>
        <time>2020-10-17T16:55:51Z</time>
      </trkpt>
      <trkpt lat="39.741326000" lon="-8.799184000">
        <ele>53.000000</ele>
        <time>2020-10-17T16:55:52Z</time>
      </trkpt>
      <trkpt lat="39.741332000" lon="-8.799255000">
        <ele>53.200000</ele>
        <time>2020-10-17T16:55:53Z</time>
      </trkpt>
      <trkpt lat="39.741335000" lon="-8.799336000">
        <ele>53.200000</ele>
        <time>2020-10-17T16:55:54Z</time>
      </trkpt>
      <trkpt lat="39.741340000" lon="-8.799409000">
        <ele>53.800000</ele>
        <time>2020-10-17T16:55:55Z</time>
      </trkpt>
      <trkpt lat="39.741352000" lon="-8.799480000">
        <ele>54.000000</ele>
        <time>2020-10-17T16:55:56Z</time>
      </trkpt>
      <trkpt lat="39.741369000" lon="-8.799546000">
        <ele>54.000000</ele>
        <time>2020-10-17T16:55:57Z</time>
      </trkpt>
      <trkpt lat="39.741391000" lon="-8.799610000">
        <ele>54.200000</ele>
        <time>2020-10-17T16:55:58Z</time>
      </trkpt>
      <trkpt lat="39.741416000" lon="-8.799675000">
        <ele>54.200000</ele>
        <time>2020-10-17T16:55:59Z</time>
      </trkpt>
      <trkpt lat="39.741444000" lon="-8.799746000">
        <ele>54.200000</ele>
        <time>2020-10-17T16:56:00Z</time>
      </trkpt>
      <trkpt lat="39.741469000" lon="-8.799817000">
        <ele>54.400000</ele>
        <time>2020-10-17T16:56:01Z</time>
      </trkpt>
      <trkpt lat="39.741492000" lon="-8.799898000">
        <ele>54.400000</ele>
        <time>2020-10-17T16:56:02Z</time>
      </trkpt>
      <trkpt lat="39.741565000" lon="-8.800165000">
        <ele>54.400000</ele>
        <time>2020-10-17T16:56:05Z</time>
      </trkpt>
      <trkpt lat="39.741596000" lon="-8.800257000">
        <ele>54.400000</ele>
        <time>2020-10-17T16:56:06Z</time>
      </trkpt>
      <trkpt lat="39.741684000" lon="-8.800514000">
        <ele>54.400000</ele>
        <time>2020-10-17T16:56:09Z</time>
      </trkpt>
      <trkpt lat="39.741797000" lon="-8.800773000">
        <ele>54.000000</ele>
        <time>2020-10-17T16:56:12Z</time>
      </trkpt>
      <trkpt lat="39.741845000" lon="-8.800847000">
        <ele>53.800000</ele>
        <time>2020-10-17T16:56:13Z</time>
      </trkpt>
      <trkpt lat="39.741891000" lon="-8.800916000">
        <ele>54.000000</ele>
        <time>2020-10-17T16:56:14Z</time>
      </trkpt>
      <trkpt lat="39.741938000" lon="-8.800984000">
        <ele>53.600000</ele>
        <time>2020-10-17T16:56:15Z</time>
      </trkpt>
      <trkpt lat="39.742081000" lon="-8.801194000">
        <ele>53.000000</ele>
        <time>2020-10-17T16:56:18Z</time>
      </trkpt>
      <trkpt lat="39.742119000" lon="-8.801272000">
        <ele>52.800000</ele>
        <time>2020-10-17T16:56:19Z</time>
      </trkpt>
      <trkpt lat="39.742159000" lon="-8.801344000">
        <ele>52.600000</ele>
        <time>2020-10-17T16:56:20Z</time>
      </trkpt>
      <trkpt lat="39.742333000" lon="-8.801628000">
        <ele>52.200000</ele>
        <time>2020-10-17T16:56:24Z</time>
      </trkpt>
      <trkpt lat="39.742480000" lon="-8.801836000">
        <ele>52.000000</ele>
        <time>2020-10-17T16:56:27Z</time>
      </trkpt>
      <trkpt lat="39.742889000" lon="-8.802277000">
        <ele>51.600000</ele>
        <time>2020-10-17T16:56:34Z</time>
      </trkpt>
      <trkpt lat="39.742939000" lon="-8.802339000">
        <ele>51.600000</ele>
        <time>2020-10-17T16:56:35Z</time>
      </trkpt>
      <trkpt lat="39.743106000" lon="-8.802529000">
        <ele>51.600000</ele>
        <time>2020-10-17T16:56:38Z</time>
      </trkpt>
      <trkpt lat="39.743145000" lon="-8.802607000">
        <ele>51.400000</ele>
        <time>2020-10-17T16:56:39Z</time>
      </trkpt>
      <trkpt lat="39.743223000" lon="-8.802767000">
        <ele>51.600000</ele>
        <time>2020-10-17T16:56:41Z</time>
      </trkpt>
      <trkpt lat="39.743292000" lon="-8.802950000">
        <ele>51.600000</ele>
        <time>2020-10-17T16:56:43Z</time>
      </trkpt>
      <trkpt lat="39.743370000" lon="-8.803252000">
        <ele>51.600000</ele>
        <time>2020-10-17T16:56:46Z</time>
      </trkpt>
      <trkpt lat="39.743550000" lon="-8.803942000">
        <ele>51.000000</ele>
        <time>2020-10-17T16:56:53Z</time>
      </trkpt>
      <trkpt lat="39.743573000" lon="-8.804034000">
        <ele>51.000000</ele>
        <time>2020-10-17T16:56:54Z</time>
      </trkpt>
      <trkpt lat="39.743583000" lon="-8.804123000">
        <ele>50.600000</ele>
        <time>2020-10-17T16:56:55Z</time>
      </trkpt>
      <trkpt lat="39.743616000" lon="-8.804214000">
        <ele>50.600000</ele>
        <time>2020-10-17T16:56:56Z</time>
      </trkpt>
      <trkpt lat="39.743640000" lon="-8.804295000">
        <ele>50.400000</ele>
        <time>2020-10-17T16:56:57Z</time>
      </trkpt>
      <trkpt lat="39.743676000" lon="-8.804360000">
        <ele>50.200000</ele>
        <time>2020-10-17T16:56:58Z</time>
      </trkpt>
      <trkpt lat="39.743712000" lon="-8.804408000">
        <ele>50.000000</ele>
        <time>2020-10-17T16:56:59Z</time>
      </trkpt>
      <trkpt lat="39.743749000" lon="-8.804437000">
        <ele>50.000000</ele>
        <time>2020-10-17T16:57:00Z</time>
      </trkpt>
      <trkpt lat="39.743790000" lon="-8.804456000">
        <ele>49.800000</ele>
        <time>2020-10-17T16:57:01Z</time>
      </trkpt>
      <trkpt lat="39.743828000" lon="-8.804467000">
        <ele>49.800000</ele>
        <time>2020-10-17T16:57:02Z</time>
      </trkpt>
      <trkpt lat="39.743864000" lon="-8.804479000">
        <ele>49.800000</ele>
        <time>2020-10-17T16:57:03Z</time>
      </trkpt>
      <trkpt lat="39.743897000" lon="-8.804493000">
        <ele>49.800000</ele>
        <time>2020-10-17T16:57:04Z</time>
      </trkpt>
      <trkpt lat="39.743926000" lon="-8.804506000">
        <ele>49.800000</ele>
        <time>2020-10-17T16:57:05Z</time>
      </trkpt>
      <trkpt lat="39.743956000" lon="-8.804511000">
        <ele>49.800000</ele>
        <time>2020-10-17T16:57:06Z</time>
      </trkpt>
      <trkpt lat="39.743986000" lon="-8.804516000">
        <ele>49.600000</ele>
        <time>2020-10-17T16:57:07Z</time>
      </trkpt>
      <trkpt lat="39.744022000" lon="-8.804616000">
        <ele>49.400000</ele>
        <time>2020-10-17T16:57:09Z</time>
      </trkpt>
      <trkpt lat="39.744043000" lon="-8.804681000">
        <ele>49.400000</ele>
        <time>2020-10-17T16:57:10Z</time>
      </trkpt>
      <trkpt lat="39.744084000" lon="-8.804822000">
        <ele>49.200000</ele>
        <time>2020-10-17T16:57:12Z</time>
      </trkpt>
      <trkpt lat="39.744139000" lon="-8.804860000">
        <ele>49.000000</ele>
        <time>2020-10-17T16:57:13Z</time>
      </trkpt>
      <trkpt lat="39.744186000" lon="-8.804897000">
        <ele>49.000000</ele>
        <time>2020-10-17T16:57:14Z</time>
      </trkpt>
      <trkpt lat="39.744232000" lon="-8.804916000">
        <ele>49.000000</ele>
        <time>2020-10-17T16:57:15Z</time>
      </trkpt>
      <trkpt lat="39.744286000" lon="-8.804924000">
        <ele>49.200000</ele>
        <time>2020-10-17T16:57:16Z</time>
      </trkpt>
      <trkpt lat="39.744343000" lon="-8.804908000">
        <ele>49.000000</ele>
        <time>2020-10-17T16:57:17Z</time>
      </trkpt>
      <trkpt lat="39.744398000" lon="-8.804897000">
        <ele>48.800000</ele>
        <time>2020-10-17T16:57:18Z</time>
      </trkpt>
      <trkpt lat="39.744453000" lon="-8.804874000">
        <ele>48.800000</ele>
        <time>2020-10-17T16:57:19Z</time>
      </trkpt>
      <trkpt lat="39.744490000" lon="-8.804869000">
        <ele>48.600000</ele>
        <time>2020-10-17T16:57:20Z</time>
      </trkpt>
      <trkpt lat="39.744540000" lon="-8.804836000">
        <ele>48.200000</ele>
        <time>2020-10-17T16:57:21Z</time>
      </trkpt>
      <trkpt lat="39.744581000" lon="-8.804786000">
        <ele>47.400000</ele>
        <time>2020-10-17T16:57:22Z</time>
      </trkpt>
      <trkpt lat="39.744625000" lon="-8.804728000">
        <ele>46.800000</ele>
        <time>2020-10-17T16:57:23Z</time>
      </trkpt>
      <trkpt lat="39.744659000" lon="-8.804664000">
        <ele>45.400000</ele>
        <time>2020-10-17T16:57:24Z</time>
      </trkpt>
      <trkpt lat="39.744705000" lon="-8.804585000">
        <ele>44.400000</ele>
        <time>2020-10-17T16:57:25Z</time>
      </trkpt>
      <trkpt lat="39.744785000" lon="-8.804456000">
        <ele>43.400000</ele>
        <time>2020-10-17T16:57:27Z</time>
      </trkpt>
      <trkpt lat="39.744879000" lon="-8.804335000">
        <ele>42.400000</ele>
        <time>2020-10-17T16:57:29Z</time>
      </trkpt>
      <trkpt lat="39.745092000" lon="-8.804065000">
        <ele>41.800000</ele>
        <time>2020-10-17T16:57:33Z</time>
      </trkpt>
      <trkpt lat="39.745183000" lon="-8.803932000">
        <ele>42.000000</ele>
        <time>2020-10-17T16:57:35Z</time>
      </trkpt>
      <trkpt lat="39.745231000" lon="-8.803865000">
        <ele>41.800000</ele>
        <time>2020-10-17T16:57:36Z</time>
      </trkpt>
      <trkpt lat="39.745280000" lon="-8.803797000">
        <ele>41.600000</ele>
        <time>2020-10-17T16:57:37Z</time>
      </trkpt>
      <trkpt lat="39.745330000" lon="-8.803720000">
        <ele>41.600000</ele>
        <time>2020-10-17T16:57:38Z</time>
      </trkpt>
      <trkpt lat="39.745382000" lon="-8.803650000">
        <ele>41.800000</ele>
        <time>2020-10-17T16:57:39Z</time>
      </trkpt>
      <trkpt lat="39.745433000" lon="-8.803583000">
        <ele>41.800000</ele>
        <time>2020-10-17T16:57:40Z</time>
      </trkpt>
      <trkpt lat="39.745483000" lon="-8.803519000">
        <ele>41.600000</ele>
        <time>2020-10-17T16:57:41Z</time>
      </trkpt>
      <trkpt lat="39.745634000" lon="-8.803325000">
        <ele>41.600000</ele>
        <time>2020-10-17T16:57:44Z</time>
      </trkpt>
      <trkpt lat="39.745687000" lon="-8.803262000">
        <ele>41.600000</ele>
        <time>2020-10-17T16:57:45Z</time>
      </trkpt>
      <trkpt lat="39.745741000" lon="-8.803201000">
        <ele>41.400000</ele>
        <time>2020-10-17T16:57:46Z</time>
      </trkpt>
      <trkpt lat="39.745901000" lon="-8.803016000">
        <ele>41.400000</ele>
        <time>2020-10-17T16:57:49Z</time>
      </trkpt>
      <trkpt lat="39.745957000" lon="-8.802954000">
        <ele>41.200000</ele>
        <time>2020-10-17T16:57:50Z</time>
      </trkpt>
      <trkpt lat="39.746123000" lon="-8.802758000">
        <ele>41.200000</ele>
        <time>2020-10-17T16:57:53Z</time>
      </trkpt>
      <trkpt lat="39.746304000" lon="-8.802582000">
        <ele>40.600000</ele>
        <time>2020-10-17T16:57:56Z</time>
      </trkpt>
      <trkpt lat="39.746490000" lon="-8.802407000">
        <ele>40.600000</ele>
        <time>2020-10-17T16:57:59Z</time>
      </trkpt>
      <trkpt lat="39.746546000" lon="-8.802345000">
        <ele>40.600000</ele>
        <time>2020-10-17T16:58:00Z</time>
      </trkpt>
      <trkpt lat="39.746594000" lon="-8.802277000">
        <ele>40.600000</ele>
        <time>2020-10-17T16:58:01Z</time>
      </trkpt>
      <trkpt lat="39.746622000" lon="-8.802189000">
        <ele>40.600000</ele>
        <time>2020-10-17T16:58:02Z</time>
      </trkpt>
      <trkpt lat="39.746676000" lon="-8.802121000">
        <ele>40.400000</ele>
        <time>2020-10-17T16:58:03Z</time>
      </trkpt>
      <trkpt lat="39.746775000" lon="-8.801993000">
        <ele>40.400000</ele>
        <time>2020-10-17T16:58:05Z</time>
      </trkpt>
      <trkpt lat="39.746828000" lon="-8.801940000">
        <ele>40.200000</ele>
        <time>2020-10-17T16:58:06Z</time>
      </trkpt>
      <trkpt lat="39.746880000" lon="-8.801888000">
        <ele>40.200000</ele>
        <time>2020-10-17T16:58:07Z</time>
      </trkpt>
      <trkpt lat="39.746935000" lon="-8.801841000">
        <ele>40.200000</ele>
        <time>2020-10-17T16:58:08Z</time>
      </trkpt>
      <trkpt lat="39.747050000" lon="-8.801757000">
        <ele>40.200000</ele>
        <time>2020-10-17T16:58:10Z</time>
      </trkpt>
      <trkpt lat="39.747109000" lon="-8.801720000">
        <ele>40.400000</ele>
        <time>2020-10-17T16:58:11Z</time>
      </trkpt>
      <trkpt lat="39.747169000" lon="-8.801688000">
        <ele>40.400000</ele>
        <time>2020-10-17T16:58:12Z</time>
      </trkpt>
      <trkpt lat="39.747227000" lon="-8.801655000">
        <ele>40.400000</ele>
        <time>2020-10-17T16:58:13Z</time>
      </trkpt>
      <trkpt lat="39.747285000" lon="-8.801626000">
        <ele>40.400000</ele>
        <time>2020-10-17T16:58:14Z</time>
      </trkpt>
      <trkpt lat="39.747344000" lon="-8.801606000">
        <ele>40.400000</ele>
        <time>2020-10-17T16:58:15Z</time>
      </trkpt>
      <trkpt lat="39.747536000" lon="-8.801557000">
        <ele>41.000000</ele>
        <time>2020-10-17T16:58:18Z</time>
      </trkpt>
      <trkpt lat="39.747673000" lon="-8.801526000">
        <ele>41.000000</ele>
        <time>2020-10-17T16:58:20Z</time>
      </trkpt>
      <trkpt lat="39.747742000" lon="-8.801509000">
        <ele>41.200000</ele>
        <time>2020-10-17T16:58:21Z</time>
      </trkpt>
      <trkpt lat="39.748025000" lon="-8.801442000">
        <ele>41.400000</ele>
        <time>2020-10-17T16:58:25Z</time>
      </trkpt>
      <trkpt lat="39.748156000" lon="-8.801426000">
        <ele>41.400000</ele>
        <time>2020-10-17T16:58:27Z</time>
      </trkpt>
      <trkpt lat="39.748219000" lon="-8.801416000">
        <ele>41.400000</ele>
        <time>2020-10-17T16:58:28Z</time>
      </trkpt>
      <trkpt lat="39.748424000" lon="-8.801396000">
        <ele>41.400000</ele>
        <time>2020-10-17T16:58:31Z</time>
      </trkpt>
      <trkpt lat="39.748491000" lon="-8.801399000">
        <ele>41.400000</ele>
        <time>2020-10-17T16:58:32Z</time>
      </trkpt>
      <trkpt lat="39.748860000" lon="-8.801496000">
        <ele>41.400000</ele>
        <time>2020-10-17T16:58:37Z</time>
      </trkpt>
      <trkpt lat="39.748937000" lon="-8.801529000">
        <ele>41.400000</ele>
        <time>2020-10-17T16:58:38Z</time>
      </trkpt>
      <trkpt lat="39.748993000" lon="-8.801573000">
        <ele>41.400000</ele>
        <time>2020-10-17T16:58:39Z</time>
      </trkpt>
      <trkpt lat="39.749056000" lon="-8.801612000">
        <ele>41.400000</ele>
        <time>2020-10-17T16:58:40Z</time>
      </trkpt>
      <trkpt lat="39.749122000" lon="-8.801644000">
        <ele>41.400000</ele>
        <time>2020-10-17T16:58:41Z</time>
      </trkpt>
      <trkpt lat="39.749259000" lon="-8.801701000">
        <ele>41.200000</ele>
        <time>2020-10-17T16:58:43Z</time>
      </trkpt>
      <trkpt lat="39.749314000" lon="-8.801746000">
        <ele>41.000000</ele>
        <time>2020-10-17T16:58:44Z</time>
      </trkpt>
      <trkpt lat="39.749382000" lon="-8.801778000">
        <ele>41.000000</ele>
        <time>2020-10-17T16:58:45Z</time>
      </trkpt>
      <trkpt lat="39.749453000" lon="-8.801805000">
        <ele>40.800000</ele>
        <time>2020-10-17T16:58:46Z</time>
      </trkpt>
      <trkpt lat="39.749591000" lon="-8.801875000">
        <ele>40.800000</ele>
        <time>2020-10-17T16:58:48Z</time>
      </trkpt>
      <trkpt lat="39.750050000" lon="-8.802121000">
        <ele>40.800000</ele>
        <time>2020-10-17T16:58:55Z</time>
      </trkpt>
      <trkpt lat="39.750222000" lon="-8.802296000">
        <ele>41.200000</ele>
        <time>2020-10-17T16:58:58Z</time>
      </trkpt>
      <trkpt lat="39.750274000" lon="-8.802364000">
        <ele>41.200000</ele>
        <time>2020-10-17T16:58:59Z</time>
      </trkpt>
      <trkpt lat="39.750431000" lon="-8.802561000">
        <ele>41.600000</ele>
        <time>2020-10-17T16:59:02Z</time>
      </trkpt>
      <trkpt lat="39.750475000" lon="-8.802622000">
        <ele>41.800000</ele>
        <time>2020-10-17T16:59:03Z</time>
      </trkpt>
      <trkpt lat="39.750515000" lon="-8.802692000">
        <ele>41.800000</ele>
        <time>2020-10-17T16:59:04Z</time>
      </trkpt>
      <trkpt lat="39.750549000" lon="-8.802761000">
        <ele>41.800000</ele>
        <time>2020-10-17T16:59:05Z</time>
      </trkpt>
      <trkpt lat="39.750581000" lon="-8.802832000">
        <ele>42.000000</ele>
        <time>2020-10-17T16:59:06Z</time>
      </trkpt>
      <trkpt lat="39.750612000" lon="-8.802903000">
        <ele>42.000000</ele>
        <time>2020-10-17T16:59:07Z</time>
      </trkpt>
      <trkpt lat="39.750646000" lon="-8.802971000">
        <ele>42.000000</ele>
        <time>2020-10-17T16:59:08Z</time>
      </trkpt>
      <trkpt lat="39.750720000" lon="-8.803101000">
        <ele>42.000000</ele>
        <time>2020-10-17T16:59:10Z</time>
      </trkpt>
      <trkpt lat="39.750766000" lon="-8.803158000">
        <ele>42.000000</ele>
        <time>2020-10-17T16:59:11Z</time>
      </trkpt>
      <trkpt lat="39.750860000" lon="-8.803261000">
        <ele>42.000000</ele>
        <time>2020-10-17T16:59:13Z</time>
      </trkpt>
      <trkpt lat="39.750904000" lon="-8.803309000">
        <ele>42.000000</ele>
        <time>2020-10-17T16:59:14Z</time>
      </trkpt>
      <trkpt lat="39.750942000" lon="-8.803364000">
        <ele>42.200000</ele>
        <time>2020-10-17T16:59:15Z</time>
      </trkpt>
      <trkpt lat="39.750972000" lon="-8.803427000">
        <ele>42.000000</ele>
        <time>2020-10-17T16:59:16Z</time>
      </trkpt>
      <trkpt lat="39.751003000" lon="-8.803587000">
        <ele>42.000000</ele>
        <time>2020-10-17T16:59:18Z</time>
      </trkpt>
      <trkpt lat="39.751011000" lon="-8.803674000">
        <ele>42.000000</ele>
        <time>2020-10-17T16:59:19Z</time>
      </trkpt>
      <trkpt lat="39.751015000" lon="-8.803761000">
        <ele>42.200000</ele>
        <time>2020-10-17T16:59:20Z</time>
      </trkpt>
      <trkpt lat="39.751034000" lon="-8.803926000">
        <ele>42.000000</ele>
        <time>2020-10-17T16:59:22Z</time>
      </trkpt>
      <trkpt lat="39.751050000" lon="-8.804006000">
        <ele>42.200000</ele>
        <time>2020-10-17T16:59:23Z</time>
      </trkpt>
      <trkpt lat="39.751068000" lon="-8.804089000">
        <ele>42.000000</ele>
        <time>2020-10-17T16:59:24Z</time>
      </trkpt>
      <trkpt lat="39.751187000" lon="-8.804703000">
        <ele>42.000000</ele>
        <time>2020-10-17T16:59:31Z</time>
      </trkpt>
      <trkpt lat="39.751199000" lon="-8.804794000">
        <ele>41.800000</ele>
        <time>2020-10-17T16:59:32Z</time>
      </trkpt>
      <trkpt lat="39.751300000" lon="-8.805339000">
        <ele>41.200000</ele>
        <time>2020-10-17T16:59:38Z</time>
      </trkpt>
      <trkpt lat="39.751319000" lon="-8.805427000">
        <ele>41.000000</ele>
        <time>2020-10-17T16:59:39Z</time>
      </trkpt>
      <trkpt lat="39.751337000" lon="-8.805516000">
        <ele>41.200000</ele>
        <time>2020-10-17T16:59:40Z</time>
      </trkpt>
      <trkpt lat="39.751422000" lon="-8.805882000">
        <ele>40.800000</ele>
        <time>2020-10-17T16:59:44Z</time>
      </trkpt>
      <trkpt lat="39.751489000" lon="-8.806151000">
        <ele>40.600000</ele>
        <time>2020-10-17T16:59:47Z</time>
      </trkpt>
      <trkpt lat="39.751534000" lon="-8.806438000">
        <ele>40.000000</ele>
        <time>2020-10-17T16:59:50Z</time>
      </trkpt>
      <trkpt lat="39.751561000" lon="-8.806517000">
        <ele>39.800000</ele>
        <time>2020-10-17T16:59:51Z</time>
      </trkpt>
      <trkpt lat="39.751580000" lon="-8.806606000">
        <ele>39.600000</ele>
        <time>2020-10-17T16:59:52Z</time>
      </trkpt>
      <trkpt lat="39.751600000" lon="-8.806694000">
        <ele>39.800000</ele>
        <time>2020-10-17T16:59:53Z</time>
      </trkpt>
      <trkpt lat="39.751615000" lon="-8.806778000">
        <ele>39.800000</ele>
        <time>2020-10-17T16:59:54Z</time>
      </trkpt>
      <trkpt lat="39.751632000" lon="-8.806861000">
        <ele>39.600000</ele>
        <time>2020-10-17T16:59:55Z</time>
      </trkpt>
      <trkpt lat="39.751649000" lon="-8.806940000">
        <ele>39.600000</ele>
        <time>2020-10-17T16:59:56Z</time>
      </trkpt>
      <trkpt lat="39.751706000" lon="-8.807194000">
        <ele>39.200000</ele>
        <time>2020-10-17T16:59:59Z</time>
      </trkpt>
      <trkpt lat="39.751735000" lon="-8.807382000">
        <ele>39.000000</ele>
        <time>2020-10-17T17:00:01Z</time>
      </trkpt>
      <trkpt lat="39.751744000" lon="-8.807469000">
        <ele>39.000000</ele>
        <time>2020-10-17T17:00:02Z</time>
      </trkpt>
      <trkpt lat="39.751751000" lon="-8.807542000">
        <ele>39.000000</ele>
        <time>2020-10-17T17:00:03Z</time>
      </trkpt>
      <trkpt lat="39.751756000" lon="-8.807607000">
        <ele>38.800000</ele>
        <time>2020-10-17T17:00:04Z</time>
      </trkpt>
      <trkpt lat="39.751760000" lon="-8.807670000">
        <ele>38.800000</ele>
        <time>2020-10-17T17:00:05Z</time>
      </trkpt>
      <trkpt lat="39.751765000" lon="-8.807731000">
        <ele>38.800000</ele>
        <time>2020-10-17T17:00:06Z</time>
      </trkpt>
      <trkpt lat="39.751771000" lon="-8.807787000">
        <ele>38.600000</ele>
        <time>2020-10-17T17:00:07Z</time>
      </trkpt>
      <trkpt lat="39.751776000" lon="-8.807842000">
        <ele>38.600000</ele>
        <time>2020-10-17T17:00:08Z</time>
      </trkpt>
      <trkpt lat="39.751784000" lon="-8.807896000">
        <ele>38.800000</ele>
        <time>2020-10-17T17:00:09Z</time>
      </trkpt>
      <trkpt lat="39.751801000" lon="-8.807961000">
        <ele>38.800000</ele>
        <time>2020-10-17T17:00:10Z</time>
      </trkpt>
      <trkpt lat="39.751890000" lon="-8.808396000">
        <ele>38.800000</ele>
        <time>2020-10-17T17:00:16Z</time>
      </trkpt>
      <trkpt lat="39.751931000" lon="-8.808620000">
        <ele>38.600000</ele>
        <time>2020-10-17T17:00:19Z</time>
      </trkpt>
      <trkpt lat="39.751969000" lon="-8.808852000">
        <ele>38.800000</ele>
        <time>2020-10-17T17:00:22Z</time>
      </trkpt>
      <trkpt lat="39.751982000" lon="-8.808929000">
        <ele>38.600000</ele>
        <time>2020-10-17T17:00:23Z</time>
      </trkpt>
      <trkpt lat="39.752084000" lon="-8.809416000">
        <ele>39.200000</ele>
        <time>2020-10-17T17:00:29Z</time>
      </trkpt>
      <trkpt lat="39.752099000" lon="-8.809497000">
        <ele>39.000000</ele>
        <time>2020-10-17T17:00:30Z</time>
      </trkpt>
      <trkpt lat="39.752113000" lon="-8.809578000">
        <ele>39.200000</ele>
        <time>2020-10-17T17:00:31Z</time>
      </trkpt>
      <trkpt lat="39.752143000" lon="-8.809745000">
        <ele>39.200000</ele>
        <time>2020-10-17T17:00:33Z</time>
      </trkpt>
      <trkpt lat="39.752158000" lon="-8.809828000">
        <ele>39.200000</ele>
        <time>2020-10-17T17:00:34Z</time>
      </trkpt>
      <trkpt lat="39.752172000" lon="-8.809909000">
        <ele>39.200000</ele>
        <time>2020-10-17T17:00:35Z</time>
      </trkpt>
      <trkpt lat="39.752184000" lon="-8.809990000">
        <ele>39.200000</ele>
        <time>2020-10-17T17:00:36Z</time>
      </trkpt>
      <trkpt lat="39.752210000" lon="-8.810159000">
        <ele>39.200000</ele>
        <time>2020-10-17T17:00:38Z</time>
      </trkpt>
      <trkpt lat="39.752322000" lon="-8.810741000">
        <ele>39.200000</ele>
        <time>2020-10-17T17:00:45Z</time>
      </trkpt>
      <trkpt lat="39.752443000" lon="-8.811481000">
        <ele>39.200000</ele>
        <time>2020-10-17T17:00:53Z</time>
      </trkpt>
      <trkpt lat="39.752587000" lon="-8.812257000">
        <ele>39.000000</ele>
        <time>2020-10-17T17:01:01Z</time>
      </trkpt>
      <trkpt lat="39.752607000" lon="-8.812353000">
        <ele>39.000000</ele>
        <time>2020-10-17T17:01:02Z</time>
      </trkpt>
      <trkpt lat="39.752626000" lon="-8.812450000">
        <ele>38.800000</ele>
        <time>2020-10-17T17:01:03Z</time>
      </trkpt>
      <trkpt lat="39.752724000" lon="-8.812937000">
        <ele>38.600000</ele>
        <time>2020-10-17T17:01:08Z</time>
      </trkpt>
      <trkpt lat="39.752746000" lon="-8.813029000">
        <ele>38.600000</ele>
        <time>2020-10-17T17:01:09Z</time>
      </trkpt>
      <trkpt lat="39.752795000" lon="-8.813219000">
        <ele>38.600000</ele>
        <time>2020-10-17T17:01:11Z</time>
      </trkpt>
      <trkpt lat="39.752822000" lon="-8.813309000">
        <ele>38.400000</ele>
        <time>2020-10-17T17:01:12Z</time>
      </trkpt>
      <trkpt lat="39.752848000" lon="-8.813401000">
        <ele>38.600000</ele>
        <time>2020-10-17T17:01:13Z</time>
      </trkpt>
      <trkpt lat="39.752876000" lon="-8.813487000">
        <ele>38.400000</ele>
        <time>2020-10-17T17:01:14Z</time>
      </trkpt>
      <trkpt lat="39.752909000" lon="-8.813568000">
        <ele>38.400000</ele>
        <time>2020-10-17T17:01:15Z</time>
      </trkpt>
      <trkpt lat="39.752944000" lon="-8.813642000">
        <ele>38.400000</ele>
        <time>2020-10-17T17:01:16Z</time>
      </trkpt>
      <trkpt lat="39.752984000" lon="-8.813709000">
        <ele>38.400000</ele>
        <time>2020-10-17T17:01:17Z</time>
      </trkpt>
      <trkpt lat="39.753029000" lon="-8.813773000">
        <ele>38.400000</ele>
        <time>2020-10-17T17:01:18Z</time>
      </trkpt>
      <trkpt lat="39.753086000" lon="-8.813827000">
        <ele>38.600000</ele>
        <time>2020-10-17T17:01:19Z</time>
      </trkpt>
      <trkpt lat="39.753149000" lon="-8.813871000">
        <ele>38.600000</ele>
        <time>2020-10-17T17:01:20Z</time>
      </trkpt>
      <trkpt lat="39.753220000" lon="-8.813902000">
        <ele>38.400000</ele>
        <time>2020-10-17T17:01:21Z</time>
      </trkpt>
      <trkpt lat="39.753291000" lon="-8.813934000">
        <ele>38.400000</ele>
        <time>2020-10-17T17:01:22Z</time>
      </trkpt>
      <trkpt lat="39.753419000" lon="-8.814012000">
        <ele>38.600000</ele>
        <time>2020-10-17T17:01:24Z</time>
      </trkpt>
      <trkpt lat="39.753476000" lon="-8.814056000">
        <ele>38.600000</ele>
        <time>2020-10-17T17:01:25Z</time>
      </trkpt>
      <trkpt lat="39.753516000" lon="-8.814114000">
        <ele>38.800000</ele>
        <time>2020-10-17T17:01:26Z</time>
      </trkpt>
      <trkpt lat="39.753545000" lon="-8.814180000">
        <ele>38.800000</ele>
        <time>2020-10-17T17:01:27Z</time>
      </trkpt>
      <trkpt lat="39.753564000" lon="-8.814252000">
        <ele>38.800000</ele>
        <time>2020-10-17T17:01:28Z</time>
      </trkpt>
      <trkpt lat="39.753569000" lon="-8.814328000">
        <ele>38.800000</ele>
        <time>2020-10-17T17:01:29Z</time>
      </trkpt>
      <trkpt lat="39.753546000" lon="-8.814405000">
        <ele>39.000000</ele>
        <time>2020-10-17T17:01:30Z</time>
      </trkpt>
      <trkpt lat="39.753506000" lon="-8.814478000">
        <ele>39.000000</ele>
        <time>2020-10-17T17:01:31Z</time>
      </trkpt>
      <trkpt lat="39.753470000" lon="-8.814542000">
        <ele>39.400000</ele>
        <time>2020-10-17T17:01:32Z</time>
      </trkpt>
      <trkpt lat="39.753426000" lon="-8.814597000">
        <ele>39.600000</ele>
        <time>2020-10-17T17:01:33Z</time>
      </trkpt>
      <trkpt lat="39.753370000" lon="-8.814650000">
        <ele>39.600000</ele>
        <time>2020-10-17T17:01:34Z</time>
      </trkpt>
      <trkpt lat="39.753255000" lon="-8.814769000">
        <ele>39.800000</ele>
        <time>2020-10-17T17:01:36Z</time>
      </trkpt>
      <trkpt lat="39.753179000" lon="-8.814925000">
        <ele>39.800000</ele>
        <time>2020-10-17T17:01:38Z</time>
      </trkpt>
      <trkpt lat="39.753154000" lon="-8.815010000">
        <ele>39.800000</ele>
        <time>2020-10-17T17:01:39Z</time>
      </trkpt>
      <trkpt lat="39.753135000" lon="-8.815096000">
        <ele>39.800000</ele>
        <time>2020-10-17T17:01:40Z</time>
      </trkpt>
      <trkpt lat="39.753117000" lon="-8.815189000">
        <ele>39.800000</ele>
        <time>2020-10-17T17:01:41Z</time>
      </trkpt>
      <trkpt lat="39.753067000" lon="-8.815571000">
        <ele>39.800000</ele>
        <time>2020-10-17T17:01:45Z</time>
      </trkpt>
      <trkpt lat="39.753071000" lon="-8.815769000">
        <ele>39.800000</ele>
        <time>2020-10-17T17:01:47Z</time>
      </trkpt>
      <trkpt lat="39.753110000" lon="-8.816063000">
        <ele>39.800000</ele>
        <time>2020-10-17T17:01:50Z</time>
      </trkpt>
      <trkpt lat="39.753157000" lon="-8.816251000">
        <ele>39.800000</ele>
        <time>2020-10-17T17:01:52Z</time>
      </trkpt>
      <trkpt lat="39.753204000" lon="-8.816434000">
        <ele>39.800000</ele>
        <time>2020-10-17T17:01:54Z</time>
      </trkpt>
      <trkpt lat="39.753230000" lon="-8.816514000">
        <ele>39.800000</ele>
        <time>2020-10-17T17:01:55Z</time>
      </trkpt>
      <trkpt lat="39.753260000" lon="-8.816596000">
        <ele>39.800000</ele>
        <time>2020-10-17T17:01:56Z</time>
      </trkpt>
      <trkpt lat="39.753303000" lon="-8.816728000">
        <ele>39.800000</ele>
        <time>2020-10-17T17:01:57Z</time>
      </trkpt>
      <trkpt lat="39.753347000" lon="-8.816861000">
        <ele>40.000000</ele>
        <time>2020-10-17T17:01:58Z</time>
      </trkpt>
      <trkpt lat="39.753390000" lon="-8.816993000">
        <ele>39.800000</ele>
        <time>2020-10-17T17:01:59Z</time>
      </trkpt>
      <trkpt lat="39.753433000" lon="-8.817126000">
        <ele>39.800000</ele>
        <time>2020-10-17T17:02:02Z</time>
      </trkpt>
      <trkpt lat="39.753494000" lon="-8.817292000">
        <ele>39.800000</ele>
        <time>2020-10-17T17:02:04Z</time>
      </trkpt>
      <trkpt lat="39.753590000" lon="-8.817549000">
        <ele>40.000000</ele>
        <time>2020-10-17T17:02:07Z</time>
      </trkpt>
      <trkpt lat="39.753620000" lon="-8.817637000">
        <ele>40.200000</ele>
        <time>2020-10-17T17:02:08Z</time>
      </trkpt>
      <trkpt lat="39.753648000" lon="-8.817723000">
        <ele>40.000000</ele>
        <time>2020-10-17T17:02:09Z</time>
      </trkpt>
      <trkpt lat="39.753676000" lon="-8.817805000">
        <ele>40.200000</ele>
        <time>2020-10-17T17:02:10Z</time>
      </trkpt>
      <trkpt lat="39.753705000" lon="-8.817882000">
        <ele>40.200000</ele>
        <time>2020-10-17T17:02:11Z</time>
      </trkpt>
      <trkpt lat="39.753762000" lon="-8.818040000">
        <ele>40.400000</ele>
        <time>2020-10-17T17:02:13Z</time>
      </trkpt>
      <trkpt lat="39.753787000" lon="-8.818120000">
        <ele>40.400000</ele>
        <time>2020-10-17T17:02:14Z</time>
      </trkpt>
      <trkpt lat="39.753902000" lon="-8.818530000">
        <ele>41.200000</ele>
        <time>2020-10-17T17:02:19Z</time>
      </trkpt>
      <trkpt lat="39.753925000" lon="-8.818606000">
        <ele>41.200000</ele>
        <time>2020-10-17T17:02:20Z</time>
      </trkpt>
      <trkpt lat="39.753951000" lon="-8.818680000">
        <ele>41.400000</ele>
        <time>2020-10-17T17:02:21Z</time>
      </trkpt>
      <trkpt lat="39.754026000" lon="-8.818912000">
        <ele>41.600000</ele>
        <time>2020-10-17T17:02:24Z</time>
      </trkpt>
      <trkpt lat="39.754078000" lon="-8.819067000">
        <ele>41.800000</ele>
        <time>2020-10-17T17:02:26Z</time>
      </trkpt>
      <trkpt lat="39.754154000" lon="-8.819298000">
        <ele>42.000000</ele>
        <time>2020-10-17T17:02:29Z</time>
      </trkpt>
      <trkpt lat="39.754182000" lon="-8.819370000">
        <ele>42.400000</ele>
        <time>2020-10-17T17:02:30Z</time>
      </trkpt>
      <trkpt lat="39.754257000" lon="-8.819495000">
        <ele>42.600000</ele>
        <time>2020-10-17T17:02:32Z</time>
      </trkpt>
      <trkpt lat="39.754297000" lon="-8.819551000">
        <ele>42.600000</ele>
        <time>2020-10-17T17:02:33Z</time>
      </trkpt>
      <trkpt lat="39.754351000" lon="-8.819579000">
        <ele>42.800000</ele>
        <time>2020-10-17T17:02:34Z</time>
      </trkpt>
      <trkpt lat="39.754401000" lon="-8.819612000">
        <ele>42.800000</ele>
        <time>2020-10-17T17:02:35Z</time>
      </trkpt>
      <trkpt lat="39.754446000" lon="-8.819649000">
        <ele>43.000000</ele>
        <time>2020-10-17T17:02:36Z</time>
      </trkpt>
      <trkpt lat="39.754471000" lon="-8.819705000">
        <ele>43.000000</ele>
        <time>2020-10-17T17:02:37Z</time>
      </trkpt>
      <trkpt lat="39.754491000" lon="-8.819764000">
        <ele>43.000000</ele>
        <time>2020-10-17T17:02:38Z</time>
      </trkpt>
      <trkpt lat="39.754495000" lon="-8.819834000">
        <ele>43.200000</ele>
        <time>2020-10-17T17:02:39Z</time>
      </trkpt>
      <trkpt lat="39.754491000" lon="-8.819910000">
        <ele>43.200000</ele>
        <time>2020-10-17T17:02:40Z</time>
      </trkpt>
      <trkpt lat="39.754474000" lon="-8.819994000">
        <ele>43.200000</ele>
        <time>2020-10-17T17:02:41Z</time>
      </trkpt>
      <trkpt lat="39.754467000" lon="-8.820066000">
        <ele>43.400000</ele>
        <time>2020-10-17T17:02:42Z</time>
      </trkpt>
      <trkpt lat="39.754464000" lon="-8.820128000">
        <ele>43.800000</ele>
        <time>2020-10-17T17:02:43Z</time>
      </trkpt>
      <trkpt lat="39.754474000" lon="-8.820190000">
        <ele>43.800000</ele>
        <time>2020-10-17T17:02:44Z</time>
      </trkpt>
      <trkpt lat="39.754483000" lon="-8.820258000">
        <ele>44.200000</ele>
        <time>2020-10-17T17:02:45Z</time>
      </trkpt>
      <trkpt lat="39.754498000" lon="-8.820325000">
        <ele>44.200000</ele>
        <time>2020-10-17T17:02:46Z</time>
      </trkpt>
      <trkpt lat="39.754519000" lon="-8.820393000">
        <ele>44.200000</ele>
        <time>2020-10-17T17:02:47Z</time>
      </trkpt>
      <trkpt lat="39.754648000" lon="-8.820734000">
        <ele>44.400000</ele>
        <time>2020-10-17T17:02:52Z</time>
      </trkpt>
      <trkpt lat="39.754689000" lon="-8.820878000">
        <ele>44.400000</ele>
        <time>2020-10-17T17:02:54Z</time>
      </trkpt>
      <trkpt lat="39.754708000" lon="-8.820945000">
        <ele>44.600000</ele>
        <time>2020-10-17T17:02:55Z</time>
      </trkpt>
      <trkpt lat="39.754727000" lon="-8.821010000">
        <ele>44.400000</ele>
        <time>2020-10-17T17:02:56Z</time>
      </trkpt>
      <trkpt lat="39.754744000" lon="-8.821074000">
        <ele>44.400000</ele>
        <time>2020-10-17T17:02:57Z</time>
      </trkpt>
      <trkpt lat="39.754762000" lon="-8.821136000">
        <ele>44.600000</ele>
        <time>2020-10-17T17:02:58Z</time>
      </trkpt>
      <trkpt lat="39.754779000" lon="-8.821197000">
        <ele>44.600000</ele>
        <time>2020-10-17T17:02:59Z</time>
      </trkpt>
      <trkpt lat="39.754820000" lon="-8.821319000">
        <ele>44.600000</ele>
        <time>2020-10-17T17:03:01Z</time>
      </trkpt>
      <trkpt lat="39.754859000" lon="-8.821442000">
        <ele>44.600000</ele>
        <time>2020-10-17T17:03:03Z</time>
      </trkpt>
      <trkpt lat="39.754879000" lon="-8.821502000">
        <ele>44.600000</ele>
        <time>2020-10-17T17:03:04Z</time>
      </trkpt>
      <trkpt lat="39.754900000" lon="-8.821566000">
        <ele>44.800000</ele>
        <time>2020-10-17T17:03:05Z</time>
      </trkpt>
      <trkpt lat="39.754978000" lon="-8.821817000">
        <ele>44.800000</ele>
        <time>2020-10-17T17:03:09Z</time>
      </trkpt>
      <trkpt lat="39.755139000" lon="-8.822177000">
        <ele>45.000000</ele>
        <time>2020-10-17T17:03:15Z</time>
      </trkpt>
      <trkpt lat="39.755161000" lon="-8.822237000">
        <ele>45.000000</ele>
        <time>2020-10-17T17:03:16Z</time>
      </trkpt>
      <trkpt lat="39.755291000" lon="-8.822644000">
        <ele>45.000000</ele>
        <time>2020-10-17T17:03:22Z</time>
      </trkpt>
      <trkpt lat="39.755421000" lon="-8.823041000">
        <ele>45.000000</ele>
        <time>2020-10-17T17:03:28Z</time>
      </trkpt>
      <trkpt lat="39.755436000" lon="-8.823126000">
        <ele>45.000000</ele>
        <time>2020-10-17T17:03:29Z</time>
      </trkpt>
      <trkpt lat="39.755479000" lon="-8.823269000">
        <ele>45.000000</ele>
        <time>2020-10-17T17:03:31Z</time>
      </trkpt>
      <trkpt lat="39.755500000" lon="-8.823335000">
        <ele>44.800000</ele>
        <time>2020-10-17T17:03:32Z</time>
      </trkpt>
      <trkpt lat="39.755520000" lon="-8.823402000">
        <ele>45.000000</ele>
        <time>2020-10-17T17:03:33Z</time>
      </trkpt>
      <trkpt lat="39.755536000" lon="-8.823472000">
        <ele>45.000000</ele>
        <time>2020-10-17T17:03:34Z</time>
      </trkpt>
      <trkpt lat="39.755556000" lon="-8.823537000">
        <ele>45.000000</ele>
        <time>2020-10-17T17:03:35Z</time>
      </trkpt>
      <trkpt lat="39.755598000" lon="-8.823671000">
        <ele>45.000000</ele>
        <time>2020-10-17T17:03:37Z</time>
      </trkpt>
      <trkpt lat="39.755642000" lon="-8.823805000">
        <ele>45.200000</ele>
        <time>2020-10-17T17:03:39Z</time>
      </trkpt>
      <trkpt lat="39.755681000" lon="-8.823933000">
        <ele>45.200000</ele>
        <time>2020-10-17T17:03:41Z</time>
      </trkpt>
      <trkpt lat="39.755746000" lon="-8.824136000">
        <ele>45.200000</ele>
        <time>2020-10-17T17:03:44Z</time>
      </trkpt>
      <trkpt lat="39.755765000" lon="-8.824204000">
        <ele>45.000000</ele>
        <time>2020-10-17T17:03:45Z</time>
      </trkpt>
      <trkpt lat="39.755788000" lon="-8.824268000">
        <ele>45.000000</ele>
        <time>2020-10-17T17:03:46Z</time>
      </trkpt>
      <trkpt lat="39.755807000" lon="-8.824330000">
        <ele>45.000000</ele>
        <time>2020-10-17T17:03:47Z</time>
      </trkpt>
      <trkpt lat="39.755827000" lon="-8.824393000">
        <ele>45.000000</ele>
        <time>2020-10-17T17:03:48Z</time>
      </trkpt>
      <trkpt lat="39.755850000" lon="-8.824453000">
        <ele>45.000000</ele>
        <time>2020-10-17T17:03:49Z</time>
      </trkpt>
      <trkpt lat="39.755869000" lon="-8.824512000">
        <ele>45.000000</ele>
        <time>2020-10-17T17:03:50Z</time>
      </trkpt>
      <trkpt lat="39.755889000" lon="-8.824565000">
        <ele>45.000000</ele>
        <time>2020-10-17T17:03:51Z</time>
      </trkpt>
      <trkpt lat="39.755909000" lon="-8.824622000">
        <ele>45.000000</ele>
        <time>2020-10-17T17:03:52Z</time>
      </trkpt>
      <trkpt lat="39.755954000" lon="-8.824742000">
        <ele>45.000000</ele>
        <time>2020-10-17T17:03:54Z</time>
      </trkpt>
      <trkpt lat="39.756019000" lon="-8.824937000">
        <ele>44.800000</ele>
        <time>2020-10-17T17:03:57Z</time>
      </trkpt>
      <trkpt lat="39.756111000" lon="-8.825304000">
        <ele>44.800000</ele>
        <time>2020-10-17T17:04:02Z</time>
      </trkpt>
      <trkpt lat="39.756166000" lon="-8.825528000">
        <ele>44.800000</ele>
        <time>2020-10-17T17:04:05Z</time>
      </trkpt>
      <trkpt lat="39.756189000" lon="-8.825595000">
        <ele>44.800000</ele>
        <time>2020-10-17T17:04:06Z</time>
      </trkpt>
      <trkpt lat="39.756212000" lon="-8.825660000">
        <ele>44.600000</ele>
        <time>2020-10-17T17:04:07Z</time>
      </trkpt>
      <trkpt lat="39.756235000" lon="-8.825719000">
        <ele>44.600000</ele>
        <time>2020-10-17T17:04:08Z</time>
      </trkpt>
      <trkpt lat="39.756261000" lon="-8.825772000">
        <ele>44.600000</ele>
        <time>2020-10-17T17:04:09Z</time>
      </trkpt>
      <trkpt lat="39.756286000" lon="-8.825827000">
        <ele>44.400000</ele>
        <time>2020-10-17T17:04:10Z</time>
      </trkpt>
      <trkpt lat="39.756321000" lon="-8.825974000">
        <ele>44.200000</ele>
        <time>2020-10-17T17:04:12Z</time>
      </trkpt>
      <trkpt lat="39.756339000" lon="-8.826159000">
        <ele>44.200000</ele>
        <time>2020-10-17T17:04:14Z</time>
      </trkpt>
      <trkpt lat="39.756353000" lon="-8.826238000">
        <ele>44.000000</ele>
        <time>2020-10-17T17:04:15Z</time>
      </trkpt>
      <trkpt lat="39.756364000" lon="-8.826304000">
        <ele>44.000000</ele>
        <time>2020-10-17T17:04:16Z</time>
      </trkpt>
      <trkpt lat="39.756372000" lon="-8.826354000">
        <ele>43.800000</ele>
        <time>2020-10-17T17:04:17Z</time>
      </trkpt>
      <trkpt lat="39.756383000" lon="-8.826407000">
        <ele>43.800000</ele>
        <time>2020-10-17T17:04:18Z</time>
      </trkpt>
      <trkpt lat="39.756403000" lon="-8.826462000">
        <ele>43.800000</ele>
        <time>2020-10-17T17:04:19Z</time>
      </trkpt>
      <trkpt lat="39.756451000" lon="-8.826636000">
        <ele>43.400000</ele>
        <time>2020-10-17T17:04:22Z</time>
      </trkpt>
      <trkpt lat="39.756468000" lon="-8.826692000">
        <ele>43.400000</ele>
        <time>2020-10-17T17:04:23Z</time>
      </trkpt>
      <trkpt lat="39.756488000" lon="-8.826754000">
        <ele>43.400000</ele>
        <time>2020-10-17T17:04:24Z</time>
      </trkpt>
      <trkpt lat="39.756499000" lon="-8.826811000">
        <ele>43.400000</ele>
        <time>2020-10-17T17:04:25Z</time>
      </trkpt>
      <trkpt lat="39.756507000" lon="-8.826855000">
        <ele>43.200000</ele>
        <time>2020-10-17T17:04:26Z</time>
      </trkpt>
      <trkpt lat="39.756519000" lon="-8.826894000">
        <ele>43.200000</ele>
        <time>2020-10-17T17:04:27Z</time>
      </trkpt>
      <trkpt lat="39.756530000" lon="-8.826929000">
        <ele>43.200000</ele>
        <time>2020-10-17T17:04:28Z</time>
      </trkpt>
      <trkpt lat="39.756539000" lon="-8.826962000">
        <ele>43.200000</ele>
        <time>2020-10-17T17:04:29Z</time>
      </trkpt>
      <trkpt lat="39.756552000" lon="-8.826989000">
        <ele>43.000000</ele>
        <time>2020-10-17T17:04:30Z</time>
      </trkpt>
      <trkpt lat="39.756557000" lon="-8.827011000">
        <ele>42.800000</ele>
        <time>2020-10-17T17:04:31Z</time>
      </trkpt>
      <trkpt lat="39.756566000" lon="-8.827016000">
        <ele>42.800000</ele>
        <time>2020-10-17T17:04:32Z</time>
      </trkpt>
      <trkpt lat="39.756583000" lon="-8.827017000">
        <ele>42.800000</ele>
        <time>2020-10-17T17:04:33Z</time>
      </trkpt>
    </trkseg>
  </trk>
</gpx>
